<?xml version="1.0" encoding="UTF-8" standalone="no" ?>
<gpx xmlns="http://www.topografix.com/GPX/1/1" xmlns:xsi="http://www.w3.org/2001/XMLSchema-instance" xsi:schemaLocation="http://www.topografix.com/GPX/1/1 http://www.topografix.com/GPX/1/1/gpx.xsd" version="1.1" creator="VisuGPX - https://www.visugpx.com">
  <metadata>
    <name>sortie 17_10_21</name>
  </metadata>
  <trk>
    <name><![CDATA[Morning Ride]]></name>
    <trkseg>
      <trkpt lat="46.57719" lon="5.74715">
        <ele>539</ele>
        <time>2021-10-17T06:17:02Z</time>
      </trkpt>
      <trkpt lat="46.57713" lon="5.74715">
        <ele>539</ele>
        <time>2021-10-17T06:17:03Z</time>
      </trkpt>
      <trkpt lat="46.57706" lon="5.74714">
        <ele>539</ele>
        <time>2021-10-17T06:17:04Z</time>
      </trkpt>
      <trkpt lat="46.577" lon="5.74713">
        <ele>539</ele>
        <time>2021-10-17T06:17:05Z</time>
      </trkpt>
      <trkpt lat="46.57694" lon="5.74712">
        <ele>539</ele>
        <time>2021-10-17T06:17:06Z</time>
      </trkpt>
      <trkpt lat="46.57688" lon="5.74711">
        <ele>539</ele>
        <time>2021-10-17T06:17:07Z</time>
      </trkpt>
      <trkpt lat="46.57682" lon="5.74711">
        <ele>539.2</ele>
        <time>2021-10-17T06:17:08Z</time>
      </trkpt>
      <trkpt lat="46.57676" lon="5.7471">
        <ele>539.2</ele>
        <time>2021-10-17T06:17:09Z</time>
      </trkpt>
      <trkpt lat="46.5767" lon="5.74709">
        <ele>539.2</ele>
        <time>2021-10-17T06:17:10Z</time>
      </trkpt>
      <trkpt lat="46.57664" lon="5.74708">
        <ele>539.2</ele>
        <time>2021-10-17T06:17:11Z</time>
      </trkpt>
      <trkpt lat="46.57658" lon="5.74707">
        <ele>539.2</ele>
        <time>2021-10-17T06:17:12Z</time>
      </trkpt>
      <trkpt lat="46.57653" lon="5.74707">
        <ele>539.6</ele>
        <time>2021-10-17T06:17:13Z</time>
      </trkpt>
      <trkpt lat="46.57647" lon="5.74706">
        <ele>539.6</ele>
        <time>2021-10-17T06:17:14Z</time>
      </trkpt>
      <trkpt lat="46.57641" lon="5.74706">
        <ele>539.8</ele>
        <time>2021-10-17T06:17:15Z</time>
      </trkpt>
      <trkpt lat="46.57636" lon="5.74706">
        <ele>539.8</ele>
        <time>2021-10-17T06:17:16Z</time>
      </trkpt>
      <trkpt lat="46.5763" lon="5.74706">
        <ele>539.8</ele>
        <time>2021-10-17T06:17:17Z</time>
      </trkpt>
      <trkpt lat="46.57625" lon="5.74707">
        <ele>539.8</ele>
        <time>2021-10-17T06:17:18Z</time>
      </trkpt>
      <trkpt lat="46.5762" lon="5.74707">
        <ele>540</ele>
        <time>2021-10-17T06:17:19Z</time>
      </trkpt>
      <trkpt lat="46.57615" lon="5.74708">
        <ele>540</ele>
        <time>2021-10-17T06:17:20Z</time>
      </trkpt>
      <trkpt lat="46.57609" lon="5.74709">
        <ele>540</ele>
        <time>2021-10-17T06:17:21Z</time>
      </trkpt>
      <trkpt lat="46.57604" lon="5.7471">
        <ele>540</ele>
        <time>2021-10-17T06:17:22Z</time>
      </trkpt>
      <trkpt lat="46.57599" lon="5.74711">
        <ele>540</ele>
        <time>2021-10-17T06:17:23Z</time>
      </trkpt>
      <trkpt lat="46.57594" lon="5.74713">
        <ele>540</ele>
        <time>2021-10-17T06:17:24Z</time>
      </trkpt>
      <trkpt lat="46.57589" lon="5.74714">
        <ele>540</ele>
        <time>2021-10-17T06:17:25Z</time>
      </trkpt>
      <trkpt lat="46.57583" lon="5.74715">
        <ele>540</ele>
        <time>2021-10-17T06:17:26Z</time>
      </trkpt>
      <trkpt lat="46.57578" lon="5.74717">
        <ele>540</ele>
        <time>2021-10-17T06:17:27Z</time>
      </trkpt>
      <trkpt lat="46.57573" lon="5.74718">
        <ele>540</ele>
        <time>2021-10-17T06:17:28Z</time>
      </trkpt>
      <trkpt lat="46.57564" lon="5.7472">
        <ele>540</ele>
        <time>2021-10-17T06:17:29Z</time>
      </trkpt>
      <trkpt lat="46.57561" lon="5.74721">
        <ele>539.6</ele>
        <time>2021-10-17T06:17:30Z</time>
      </trkpt>
      <trkpt lat="46.57556" lon="5.74722">
        <ele>539.6</ele>
        <time>2021-10-17T06:17:31Z</time>
      </trkpt>
      <trkpt lat="46.5755" lon="5.74724">
        <ele>539.2</ele>
        <time>2021-10-17T06:17:32Z</time>
      </trkpt>
      <trkpt lat="46.57545" lon="5.74725">
        <ele>539.2</ele>
        <time>2021-10-17T06:17:33Z</time>
      </trkpt>
      <trkpt lat="46.57539" lon="5.74727">
        <ele>538.8</ele>
        <time>2021-10-17T06:17:34Z</time>
      </trkpt>
      <trkpt lat="46.57532" lon="5.74728">
        <ele>538.8</ele>
        <time>2021-10-17T06:17:35Z</time>
      </trkpt>
      <trkpt lat="46.57526" lon="5.7473">
        <ele>538.6</ele>
        <time>2021-10-17T06:17:36Z</time>
      </trkpt>
      <trkpt lat="46.5752" lon="5.74731">
        <ele>538.6</ele>
        <time>2021-10-17T06:17:37Z</time>
      </trkpt>
      <trkpt lat="46.57513" lon="5.74733">
        <ele>538</ele>
        <time>2021-10-17T06:17:38Z</time>
      </trkpt>
      <trkpt lat="46.57507" lon="5.74735">
        <ele>537.8</ele>
        <time>2021-10-17T06:17:39Z</time>
      </trkpt>
      <trkpt lat="46.575" lon="5.74736">
        <ele>537.6</ele>
        <time>2021-10-17T06:17:40Z</time>
      </trkpt>
      <trkpt lat="46.57493" lon="5.74738">
        <ele>537.2</ele>
        <time>2021-10-17T06:17:41Z</time>
      </trkpt>
      <trkpt lat="46.57486" lon="5.74739">
        <ele>537</ele>
        <time>2021-10-17T06:17:42Z</time>
      </trkpt>
      <trkpt lat="46.57478" lon="5.74739">
        <ele>536.8</ele>
        <time>2021-10-17T06:17:43Z</time>
      </trkpt>
      <trkpt lat="46.57471" lon="5.74739">
        <ele>536.4</ele>
        <time>2021-10-17T06:17:44Z</time>
      </trkpt>
      <trkpt lat="46.57463" lon="5.74738">
        <ele>536.2</ele>
        <time>2021-10-17T06:17:45Z</time>
      </trkpt>
      <trkpt lat="46.57455" lon="5.74738">
        <ele>536</ele>
        <time>2021-10-17T06:17:46Z</time>
      </trkpt>
      <trkpt lat="46.57449" lon="5.74737">
        <ele>535.6</ele>
        <time>2021-10-17T06:17:47Z</time>
      </trkpt>
      <trkpt lat="46.57443" lon="5.74736">
        <ele>535.4</ele>
        <time>2021-10-17T06:17:48Z</time>
      </trkpt>
      <trkpt lat="46.57438" lon="5.74735">
        <ele>535</ele>
        <time>2021-10-17T06:17:49Z</time>
      </trkpt>
      <trkpt lat="46.57434" lon="5.74733">
        <ele>534.8</ele>
        <time>2021-10-17T06:17:50Z</time>
      </trkpt>
      <trkpt lat="46.5743" lon="5.7473">
        <ele>534.6</ele>
        <time>2021-10-17T06:17:51Z</time>
      </trkpt>
      <trkpt lat="46.57425" lon="5.74727">
        <ele>534.4</ele>
        <time>2021-10-17T06:17:52Z</time>
      </trkpt>
      <trkpt lat="46.57421" lon="5.74727">
        <ele>534.4</ele>
        <time>2021-10-17T06:17:53Z</time>
      </trkpt>
      <trkpt lat="46.57417" lon="5.74729">
        <ele>534</ele>
        <time>2021-10-17T06:17:54Z</time>
      </trkpt>
      <trkpt lat="46.57413" lon="5.74733">
        <ele>534</ele>
        <time>2021-10-17T06:17:55Z</time>
      </trkpt>
      <trkpt lat="46.57411" lon="5.7474">
        <ele>533.6</ele>
        <time>2021-10-17T06:17:56Z</time>
      </trkpt>
      <trkpt lat="46.5741" lon="5.74748">
        <ele>533.6</ele>
        <time>2021-10-17T06:17:57Z</time>
      </trkpt>
      <trkpt lat="46.5741" lon="5.74756">
        <ele>533.2</ele>
        <time>2021-10-17T06:17:58Z</time>
      </trkpt>
      <trkpt lat="46.57411" lon="5.74765">
        <ele>533.2</ele>
        <time>2021-10-17T06:17:59Z</time>
      </trkpt>
      <trkpt lat="46.57413" lon="5.74773">
        <ele>533</ele>
        <time>2021-10-17T06:18:00Z</time>
      </trkpt>
      <trkpt lat="46.57414" lon="5.74781">
        <ele>533</ele>
        <time>2021-10-17T06:18:01Z</time>
      </trkpt>
      <trkpt lat="46.57417" lon="5.74789">
        <ele>533</ele>
        <time>2021-10-17T06:18:02Z</time>
      </trkpt>
      <trkpt lat="46.57419" lon="5.74797">
        <ele>533</ele>
        <time>2021-10-17T06:18:03Z</time>
      </trkpt>
      <trkpt lat="46.57421" lon="5.74805">
        <ele>533</ele>
        <time>2021-10-17T06:18:04Z</time>
      </trkpt>
      <trkpt lat="46.57423" lon="5.74813">
        <ele>533</ele>
        <time>2021-10-17T06:18:05Z</time>
      </trkpt>
      <trkpt lat="46.57426" lon="5.74821">
        <ele>533</ele>
        <time>2021-10-17T06:18:06Z</time>
      </trkpt>
      <trkpt lat="46.57429" lon="5.74829">
        <ele>533</ele>
        <time>2021-10-17T06:18:07Z</time>
      </trkpt>
      <trkpt lat="46.57431" lon="5.74838">
        <ele>533</ele>
        <time>2021-10-17T06:18:08Z</time>
      </trkpt>
      <trkpt lat="46.57434" lon="5.74845">
        <ele>533</ele>
        <time>2021-10-17T06:18:09Z</time>
      </trkpt>
      <trkpt lat="46.57437" lon="5.74853">
        <ele>533</ele>
        <time>2021-10-17T06:18:10Z</time>
      </trkpt>
      <trkpt lat="46.57439" lon="5.74861">
        <ele>533</ele>
        <time>2021-10-17T06:18:11Z</time>
      </trkpt>
      <trkpt lat="46.57442" lon="5.74868">
        <ele>533.4</ele>
        <time>2021-10-17T06:18:12Z</time>
      </trkpt>
      <trkpt lat="46.57444" lon="5.74875">
        <ele>533.4</ele>
        <time>2021-10-17T06:18:13Z</time>
      </trkpt>
      <trkpt lat="46.57446" lon="5.74882">
        <ele>533.6</ele>
        <time>2021-10-17T06:18:14Z</time>
      </trkpt>
      <trkpt lat="46.57448" lon="5.74889">
        <ele>533.6</ele>
        <time>2021-10-17T06:18:15Z</time>
      </trkpt>
      <trkpt lat="46.5745" lon="5.74895">
        <ele>534</ele>
        <time>2021-10-17T06:18:16Z</time>
      </trkpt>
      <trkpt lat="46.57452" lon="5.74902">
        <ele>534</ele>
        <time>2021-10-17T06:18:17Z</time>
      </trkpt>
      <trkpt lat="46.57454" lon="5.74908">
        <ele>534.2</ele>
        <time>2021-10-17T06:18:18Z</time>
      </trkpt>
      <trkpt lat="46.57456" lon="5.74915">
        <ele>534.2</ele>
        <time>2021-10-17T06:18:19Z</time>
      </trkpt>
      <trkpt lat="46.57459" lon="5.74924">
        <ele>534.6</ele>
        <time>2021-10-17T06:18:20Z</time>
      </trkpt>
      <trkpt lat="46.5746" lon="5.74927">
        <ele>534.8</ele>
        <time>2021-10-17T06:18:21Z</time>
      </trkpt>
      <trkpt lat="46.57461" lon="5.74933">
        <ele>535</ele>
        <time>2021-10-17T06:18:22Z</time>
      </trkpt>
      <trkpt lat="46.57462" lon="5.74938">
        <ele>535.4</ele>
        <time>2021-10-17T06:18:23Z</time>
      </trkpt>
      <trkpt lat="46.57463" lon="5.74943">
        <ele>535.6</ele>
        <time>2021-10-17T06:18:24Z</time>
      </trkpt>
      <trkpt lat="46.57465" lon="5.74947">
        <ele>535.8</ele>
        <time>2021-10-17T06:18:25Z</time>
      </trkpt>
      <trkpt lat="46.57469" lon="5.74953">
        <ele>536.2</ele>
        <time>2021-10-17T06:18:26Z</time>
      </trkpt>
      <trkpt lat="46.5747" lon="5.74955">
        <ele>536.4</ele>
        <time>2021-10-17T06:18:27Z</time>
      </trkpt>
      <trkpt lat="46.57472" lon="5.74958">
        <ele>536.6</ele>
        <time>2021-10-17T06:18:28Z</time>
      </trkpt>
      <trkpt lat="46.57475" lon="5.7496">
        <ele>536.8</ele>
        <time>2021-10-17T06:18:29Z</time>
      </trkpt>
      <trkpt lat="46.57477" lon="5.74962">
        <ele>537.2</ele>
        <time>2021-10-17T06:18:30Z</time>
      </trkpt>
      <trkpt lat="46.5748" lon="5.74963">
        <ele>537.4</ele>
        <time>2021-10-17T06:18:31Z</time>
      </trkpt>
      <trkpt lat="46.57484" lon="5.74964">
        <ele>537.6</ele>
        <time>2021-10-17T06:18:32Z</time>
      </trkpt>
      <trkpt lat="46.57487" lon="5.74964">
        <ele>538</ele>
        <time>2021-10-17T06:18:33Z</time>
      </trkpt>
      <trkpt lat="46.57491" lon="5.74966">
        <ele>538.2</ele>
        <time>2021-10-17T06:18:34Z</time>
      </trkpt>
      <trkpt lat="46.57494" lon="5.74967">
        <ele>538.4</ele>
        <time>2021-10-17T06:18:35Z</time>
      </trkpt>
      <trkpt lat="46.57498" lon="5.74968">
        <ele>538.8</ele>
        <time>2021-10-17T06:18:36Z</time>
      </trkpt>
      <trkpt lat="46.57502" lon="5.74969">
        <ele>539</ele>
        <time>2021-10-17T06:18:37Z</time>
      </trkpt>
      <trkpt lat="46.57504" lon="5.74969">
        <ele>539.4</ele>
        <time>2021-10-17T06:18:38Z</time>
      </trkpt>
      <trkpt lat="46.57507" lon="5.7497">
        <ele>539.6</ele>
        <time>2021-10-17T06:18:39Z</time>
      </trkpt>
      <trkpt lat="46.5751" lon="5.74971">
        <ele>540</ele>
        <time>2021-10-17T06:18:40Z</time>
      </trkpt>
      <trkpt lat="46.57512" lon="5.74971">
        <ele>540.2</ele>
        <time>2021-10-17T06:18:41Z</time>
      </trkpt>
      <trkpt lat="46.57515" lon="5.74971">
        <ele>540.4</ele>
        <time>2021-10-17T06:18:42Z</time>
      </trkpt>
      <trkpt lat="46.57518" lon="5.74971">
        <ele>540.6</ele>
        <time>2021-10-17T06:18:43Z</time>
      </trkpt>
      <trkpt lat="46.5752" lon="5.74971">
        <ele>540.6</ele>
        <time>2021-10-17T06:18:44Z</time>
      </trkpt>
      <trkpt lat="46.57523" lon="5.74972">
        <ele>541.2</ele>
        <time>2021-10-17T06:18:45Z</time>
      </trkpt>
      <trkpt lat="46.57526" lon="5.74973">
        <ele>541.4</ele>
        <time>2021-10-17T06:18:46Z</time>
      </trkpt>
      <trkpt lat="46.57528" lon="5.74975">
        <ele>541.6</ele>
        <time>2021-10-17T06:18:47Z</time>
      </trkpt>
      <trkpt lat="46.57531" lon="5.74976">
        <ele>541.6</ele>
        <time>2021-10-17T06:18:48Z</time>
      </trkpt>
      <trkpt lat="46.57534" lon="5.74977">
        <ele>542</ele>
        <time>2021-10-17T06:18:49Z</time>
      </trkpt>
      <trkpt lat="46.57537" lon="5.74978">
        <ele>542.2</ele>
        <time>2021-10-17T06:18:50Z</time>
      </trkpt>
      <trkpt lat="46.5754" lon="5.74979">
        <ele>542.6</ele>
        <time>2021-10-17T06:18:51Z</time>
      </trkpt>
      <trkpt lat="46.57543" lon="5.74982">
        <ele>542.8</ele>
        <time>2021-10-17T06:18:52Z</time>
      </trkpt>
      <trkpt lat="46.57545" lon="5.74986">
        <ele>543</ele>
        <time>2021-10-17T06:18:53Z</time>
      </trkpt>
      <trkpt lat="46.57546" lon="5.74991">
        <ele>543.4</ele>
        <time>2021-10-17T06:18:54Z</time>
      </trkpt>
      <trkpt lat="46.57546" lon="5.74995">
        <ele>543.4</ele>
        <time>2021-10-17T06:18:55Z</time>
      </trkpt>
      <trkpt lat="46.57545" lon="5.75">
        <ele>543.8</ele>
        <time>2021-10-17T06:18:56Z</time>
      </trkpt>
      <trkpt lat="46.57544" lon="5.75004">
        <ele>543.8</ele>
        <time>2021-10-17T06:18:57Z</time>
      </trkpt>
      <trkpt lat="46.57544" lon="5.75009">
        <ele>543.8</ele>
        <time>2021-10-17T06:18:58Z</time>
      </trkpt>
      <trkpt lat="46.57543" lon="5.75014">
        <ele>544</ele>
        <time>2021-10-17T06:18:59Z</time>
      </trkpt>
      <trkpt lat="46.57542" lon="5.7502">
        <ele>544</ele>
        <time>2021-10-17T06:19:00Z</time>
      </trkpt>
      <trkpt lat="46.57541" lon="5.75027">
        <ele>544.2</ele>
        <time>2021-10-17T06:19:01Z</time>
      </trkpt>
      <trkpt lat="46.5754" lon="5.75033">
        <ele>544.2</ele>
        <time>2021-10-17T06:19:02Z</time>
      </trkpt>
      <trkpt lat="46.57539" lon="5.75039">
        <ele>544.2</ele>
        <time>2021-10-17T06:19:03Z</time>
      </trkpt>
      <trkpt lat="46.57537" lon="5.75045">
        <ele>544.4</ele>
        <time>2021-10-17T06:19:04Z</time>
      </trkpt>
      <trkpt lat="46.57534" lon="5.75051">
        <ele>544.4</ele>
        <time>2021-10-17T06:19:05Z</time>
      </trkpt>
      <trkpt lat="46.57531" lon="5.75055">
        <ele>544.4</ele>
        <time>2021-10-17T06:19:06Z</time>
      </trkpt>
      <trkpt lat="46.57528" lon="5.7506">
        <ele>544.8</ele>
        <time>2021-10-17T06:19:07Z</time>
      </trkpt>
      <trkpt lat="46.57524" lon="5.75064">
        <ele>544.8</ele>
        <time>2021-10-17T06:19:08Z</time>
      </trkpt>
      <trkpt lat="46.57521" lon="5.75068">
        <ele>545</ele>
        <time>2021-10-17T06:19:09Z</time>
      </trkpt>
      <trkpt lat="46.57518" lon="5.75073">
        <ele>545</ele>
        <time>2021-10-17T06:19:10Z</time>
      </trkpt>
      <trkpt lat="46.57515" lon="5.75077">
        <ele>545.4</ele>
        <time>2021-10-17T06:19:11Z</time>
      </trkpt>
      <trkpt lat="46.57511" lon="5.75082">
        <ele>545.4</ele>
        <time>2021-10-17T06:19:12Z</time>
      </trkpt>
      <trkpt lat="46.57508" lon="5.75086">
        <ele>545.6</ele>
        <time>2021-10-17T06:19:13Z</time>
      </trkpt>
      <trkpt lat="46.57504" lon="5.7509">
        <ele>545.6</ele>
        <time>2021-10-17T06:19:14Z</time>
      </trkpt>
      <trkpt lat="46.575" lon="5.75095">
        <ele>545.8</ele>
        <time>2021-10-17T06:19:15Z</time>
      </trkpt>
      <trkpt lat="46.57497" lon="5.751">
        <ele>545.8</ele>
        <time>2021-10-17T06:19:16Z</time>
      </trkpt>
      <trkpt lat="46.57493" lon="5.75105">
        <ele>545.8</ele>
        <time>2021-10-17T06:19:17Z</time>
      </trkpt>
      <trkpt lat="46.57489" lon="5.7511">
        <ele>546</ele>
        <time>2021-10-17T06:19:18Z</time>
      </trkpt>
      <trkpt lat="46.57485" lon="5.75115">
        <ele>546</ele>
        <time>2021-10-17T06:19:19Z</time>
      </trkpt>
      <trkpt lat="46.57481" lon="5.7512">
        <ele>546</ele>
        <time>2021-10-17T06:19:20Z</time>
      </trkpt>
      <trkpt lat="46.57478" lon="5.75125">
        <ele>546</ele>
        <time>2021-10-17T06:19:21Z</time>
      </trkpt>
      <trkpt lat="46.57474" lon="5.75131">
        <ele>546.2</ele>
        <time>2021-10-17T06:19:22Z</time>
      </trkpt>
      <trkpt lat="46.57471" lon="5.75136">
        <ele>546.2</ele>
        <time>2021-10-17T06:19:23Z</time>
      </trkpt>
      <trkpt lat="46.57467" lon="5.75142">
        <ele>546.2</ele>
        <time>2021-10-17T06:19:24Z</time>
      </trkpt>
      <trkpt lat="46.57463" lon="5.75147">
        <ele>546.4</ele>
        <time>2021-10-17T06:19:25Z</time>
      </trkpt>
      <trkpt lat="46.57457" lon="5.75154">
        <ele>546.4</ele>
        <time>2021-10-17T06:19:26Z</time>
      </trkpt>
      <trkpt lat="46.57455" lon="5.75156">
        <ele>546.8</ele>
        <time>2021-10-17T06:19:27Z</time>
      </trkpt>
      <trkpt lat="46.57449" lon="5.75164">
        <ele>546.8</ele>
        <time>2021-10-17T06:19:28Z</time>
      </trkpt>
      <trkpt lat="46.57447" lon="5.75166">
        <ele>547</ele>
        <time>2021-10-17T06:19:29Z</time>
      </trkpt>
      <trkpt lat="46.57441" lon="5.75174">
        <ele>547</ele>
        <time>2021-10-17T06:19:30Z</time>
      </trkpt>
      <trkpt lat="46.57439" lon="5.75176">
        <ele>547.2</ele>
        <time>2021-10-17T06:19:31Z</time>
      </trkpt>
      <trkpt lat="46.57433" lon="5.75183">
        <ele>547.2</ele>
        <time>2021-10-17T06:19:32Z</time>
      </trkpt>
      <trkpt lat="46.57431" lon="5.75186">
        <ele>547.4</ele>
        <time>2021-10-17T06:19:33Z</time>
      </trkpt>
      <trkpt lat="46.57428" lon="5.7519">
        <ele>547.4</ele>
        <time>2021-10-17T06:19:34Z</time>
      </trkpt>
      <trkpt lat="46.57424" lon="5.75195">
        <ele>547.8</ele>
        <time>2021-10-17T06:19:35Z</time>
      </trkpt>
      <trkpt lat="46.5742" lon="5.752">
        <ele>547.8</ele>
        <time>2021-10-17T06:19:36Z</time>
      </trkpt>
      <trkpt lat="46.57416" lon="5.75205">
        <ele>548</ele>
        <time>2021-10-17T06:19:37Z</time>
      </trkpt>
      <trkpt lat="46.57412" lon="5.75209">
        <ele>548</ele>
        <time>2021-10-17T06:19:38Z</time>
      </trkpt>
      <trkpt lat="46.57408" lon="5.75214">
        <ele>548.4</ele>
        <time>2021-10-17T06:19:39Z</time>
      </trkpt>
      <trkpt lat="46.57404" lon="5.75218">
        <ele>548.4</ele>
        <time>2021-10-17T06:19:40Z</time>
      </trkpt>
      <trkpt lat="46.57401" lon="5.75223">
        <ele>548.6</ele>
        <time>2021-10-17T06:19:41Z</time>
      </trkpt>
      <trkpt lat="46.57397" lon="5.75228">
        <ele>548.6</ele>
        <time>2021-10-17T06:19:42Z</time>
      </trkpt>
      <trkpt lat="46.57393" lon="5.75232">
        <ele>549</ele>
        <time>2021-10-17T06:19:43Z</time>
      </trkpt>
      <trkpt lat="46.57389" lon="5.75236">
        <ele>549</ele>
        <time>2021-10-17T06:19:44Z</time>
      </trkpt>
      <trkpt lat="46.57385" lon="5.75241">
        <ele>549.2</ele>
        <time>2021-10-17T06:19:45Z</time>
      </trkpt>
      <trkpt lat="46.57379" lon="5.75248">
        <ele>549.2</ele>
        <time>2021-10-17T06:19:46Z</time>
      </trkpt>
      <trkpt lat="46.57377" lon="5.7525">
        <ele>549.2</ele>
        <time>2021-10-17T06:19:47Z</time>
      </trkpt>
      <trkpt lat="46.57371" lon="5.75257">
        <ele>549.4</ele>
        <time>2021-10-17T06:19:48Z</time>
      </trkpt>
      <trkpt lat="46.57369" lon="5.75259">
        <ele>549.4</ele>
        <time>2021-10-17T06:19:49Z</time>
      </trkpt>
      <trkpt lat="46.57365" lon="5.75263">
        <ele>549.8</ele>
        <time>2021-10-17T06:19:50Z</time>
      </trkpt>
      <trkpt lat="46.57361" lon="5.75268">
        <ele>550</ele>
        <time>2021-10-17T06:19:51Z</time>
      </trkpt>
      <trkpt lat="46.57357" lon="5.75272">
        <ele>550</ele>
        <time>2021-10-17T06:19:52Z</time>
      </trkpt>
      <trkpt lat="46.57353" lon="5.75277">
        <ele>550.2</ele>
        <time>2021-10-17T06:19:53Z</time>
      </trkpt>
      <trkpt lat="46.57349" lon="5.75282">
        <ele>550.2</ele>
        <time>2021-10-17T06:19:54Z</time>
      </trkpt>
      <trkpt lat="46.57345" lon="5.75287">
        <ele>550.4</ele>
        <time>2021-10-17T06:19:55Z</time>
      </trkpt>
      <trkpt lat="46.57341" lon="5.75291">
        <ele>550.4</ele>
        <time>2021-10-17T06:19:56Z</time>
      </trkpt>
      <trkpt lat="46.57337" lon="5.75295">
        <ele>550.8</ele>
        <time>2021-10-17T06:19:57Z</time>
      </trkpt>
      <trkpt lat="46.57333" lon="5.753">
        <ele>550.8</ele>
        <time>2021-10-17T06:19:58Z</time>
      </trkpt>
      <trkpt lat="46.57329" lon="5.75305">
        <ele>551</ele>
        <time>2021-10-17T06:19:59Z</time>
      </trkpt>
      <trkpt lat="46.57325" lon="5.75309">
        <ele>551</ele>
        <time>2021-10-17T06:20:00Z</time>
      </trkpt>
      <trkpt lat="46.57321" lon="5.75314">
        <ele>551.2</ele>
        <time>2021-10-17T06:20:01Z</time>
      </trkpt>
      <trkpt lat="46.57317" lon="5.75319">
        <ele>551.2</ele>
        <time>2021-10-17T06:20:02Z</time>
      </trkpt>
      <trkpt lat="46.57313" lon="5.75323">
        <ele>551.4</ele>
        <time>2021-10-17T06:20:03Z</time>
      </trkpt>
      <trkpt lat="46.57309" lon="5.75328">
        <ele>551.4</ele>
        <time>2021-10-17T06:20:04Z</time>
      </trkpt>
      <trkpt lat="46.57303" lon="5.75335">
        <ele>551.6</ele>
        <time>2021-10-17T06:20:05Z</time>
      </trkpt>
      <trkpt lat="46.57301" lon="5.75338">
        <ele>551.6</ele>
        <time>2021-10-17T06:20:06Z</time>
      </trkpt>
      <trkpt lat="46.57296" lon="5.75343">
        <ele>552</ele>
        <time>2021-10-17T06:20:07Z</time>
      </trkpt>
      <trkpt lat="46.5729" lon="5.7535">
        <ele>552</ele>
        <time>2021-10-17T06:20:08Z</time>
      </trkpt>
      <trkpt lat="46.57288" lon="5.75353">
        <ele>552.2</ele>
        <time>2021-10-17T06:20:09Z</time>
      </trkpt>
      <trkpt lat="46.57284" lon="5.75358">
        <ele>552.2</ele>
        <time>2021-10-17T06:20:10Z</time>
      </trkpt>
      <trkpt lat="46.57279" lon="5.75362">
        <ele>552.2</ele>
        <time>2021-10-17T06:20:11Z</time>
      </trkpt>
      <trkpt lat="46.57273" lon="5.7537">
        <ele>552.2</ele>
        <time>2021-10-17T06:20:12Z</time>
      </trkpt>
      <trkpt lat="46.57271" lon="5.75372">
        <ele>552.4</ele>
        <time>2021-10-17T06:20:13Z</time>
      </trkpt>
      <trkpt lat="46.57266" lon="5.75377">
        <ele>552.4</ele>
        <time>2021-10-17T06:20:14Z</time>
      </trkpt>
      <trkpt lat="46.57262" lon="5.75381">
        <ele>552.6</ele>
        <time>2021-10-17T06:20:15Z</time>
      </trkpt>
      <trkpt lat="46.57256" lon="5.75388">
        <ele>552.6</ele>
        <time>2021-10-17T06:20:16Z</time>
      </trkpt>
      <trkpt lat="46.57254" lon="5.75391">
        <ele>552.6</ele>
        <time>2021-10-17T06:20:17Z</time>
      </trkpt>
      <trkpt lat="46.5725" lon="5.75395">
        <ele>553</ele>
        <time>2021-10-17T06:20:18Z</time>
      </trkpt>
      <trkpt lat="46.57245" lon="5.754">
        <ele>553</ele>
        <time>2021-10-17T06:20:19Z</time>
      </trkpt>
      <trkpt lat="46.57241" lon="5.75404">
        <ele>553</ele>
        <time>2021-10-17T06:20:20Z</time>
      </trkpt>
      <trkpt lat="46.57234" lon="5.75409">
        <ele>553.2</ele>
        <time>2021-10-17T06:20:21Z</time>
      </trkpt>
      <trkpt lat="46.57231" lon="5.75411">
        <ele>553.2</ele>
        <time>2021-10-17T06:20:22Z</time>
      </trkpt>
      <trkpt lat="46.57226" lon="5.75414">
        <ele>553.6</ele>
        <time>2021-10-17T06:20:23Z</time>
      </trkpt>
      <trkpt lat="46.57221" lon="5.75416">
        <ele>553.6</ele>
        <time>2021-10-17T06:20:24Z</time>
      </trkpt>
      <trkpt lat="46.57216" lon="5.75417">
        <ele>553.6</ele>
        <time>2021-10-17T06:20:25Z</time>
      </trkpt>
      <trkpt lat="46.57208" lon="5.7542">
        <ele>553.8</ele>
        <time>2021-10-17T06:20:26Z</time>
      </trkpt>
      <trkpt lat="46.57205" lon="5.7542">
        <ele>553.8</ele>
        <time>2021-10-17T06:20:27Z</time>
      </trkpt>
      <trkpt lat="46.572" lon="5.75422">
        <ele>553.8</ele>
        <time>2021-10-17T06:20:28Z</time>
      </trkpt>
      <trkpt lat="46.57192" lon="5.75426">
        <ele>553.8</ele>
        <time>2021-10-17T06:20:29Z</time>
      </trkpt>
      <trkpt lat="46.5719" lon="5.75427">
        <ele>553.8</ele>
        <time>2021-10-17T06:20:30Z</time>
      </trkpt>
      <trkpt lat="46.57184" lon="5.75429">
        <ele>554</ele>
        <time>2021-10-17T06:20:31Z</time>
      </trkpt>
      <trkpt lat="46.57177" lon="5.75433">
        <ele>554</ele>
        <time>2021-10-17T06:20:32Z</time>
      </trkpt>
      <trkpt lat="46.57174" lon="5.75434">
        <ele>554</ele>
        <time>2021-10-17T06:20:33Z</time>
      </trkpt>
      <trkpt lat="46.57167" lon="5.75438">
        <ele>554</ele>
        <time>2021-10-17T06:20:34Z</time>
      </trkpt>
      <trkpt lat="46.57164" lon="5.75439">
        <ele>554</ele>
        <time>2021-10-17T06:20:35Z</time>
      </trkpt>
      <trkpt lat="46.57157" lon="5.75443">
        <ele>554.2</ele>
        <time>2021-10-17T06:20:36Z</time>
      </trkpt>
      <trkpt lat="46.57154" lon="5.75444">
        <ele>554.2</ele>
        <time>2021-10-17T06:20:37Z</time>
      </trkpt>
      <trkpt lat="46.57147" lon="5.75447">
        <ele>554.2</ele>
        <time>2021-10-17T06:20:38Z</time>
      </trkpt>
      <trkpt lat="46.57144" lon="5.75448">
        <ele>554.4</ele>
        <time>2021-10-17T06:20:39Z</time>
      </trkpt>
      <trkpt lat="46.57139" lon="5.75451">
        <ele>554.4</ele>
        <time>2021-10-17T06:20:40Z</time>
      </trkpt>
      <trkpt lat="46.57134" lon="5.75454">
        <ele>554.4</ele>
        <time>2021-10-17T06:20:41Z</time>
      </trkpt>
      <trkpt lat="46.57129" lon="5.75456">
        <ele>554.4</ele>
        <time>2021-10-17T06:20:42Z</time>
      </trkpt>
      <trkpt lat="46.57124" lon="5.75458">
        <ele>554.4</ele>
        <time>2021-10-17T06:20:43Z</time>
      </trkpt>
      <trkpt lat="46.57119" lon="5.7546">
        <ele>554.4</ele>
        <time>2021-10-17T06:20:44Z</time>
      </trkpt>
      <trkpt lat="46.57111" lon="5.75464">
        <ele>554.4</ele>
        <time>2021-10-17T06:20:45Z</time>
      </trkpt>
      <trkpt lat="46.57109" lon="5.75465">
        <ele>554.6</ele>
        <time>2021-10-17T06:20:46Z</time>
      </trkpt>
      <trkpt lat="46.57104" lon="5.75467">
        <ele>554.6</ele>
        <time>2021-10-17T06:20:47Z</time>
      </trkpt>
      <trkpt lat="46.57099" lon="5.7547">
        <ele>554.6</ele>
        <time>2021-10-17T06:20:48Z</time>
      </trkpt>
      <trkpt lat="46.57092" lon="5.75473">
        <ele>554.6</ele>
        <time>2021-10-17T06:20:49Z</time>
      </trkpt>
      <trkpt lat="46.57089" lon="5.75475">
        <ele>554.8</ele>
        <time>2021-10-17T06:20:50Z</time>
      </trkpt>
      <trkpt lat="46.57082" lon="5.75478">
        <ele>554.8</ele>
        <time>2021-10-17T06:20:51Z</time>
      </trkpt>
      <trkpt lat="46.57079" lon="5.7548">
        <ele>554.8</ele>
        <time>2021-10-17T06:20:52Z</time>
      </trkpt>
      <trkpt lat="46.57071" lon="5.75483">
        <ele>555</ele>
        <time>2021-10-17T06:20:53Z</time>
      </trkpt>
      <trkpt lat="46.57069" lon="5.75484">
        <ele>555</ele>
        <time>2021-10-17T06:20:54Z</time>
      </trkpt>
      <trkpt lat="46.57064" lon="5.75486">
        <ele>555</ele>
        <time>2021-10-17T06:20:55Z</time>
      </trkpt>
      <trkpt lat="46.57059" lon="5.75489">
        <ele>555.2</ele>
        <time>2021-10-17T06:20:56Z</time>
      </trkpt>
      <trkpt lat="46.57053" lon="5.75491">
        <ele>555.2</ele>
        <time>2021-10-17T06:20:57Z</time>
      </trkpt>
      <trkpt lat="46.57048" lon="5.75494">
        <ele>555.2</ele>
        <time>2021-10-17T06:20:58Z</time>
      </trkpt>
      <trkpt lat="46.57043" lon="5.75496">
        <ele>555.6</ele>
        <time>2021-10-17T06:20:59Z</time>
      </trkpt>
      <trkpt lat="46.57037" lon="5.75499">
        <ele>555.6</ele>
        <time>2021-10-17T06:21:00Z</time>
      </trkpt>
      <trkpt lat="46.57029" lon="5.75503">
        <ele>555.6</ele>
        <time>2021-10-17T06:21:01Z</time>
      </trkpt>
      <trkpt lat="46.57027" lon="5.75504">
        <ele>555.8</ele>
        <time>2021-10-17T06:21:02Z</time>
      </trkpt>
      <trkpt lat="46.57021" lon="5.75507">
        <ele>555.8</ele>
        <time>2021-10-17T06:21:03Z</time>
      </trkpt>
      <trkpt lat="46.57016" lon="5.75509">
        <ele>555.8</ele>
        <time>2021-10-17T06:21:04Z</time>
      </trkpt>
      <trkpt lat="46.57011" lon="5.75511">
        <ele>556</ele>
        <time>2021-10-17T06:21:05Z</time>
      </trkpt>
      <trkpt lat="46.57006" lon="5.75514">
        <ele>556</ele>
        <time>2021-10-17T06:21:06Z</time>
      </trkpt>
      <trkpt lat="46.57" lon="5.75517">
        <ele>556.2</ele>
        <time>2021-10-17T06:21:07Z</time>
      </trkpt>
      <trkpt lat="46.56993" lon="5.75521">
        <ele>556.2</ele>
        <time>2021-10-17T06:21:08Z</time>
      </trkpt>
      <trkpt lat="46.5699" lon="5.75522">
        <ele>556.2</ele>
        <time>2021-10-17T06:21:09Z</time>
      </trkpt>
      <trkpt lat="46.56985" lon="5.75524">
        <ele>556.2</ele>
        <time>2021-10-17T06:21:10Z</time>
      </trkpt>
      <trkpt lat="46.56977" lon="5.75528">
        <ele>556.4</ele>
        <time>2021-10-17T06:21:11Z</time>
      </trkpt>
      <trkpt lat="46.56974" lon="5.75529">
        <ele>556.4</ele>
        <time>2021-10-17T06:21:12Z</time>
      </trkpt>
      <trkpt lat="46.56968" lon="5.75532">
        <ele>556.4</ele>
        <time>2021-10-17T06:21:13Z</time>
      </trkpt>
      <trkpt lat="46.56963" lon="5.75534">
        <ele>556.4</ele>
        <time>2021-10-17T06:21:14Z</time>
      </trkpt>
      <trkpt lat="46.56958" lon="5.75536">
        <ele>556.6</ele>
        <time>2021-10-17T06:21:15Z</time>
      </trkpt>
      <trkpt lat="46.56952" lon="5.75539">
        <ele>556.6</ele>
        <time>2021-10-17T06:21:16Z</time>
      </trkpt>
      <trkpt lat="46.56946" lon="5.75541">
        <ele>556.6</ele>
        <time>2021-10-17T06:21:17Z</time>
      </trkpt>
      <trkpt lat="46.56941" lon="5.75544">
        <ele>557</ele>
        <time>2021-10-17T06:21:18Z</time>
      </trkpt>
      <trkpt lat="46.56936" lon="5.75547">
        <ele>557</ele>
        <time>2021-10-17T06:21:19Z</time>
      </trkpt>
      <trkpt lat="46.5693" lon="5.75549">
        <ele>557</ele>
        <time>2021-10-17T06:21:20Z</time>
      </trkpt>
      <trkpt lat="46.56925" lon="5.75552">
        <ele>557</ele>
        <time>2021-10-17T06:21:21Z</time>
      </trkpt>
      <trkpt lat="46.56919" lon="5.75554">
        <ele>557.2</ele>
        <time>2021-10-17T06:21:22Z</time>
      </trkpt>
      <trkpt lat="46.56914" lon="5.75556">
        <ele>557.2</ele>
        <time>2021-10-17T06:21:23Z</time>
      </trkpt>
      <trkpt lat="46.56905" lon="5.7556">
        <ele>557.2</ele>
        <time>2021-10-17T06:21:24Z</time>
      </trkpt>
      <trkpt lat="46.56902" lon="5.75561">
        <ele>557.2</ele>
        <time>2021-10-17T06:21:25Z</time>
      </trkpt>
      <trkpt lat="46.56897" lon="5.75564">
        <ele>557.2</ele>
        <time>2021-10-17T06:21:26Z</time>
      </trkpt>
      <trkpt lat="46.56891" lon="5.75566">
        <ele>557.2</ele>
        <time>2021-10-17T06:21:27Z</time>
      </trkpt>
      <trkpt lat="46.56886" lon="5.75569">
        <ele>557.2</ele>
        <time>2021-10-17T06:21:28Z</time>
      </trkpt>
      <trkpt lat="46.5688" lon="5.75573">
        <ele>557.2</ele>
        <time>2021-10-17T06:21:29Z</time>
      </trkpt>
      <trkpt lat="46.56875" lon="5.75576">
        <ele>557.4</ele>
        <time>2021-10-17T06:21:30Z</time>
      </trkpt>
      <trkpt lat="46.5687" lon="5.7558">
        <ele>557.4</ele>
        <time>2021-10-17T06:21:31Z</time>
      </trkpt>
      <trkpt lat="46.56862" lon="5.75587">
        <ele>557.4</ele>
        <time>2021-10-17T06:21:32Z</time>
      </trkpt>
      <trkpt lat="46.5686" lon="5.75589">
        <ele>557.8</ele>
        <time>2021-10-17T06:21:33Z</time>
      </trkpt>
      <trkpt lat="46.56855" lon="5.75593">
        <ele>557.8</ele>
        <time>2021-10-17T06:21:34Z</time>
      </trkpt>
      <trkpt lat="46.56848" lon="5.75601">
        <ele>557.8</ele>
        <time>2021-10-17T06:21:35Z</time>
      </trkpt>
      <trkpt lat="46.56845" lon="5.75604">
        <ele>557.8</ele>
        <time>2021-10-17T06:21:36Z</time>
      </trkpt>
      <trkpt lat="46.56841" lon="5.75609">
        <ele>558</ele>
        <time>2021-10-17T06:21:37Z</time>
      </trkpt>
      <trkpt lat="46.56836" lon="5.75615">
        <ele>558</ele>
        <time>2021-10-17T06:21:38Z</time>
      </trkpt>
      <trkpt lat="46.56831" lon="5.75621">
        <ele>558</ele>
        <time>2021-10-17T06:21:39Z</time>
      </trkpt>
      <trkpt lat="46.56827" lon="5.75626">
        <ele>558</ele>
        <time>2021-10-17T06:21:40Z</time>
      </trkpt>
      <trkpt lat="46.56822" lon="5.75632">
        <ele>558</ele>
        <time>2021-10-17T06:21:41Z</time>
      </trkpt>
      <trkpt lat="46.56817" lon="5.75638">
        <ele>558</ele>
        <time>2021-10-17T06:21:42Z</time>
      </trkpt>
      <trkpt lat="46.56812" lon="5.75643">
        <ele>558</ele>
        <time>2021-10-17T06:21:43Z</time>
      </trkpt>
      <trkpt lat="46.56807" lon="5.75649">
        <ele>558</ele>
        <time>2021-10-17T06:21:44Z</time>
      </trkpt>
      <trkpt lat="46.56802" lon="5.75654">
        <ele>558</ele>
        <time>2021-10-17T06:21:45Z</time>
      </trkpt>
      <trkpt lat="46.56797" lon="5.75658">
        <ele>558</ele>
        <time>2021-10-17T06:21:46Z</time>
      </trkpt>
      <trkpt lat="46.56791" lon="5.75662">
        <ele>558</ele>
        <time>2021-10-17T06:21:47Z</time>
      </trkpt>
      <trkpt lat="46.56785" lon="5.75666">
        <ele>558</ele>
        <time>2021-10-17T06:21:48Z</time>
      </trkpt>
      <trkpt lat="46.56779" lon="5.7567">
        <ele>558</ele>
        <time>2021-10-17T06:21:49Z</time>
      </trkpt>
      <trkpt lat="46.56773" lon="5.75673">
        <ele>558</ele>
        <time>2021-10-17T06:21:50Z</time>
      </trkpt>
      <trkpt lat="46.56767" lon="5.75676">
        <ele>557.8</ele>
        <time>2021-10-17T06:21:51Z</time>
      </trkpt>
      <trkpt lat="46.56761" lon="5.75678">
        <ele>557.8</ele>
        <time>2021-10-17T06:21:52Z</time>
      </trkpt>
      <trkpt lat="46.56755" lon="5.75681">
        <ele>557.8</ele>
        <time>2021-10-17T06:21:53Z</time>
      </trkpt>
      <trkpt lat="46.56749" lon="5.75684">
        <ele>557.8</ele>
        <time>2021-10-17T06:21:54Z</time>
      </trkpt>
      <trkpt lat="46.56743" lon="5.75686">
        <ele>558</ele>
        <time>2021-10-17T06:21:55Z</time>
      </trkpt>
      <trkpt lat="46.56737" lon="5.75688">
        <ele>558</ele>
        <time>2021-10-17T06:21:56Z</time>
      </trkpt>
      <trkpt lat="46.56731" lon="5.75691">
        <ele>558</ele>
        <time>2021-10-17T06:21:57Z</time>
      </trkpt>
      <trkpt lat="46.56725" lon="5.75693">
        <ele>558.2</ele>
        <time>2021-10-17T06:21:58Z</time>
      </trkpt>
      <trkpt lat="46.56719" lon="5.75695">
        <ele>558.2</ele>
        <time>2021-10-17T06:21:59Z</time>
      </trkpt>
      <trkpt lat="46.56714" lon="5.75697">
        <ele>558.4</ele>
        <time>2021-10-17T06:22:00Z</time>
      </trkpt>
      <trkpt lat="46.56708" lon="5.75699">
        <ele>558.4</ele>
        <time>2021-10-17T06:22:01Z</time>
      </trkpt>
      <trkpt lat="46.567" lon="5.75702">
        <ele>558.4</ele>
        <time>2021-10-17T06:22:02Z</time>
      </trkpt>
      <trkpt lat="46.56697" lon="5.75703">
        <ele>558.8</ele>
        <time>2021-10-17T06:22:03Z</time>
      </trkpt>
      <trkpt lat="46.56691" lon="5.75705">
        <ele>558.8</ele>
        <time>2021-10-17T06:22:04Z</time>
      </trkpt>
      <trkpt lat="46.56686" lon="5.75706">
        <ele>559.2</ele>
        <time>2021-10-17T06:22:05Z</time>
      </trkpt>
      <trkpt lat="46.56681" lon="5.75708">
        <ele>559.2</ele>
        <time>2021-10-17T06:22:06Z</time>
      </trkpt>
      <trkpt lat="46.56676" lon="5.7571">
        <ele>559.6</ele>
        <time>2021-10-17T06:22:07Z</time>
      </trkpt>
      <trkpt lat="46.56672" lon="5.75712">
        <ele>560</ele>
        <time>2021-10-17T06:22:08Z</time>
      </trkpt>
      <trkpt lat="46.56668" lon="5.75713">
        <ele>560.2</ele>
        <time>2021-10-17T06:22:09Z</time>
      </trkpt>
      <trkpt lat="46.56664" lon="5.75715">
        <ele>560.4</ele>
        <time>2021-10-17T06:22:10Z</time>
      </trkpt>
      <trkpt lat="46.5666" lon="5.75717">
        <ele>560.6</ele>
        <time>2021-10-17T06:22:11Z</time>
      </trkpt>
      <trkpt lat="46.56656" lon="5.75718">
        <ele>560.8</ele>
        <time>2021-10-17T06:22:12Z</time>
      </trkpt>
      <trkpt lat="46.56652" lon="5.7572">
        <ele>561.2</ele>
        <time>2021-10-17T06:22:13Z</time>
      </trkpt>
      <trkpt lat="46.56649" lon="5.75722">
        <ele>561.4</ele>
        <time>2021-10-17T06:22:14Z</time>
      </trkpt>
      <trkpt lat="46.56645" lon="5.75724">
        <ele>561.6</ele>
        <time>2021-10-17T06:22:15Z</time>
      </trkpt>
      <trkpt lat="46.56642" lon="5.75725">
        <ele>561.8</ele>
        <time>2021-10-17T06:22:16Z</time>
      </trkpt>
      <trkpt lat="46.56638" lon="5.75727">
        <ele>561.8</ele>
        <time>2021-10-17T06:22:17Z</time>
      </trkpt>
      <trkpt lat="46.56634" lon="5.75729">
        <ele>562.2</ele>
        <time>2021-10-17T06:22:18Z</time>
      </trkpt>
      <trkpt lat="46.56631" lon="5.75731">
        <ele>562.4</ele>
        <time>2021-10-17T06:22:19Z</time>
      </trkpt>
      <trkpt lat="46.56627" lon="5.75733">
        <ele>562.6</ele>
        <time>2021-10-17T06:22:20Z</time>
      </trkpt>
      <trkpt lat="46.56624" lon="5.75735">
        <ele>562.8</ele>
        <time>2021-10-17T06:22:21Z</time>
      </trkpt>
      <trkpt lat="46.56621" lon="5.75737">
        <ele>563</ele>
        <time>2021-10-17T06:22:22Z</time>
      </trkpt>
      <trkpt lat="46.56617" lon="5.75739">
        <ele>563</ele>
        <time>2021-10-17T06:22:23Z</time>
      </trkpt>
      <trkpt lat="46.56614" lon="5.75741">
        <ele>563.4</ele>
        <time>2021-10-17T06:22:24Z</time>
      </trkpt>
      <trkpt lat="46.56611" lon="5.75743">
        <ele>563.4</ele>
        <time>2021-10-17T06:22:25Z</time>
      </trkpt>
      <trkpt lat="46.56608" lon="5.75745">
        <ele>563.6</ele>
        <time>2021-10-17T06:22:26Z</time>
      </trkpt>
      <trkpt lat="46.56605" lon="5.75747">
        <ele>563.8</ele>
        <time>2021-10-17T06:22:27Z</time>
      </trkpt>
      <trkpt lat="46.56601" lon="5.7575">
        <ele>563.8</ele>
        <time>2021-10-17T06:22:28Z</time>
      </trkpt>
      <trkpt lat="46.56598" lon="5.75752">
        <ele>564.2</ele>
        <time>2021-10-17T06:22:29Z</time>
      </trkpt>
      <trkpt lat="46.56595" lon="5.75754">
        <ele>564.4</ele>
        <time>2021-10-17T06:22:30Z</time>
      </trkpt>
      <trkpt lat="46.56591" lon="5.75756">
        <ele>564.6</ele>
        <time>2021-10-17T06:22:31Z</time>
      </trkpt>
      <trkpt lat="46.56588" lon="5.75759">
        <ele>564.8</ele>
        <time>2021-10-17T06:22:32Z</time>
      </trkpt>
      <trkpt lat="46.56585" lon="5.75761">
        <ele>564.8</ele>
        <time>2021-10-17T06:22:33Z</time>
      </trkpt>
      <trkpt lat="46.56581" lon="5.75764">
        <ele>565.2</ele>
        <time>2021-10-17T06:22:34Z</time>
      </trkpt>
      <trkpt lat="46.56578" lon="5.75766">
        <ele>565.2</ele>
        <time>2021-10-17T06:22:35Z</time>
      </trkpt>
      <trkpt lat="46.56575" lon="5.75768">
        <ele>565.6</ele>
        <time>2021-10-17T06:22:36Z</time>
      </trkpt>
      <trkpt lat="46.56572" lon="5.75771">
        <ele>565.8</ele>
        <time>2021-10-17T06:22:37Z</time>
      </trkpt>
      <trkpt lat="46.56569" lon="5.75773">
        <ele>566</ele>
        <time>2021-10-17T06:22:38Z</time>
      </trkpt>
      <trkpt lat="46.56566" lon="5.75775">
        <ele>566.2</ele>
        <time>2021-10-17T06:22:39Z</time>
      </trkpt>
      <trkpt lat="46.56563" lon="5.75777">
        <ele>566.2</ele>
        <time>2021-10-17T06:22:40Z</time>
      </trkpt>
      <trkpt lat="46.56561" lon="5.7578">
        <ele>566.6</ele>
        <time>2021-10-17T06:22:41Z</time>
      </trkpt>
      <trkpt lat="46.56558" lon="5.75782">
        <ele>566.6</ele>
        <time>2021-10-17T06:22:42Z</time>
      </trkpt>
      <trkpt lat="46.56555" lon="5.75785">
        <ele>566.8</ele>
        <time>2021-10-17T06:22:43Z</time>
      </trkpt>
      <trkpt lat="46.56552" lon="5.75788">
        <ele>566.8</ele>
        <time>2021-10-17T06:22:44Z</time>
      </trkpt>
      <trkpt lat="46.56549" lon="5.7579">
        <ele>567.2</ele>
        <time>2021-10-17T06:22:45Z</time>
      </trkpt>
      <trkpt lat="46.56546" lon="5.75793">
        <ele>567.2</ele>
        <time>2021-10-17T06:22:46Z</time>
      </trkpt>
      <trkpt lat="46.56543" lon="5.75796">
        <ele>567.6</ele>
        <time>2021-10-17T06:22:47Z</time>
      </trkpt>
      <trkpt lat="46.56541" lon="5.75799">
        <ele>567.6</ele>
        <time>2021-10-17T06:22:48Z</time>
      </trkpt>
      <trkpt lat="46.56538" lon="5.75801">
        <ele>568</ele>
        <time>2021-10-17T06:22:49Z</time>
      </trkpt>
      <trkpt lat="46.56535" lon="5.75804">
        <ele>568.2</ele>
        <time>2021-10-17T06:22:50Z</time>
      </trkpt>
      <trkpt lat="46.56532" lon="5.75808">
        <ele>568.4</ele>
        <time>2021-10-17T06:22:51Z</time>
      </trkpt>
      <trkpt lat="46.5653" lon="5.75811">
        <ele>568.6</ele>
        <time>2021-10-17T06:22:52Z</time>
      </trkpt>
      <trkpt lat="46.56527" lon="5.75814">
        <ele>568.6</ele>
        <time>2021-10-17T06:22:53Z</time>
      </trkpt>
      <trkpt lat="46.56524" lon="5.75817">
        <ele>569</ele>
        <time>2021-10-17T06:22:54Z</time>
      </trkpt>
      <trkpt lat="46.56521" lon="5.7582">
        <ele>569</ele>
        <time>2021-10-17T06:22:55Z</time>
      </trkpt>
      <trkpt lat="46.56518" lon="5.75823">
        <ele>569.2</ele>
        <time>2021-10-17T06:22:56Z</time>
      </trkpt>
      <trkpt lat="46.56515" lon="5.75827">
        <ele>569.4</ele>
        <time>2021-10-17T06:22:57Z</time>
      </trkpt>
      <trkpt lat="46.56512" lon="5.7583">
        <ele>569.8</ele>
        <time>2021-10-17T06:22:58Z</time>
      </trkpt>
      <trkpt lat="46.56509" lon="5.75833">
        <ele>569.8</ele>
        <time>2021-10-17T06:22:59Z</time>
      </trkpt>
      <trkpt lat="46.56506" lon="5.75836">
        <ele>570</ele>
        <time>2021-10-17T06:23:00Z</time>
      </trkpt>
      <trkpt lat="46.56503" lon="5.75839">
        <ele>570.4</ele>
        <time>2021-10-17T06:23:01Z</time>
      </trkpt>
      <trkpt lat="46.565" lon="5.75842">
        <ele>570.6</ele>
        <time>2021-10-17T06:23:02Z</time>
      </trkpt>
      <trkpt lat="46.56497" lon="5.75845">
        <ele>570.6</ele>
        <time>2021-10-17T06:23:03Z</time>
      </trkpt>
      <trkpt lat="46.56494" lon="5.75848">
        <ele>570.8</ele>
        <time>2021-10-17T06:23:04Z</time>
      </trkpt>
      <trkpt lat="46.56491" lon="5.75851">
        <ele>570.8</ele>
        <time>2021-10-17T06:23:05Z</time>
      </trkpt>
      <trkpt lat="46.56488" lon="5.75854">
        <ele>571.2</ele>
        <time>2021-10-17T06:23:06Z</time>
      </trkpt>
      <trkpt lat="46.56486" lon="5.75857">
        <ele>571.2</ele>
        <time>2021-10-17T06:23:07Z</time>
      </trkpt>
      <trkpt lat="46.56483" lon="5.75861">
        <ele>571.6</ele>
        <time>2021-10-17T06:23:08Z</time>
      </trkpt>
      <trkpt lat="46.5648" lon="5.75864">
        <ele>571.6</ele>
        <time>2021-10-17T06:23:09Z</time>
      </trkpt>
      <trkpt lat="46.56477" lon="5.75868">
        <ele>571.8</ele>
        <time>2021-10-17T06:23:10Z</time>
      </trkpt>
      <trkpt lat="46.56475" lon="5.75872">
        <ele>571.8</ele>
        <time>2021-10-17T06:23:11Z</time>
      </trkpt>
      <trkpt lat="46.56471" lon="5.75877">
        <ele>572.2</ele>
        <time>2021-10-17T06:23:12Z</time>
      </trkpt>
      <trkpt lat="46.56469" lon="5.75879">
        <ele>572.2</ele>
        <time>2021-10-17T06:23:13Z</time>
      </trkpt>
      <trkpt lat="46.56467" lon="5.75883">
        <ele>572.4</ele>
        <time>2021-10-17T06:23:14Z</time>
      </trkpt>
      <trkpt lat="46.56464" lon="5.75886">
        <ele>572.4</ele>
        <time>2021-10-17T06:23:15Z</time>
      </trkpt>
      <trkpt lat="46.56461" lon="5.7589">
        <ele>572.8</ele>
        <time>2021-10-17T06:23:16Z</time>
      </trkpt>
      <trkpt lat="46.56458" lon="5.75894">
        <ele>572.8</ele>
        <time>2021-10-17T06:23:17Z</time>
      </trkpt>
      <trkpt lat="46.56455" lon="5.75898">
        <ele>573.2</ele>
        <time>2021-10-17T06:23:18Z</time>
      </trkpt>
      <trkpt lat="46.56452" lon="5.75903">
        <ele>573.2</ele>
        <time>2021-10-17T06:23:19Z</time>
      </trkpt>
      <trkpt lat="46.5645" lon="5.75907">
        <ele>573.6</ele>
        <time>2021-10-17T06:23:20Z</time>
      </trkpt>
      <trkpt lat="46.56447" lon="5.75911">
        <ele>573.8</ele>
        <time>2021-10-17T06:23:21Z</time>
      </trkpt>
      <trkpt lat="46.56444" lon="5.75916">
        <ele>573.8</ele>
        <time>2021-10-17T06:23:22Z</time>
      </trkpt>
      <trkpt lat="46.56441" lon="5.7592">
        <ele>574.2</ele>
        <time>2021-10-17T06:23:23Z</time>
      </trkpt>
      <trkpt lat="46.56438" lon="5.75924">
        <ele>574.2</ele>
        <time>2021-10-17T06:23:24Z</time>
      </trkpt>
      <trkpt lat="46.56436" lon="5.75928">
        <ele>574.6</ele>
        <time>2021-10-17T06:23:25Z</time>
      </trkpt>
      <trkpt lat="46.56433" lon="5.75932">
        <ele>574.6</ele>
        <time>2021-10-17T06:23:26Z</time>
      </trkpt>
      <trkpt lat="46.5643" lon="5.75936">
        <ele>575</ele>
        <time>2021-10-17T06:23:27Z</time>
      </trkpt>
      <trkpt lat="46.56428" lon="5.75939">
        <ele>575</ele>
        <time>2021-10-17T06:23:28Z</time>
      </trkpt>
      <trkpt lat="46.56425" lon="5.75944">
        <ele>575.2</ele>
        <time>2021-10-17T06:23:29Z</time>
      </trkpt>
      <trkpt lat="46.56422" lon="5.75948">
        <ele>575.4</ele>
        <time>2021-10-17T06:23:30Z</time>
      </trkpt>
      <trkpt lat="46.56419" lon="5.75954">
        <ele>575.4</ele>
        <time>2021-10-17T06:23:31Z</time>
      </trkpt>
      <trkpt lat="46.56418" lon="5.75956">
        <ele>575.8</ele>
        <time>2021-10-17T06:23:32Z</time>
      </trkpt>
      <trkpt lat="46.56416" lon="5.7596">
        <ele>576.2</ele>
        <time>2021-10-17T06:23:33Z</time>
      </trkpt>
      <trkpt lat="46.56414" lon="5.75964">
        <ele>576.2</ele>
        <time>2021-10-17T06:23:34Z</time>
      </trkpt>
      <trkpt lat="46.56412" lon="5.75968">
        <ele>576.4</ele>
        <time>2021-10-17T06:23:35Z</time>
      </trkpt>
      <trkpt lat="46.56409" lon="5.75972">
        <ele>576.6</ele>
        <time>2021-10-17T06:23:36Z</time>
      </trkpt>
      <trkpt lat="46.56407" lon="5.75977">
        <ele>576.6</ele>
        <time>2021-10-17T06:23:37Z</time>
      </trkpt>
      <trkpt lat="46.56405" lon="5.75981">
        <ele>577</ele>
        <time>2021-10-17T06:23:38Z</time>
      </trkpt>
      <trkpt lat="46.56403" lon="5.75988">
        <ele>577</ele>
        <time>2021-10-17T06:23:39Z</time>
      </trkpt>
      <trkpt lat="46.56402" lon="5.7599">
        <ele>577.4</ele>
        <time>2021-10-17T06:23:40Z</time>
      </trkpt>
      <trkpt lat="46.564" lon="5.75995">
        <ele>577.6</ele>
        <time>2021-10-17T06:23:41Z</time>
      </trkpt>
      <trkpt lat="46.56398" lon="5.75999">
        <ele>577.6</ele>
        <time>2021-10-17T06:23:42Z</time>
      </trkpt>
      <trkpt lat="46.56396" lon="5.76004">
        <ele>578</ele>
        <time>2021-10-17T06:23:43Z</time>
      </trkpt>
      <trkpt lat="46.56394" lon="5.76008">
        <ele>578.2</ele>
        <time>2021-10-17T06:23:44Z</time>
      </trkpt>
      <trkpt lat="46.56392" lon="5.76012">
        <ele>578.6</ele>
        <time>2021-10-17T06:23:45Z</time>
      </trkpt>
      <trkpt lat="46.5639" lon="5.76016">
        <ele>578.6</ele>
        <time>2021-10-17T06:23:46Z</time>
      </trkpt>
      <trkpt lat="46.56388" lon="5.76021">
        <ele>578.8</ele>
        <time>2021-10-17T06:23:47Z</time>
      </trkpt>
      <trkpt lat="46.56387" lon="5.76025">
        <ele>578.8</ele>
        <time>2021-10-17T06:23:48Z</time>
      </trkpt>
      <trkpt lat="46.56385" lon="5.7603">
        <ele>579.2</ele>
        <time>2021-10-17T06:23:49Z</time>
      </trkpt>
      <trkpt lat="46.56383" lon="5.76034">
        <ele>579.4</ele>
        <time>2021-10-17T06:23:50Z</time>
      </trkpt>
      <trkpt lat="46.56381" lon="5.76038">
        <ele>579.6</ele>
        <time>2021-10-17T06:23:51Z</time>
      </trkpt>
      <trkpt lat="46.56379" lon="5.76043">
        <ele>579.8</ele>
        <time>2021-10-17T06:23:52Z</time>
      </trkpt>
      <trkpt lat="46.56376" lon="5.76047">
        <ele>580</ele>
        <time>2021-10-17T06:23:53Z</time>
      </trkpt>
      <trkpt lat="46.56374" lon="5.76051">
        <ele>580</ele>
        <time>2021-10-17T06:23:54Z</time>
      </trkpt>
      <trkpt lat="46.56372" lon="5.76056">
        <ele>580.4</ele>
        <time>2021-10-17T06:23:55Z</time>
      </trkpt>
      <trkpt lat="46.56369" lon="5.7606">
        <ele>580.4</ele>
        <time>2021-10-17T06:23:56Z</time>
      </trkpt>
      <trkpt lat="46.56367" lon="5.76065">
        <ele>580.8</ele>
        <time>2021-10-17T06:23:57Z</time>
      </trkpt>
      <trkpt lat="46.56365" lon="5.7607">
        <ele>580.8</ele>
        <time>2021-10-17T06:23:58Z</time>
      </trkpt>
      <trkpt lat="46.56363" lon="5.76074">
        <ele>581.2</ele>
        <time>2021-10-17T06:23:59Z</time>
      </trkpt>
      <trkpt lat="46.56361" lon="5.76079">
        <ele>581.4</ele>
        <time>2021-10-17T06:24:00Z</time>
      </trkpt>
      <trkpt lat="46.56359" lon="5.76083">
        <ele>581.6</ele>
        <time>2021-10-17T06:24:01Z</time>
      </trkpt>
      <trkpt lat="46.56357" lon="5.76088">
        <ele>581.8</ele>
        <time>2021-10-17T06:24:02Z</time>
      </trkpt>
      <trkpt lat="46.56355" lon="5.76092">
        <ele>581.8</ele>
        <time>2021-10-17T06:24:03Z</time>
      </trkpt>
      <trkpt lat="46.56352" lon="5.76095">
        <ele>582</ele>
        <time>2021-10-17T06:24:04Z</time>
      </trkpt>
      <trkpt lat="46.5635" lon="5.76099">
        <ele>582.2</ele>
        <time>2021-10-17T06:24:05Z</time>
      </trkpt>
      <trkpt lat="46.56348" lon="5.76104">
        <ele>582.4</ele>
        <time>2021-10-17T06:24:06Z</time>
      </trkpt>
      <trkpt lat="46.56345" lon="5.76108">
        <ele>582.6</ele>
        <time>2021-10-17T06:24:07Z</time>
      </trkpt>
      <trkpt lat="46.56343" lon="5.76111">
        <ele>582.6</ele>
        <time>2021-10-17T06:24:08Z</time>
      </trkpt>
      <trkpt lat="46.5634" lon="5.76115">
        <ele>583</ele>
        <time>2021-10-17T06:24:09Z</time>
      </trkpt>
      <trkpt lat="46.56337" lon="5.76119">
        <ele>583</ele>
        <time>2021-10-17T06:24:10Z</time>
      </trkpt>
      <trkpt lat="46.56334" lon="5.76122">
        <ele>583.4</ele>
        <time>2021-10-17T06:24:11Z</time>
      </trkpt>
      <trkpt lat="46.56332" lon="5.76126">
        <ele>583.4</ele>
        <time>2021-10-17T06:24:12Z</time>
      </trkpt>
      <trkpt lat="46.56329" lon="5.76129">
        <ele>583.8</ele>
        <time>2021-10-17T06:24:13Z</time>
      </trkpt>
      <trkpt lat="46.56326" lon="5.76132">
        <ele>583.8</ele>
        <time>2021-10-17T06:24:14Z</time>
      </trkpt>
      <trkpt lat="46.56323" lon="5.76135">
        <ele>584.2</ele>
        <time>2021-10-17T06:24:15Z</time>
      </trkpt>
      <trkpt lat="46.56318" lon="5.76139">
        <ele>584.4</ele>
        <time>2021-10-17T06:24:16Z</time>
      </trkpt>
      <trkpt lat="46.56316" lon="5.7614">
        <ele>584.4</ele>
        <time>2021-10-17T06:24:17Z</time>
      </trkpt>
      <trkpt lat="46.56311" lon="5.76143">
        <ele>584.8</ele>
        <time>2021-10-17T06:24:18Z</time>
      </trkpt>
      <trkpt lat="46.5631" lon="5.76145">
        <ele>584.8</ele>
        <time>2021-10-17T06:24:19Z</time>
      </trkpt>
      <trkpt lat="46.56306" lon="5.76146">
        <ele>585.2</ele>
        <time>2021-10-17T06:24:20Z</time>
      </trkpt>
      <trkpt lat="46.56303" lon="5.76148">
        <ele>585.2</ele>
        <time>2021-10-17T06:24:21Z</time>
      </trkpt>
      <trkpt lat="46.563" lon="5.76149">
        <ele>585.4</ele>
        <time>2021-10-17T06:24:22Z</time>
      </trkpt>
      <trkpt lat="46.56296" lon="5.76151">
        <ele>585.8</ele>
        <time>2021-10-17T06:24:23Z</time>
      </trkpt>
      <trkpt lat="46.56293" lon="5.76152">
        <ele>586</ele>
        <time>2021-10-17T06:24:24Z</time>
      </trkpt>
      <trkpt lat="46.56289" lon="5.76153">
        <ele>586.2</ele>
        <time>2021-10-17T06:24:25Z</time>
      </trkpt>
      <trkpt lat="46.56286" lon="5.76153">
        <ele>586.4</ele>
        <time>2021-10-17T06:24:26Z</time>
      </trkpt>
      <trkpt lat="46.56283" lon="5.76154">
        <ele>586.6</ele>
        <time>2021-10-17T06:24:27Z</time>
      </trkpt>
      <trkpt lat="46.56279" lon="5.76154">
        <ele>587</ele>
        <time>2021-10-17T06:24:28Z</time>
      </trkpt>
      <trkpt lat="46.56276" lon="5.76154">
        <ele>587.2</ele>
        <time>2021-10-17T06:24:29Z</time>
      </trkpt>
      <trkpt lat="46.56273" lon="5.76154">
        <ele>587.4</ele>
        <time>2021-10-17T06:24:30Z</time>
      </trkpt>
      <trkpt lat="46.5627" lon="5.76154">
        <ele>587.6</ele>
        <time>2021-10-17T06:24:31Z</time>
      </trkpt>
      <trkpt lat="46.56267" lon="5.76154">
        <ele>587.8</ele>
        <time>2021-10-17T06:24:32Z</time>
      </trkpt>
      <trkpt lat="46.56264" lon="5.76153">
        <ele>588.2</ele>
        <time>2021-10-17T06:24:33Z</time>
      </trkpt>
      <trkpt lat="46.56261" lon="5.76153">
        <ele>588.2</ele>
        <time>2021-10-17T06:24:34Z</time>
      </trkpt>
      <trkpt lat="46.56258" lon="5.76153">
        <ele>588.4</ele>
        <time>2021-10-17T06:24:35Z</time>
      </trkpt>
      <trkpt lat="46.56255" lon="5.76153">
        <ele>588.4</ele>
        <time>2021-10-17T06:24:36Z</time>
      </trkpt>
      <trkpt lat="46.56252" lon="5.76153">
        <ele>588.8</ele>
        <time>2021-10-17T06:24:37Z</time>
      </trkpt>
      <trkpt lat="46.56249" lon="5.76152">
        <ele>589</ele>
        <time>2021-10-17T06:24:38Z</time>
      </trkpt>
      <trkpt lat="46.56246" lon="5.76151">
        <ele>589</ele>
        <time>2021-10-17T06:24:39Z</time>
      </trkpt>
      <trkpt lat="46.56243" lon="5.76151">
        <ele>589.4</ele>
        <time>2021-10-17T06:24:40Z</time>
      </trkpt>
      <trkpt lat="46.5624" lon="5.7615">
        <ele>589.4</ele>
        <time>2021-10-17T06:24:41Z</time>
      </trkpt>
      <trkpt lat="46.56237" lon="5.76149">
        <ele>589.8</ele>
        <time>2021-10-17T06:24:42Z</time>
      </trkpt>
      <trkpt lat="46.56235" lon="5.76149">
        <ele>589.8</ele>
        <time>2021-10-17T06:24:43Z</time>
      </trkpt>
      <trkpt lat="46.56231" lon="5.76149">
        <ele>590.2</ele>
        <time>2021-10-17T06:24:44Z</time>
      </trkpt>
      <trkpt lat="46.56228" lon="5.76148">
        <ele>590.6</ele>
        <time>2021-10-17T06:24:45Z</time>
      </trkpt>
      <trkpt lat="46.56225" lon="5.76148">
        <ele>590.8</ele>
        <time>2021-10-17T06:24:46Z</time>
      </trkpt>
      <trkpt lat="46.56222" lon="5.76147">
        <ele>591</ele>
        <time>2021-10-17T06:24:47Z</time>
      </trkpt>
      <trkpt lat="46.56219" lon="5.76146">
        <ele>591.2</ele>
        <time>2021-10-17T06:24:48Z</time>
      </trkpt>
      <trkpt lat="46.56216" lon="5.76145">
        <ele>591.6</ele>
        <time>2021-10-17T06:24:49Z</time>
      </trkpt>
      <trkpt lat="46.56213" lon="5.76144">
        <ele>591.6</ele>
        <time>2021-10-17T06:24:50Z</time>
      </trkpt>
      <trkpt lat="46.56211" lon="5.76144">
        <ele>592</ele>
        <time>2021-10-17T06:24:51Z</time>
      </trkpt>
      <trkpt lat="46.56208" lon="5.76143">
        <ele>592.2</ele>
        <time>2021-10-17T06:24:52Z</time>
      </trkpt>
      <trkpt lat="46.56205" lon="5.76141">
        <ele>592.2</ele>
        <time>2021-10-17T06:24:53Z</time>
      </trkpt>
      <trkpt lat="46.56202" lon="5.7614">
        <ele>592.6</ele>
        <time>2021-10-17T06:24:54Z</time>
      </trkpt>
      <trkpt lat="46.56199" lon="5.76139">
        <ele>592.6</ele>
        <time>2021-10-17T06:24:55Z</time>
      </trkpt>
      <trkpt lat="46.56196" lon="5.76139">
        <ele>593</ele>
        <time>2021-10-17T06:24:56Z</time>
      </trkpt>
      <trkpt lat="46.56193" lon="5.76138">
        <ele>593.2</ele>
        <time>2021-10-17T06:24:57Z</time>
      </trkpt>
      <trkpt lat="46.5619" lon="5.76138">
        <ele>593.6</ele>
        <time>2021-10-17T06:24:58Z</time>
      </trkpt>
      <trkpt lat="46.56188" lon="5.76137">
        <ele>593.8</ele>
        <time>2021-10-17T06:24:59Z</time>
      </trkpt>
      <trkpt lat="46.56185" lon="5.76137">
        <ele>594.2</ele>
        <time>2021-10-17T06:25:00Z</time>
      </trkpt>
      <trkpt lat="46.56182" lon="5.76136">
        <ele>594.2</ele>
        <time>2021-10-17T06:25:01Z</time>
      </trkpt>
      <trkpt lat="46.56179" lon="5.76135">
        <ele>594.4</ele>
        <time>2021-10-17T06:25:02Z</time>
      </trkpt>
      <trkpt lat="46.56176" lon="5.76135">
        <ele>594.8</ele>
        <time>2021-10-17T06:25:03Z</time>
      </trkpt>
      <trkpt lat="46.56173" lon="5.76135">
        <ele>595</ele>
        <time>2021-10-17T06:25:04Z</time>
      </trkpt>
      <trkpt lat="46.56171" lon="5.76134">
        <ele>595</ele>
        <time>2021-10-17T06:25:05Z</time>
      </trkpt>
      <trkpt lat="46.56168" lon="5.76134">
        <ele>595.4</ele>
        <time>2021-10-17T06:25:06Z</time>
      </trkpt>
      <trkpt lat="46.56165" lon="5.76134">
        <ele>595.6</ele>
        <time>2021-10-17T06:25:07Z</time>
      </trkpt>
      <trkpt lat="46.56162" lon="5.76133">
        <ele>595.8</ele>
        <time>2021-10-17T06:25:08Z</time>
      </trkpt>
      <trkpt lat="46.5616" lon="5.76133">
        <ele>596</ele>
        <time>2021-10-17T06:25:09Z</time>
      </trkpt>
      <trkpt lat="46.56156" lon="5.76133">
        <ele>596.2</ele>
        <time>2021-10-17T06:25:10Z</time>
      </trkpt>
      <trkpt lat="46.56155" lon="5.76133">
        <ele>596.6</ele>
        <time>2021-10-17T06:25:11Z</time>
      </trkpt>
      <trkpt lat="46.56152" lon="5.76133">
        <ele>597</ele>
        <time>2021-10-17T06:25:12Z</time>
      </trkpt>
      <trkpt lat="46.56149" lon="5.76133">
        <ele>597.2</ele>
        <time>2021-10-17T06:25:13Z</time>
      </trkpt>
      <trkpt lat="46.56147" lon="5.76134">
        <ele>597.4</ele>
        <time>2021-10-17T06:25:14Z</time>
      </trkpt>
      <trkpt lat="46.56144" lon="5.76134">
        <ele>597.6</ele>
        <time>2021-10-17T06:25:15Z</time>
      </trkpt>
      <trkpt lat="46.56141" lon="5.76135">
        <ele>597.8</ele>
        <time>2021-10-17T06:25:16Z</time>
      </trkpt>
      <trkpt lat="46.56139" lon="5.76135">
        <ele>597.8</ele>
        <time>2021-10-17T06:25:17Z</time>
      </trkpt>
      <trkpt lat="46.56136" lon="5.76136">
        <ele>598.4</ele>
        <time>2021-10-17T06:25:18Z</time>
      </trkpt>
      <trkpt lat="46.56133" lon="5.76137">
        <ele>598.4</ele>
        <time>2021-10-17T06:25:19Z</time>
      </trkpt>
      <trkpt lat="46.56131" lon="5.76138">
        <ele>598.8</ele>
        <time>2021-10-17T06:25:20Z</time>
      </trkpt>
      <trkpt lat="46.56128" lon="5.76139">
        <ele>599</ele>
        <time>2021-10-17T06:25:21Z</time>
      </trkpt>
      <trkpt lat="46.56126" lon="5.7614">
        <ele>599.2</ele>
        <time>2021-10-17T06:25:22Z</time>
      </trkpt>
      <trkpt lat="46.56124" lon="5.76141">
        <ele>599.6</ele>
        <time>2021-10-17T06:25:23Z</time>
      </trkpt>
      <trkpt lat="46.56121" lon="5.76143">
        <ele>599.6</ele>
        <time>2021-10-17T06:25:24Z</time>
      </trkpt>
      <trkpt lat="46.56119" lon="5.76144">
        <ele>600</ele>
        <time>2021-10-17T06:25:25Z</time>
      </trkpt>
      <trkpt lat="46.56116" lon="5.76146">
        <ele>600</ele>
        <time>2021-10-17T06:25:26Z</time>
      </trkpt>
      <trkpt lat="46.56114" lon="5.76147">
        <ele>600.4</ele>
        <time>2021-10-17T06:25:27Z</time>
      </trkpt>
      <trkpt lat="46.56111" lon="5.76149">
        <ele>600.6</ele>
        <time>2021-10-17T06:25:28Z</time>
      </trkpt>
      <trkpt lat="46.56109" lon="5.7615">
        <ele>600.8</ele>
        <time>2021-10-17T06:25:29Z</time>
      </trkpt>
      <trkpt lat="46.56106" lon="5.76152">
        <ele>600.8</ele>
        <time>2021-10-17T06:25:30Z</time>
      </trkpt>
      <trkpt lat="46.56104" lon="5.76154">
        <ele>601.2</ele>
        <time>2021-10-17T06:25:31Z</time>
      </trkpt>
      <trkpt lat="46.56102" lon="5.76156">
        <ele>601.4</ele>
        <time>2021-10-17T06:25:32Z</time>
      </trkpt>
      <trkpt lat="46.56098" lon="5.76159">
        <ele>601.4</ele>
        <time>2021-10-17T06:25:33Z</time>
      </trkpt>
      <trkpt lat="46.56096" lon="5.7616">
        <ele>601.8</ele>
        <time>2021-10-17T06:25:34Z</time>
      </trkpt>
      <trkpt lat="46.56094" lon="5.76161">
        <ele>601.8</ele>
        <time>2021-10-17T06:25:35Z</time>
      </trkpt>
      <trkpt lat="46.56091" lon="5.76163">
        <ele>602.2</ele>
        <time>2021-10-17T06:25:36Z</time>
      </trkpt>
      <trkpt lat="46.56088" lon="5.76165">
        <ele>602.4</ele>
        <time>2021-10-17T06:25:37Z</time>
      </trkpt>
      <trkpt lat="46.56086" lon="5.76168">
        <ele>602.4</ele>
        <time>2021-10-17T06:25:38Z</time>
      </trkpt>
      <trkpt lat="46.56083" lon="5.7617">
        <ele>602.8</ele>
        <time>2021-10-17T06:25:39Z</time>
      </trkpt>
      <trkpt lat="46.56081" lon="5.76172">
        <ele>602.8</ele>
        <time>2021-10-17T06:25:40Z</time>
      </trkpt>
      <trkpt lat="46.56079" lon="5.76174">
        <ele>603</ele>
        <time>2021-10-17T06:25:41Z</time>
      </trkpt>
      <trkpt lat="46.56076" lon="5.76176">
        <ele>603.2</ele>
        <time>2021-10-17T06:25:42Z</time>
      </trkpt>
      <trkpt lat="46.56074" lon="5.76179">
        <ele>603.2</ele>
        <time>2021-10-17T06:25:43Z</time>
      </trkpt>
      <trkpt lat="46.56072" lon="5.76181">
        <ele>603.6</ele>
        <time>2021-10-17T06:25:44Z</time>
      </trkpt>
      <trkpt lat="46.5607" lon="5.76183">
        <ele>603.6</ele>
        <time>2021-10-17T06:25:45Z</time>
      </trkpt>
      <trkpt lat="46.56068" lon="5.76185">
        <ele>604</ele>
        <time>2021-10-17T06:25:46Z</time>
      </trkpt>
      <trkpt lat="46.56066" lon="5.76187">
        <ele>604</ele>
        <time>2021-10-17T06:25:47Z</time>
      </trkpt>
      <trkpt lat="46.56064" lon="5.76189">
        <ele>604.4</ele>
        <time>2021-10-17T06:25:48Z</time>
      </trkpt>
      <trkpt lat="46.56061" lon="5.76191">
        <ele>604.4</ele>
        <time>2021-10-17T06:25:49Z</time>
      </trkpt>
      <trkpt lat="46.56059" lon="5.76193">
        <ele>604.6</ele>
        <time>2021-10-17T06:25:50Z</time>
      </trkpt>
      <trkpt lat="46.56057" lon="5.76194">
        <ele>604.8</ele>
        <time>2021-10-17T06:25:51Z</time>
      </trkpt>
      <trkpt lat="46.56055" lon="5.76196">
        <ele>604.8</ele>
        <time>2021-10-17T06:25:52Z</time>
      </trkpt>
      <trkpt lat="46.56052" lon="5.76198">
        <ele>605.2</ele>
        <time>2021-10-17T06:25:53Z</time>
      </trkpt>
      <trkpt lat="46.5605" lon="5.762">
        <ele>605.2</ele>
        <time>2021-10-17T06:25:54Z</time>
      </trkpt>
      <trkpt lat="46.56048" lon="5.76202">
        <ele>605.4</ele>
        <time>2021-10-17T06:25:55Z</time>
      </trkpt>
      <trkpt lat="46.56047" lon="5.76204">
        <ele>605.4</ele>
        <time>2021-10-17T06:25:56Z</time>
      </trkpt>
      <trkpt lat="46.56045" lon="5.76205">
        <ele>605.6</ele>
        <time>2021-10-17T06:25:57Z</time>
      </trkpt>
      <trkpt lat="46.56043" lon="5.76207">
        <ele>605.6</ele>
        <time>2021-10-17T06:25:58Z</time>
      </trkpt>
      <trkpt lat="46.56041" lon="5.76209">
        <ele>605.6</ele>
        <time>2021-10-17T06:25:59Z</time>
      </trkpt>
      <trkpt lat="46.56039" lon="5.76211">
        <ele>605.8</ele>
        <time>2021-10-17T06:26:00Z</time>
      </trkpt>
      <trkpt lat="46.56037" lon="5.76213">
        <ele>605.8</ele>
        <time>2021-10-17T06:26:01Z</time>
      </trkpt>
      <trkpt lat="46.56035" lon="5.76214">
        <ele>605.8</ele>
        <time>2021-10-17T06:26:02Z</time>
      </trkpt>
      <trkpt lat="46.56033" lon="5.76216">
        <ele>605.8</ele>
        <time>2021-10-17T06:26:03Z</time>
      </trkpt>
      <trkpt lat="46.56031" lon="5.76216">
        <ele>606</ele>
        <time>2021-10-17T06:26:04Z</time>
      </trkpt>
      <trkpt lat="46.5603" lon="5.76217">
        <ele>606</ele>
        <time>2021-10-17T06:26:05Z</time>
      </trkpt>
      <trkpt lat="46.56029" lon="5.76218">
        <ele>606</ele>
        <time>2021-10-17T06:26:06Z</time>
      </trkpt>
      <trkpt lat="46.56029" lon="5.7622">
        <ele>606</ele>
        <time>2021-10-17T06:26:07Z</time>
      </trkpt>
      <trkpt lat="46.56029" lon="5.7622">
        <ele>606</ele>
        <time>2021-10-17T06:26:08Z</time>
      </trkpt>
      <trkpt lat="46.56025" lon="5.76225">
        <ele>606.6</ele>
        <time>2021-10-17T06:27:34Z</time>
      </trkpt>
      <trkpt lat="46.56023" lon="5.76227">
        <ele>606.6</ele>
        <time>2021-10-17T06:27:35Z</time>
      </trkpt>
      <trkpt lat="46.56021" lon="5.7623">
        <ele>606.8</ele>
        <time>2021-10-17T06:27:36Z</time>
      </trkpt>
      <trkpt lat="46.56018" lon="5.76232">
        <ele>606.8</ele>
        <time>2021-10-17T06:27:37Z</time>
      </trkpt>
      <trkpt lat="46.56015" lon="5.76234">
        <ele>606.8</ele>
        <time>2021-10-17T06:27:38Z</time>
      </trkpt>
      <trkpt lat="46.56013" lon="5.76237">
        <ele>607</ele>
        <time>2021-10-17T06:27:39Z</time>
      </trkpt>
      <trkpt lat="46.56009" lon="5.76239">
        <ele>607</ele>
        <time>2021-10-17T06:27:40Z</time>
      </trkpt>
      <trkpt lat="46.56006" lon="5.76242">
        <ele>607.4</ele>
        <time>2021-10-17T06:27:41Z</time>
      </trkpt>
      <trkpt lat="46.56003" lon="5.76244">
        <ele>607.4</ele>
        <time>2021-10-17T06:27:42Z</time>
      </trkpt>
      <trkpt lat="46.56" lon="5.76246">
        <ele>607.4</ele>
        <time>2021-10-17T06:27:43Z</time>
      </trkpt>
      <trkpt lat="46.55996" lon="5.76249">
        <ele>607.6</ele>
        <time>2021-10-17T06:27:44Z</time>
      </trkpt>
      <trkpt lat="46.55993" lon="5.76251">
        <ele>607.6</ele>
        <time>2021-10-17T06:27:45Z</time>
      </trkpt>
      <trkpt lat="46.55989" lon="5.76254">
        <ele>608</ele>
        <time>2021-10-17T06:27:46Z</time>
      </trkpt>
      <trkpt lat="46.55986" lon="5.76256">
        <ele>608</ele>
        <time>2021-10-17T06:27:47Z</time>
      </trkpt>
      <trkpt lat="46.55983" lon="5.76258">
        <ele>608.4</ele>
        <time>2021-10-17T06:27:48Z</time>
      </trkpt>
      <trkpt lat="46.5598" lon="5.7626">
        <ele>608.4</ele>
        <time>2021-10-17T06:27:49Z</time>
      </trkpt>
      <trkpt lat="46.55977" lon="5.76261">
        <ele>608.6</ele>
        <time>2021-10-17T06:27:50Z</time>
      </trkpt>
      <trkpt lat="46.55974" lon="5.76262">
        <ele>608.8</ele>
        <time>2021-10-17T06:27:51Z</time>
      </trkpt>
      <trkpt lat="46.55971" lon="5.76263">
        <ele>608.8</ele>
        <time>2021-10-17T06:27:52Z</time>
      </trkpt>
      <trkpt lat="46.55968" lon="5.76264">
        <ele>609.2</ele>
        <time>2021-10-17T06:27:53Z</time>
      </trkpt>
      <trkpt lat="46.55965" lon="5.76265">
        <ele>609.4</ele>
        <time>2021-10-17T06:27:54Z</time>
      </trkpt>
      <trkpt lat="46.55962" lon="5.76266">
        <ele>609.6</ele>
        <time>2021-10-17T06:27:55Z</time>
      </trkpt>
      <trkpt lat="46.55959" lon="5.76267">
        <ele>609.6</ele>
        <time>2021-10-17T06:27:56Z</time>
      </trkpt>
      <trkpt lat="46.55956" lon="5.76268">
        <ele>610</ele>
        <time>2021-10-17T06:27:57Z</time>
      </trkpt>
      <trkpt lat="46.55952" lon="5.76268">
        <ele>610</ele>
        <time>2021-10-17T06:27:58Z</time>
      </trkpt>
      <trkpt lat="46.55949" lon="5.76269">
        <ele>610.2</ele>
        <time>2021-10-17T06:27:59Z</time>
      </trkpt>
      <trkpt lat="46.55946" lon="5.76269">
        <ele>610.2</ele>
        <time>2021-10-17T06:28:00Z</time>
      </trkpt>
      <trkpt lat="46.55942" lon="5.7627">
        <ele>610.6</ele>
        <time>2021-10-17T06:28:01Z</time>
      </trkpt>
      <trkpt lat="46.55939" lon="5.76271">
        <ele>610.6</ele>
        <time>2021-10-17T06:28:02Z</time>
      </trkpt>
      <trkpt lat="46.55935" lon="5.76273">
        <ele>611</ele>
        <time>2021-10-17T06:28:03Z</time>
      </trkpt>
      <trkpt lat="46.55932" lon="5.76274">
        <ele>611.2</ele>
        <time>2021-10-17T06:28:04Z</time>
      </trkpt>
      <trkpt lat="46.55929" lon="5.76276">
        <ele>611.4</ele>
        <time>2021-10-17T06:28:05Z</time>
      </trkpt>
      <trkpt lat="46.55925" lon="5.76277">
        <ele>611.6</ele>
        <time>2021-10-17T06:28:06Z</time>
      </trkpt>
      <trkpt lat="46.55921" lon="5.76278">
        <ele>611.6</ele>
        <time>2021-10-17T06:28:07Z</time>
      </trkpt>
      <trkpt lat="46.55918" lon="5.76279">
        <ele>612.2</ele>
        <time>2021-10-17T06:28:08Z</time>
      </trkpt>
      <trkpt lat="46.55914" lon="5.7628">
        <ele>612.4</ele>
        <time>2021-10-17T06:28:09Z</time>
      </trkpt>
      <trkpt lat="46.5591" lon="5.76281">
        <ele>612.6</ele>
        <time>2021-10-17T06:28:10Z</time>
      </trkpt>
      <trkpt lat="46.55907" lon="5.76283">
        <ele>612.8</ele>
        <time>2021-10-17T06:28:11Z</time>
      </trkpt>
      <trkpt lat="46.55904" lon="5.76284">
        <ele>613.2</ele>
        <time>2021-10-17T06:28:12Z</time>
      </trkpt>
      <trkpt lat="46.559" lon="5.76285">
        <ele>613.4</ele>
        <time>2021-10-17T06:28:13Z</time>
      </trkpt>
      <trkpt lat="46.55897" lon="5.76287">
        <ele>613.4</ele>
        <time>2021-10-17T06:28:14Z</time>
      </trkpt>
      <trkpt lat="46.55897" lon="5.76287">
        <ele>613.6</ele>
        <time>2021-10-17T06:28:15Z</time>
      </trkpt>
      <trkpt lat="46.55891" lon="5.76291">
        <ele>613.6</ele>
        <time>2021-10-17T06:28:16Z</time>
      </trkpt>
      <trkpt lat="46.55888" lon="5.76293">
        <ele>614.2</ele>
        <time>2021-10-17T06:28:17Z</time>
      </trkpt>
      <trkpt lat="46.55884" lon="5.76295">
        <ele>614.4</ele>
        <time>2021-10-17T06:28:18Z</time>
      </trkpt>
      <trkpt lat="46.55881" lon="5.76298">
        <ele>614.6</ele>
        <time>2021-10-17T06:28:19Z</time>
      </trkpt>
      <trkpt lat="46.55878" lon="5.76301">
        <ele>614.8</ele>
        <time>2021-10-17T06:28:20Z</time>
      </trkpt>
      <trkpt lat="46.55875" lon="5.76304">
        <ele>614.8</ele>
        <time>2021-10-17T06:28:21Z</time>
      </trkpt>
      <trkpt lat="46.55872" lon="5.76307">
        <ele>615.2</ele>
        <time>2021-10-17T06:28:22Z</time>
      </trkpt>
      <trkpt lat="46.55869" lon="5.76309">
        <ele>615.4</ele>
        <time>2021-10-17T06:28:23Z</time>
      </trkpt>
      <trkpt lat="46.55866" lon="5.76312">
        <ele>615.4</ele>
        <time>2021-10-17T06:28:24Z</time>
      </trkpt>
      <trkpt lat="46.55864" lon="5.76316">
        <ele>615.8</ele>
        <time>2021-10-17T06:28:25Z</time>
      </trkpt>
      <trkpt lat="46.55864" lon="5.76316">
        <ele>616</ele>
        <time>2021-10-17T06:28:26Z</time>
      </trkpt>
      <trkpt lat="46.55858" lon="5.76322">
        <ele>616</ele>
        <time>2021-10-17T06:28:27Z</time>
      </trkpt>
      <trkpt lat="46.55858" lon="5.76322">
        <ele>616.4</ele>
        <time>2021-10-17T06:28:28Z</time>
      </trkpt>
      <trkpt lat="46.55853" lon="5.76329">
        <ele>616.4</ele>
        <time>2021-10-17T06:28:29Z</time>
      </trkpt>
      <trkpt lat="46.55853" lon="5.76329">
        <ele>616.8</ele>
        <time>2021-10-17T06:28:30Z</time>
      </trkpt>
      <trkpt lat="46.55851" lon="5.76333">
        <ele>617</ele>
        <time>2021-10-17T06:28:31Z</time>
      </trkpt>
      <trkpt lat="46.55848" lon="5.76336">
        <ele>617.2</ele>
        <time>2021-10-17T06:28:32Z</time>
      </trkpt>
      <trkpt lat="46.55846" lon="5.7634">
        <ele>617.2</ele>
        <time>2021-10-17T06:28:33Z</time>
      </trkpt>
      <trkpt lat="46.55843" lon="5.76343">
        <ele>617.6</ele>
        <time>2021-10-17T06:28:34Z</time>
      </trkpt>
      <trkpt lat="46.55841" lon="5.76347">
        <ele>617.8</ele>
        <time>2021-10-17T06:28:35Z</time>
      </trkpt>
      <trkpt lat="46.55839" lon="5.7635">
        <ele>618</ele>
        <time>2021-10-17T06:28:36Z</time>
      </trkpt>
      <trkpt lat="46.55837" lon="5.76354">
        <ele>618</ele>
        <time>2021-10-17T06:28:37Z</time>
      </trkpt>
      <trkpt lat="46.55835" lon="5.76358">
        <ele>618.4</ele>
        <time>2021-10-17T06:28:38Z</time>
      </trkpt>
      <trkpt lat="46.55832" lon="5.76361">
        <ele>618.4</ele>
        <time>2021-10-17T06:28:39Z</time>
      </trkpt>
      <trkpt lat="46.5583" lon="5.76365">
        <ele>618.8</ele>
        <time>2021-10-17T06:28:40Z</time>
      </trkpt>
      <trkpt lat="46.55828" lon="5.76369">
        <ele>618.8</ele>
        <time>2021-10-17T06:28:41Z</time>
      </trkpt>
      <trkpt lat="46.55827" lon="5.76372">
        <ele>619.2</ele>
        <time>2021-10-17T06:28:42Z</time>
      </trkpt>
      <trkpt lat="46.55825" lon="5.76376">
        <ele>619.2</ele>
        <time>2021-10-17T06:28:43Z</time>
      </trkpt>
      <trkpt lat="46.55823" lon="5.7638">
        <ele>619.6</ele>
        <time>2021-10-17T06:28:44Z</time>
      </trkpt>
      <trkpt lat="46.5582" lon="5.76383">
        <ele>619.6</ele>
        <time>2021-10-17T06:28:45Z</time>
      </trkpt>
      <trkpt lat="46.55818" lon="5.76387">
        <ele>619.8</ele>
        <time>2021-10-17T06:28:46Z</time>
      </trkpt>
      <trkpt lat="46.55816" lon="5.76391">
        <ele>619.8</ele>
        <time>2021-10-17T06:28:47Z</time>
      </trkpt>
      <trkpt lat="46.55813" lon="5.76395">
        <ele>620.2</ele>
        <time>2021-10-17T06:28:48Z</time>
      </trkpt>
      <trkpt lat="46.55811" lon="5.76398">
        <ele>620.2</ele>
        <time>2021-10-17T06:28:49Z</time>
      </trkpt>
      <trkpt lat="46.55808" lon="5.76402">
        <ele>620.6</ele>
        <time>2021-10-17T06:28:50Z</time>
      </trkpt>
      <trkpt lat="46.55806" lon="5.76406">
        <ele>620.8</ele>
        <time>2021-10-17T06:28:51Z</time>
      </trkpt>
      <trkpt lat="46.55804" lon="5.7641">
        <ele>620.8</ele>
        <time>2021-10-17T06:28:52Z</time>
      </trkpt>
      <trkpt lat="46.55802" lon="5.76414">
        <ele>621.2</ele>
        <time>2021-10-17T06:28:53Z</time>
      </trkpt>
      <trkpt lat="46.558" lon="5.76418">
        <ele>621.6</ele>
        <time>2021-10-17T06:28:54Z</time>
      </trkpt>
      <trkpt lat="46.55797" lon="5.76422">
        <ele>621.6</ele>
        <time>2021-10-17T06:28:55Z</time>
      </trkpt>
      <trkpt lat="46.55795" lon="5.76426">
        <ele>622</ele>
        <time>2021-10-17T06:28:56Z</time>
      </trkpt>
      <trkpt lat="46.55793" lon="5.7643">
        <ele>622</ele>
        <time>2021-10-17T06:28:57Z</time>
      </trkpt>
      <trkpt lat="46.55791" lon="5.76434">
        <ele>622.2</ele>
        <time>2021-10-17T06:28:58Z</time>
      </trkpt>
      <trkpt lat="46.55789" lon="5.76438">
        <ele>622.2</ele>
        <time>2021-10-17T06:28:59Z</time>
      </trkpt>
      <trkpt lat="46.55787" lon="5.76442">
        <ele>622.6</ele>
        <time>2021-10-17T06:29:00Z</time>
      </trkpt>
      <trkpt lat="46.55785" lon="5.76446">
        <ele>623</ele>
        <time>2021-10-17T06:29:01Z</time>
      </trkpt>
      <trkpt lat="46.55783" lon="5.7645">
        <ele>623.2</ele>
        <time>2021-10-17T06:29:02Z</time>
      </trkpt>
      <trkpt lat="46.55781" lon="5.76453">
        <ele>623.2</ele>
        <time>2021-10-17T06:29:03Z</time>
      </trkpt>
      <trkpt lat="46.55779" lon="5.76457">
        <ele>623.6</ele>
        <time>2021-10-17T06:29:04Z</time>
      </trkpt>
      <trkpt lat="46.55777" lon="5.7646">
        <ele>623.8</ele>
        <time>2021-10-17T06:29:05Z</time>
      </trkpt>
      <trkpt lat="46.55775" lon="5.76464">
        <ele>624</ele>
        <time>2021-10-17T06:29:06Z</time>
      </trkpt>
      <trkpt lat="46.55773" lon="5.76468">
        <ele>624</ele>
        <time>2021-10-17T06:29:07Z</time>
      </trkpt>
      <trkpt lat="46.55771" lon="5.76473">
        <ele>624.4</ele>
        <time>2021-10-17T06:29:08Z</time>
      </trkpt>
      <trkpt lat="46.55769" lon="5.76477">
        <ele>624.4</ele>
        <time>2021-10-17T06:29:09Z</time>
      </trkpt>
      <trkpt lat="46.55768" lon="5.76482">
        <ele>624.6</ele>
        <time>2021-10-17T06:29:10Z</time>
      </trkpt>
      <trkpt lat="46.55766" lon="5.76486">
        <ele>624.8</ele>
        <time>2021-10-17T06:29:11Z</time>
      </trkpt>
      <trkpt lat="46.55765" lon="5.7649">
        <ele>625</ele>
        <time>2021-10-17T06:29:12Z</time>
      </trkpt>
      <trkpt lat="46.55763" lon="5.76494">
        <ele>625</ele>
        <time>2021-10-17T06:29:13Z</time>
      </trkpt>
      <trkpt lat="46.55761" lon="5.76499">
        <ele>625.4</ele>
        <time>2021-10-17T06:29:14Z</time>
      </trkpt>
      <trkpt lat="46.5576" lon="5.76503">
        <ele>625.4</ele>
        <time>2021-10-17T06:29:15Z</time>
      </trkpt>
      <trkpt lat="46.55759" lon="5.76507">
        <ele>626</ele>
        <time>2021-10-17T06:29:16Z</time>
      </trkpt>
      <trkpt lat="46.55758" lon="5.76511">
        <ele>626.2</ele>
        <time>2021-10-17T06:29:17Z</time>
      </trkpt>
      <trkpt lat="46.55757" lon="5.76515">
        <ele>626.4</ele>
        <time>2021-10-17T06:29:18Z</time>
      </trkpt>
      <trkpt lat="46.55756" lon="5.7652">
        <ele>626.4</ele>
        <time>2021-10-17T06:29:19Z</time>
      </trkpt>
      <trkpt lat="46.55756" lon="5.76524">
        <ele>626.8</ele>
        <time>2021-10-17T06:29:20Z</time>
      </trkpt>
      <trkpt lat="46.55756" lon="5.76529">
        <ele>627</ele>
        <time>2021-10-17T06:29:21Z</time>
      </trkpt>
      <trkpt lat="46.55755" lon="5.76534">
        <ele>627</ele>
        <time>2021-10-17T06:29:22Z</time>
      </trkpt>
      <trkpt lat="46.55755" lon="5.76539">
        <ele>627.4</ele>
        <time>2021-10-17T06:29:23Z</time>
      </trkpt>
      <trkpt lat="46.55755" lon="5.76543">
        <ele>627.4</ele>
        <time>2021-10-17T06:29:24Z</time>
      </trkpt>
      <trkpt lat="46.55755" lon="5.76548">
        <ele>627.6</ele>
        <time>2021-10-17T06:29:25Z</time>
      </trkpt>
      <trkpt lat="46.55755" lon="5.76553">
        <ele>627.6</ele>
        <time>2021-10-17T06:29:26Z</time>
      </trkpt>
      <trkpt lat="46.55755" lon="5.76557">
        <ele>627.8</ele>
        <time>2021-10-17T06:29:27Z</time>
      </trkpt>
      <trkpt lat="46.55755" lon="5.76562">
        <ele>627.8</ele>
        <time>2021-10-17T06:29:28Z</time>
      </trkpt>
      <trkpt lat="46.55756" lon="5.76566">
        <ele>628</ele>
        <time>2021-10-17T06:29:29Z</time>
      </trkpt>
      <trkpt lat="46.55756" lon="5.7657">
        <ele>628</ele>
        <time>2021-10-17T06:29:30Z</time>
      </trkpt>
      <trkpt lat="46.55757" lon="5.76575">
        <ele>628.4</ele>
        <time>2021-10-17T06:29:31Z</time>
      </trkpt>
      <trkpt lat="46.55758" lon="5.76579">
        <ele>628.4</ele>
        <time>2021-10-17T06:29:32Z</time>
      </trkpt>
      <trkpt lat="46.55759" lon="5.76583">
        <ele>628.8</ele>
        <time>2021-10-17T06:29:33Z</time>
      </trkpt>
      <trkpt lat="46.5576" lon="5.76587">
        <ele>628.8</ele>
        <time>2021-10-17T06:29:34Z</time>
      </trkpt>
      <trkpt lat="46.55762" lon="5.76591">
        <ele>629.2</ele>
        <time>2021-10-17T06:29:35Z</time>
      </trkpt>
      <trkpt lat="46.55763" lon="5.76595">
        <ele>629.2</ele>
        <time>2021-10-17T06:29:36Z</time>
      </trkpt>
      <trkpt lat="46.55764" lon="5.76599">
        <ele>629.6</ele>
        <time>2021-10-17T06:29:37Z</time>
      </trkpt>
      <trkpt lat="46.55766" lon="5.76603">
        <ele>629.8</ele>
        <time>2021-10-17T06:29:38Z</time>
      </trkpt>
      <trkpt lat="46.55767" lon="5.76607">
        <ele>629.8</ele>
        <time>2021-10-17T06:29:39Z</time>
      </trkpt>
      <trkpt lat="46.55768" lon="5.76611">
        <ele>630.2</ele>
        <time>2021-10-17T06:29:40Z</time>
      </trkpt>
      <trkpt lat="46.55769" lon="5.76616">
        <ele>630.2</ele>
        <time>2021-10-17T06:29:41Z</time>
      </trkpt>
      <trkpt lat="46.5577" lon="5.7662">
        <ele>630.4</ele>
        <time>2021-10-17T06:29:42Z</time>
      </trkpt>
      <trkpt lat="46.55772" lon="5.76625">
        <ele>630.6</ele>
        <time>2021-10-17T06:29:43Z</time>
      </trkpt>
      <trkpt lat="46.55773" lon="5.76629">
        <ele>630.8</ele>
        <time>2021-10-17T06:29:44Z</time>
      </trkpt>
      <trkpt lat="46.55774" lon="5.76634">
        <ele>630.8</ele>
        <time>2021-10-17T06:29:45Z</time>
      </trkpt>
      <trkpt lat="46.55776" lon="5.76639">
        <ele>631.2</ele>
        <time>2021-10-17T06:29:46Z</time>
      </trkpt>
      <trkpt lat="46.55776" lon="5.76644">
        <ele>631.2</ele>
        <time>2021-10-17T06:29:47Z</time>
      </trkpt>
      <trkpt lat="46.55777" lon="5.76648">
        <ele>631.4</ele>
        <time>2021-10-17T06:29:48Z</time>
      </trkpt>
      <trkpt lat="46.55778" lon="5.76653">
        <ele>631.6</ele>
        <time>2021-10-17T06:29:49Z</time>
      </trkpt>
      <trkpt lat="46.55779" lon="5.76658">
        <ele>632</ele>
        <time>2021-10-17T06:29:50Z</time>
      </trkpt>
      <trkpt lat="46.5578" lon="5.76662">
        <ele>632</ele>
        <time>2021-10-17T06:29:51Z</time>
      </trkpt>
      <trkpt lat="46.5578" lon="5.76667">
        <ele>632.4</ele>
        <time>2021-10-17T06:29:52Z</time>
      </trkpt>
      <trkpt lat="46.5578" lon="5.76672">
        <ele>632.6</ele>
        <time>2021-10-17T06:29:53Z</time>
      </trkpt>
      <trkpt lat="46.55781" lon="5.76676">
        <ele>632.6</ele>
        <time>2021-10-17T06:29:54Z</time>
      </trkpt>
      <trkpt lat="46.55781" lon="5.76681">
        <ele>633</ele>
        <time>2021-10-17T06:29:55Z</time>
      </trkpt>
      <trkpt lat="46.55781" lon="5.76685">
        <ele>633.2</ele>
        <time>2021-10-17T06:29:56Z</time>
      </trkpt>
      <trkpt lat="46.55781" lon="5.7669">
        <ele>633.2</ele>
        <time>2021-10-17T06:29:57Z</time>
      </trkpt>
      <trkpt lat="46.55781" lon="5.76695">
        <ele>633.6</ele>
        <time>2021-10-17T06:29:58Z</time>
      </trkpt>
      <trkpt lat="46.5578" lon="5.767">
        <ele>633.8</ele>
        <time>2021-10-17T06:29:59Z</time>
      </trkpt>
      <trkpt lat="46.5578" lon="5.76704">
        <ele>634</ele>
        <time>2021-10-17T06:30:00Z</time>
      </trkpt>
      <trkpt lat="46.5578" lon="5.76708">
        <ele>634</ele>
        <time>2021-10-17T06:30:01Z</time>
      </trkpt>
      <trkpt lat="46.55779" lon="5.76712">
        <ele>634.4</ele>
        <time>2021-10-17T06:30:02Z</time>
      </trkpt>
      <trkpt lat="46.55779" lon="5.76716">
        <ele>634.4</ele>
        <time>2021-10-17T06:30:03Z</time>
      </trkpt>
      <trkpt lat="46.55778" lon="5.7672">
        <ele>634.8</ele>
        <time>2021-10-17T06:30:04Z</time>
      </trkpt>
      <trkpt lat="46.55778" lon="5.76723">
        <ele>634.8</ele>
        <time>2021-10-17T06:30:05Z</time>
      </trkpt>
      <trkpt lat="46.55776" lon="5.76727">
        <ele>635</ele>
        <time>2021-10-17T06:30:06Z</time>
      </trkpt>
      <trkpt lat="46.55776" lon="5.76731">
        <ele>635</ele>
        <time>2021-10-17T06:30:07Z</time>
      </trkpt>
      <trkpt lat="46.55775" lon="5.76735">
        <ele>635.4</ele>
        <time>2021-10-17T06:30:08Z</time>
      </trkpt>
      <trkpt lat="46.55775" lon="5.76739">
        <ele>635.4</ele>
        <time>2021-10-17T06:30:09Z</time>
      </trkpt>
      <trkpt lat="46.55774" lon="5.76743">
        <ele>635.6</ele>
        <time>2021-10-17T06:30:10Z</time>
      </trkpt>
      <trkpt lat="46.55774" lon="5.76747">
        <ele>635.6</ele>
        <time>2021-10-17T06:30:11Z</time>
      </trkpt>
      <trkpt lat="46.55773" lon="5.76752">
        <ele>636</ele>
        <time>2021-10-17T06:30:12Z</time>
      </trkpt>
      <trkpt lat="46.55773" lon="5.76756">
        <ele>636</ele>
        <time>2021-10-17T06:30:13Z</time>
      </trkpt>
      <trkpt lat="46.55772" lon="5.7676">
        <ele>636.4</ele>
        <time>2021-10-17T06:30:14Z</time>
      </trkpt>
      <trkpt lat="46.55771" lon="5.76765">
        <ele>636.6</ele>
        <time>2021-10-17T06:30:15Z</time>
      </trkpt>
      <trkpt lat="46.55771" lon="5.7677">
        <ele>636.6</ele>
        <time>2021-10-17T06:30:16Z</time>
      </trkpt>
      <trkpt lat="46.5577" lon="5.76774">
        <ele>637</ele>
        <time>2021-10-17T06:30:17Z</time>
      </trkpt>
      <trkpt lat="46.5577" lon="5.76779">
        <ele>637.2</ele>
        <time>2021-10-17T06:30:18Z</time>
      </trkpt>
      <trkpt lat="46.5577" lon="5.76783">
        <ele>637.4</ele>
        <time>2021-10-17T06:30:19Z</time>
      </trkpt>
      <trkpt lat="46.55769" lon="5.76788">
        <ele>637.6</ele>
        <time>2021-10-17T06:30:20Z</time>
      </trkpt>
      <trkpt lat="46.55769" lon="5.76793">
        <ele>638</ele>
        <time>2021-10-17T06:30:21Z</time>
      </trkpt>
      <trkpt lat="46.55769" lon="5.76798">
        <ele>638.2</ele>
        <time>2021-10-17T06:30:22Z</time>
      </trkpt>
      <trkpt lat="46.55769" lon="5.76802">
        <ele>638.4</ele>
        <time>2021-10-17T06:30:23Z</time>
      </trkpt>
      <trkpt lat="46.55769" lon="5.76807">
        <ele>638.8</ele>
        <time>2021-10-17T06:30:24Z</time>
      </trkpt>
      <trkpt lat="46.55769" lon="5.76812">
        <ele>639</ele>
        <time>2021-10-17T06:30:25Z</time>
      </trkpt>
      <trkpt lat="46.55769" lon="5.76817">
        <ele>639</ele>
        <time>2021-10-17T06:30:26Z</time>
      </trkpt>
      <trkpt lat="46.55769" lon="5.76821">
        <ele>639.2</ele>
        <time>2021-10-17T06:30:27Z</time>
      </trkpt>
      <trkpt lat="46.55769" lon="5.76826">
        <ele>639.2</ele>
        <time>2021-10-17T06:30:28Z</time>
      </trkpt>
      <trkpt lat="46.55769" lon="5.76832">
        <ele>639.4</ele>
        <time>2021-10-17T06:30:29Z</time>
      </trkpt>
      <trkpt lat="46.55769" lon="5.76837">
        <ele>639.4</ele>
        <time>2021-10-17T06:30:30Z</time>
      </trkpt>
      <trkpt lat="46.55769" lon="5.76842">
        <ele>639.8</ele>
        <time>2021-10-17T06:30:31Z</time>
      </trkpt>
      <trkpt lat="46.55769" lon="5.76847">
        <ele>640</ele>
        <time>2021-10-17T06:30:32Z</time>
      </trkpt>
      <trkpt lat="46.55769" lon="5.76853">
        <ele>640.2</ele>
        <time>2021-10-17T06:30:33Z</time>
      </trkpt>
      <trkpt lat="46.55768" lon="5.76858">
        <ele>640.2</ele>
        <time>2021-10-17T06:30:34Z</time>
      </trkpt>
      <trkpt lat="46.55767" lon="5.76864">
        <ele>640.6</ele>
        <time>2021-10-17T06:30:35Z</time>
      </trkpt>
      <trkpt lat="46.55766" lon="5.7687">
        <ele>640.6</ele>
        <time>2021-10-17T06:30:36Z</time>
      </trkpt>
      <trkpt lat="46.55766" lon="5.76875">
        <ele>640.8</ele>
        <time>2021-10-17T06:30:37Z</time>
      </trkpt>
      <trkpt lat="46.55765" lon="5.76881">
        <ele>641.2</ele>
        <time>2021-10-17T06:30:38Z</time>
      </trkpt>
      <trkpt lat="46.55765" lon="5.76886">
        <ele>641.4</ele>
        <time>2021-10-17T06:30:39Z</time>
      </trkpt>
      <trkpt lat="46.55764" lon="5.76891">
        <ele>641.6</ele>
        <time>2021-10-17T06:30:40Z</time>
      </trkpt>
      <trkpt lat="46.55763" lon="5.76897">
        <ele>641.8</ele>
        <time>2021-10-17T06:30:41Z</time>
      </trkpt>
      <trkpt lat="46.55762" lon="5.76903">
        <ele>642</ele>
        <time>2021-10-17T06:30:42Z</time>
      </trkpt>
      <trkpt lat="46.55761" lon="5.76907">
        <ele>642.2</ele>
        <time>2021-10-17T06:30:43Z</time>
      </trkpt>
      <trkpt lat="46.5576" lon="5.76912">
        <ele>642.2</ele>
        <time>2021-10-17T06:30:44Z</time>
      </trkpt>
      <trkpt lat="46.5576" lon="5.76917">
        <ele>642.4</ele>
        <time>2021-10-17T06:30:45Z</time>
      </trkpt>
      <trkpt lat="46.55759" lon="5.76922">
        <ele>642.4</ele>
        <time>2021-10-17T06:30:46Z</time>
      </trkpt>
      <trkpt lat="46.55759" lon="5.76927">
        <ele>642.8</ele>
        <time>2021-10-17T06:30:47Z</time>
      </trkpt>
      <trkpt lat="46.55758" lon="5.76933">
        <ele>643</ele>
        <time>2021-10-17T06:30:48Z</time>
      </trkpt>
      <trkpt lat="46.55758" lon="5.76938">
        <ele>643</ele>
        <time>2021-10-17T06:30:49Z</time>
      </trkpt>
      <trkpt lat="46.55758" lon="5.76943">
        <ele>643.4</ele>
        <time>2021-10-17T06:30:50Z</time>
      </trkpt>
      <trkpt lat="46.55758" lon="5.76948">
        <ele>643.6</ele>
        <time>2021-10-17T06:30:51Z</time>
      </trkpt>
      <trkpt lat="46.55758" lon="5.76952">
        <ele>643.6</ele>
        <time>2021-10-17T06:30:52Z</time>
      </trkpt>
      <trkpt lat="46.55758" lon="5.76962">
        <ele>643.8</ele>
        <time>2021-10-17T06:30:53Z</time>
      </trkpt>
      <trkpt lat="46.55758" lon="5.76967">
        <ele>644.2</ele>
        <time>2021-10-17T06:30:54Z</time>
      </trkpt>
      <trkpt lat="46.55758" lon="5.76975">
        <ele>644.2</ele>
        <time>2021-10-17T06:30:55Z</time>
      </trkpt>
      <trkpt lat="46.55758" lon="5.76978">
        <ele>644.4</ele>
        <time>2021-10-17T06:30:56Z</time>
      </trkpt>
      <trkpt lat="46.55758" lon="5.76983">
        <ele>644.4</ele>
        <time>2021-10-17T06:30:57Z</time>
      </trkpt>
      <trkpt lat="46.55759" lon="5.76988">
        <ele>644.8</ele>
        <time>2021-10-17T06:30:58Z</time>
      </trkpt>
      <trkpt lat="46.55759" lon="5.76993">
        <ele>645</ele>
        <time>2021-10-17T06:30:59Z</time>
      </trkpt>
      <trkpt lat="46.55759" lon="5.76998">
        <ele>645</ele>
        <time>2021-10-17T06:31:00Z</time>
      </trkpt>
      <trkpt lat="46.55759" lon="5.77003">
        <ele>645.4</ele>
        <time>2021-10-17T06:31:01Z</time>
      </trkpt>
      <trkpt lat="46.55759" lon="5.77007">
        <ele>645.4</ele>
        <time>2021-10-17T06:31:02Z</time>
      </trkpt>
      <trkpt lat="46.55759" lon="5.77011">
        <ele>645.8</ele>
        <time>2021-10-17T06:31:03Z</time>
      </trkpt>
      <trkpt lat="46.55758" lon="5.77016">
        <ele>646</ele>
        <time>2021-10-17T06:31:04Z</time>
      </trkpt>
      <trkpt lat="46.55758" lon="5.77021">
        <ele>646.2</ele>
        <time>2021-10-17T06:31:05Z</time>
      </trkpt>
      <trkpt lat="46.55757" lon="5.77026">
        <ele>646.6</ele>
        <time>2021-10-17T06:31:06Z</time>
      </trkpt>
      <trkpt lat="46.55757" lon="5.77031">
        <ele>646.6</ele>
        <time>2021-10-17T06:31:07Z</time>
      </trkpt>
      <trkpt lat="46.55756" lon="5.77035">
        <ele>646.8</ele>
        <time>2021-10-17T06:31:08Z</time>
      </trkpt>
      <trkpt lat="46.55754" lon="5.7704">
        <ele>646.8</ele>
        <time>2021-10-17T06:31:09Z</time>
      </trkpt>
      <trkpt lat="46.55753" lon="5.77045">
        <ele>647.2</ele>
        <time>2021-10-17T06:31:10Z</time>
      </trkpt>
      <trkpt lat="46.55751" lon="5.7705">
        <ele>647.2</ele>
        <time>2021-10-17T06:31:11Z</time>
      </trkpt>
      <trkpt lat="46.5575" lon="5.77055">
        <ele>647.4</ele>
        <time>2021-10-17T06:31:12Z</time>
      </trkpt>
      <trkpt lat="46.55749" lon="5.77059">
        <ele>647.8</ele>
        <time>2021-10-17T06:31:13Z</time>
      </trkpt>
      <trkpt lat="46.55748" lon="5.77063">
        <ele>647.8</ele>
        <time>2021-10-17T06:31:14Z</time>
      </trkpt>
      <trkpt lat="46.55747" lon="5.77068">
        <ele>648</ele>
        <time>2021-10-17T06:31:15Z</time>
      </trkpt>
      <trkpt lat="46.55745" lon="5.77072">
        <ele>648</ele>
        <time>2021-10-17T06:31:16Z</time>
      </trkpt>
      <trkpt lat="46.55743" lon="5.77076">
        <ele>648.4</ele>
        <time>2021-10-17T06:31:17Z</time>
      </trkpt>
      <trkpt lat="46.55741" lon="5.77083">
        <ele>648.6</ele>
        <time>2021-10-17T06:31:18Z</time>
      </trkpt>
      <trkpt lat="46.5574" lon="5.77085">
        <ele>648.8</ele>
        <time>2021-10-17T06:31:19Z</time>
      </trkpt>
      <trkpt lat="46.55739" lon="5.7709">
        <ele>649</ele>
        <time>2021-10-17T06:31:20Z</time>
      </trkpt>
      <trkpt lat="46.55737" lon="5.77094">
        <ele>649</ele>
        <time>2021-10-17T06:31:21Z</time>
      </trkpt>
      <trkpt lat="46.55736" lon="5.77099">
        <ele>649.4</ele>
        <time>2021-10-17T06:31:22Z</time>
      </trkpt>
      <trkpt lat="46.55734" lon="5.77103">
        <ele>649.4</ele>
        <time>2021-10-17T06:31:23Z</time>
      </trkpt>
      <trkpt lat="46.55733" lon="5.77107">
        <ele>649.8</ele>
        <time>2021-10-17T06:31:24Z</time>
      </trkpt>
      <trkpt lat="46.55731" lon="5.77111">
        <ele>649.8</ele>
        <time>2021-10-17T06:31:25Z</time>
      </trkpt>
      <trkpt lat="46.5573" lon="5.77115">
        <ele>650</ele>
        <time>2021-10-17T06:31:26Z</time>
      </trkpt>
      <trkpt lat="46.55728" lon="5.77122">
        <ele>650</ele>
        <time>2021-10-17T06:31:27Z</time>
      </trkpt>
      <trkpt lat="46.55727" lon="5.77124">
        <ele>650.4</ele>
        <time>2021-10-17T06:31:28Z</time>
      </trkpt>
      <trkpt lat="46.55726" lon="5.77128">
        <ele>650.4</ele>
        <time>2021-10-17T06:31:29Z</time>
      </trkpt>
      <trkpt lat="46.55724" lon="5.77133">
        <ele>650.8</ele>
        <time>2021-10-17T06:31:30Z</time>
      </trkpt>
      <trkpt lat="46.55723" lon="5.77137">
        <ele>650.8</ele>
        <time>2021-10-17T06:31:31Z</time>
      </trkpt>
      <trkpt lat="46.55721" lon="5.77141">
        <ele>651</ele>
        <time>2021-10-17T06:31:32Z</time>
      </trkpt>
      <trkpt lat="46.55719" lon="5.77145">
        <ele>651</ele>
        <time>2021-10-17T06:31:33Z</time>
      </trkpt>
      <trkpt lat="46.55718" lon="5.77149">
        <ele>651.4</ele>
        <time>2021-10-17T06:31:34Z</time>
      </trkpt>
      <trkpt lat="46.55716" lon="5.77154">
        <ele>651.4</ele>
        <time>2021-10-17T06:31:35Z</time>
      </trkpt>
      <trkpt lat="46.55715" lon="5.77158">
        <ele>651.8</ele>
        <time>2021-10-17T06:31:36Z</time>
      </trkpt>
      <trkpt lat="46.55714" lon="5.77163">
        <ele>651.8</ele>
        <time>2021-10-17T06:31:37Z</time>
      </trkpt>
      <trkpt lat="46.55713" lon="5.77167">
        <ele>652</ele>
        <time>2021-10-17T06:31:38Z</time>
      </trkpt>
      <trkpt lat="46.55712" lon="5.77172">
        <ele>652</ele>
        <time>2021-10-17T06:31:39Z</time>
      </trkpt>
      <trkpt lat="46.5571" lon="5.77177">
        <ele>652.4</ele>
        <time>2021-10-17T06:31:40Z</time>
      </trkpt>
      <trkpt lat="46.55709" lon="5.77181">
        <ele>652.4</ele>
        <time>2021-10-17T06:31:41Z</time>
      </trkpt>
      <trkpt lat="46.55707" lon="5.77186">
        <ele>652.8</ele>
        <time>2021-10-17T06:31:42Z</time>
      </trkpt>
      <trkpt lat="46.55705" lon="5.77191">
        <ele>653</ele>
        <time>2021-10-17T06:31:43Z</time>
      </trkpt>
      <trkpt lat="46.55704" lon="5.77196">
        <ele>653.2</ele>
        <time>2021-10-17T06:31:44Z</time>
      </trkpt>
      <trkpt lat="46.55702" lon="5.77201">
        <ele>653.6</ele>
        <time>2021-10-17T06:31:45Z</time>
      </trkpt>
      <trkpt lat="46.55701" lon="5.77206">
        <ele>653.8</ele>
        <time>2021-10-17T06:31:46Z</time>
      </trkpt>
      <trkpt lat="46.557" lon="5.7721">
        <ele>653.8</ele>
        <time>2021-10-17T06:31:47Z</time>
      </trkpt>
      <trkpt lat="46.55698" lon="5.77215">
        <ele>654.2</ele>
        <time>2021-10-17T06:31:48Z</time>
      </trkpt>
      <trkpt lat="46.55697" lon="5.7722">
        <ele>654.4</ele>
        <time>2021-10-17T06:31:49Z</time>
      </trkpt>
      <trkpt lat="46.55695" lon="5.77225">
        <ele>654.4</ele>
        <time>2021-10-17T06:31:50Z</time>
      </trkpt>
      <trkpt lat="46.55694" lon="5.7723">
        <ele>654.8</ele>
        <time>2021-10-17T06:31:51Z</time>
      </trkpt>
      <trkpt lat="46.55693" lon="5.77234">
        <ele>654.8</ele>
        <time>2021-10-17T06:31:52Z</time>
      </trkpt>
      <trkpt lat="46.55691" lon="5.77239">
        <ele>655</ele>
        <time>2021-10-17T06:31:53Z</time>
      </trkpt>
      <trkpt lat="46.5569" lon="5.77243">
        <ele>655.2</ele>
        <time>2021-10-17T06:31:54Z</time>
      </trkpt>
      <trkpt lat="46.55688" lon="5.77248">
        <ele>655.6</ele>
        <time>2021-10-17T06:31:55Z</time>
      </trkpt>
      <trkpt lat="46.55687" lon="5.77252">
        <ele>655.8</ele>
        <time>2021-10-17T06:31:56Z</time>
      </trkpt>
      <trkpt lat="46.55685" lon="5.77256">
        <ele>656</ele>
        <time>2021-10-17T06:31:57Z</time>
      </trkpt>
      <trkpt lat="46.55684" lon="5.7726">
        <ele>656.2</ele>
        <time>2021-10-17T06:31:58Z</time>
      </trkpt>
      <trkpt lat="46.55682" lon="5.77265">
        <ele>656.2</ele>
        <time>2021-10-17T06:31:59Z</time>
      </trkpt>
      <trkpt lat="46.55681" lon="5.77269">
        <ele>656.6</ele>
        <time>2021-10-17T06:32:00Z</time>
      </trkpt>
      <trkpt lat="46.55679" lon="5.77273">
        <ele>656.6</ele>
        <time>2021-10-17T06:32:01Z</time>
      </trkpt>
      <trkpt lat="46.55677" lon="5.77278">
        <ele>656.8</ele>
        <time>2021-10-17T06:32:02Z</time>
      </trkpt>
      <trkpt lat="46.55676" lon="5.77282">
        <ele>656.8</ele>
        <time>2021-10-17T06:32:04Z</time>
      </trkpt>
      <trkpt lat="46.55675" lon="5.77286">
        <ele>657.2</ele>
        <time>2021-10-17T06:32:05Z</time>
      </trkpt>
      <trkpt lat="46.55673" lon="5.7729">
        <ele>657.4</ele>
        <time>2021-10-17T06:32:06Z</time>
      </trkpt>
      <trkpt lat="46.55672" lon="5.77294">
        <ele>657.6</ele>
        <time>2021-10-17T06:32:07Z</time>
      </trkpt>
      <trkpt lat="46.5567" lon="5.77298">
        <ele>657.8</ele>
        <time>2021-10-17T06:32:08Z</time>
      </trkpt>
      <trkpt lat="46.55669" lon="5.77302">
        <ele>658</ele>
        <time>2021-10-17T06:32:09Z</time>
      </trkpt>
      <trkpt lat="46.55668" lon="5.77306">
        <ele>658</ele>
        <time>2021-10-17T06:32:10Z</time>
      </trkpt>
      <trkpt lat="46.55666" lon="5.7731">
        <ele>658.4</ele>
        <time>2021-10-17T06:32:11Z</time>
      </trkpt>
      <trkpt lat="46.55664" lon="5.77314">
        <ele>658.4</ele>
        <time>2021-10-17T06:32:12Z</time>
      </trkpt>
      <trkpt lat="46.55662" lon="5.77318">
        <ele>658.6</ele>
        <time>2021-10-17T06:32:13Z</time>
      </trkpt>
      <trkpt lat="46.5566" lon="5.77322">
        <ele>658.8</ele>
        <time>2021-10-17T06:32:14Z</time>
      </trkpt>
      <trkpt lat="46.55658" lon="5.77326">
        <ele>658.8</ele>
        <time>2021-10-17T06:32:15Z</time>
      </trkpt>
      <trkpt lat="46.55655" lon="5.7733">
        <ele>659.2</ele>
        <time>2021-10-17T06:32:16Z</time>
      </trkpt>
      <trkpt lat="46.55652" lon="5.77333">
        <ele>659.2</ele>
        <time>2021-10-17T06:32:17Z</time>
      </trkpt>
      <trkpt lat="46.5565" lon="5.77337">
        <ele>659.4</ele>
        <time>2021-10-17T06:32:18Z</time>
      </trkpt>
      <trkpt lat="46.55646" lon="5.7734">
        <ele>659.4</ele>
        <time>2021-10-17T06:32:19Z</time>
      </trkpt>
      <trkpt lat="46.55643" lon="5.77344">
        <ele>659.8</ele>
        <time>2021-10-17T06:32:20Z</time>
      </trkpt>
      <trkpt lat="46.5564" lon="5.77347">
        <ele>659.8</ele>
        <time>2021-10-17T06:32:21Z</time>
      </trkpt>
      <trkpt lat="46.55637" lon="5.77349">
        <ele>660</ele>
        <time>2021-10-17T06:32:22Z</time>
      </trkpt>
      <trkpt lat="46.55634" lon="5.77351">
        <ele>660.2</ele>
        <time>2021-10-17T06:32:23Z</time>
      </trkpt>
      <trkpt lat="46.55631" lon="5.77354">
        <ele>660.2</ele>
        <time>2021-10-17T06:32:24Z</time>
      </trkpt>
      <trkpt lat="46.55627" lon="5.77356">
        <ele>660.8</ele>
        <time>2021-10-17T06:32:25Z</time>
      </trkpt>
      <trkpt lat="46.55624" lon="5.77359">
        <ele>660.8</ele>
        <time>2021-10-17T06:32:26Z</time>
      </trkpt>
      <trkpt lat="46.55621" lon="5.77361">
        <ele>661</ele>
        <time>2021-10-17T06:32:27Z</time>
      </trkpt>
      <trkpt lat="46.55618" lon="5.77363">
        <ele>661</ele>
        <time>2021-10-17T06:32:28Z</time>
      </trkpt>
      <trkpt lat="46.55615" lon="5.77366">
        <ele>661.4</ele>
        <time>2021-10-17T06:32:29Z</time>
      </trkpt>
      <trkpt lat="46.55611" lon="5.77368">
        <ele>661.4</ele>
        <time>2021-10-17T06:32:30Z</time>
      </trkpt>
      <trkpt lat="46.55608" lon="5.7737">
        <ele>661.6</ele>
        <time>2021-10-17T06:32:31Z</time>
      </trkpt>
      <trkpt lat="46.55606" lon="5.77373">
        <ele>661.6</ele>
        <time>2021-10-17T06:32:32Z</time>
      </trkpt>
      <trkpt lat="46.55603" lon="5.77375">
        <ele>662</ele>
        <time>2021-10-17T06:32:33Z</time>
      </trkpt>
      <trkpt lat="46.556" lon="5.77378">
        <ele>662</ele>
        <time>2021-10-17T06:32:34Z</time>
      </trkpt>
      <trkpt lat="46.55597" lon="5.77381">
        <ele>662.2</ele>
        <time>2021-10-17T06:32:35Z</time>
      </trkpt>
      <trkpt lat="46.55594" lon="5.77384">
        <ele>662.2</ele>
        <time>2021-10-17T06:32:36Z</time>
      </trkpt>
      <trkpt lat="46.55592" lon="5.77388">
        <ele>662.6</ele>
        <time>2021-10-17T06:32:37Z</time>
      </trkpt>
      <trkpt lat="46.55589" lon="5.77391">
        <ele>662.6</ele>
        <time>2021-10-17T06:32:38Z</time>
      </trkpt>
      <trkpt lat="46.55587" lon="5.77395">
        <ele>662.8</ele>
        <time>2021-10-17T06:32:39Z</time>
      </trkpt>
      <trkpt lat="46.55585" lon="5.77399">
        <ele>662.8</ele>
        <time>2021-10-17T06:32:40Z</time>
      </trkpt>
      <trkpt lat="46.55583" lon="5.77403">
        <ele>663.2</ele>
        <time>2021-10-17T06:32:41Z</time>
      </trkpt>
      <trkpt lat="46.55582" lon="5.77407">
        <ele>663.2</ele>
        <time>2021-10-17T06:32:42Z</time>
      </trkpt>
      <trkpt lat="46.5558" lon="5.77411">
        <ele>663.4</ele>
        <time>2021-10-17T06:32:43Z</time>
      </trkpt>
      <trkpt lat="46.55578" lon="5.77415">
        <ele>663.4</ele>
        <time>2021-10-17T06:32:44Z</time>
      </trkpt>
      <trkpt lat="46.55576" lon="5.77419">
        <ele>663.6</ele>
        <time>2021-10-17T06:32:45Z</time>
      </trkpt>
      <trkpt lat="46.55575" lon="5.77423">
        <ele>663.6</ele>
        <time>2021-10-17T06:32:46Z</time>
      </trkpt>
      <trkpt lat="46.55573" lon="5.77428">
        <ele>664</ele>
        <time>2021-10-17T06:32:47Z</time>
      </trkpt>
      <trkpt lat="46.55572" lon="5.77432">
        <ele>664.2</ele>
        <time>2021-10-17T06:32:48Z</time>
      </trkpt>
      <trkpt lat="46.5557" lon="5.77436">
        <ele>664.2</ele>
        <time>2021-10-17T06:32:49Z</time>
      </trkpt>
      <trkpt lat="46.55569" lon="5.77441">
        <ele>664.6</ele>
        <time>2021-10-17T06:32:50Z</time>
      </trkpt>
      <trkpt lat="46.55568" lon="5.77446">
        <ele>664.6</ele>
        <time>2021-10-17T06:32:51Z</time>
      </trkpt>
      <trkpt lat="46.55567" lon="5.77451">
        <ele>665</ele>
        <time>2021-10-17T06:32:52Z</time>
      </trkpt>
      <trkpt lat="46.55566" lon="5.77456">
        <ele>665</ele>
        <time>2021-10-17T06:32:53Z</time>
      </trkpt>
      <trkpt lat="46.55565" lon="5.7746">
        <ele>665.2</ele>
        <time>2021-10-17T06:32:54Z</time>
      </trkpt>
      <trkpt lat="46.55564" lon="5.77465">
        <ele>665.2</ele>
        <time>2021-10-17T06:32:55Z</time>
      </trkpt>
      <trkpt lat="46.55562" lon="5.77469">
        <ele>665.6</ele>
        <time>2021-10-17T06:32:56Z</time>
      </trkpt>
      <trkpt lat="46.55561" lon="5.77473">
        <ele>665.8</ele>
        <time>2021-10-17T06:32:57Z</time>
      </trkpt>
      <trkpt lat="46.55559" lon="5.77477">
        <ele>665.8</ele>
        <time>2021-10-17T06:32:58Z</time>
      </trkpt>
      <trkpt lat="46.55557" lon="5.77481">
        <ele>666</ele>
        <time>2021-10-17T06:32:59Z</time>
      </trkpt>
      <trkpt lat="46.55555" lon="5.77485">
        <ele>666</ele>
        <time>2021-10-17T06:33:00Z</time>
      </trkpt>
      <trkpt lat="46.55553" lon="5.77489">
        <ele>666.2</ele>
        <time>2021-10-17T06:33:01Z</time>
      </trkpt>
      <trkpt lat="46.55552" lon="5.77493">
        <ele>666.2</ele>
        <time>2021-10-17T06:33:02Z</time>
      </trkpt>
      <trkpt lat="46.5555" lon="5.77497">
        <ele>666.6</ele>
        <time>2021-10-17T06:33:03Z</time>
      </trkpt>
      <trkpt lat="46.55549" lon="5.77501">
        <ele>666.6</ele>
        <time>2021-10-17T06:33:04Z</time>
      </trkpt>
      <trkpt lat="46.55547" lon="5.77505">
        <ele>667</ele>
        <time>2021-10-17T06:33:05Z</time>
      </trkpt>
      <trkpt lat="46.55545" lon="5.77508">
        <ele>667</ele>
        <time>2021-10-17T06:33:06Z</time>
      </trkpt>
      <trkpt lat="46.55543" lon="5.77511">
        <ele>667.2</ele>
        <time>2021-10-17T06:33:07Z</time>
      </trkpt>
      <trkpt lat="46.55541" lon="5.77515">
        <ele>667.2</ele>
        <time>2021-10-17T06:33:08Z</time>
      </trkpt>
      <trkpt lat="46.55539" lon="5.77519">
        <ele>667.6</ele>
        <time>2021-10-17T06:33:09Z</time>
      </trkpt>
      <trkpt lat="46.55536" lon="5.77522">
        <ele>667.6</ele>
        <time>2021-10-17T06:33:10Z</time>
      </trkpt>
      <trkpt lat="46.55534" lon="5.77526">
        <ele>667.8</ele>
        <time>2021-10-17T06:33:11Z</time>
      </trkpt>
      <trkpt lat="46.55531" lon="5.77529">
        <ele>667.8</ele>
        <time>2021-10-17T06:33:12Z</time>
      </trkpt>
      <trkpt lat="46.55529" lon="5.77533">
        <ele>668.2</ele>
        <time>2021-10-17T06:33:13Z</time>
      </trkpt>
      <trkpt lat="46.55526" lon="5.77536">
        <ele>668.2</ele>
        <time>2021-10-17T06:33:14Z</time>
      </trkpt>
      <trkpt lat="46.55524" lon="5.77539">
        <ele>668.4</ele>
        <time>2021-10-17T06:33:15Z</time>
      </trkpt>
      <trkpt lat="46.55521" lon="5.77543">
        <ele>668.4</ele>
        <time>2021-10-17T06:33:16Z</time>
      </trkpt>
      <trkpt lat="46.55519" lon="5.77547">
        <ele>668.8</ele>
        <time>2021-10-17T06:33:17Z</time>
      </trkpt>
      <trkpt lat="46.55517" lon="5.77551">
        <ele>668.8</ele>
        <time>2021-10-17T06:33:18Z</time>
      </trkpt>
      <trkpt lat="46.55515" lon="5.77555">
        <ele>669</ele>
        <time>2021-10-17T06:33:19Z</time>
      </trkpt>
      <trkpt lat="46.55513" lon="5.77559">
        <ele>669</ele>
        <time>2021-10-17T06:33:20Z</time>
      </trkpt>
      <trkpt lat="46.55511" lon="5.77564">
        <ele>669.4</ele>
        <time>2021-10-17T06:33:21Z</time>
      </trkpt>
      <trkpt lat="46.55509" lon="5.77568">
        <ele>669.4</ele>
        <time>2021-10-17T06:33:22Z</time>
      </trkpt>
      <trkpt lat="46.55507" lon="5.77572">
        <ele>669.6</ele>
        <time>2021-10-17T06:33:23Z</time>
      </trkpt>
      <trkpt lat="46.55505" lon="5.77576">
        <ele>669.6</ele>
        <time>2021-10-17T06:33:24Z</time>
      </trkpt>
      <trkpt lat="46.55503" lon="5.7758">
        <ele>670</ele>
        <time>2021-10-17T06:33:25Z</time>
      </trkpt>
      <trkpt lat="46.55501" lon="5.77584">
        <ele>670</ele>
        <time>2021-10-17T06:33:26Z</time>
      </trkpt>
      <trkpt lat="46.55499" lon="5.77588">
        <ele>670.4</ele>
        <time>2021-10-17T06:33:27Z</time>
      </trkpt>
      <trkpt lat="46.55497" lon="5.77593">
        <ele>670.4</ele>
        <time>2021-10-17T06:33:28Z</time>
      </trkpt>
      <trkpt lat="46.55496" lon="5.77597">
        <ele>670.6</ele>
        <time>2021-10-17T06:33:29Z</time>
      </trkpt>
      <trkpt lat="46.55495" lon="5.77601">
        <ele>670.6</ele>
        <time>2021-10-17T06:33:30Z</time>
      </trkpt>
      <trkpt lat="46.55493" lon="5.77605">
        <ele>670.8</ele>
        <time>2021-10-17T06:33:31Z</time>
      </trkpt>
      <trkpt lat="46.55491" lon="5.77609">
        <ele>670.8</ele>
        <time>2021-10-17T06:33:32Z</time>
      </trkpt>
      <trkpt lat="46.55488" lon="5.77613">
        <ele>671.2</ele>
        <time>2021-10-17T06:33:33Z</time>
      </trkpt>
      <trkpt lat="46.55486" lon="5.77618">
        <ele>671.2</ele>
        <time>2021-10-17T06:33:34Z</time>
      </trkpt>
      <trkpt lat="46.55484" lon="5.77622">
        <ele>671.4</ele>
        <time>2021-10-17T06:33:35Z</time>
      </trkpt>
      <trkpt lat="46.55482" lon="5.77626">
        <ele>671.4</ele>
        <time>2021-10-17T06:33:36Z</time>
      </trkpt>
      <trkpt lat="46.5548" lon="5.7763">
        <ele>671.4</ele>
        <time>2021-10-17T06:33:37Z</time>
      </trkpt>
      <trkpt lat="46.55478" lon="5.77634">
        <ele>671.6</ele>
        <time>2021-10-17T06:33:38Z</time>
      </trkpt>
      <trkpt lat="46.55476" lon="5.77638">
        <ele>672</ele>
        <time>2021-10-17T06:33:39Z</time>
      </trkpt>
      <trkpt lat="46.55474" lon="5.77642">
        <ele>672</ele>
        <time>2021-10-17T06:33:40Z</time>
      </trkpt>
      <trkpt lat="46.55471" lon="5.77646">
        <ele>672.2</ele>
        <time>2021-10-17T06:33:41Z</time>
      </trkpt>
      <trkpt lat="46.55469" lon="5.7765">
        <ele>672.2</ele>
        <time>2021-10-17T06:33:42Z</time>
      </trkpt>
      <trkpt lat="46.55466" lon="5.77653">
        <ele>672.6</ele>
        <time>2021-10-17T06:33:43Z</time>
      </trkpt>
      <trkpt lat="46.55464" lon="5.77657">
        <ele>672.6</ele>
        <time>2021-10-17T06:33:44Z</time>
      </trkpt>
      <trkpt lat="46.55461" lon="5.7766">
        <ele>673</ele>
        <time>2021-10-17T06:33:45Z</time>
      </trkpt>
      <trkpt lat="46.55458" lon="5.77663">
        <ele>673.2</ele>
        <time>2021-10-17T06:33:46Z</time>
      </trkpt>
      <trkpt lat="46.55455" lon="5.77666">
        <ele>673.2</ele>
        <time>2021-10-17T06:33:47Z</time>
      </trkpt>
      <trkpt lat="46.55452" lon="5.77669">
        <ele>673.4</ele>
        <time>2021-10-17T06:33:48Z</time>
      </trkpt>
      <trkpt lat="46.55448" lon="5.77672">
        <ele>673.6</ele>
        <time>2021-10-17T06:33:49Z</time>
      </trkpt>
      <trkpt lat="46.55445" lon="5.77674">
        <ele>673.6</ele>
        <time>2021-10-17T06:33:50Z</time>
      </trkpt>
      <trkpt lat="46.55442" lon="5.77676">
        <ele>673.8</ele>
        <time>2021-10-17T06:33:51Z</time>
      </trkpt>
      <trkpt lat="46.55438" lon="5.77677">
        <ele>674</ele>
        <time>2021-10-17T06:33:52Z</time>
      </trkpt>
      <trkpt lat="46.55435" lon="5.77678">
        <ele>674</ele>
        <time>2021-10-17T06:33:53Z</time>
      </trkpt>
      <trkpt lat="46.55432" lon="5.7768">
        <ele>674.4</ele>
        <time>2021-10-17T06:33:54Z</time>
      </trkpt>
      <trkpt lat="46.55429" lon="5.77681">
        <ele>674.4</ele>
        <time>2021-10-17T06:33:55Z</time>
      </trkpt>
      <trkpt lat="46.55425" lon="5.77682">
        <ele>674.8</ele>
        <time>2021-10-17T06:33:56Z</time>
      </trkpt>
      <trkpt lat="46.55422" lon="5.77683">
        <ele>675</ele>
        <time>2021-10-17T06:33:57Z</time>
      </trkpt>
      <trkpt lat="46.55418" lon="5.77684">
        <ele>675</ele>
        <time>2021-10-17T06:33:58Z</time>
      </trkpt>
      <trkpt lat="46.55415" lon="5.77685">
        <ele>675.4</ele>
        <time>2021-10-17T06:33:59Z</time>
      </trkpt>
      <trkpt lat="46.55411" lon="5.77686">
        <ele>675.4</ele>
        <time>2021-10-17T06:34:00Z</time>
      </trkpt>
      <trkpt lat="46.55408" lon="5.77688">
        <ele>675.8</ele>
        <time>2021-10-17T06:34:01Z</time>
      </trkpt>
      <trkpt lat="46.55404" lon="5.77689">
        <ele>676</ele>
        <time>2021-10-17T06:34:02Z</time>
      </trkpt>
      <trkpt lat="46.55401" lon="5.77691">
        <ele>676</ele>
        <time>2021-10-17T06:34:03Z</time>
      </trkpt>
      <trkpt lat="46.55398" lon="5.77693">
        <ele>676.4</ele>
        <time>2021-10-17T06:34:04Z</time>
      </trkpt>
      <trkpt lat="46.55394" lon="5.77696">
        <ele>676.6</ele>
        <time>2021-10-17T06:34:05Z</time>
      </trkpt>
      <trkpt lat="46.55391" lon="5.77698">
        <ele>676.8</ele>
        <time>2021-10-17T06:34:06Z</time>
      </trkpt>
      <trkpt lat="46.55388" lon="5.77701">
        <ele>676.8</ele>
        <time>2021-10-17T06:34:07Z</time>
      </trkpt>
      <trkpt lat="46.55384" lon="5.77703">
        <ele>677.2</ele>
        <time>2021-10-17T06:34:08Z</time>
      </trkpt>
      <trkpt lat="46.55381" lon="5.77706">
        <ele>677.2</ele>
        <time>2021-10-17T06:34:09Z</time>
      </trkpt>
      <trkpt lat="46.55378" lon="5.77709">
        <ele>677.6</ele>
        <time>2021-10-17T06:34:10Z</time>
      </trkpt>
      <trkpt lat="46.55375" lon="5.77712">
        <ele>677.6</ele>
        <time>2021-10-17T06:34:11Z</time>
      </trkpt>
      <trkpt lat="46.55372" lon="5.77715">
        <ele>677.6</ele>
        <time>2021-10-17T06:34:12Z</time>
      </trkpt>
      <trkpt lat="46.55369" lon="5.77718">
        <ele>677.8</ele>
        <time>2021-10-17T06:34:13Z</time>
      </trkpt>
      <trkpt lat="46.55366" lon="5.7772">
        <ele>677.8</ele>
        <time>2021-10-17T06:34:14Z</time>
      </trkpt>
      <trkpt lat="46.55363" lon="5.77723">
        <ele>678.2</ele>
        <time>2021-10-17T06:34:15Z</time>
      </trkpt>
      <trkpt lat="46.5536" lon="5.77726">
        <ele>678.2</ele>
        <time>2021-10-17T06:34:16Z</time>
      </trkpt>
      <trkpt lat="46.55357" lon="5.77728">
        <ele>678.2</ele>
        <time>2021-10-17T06:34:17Z</time>
      </trkpt>
      <trkpt lat="46.55354" lon="5.77731">
        <ele>678.4</ele>
        <time>2021-10-17T06:34:18Z</time>
      </trkpt>
      <trkpt lat="46.55351" lon="5.77734">
        <ele>678.6</ele>
        <time>2021-10-17T06:34:19Z</time>
      </trkpt>
      <trkpt lat="46.55348" lon="5.77737">
        <ele>678.8</ele>
        <time>2021-10-17T06:34:20Z</time>
      </trkpt>
      <trkpt lat="46.55345" lon="5.77739">
        <ele>679</ele>
        <time>2021-10-17T06:34:21Z</time>
      </trkpt>
      <trkpt lat="46.55342" lon="5.77742">
        <ele>679</ele>
        <time>2021-10-17T06:34:22Z</time>
      </trkpt>
      <trkpt lat="46.55339" lon="5.77744">
        <ele>679.4</ele>
        <time>2021-10-17T06:34:23Z</time>
      </trkpt>
      <trkpt lat="46.55336" lon="5.77746">
        <ele>679.4</ele>
        <time>2021-10-17T06:34:24Z</time>
      </trkpt>
      <trkpt lat="46.55333" lon="5.77749">
        <ele>679.8</ele>
        <time>2021-10-17T06:34:25Z</time>
      </trkpt>
      <trkpt lat="46.5533" lon="5.7775">
        <ele>679.8</ele>
        <time>2021-10-17T06:34:26Z</time>
      </trkpt>
      <trkpt lat="46.55327" lon="5.77752">
        <ele>680.2</ele>
        <time>2021-10-17T06:34:27Z</time>
      </trkpt>
      <trkpt lat="46.55324" lon="5.77754">
        <ele>680.4</ele>
        <time>2021-10-17T06:34:28Z</time>
      </trkpt>
      <trkpt lat="46.55321" lon="5.77755">
        <ele>680.4</ele>
        <time>2021-10-17T06:34:29Z</time>
      </trkpt>
      <trkpt lat="46.55318" lon="5.77757">
        <ele>680.8</ele>
        <time>2021-10-17T06:34:30Z</time>
      </trkpt>
      <trkpt lat="46.55315" lon="5.77759">
        <ele>680.8</ele>
        <time>2021-10-17T06:34:31Z</time>
      </trkpt>
      <trkpt lat="46.55312" lon="5.77761">
        <ele>681</ele>
        <time>2021-10-17T06:34:32Z</time>
      </trkpt>
      <trkpt lat="46.55309" lon="5.77763">
        <ele>681</ele>
        <time>2021-10-17T06:34:33Z</time>
      </trkpt>
      <trkpt lat="46.55306" lon="5.77765">
        <ele>681.4</ele>
        <time>2021-10-17T06:34:34Z</time>
      </trkpt>
      <trkpt lat="46.55303" lon="5.77767">
        <ele>681.4</ele>
        <time>2021-10-17T06:34:35Z</time>
      </trkpt>
      <trkpt lat="46.55299" lon="5.7777">
        <ele>681.6</ele>
        <time>2021-10-17T06:34:36Z</time>
      </trkpt>
      <trkpt lat="46.55296" lon="5.77772">
        <ele>681.6</ele>
        <time>2021-10-17T06:34:37Z</time>
      </trkpt>
      <trkpt lat="46.55293" lon="5.77773">
        <ele>681.6</ele>
        <time>2021-10-17T06:34:38Z</time>
      </trkpt>
      <trkpt lat="46.5529" lon="5.77775">
        <ele>681.8</ele>
        <time>2021-10-17T06:34:39Z</time>
      </trkpt>
      <trkpt lat="46.55287" lon="5.77777">
        <ele>681.8</ele>
        <time>2021-10-17T06:34:40Z</time>
      </trkpt>
      <trkpt lat="46.55284" lon="5.77778">
        <ele>681.8</ele>
        <time>2021-10-17T06:34:41Z</time>
      </trkpt>
      <trkpt lat="46.55281" lon="5.7778">
        <ele>682</ele>
        <time>2021-10-17T06:34:42Z</time>
      </trkpt>
      <trkpt lat="46.55277" lon="5.77781">
        <ele>682</ele>
        <time>2021-10-17T06:34:43Z</time>
      </trkpt>
      <trkpt lat="46.55274" lon="5.77782">
        <ele>682.4</ele>
        <time>2021-10-17T06:34:44Z</time>
      </trkpt>
      <trkpt lat="46.5527" lon="5.77783">
        <ele>682.4</ele>
        <time>2021-10-17T06:34:45Z</time>
      </trkpt>
      <trkpt lat="46.55267" lon="5.77784">
        <ele>682.8</ele>
        <time>2021-10-17T06:34:46Z</time>
      </trkpt>
      <trkpt lat="46.55264" lon="5.77785">
        <ele>683</ele>
        <time>2021-10-17T06:34:47Z</time>
      </trkpt>
      <trkpt lat="46.5526" lon="5.77787">
        <ele>683</ele>
        <time>2021-10-17T06:34:48Z</time>
      </trkpt>
      <trkpt lat="46.55257" lon="5.77788">
        <ele>683.2</ele>
        <time>2021-10-17T06:34:49Z</time>
      </trkpt>
      <trkpt lat="46.55254" lon="5.7779">
        <ele>683.2</ele>
        <time>2021-10-17T06:34:50Z</time>
      </trkpt>
      <trkpt lat="46.55251" lon="5.77792">
        <ele>683.4</ele>
        <time>2021-10-17T06:34:51Z</time>
      </trkpt>
      <trkpt lat="46.55248" lon="5.77794">
        <ele>683.4</ele>
        <time>2021-10-17T06:34:52Z</time>
      </trkpt>
      <trkpt lat="46.55245" lon="5.77796">
        <ele>683.6</ele>
        <time>2021-10-17T06:34:53Z</time>
      </trkpt>
      <trkpt lat="46.55242" lon="5.77798">
        <ele>683.6</ele>
        <time>2021-10-17T06:34:54Z</time>
      </trkpt>
      <trkpt lat="46.55239" lon="5.778">
        <ele>683.6</ele>
        <time>2021-10-17T06:34:55Z</time>
      </trkpt>
      <trkpt lat="46.55236" lon="5.77803">
        <ele>684</ele>
        <time>2021-10-17T06:34:56Z</time>
      </trkpt>
      <trkpt lat="46.55234" lon="5.77806">
        <ele>684</ele>
        <time>2021-10-17T06:34:57Z</time>
      </trkpt>
      <trkpt lat="46.55231" lon="5.77809">
        <ele>684</ele>
        <time>2021-10-17T06:34:58Z</time>
      </trkpt>
      <trkpt lat="46.55228" lon="5.77812">
        <ele>684.2</ele>
        <time>2021-10-17T06:34:59Z</time>
      </trkpt>
      <trkpt lat="46.55226" lon="5.77816">
        <ele>684.2</ele>
        <time>2021-10-17T06:35:00Z</time>
      </trkpt>
      <trkpt lat="46.55223" lon="5.7782">
        <ele>684.4</ele>
        <time>2021-10-17T06:35:01Z</time>
      </trkpt>
      <trkpt lat="46.55221" lon="5.77823">
        <ele>684.4</ele>
        <time>2021-10-17T06:35:02Z</time>
      </trkpt>
      <trkpt lat="46.55218" lon="5.77827">
        <ele>684.4</ele>
        <time>2021-10-17T06:35:03Z</time>
      </trkpt>
      <trkpt lat="46.55216" lon="5.77831">
        <ele>684.8</ele>
        <time>2021-10-17T06:35:04Z</time>
      </trkpt>
      <trkpt lat="46.55213" lon="5.77835">
        <ele>684.8</ele>
        <time>2021-10-17T06:35:05Z</time>
      </trkpt>
      <trkpt lat="46.5521" lon="5.77839">
        <ele>685</ele>
        <time>2021-10-17T06:35:06Z</time>
      </trkpt>
      <trkpt lat="46.55207" lon="5.77843">
        <ele>685</ele>
        <time>2021-10-17T06:35:07Z</time>
      </trkpt>
      <trkpt lat="46.55204" lon="5.77848">
        <ele>685.2</ele>
        <time>2021-10-17T06:35:08Z</time>
      </trkpt>
      <trkpt lat="46.55201" lon="5.77851">
        <ele>685.2</ele>
        <time>2021-10-17T06:35:09Z</time>
      </trkpt>
      <trkpt lat="46.55198" lon="5.77855">
        <ele>685.4</ele>
        <time>2021-10-17T06:35:10Z</time>
      </trkpt>
      <trkpt lat="46.55196" lon="5.7786">
        <ele>685.4</ele>
        <time>2021-10-17T06:35:11Z</time>
      </trkpt>
      <trkpt lat="46.55193" lon="5.77864">
        <ele>685.8</ele>
        <time>2021-10-17T06:35:12Z</time>
      </trkpt>
      <trkpt lat="46.55191" lon="5.77869">
        <ele>685.8</ele>
        <time>2021-10-17T06:35:13Z</time>
      </trkpt>
      <trkpt lat="46.55188" lon="5.77873">
        <ele>686</ele>
        <time>2021-10-17T06:35:14Z</time>
      </trkpt>
      <trkpt lat="46.55186" lon="5.77878">
        <ele>686</ele>
        <time>2021-10-17T06:35:15Z</time>
      </trkpt>
      <trkpt lat="46.55183" lon="5.77882">
        <ele>686.4</ele>
        <time>2021-10-17T06:35:16Z</time>
      </trkpt>
      <trkpt lat="46.55181" lon="5.77887">
        <ele>686.4</ele>
        <time>2021-10-17T06:35:17Z</time>
      </trkpt>
      <trkpt lat="46.55179" lon="5.77892">
        <ele>686.6</ele>
        <time>2021-10-17T06:35:18Z</time>
      </trkpt>
      <trkpt lat="46.55177" lon="5.77896">
        <ele>686.6</ele>
        <time>2021-10-17T06:35:19Z</time>
      </trkpt>
      <trkpt lat="46.55175" lon="5.779">
        <ele>687</ele>
        <time>2021-10-17T06:35:20Z</time>
      </trkpt>
      <trkpt lat="46.55173" lon="5.77905">
        <ele>687</ele>
        <time>2021-10-17T06:35:21Z</time>
      </trkpt>
      <trkpt lat="46.55171" lon="5.77909">
        <ele>687</ele>
        <time>2021-10-17T06:35:22Z</time>
      </trkpt>
      <trkpt lat="46.55169" lon="5.77914">
        <ele>687.2</ele>
        <time>2021-10-17T06:35:23Z</time>
      </trkpt>
      <trkpt lat="46.55167" lon="5.77918">
        <ele>687.2</ele>
        <time>2021-10-17T06:35:24Z</time>
      </trkpt>
      <trkpt lat="46.55165" lon="5.77923">
        <ele>687.2</ele>
        <time>2021-10-17T06:35:25Z</time>
      </trkpt>
      <trkpt lat="46.55164" lon="5.77927">
        <ele>687.6</ele>
        <time>2021-10-17T06:35:26Z</time>
      </trkpt>
      <trkpt lat="46.55162" lon="5.77931">
        <ele>687.6</ele>
        <time>2021-10-17T06:35:27Z</time>
      </trkpt>
      <trkpt lat="46.55161" lon="5.77935">
        <ele>687.8</ele>
        <time>2021-10-17T06:35:28Z</time>
      </trkpt>
      <trkpt lat="46.5516" lon="5.7794">
        <ele>687.8</ele>
        <time>2021-10-17T06:35:29Z</time>
      </trkpt>
      <trkpt lat="46.55159" lon="5.77944">
        <ele>688</ele>
        <time>2021-10-17T06:35:30Z</time>
      </trkpt>
      <trkpt lat="46.55159" lon="5.77948">
        <ele>688.2</ele>
        <time>2021-10-17T06:35:31Z</time>
      </trkpt>
      <trkpt lat="46.55158" lon="5.77953">
        <ele>688.2</ele>
        <time>2021-10-17T06:35:32Z</time>
      </trkpt>
      <trkpt lat="46.55157" lon="5.77957">
        <ele>688.4</ele>
        <time>2021-10-17T06:35:33Z</time>
      </trkpt>
      <trkpt lat="46.55157" lon="5.77961">
        <ele>688.4</ele>
        <time>2021-10-17T06:35:34Z</time>
      </trkpt>
      <trkpt lat="46.55157" lon="5.77967">
        <ele>688.8</ele>
        <time>2021-10-17T06:35:35Z</time>
      </trkpt>
      <trkpt lat="46.55156" lon="5.77971">
        <ele>688.8</ele>
        <time>2021-10-17T06:35:36Z</time>
      </trkpt>
      <trkpt lat="46.55155" lon="5.77976">
        <ele>689</ele>
        <time>2021-10-17T06:35:37Z</time>
      </trkpt>
      <trkpt lat="46.55154" lon="5.77981">
        <ele>689</ele>
        <time>2021-10-17T06:35:38Z</time>
      </trkpt>
      <trkpt lat="46.55153" lon="5.77985">
        <ele>689.2</ele>
        <time>2021-10-17T06:35:39Z</time>
      </trkpt>
      <trkpt lat="46.55152" lon="5.77989">
        <ele>689.2</ele>
        <time>2021-10-17T06:35:40Z</time>
      </trkpt>
      <trkpt lat="46.5515" lon="5.77994">
        <ele>689.2</ele>
        <time>2021-10-17T06:35:41Z</time>
      </trkpt>
      <trkpt lat="46.55149" lon="5.77998">
        <ele>689.6</ele>
        <time>2021-10-17T06:35:42Z</time>
      </trkpt>
      <trkpt lat="46.55148" lon="5.78003">
        <ele>689.6</ele>
        <time>2021-10-17T06:35:43Z</time>
      </trkpt>
      <trkpt lat="46.55147" lon="5.78008">
        <ele>689.8</ele>
        <time>2021-10-17T06:35:44Z</time>
      </trkpt>
      <trkpt lat="46.55146" lon="5.78013">
        <ele>689.8</ele>
        <time>2021-10-17T06:35:45Z</time>
      </trkpt>
      <trkpt lat="46.55145" lon="5.78018">
        <ele>690.2</ele>
        <time>2021-10-17T06:35:46Z</time>
      </trkpt>
      <trkpt lat="46.55144" lon="5.78023">
        <ele>690.2</ele>
        <time>2021-10-17T06:35:47Z</time>
      </trkpt>
      <trkpt lat="46.55142" lon="5.78028">
        <ele>690.4</ele>
        <time>2021-10-17T06:35:48Z</time>
      </trkpt>
      <trkpt lat="46.55141" lon="5.78033">
        <ele>690.4</ele>
        <time>2021-10-17T06:35:49Z</time>
      </trkpt>
      <trkpt lat="46.5514" lon="5.78038">
        <ele>690.8</ele>
        <time>2021-10-17T06:35:50Z</time>
      </trkpt>
      <trkpt lat="46.55138" lon="5.78042">
        <ele>690.8</ele>
        <time>2021-10-17T06:35:51Z</time>
      </trkpt>
      <trkpt lat="46.55136" lon="5.78046">
        <ele>691</ele>
        <time>2021-10-17T06:35:52Z</time>
      </trkpt>
      <trkpt lat="46.55135" lon="5.7805">
        <ele>691</ele>
        <time>2021-10-17T06:35:53Z</time>
      </trkpt>
      <trkpt lat="46.55133" lon="5.78054">
        <ele>691</ele>
        <time>2021-10-17T06:35:54Z</time>
      </trkpt>
      <trkpt lat="46.55131" lon="5.78059">
        <ele>691</ele>
        <time>2021-10-17T06:35:55Z</time>
      </trkpt>
      <trkpt lat="46.55129" lon="5.78064">
        <ele>691.2</ele>
        <time>2021-10-17T06:35:56Z</time>
      </trkpt>
      <trkpt lat="46.55126" lon="5.78071">
        <ele>691.2</ele>
        <time>2021-10-17T06:35:57Z</time>
      </trkpt>
      <trkpt lat="46.55124" lon="5.78075">
        <ele>691.6</ele>
        <time>2021-10-17T06:35:58Z</time>
      </trkpt>
      <trkpt lat="46.55121" lon="5.78081">
        <ele>691.6</ele>
        <time>2021-10-17T06:35:59Z</time>
      </trkpt>
      <trkpt lat="46.55118" lon="5.78085">
        <ele>691.8</ele>
        <time>2021-10-17T06:36:00Z</time>
      </trkpt>
      <trkpt lat="46.55116" lon="5.7809">
        <ele>691.8</ele>
        <time>2021-10-17T06:36:01Z</time>
      </trkpt>
      <trkpt lat="46.55113" lon="5.78096">
        <ele>692.2</ele>
        <time>2021-10-17T06:36:02Z</time>
      </trkpt>
      <trkpt lat="46.5511" lon="5.78101">
        <ele>692.2</ele>
        <time>2021-10-17T06:36:03Z</time>
      </trkpt>
      <trkpt lat="46.55107" lon="5.78105">
        <ele>692.2</ele>
        <time>2021-10-17T06:36:04Z</time>
      </trkpt>
      <trkpt lat="46.55104" lon="5.7811">
        <ele>692.4</ele>
        <time>2021-10-17T06:36:05Z</time>
      </trkpt>
      <trkpt lat="46.55102" lon="5.78114">
        <ele>692.4</ele>
        <time>2021-10-17T06:36:06Z</time>
      </trkpt>
      <trkpt lat="46.55099" lon="5.78119">
        <ele>692.4</ele>
        <time>2021-10-17T06:36:07Z</time>
      </trkpt>
      <trkpt lat="46.55096" lon="5.78124">
        <ele>692.6</ele>
        <time>2021-10-17T06:36:08Z</time>
      </trkpt>
      <trkpt lat="46.55094" lon="5.78128">
        <ele>692.6</ele>
        <time>2021-10-17T06:36:09Z</time>
      </trkpt>
      <trkpt lat="46.55092" lon="5.78133">
        <ele>692.6</ele>
        <time>2021-10-17T06:36:10Z</time>
      </trkpt>
      <trkpt lat="46.55089" lon="5.78136">
        <ele>693</ele>
        <time>2021-10-17T06:36:11Z</time>
      </trkpt>
      <trkpt lat="46.55085" lon="5.78139">
        <ele>693</ele>
        <time>2021-10-17T06:36:12Z</time>
      </trkpt>
      <trkpt lat="46.55083" lon="5.78143">
        <ele>693</ele>
        <time>2021-10-17T06:36:13Z</time>
      </trkpt>
      <trkpt lat="46.55079" lon="5.78146">
        <ele>693.2</ele>
        <time>2021-10-17T06:36:14Z</time>
      </trkpt>
      <trkpt lat="46.55077" lon="5.7815">
        <ele>693.2</ele>
        <time>2021-10-17T06:36:15Z</time>
      </trkpt>
      <trkpt lat="46.55075" lon="5.78154">
        <ele>693.6</ele>
        <time>2021-10-17T06:36:16Z</time>
      </trkpt>
      <trkpt lat="46.55072" lon="5.78159">
        <ele>693.8</ele>
        <time>2021-10-17T06:36:17Z</time>
      </trkpt>
      <trkpt lat="46.55069" lon="5.78163">
        <ele>693.8</ele>
        <time>2021-10-17T06:36:18Z</time>
      </trkpt>
      <trkpt lat="46.55067" lon="5.78168">
        <ele>694</ele>
        <time>2021-10-17T06:36:19Z</time>
      </trkpt>
      <trkpt lat="46.55065" lon="5.78173">
        <ele>694</ele>
        <time>2021-10-17T06:36:20Z</time>
      </trkpt>
      <trkpt lat="46.55063" lon="5.78178">
        <ele>694</ele>
        <time>2021-10-17T06:36:21Z</time>
      </trkpt>
      <trkpt lat="46.5506" lon="5.78183">
        <ele>694.4</ele>
        <time>2021-10-17T06:36:22Z</time>
      </trkpt>
      <trkpt lat="46.55058" lon="5.78189">
        <ele>694.4</ele>
        <time>2021-10-17T06:36:23Z</time>
      </trkpt>
      <trkpt lat="46.55056" lon="5.78194">
        <ele>694.6</ele>
        <time>2021-10-17T06:36:24Z</time>
      </trkpt>
      <trkpt lat="46.55055" lon="5.78199">
        <ele>694.6</ele>
        <time>2021-10-17T06:36:25Z</time>
      </trkpt>
      <trkpt lat="46.55053" lon="5.78204">
        <ele>695</ele>
        <time>2021-10-17T06:36:26Z</time>
      </trkpt>
      <trkpt lat="46.55052" lon="5.78209">
        <ele>695</ele>
        <time>2021-10-17T06:36:27Z</time>
      </trkpt>
      <trkpt lat="46.55051" lon="5.78214">
        <ele>695.4</ele>
        <time>2021-10-17T06:36:28Z</time>
      </trkpt>
      <trkpt lat="46.5505" lon="5.78219">
        <ele>695.4</ele>
        <time>2021-10-17T06:36:29Z</time>
      </trkpt>
      <trkpt lat="46.55049" lon="5.78224">
        <ele>695.6</ele>
        <time>2021-10-17T06:36:30Z</time>
      </trkpt>
      <trkpt lat="46.55048" lon="5.78229">
        <ele>695.6</ele>
        <time>2021-10-17T06:36:31Z</time>
      </trkpt>
      <trkpt lat="46.55047" lon="5.78234">
        <ele>695.8</ele>
        <time>2021-10-17T06:36:32Z</time>
      </trkpt>
      <trkpt lat="46.55046" lon="5.78239">
        <ele>695.8</ele>
        <time>2021-10-17T06:36:33Z</time>
      </trkpt>
      <trkpt lat="46.55045" lon="5.78245">
        <ele>695.8</ele>
        <time>2021-10-17T06:36:34Z</time>
      </trkpt>
      <trkpt lat="46.55044" lon="5.78251">
        <ele>695.8</ele>
        <time>2021-10-17T06:36:35Z</time>
      </trkpt>
      <trkpt lat="46.55044" lon="5.78257">
        <ele>695.8</ele>
        <time>2021-10-17T06:36:36Z</time>
      </trkpt>
      <trkpt lat="46.55043" lon="5.78262">
        <ele>696</ele>
        <time>2021-10-17T06:36:37Z</time>
      </trkpt>
      <trkpt lat="46.55042" lon="5.78268">
        <ele>696</ele>
        <time>2021-10-17T06:36:38Z</time>
      </trkpt>
      <trkpt lat="46.55041" lon="5.78274">
        <ele>696.2</ele>
        <time>2021-10-17T06:36:39Z</time>
      </trkpt>
      <trkpt lat="46.55041" lon="5.78279">
        <ele>696.2</ele>
        <time>2021-10-17T06:36:40Z</time>
      </trkpt>
      <trkpt lat="46.5504" lon="5.78285">
        <ele>696.6</ele>
        <time>2021-10-17T06:36:41Z</time>
      </trkpt>
      <trkpt lat="46.55039" lon="5.78291">
        <ele>696.6</ele>
        <time>2021-10-17T06:36:42Z</time>
      </trkpt>
      <trkpt lat="46.55039" lon="5.78298">
        <ele>696.8</ele>
        <time>2021-10-17T06:36:43Z</time>
      </trkpt>
      <trkpt lat="46.55038" lon="5.78304">
        <ele>696.8</ele>
        <time>2021-10-17T06:36:44Z</time>
      </trkpt>
      <trkpt lat="46.55037" lon="5.78309">
        <ele>697.2</ele>
        <time>2021-10-17T06:36:45Z</time>
      </trkpt>
      <trkpt lat="46.55036" lon="5.78315">
        <ele>697.2</ele>
        <time>2021-10-17T06:36:46Z</time>
      </trkpt>
      <trkpt lat="46.55035" lon="5.7832">
        <ele>697.4</ele>
        <time>2021-10-17T06:36:47Z</time>
      </trkpt>
      <trkpt lat="46.55034" lon="5.78326">
        <ele>697.4</ele>
        <time>2021-10-17T06:36:48Z</time>
      </trkpt>
      <trkpt lat="46.55033" lon="5.78331">
        <ele>697.6</ele>
        <time>2021-10-17T06:36:49Z</time>
      </trkpt>
      <trkpt lat="46.55031" lon="5.78336">
        <ele>697.6</ele>
        <time>2021-10-17T06:36:50Z</time>
      </trkpt>
      <trkpt lat="46.5503" lon="5.78342">
        <ele>698</ele>
        <time>2021-10-17T06:36:51Z</time>
      </trkpt>
      <trkpt lat="46.55028" lon="5.78347">
        <ele>698</ele>
        <time>2021-10-17T06:36:52Z</time>
      </trkpt>
      <trkpt lat="46.55027" lon="5.78352">
        <ele>698</ele>
        <time>2021-10-17T06:36:53Z</time>
      </trkpt>
      <trkpt lat="46.55025" lon="5.78357">
        <ele>698.2</ele>
        <time>2021-10-17T06:36:54Z</time>
      </trkpt>
      <trkpt lat="46.55023" lon="5.78363">
        <ele>698.2</ele>
        <time>2021-10-17T06:36:55Z</time>
      </trkpt>
      <trkpt lat="46.55021" lon="5.78368">
        <ele>698.6</ele>
        <time>2021-10-17T06:36:56Z</time>
      </trkpt>
      <trkpt lat="46.55019" lon="5.78374">
        <ele>698.6</ele>
        <time>2021-10-17T06:36:57Z</time>
      </trkpt>
      <trkpt lat="46.55017" lon="5.78379">
        <ele>698.8</ele>
        <time>2021-10-17T06:36:58Z</time>
      </trkpt>
      <trkpt lat="46.55015" lon="5.78384">
        <ele>699</ele>
        <time>2021-10-17T06:36:59Z</time>
      </trkpt>
      <trkpt lat="46.55013" lon="5.7839">
        <ele>699</ele>
        <time>2021-10-17T06:37:00Z</time>
      </trkpt>
      <trkpt lat="46.55011" lon="5.78395">
        <ele>699.2</ele>
        <time>2021-10-17T06:37:01Z</time>
      </trkpt>
      <trkpt lat="46.5501" lon="5.78401">
        <ele>699.2</ele>
        <time>2021-10-17T06:37:02Z</time>
      </trkpt>
      <trkpt lat="46.55008" lon="5.78408">
        <ele>699.4</ele>
        <time>2021-10-17T06:37:03Z</time>
      </trkpt>
      <trkpt lat="46.55007" lon="5.78414">
        <ele>699.4</ele>
        <time>2021-10-17T06:37:04Z</time>
      </trkpt>
      <trkpt lat="46.55005" lon="5.7842">
        <ele>699.4</ele>
        <time>2021-10-17T06:37:05Z</time>
      </trkpt>
      <trkpt lat="46.55004" lon="5.78426">
        <ele>699.8</ele>
        <time>2021-10-17T06:37:06Z</time>
      </trkpt>
      <trkpt lat="46.55003" lon="5.78432">
        <ele>699.8</ele>
        <time>2021-10-17T06:37:07Z</time>
      </trkpt>
      <trkpt lat="46.55001" lon="5.78445">
        <ele>700</ele>
        <time>2021-10-17T06:37:08Z</time>
      </trkpt>
      <trkpt lat="46.55" lon="5.78451">
        <ele>700</ele>
        <time>2021-10-17T06:37:09Z</time>
      </trkpt>
      <trkpt lat="46.54999" lon="5.78458">
        <ele>700.2</ele>
        <time>2021-10-17T06:37:10Z</time>
      </trkpt>
      <trkpt lat="46.54999" lon="5.78465">
        <ele>700.2</ele>
        <time>2021-10-17T06:37:11Z</time>
      </trkpt>
      <trkpt lat="46.54999" lon="5.78472">
        <ele>700.2</ele>
        <time>2021-10-17T06:37:12Z</time>
      </trkpt>
      <trkpt lat="46.54999" lon="5.78479">
        <ele>700.4</ele>
        <time>2021-10-17T06:37:13Z</time>
      </trkpt>
      <trkpt lat="46.54999" lon="5.78486">
        <ele>700.4</ele>
        <time>2021-10-17T06:37:14Z</time>
      </trkpt>
      <trkpt lat="46.54999" lon="5.78493">
        <ele>700.4</ele>
        <time>2021-10-17T06:37:15Z</time>
      </trkpt>
      <trkpt lat="46.54999" lon="5.785">
        <ele>700.8</ele>
        <time>2021-10-17T06:37:16Z</time>
      </trkpt>
      <trkpt lat="46.54999" lon="5.78507">
        <ele>700.8</ele>
        <time>2021-10-17T06:37:17Z</time>
      </trkpt>
      <trkpt lat="46.54999" lon="5.78515">
        <ele>700.8</ele>
        <time>2021-10-17T06:37:18Z</time>
      </trkpt>
      <trkpt lat="46.54999" lon="5.78522">
        <ele>700.8</ele>
        <time>2021-10-17T06:37:19Z</time>
      </trkpt>
      <trkpt lat="46.54999" lon="5.78529">
        <ele>700.8</ele>
        <time>2021-10-17T06:37:20Z</time>
      </trkpt>
      <trkpt lat="46.55" lon="5.78536">
        <ele>700.8</ele>
        <time>2021-10-17T06:37:21Z</time>
      </trkpt>
      <trkpt lat="46.55" lon="5.78543">
        <ele>700.8</ele>
        <time>2021-10-17T06:37:22Z</time>
      </trkpt>
      <trkpt lat="46.54999" lon="5.78551">
        <ele>700.8</ele>
        <time>2021-10-17T06:37:23Z</time>
      </trkpt>
      <trkpt lat="46.54999" lon="5.78558">
        <ele>700.8</ele>
        <time>2021-10-17T06:37:24Z</time>
      </trkpt>
      <trkpt lat="46.54998" lon="5.78566">
        <ele>700.8</ele>
        <time>2021-10-17T06:37:25Z</time>
      </trkpt>
      <trkpt lat="46.54997" lon="5.78574">
        <ele>700.8</ele>
        <time>2021-10-17T06:37:26Z</time>
      </trkpt>
      <trkpt lat="46.54996" lon="5.78582">
        <ele>700.8</ele>
        <time>2021-10-17T06:37:27Z</time>
      </trkpt>
      <trkpt lat="46.54995" lon="5.7859">
        <ele>700.8</ele>
        <time>2021-10-17T06:37:28Z</time>
      </trkpt>
      <trkpt lat="46.54993" lon="5.78597">
        <ele>700.8</ele>
        <time>2021-10-17T06:37:29Z</time>
      </trkpt>
      <trkpt lat="46.54991" lon="5.78604">
        <ele>700.8</ele>
        <time>2021-10-17T06:37:30Z</time>
      </trkpt>
      <trkpt lat="46.54989" lon="5.78611">
        <ele>700.8</ele>
        <time>2021-10-17T06:37:31Z</time>
      </trkpt>
      <trkpt lat="46.54987" lon="5.78618">
        <ele>700.8</ele>
        <time>2021-10-17T06:37:32Z</time>
      </trkpt>
      <trkpt lat="46.54985" lon="5.78624">
        <ele>700.8</ele>
        <time>2021-10-17T06:37:33Z</time>
      </trkpt>
      <trkpt lat="46.54983" lon="5.7863">
        <ele>701</ele>
        <time>2021-10-17T06:37:34Z</time>
      </trkpt>
      <trkpt lat="46.5498" lon="5.78636">
        <ele>701</ele>
        <time>2021-10-17T06:37:35Z</time>
      </trkpt>
      <trkpt lat="46.54977" lon="5.78641">
        <ele>701</ele>
        <time>2021-10-17T06:37:36Z</time>
      </trkpt>
      <trkpt lat="46.54973" lon="5.78645">
        <ele>701</ele>
        <time>2021-10-17T06:37:37Z</time>
      </trkpt>
      <trkpt lat="46.54969" lon="5.7865">
        <ele>701</ele>
        <time>2021-10-17T06:37:38Z</time>
      </trkpt>
      <trkpt lat="46.54965" lon="5.78654">
        <ele>701</ele>
        <time>2021-10-17T06:37:39Z</time>
      </trkpt>
      <trkpt lat="46.5496" lon="5.78657">
        <ele>700.6</ele>
        <time>2021-10-17T06:37:40Z</time>
      </trkpt>
      <trkpt lat="46.54955" lon="5.78659">
        <ele>700.6</ele>
        <time>2021-10-17T06:37:41Z</time>
      </trkpt>
      <trkpt lat="46.54949" lon="5.78662">
        <ele>700.6</ele>
        <time>2021-10-17T06:37:42Z</time>
      </trkpt>
      <trkpt lat="46.54944" lon="5.78663">
        <ele>700.4</ele>
        <time>2021-10-17T06:37:43Z</time>
      </trkpt>
      <trkpt lat="46.54938" lon="5.78665">
        <ele>700.4</ele>
        <time>2021-10-17T06:37:44Z</time>
      </trkpt>
      <trkpt lat="46.54932" lon="5.78666">
        <ele>700.4</ele>
        <time>2021-10-17T06:37:45Z</time>
      </trkpt>
      <trkpt lat="46.54926" lon="5.78667">
        <ele>700.4</ele>
        <time>2021-10-17T06:37:46Z</time>
      </trkpt>
      <trkpt lat="46.5492" lon="5.78669">
        <ele>700.2</ele>
        <time>2021-10-17T06:37:47Z</time>
      </trkpt>
      <trkpt lat="46.54914" lon="5.78671">
        <ele>700.2</ele>
        <time>2021-10-17T06:37:48Z</time>
      </trkpt>
      <trkpt lat="46.54908" lon="5.78673">
        <ele>699.8</ele>
        <time>2021-10-17T06:37:49Z</time>
      </trkpt>
      <trkpt lat="46.54902" lon="5.78676">
        <ele>699.8</ele>
        <time>2021-10-17T06:37:50Z</time>
      </trkpt>
      <trkpt lat="46.54896" lon="5.78678">
        <ele>699.6</ele>
        <time>2021-10-17T06:37:51Z</time>
      </trkpt>
      <trkpt lat="46.54889" lon="5.78679">
        <ele>699.6</ele>
        <time>2021-10-17T06:37:52Z</time>
      </trkpt>
      <trkpt lat="46.54883" lon="5.78681">
        <ele>699.4</ele>
        <time>2021-10-17T06:37:53Z</time>
      </trkpt>
      <trkpt lat="46.54876" lon="5.78682">
        <ele>699.4</ele>
        <time>2021-10-17T06:37:54Z</time>
      </trkpt>
      <trkpt lat="46.5487" lon="5.78683">
        <ele>699.2</ele>
        <time>2021-10-17T06:37:55Z</time>
      </trkpt>
      <trkpt lat="46.54863" lon="5.78685">
        <ele>699.2</ele>
        <time>2021-10-17T06:37:56Z</time>
      </trkpt>
      <trkpt lat="46.54856" lon="5.78686">
        <ele>698.8</ele>
        <time>2021-10-17T06:37:57Z</time>
      </trkpt>
      <trkpt lat="46.54849" lon="5.78687">
        <ele>698.8</ele>
        <time>2021-10-17T06:37:58Z</time>
      </trkpt>
      <trkpt lat="46.54842" lon="5.78688">
        <ele>698.8</ele>
        <time>2021-10-17T06:37:59Z</time>
      </trkpt>
      <trkpt lat="46.54834" lon="5.78689">
        <ele>698.8</ele>
        <time>2021-10-17T06:38:00Z</time>
      </trkpt>
      <trkpt lat="46.54827" lon="5.7869">
        <ele>698.6</ele>
        <time>2021-10-17T06:38:01Z</time>
      </trkpt>
      <trkpt lat="46.5482" lon="5.78693">
        <ele>698.6</ele>
        <time>2021-10-17T06:38:02Z</time>
      </trkpt>
      <trkpt lat="46.54813" lon="5.78696">
        <ele>698.6</ele>
        <time>2021-10-17T06:38:03Z</time>
      </trkpt>
      <trkpt lat="46.54806" lon="5.787">
        <ele>698.6</ele>
        <time>2021-10-17T06:38:04Z</time>
      </trkpt>
      <trkpt lat="46.54799" lon="5.78705">
        <ele>698.6</ele>
        <time>2021-10-17T06:38:05Z</time>
      </trkpt>
      <trkpt lat="46.54792" lon="5.78709">
        <ele>698.6</ele>
        <time>2021-10-17T06:38:06Z</time>
      </trkpt>
      <trkpt lat="46.54785" lon="5.78714">
        <ele>698.4</ele>
        <time>2021-10-17T06:38:07Z</time>
      </trkpt>
      <trkpt lat="46.54778" lon="5.78719">
        <ele>698.4</ele>
        <time>2021-10-17T06:38:08Z</time>
      </trkpt>
      <trkpt lat="46.54771" lon="5.78724">
        <ele>698</ele>
        <time>2021-10-17T06:38:09Z</time>
      </trkpt>
      <trkpt lat="46.54764" lon="5.7873">
        <ele>698</ele>
        <time>2021-10-17T06:38:10Z</time>
      </trkpt>
      <trkpt lat="46.54758" lon="5.78737">
        <ele>697.8</ele>
        <time>2021-10-17T06:38:11Z</time>
      </trkpt>
      <trkpt lat="46.54752" lon="5.78745">
        <ele>697.8</ele>
        <time>2021-10-17T06:38:12Z</time>
      </trkpt>
      <trkpt lat="46.54748" lon="5.78754">
        <ele>697.4</ele>
        <time>2021-10-17T06:38:13Z</time>
      </trkpt>
      <trkpt lat="46.54744" lon="5.78765">
        <ele>697.4</ele>
        <time>2021-10-17T06:38:14Z</time>
      </trkpt>
      <trkpt lat="46.54741" lon="5.78776">
        <ele>697.2</ele>
        <time>2021-10-17T06:38:15Z</time>
      </trkpt>
      <trkpt lat="46.54739" lon="5.78787">
        <ele>697</ele>
        <time>2021-10-17T06:38:16Z</time>
      </trkpt>
      <trkpt lat="46.54738" lon="5.78798">
        <ele>697</ele>
        <time>2021-10-17T06:38:17Z</time>
      </trkpt>
      <trkpt lat="46.54738" lon="5.7881">
        <ele>697</ele>
        <time>2021-10-17T06:38:18Z</time>
      </trkpt>
      <trkpt lat="46.54738" lon="5.78821">
        <ele>696.6</ele>
        <time>2021-10-17T06:38:19Z</time>
      </trkpt>
      <trkpt lat="46.54738" lon="5.78832">
        <ele>696.6</ele>
        <time>2021-10-17T06:38:20Z</time>
      </trkpt>
      <trkpt lat="46.54738" lon="5.78843">
        <ele>696.6</ele>
        <time>2021-10-17T06:38:21Z</time>
      </trkpt>
      <trkpt lat="46.54739" lon="5.78853">
        <ele>696.6</ele>
        <time>2021-10-17T06:38:22Z</time>
      </trkpt>
      <trkpt lat="46.5474" lon="5.78864">
        <ele>696.6</ele>
        <time>2021-10-17T06:38:23Z</time>
      </trkpt>
      <trkpt lat="46.54741" lon="5.78875">
        <ele>696.6</ele>
        <time>2021-10-17T06:38:24Z</time>
      </trkpt>
      <trkpt lat="46.54742" lon="5.78885">
        <ele>696.6</ele>
        <time>2021-10-17T06:38:25Z</time>
      </trkpt>
      <trkpt lat="46.54743" lon="5.78896">
        <ele>696.6</ele>
        <time>2021-10-17T06:38:26Z</time>
      </trkpt>
      <trkpt lat="46.54744" lon="5.78906">
        <ele>696.6</ele>
        <time>2021-10-17T06:38:27Z</time>
      </trkpt>
      <trkpt lat="46.54746" lon="5.78915">
        <ele>696.6</ele>
        <time>2021-10-17T06:38:28Z</time>
      </trkpt>
      <trkpt lat="46.54748" lon="5.78924">
        <ele>696.6</ele>
        <time>2021-10-17T06:38:29Z</time>
      </trkpt>
      <trkpt lat="46.5475" lon="5.78933">
        <ele>696.6</ele>
        <time>2021-10-17T06:38:30Z</time>
      </trkpt>
      <trkpt lat="46.54752" lon="5.78941">
        <ele>697</ele>
        <time>2021-10-17T06:38:31Z</time>
      </trkpt>
      <trkpt lat="46.54753" lon="5.78947">
        <ele>697.2</ele>
        <time>2021-10-17T06:38:32Z</time>
      </trkpt>
      <trkpt lat="46.54754" lon="5.78954">
        <ele>697.2</ele>
        <time>2021-10-17T06:38:33Z</time>
      </trkpt>
      <trkpt lat="46.54756" lon="5.78962">
        <ele>697.6</ele>
        <time>2021-10-17T06:38:34Z</time>
      </trkpt>
      <trkpt lat="46.54758" lon="5.78969">
        <ele>697.6</ele>
        <time>2021-10-17T06:38:35Z</time>
      </trkpt>
      <trkpt lat="46.54759" lon="5.78977">
        <ele>697.8</ele>
        <time>2021-10-17T06:38:36Z</time>
      </trkpt>
      <trkpt lat="46.54761" lon="5.78983">
        <ele>697.8</ele>
        <time>2021-10-17T06:38:37Z</time>
      </trkpt>
      <trkpt lat="46.54763" lon="5.78991">
        <ele>698</ele>
        <time>2021-10-17T06:38:38Z</time>
      </trkpt>
      <trkpt lat="46.54765" lon="5.78999">
        <ele>698.2</ele>
        <time>2021-10-17T06:38:39Z</time>
      </trkpt>
      <trkpt lat="46.54766" lon="5.79006">
        <ele>698.4</ele>
        <time>2021-10-17T06:38:40Z</time>
      </trkpt>
      <trkpt lat="46.54767" lon="5.79013">
        <ele>698.8</ele>
        <time>2021-10-17T06:38:41Z</time>
      </trkpt>
      <trkpt lat="46.54767" lon="5.7902">
        <ele>698.8</ele>
        <time>2021-10-17T06:38:42Z</time>
      </trkpt>
      <trkpt lat="46.54768" lon="5.79026">
        <ele>699.2</ele>
        <time>2021-10-17T06:38:43Z</time>
      </trkpt>
      <trkpt lat="46.54769" lon="5.79033">
        <ele>699.2</ele>
        <time>2021-10-17T06:38:44Z</time>
      </trkpt>
      <trkpt lat="46.54769" lon="5.7904">
        <ele>699.4</ele>
        <time>2021-10-17T06:38:45Z</time>
      </trkpt>
      <trkpt lat="46.5477" lon="5.79046">
        <ele>699.6</ele>
        <time>2021-10-17T06:38:46Z</time>
      </trkpt>
      <trkpt lat="46.5477" lon="5.79053">
        <ele>699.6</ele>
        <time>2021-10-17T06:38:47Z</time>
      </trkpt>
      <trkpt lat="46.54771" lon="5.7906">
        <ele>700.2</ele>
        <time>2021-10-17T06:38:48Z</time>
      </trkpt>
      <trkpt lat="46.54771" lon="5.79066">
        <ele>700.4</ele>
        <time>2021-10-17T06:38:49Z</time>
      </trkpt>
      <trkpt lat="46.54771" lon="5.79072">
        <ele>700.4</ele>
        <time>2021-10-17T06:38:50Z</time>
      </trkpt>
      <trkpt lat="46.54771" lon="5.79078">
        <ele>700.6</ele>
        <time>2021-10-17T06:38:51Z</time>
      </trkpt>
      <trkpt lat="46.5477" lon="5.79084">
        <ele>700.6</ele>
        <time>2021-10-17T06:38:52Z</time>
      </trkpt>
      <trkpt lat="46.54769" lon="5.79089">
        <ele>700.8</ele>
        <time>2021-10-17T06:38:53Z</time>
      </trkpt>
      <trkpt lat="46.54769" lon="5.79094">
        <ele>700.8</ele>
        <time>2021-10-17T06:38:54Z</time>
      </trkpt>
      <trkpt lat="46.54767" lon="5.791">
        <ele>701.2</ele>
        <time>2021-10-17T06:38:55Z</time>
      </trkpt>
      <trkpt lat="46.54765" lon="5.79105">
        <ele>701.4</ele>
        <time>2021-10-17T06:38:56Z</time>
      </trkpt>
      <trkpt lat="46.54763" lon="5.7911">
        <ele>701.4</ele>
        <time>2021-10-17T06:38:57Z</time>
      </trkpt>
      <trkpt lat="46.5476" lon="5.79114">
        <ele>701.6</ele>
        <time>2021-10-17T06:38:58Z</time>
      </trkpt>
      <trkpt lat="46.54756" lon="5.79117">
        <ele>701.6</ele>
        <time>2021-10-17T06:38:59Z</time>
      </trkpt>
      <trkpt lat="46.54753" lon="5.7912">
        <ele>702</ele>
        <time>2021-10-17T06:39:00Z</time>
      </trkpt>
      <trkpt lat="46.54749" lon="5.79124">
        <ele>702.2</ele>
        <time>2021-10-17T06:39:01Z</time>
      </trkpt>
      <trkpt lat="46.54746" lon="5.79126">
        <ele>702.4</ele>
        <time>2021-10-17T06:39:02Z</time>
      </trkpt>
      <trkpt lat="46.54742" lon="5.79129">
        <ele>702.8</ele>
        <time>2021-10-17T06:39:03Z</time>
      </trkpt>
      <trkpt lat="46.54738" lon="5.79131">
        <ele>703</ele>
        <time>2021-10-17T06:39:04Z</time>
      </trkpt>
      <trkpt lat="46.54735" lon="5.79132">
        <ele>703.2</ele>
        <time>2021-10-17T06:39:05Z</time>
      </trkpt>
      <trkpt lat="46.54731" lon="5.79134">
        <ele>703.6</ele>
        <time>2021-10-17T06:39:06Z</time>
      </trkpt>
      <trkpt lat="46.54727" lon="5.79134">
        <ele>703.8</ele>
        <time>2021-10-17T06:39:07Z</time>
      </trkpt>
      <trkpt lat="46.54723" lon="5.79135">
        <ele>704</ele>
        <time>2021-10-17T06:39:08Z</time>
      </trkpt>
      <trkpt lat="46.54719" lon="5.79137">
        <ele>704.4</ele>
        <time>2021-10-17T06:39:09Z</time>
      </trkpt>
      <trkpt lat="46.54715" lon="5.79138">
        <ele>704.6</ele>
        <time>2021-10-17T06:39:10Z</time>
      </trkpt>
      <trkpt lat="46.54711" lon="5.7914">
        <ele>704.8</ele>
        <time>2021-10-17T06:39:11Z</time>
      </trkpt>
      <trkpt lat="46.54708" lon="5.79142">
        <ele>705.2</ele>
        <time>2021-10-17T06:39:12Z</time>
      </trkpt>
      <trkpt lat="46.54705" lon="5.79145">
        <ele>705.4</ele>
        <time>2021-10-17T06:39:13Z</time>
      </trkpt>
      <trkpt lat="46.54702" lon="5.79148">
        <ele>705.4</ele>
        <time>2021-10-17T06:39:14Z</time>
      </trkpt>
      <trkpt lat="46.54699" lon="5.79152">
        <ele>705.6</ele>
        <time>2021-10-17T06:39:15Z</time>
      </trkpt>
      <trkpt lat="46.54696" lon="5.79156">
        <ele>705.6</ele>
        <time>2021-10-17T06:39:16Z</time>
      </trkpt>
      <trkpt lat="46.54693" lon="5.79159">
        <ele>706</ele>
        <time>2021-10-17T06:39:17Z</time>
      </trkpt>
      <trkpt lat="46.54689" lon="5.79162">
        <ele>706</ele>
        <time>2021-10-17T06:39:18Z</time>
      </trkpt>
      <trkpt lat="46.54686" lon="5.79166">
        <ele>706</ele>
        <time>2021-10-17T06:39:19Z</time>
      </trkpt>
      <trkpt lat="46.54682" lon="5.79169">
        <ele>706</ele>
        <time>2021-10-17T06:39:20Z</time>
      </trkpt>
      <trkpt lat="46.54678" lon="5.79173">
        <ele>706.2</ele>
        <time>2021-10-17T06:39:21Z</time>
      </trkpt>
      <trkpt lat="46.54674" lon="5.79176">
        <ele>706.2</ele>
        <time>2021-10-17T06:39:22Z</time>
      </trkpt>
      <trkpt lat="46.54667" lon="5.79183">
        <ele>706.6</ele>
        <time>2021-10-17T06:39:23Z</time>
      </trkpt>
      <trkpt lat="46.54664" lon="5.79186">
        <ele>706.8</ele>
        <time>2021-10-17T06:39:24Z</time>
      </trkpt>
      <trkpt lat="46.5466" lon="5.79189">
        <ele>706.8</ele>
        <time>2021-10-17T06:39:25Z</time>
      </trkpt>
      <trkpt lat="46.54656" lon="5.79191">
        <ele>707.2</ele>
        <time>2021-10-17T06:39:26Z</time>
      </trkpt>
      <trkpt lat="46.54653" lon="5.79194">
        <ele>707.2</ele>
        <time>2021-10-17T06:39:27Z</time>
      </trkpt>
      <trkpt lat="46.54649" lon="5.79197">
        <ele>707.6</ele>
        <time>2021-10-17T06:39:28Z</time>
      </trkpt>
      <trkpt lat="46.54646" lon="5.79201">
        <ele>707.6</ele>
        <time>2021-10-17T06:39:29Z</time>
      </trkpt>
      <trkpt lat="46.54643" lon="5.79204">
        <ele>707.8</ele>
        <time>2021-10-17T06:39:30Z</time>
      </trkpt>
      <trkpt lat="46.54639" lon="5.79208">
        <ele>708</ele>
        <time>2021-10-17T06:39:31Z</time>
      </trkpt>
      <trkpt lat="46.54636" lon="5.79211">
        <ele>708.2</ele>
        <time>2021-10-17T06:39:32Z</time>
      </trkpt>
      <trkpt lat="46.54633" lon="5.79214">
        <ele>708.4</ele>
        <time>2021-10-17T06:39:33Z</time>
      </trkpt>
      <trkpt lat="46.54631" lon="5.79217">
        <ele>708.4</ele>
        <time>2021-10-17T06:39:34Z</time>
      </trkpt>
      <trkpt lat="46.54628" lon="5.7922">
        <ele>708.8</ele>
        <time>2021-10-17T06:39:35Z</time>
      </trkpt>
      <trkpt lat="46.54625" lon="5.79223">
        <ele>708.8</ele>
        <time>2021-10-17T06:39:36Z</time>
      </trkpt>
      <trkpt lat="46.54622" lon="5.79226">
        <ele>708.8</ele>
        <time>2021-10-17T06:39:37Z</time>
      </trkpt>
      <trkpt lat="46.54619" lon="5.79229">
        <ele>709</ele>
        <time>2021-10-17T06:39:38Z</time>
      </trkpt>
      <trkpt lat="46.54615" lon="5.79232">
        <ele>709</ele>
        <time>2021-10-17T06:39:39Z</time>
      </trkpt>
      <trkpt lat="46.54612" lon="5.79235">
        <ele>709.2</ele>
        <time>2021-10-17T06:39:40Z</time>
      </trkpt>
      <trkpt lat="46.54608" lon="5.79237">
        <ele>709.2</ele>
        <time>2021-10-17T06:39:41Z</time>
      </trkpt>
      <trkpt lat="46.54604" lon="5.79239">
        <ele>709.6</ele>
        <time>2021-10-17T06:39:42Z</time>
      </trkpt>
      <trkpt lat="46.546" lon="5.79241">
        <ele>709.6</ele>
        <time>2021-10-17T06:39:43Z</time>
      </trkpt>
      <trkpt lat="46.54596" lon="5.79244">
        <ele>709.6</ele>
        <time>2021-10-17T06:39:44Z</time>
      </trkpt>
      <trkpt lat="46.54591" lon="5.79246">
        <ele>709.6</ele>
        <time>2021-10-17T06:39:45Z</time>
      </trkpt>
      <trkpt lat="46.54587" lon="5.79248">
        <ele>709.8</ele>
        <time>2021-10-17T06:39:46Z</time>
      </trkpt>
      <trkpt lat="46.54583" lon="5.79249">
        <ele>709.8</ele>
        <time>2021-10-17T06:39:47Z</time>
      </trkpt>
      <trkpt lat="46.54579" lon="5.7925">
        <ele>709.8</ele>
        <time>2021-10-17T06:39:48Z</time>
      </trkpt>
      <trkpt lat="46.54575" lon="5.7925">
        <ele>710</ele>
        <time>2021-10-17T06:39:49Z</time>
      </trkpt>
      <trkpt lat="46.54571" lon="5.79251">
        <ele>710</ele>
        <time>2021-10-17T06:39:50Z</time>
      </trkpt>
      <trkpt lat="46.54567" lon="5.79251">
        <ele>710</ele>
        <time>2021-10-17T06:39:51Z</time>
      </trkpt>
      <trkpt lat="46.54562" lon="5.79251">
        <ele>710.4</ele>
        <time>2021-10-17T06:39:52Z</time>
      </trkpt>
      <trkpt lat="46.54557" lon="5.79251">
        <ele>710.4</ele>
        <time>2021-10-17T06:39:53Z</time>
      </trkpt>
      <trkpt lat="46.54553" lon="5.79251">
        <ele>710.6</ele>
        <time>2021-10-17T06:39:54Z</time>
      </trkpt>
      <trkpt lat="46.54548" lon="5.79252">
        <ele>710.6</ele>
        <time>2021-10-17T06:39:55Z</time>
      </trkpt>
      <trkpt lat="46.54544" lon="5.79253">
        <ele>711</ele>
        <time>2021-10-17T06:39:56Z</time>
      </trkpt>
      <trkpt lat="46.5454" lon="5.79254">
        <ele>711</ele>
        <time>2021-10-17T06:39:57Z</time>
      </trkpt>
      <trkpt lat="46.54536" lon="5.79256">
        <ele>711</ele>
        <time>2021-10-17T06:39:58Z</time>
      </trkpt>
      <trkpt lat="46.54533" lon="5.79257">
        <ele>711</ele>
        <time>2021-10-17T06:39:59Z</time>
      </trkpt>
      <trkpt lat="46.54529" lon="5.79259">
        <ele>711</ele>
        <time>2021-10-17T06:40:00Z</time>
      </trkpt>
      <trkpt lat="46.54526" lon="5.79262">
        <ele>711</ele>
        <time>2021-10-17T06:40:01Z</time>
      </trkpt>
      <trkpt lat="46.54523" lon="5.79264">
        <ele>711.2</ele>
        <time>2021-10-17T06:40:02Z</time>
      </trkpt>
      <trkpt lat="46.5452" lon="5.79267">
        <ele>711.2</ele>
        <time>2021-10-17T06:40:05Z</time>
      </trkpt>
      <trkpt lat="46.54517" lon="5.7927">
        <ele>711.4</ele>
        <time>2021-10-17T06:40:06Z</time>
      </trkpt>
      <trkpt lat="46.54515" lon="5.79274">
        <ele>711.4</ele>
        <time>2021-10-17T06:40:07Z</time>
      </trkpt>
      <trkpt lat="46.54512" lon="5.79278">
        <ele>711.8</ele>
        <time>2021-10-17T06:40:08Z</time>
      </trkpt>
      <trkpt lat="46.54509" lon="5.79281">
        <ele>711.8</ele>
        <time>2021-10-17T06:40:09Z</time>
      </trkpt>
      <trkpt lat="46.54506" lon="5.79285">
        <ele>712.2</ele>
        <time>2021-10-17T06:40:10Z</time>
      </trkpt>
      <trkpt lat="46.54504" lon="5.7929">
        <ele>712.4</ele>
        <time>2021-10-17T06:40:11Z</time>
      </trkpt>
      <trkpt lat="46.54502" lon="5.79294">
        <ele>712.4</ele>
        <time>2021-10-17T06:40:12Z</time>
      </trkpt>
      <trkpt lat="46.54499" lon="5.79298">
        <ele>712.6</ele>
        <time>2021-10-17T06:40:13Z</time>
      </trkpt>
      <trkpt lat="46.54496" lon="5.79301">
        <ele>712.6</ele>
        <time>2021-10-17T06:40:14Z</time>
      </trkpt>
      <trkpt lat="46.54493" lon="5.79304">
        <ele>713</ele>
        <time>2021-10-17T06:40:15Z</time>
      </trkpt>
      <trkpt lat="46.5449" lon="5.79307">
        <ele>713</ele>
        <time>2021-10-17T06:40:16Z</time>
      </trkpt>
      <trkpt lat="46.54487" lon="5.7931">
        <ele>713.4</ele>
        <time>2021-10-17T06:40:17Z</time>
      </trkpt>
      <trkpt lat="46.54484" lon="5.79314">
        <ele>713.4</ele>
        <time>2021-10-17T06:40:18Z</time>
      </trkpt>
      <trkpt lat="46.54481" lon="5.79317">
        <ele>713.6</ele>
        <time>2021-10-17T06:40:19Z</time>
      </trkpt>
      <trkpt lat="46.54478" lon="5.7932">
        <ele>713.8</ele>
        <time>2021-10-17T06:40:20Z</time>
      </trkpt>
      <trkpt lat="46.54475" lon="5.79322">
        <ele>713.8</ele>
        <time>2021-10-17T06:40:21Z</time>
      </trkpt>
      <trkpt lat="46.54472" lon="5.79325">
        <ele>714</ele>
        <time>2021-10-17T06:40:22Z</time>
      </trkpt>
      <trkpt lat="46.54469" lon="5.79328">
        <ele>714</ele>
        <time>2021-10-17T06:40:23Z</time>
      </trkpt>
      <trkpt lat="46.54467" lon="5.7933">
        <ele>714.4</ele>
        <time>2021-10-17T06:40:24Z</time>
      </trkpt>
      <trkpt lat="46.54464" lon="5.79333">
        <ele>714.4</ele>
        <time>2021-10-17T06:40:25Z</time>
      </trkpt>
      <trkpt lat="46.54462" lon="5.79336">
        <ele>714.6</ele>
        <time>2021-10-17T06:40:26Z</time>
      </trkpt>
      <trkpt lat="46.54459" lon="5.79339">
        <ele>714.6</ele>
        <time>2021-10-17T06:40:27Z</time>
      </trkpt>
      <trkpt lat="46.54456" lon="5.79342">
        <ele>715</ele>
        <time>2021-10-17T06:40:28Z</time>
      </trkpt>
      <trkpt lat="46.54453" lon="5.79346">
        <ele>715</ele>
        <time>2021-10-17T06:40:29Z</time>
      </trkpt>
      <trkpt lat="46.5445" lon="5.79348">
        <ele>715</ele>
        <time>2021-10-17T06:40:30Z</time>
      </trkpt>
      <trkpt lat="46.54447" lon="5.79352">
        <ele>715</ele>
        <time>2021-10-17T06:40:31Z</time>
      </trkpt>
      <trkpt lat="46.54444" lon="5.79355">
        <ele>715.2</ele>
        <time>2021-10-17T06:40:32Z</time>
      </trkpt>
      <trkpt lat="46.54441" lon="5.79358">
        <ele>715.2</ele>
        <time>2021-10-17T06:40:33Z</time>
      </trkpt>
      <trkpt lat="46.54438" lon="5.79361">
        <ele>715.4</ele>
        <time>2021-10-17T06:40:34Z</time>
      </trkpt>
      <trkpt lat="46.54435" lon="5.79364">
        <ele>715.4</ele>
        <time>2021-10-17T06:40:35Z</time>
      </trkpt>
      <trkpt lat="46.54432" lon="5.79366">
        <ele>715.8</ele>
        <time>2021-10-17T06:40:36Z</time>
      </trkpt>
      <trkpt lat="46.54429" lon="5.79369">
        <ele>715.8</ele>
        <time>2021-10-17T06:40:37Z</time>
      </trkpt>
      <trkpt lat="46.54426" lon="5.79372">
        <ele>716</ele>
        <time>2021-10-17T06:40:38Z</time>
      </trkpt>
      <trkpt lat="46.54422" lon="5.79374">
        <ele>716.4</ele>
        <time>2021-10-17T06:40:39Z</time>
      </trkpt>
      <trkpt lat="46.54419" lon="5.79377">
        <ele>716.4</ele>
        <time>2021-10-17T06:40:40Z</time>
      </trkpt>
      <trkpt lat="46.54416" lon="5.79379">
        <ele>716.6</ele>
        <time>2021-10-17T06:40:41Z</time>
      </trkpt>
      <trkpt lat="46.54413" lon="5.79382">
        <ele>716.6</ele>
        <time>2021-10-17T06:40:42Z</time>
      </trkpt>
      <trkpt lat="46.5441" lon="5.79384">
        <ele>717</ele>
        <time>2021-10-17T06:40:43Z</time>
      </trkpt>
      <trkpt lat="46.54407" lon="5.79387">
        <ele>717</ele>
        <time>2021-10-17T06:40:44Z</time>
      </trkpt>
      <trkpt lat="46.54404" lon="5.79389">
        <ele>717.2</ele>
        <time>2021-10-17T06:40:45Z</time>
      </trkpt>
      <trkpt lat="46.544" lon="5.79391">
        <ele>717.2</ele>
        <time>2021-10-17T06:40:46Z</time>
      </trkpt>
      <trkpt lat="46.54397" lon="5.79394">
        <ele>717.6</ele>
        <time>2021-10-17T06:40:47Z</time>
      </trkpt>
      <trkpt lat="46.54393" lon="5.79395">
        <ele>717.8</ele>
        <time>2021-10-17T06:40:48Z</time>
      </trkpt>
      <trkpt lat="46.5439" lon="5.79398">
        <ele>717.8</ele>
        <time>2021-10-17T06:40:49Z</time>
      </trkpt>
      <trkpt lat="46.54386" lon="5.794">
        <ele>718.2</ele>
        <time>2021-10-17T06:40:50Z</time>
      </trkpt>
      <trkpt lat="46.54382" lon="5.79402">
        <ele>718.4</ele>
        <time>2021-10-17T06:40:51Z</time>
      </trkpt>
      <trkpt lat="46.54379" lon="5.79404">
        <ele>718.4</ele>
        <time>2021-10-17T06:40:52Z</time>
      </trkpt>
      <trkpt lat="46.54375" lon="5.79406">
        <ele>718.8</ele>
        <time>2021-10-17T06:40:53Z</time>
      </trkpt>
      <trkpt lat="46.54371" lon="5.79407">
        <ele>718.8</ele>
        <time>2021-10-17T06:40:54Z</time>
      </trkpt>
      <trkpt lat="46.54368" lon="5.79408">
        <ele>719</ele>
        <time>2021-10-17T06:40:55Z</time>
      </trkpt>
      <trkpt lat="46.54364" lon="5.79409">
        <ele>719</ele>
        <time>2021-10-17T06:40:56Z</time>
      </trkpt>
      <trkpt lat="46.5436" lon="5.7941">
        <ele>719.2</ele>
        <time>2021-10-17T06:40:57Z</time>
      </trkpt>
      <trkpt lat="46.54357" lon="5.79411">
        <ele>719.4</ele>
        <time>2021-10-17T06:40:58Z</time>
      </trkpt>
      <trkpt lat="46.54354" lon="5.79411">
        <ele>719.4</ele>
        <time>2021-10-17T06:40:59Z</time>
      </trkpt>
      <trkpt lat="46.54351" lon="5.79411">
        <ele>719.8</ele>
        <time>2021-10-17T06:41:00Z</time>
      </trkpt>
      <trkpt lat="46.54347" lon="5.79412">
        <ele>719.8</ele>
        <time>2021-10-17T06:41:01Z</time>
      </trkpt>
      <trkpt lat="46.54344" lon="5.79412">
        <ele>720</ele>
        <time>2021-10-17T06:41:02Z</time>
      </trkpt>
      <trkpt lat="46.5434" lon="5.79413">
        <ele>720</ele>
        <time>2021-10-17T06:41:03Z</time>
      </trkpt>
      <trkpt lat="46.54337" lon="5.79413">
        <ele>720.4</ele>
        <time>2021-10-17T06:41:04Z</time>
      </trkpt>
      <trkpt lat="46.54333" lon="5.79413">
        <ele>720.4</ele>
        <time>2021-10-17T06:41:05Z</time>
      </trkpt>
      <trkpt lat="46.5433" lon="5.79413">
        <ele>720.8</ele>
        <time>2021-10-17T06:41:06Z</time>
      </trkpt>
      <trkpt lat="46.54327" lon="5.79412">
        <ele>720.8</ele>
        <time>2021-10-17T06:41:07Z</time>
      </trkpt>
      <trkpt lat="46.54324" lon="5.79412">
        <ele>721</ele>
        <time>2021-10-17T06:41:08Z</time>
      </trkpt>
      <trkpt lat="46.54321" lon="5.79412">
        <ele>721</ele>
        <time>2021-10-17T06:41:09Z</time>
      </trkpt>
      <trkpt lat="46.54318" lon="5.79412">
        <ele>721.4</ele>
        <time>2021-10-17T06:41:10Z</time>
      </trkpt>
      <trkpt lat="46.54315" lon="5.79411">
        <ele>721.4</ele>
        <time>2021-10-17T06:41:11Z</time>
      </trkpt>
      <trkpt lat="46.54312" lon="5.7941">
        <ele>721.8</ele>
        <time>2021-10-17T06:41:12Z</time>
      </trkpt>
      <trkpt lat="46.54309" lon="5.7941">
        <ele>722</ele>
        <time>2021-10-17T06:41:13Z</time>
      </trkpt>
      <trkpt lat="46.54306" lon="5.7941">
        <ele>722</ele>
        <time>2021-10-17T06:41:14Z</time>
      </trkpt>
      <trkpt lat="46.54303" lon="5.79409">
        <ele>722.4</ele>
        <time>2021-10-17T06:41:15Z</time>
      </trkpt>
      <trkpt lat="46.54299" lon="5.79408">
        <ele>722.6</ele>
        <time>2021-10-17T06:41:16Z</time>
      </trkpt>
      <trkpt lat="46.54296" lon="5.79408">
        <ele>722.6</ele>
        <time>2021-10-17T06:41:17Z</time>
      </trkpt>
      <trkpt lat="46.54293" lon="5.79407">
        <ele>722.8</ele>
        <time>2021-10-17T06:41:18Z</time>
      </trkpt>
      <trkpt lat="46.54289" lon="5.79406">
        <ele>723</ele>
        <time>2021-10-17T06:41:19Z</time>
      </trkpt>
      <trkpt lat="46.54286" lon="5.79405">
        <ele>723</ele>
        <time>2021-10-17T06:41:20Z</time>
      </trkpt>
      <trkpt lat="46.54283" lon="5.79406">
        <ele>723.6</ele>
        <time>2021-10-17T06:41:21Z</time>
      </trkpt>
      <trkpt lat="46.5428" lon="5.79406">
        <ele>723.6</ele>
        <time>2021-10-17T06:41:22Z</time>
      </trkpt>
      <trkpt lat="46.54277" lon="5.79406">
        <ele>723.8</ele>
        <time>2021-10-17T06:41:23Z</time>
      </trkpt>
      <trkpt lat="46.54274" lon="5.79406">
        <ele>724.2</ele>
        <time>2021-10-17T06:41:24Z</time>
      </trkpt>
      <trkpt lat="46.54271" lon="5.79406">
        <ele>724.4</ele>
        <time>2021-10-17T06:41:25Z</time>
      </trkpt>
      <trkpt lat="46.54268" lon="5.79406">
        <ele>724.6</ele>
        <time>2021-10-17T06:41:26Z</time>
      </trkpt>
      <trkpt lat="46.54264" lon="5.79406">
        <ele>725</ele>
        <time>2021-10-17T06:41:27Z</time>
      </trkpt>
      <trkpt lat="46.54261" lon="5.79407">
        <ele>725</ele>
        <time>2021-10-17T06:41:28Z</time>
      </trkpt>
      <trkpt lat="46.54258" lon="5.79408">
        <ele>725.4</ele>
        <time>2021-10-17T06:41:29Z</time>
      </trkpt>
      <trkpt lat="46.54255" lon="5.79409">
        <ele>725.4</ele>
        <time>2021-10-17T06:41:30Z</time>
      </trkpt>
      <trkpt lat="46.54251" lon="5.7941">
        <ele>725.8</ele>
        <time>2021-10-17T06:41:31Z</time>
      </trkpt>
      <trkpt lat="46.54247" lon="5.79412">
        <ele>726</ele>
        <time>2021-10-17T06:41:32Z</time>
      </trkpt>
      <trkpt lat="46.54244" lon="5.79413">
        <ele>726.2</ele>
        <time>2021-10-17T06:41:33Z</time>
      </trkpt>
      <trkpt lat="46.54241" lon="5.79414">
        <ele>726.4</ele>
        <time>2021-10-17T06:41:34Z</time>
      </trkpt>
      <trkpt lat="46.54238" lon="5.79417">
        <ele>726.8</ele>
        <time>2021-10-17T06:41:35Z</time>
      </trkpt>
      <trkpt lat="46.54234" lon="5.79419">
        <ele>726.8</ele>
        <time>2021-10-17T06:41:36Z</time>
      </trkpt>
      <trkpt lat="46.54231" lon="5.79421">
        <ele>727.2</ele>
        <time>2021-10-17T06:41:37Z</time>
      </trkpt>
      <trkpt lat="46.54229" lon="5.79424">
        <ele>727.2</ele>
        <time>2021-10-17T06:41:38Z</time>
      </trkpt>
      <trkpt lat="46.54226" lon="5.79427">
        <ele>727.4</ele>
        <time>2021-10-17T06:41:39Z</time>
      </trkpt>
      <trkpt lat="46.54224" lon="5.7943">
        <ele>727.4</ele>
        <time>2021-10-17T06:41:40Z</time>
      </trkpt>
      <trkpt lat="46.54222" lon="5.79433">
        <ele>727.6</ele>
        <time>2021-10-17T06:41:41Z</time>
      </trkpt>
      <trkpt lat="46.54219" lon="5.79437">
        <ele>727.6</ele>
        <time>2021-10-17T06:41:42Z</time>
      </trkpt>
      <trkpt lat="46.54217" lon="5.79441">
        <ele>728.2</ele>
        <time>2021-10-17T06:41:43Z</time>
      </trkpt>
      <trkpt lat="46.54215" lon="5.79444">
        <ele>728.2</ele>
        <time>2021-10-17T06:41:44Z</time>
      </trkpt>
      <trkpt lat="46.54212" lon="5.79448">
        <ele>728.4</ele>
        <time>2021-10-17T06:41:45Z</time>
      </trkpt>
      <trkpt lat="46.54209" lon="5.79451">
        <ele>728.6</ele>
        <time>2021-10-17T06:41:46Z</time>
      </trkpt>
      <trkpt lat="46.54207" lon="5.79454">
        <ele>728.6</ele>
        <time>2021-10-17T06:41:47Z</time>
      </trkpt>
      <trkpt lat="46.54204" lon="5.79458">
        <ele>729</ele>
        <time>2021-10-17T06:41:48Z</time>
      </trkpt>
      <trkpt lat="46.54202" lon="5.79461">
        <ele>729</ele>
        <time>2021-10-17T06:41:49Z</time>
      </trkpt>
      <trkpt lat="46.54199" lon="5.79465">
        <ele>729.2</ele>
        <time>2021-10-17T06:41:50Z</time>
      </trkpt>
      <trkpt lat="46.54196" lon="5.79469">
        <ele>729.4</ele>
        <time>2021-10-17T06:41:51Z</time>
      </trkpt>
      <trkpt lat="46.54193" lon="5.79472">
        <ele>729.4</ele>
        <time>2021-10-17T06:41:52Z</time>
      </trkpt>
      <trkpt lat="46.5419" lon="5.79475">
        <ele>729.6</ele>
        <time>2021-10-17T06:41:53Z</time>
      </trkpt>
      <trkpt lat="46.54187" lon="5.79478">
        <ele>729.6</ele>
        <time>2021-10-17T06:41:54Z</time>
      </trkpt>
      <trkpt lat="46.54184" lon="5.79482">
        <ele>730</ele>
        <time>2021-10-17T06:41:55Z</time>
      </trkpt>
      <trkpt lat="46.54181" lon="5.79485">
        <ele>730</ele>
        <time>2021-10-17T06:41:56Z</time>
      </trkpt>
      <trkpt lat="46.54178" lon="5.79488">
        <ele>730</ele>
        <time>2021-10-17T06:41:57Z</time>
      </trkpt>
      <trkpt lat="46.54174" lon="5.79492">
        <ele>730</ele>
        <time>2021-10-17T06:41:58Z</time>
      </trkpt>
      <trkpt lat="46.54172" lon="5.79495">
        <ele>730.2</ele>
        <time>2021-10-17T06:41:59Z</time>
      </trkpt>
      <trkpt lat="46.54168" lon="5.79498">
        <ele>730.2</ele>
        <time>2021-10-17T06:42:00Z</time>
      </trkpt>
      <trkpt lat="46.54163" lon="5.79501">
        <ele>730.2</ele>
        <time>2021-10-17T06:42:01Z</time>
      </trkpt>
      <trkpt lat="46.54159" lon="5.79505">
        <ele>730.2</ele>
        <time>2021-10-17T06:42:02Z</time>
      </trkpt>
      <trkpt lat="46.54155" lon="5.79508">
        <ele>730.2</ele>
        <time>2021-10-17T06:42:03Z</time>
      </trkpt>
      <trkpt lat="46.5415" lon="5.79511">
        <ele>730.2</ele>
        <time>2021-10-17T06:42:04Z</time>
      </trkpt>
      <trkpt lat="46.54146" lon="5.79514">
        <ele>730.2</ele>
        <time>2021-10-17T06:42:05Z</time>
      </trkpt>
      <trkpt lat="46.54141" lon="5.79518">
        <ele>730.2</ele>
        <time>2021-10-17T06:42:06Z</time>
      </trkpt>
      <trkpt lat="46.54137" lon="5.79522">
        <ele>730.2</ele>
        <time>2021-10-17T06:42:07Z</time>
      </trkpt>
      <trkpt lat="46.54132" lon="5.79525">
        <ele>730.2</ele>
        <time>2021-10-17T06:42:08Z</time>
      </trkpt>
      <trkpt lat="46.54127" lon="5.79528">
        <ele>730.2</ele>
        <time>2021-10-17T06:42:09Z</time>
      </trkpt>
      <trkpt lat="46.54122" lon="5.79531">
        <ele>730.2</ele>
        <time>2021-10-17T06:42:10Z</time>
      </trkpt>
      <trkpt lat="46.54118" lon="5.79533">
        <ele>730.2</ele>
        <time>2021-10-17T06:42:11Z</time>
      </trkpt>
      <trkpt lat="46.54113" lon="5.79535">
        <ele>730.2</ele>
        <time>2021-10-17T06:42:12Z</time>
      </trkpt>
      <trkpt lat="46.54108" lon="5.79538">
        <ele>730.2</ele>
        <time>2021-10-17T06:42:13Z</time>
      </trkpt>
      <trkpt lat="46.54103" lon="5.79539">
        <ele>730.2</ele>
        <time>2021-10-17T06:42:14Z</time>
      </trkpt>
      <trkpt lat="46.54098" lon="5.7954">
        <ele>730.4</ele>
        <time>2021-10-17T06:42:15Z</time>
      </trkpt>
      <trkpt lat="46.54093" lon="5.79542">
        <ele>730.4</ele>
        <time>2021-10-17T06:42:16Z</time>
      </trkpt>
      <trkpt lat="46.54089" lon="5.79543">
        <ele>730.6</ele>
        <time>2021-10-17T06:42:17Z</time>
      </trkpt>
      <trkpt lat="46.54084" lon="5.79544">
        <ele>730.6</ele>
        <time>2021-10-17T06:42:18Z</time>
      </trkpt>
      <trkpt lat="46.54079" lon="5.79545">
        <ele>730.6</ele>
        <time>2021-10-17T06:42:19Z</time>
      </trkpt>
      <trkpt lat="46.54074" lon="5.79545">
        <ele>730.8</ele>
        <time>2021-10-17T06:42:20Z</time>
      </trkpt>
      <trkpt lat="46.54069" lon="5.79545">
        <ele>730.8</ele>
        <time>2021-10-17T06:42:21Z</time>
      </trkpt>
      <trkpt lat="46.54064" lon="5.79544">
        <ele>730.8</ele>
        <time>2021-10-17T06:42:22Z</time>
      </trkpt>
      <trkpt lat="46.54059" lon="5.79543">
        <ele>731.2</ele>
        <time>2021-10-17T06:42:23Z</time>
      </trkpt>
      <trkpt lat="46.54054" lon="5.79542">
        <ele>731.2</ele>
        <time>2021-10-17T06:42:24Z</time>
      </trkpt>
      <trkpt lat="46.54049" lon="5.79541">
        <ele>731.2</ele>
        <time>2021-10-17T06:42:25Z</time>
      </trkpt>
      <trkpt lat="46.54044" lon="5.7954">
        <ele>731.2</ele>
        <time>2021-10-17T06:42:26Z</time>
      </trkpt>
      <trkpt lat="46.5404" lon="5.79538">
        <ele>731.4</ele>
        <time>2021-10-17T06:42:27Z</time>
      </trkpt>
      <trkpt lat="46.54035" lon="5.79536">
        <ele>731.4</ele>
        <time>2021-10-17T06:42:28Z</time>
      </trkpt>
      <trkpt lat="46.5403" lon="5.79534">
        <ele>731.4</ele>
        <time>2021-10-17T06:42:29Z</time>
      </trkpt>
      <trkpt lat="46.54025" lon="5.79532">
        <ele>731.4</ele>
        <time>2021-10-17T06:42:30Z</time>
      </trkpt>
      <trkpt lat="46.5402" lon="5.79529">
        <ele>731.6</ele>
        <time>2021-10-17T06:42:31Z</time>
      </trkpt>
      <trkpt lat="46.54015" lon="5.79526">
        <ele>731.6</ele>
        <time>2021-10-17T06:42:32Z</time>
      </trkpt>
      <trkpt lat="46.54011" lon="5.79523">
        <ele>731.6</ele>
        <time>2021-10-17T06:42:33Z</time>
      </trkpt>
      <trkpt lat="46.54006" lon="5.79519">
        <ele>731.6</ele>
        <time>2021-10-17T06:42:34Z</time>
      </trkpt>
      <trkpt lat="46.54002" lon="5.79516">
        <ele>731.6</ele>
        <time>2021-10-17T06:42:35Z</time>
      </trkpt>
      <trkpt lat="46.53998" lon="5.79512">
        <ele>731.6</ele>
        <time>2021-10-17T06:42:36Z</time>
      </trkpt>
      <trkpt lat="46.53994" lon="5.79509">
        <ele>731.8</ele>
        <time>2021-10-17T06:42:37Z</time>
      </trkpt>
      <trkpt lat="46.53989" lon="5.79505">
        <ele>731.8</ele>
        <time>2021-10-17T06:42:38Z</time>
      </trkpt>
      <trkpt lat="46.53985" lon="5.79501">
        <ele>731.8</ele>
        <time>2021-10-17T06:42:39Z</time>
      </trkpt>
      <trkpt lat="46.5398" lon="5.79498">
        <ele>731.8</ele>
        <time>2021-10-17T06:42:40Z</time>
      </trkpt>
      <trkpt lat="46.53975" lon="5.79494">
        <ele>731.8</ele>
        <time>2021-10-17T06:42:41Z</time>
      </trkpt>
      <trkpt lat="46.5397" lon="5.79491">
        <ele>731.8</ele>
        <time>2021-10-17T06:42:42Z</time>
      </trkpt>
      <trkpt lat="46.53965" lon="5.79487">
        <ele>731.8</ele>
        <time>2021-10-17T06:42:43Z</time>
      </trkpt>
      <trkpt lat="46.53959" lon="5.79484">
        <ele>731.8</ele>
        <time>2021-10-17T06:42:44Z</time>
      </trkpt>
      <trkpt lat="46.53953" lon="5.79481">
        <ele>731.6</ele>
        <time>2021-10-17T06:42:45Z</time>
      </trkpt>
      <trkpt lat="46.53947" lon="5.79478">
        <ele>731.6</ele>
        <time>2021-10-17T06:42:46Z</time>
      </trkpt>
      <trkpt lat="46.53941" lon="5.79475">
        <ele>731.4</ele>
        <time>2021-10-17T06:42:47Z</time>
      </trkpt>
      <trkpt lat="46.53935" lon="5.79472">
        <ele>731.2</ele>
        <time>2021-10-17T06:42:48Z</time>
      </trkpt>
      <trkpt lat="46.53929" lon="5.79469">
        <ele>731</ele>
        <time>2021-10-17T06:42:49Z</time>
      </trkpt>
      <trkpt lat="46.53922" lon="5.79466">
        <ele>731</ele>
        <time>2021-10-17T06:42:50Z</time>
      </trkpt>
      <trkpt lat="46.53915" lon="5.79464">
        <ele>730.8</ele>
        <time>2021-10-17T06:42:51Z</time>
      </trkpt>
      <trkpt lat="46.53908" lon="5.79461">
        <ele>730.6</ele>
        <time>2021-10-17T06:42:52Z</time>
      </trkpt>
      <trkpt lat="46.53901" lon="5.79458">
        <ele>730.6</ele>
        <time>2021-10-17T06:42:53Z</time>
      </trkpt>
      <trkpt lat="46.53894" lon="5.79456">
        <ele>730.2</ele>
        <time>2021-10-17T06:42:54Z</time>
      </trkpt>
      <trkpt lat="46.53887" lon="5.79454">
        <ele>730.2</ele>
        <time>2021-10-17T06:42:55Z</time>
      </trkpt>
      <trkpt lat="46.5388" lon="5.79452">
        <ele>730</ele>
        <time>2021-10-17T06:42:56Z</time>
      </trkpt>
      <trkpt lat="46.53873" lon="5.7945">
        <ele>730</ele>
        <time>2021-10-17T06:42:57Z</time>
      </trkpt>
      <trkpt lat="46.53866" lon="5.79449">
        <ele>729.6</ele>
        <time>2021-10-17T06:42:58Z</time>
      </trkpt>
      <trkpt lat="46.53858" lon="5.79447">
        <ele>729.4</ele>
        <time>2021-10-17T06:42:59Z</time>
      </trkpt>
      <trkpt lat="46.53851" lon="5.79446">
        <ele>729.4</ele>
        <time>2021-10-17T06:43:00Z</time>
      </trkpt>
      <trkpt lat="46.53844" lon="5.79445">
        <ele>729.2</ele>
        <time>2021-10-17T06:43:01Z</time>
      </trkpt>
      <trkpt lat="46.53836" lon="5.79443">
        <ele>729.2</ele>
        <time>2021-10-17T06:43:02Z</time>
      </trkpt>
      <trkpt lat="46.53829" lon="5.79441">
        <ele>729</ele>
        <time>2021-10-17T06:43:03Z</time>
      </trkpt>
      <trkpt lat="46.53822" lon="5.79439">
        <ele>729</ele>
        <time>2021-10-17T06:43:04Z</time>
      </trkpt>
      <trkpt lat="46.53815" lon="5.79436">
        <ele>728.6</ele>
        <time>2021-10-17T06:43:05Z</time>
      </trkpt>
      <trkpt lat="46.53808" lon="5.79433">
        <ele>728.6</ele>
        <time>2021-10-17T06:43:06Z</time>
      </trkpt>
      <trkpt lat="46.53801" lon="5.7943">
        <ele>728.4</ele>
        <time>2021-10-17T06:43:07Z</time>
      </trkpt>
      <trkpt lat="46.53793" lon="5.79427">
        <ele>728.4</ele>
        <time>2021-10-17T06:43:08Z</time>
      </trkpt>
      <trkpt lat="46.53786" lon="5.79424">
        <ele>728.2</ele>
        <time>2021-10-17T06:43:09Z</time>
      </trkpt>
      <trkpt lat="46.5378" lon="5.79421">
        <ele>728.2</ele>
        <time>2021-10-17T06:43:10Z</time>
      </trkpt>
      <trkpt lat="46.53773" lon="5.79418">
        <ele>728.2</ele>
        <time>2021-10-17T06:43:11Z</time>
      </trkpt>
      <trkpt lat="46.53767" lon="5.79416">
        <ele>728.2</ele>
        <time>2021-10-17T06:43:12Z</time>
      </trkpt>
      <trkpt lat="46.53761" lon="5.79414">
        <ele>728.2</ele>
        <time>2021-10-17T06:43:13Z</time>
      </trkpt>
      <trkpt lat="46.53754" lon="5.79411">
        <ele>728.2</ele>
        <time>2021-10-17T06:43:14Z</time>
      </trkpt>
      <trkpt lat="46.53748" lon="5.7941">
        <ele>728.4</ele>
        <time>2021-10-17T06:43:15Z</time>
      </trkpt>
      <trkpt lat="46.53742" lon="5.79408">
        <ele>728.6</ele>
        <time>2021-10-17T06:43:16Z</time>
      </trkpt>
      <trkpt lat="46.53737" lon="5.79407">
        <ele>728.8</ele>
        <time>2021-10-17T06:43:17Z</time>
      </trkpt>
      <trkpt lat="46.53731" lon="5.79405">
        <ele>728.8</ele>
        <time>2021-10-17T06:43:18Z</time>
      </trkpt>
      <trkpt lat="46.53725" lon="5.79403">
        <ele>728.8</ele>
        <time>2021-10-17T06:43:19Z</time>
      </trkpt>
      <trkpt lat="46.5372" lon="5.79401">
        <ele>729.2</ele>
        <time>2021-10-17T06:43:20Z</time>
      </trkpt>
      <trkpt lat="46.53714" lon="5.794">
        <ele>729.2</ele>
        <time>2021-10-17T06:43:21Z</time>
      </trkpt>
      <trkpt lat="46.53709" lon="5.79399">
        <ele>729.2</ele>
        <time>2021-10-17T06:43:22Z</time>
      </trkpt>
      <trkpt lat="46.53703" lon="5.79399">
        <ele>729.2</ele>
        <time>2021-10-17T06:43:23Z</time>
      </trkpt>
      <trkpt lat="46.53697" lon="5.794">
        <ele>729.4</ele>
        <time>2021-10-17T06:43:24Z</time>
      </trkpt>
      <trkpt lat="46.53692" lon="5.794">
        <ele>729.4</ele>
        <time>2021-10-17T06:43:25Z</time>
      </trkpt>
      <trkpt lat="46.53687" lon="5.794">
        <ele>729.4</ele>
        <time>2021-10-17T06:43:26Z</time>
      </trkpt>
      <trkpt lat="46.53682" lon="5.794">
        <ele>729.6</ele>
        <time>2021-10-17T06:43:27Z</time>
      </trkpt>
      <trkpt lat="46.53677" lon="5.794">
        <ele>730</ele>
        <time>2021-10-17T06:43:28Z</time>
      </trkpt>
      <trkpt lat="46.53673" lon="5.79401">
        <ele>730</ele>
        <time>2021-10-17T06:43:29Z</time>
      </trkpt>
      <trkpt lat="46.53668" lon="5.79401">
        <ele>730.2</ele>
        <time>2021-10-17T06:43:30Z</time>
      </trkpt>
      <trkpt lat="46.53664" lon="5.79401">
        <ele>730.2</ele>
        <time>2021-10-17T06:43:31Z</time>
      </trkpt>
      <trkpt lat="46.5366" lon="5.79401">
        <ele>730.6</ele>
        <time>2021-10-17T06:43:32Z</time>
      </trkpt>
      <trkpt lat="46.53656" lon="5.79401">
        <ele>730.6</ele>
        <time>2021-10-17T06:43:33Z</time>
      </trkpt>
      <trkpt lat="46.53652" lon="5.79401">
        <ele>730.8</ele>
        <time>2021-10-17T06:43:34Z</time>
      </trkpt>
      <trkpt lat="46.53649" lon="5.79401">
        <ele>730.8</ele>
        <time>2021-10-17T06:43:35Z</time>
      </trkpt>
      <trkpt lat="46.53645" lon="5.79403">
        <ele>731</ele>
        <time>2021-10-17T06:43:36Z</time>
      </trkpt>
      <trkpt lat="46.53641" lon="5.79404">
        <ele>731</ele>
        <time>2021-10-17T06:43:37Z</time>
      </trkpt>
      <trkpt lat="46.53637" lon="5.79405">
        <ele>731.4</ele>
        <time>2021-10-17T06:43:38Z</time>
      </trkpt>
      <trkpt lat="46.53633" lon="5.79405">
        <ele>731.4</ele>
        <time>2021-10-17T06:43:39Z</time>
      </trkpt>
      <trkpt lat="46.53629" lon="5.79405">
        <ele>731.8</ele>
        <time>2021-10-17T06:43:40Z</time>
      </trkpt>
      <trkpt lat="46.53625" lon="5.79406">
        <ele>732</ele>
        <time>2021-10-17T06:43:41Z</time>
      </trkpt>
      <trkpt lat="46.53621" lon="5.79406">
        <ele>732.2</ele>
        <time>2021-10-17T06:43:42Z</time>
      </trkpt>
      <trkpt lat="46.53617" lon="5.79406">
        <ele>732.2</ele>
        <time>2021-10-17T06:43:43Z</time>
      </trkpt>
      <trkpt lat="46.53614" lon="5.79406">
        <ele>732.2</ele>
        <time>2021-10-17T06:43:44Z</time>
      </trkpt>
      <trkpt lat="46.5361" lon="5.79406">
        <ele>732.4</ele>
        <time>2021-10-17T06:43:45Z</time>
      </trkpt>
      <trkpt lat="46.53606" lon="5.79406">
        <ele>732.4</ele>
        <time>2021-10-17T06:43:46Z</time>
      </trkpt>
      <trkpt lat="46.53602" lon="5.79406">
        <ele>732.6</ele>
        <time>2021-10-17T06:43:47Z</time>
      </trkpt>
      <trkpt lat="46.53598" lon="5.79407">
        <ele>732.6</ele>
        <time>2021-10-17T06:43:48Z</time>
      </trkpt>
      <trkpt lat="46.53594" lon="5.79407">
        <ele>733</ele>
        <time>2021-10-17T06:43:49Z</time>
      </trkpt>
      <trkpt lat="46.53591" lon="5.79407">
        <ele>733</ele>
        <time>2021-10-17T06:43:50Z</time>
      </trkpt>
      <trkpt lat="46.53587" lon="5.79408">
        <ele>733</ele>
        <time>2021-10-17T06:43:51Z</time>
      </trkpt>
      <trkpt lat="46.53583" lon="5.79408">
        <ele>733</ele>
        <time>2021-10-17T06:43:52Z</time>
      </trkpt>
      <trkpt lat="46.5358" lon="5.79407">
        <ele>733.2</ele>
        <time>2021-10-17T06:43:53Z</time>
      </trkpt>
      <trkpt lat="46.53576" lon="5.79407">
        <ele>733.2</ele>
        <time>2021-10-17T06:43:54Z</time>
      </trkpt>
      <trkpt lat="46.53572" lon="5.79407">
        <ele>733.4</ele>
        <time>2021-10-17T06:43:55Z</time>
      </trkpt>
      <trkpt lat="46.53568" lon="5.79406">
        <ele>733.4</ele>
        <time>2021-10-17T06:43:56Z</time>
      </trkpt>
      <trkpt lat="46.53565" lon="5.79405">
        <ele>733.8</ele>
        <time>2021-10-17T06:43:57Z</time>
      </trkpt>
      <trkpt lat="46.53561" lon="5.79404">
        <ele>733.8</ele>
        <time>2021-10-17T06:43:58Z</time>
      </trkpt>
      <trkpt lat="46.53557" lon="5.79404">
        <ele>734</ele>
        <time>2021-10-17T06:43:59Z</time>
      </trkpt>
      <trkpt lat="46.53554" lon="5.79403">
        <ele>734</ele>
        <time>2021-10-17T06:44:00Z</time>
      </trkpt>
      <trkpt lat="46.5355" lon="5.79403">
        <ele>734.4</ele>
        <time>2021-10-17T06:44:01Z</time>
      </trkpt>
      <trkpt lat="46.53547" lon="5.79402">
        <ele>734.4</ele>
        <time>2021-10-17T06:44:02Z</time>
      </trkpt>
      <trkpt lat="46.53544" lon="5.79401">
        <ele>734.6</ele>
        <time>2021-10-17T06:44:03Z</time>
      </trkpt>
      <trkpt lat="46.53541" lon="5.794">
        <ele>734.6</ele>
        <time>2021-10-17T06:44:04Z</time>
      </trkpt>
      <trkpt lat="46.53539" lon="5.79399">
        <ele>734.8</ele>
        <time>2021-10-17T06:44:05Z</time>
      </trkpt>
      <trkpt lat="46.53535" lon="5.79398">
        <ele>734.8</ele>
        <time>2021-10-17T06:44:06Z</time>
      </trkpt>
      <trkpt lat="46.53532" lon="5.79398">
        <ele>735</ele>
        <time>2021-10-17T06:44:07Z</time>
      </trkpt>
      <trkpt lat="46.53529" lon="5.79397">
        <ele>735</ele>
        <time>2021-10-17T06:44:08Z</time>
      </trkpt>
      <trkpt lat="46.53526" lon="5.79396">
        <ele>735.4</ele>
        <time>2021-10-17T06:44:09Z</time>
      </trkpt>
      <trkpt lat="46.53523" lon="5.79396">
        <ele>735.4</ele>
        <time>2021-10-17T06:44:10Z</time>
      </trkpt>
      <trkpt lat="46.53521" lon="5.79395">
        <ele>735.6</ele>
        <time>2021-10-17T06:44:11Z</time>
      </trkpt>
      <trkpt lat="46.53517" lon="5.79394">
        <ele>735.6</ele>
        <time>2021-10-17T06:44:12Z</time>
      </trkpt>
      <trkpt lat="46.53514" lon="5.79393">
        <ele>735.8</ele>
        <time>2021-10-17T06:44:13Z</time>
      </trkpt>
      <trkpt lat="46.5351" lon="5.79392">
        <ele>735.8</ele>
        <time>2021-10-17T06:44:14Z</time>
      </trkpt>
      <trkpt lat="46.53506" lon="5.79391">
        <ele>735.8</ele>
        <time>2021-10-17T06:44:15Z</time>
      </trkpt>
      <trkpt lat="46.53503" lon="5.79389">
        <ele>736.2</ele>
        <time>2021-10-17T06:44:16Z</time>
      </trkpt>
      <trkpt lat="46.53499" lon="5.79388">
        <ele>736.2</ele>
        <time>2021-10-17T06:44:17Z</time>
      </trkpt>
      <trkpt lat="46.53495" lon="5.79388">
        <ele>736.4</ele>
        <time>2021-10-17T06:44:18Z</time>
      </trkpt>
      <trkpt lat="46.53492" lon="5.79388">
        <ele>736.4</ele>
        <time>2021-10-17T06:44:19Z</time>
      </trkpt>
      <trkpt lat="46.53489" lon="5.79387">
        <ele>736.8</ele>
        <time>2021-10-17T06:44:20Z</time>
      </trkpt>
      <trkpt lat="46.53486" lon="5.79385">
        <ele>737</ele>
        <time>2021-10-17T06:44:21Z</time>
      </trkpt>
      <trkpt lat="46.53483" lon="5.79384">
        <ele>737</ele>
        <time>2021-10-17T06:44:22Z</time>
      </trkpt>
      <trkpt lat="46.5348" lon="5.79383">
        <ele>737.2</ele>
        <time>2021-10-17T06:44:23Z</time>
      </trkpt>
      <trkpt lat="46.53477" lon="5.79382">
        <ele>737.2</ele>
        <time>2021-10-17T06:44:24Z</time>
      </trkpt>
      <trkpt lat="46.53473" lon="5.7938">
        <ele>737.6</ele>
        <time>2021-10-17T06:44:25Z</time>
      </trkpt>
      <trkpt lat="46.5347" lon="5.79378">
        <ele>737.6</ele>
        <time>2021-10-17T06:44:26Z</time>
      </trkpt>
      <trkpt lat="46.53467" lon="5.79376">
        <ele>737.8</ele>
        <time>2021-10-17T06:44:27Z</time>
      </trkpt>
      <trkpt lat="46.53464" lon="5.79374">
        <ele>737.8</ele>
        <time>2021-10-17T06:44:28Z</time>
      </trkpt>
      <trkpt lat="46.5346" lon="5.79373">
        <ele>738</ele>
        <time>2021-10-17T06:44:29Z</time>
      </trkpt>
      <trkpt lat="46.53457" lon="5.79371">
        <ele>738</ele>
        <time>2021-10-17T06:44:30Z</time>
      </trkpt>
      <trkpt lat="46.53453" lon="5.79369">
        <ele>738</ele>
        <time>2021-10-17T06:44:31Z</time>
      </trkpt>
      <trkpt lat="46.53448" lon="5.79367">
        <ele>738</ele>
        <time>2021-10-17T06:44:32Z</time>
      </trkpt>
      <trkpt lat="46.53445" lon="5.79365">
        <ele>738.2</ele>
        <time>2021-10-17T06:44:33Z</time>
      </trkpt>
      <trkpt lat="46.53441" lon="5.79362">
        <ele>738.2</ele>
        <time>2021-10-17T06:44:34Z</time>
      </trkpt>
      <trkpt lat="46.53437" lon="5.79359">
        <ele>738.2</ele>
        <time>2021-10-17T06:44:35Z</time>
      </trkpt>
      <trkpt lat="46.53434" lon="5.79356">
        <ele>738.4</ele>
        <time>2021-10-17T06:44:36Z</time>
      </trkpt>
      <trkpt lat="46.5343" lon="5.79353">
        <ele>738.4</ele>
        <time>2021-10-17T06:44:37Z</time>
      </trkpt>
      <trkpt lat="46.53427" lon="5.79349">
        <ele>738.4</ele>
        <time>2021-10-17T06:44:38Z</time>
      </trkpt>
      <trkpt lat="46.53424" lon="5.79346">
        <ele>738.4</ele>
        <time>2021-10-17T06:44:39Z</time>
      </trkpt>
      <trkpt lat="46.53421" lon="5.79342">
        <ele>738.6</ele>
        <time>2021-10-17T06:44:40Z</time>
      </trkpt>
      <trkpt lat="46.53417" lon="5.79339">
        <ele>738.6</ele>
        <time>2021-10-17T06:44:41Z</time>
      </trkpt>
      <trkpt lat="46.53414" lon="5.79335">
        <ele>738.6</ele>
        <time>2021-10-17T06:44:42Z</time>
      </trkpt>
      <trkpt lat="46.53411" lon="5.79331">
        <ele>739</ele>
        <time>2021-10-17T06:44:43Z</time>
      </trkpt>
      <trkpt lat="46.53408" lon="5.79327">
        <ele>739</ele>
        <time>2021-10-17T06:44:44Z</time>
      </trkpt>
      <trkpt lat="46.53406" lon="5.79322">
        <ele>739</ele>
        <time>2021-10-17T06:44:45Z</time>
      </trkpt>
      <trkpt lat="46.53403" lon="5.79317">
        <ele>739.2</ele>
        <time>2021-10-17T06:44:46Z</time>
      </trkpt>
      <trkpt lat="46.534" lon="5.79311">
        <ele>739.2</ele>
        <time>2021-10-17T06:44:47Z</time>
      </trkpt>
      <trkpt lat="46.53397" lon="5.79306">
        <ele>739.2</ele>
        <time>2021-10-17T06:44:48Z</time>
      </trkpt>
      <trkpt lat="46.53394" lon="5.79301">
        <ele>739.2</ele>
        <time>2021-10-17T06:44:49Z</time>
      </trkpt>
      <trkpt lat="46.53391" lon="5.79295">
        <ele>739.4</ele>
        <time>2021-10-17T06:44:50Z</time>
      </trkpt>
      <trkpt lat="46.53388" lon="5.7929">
        <ele>739.4</ele>
        <time>2021-10-17T06:44:51Z</time>
      </trkpt>
      <trkpt lat="46.53385" lon="5.79285">
        <ele>739.6</ele>
        <time>2021-10-17T06:44:52Z</time>
      </trkpt>
      <trkpt lat="46.53382" lon="5.7928">
        <ele>739.6</ele>
        <time>2021-10-17T06:44:53Z</time>
      </trkpt>
      <trkpt lat="46.53379" lon="5.79276">
        <ele>739.8</ele>
        <time>2021-10-17T06:44:54Z</time>
      </trkpt>
      <trkpt lat="46.53375" lon="5.79271">
        <ele>739.8</ele>
        <time>2021-10-17T06:44:55Z</time>
      </trkpt>
      <trkpt lat="46.53372" lon="5.79267">
        <ele>740</ele>
        <time>2021-10-17T06:44:56Z</time>
      </trkpt>
      <trkpt lat="46.53368" lon="5.79263">
        <ele>740</ele>
        <time>2021-10-17T06:44:57Z</time>
      </trkpt>
      <trkpt lat="46.53365" lon="5.79259">
        <ele>740</ele>
        <time>2021-10-17T06:44:58Z</time>
      </trkpt>
      <trkpt lat="46.53361" lon="5.79256">
        <ele>740.4</ele>
        <time>2021-10-17T06:44:59Z</time>
      </trkpt>
      <trkpt lat="46.53357" lon="5.79252">
        <ele>740.4</ele>
        <time>2021-10-17T06:45:00Z</time>
      </trkpt>
      <trkpt lat="46.53353" lon="5.79249">
        <ele>740.4</ele>
        <time>2021-10-17T06:45:01Z</time>
      </trkpt>
      <trkpt lat="46.53349" lon="5.79246">
        <ele>740.4</ele>
        <time>2021-10-17T06:45:02Z</time>
      </trkpt>
      <trkpt lat="46.53345" lon="5.79243">
        <ele>740.6</ele>
        <time>2021-10-17T06:45:03Z</time>
      </trkpt>
      <trkpt lat="46.53341" lon="5.7924">
        <ele>740.6</ele>
        <time>2021-10-17T06:45:04Z</time>
      </trkpt>
      <trkpt lat="46.53336" lon="5.79238">
        <ele>740.6</ele>
        <time>2021-10-17T06:45:05Z</time>
      </trkpt>
      <trkpt lat="46.53332" lon="5.79235">
        <ele>740.6</ele>
        <time>2021-10-17T06:45:06Z</time>
      </trkpt>
      <trkpt lat="46.53328" lon="5.79232">
        <ele>740.8</ele>
        <time>2021-10-17T06:45:07Z</time>
      </trkpt>
      <trkpt lat="46.53324" lon="5.7923">
        <ele>740.8</ele>
        <time>2021-10-17T06:45:08Z</time>
      </trkpt>
      <trkpt lat="46.53319" lon="5.79227">
        <ele>741</ele>
        <time>2021-10-17T06:45:09Z</time>
      </trkpt>
      <trkpt lat="46.53315" lon="5.79224">
        <ele>741</ele>
        <time>2021-10-17T06:45:10Z</time>
      </trkpt>
      <trkpt lat="46.53311" lon="5.79222">
        <ele>741</ele>
        <time>2021-10-17T06:45:11Z</time>
      </trkpt>
      <trkpt lat="46.53307" lon="5.79219">
        <ele>741</ele>
        <time>2021-10-17T06:45:12Z</time>
      </trkpt>
      <trkpt lat="46.53302" lon="5.79216">
        <ele>741.2</ele>
        <time>2021-10-17T06:45:13Z</time>
      </trkpt>
      <trkpt lat="46.53298" lon="5.79213">
        <ele>741.2</ele>
        <time>2021-10-17T06:45:14Z</time>
      </trkpt>
      <trkpt lat="46.53294" lon="5.7921">
        <ele>741.2</ele>
        <time>2021-10-17T06:45:15Z</time>
      </trkpt>
      <trkpt lat="46.5329" lon="5.79207">
        <ele>741.6</ele>
        <time>2021-10-17T06:45:16Z</time>
      </trkpt>
      <trkpt lat="46.53286" lon="5.79203">
        <ele>741.6</ele>
        <time>2021-10-17T06:45:17Z</time>
      </trkpt>
      <trkpt lat="46.53282" lon="5.792">
        <ele>741.8</ele>
        <time>2021-10-17T06:45:18Z</time>
      </trkpt>
      <trkpt lat="46.53278" lon="5.79196">
        <ele>741.8</ele>
        <time>2021-10-17T06:45:19Z</time>
      </trkpt>
      <trkpt lat="46.53274" lon="5.79193">
        <ele>742</ele>
        <time>2021-10-17T06:45:20Z</time>
      </trkpt>
      <trkpt lat="46.53271" lon="5.79189">
        <ele>742</ele>
        <time>2021-10-17T06:45:21Z</time>
      </trkpt>
      <trkpt lat="46.53267" lon="5.79185">
        <ele>742</ele>
        <time>2021-10-17T06:45:22Z</time>
      </trkpt>
      <trkpt lat="46.53263" lon="5.79181">
        <ele>742.4</ele>
        <time>2021-10-17T06:45:23Z</time>
      </trkpt>
      <trkpt lat="46.5326" lon="5.79177">
        <ele>742.4</ele>
        <time>2021-10-17T06:45:24Z</time>
      </trkpt>
      <trkpt lat="46.53256" lon="5.79173">
        <ele>742.4</ele>
        <time>2021-10-17T06:45:25Z</time>
      </trkpt>
      <trkpt lat="46.53253" lon="5.79169">
        <ele>742.6</ele>
        <time>2021-10-17T06:45:26Z</time>
      </trkpt>
      <trkpt lat="46.53249" lon="5.79165">
        <ele>742.6</ele>
        <time>2021-10-17T06:45:27Z</time>
      </trkpt>
      <trkpt lat="46.53245" lon="5.79161">
        <ele>742.6</ele>
        <time>2021-10-17T06:45:28Z</time>
      </trkpt>
      <trkpt lat="46.53241" lon="5.79157">
        <ele>742.8</ele>
        <time>2021-10-17T06:45:29Z</time>
      </trkpt>
      <trkpt lat="46.53237" lon="5.79154">
        <ele>742.8</ele>
        <time>2021-10-17T06:45:30Z</time>
      </trkpt>
      <trkpt lat="46.53234" lon="5.79151">
        <ele>742.8</ele>
        <time>2021-10-17T06:45:31Z</time>
      </trkpt>
      <trkpt lat="46.5323" lon="5.79147">
        <ele>743</ele>
        <time>2021-10-17T06:45:32Z</time>
      </trkpt>
      <trkpt lat="46.53226" lon="5.79144">
        <ele>743</ele>
        <time>2021-10-17T06:45:33Z</time>
      </trkpt>
      <trkpt lat="46.53222" lon="5.79141">
        <ele>743</ele>
        <time>2021-10-17T06:45:34Z</time>
      </trkpt>
      <trkpt lat="46.53217" lon="5.79138">
        <ele>743</ele>
        <time>2021-10-17T06:45:35Z</time>
      </trkpt>
      <trkpt lat="46.53213" lon="5.79136">
        <ele>743</ele>
        <time>2021-10-17T06:45:36Z</time>
      </trkpt>
      <trkpt lat="46.53209" lon="5.79133">
        <ele>743</ele>
        <time>2021-10-17T06:45:37Z</time>
      </trkpt>
      <trkpt lat="46.53205" lon="5.7913">
        <ele>743.2</ele>
        <time>2021-10-17T06:45:38Z</time>
      </trkpt>
      <trkpt lat="46.532" lon="5.79128">
        <ele>743.2</ele>
        <time>2021-10-17T06:45:39Z</time>
      </trkpt>
      <trkpt lat="46.53196" lon="5.79125">
        <ele>743.4</ele>
        <time>2021-10-17T06:45:40Z</time>
      </trkpt>
      <trkpt lat="46.53191" lon="5.79122">
        <ele>743.4</ele>
        <time>2021-10-17T06:45:41Z</time>
      </trkpt>
      <trkpt lat="46.53187" lon="5.7912">
        <ele>743.4</ele>
        <time>2021-10-17T06:45:42Z</time>
      </trkpt>
      <trkpt lat="46.53183" lon="5.79118">
        <ele>743.4</ele>
        <time>2021-10-17T06:45:43Z</time>
      </trkpt>
      <trkpt lat="46.53178" lon="5.79116">
        <ele>743.4</ele>
        <time>2021-10-17T06:45:44Z</time>
      </trkpt>
      <trkpt lat="46.53174" lon="5.79114">
        <ele>743.4</ele>
        <time>2021-10-17T06:45:45Z</time>
      </trkpt>
      <trkpt lat="46.5317" lon="5.79112">
        <ele>743.8</ele>
        <time>2021-10-17T06:45:46Z</time>
      </trkpt>
      <trkpt lat="46.53165" lon="5.79109">
        <ele>743.8</ele>
        <time>2021-10-17T06:45:47Z</time>
      </trkpt>
      <trkpt lat="46.53161" lon="5.79107">
        <ele>744.2</ele>
        <time>2021-10-17T06:45:48Z</time>
      </trkpt>
      <trkpt lat="46.53157" lon="5.79105">
        <ele>744.2</ele>
        <time>2021-10-17T06:45:49Z</time>
      </trkpt>
      <trkpt lat="46.53152" lon="5.79103">
        <ele>744.2</ele>
        <time>2021-10-17T06:45:50Z</time>
      </trkpt>
      <trkpt lat="46.53147" lon="5.79101">
        <ele>744.4</ele>
        <time>2021-10-17T06:45:51Z</time>
      </trkpt>
      <trkpt lat="46.53143" lon="5.79099">
        <ele>744.4</ele>
        <time>2021-10-17T06:45:52Z</time>
      </trkpt>
      <trkpt lat="46.53138" lon="5.79097">
        <ele>744.4</ele>
        <time>2021-10-17T06:45:53Z</time>
      </trkpt>
      <trkpt lat="46.53134" lon="5.79095">
        <ele>744.8</ele>
        <time>2021-10-17T06:45:54Z</time>
      </trkpt>
      <trkpt lat="46.53129" lon="5.79092">
        <ele>744.8</ele>
        <time>2021-10-17T06:45:55Z</time>
      </trkpt>
      <trkpt lat="46.53125" lon="5.7909">
        <ele>745</ele>
        <time>2021-10-17T06:45:56Z</time>
      </trkpt>
      <trkpt lat="46.53121" lon="5.79088">
        <ele>745</ele>
        <time>2021-10-17T06:45:57Z</time>
      </trkpt>
      <trkpt lat="46.53117" lon="5.79085">
        <ele>745.4</ele>
        <time>2021-10-17T06:45:58Z</time>
      </trkpt>
      <trkpt lat="46.53112" lon="5.79083">
        <ele>745.4</ele>
        <time>2021-10-17T06:45:59Z</time>
      </trkpt>
      <trkpt lat="46.53108" lon="5.79081">
        <ele>745.4</ele>
        <time>2021-10-17T06:46:00Z</time>
      </trkpt>
      <trkpt lat="46.53103" lon="5.79079">
        <ele>745.6</ele>
        <time>2021-10-17T06:46:01Z</time>
      </trkpt>
      <trkpt lat="46.53098" lon="5.79076">
        <ele>745.6</ele>
        <time>2021-10-17T06:46:02Z</time>
      </trkpt>
      <trkpt lat="46.53094" lon="5.79074">
        <ele>745.6</ele>
        <time>2021-10-17T06:46:03Z</time>
      </trkpt>
      <trkpt lat="46.53089" lon="5.79072">
        <ele>745.6</ele>
        <time>2021-10-17T06:46:04Z</time>
      </trkpt>
      <trkpt lat="46.53084" lon="5.7907">
        <ele>745.6</ele>
        <time>2021-10-17T06:46:05Z</time>
      </trkpt>
      <trkpt lat="46.53079" lon="5.79068">
        <ele>745.6</ele>
        <time>2021-10-17T06:46:06Z</time>
      </trkpt>
      <trkpt lat="46.53075" lon="5.79066">
        <ele>745.6</ele>
        <time>2021-10-17T06:46:07Z</time>
      </trkpt>
      <trkpt lat="46.5307" lon="5.79064">
        <ele>745.6</ele>
        <time>2021-10-17T06:46:08Z</time>
      </trkpt>
      <trkpt lat="46.53065" lon="5.79063">
        <ele>745.8</ele>
        <time>2021-10-17T06:46:09Z</time>
      </trkpt>
      <trkpt lat="46.5306" lon="5.79061">
        <ele>745.8</ele>
        <time>2021-10-17T06:46:10Z</time>
      </trkpt>
      <trkpt lat="46.53055" lon="5.7906">
        <ele>745.8</ele>
        <time>2021-10-17T06:46:11Z</time>
      </trkpt>
      <trkpt lat="46.5305" lon="5.79058">
        <ele>746.2</ele>
        <time>2021-10-17T06:46:12Z</time>
      </trkpt>
      <trkpt lat="46.53045" lon="5.79057">
        <ele>746.2</ele>
        <time>2021-10-17T06:46:13Z</time>
      </trkpt>
      <trkpt lat="46.5304" lon="5.79056">
        <ele>746.2</ele>
        <time>2021-10-17T06:46:14Z</time>
      </trkpt>
      <trkpt lat="46.53035" lon="5.79055">
        <ele>746.2</ele>
        <time>2021-10-17T06:46:15Z</time>
      </trkpt>
      <trkpt lat="46.5303" lon="5.79054">
        <ele>746.2</ele>
        <time>2021-10-17T06:46:16Z</time>
      </trkpt>
      <trkpt lat="46.53025" lon="5.79053">
        <ele>746.2</ele>
        <time>2021-10-17T06:46:17Z</time>
      </trkpt>
      <trkpt lat="46.53019" lon="5.79052">
        <ele>745.8</ele>
        <time>2021-10-17T06:46:18Z</time>
      </trkpt>
      <trkpt lat="46.53013" lon="5.79051">
        <ele>745.8</ele>
        <time>2021-10-17T06:46:19Z</time>
      </trkpt>
      <trkpt lat="46.53008" lon="5.79049">
        <ele>745.8</ele>
        <time>2021-10-17T06:46:20Z</time>
      </trkpt>
      <trkpt lat="46.53002" lon="5.79048">
        <ele>745.8</ele>
        <time>2021-10-17T06:46:21Z</time>
      </trkpt>
      <trkpt lat="46.52995" lon="5.79048">
        <ele>745.6</ele>
        <time>2021-10-17T06:46:22Z</time>
      </trkpt>
      <trkpt lat="46.52989" lon="5.79047">
        <ele>745.6</ele>
        <time>2021-10-17T06:46:23Z</time>
      </trkpt>
      <trkpt lat="46.52983" lon="5.79048">
        <ele>745.6</ele>
        <time>2021-10-17T06:46:24Z</time>
      </trkpt>
      <trkpt lat="46.52977" lon="5.79049">
        <ele>745.6</ele>
        <time>2021-10-17T06:46:25Z</time>
      </trkpt>
      <trkpt lat="46.52971" lon="5.7905">
        <ele>745.6</ele>
        <time>2021-10-17T06:46:26Z</time>
      </trkpt>
      <trkpt lat="46.52965" lon="5.79053">
        <ele>745.2</ele>
        <time>2021-10-17T06:46:27Z</time>
      </trkpt>
      <trkpt lat="46.52959" lon="5.79056">
        <ele>745.2</ele>
        <time>2021-10-17T06:46:28Z</time>
      </trkpt>
      <trkpt lat="46.52953" lon="5.7906">
        <ele>745.2</ele>
        <time>2021-10-17T06:46:29Z</time>
      </trkpt>
      <trkpt lat="46.52948" lon="5.79064">
        <ele>745.2</ele>
        <time>2021-10-17T06:46:30Z</time>
      </trkpt>
      <trkpt lat="46.52943" lon="5.79069">
        <ele>745.2</ele>
        <time>2021-10-17T06:46:31Z</time>
      </trkpt>
      <trkpt lat="46.52939" lon="5.79075">
        <ele>745.2</ele>
        <time>2021-10-17T06:46:32Z</time>
      </trkpt>
      <trkpt lat="46.52934" lon="5.7908">
        <ele>745.2</ele>
        <time>2021-10-17T06:46:33Z</time>
      </trkpt>
      <trkpt lat="46.5293" lon="5.79085">
        <ele>745.4</ele>
        <time>2021-10-17T06:46:34Z</time>
      </trkpt>
      <trkpt lat="46.52927" lon="5.79089">
        <ele>745.4</ele>
        <time>2021-10-17T06:46:35Z</time>
      </trkpt>
      <trkpt lat="46.52923" lon="5.79094">
        <ele>745.8</ele>
        <time>2021-10-17T06:46:36Z</time>
      </trkpt>
      <trkpt lat="46.52919" lon="5.79098">
        <ele>746</ele>
        <time>2021-10-17T06:46:37Z</time>
      </trkpt>
      <trkpt lat="46.52916" lon="5.79101">
        <ele>746</ele>
        <time>2021-10-17T06:46:38Z</time>
      </trkpt>
      <trkpt lat="46.52912" lon="5.79104">
        <ele>746.2</ele>
        <time>2021-10-17T06:46:39Z</time>
      </trkpt>
      <trkpt lat="46.52909" lon="5.79107">
        <ele>746.4</ele>
        <time>2021-10-17T06:46:40Z</time>
      </trkpt>
      <trkpt lat="46.52905" lon="5.79109">
        <ele>746.4</ele>
        <time>2021-10-17T06:46:41Z</time>
      </trkpt>
      <trkpt lat="46.52902" lon="5.79111">
        <ele>746.8</ele>
        <time>2021-10-17T06:46:42Z</time>
      </trkpt>
      <trkpt lat="46.52898" lon="5.79113">
        <ele>747</ele>
        <time>2021-10-17T06:46:43Z</time>
      </trkpt>
      <trkpt lat="46.52895" lon="5.79115">
        <ele>747.4</ele>
        <time>2021-10-17T06:46:44Z</time>
      </trkpt>
      <trkpt lat="46.52891" lon="5.79117">
        <ele>747.6</ele>
        <time>2021-10-17T06:46:45Z</time>
      </trkpt>
      <trkpt lat="46.52888" lon="5.79119">
        <ele>747.6</ele>
        <time>2021-10-17T06:46:46Z</time>
      </trkpt>
      <trkpt lat="46.52884" lon="5.7912">
        <ele>748</ele>
        <time>2021-10-17T06:46:47Z</time>
      </trkpt>
      <trkpt lat="46.52881" lon="5.79122">
        <ele>748.2</ele>
        <time>2021-10-17T06:46:48Z</time>
      </trkpt>
      <trkpt lat="46.52877" lon="5.79123">
        <ele>748.2</ele>
        <time>2021-10-17T06:46:49Z</time>
      </trkpt>
      <trkpt lat="46.52873" lon="5.79125">
        <ele>748.6</ele>
        <time>2021-10-17T06:46:50Z</time>
      </trkpt>
      <trkpt lat="46.5287" lon="5.79126">
        <ele>748.6</ele>
        <time>2021-10-17T06:46:51Z</time>
      </trkpt>
      <trkpt lat="46.52866" lon="5.79127">
        <ele>748.8</ele>
        <time>2021-10-17T06:46:52Z</time>
      </trkpt>
      <trkpt lat="46.52863" lon="5.79128">
        <ele>749.2</ele>
        <time>2021-10-17T06:46:53Z</time>
      </trkpt>
      <trkpt lat="46.52859" lon="5.79129">
        <ele>749.4</ele>
        <time>2021-10-17T06:46:54Z</time>
      </trkpt>
      <trkpt lat="46.52855" lon="5.79129">
        <ele>749.4</ele>
        <time>2021-10-17T06:46:55Z</time>
      </trkpt>
      <trkpt lat="46.52851" lon="5.7913">
        <ele>749.6</ele>
        <time>2021-10-17T06:46:56Z</time>
      </trkpt>
      <trkpt lat="46.52848" lon="5.7913">
        <ele>749.6</ele>
        <time>2021-10-17T06:46:57Z</time>
      </trkpt>
      <trkpt lat="46.52844" lon="5.7913">
        <ele>749.8</ele>
        <time>2021-10-17T06:46:58Z</time>
      </trkpt>
      <trkpt lat="46.5284" lon="5.7913">
        <ele>750.2</ele>
        <time>2021-10-17T06:46:59Z</time>
      </trkpt>
      <trkpt lat="46.52837" lon="5.7913">
        <ele>750.2</ele>
        <time>2021-10-17T06:47:00Z</time>
      </trkpt>
      <trkpt lat="46.52835" lon="5.7913">
        <ele>750.4</ele>
        <time>2021-10-17T06:47:01Z</time>
      </trkpt>
      <trkpt lat="46.52833" lon="5.7913">
        <ele>750.4</ele>
        <time>2021-10-17T06:47:02Z</time>
      </trkpt>
      <trkpt lat="46.52831" lon="5.79132">
        <ele>750.8</ele>
        <time>2021-10-17T06:47:03Z</time>
      </trkpt>
      <trkpt lat="46.52829" lon="5.79135">
        <ele>750.8</ele>
        <time>2021-10-17T06:47:04Z</time>
      </trkpt>
      <trkpt lat="46.52828" lon="5.79136">
        <ele>751</ele>
        <time>2021-10-17T06:47:05Z</time>
      </trkpt>
      <trkpt lat="46.52827" lon="5.79137">
        <ele>751</ele>
        <time>2021-10-17T06:47:06Z</time>
      </trkpt>
      <trkpt lat="46.52825" lon="5.79138">
        <ele>751.6</ele>
        <time>2021-10-17T06:52:58Z</time>
      </trkpt>
      <trkpt lat="46.52822" lon="5.79135">
        <ele>751.6</ele>
        <time>2021-10-17T06:52:59Z</time>
      </trkpt>
      <trkpt lat="46.5282" lon="5.79133">
        <ele>751.6</ele>
        <time>2021-10-17T06:53:00Z</time>
      </trkpt>
      <trkpt lat="46.52818" lon="5.7913">
        <ele>751.6</ele>
        <time>2021-10-17T06:53:01Z</time>
      </trkpt>
      <trkpt lat="46.52816" lon="5.79128">
        <ele>751.6</ele>
        <time>2021-10-17T06:53:02Z</time>
      </trkpt>
      <trkpt lat="46.52814" lon="5.79125">
        <ele>751.6</ele>
        <time>2021-10-17T06:53:03Z</time>
      </trkpt>
      <trkpt lat="46.52811" lon="5.79124">
        <ele>751.6</ele>
        <time>2021-10-17T06:53:04Z</time>
      </trkpt>
      <trkpt lat="46.52809" lon="5.79124">
        <ele>751.8</ele>
        <time>2021-10-17T06:53:05Z</time>
      </trkpt>
      <trkpt lat="46.52806" lon="5.79123">
        <ele>751.8</ele>
        <time>2021-10-17T06:53:06Z</time>
      </trkpt>
      <trkpt lat="46.52804" lon="5.79123">
        <ele>751.8</ele>
        <time>2021-10-17T06:53:07Z</time>
      </trkpt>
      <trkpt lat="46.52801" lon="5.79121">
        <ele>752.2</ele>
        <time>2021-10-17T06:53:08Z</time>
      </trkpt>
      <trkpt lat="46.52799" lon="5.79121">
        <ele>752.2</ele>
        <time>2021-10-17T06:53:09Z</time>
      </trkpt>
      <trkpt lat="46.52796" lon="5.7912">
        <ele>752.4</ele>
        <time>2021-10-17T06:53:10Z</time>
      </trkpt>
      <trkpt lat="46.52794" lon="5.7912">
        <ele>752.4</ele>
        <time>2021-10-17T06:53:11Z</time>
      </trkpt>
      <trkpt lat="46.52791" lon="5.7912">
        <ele>752.6</ele>
        <time>2021-10-17T06:53:12Z</time>
      </trkpt>
      <trkpt lat="46.52789" lon="5.7912">
        <ele>752.6</ele>
        <time>2021-10-17T06:53:13Z</time>
      </trkpt>
      <trkpt lat="46.52786" lon="5.7912">
        <ele>752.8</ele>
        <time>2021-10-17T06:53:14Z</time>
      </trkpt>
      <trkpt lat="46.52783" lon="5.7912">
        <ele>752.8</ele>
        <time>2021-10-17T06:53:15Z</time>
      </trkpt>
      <trkpt lat="46.5278" lon="5.79121">
        <ele>753</ele>
        <time>2021-10-17T06:53:16Z</time>
      </trkpt>
      <trkpt lat="46.52777" lon="5.79121">
        <ele>753</ele>
        <time>2021-10-17T06:53:17Z</time>
      </trkpt>
      <trkpt lat="46.52775" lon="5.79122">
        <ele>753</ele>
        <time>2021-10-17T06:53:18Z</time>
      </trkpt>
      <trkpt lat="46.52772" lon="5.79124">
        <ele>753.4</ele>
        <time>2021-10-17T06:53:19Z</time>
      </trkpt>
      <trkpt lat="46.52769" lon="5.79125">
        <ele>753.4</ele>
        <time>2021-10-17T06:53:20Z</time>
      </trkpt>
      <trkpt lat="46.52766" lon="5.79126">
        <ele>753.6</ele>
        <time>2021-10-17T06:53:21Z</time>
      </trkpt>
      <trkpt lat="46.52763" lon="5.79128">
        <ele>753.6</ele>
        <time>2021-10-17T06:53:22Z</time>
      </trkpt>
      <trkpt lat="46.52761" lon="5.7913">
        <ele>753.6</ele>
        <time>2021-10-17T06:53:23Z</time>
      </trkpt>
      <trkpt lat="46.52758" lon="5.79132">
        <ele>754</ele>
        <time>2021-10-17T06:53:24Z</time>
      </trkpt>
      <trkpt lat="46.52755" lon="5.79135">
        <ele>754</ele>
        <time>2021-10-17T06:53:25Z</time>
      </trkpt>
      <trkpt lat="46.52753" lon="5.79138">
        <ele>754.2</ele>
        <time>2021-10-17T06:53:26Z</time>
      </trkpt>
      <trkpt lat="46.5275" lon="5.7914">
        <ele>754.2</ele>
        <time>2021-10-17T06:53:27Z</time>
      </trkpt>
      <trkpt lat="46.52748" lon="5.79143">
        <ele>754.6</ele>
        <time>2021-10-17T06:53:28Z</time>
      </trkpt>
      <trkpt lat="46.52746" lon="5.79147">
        <ele>754.6</ele>
        <time>2021-10-17T06:53:29Z</time>
      </trkpt>
      <trkpt lat="46.52744" lon="5.7915">
        <ele>754.8</ele>
        <time>2021-10-17T06:53:30Z</time>
      </trkpt>
      <trkpt lat="46.52742" lon="5.79153">
        <ele>754.8</ele>
        <time>2021-10-17T06:53:31Z</time>
      </trkpt>
      <trkpt lat="46.5274" lon="5.79156">
        <ele>755.2</ele>
        <time>2021-10-17T06:53:32Z</time>
      </trkpt>
      <trkpt lat="46.52738" lon="5.7916">
        <ele>755.2</ele>
        <time>2021-10-17T06:53:33Z</time>
      </trkpt>
      <trkpt lat="46.52737" lon="5.79164">
        <ele>755.6</ele>
        <time>2021-10-17T06:53:34Z</time>
      </trkpt>
      <trkpt lat="46.52735" lon="5.79168">
        <ele>755.6</ele>
        <time>2021-10-17T06:53:35Z</time>
      </trkpt>
      <trkpt lat="46.52734" lon="5.79172">
        <ele>755.8</ele>
        <time>2021-10-17T06:53:36Z</time>
      </trkpt>
      <trkpt lat="46.52733" lon="5.79176">
        <ele>755.8</ele>
        <time>2021-10-17T06:53:37Z</time>
      </trkpt>
      <trkpt lat="46.52732" lon="5.79181">
        <ele>755.8</ele>
        <time>2021-10-17T06:53:38Z</time>
      </trkpt>
      <trkpt lat="46.52731" lon="5.79185">
        <ele>756.2</ele>
        <time>2021-10-17T06:53:39Z</time>
      </trkpt>
      <trkpt lat="46.52731" lon="5.7919">
        <ele>756.2</ele>
        <time>2021-10-17T06:53:40Z</time>
      </trkpt>
      <trkpt lat="46.5273" lon="5.79194">
        <ele>756.6</ele>
        <time>2021-10-17T06:53:41Z</time>
      </trkpt>
      <trkpt lat="46.52728" lon="5.79199">
        <ele>756.6</ele>
        <time>2021-10-17T06:53:42Z</time>
      </trkpt>
      <trkpt lat="46.52727" lon="5.79203">
        <ele>756.6</ele>
        <time>2021-10-17T06:53:43Z</time>
      </trkpt>
      <trkpt lat="46.52726" lon="5.79207">
        <ele>757</ele>
        <time>2021-10-17T06:53:44Z</time>
      </trkpt>
      <trkpt lat="46.52726" lon="5.79212">
        <ele>757</ele>
        <time>2021-10-17T06:53:45Z</time>
      </trkpt>
      <trkpt lat="46.52725" lon="5.79216">
        <ele>757.4</ele>
        <time>2021-10-17T06:53:46Z</time>
      </trkpt>
      <trkpt lat="46.52724" lon="5.7922">
        <ele>757.6</ele>
        <time>2021-10-17T06:53:47Z</time>
      </trkpt>
      <trkpt lat="46.52723" lon="5.79224">
        <ele>757.6</ele>
        <time>2021-10-17T06:53:48Z</time>
      </trkpt>
      <trkpt lat="46.52722" lon="5.79229">
        <ele>758</ele>
        <time>2021-10-17T06:53:49Z</time>
      </trkpt>
      <trkpt lat="46.52721" lon="5.79233">
        <ele>758</ele>
        <time>2021-10-17T06:53:50Z</time>
      </trkpt>
      <trkpt lat="46.5272" lon="5.79237">
        <ele>758.4</ele>
        <time>2021-10-17T06:53:51Z</time>
      </trkpt>
      <trkpt lat="46.52719" lon="5.79242">
        <ele>758.4</ele>
        <time>2021-10-17T06:53:52Z</time>
      </trkpt>
      <trkpt lat="46.52718" lon="5.79247">
        <ele>758.6</ele>
        <time>2021-10-17T06:53:53Z</time>
      </trkpt>
      <trkpt lat="46.52716" lon="5.79252">
        <ele>758.6</ele>
        <time>2021-10-17T06:53:54Z</time>
      </trkpt>
      <trkpt lat="46.52715" lon="5.79257">
        <ele>758.6</ele>
        <time>2021-10-17T06:53:55Z</time>
      </trkpt>
      <trkpt lat="46.52713" lon="5.79262">
        <ele>758.6</ele>
        <time>2021-10-17T06:53:56Z</time>
      </trkpt>
      <trkpt lat="46.5271" lon="5.79267">
        <ele>758.6</ele>
        <time>2021-10-17T06:53:57Z</time>
      </trkpt>
      <trkpt lat="46.52708" lon="5.79272">
        <ele>758.6</ele>
        <time>2021-10-17T06:53:58Z</time>
      </trkpt>
      <trkpt lat="46.52705" lon="5.79278">
        <ele>758.6</ele>
        <time>2021-10-17T06:53:59Z</time>
      </trkpt>
      <trkpt lat="46.52702" lon="5.79284">
        <ele>758.4</ele>
        <time>2021-10-17T06:54:00Z</time>
      </trkpt>
      <trkpt lat="46.52699" lon="5.7929">
        <ele>758.2</ele>
        <time>2021-10-17T06:54:01Z</time>
      </trkpt>
      <trkpt lat="46.52697" lon="5.79297">
        <ele>758.2</ele>
        <time>2021-10-17T06:54:02Z</time>
      </trkpt>
      <trkpt lat="46.52694" lon="5.79304">
        <ele>757.8</ele>
        <time>2021-10-17T06:54:03Z</time>
      </trkpt>
      <trkpt lat="46.52691" lon="5.79311">
        <ele>757.8</ele>
        <time>2021-10-17T06:54:04Z</time>
      </trkpt>
      <trkpt lat="46.52687" lon="5.79318">
        <ele>757.8</ele>
        <time>2021-10-17T06:54:05Z</time>
      </trkpt>
      <trkpt lat="46.52683" lon="5.79325">
        <ele>757.6</ele>
        <time>2021-10-17T06:54:06Z</time>
      </trkpt>
      <trkpt lat="46.5268" lon="5.79332">
        <ele>757.6</ele>
        <time>2021-10-17T06:54:07Z</time>
      </trkpt>
      <trkpt lat="46.52677" lon="5.79339">
        <ele>757.6</ele>
        <time>2021-10-17T06:54:08Z</time>
      </trkpt>
      <trkpt lat="46.52674" lon="5.79345">
        <ele>757.6</ele>
        <time>2021-10-17T06:54:09Z</time>
      </trkpt>
      <trkpt lat="46.52671" lon="5.79352">
        <ele>757.6</ele>
        <time>2021-10-17T06:54:10Z</time>
      </trkpt>
      <trkpt lat="46.52668" lon="5.79358">
        <ele>757.8</ele>
        <time>2021-10-17T06:54:11Z</time>
      </trkpt>
      <trkpt lat="46.52666" lon="5.79363">
        <ele>757.8</ele>
        <time>2021-10-17T06:54:12Z</time>
      </trkpt>
      <trkpt lat="46.52664" lon="5.79369">
        <ele>758</ele>
        <time>2021-10-17T06:54:13Z</time>
      </trkpt>
      <trkpt lat="46.52662" lon="5.79375">
        <ele>758</ele>
        <time>2021-10-17T06:54:14Z</time>
      </trkpt>
      <trkpt lat="46.52661" lon="5.7938">
        <ele>758.4</ele>
        <time>2021-10-17T06:54:15Z</time>
      </trkpt>
      <trkpt lat="46.5266" lon="5.79385">
        <ele>758.6</ele>
        <time>2021-10-17T06:54:16Z</time>
      </trkpt>
      <trkpt lat="46.52659" lon="5.79391">
        <ele>759</ele>
        <time>2021-10-17T06:54:17Z</time>
      </trkpt>
      <trkpt lat="46.52658" lon="5.79396">
        <ele>759.2</ele>
        <time>2021-10-17T06:54:18Z</time>
      </trkpt>
      <trkpt lat="46.52658" lon="5.79401">
        <ele>759.2</ele>
        <time>2021-10-17T06:54:19Z</time>
      </trkpt>
      <trkpt lat="46.52658" lon="5.79407">
        <ele>759.6</ele>
        <time>2021-10-17T06:54:20Z</time>
      </trkpt>
      <trkpt lat="46.52658" lon="5.79412">
        <ele>759.6</ele>
        <time>2021-10-17T06:54:21Z</time>
      </trkpt>
      <trkpt lat="46.52659" lon="5.79417">
        <ele>759.8</ele>
        <time>2021-10-17T06:54:22Z</time>
      </trkpt>
      <trkpt lat="46.5266" lon="5.79422">
        <ele>760.2</ele>
        <time>2021-10-17T06:54:23Z</time>
      </trkpt>
      <trkpt lat="46.52661" lon="5.79427">
        <ele>760.2</ele>
        <time>2021-10-17T06:54:24Z</time>
      </trkpt>
      <trkpt lat="46.52662" lon="5.79432">
        <ele>760.6</ele>
        <time>2021-10-17T06:54:25Z</time>
      </trkpt>
      <trkpt lat="46.52664" lon="5.79437">
        <ele>760.6</ele>
        <time>2021-10-17T06:54:26Z</time>
      </trkpt>
      <trkpt lat="46.52664" lon="5.79442">
        <ele>760.8</ele>
        <time>2021-10-17T06:54:27Z</time>
      </trkpt>
      <trkpt lat="46.52665" lon="5.79447">
        <ele>760.8</ele>
        <time>2021-10-17T06:54:28Z</time>
      </trkpt>
      <trkpt lat="46.52666" lon="5.79452">
        <ele>761.2</ele>
        <time>2021-10-17T06:54:29Z</time>
      </trkpt>
      <trkpt lat="46.52666" lon="5.79457">
        <ele>761.2</ele>
        <time>2021-10-17T06:54:30Z</time>
      </trkpt>
      <trkpt lat="46.52666" lon="5.79463">
        <ele>761.4</ele>
        <time>2021-10-17T06:54:31Z</time>
      </trkpt>
      <trkpt lat="46.52666" lon="5.79468">
        <ele>761.6</ele>
        <time>2021-10-17T06:54:32Z</time>
      </trkpt>
      <trkpt lat="46.52666" lon="5.79472">
        <ele>761.8</ele>
        <time>2021-10-17T06:54:33Z</time>
      </trkpt>
      <trkpt lat="46.52665" lon="5.79477">
        <ele>762</ele>
        <time>2021-10-17T06:54:34Z</time>
      </trkpt>
      <trkpt lat="46.52664" lon="5.79481">
        <ele>762.2</ele>
        <time>2021-10-17T06:54:35Z</time>
      </trkpt>
      <trkpt lat="46.52663" lon="5.79486">
        <ele>762.2</ele>
        <time>2021-10-17T06:54:36Z</time>
      </trkpt>
      <trkpt lat="46.52662" lon="5.7949">
        <ele>762.6</ele>
        <time>2021-10-17T06:54:37Z</time>
      </trkpt>
      <trkpt lat="46.52661" lon="5.79495">
        <ele>762.6</ele>
        <time>2021-10-17T06:54:38Z</time>
      </trkpt>
      <trkpt lat="46.52659" lon="5.79499">
        <ele>763</ele>
        <time>2021-10-17T06:54:39Z</time>
      </trkpt>
      <trkpt lat="46.52658" lon="5.79504">
        <ele>763</ele>
        <time>2021-10-17T06:54:40Z</time>
      </trkpt>
      <trkpt lat="46.52656" lon="5.79508">
        <ele>763</ele>
        <time>2021-10-17T06:54:41Z</time>
      </trkpt>
      <trkpt lat="46.52655" lon="5.79512">
        <ele>763.2</ele>
        <time>2021-10-17T06:54:42Z</time>
      </trkpt>
      <trkpt lat="46.52653" lon="5.79516">
        <ele>763.2</ele>
        <time>2021-10-17T06:54:43Z</time>
      </trkpt>
      <trkpt lat="46.52651" lon="5.7952">
        <ele>763.6</ele>
        <time>2021-10-17T06:54:44Z</time>
      </trkpt>
      <trkpt lat="46.52649" lon="5.79524">
        <ele>763.6</ele>
        <time>2021-10-17T06:54:45Z</time>
      </trkpt>
      <trkpt lat="46.52647" lon="5.79528">
        <ele>764</ele>
        <time>2021-10-17T06:54:46Z</time>
      </trkpt>
      <trkpt lat="46.52645" lon="5.79531">
        <ele>764</ele>
        <time>2021-10-17T06:54:47Z</time>
      </trkpt>
      <trkpt lat="46.52643" lon="5.79535">
        <ele>764.2</ele>
        <time>2021-10-17T06:54:48Z</time>
      </trkpt>
      <trkpt lat="46.52641" lon="5.79539">
        <ele>764.2</ele>
        <time>2021-10-17T06:54:49Z</time>
      </trkpt>
      <trkpt lat="46.52638" lon="5.79542">
        <ele>764.6</ele>
        <time>2021-10-17T06:54:50Z</time>
      </trkpt>
      <trkpt lat="46.52636" lon="5.79544">
        <ele>765</ele>
        <time>2021-10-17T06:54:51Z</time>
      </trkpt>
      <trkpt lat="46.52633" lon="5.79546">
        <ele>765</ele>
        <time>2021-10-17T06:54:52Z</time>
      </trkpt>
      <trkpt lat="46.5263" lon="5.79548">
        <ele>765.2</ele>
        <time>2021-10-17T06:54:53Z</time>
      </trkpt>
      <trkpt lat="46.52627" lon="5.7955">
        <ele>765.2</ele>
        <time>2021-10-17T06:54:54Z</time>
      </trkpt>
      <trkpt lat="46.52627" lon="5.7955">
        <ele>765.6</ele>
        <time>2021-10-17T06:54:55Z</time>
      </trkpt>
      <trkpt lat="46.52622" lon="5.79552">
        <ele>765.6</ele>
        <time>2021-10-17T06:54:56Z</time>
      </trkpt>
      <trkpt lat="46.52619" lon="5.79553">
        <ele>765.8</ele>
        <time>2021-10-17T06:54:57Z</time>
      </trkpt>
      <trkpt lat="46.52616" lon="5.79555">
        <ele>765.8</ele>
        <time>2021-10-17T06:54:58Z</time>
      </trkpt>
      <trkpt lat="46.52614" lon="5.79556">
        <ele>766</ele>
        <time>2021-10-17T06:54:59Z</time>
      </trkpt>
      <trkpt lat="46.52611" lon="5.79558">
        <ele>766.2</ele>
        <time>2021-10-17T06:55:00Z</time>
      </trkpt>
      <trkpt lat="46.52609" lon="5.7956">
        <ele>766.4</ele>
        <time>2021-10-17T06:55:01Z</time>
      </trkpt>
      <trkpt lat="46.52606" lon="5.79562">
        <ele>766.4</ele>
        <time>2021-10-17T06:55:02Z</time>
      </trkpt>
      <trkpt lat="46.52604" lon="5.79564">
        <ele>766.8</ele>
        <time>2021-10-17T06:55:03Z</time>
      </trkpt>
      <trkpt lat="46.52601" lon="5.79566">
        <ele>766.8</ele>
        <time>2021-10-17T06:55:04Z</time>
      </trkpt>
      <trkpt lat="46.52598" lon="5.79568">
        <ele>767</ele>
        <time>2021-10-17T06:55:05Z</time>
      </trkpt>
      <trkpt lat="46.52596" lon="5.79571">
        <ele>767</ele>
        <time>2021-10-17T06:55:06Z</time>
      </trkpt>
      <trkpt lat="46.52596" lon="5.79571">
        <ele>767.4</ele>
        <time>2021-10-17T06:55:07Z</time>
      </trkpt>
      <trkpt lat="46.52593" lon="5.79574">
        <ele>767.4</ele>
        <time>2021-10-17T06:55:08Z</time>
      </trkpt>
      <trkpt lat="46.52588" lon="5.79579">
        <ele>767.8</ele>
        <time>2021-10-17T06:55:09Z</time>
      </trkpt>
      <trkpt lat="46.52586" lon="5.79581">
        <ele>768</ele>
        <time>2021-10-17T06:55:10Z</time>
      </trkpt>
      <trkpt lat="46.52583" lon="5.79585">
        <ele>768</ele>
        <time>2021-10-17T06:55:11Z</time>
      </trkpt>
      <trkpt lat="46.52581" lon="5.79588">
        <ele>768.4</ele>
        <time>2021-10-17T06:55:12Z</time>
      </trkpt>
      <trkpt lat="46.52581" lon="5.79588">
        <ele>768.4</ele>
        <time>2021-10-17T06:55:13Z</time>
      </trkpt>
      <trkpt lat="46.52578" lon="5.79591">
        <ele>768.6</ele>
        <time>2021-10-17T06:55:14Z</time>
      </trkpt>
      <trkpt lat="46.52576" lon="5.79594">
        <ele>768.6</ele>
        <time>2021-10-17T06:55:15Z</time>
      </trkpt>
      <trkpt lat="46.52573" lon="5.79597">
        <ele>769</ele>
        <time>2021-10-17T06:55:16Z</time>
      </trkpt>
      <trkpt lat="46.52571" lon="5.79599">
        <ele>769</ele>
        <time>2021-10-17T06:55:17Z</time>
      </trkpt>
      <trkpt lat="46.52568" lon="5.79602">
        <ele>769.2</ele>
        <time>2021-10-17T06:55:18Z</time>
      </trkpt>
      <trkpt lat="46.52565" lon="5.79604">
        <ele>769.4</ele>
        <time>2021-10-17T06:55:19Z</time>
      </trkpt>
      <trkpt lat="46.52563" lon="5.79607">
        <ele>769.6</ele>
        <time>2021-10-17T06:55:20Z</time>
      </trkpt>
      <trkpt lat="46.5256" lon="5.7961">
        <ele>770</ele>
        <time>2021-10-17T06:55:21Z</time>
      </trkpt>
      <trkpt lat="46.52558" lon="5.79613">
        <ele>770.2</ele>
        <time>2021-10-17T06:55:22Z</time>
      </trkpt>
      <trkpt lat="46.52555" lon="5.79616">
        <ele>770.2</ele>
        <time>2021-10-17T06:55:23Z</time>
      </trkpt>
      <trkpt lat="46.52553" lon="5.79619">
        <ele>770.4</ele>
        <time>2021-10-17T06:55:24Z</time>
      </trkpt>
      <trkpt lat="46.5255" lon="5.79622">
        <ele>770.4</ele>
        <time>2021-10-17T06:55:25Z</time>
      </trkpt>
      <trkpt lat="46.52547" lon="5.79625">
        <ele>770.8</ele>
        <time>2021-10-17T06:55:26Z</time>
      </trkpt>
      <trkpt lat="46.52544" lon="5.79628">
        <ele>770.8</ele>
        <time>2021-10-17T06:55:27Z</time>
      </trkpt>
      <trkpt lat="46.52541" lon="5.79631">
        <ele>771.2</ele>
        <time>2021-10-17T06:55:28Z</time>
      </trkpt>
      <trkpt lat="46.52539" lon="5.79634">
        <ele>771.2</ele>
        <time>2021-10-17T06:55:29Z</time>
      </trkpt>
      <trkpt lat="46.52535" lon="5.79637">
        <ele>771.6</ele>
        <time>2021-10-17T06:55:30Z</time>
      </trkpt>
      <trkpt lat="46.52532" lon="5.79639">
        <ele>771.6</ele>
        <time>2021-10-17T06:55:31Z</time>
      </trkpt>
      <trkpt lat="46.52529" lon="5.7964">
        <ele>771.8</ele>
        <time>2021-10-17T06:55:32Z</time>
      </trkpt>
      <trkpt lat="46.52526" lon="5.79642">
        <ele>771.8</ele>
        <time>2021-10-17T06:55:33Z</time>
      </trkpt>
      <trkpt lat="46.52523" lon="5.79643">
        <ele>772.2</ele>
        <time>2021-10-17T06:55:34Z</time>
      </trkpt>
      <trkpt lat="46.52519" lon="5.79643">
        <ele>772.4</ele>
        <time>2021-10-17T06:55:35Z</time>
      </trkpt>
      <trkpt lat="46.52516" lon="5.79643">
        <ele>772.4</ele>
        <time>2021-10-17T06:55:36Z</time>
      </trkpt>
      <trkpt lat="46.52513" lon="5.79642">
        <ele>772.8</ele>
        <time>2021-10-17T06:55:37Z</time>
      </trkpt>
      <trkpt lat="46.5251" lon="5.79641">
        <ele>773</ele>
        <time>2021-10-17T06:55:38Z</time>
      </trkpt>
      <trkpt lat="46.52507" lon="5.79639">
        <ele>773.4</ele>
        <time>2021-10-17T06:55:39Z</time>
      </trkpt>
      <trkpt lat="46.52504" lon="5.79637">
        <ele>773.6</ele>
        <time>2021-10-17T06:55:40Z</time>
      </trkpt>
      <trkpt lat="46.52502" lon="5.79634">
        <ele>773.8</ele>
        <time>2021-10-17T06:55:41Z</time>
      </trkpt>
      <trkpt lat="46.52499" lon="5.79632">
        <ele>774</ele>
        <time>2021-10-17T06:55:42Z</time>
      </trkpt>
      <trkpt lat="46.52497" lon="5.7963">
        <ele>774</ele>
        <time>2021-10-17T06:55:43Z</time>
      </trkpt>
      <trkpt lat="46.52494" lon="5.79628">
        <ele>774.4</ele>
        <time>2021-10-17T06:55:44Z</time>
      </trkpt>
      <trkpt lat="46.52492" lon="5.79626">
        <ele>774.6</ele>
        <time>2021-10-17T06:55:45Z</time>
      </trkpt>
      <trkpt lat="46.5249" lon="5.79624">
        <ele>774.6</ele>
        <time>2021-10-17T06:55:46Z</time>
      </trkpt>
      <trkpt lat="46.52487" lon="5.79621">
        <ele>774.8</ele>
        <time>2021-10-17T06:55:47Z</time>
      </trkpt>
      <trkpt lat="46.52485" lon="5.79619">
        <ele>774.8</ele>
        <time>2021-10-17T06:55:48Z</time>
      </trkpt>
      <trkpt lat="46.52482" lon="5.79617">
        <ele>775</ele>
        <time>2021-10-17T06:55:49Z</time>
      </trkpt>
      <trkpt lat="46.5248" lon="5.79615">
        <ele>775</ele>
        <time>2021-10-17T06:55:50Z</time>
      </trkpt>
      <trkpt lat="46.52477" lon="5.79613">
        <ele>775.4</ele>
        <time>2021-10-17T06:55:51Z</time>
      </trkpt>
      <trkpt lat="46.52474" lon="5.7961">
        <ele>775.4</ele>
        <time>2021-10-17T06:55:52Z</time>
      </trkpt>
      <trkpt lat="46.52471" lon="5.79608">
        <ele>775.6</ele>
        <time>2021-10-17T06:55:53Z</time>
      </trkpt>
      <trkpt lat="46.52469" lon="5.79606">
        <ele>775.6</ele>
        <time>2021-10-17T06:55:54Z</time>
      </trkpt>
      <trkpt lat="46.52466" lon="5.79604">
        <ele>776.2</ele>
        <time>2021-10-17T06:55:55Z</time>
      </trkpt>
      <trkpt lat="46.52463" lon="5.79602">
        <ele>776.2</ele>
        <time>2021-10-17T06:55:56Z</time>
      </trkpt>
      <trkpt lat="46.5246" lon="5.796">
        <ele>776.6</ele>
        <time>2021-10-17T06:55:57Z</time>
      </trkpt>
      <trkpt lat="46.52458" lon="5.79597">
        <ele>776.8</ele>
        <time>2021-10-17T06:55:58Z</time>
      </trkpt>
      <trkpt lat="46.52455" lon="5.79595">
        <ele>776.8</ele>
        <time>2021-10-17T06:55:59Z</time>
      </trkpt>
      <trkpt lat="46.52452" lon="5.79593">
        <ele>777.2</ele>
        <time>2021-10-17T06:56:00Z</time>
      </trkpt>
      <trkpt lat="46.52449" lon="5.79591">
        <ele>777.2</ele>
        <time>2021-10-17T06:56:01Z</time>
      </trkpt>
      <trkpt lat="46.52447" lon="5.79589">
        <ele>777.6</ele>
        <time>2021-10-17T06:56:02Z</time>
      </trkpt>
      <trkpt lat="46.52444" lon="5.79586">
        <ele>777.6</ele>
        <time>2021-10-17T06:56:03Z</time>
      </trkpt>
      <trkpt lat="46.52442" lon="5.79583">
        <ele>777.8</ele>
        <time>2021-10-17T06:56:04Z</time>
      </trkpt>
      <trkpt lat="46.52439" lon="5.79581">
        <ele>777.8</ele>
        <time>2021-10-17T06:56:05Z</time>
      </trkpt>
      <trkpt lat="46.52437" lon="5.79578">
        <ele>778.2</ele>
        <time>2021-10-17T06:56:06Z</time>
      </trkpt>
      <trkpt lat="46.52434" lon="5.79576">
        <ele>778.2</ele>
        <time>2021-10-17T06:56:07Z</time>
      </trkpt>
      <trkpt lat="46.52431" lon="5.79574">
        <ele>778.4</ele>
        <time>2021-10-17T06:56:08Z</time>
      </trkpt>
      <trkpt lat="46.52428" lon="5.79572">
        <ele>778.4</ele>
        <time>2021-10-17T06:56:09Z</time>
      </trkpt>
      <trkpt lat="46.52425" lon="5.7957">
        <ele>778.6</ele>
        <time>2021-10-17T06:56:10Z</time>
      </trkpt>
      <trkpt lat="46.52423" lon="5.79567">
        <ele>778.6</ele>
        <time>2021-10-17T06:56:11Z</time>
      </trkpt>
      <trkpt lat="46.5242" lon="5.79564">
        <ele>778.8</ele>
        <time>2021-10-17T06:56:12Z</time>
      </trkpt>
      <trkpt lat="46.52417" lon="5.79562">
        <ele>778.8</ele>
        <time>2021-10-17T06:56:13Z</time>
      </trkpt>
      <trkpt lat="46.52414" lon="5.79559">
        <ele>779.2</ele>
        <time>2021-10-17T06:56:14Z</time>
      </trkpt>
      <trkpt lat="46.52411" lon="5.79556">
        <ele>779.2</ele>
        <time>2021-10-17T06:56:15Z</time>
      </trkpt>
      <trkpt lat="46.52408" lon="5.79554">
        <ele>779.6</ele>
        <time>2021-10-17T06:56:16Z</time>
      </trkpt>
      <trkpt lat="46.52405" lon="5.79552">
        <ele>779.8</ele>
        <time>2021-10-17T06:56:17Z</time>
      </trkpt>
      <trkpt lat="46.52402" lon="5.7955">
        <ele>779.8</ele>
        <time>2021-10-17T06:56:18Z</time>
      </trkpt>
      <trkpt lat="46.524" lon="5.79548">
        <ele>780.2</ele>
        <time>2021-10-17T06:56:19Z</time>
      </trkpt>
      <trkpt lat="46.52397" lon="5.79546">
        <ele>780.4</ele>
        <time>2021-10-17T06:56:20Z</time>
      </trkpt>
      <trkpt lat="46.52395" lon="5.79544">
        <ele>780.4</ele>
        <time>2021-10-17T06:56:21Z</time>
      </trkpt>
      <trkpt lat="46.52392" lon="5.79542">
        <ele>780.8</ele>
        <time>2021-10-17T06:56:22Z</time>
      </trkpt>
      <trkpt lat="46.52389" lon="5.79541">
        <ele>780.8</ele>
        <time>2021-10-17T06:56:23Z</time>
      </trkpt>
      <trkpt lat="46.52386" lon="5.7954">
        <ele>781.4</ele>
        <time>2021-10-17T06:56:24Z</time>
      </trkpt>
      <trkpt lat="46.52384" lon="5.79539">
        <ele>781.4</ele>
        <time>2021-10-17T06:56:25Z</time>
      </trkpt>
      <trkpt lat="46.52381" lon="5.79538">
        <ele>781.6</ele>
        <time>2021-10-17T06:56:26Z</time>
      </trkpt>
      <trkpt lat="46.52378" lon="5.79538">
        <ele>781.6</ele>
        <time>2021-10-17T06:56:27Z</time>
      </trkpt>
      <trkpt lat="46.52375" lon="5.79538">
        <ele>782</ele>
        <time>2021-10-17T06:56:28Z</time>
      </trkpt>
      <trkpt lat="46.52372" lon="5.79537">
        <ele>782</ele>
        <time>2021-10-17T06:56:29Z</time>
      </trkpt>
      <trkpt lat="46.52369" lon="5.79537">
        <ele>782.2</ele>
        <time>2021-10-17T06:56:30Z</time>
      </trkpt>
      <trkpt lat="46.52366" lon="5.79537">
        <ele>782.2</ele>
        <time>2021-10-17T06:56:31Z</time>
      </trkpt>
      <trkpt lat="46.52362" lon="5.79537">
        <ele>782.6</ele>
        <time>2021-10-17T06:56:32Z</time>
      </trkpt>
      <trkpt lat="46.52359" lon="5.79537">
        <ele>782.6</ele>
        <time>2021-10-17T06:56:33Z</time>
      </trkpt>
      <trkpt lat="46.52355" lon="5.79538">
        <ele>783</ele>
        <time>2021-10-17T06:56:34Z</time>
      </trkpt>
      <trkpt lat="46.52351" lon="5.79538">
        <ele>783</ele>
        <time>2021-10-17T06:56:35Z</time>
      </trkpt>
      <trkpt lat="46.52348" lon="5.79538">
        <ele>783.2</ele>
        <time>2021-10-17T06:56:36Z</time>
      </trkpt>
      <trkpt lat="46.52345" lon="5.79538">
        <ele>783.2</ele>
        <time>2021-10-17T06:56:37Z</time>
      </trkpt>
      <trkpt lat="46.52341" lon="5.79538">
        <ele>783.6</ele>
        <time>2021-10-17T06:56:38Z</time>
      </trkpt>
      <trkpt lat="46.52339" lon="5.79539">
        <ele>783.6</ele>
        <time>2021-10-17T06:56:39Z</time>
      </trkpt>
      <trkpt lat="46.52335" lon="5.79539">
        <ele>784</ele>
        <time>2021-10-17T06:56:40Z</time>
      </trkpt>
      <trkpt lat="46.52332" lon="5.79539">
        <ele>784</ele>
        <time>2021-10-17T06:56:41Z</time>
      </trkpt>
      <trkpt lat="46.52329" lon="5.79539">
        <ele>784.2</ele>
        <time>2021-10-17T06:56:42Z</time>
      </trkpt>
      <trkpt lat="46.52326" lon="5.79538">
        <ele>784.2</ele>
        <time>2021-10-17T06:56:43Z</time>
      </trkpt>
      <trkpt lat="46.52323" lon="5.79537">
        <ele>784.6</ele>
        <time>2021-10-17T06:56:44Z</time>
      </trkpt>
      <trkpt lat="46.5232" lon="5.79537">
        <ele>784.8</ele>
        <time>2021-10-17T06:56:45Z</time>
      </trkpt>
      <trkpt lat="46.52317" lon="5.79536">
        <ele>784.8</ele>
        <time>2021-10-17T06:56:46Z</time>
      </trkpt>
      <trkpt lat="46.52314" lon="5.79535">
        <ele>785.2</ele>
        <time>2021-10-17T06:56:47Z</time>
      </trkpt>
      <trkpt lat="46.52311" lon="5.79533">
        <ele>785.4</ele>
        <time>2021-10-17T06:56:48Z</time>
      </trkpt>
      <trkpt lat="46.52308" lon="5.79531">
        <ele>785.8</ele>
        <time>2021-10-17T06:56:49Z</time>
      </trkpt>
      <trkpt lat="46.52306" lon="5.79529">
        <ele>786</ele>
        <time>2021-10-17T06:56:50Z</time>
      </trkpt>
      <trkpt lat="46.52303" lon="5.79527">
        <ele>786</ele>
        <time>2021-10-17T06:56:51Z</time>
      </trkpt>
      <trkpt lat="46.52301" lon="5.79525">
        <ele>786.2</ele>
        <time>2021-10-17T06:56:52Z</time>
      </trkpt>
      <trkpt lat="46.52299" lon="5.79523">
        <ele>786.2</ele>
        <time>2021-10-17T06:56:53Z</time>
      </trkpt>
      <trkpt lat="46.52297" lon="5.79521">
        <ele>786.2</ele>
        <time>2021-10-17T06:56:54Z</time>
      </trkpt>
      <trkpt lat="46.52295" lon="5.79518">
        <ele>786.6</ele>
        <time>2021-10-17T06:56:55Z</time>
      </trkpt>
      <trkpt lat="46.52292" lon="5.79515">
        <ele>786.6</ele>
        <time>2021-10-17T06:56:56Z</time>
      </trkpt>
      <trkpt lat="46.5229" lon="5.79512">
        <ele>786.6</ele>
        <time>2021-10-17T06:56:57Z</time>
      </trkpt>
      <trkpt lat="46.52288" lon="5.79509">
        <ele>786.8</ele>
        <time>2021-10-17T06:56:58Z</time>
      </trkpt>
      <trkpt lat="46.52286" lon="5.79506">
        <ele>786.8</ele>
        <time>2021-10-17T06:56:59Z</time>
      </trkpt>
      <trkpt lat="46.52283" lon="5.79504">
        <ele>787</ele>
        <time>2021-10-17T06:57:00Z</time>
      </trkpt>
      <trkpt lat="46.52281" lon="5.79501">
        <ele>787</ele>
        <time>2021-10-17T06:57:01Z</time>
      </trkpt>
      <trkpt lat="46.52278" lon="5.79499">
        <ele>787</ele>
        <time>2021-10-17T06:57:02Z</time>
      </trkpt>
      <trkpt lat="46.52276" lon="5.79496">
        <ele>787.2</ele>
        <time>2021-10-17T06:57:03Z</time>
      </trkpt>
      <trkpt lat="46.52273" lon="5.79494">
        <ele>787.2</ele>
        <time>2021-10-17T06:57:04Z</time>
      </trkpt>
      <trkpt lat="46.52271" lon="5.79492">
        <ele>787.6</ele>
        <time>2021-10-17T06:57:05Z</time>
      </trkpt>
      <trkpt lat="46.52268" lon="5.79491">
        <ele>787.6</ele>
        <time>2021-10-17T06:57:06Z</time>
      </trkpt>
      <trkpt lat="46.52265" lon="5.79489">
        <ele>787.6</ele>
        <time>2021-10-17T06:57:07Z</time>
      </trkpt>
      <trkpt lat="46.52263" lon="5.79488">
        <ele>787.6</ele>
        <time>2021-10-17T06:57:08Z</time>
      </trkpt>
      <trkpt lat="46.5226" lon="5.79486">
        <ele>787.6</ele>
        <time>2021-10-17T06:57:09Z</time>
      </trkpt>
      <trkpt lat="46.52256" lon="5.79485">
        <ele>788</ele>
        <time>2021-10-17T06:57:10Z</time>
      </trkpt>
      <trkpt lat="46.52253" lon="5.79485">
        <ele>788</ele>
        <time>2021-10-17T06:57:11Z</time>
      </trkpt>
      <trkpt lat="46.52249" lon="5.79486">
        <ele>788.2</ele>
        <time>2021-10-17T06:57:12Z</time>
      </trkpt>
      <trkpt lat="46.52245" lon="5.79486">
        <ele>788.2</ele>
        <time>2021-10-17T06:57:13Z</time>
      </trkpt>
      <trkpt lat="46.52242" lon="5.79488">
        <ele>788.2</ele>
        <time>2021-10-17T06:57:14Z</time>
      </trkpt>
      <trkpt lat="46.52239" lon="5.79489">
        <ele>788.4</ele>
        <time>2021-10-17T06:57:15Z</time>
      </trkpt>
      <trkpt lat="46.52236" lon="5.7949">
        <ele>788.4</ele>
        <time>2021-10-17T06:57:16Z</time>
      </trkpt>
      <trkpt lat="46.52233" lon="5.79492">
        <ele>788.6</ele>
        <time>2021-10-17T06:57:17Z</time>
      </trkpt>
      <trkpt lat="46.5223" lon="5.79494">
        <ele>788.6</ele>
        <time>2021-10-17T06:57:18Z</time>
      </trkpt>
      <trkpt lat="46.52227" lon="5.79496">
        <ele>789</ele>
        <time>2021-10-17T06:57:19Z</time>
      </trkpt>
      <trkpt lat="46.52222" lon="5.79498">
        <ele>789</ele>
        <time>2021-10-17T06:57:20Z</time>
      </trkpt>
      <trkpt lat="46.52219" lon="5.795">
        <ele>789.2</ele>
        <time>2021-10-17T06:57:21Z</time>
      </trkpt>
      <trkpt lat="46.52215" lon="5.79502">
        <ele>789.2</ele>
        <time>2021-10-17T06:57:22Z</time>
      </trkpt>
      <trkpt lat="46.52211" lon="5.79503">
        <ele>789.2</ele>
        <time>2021-10-17T06:57:23Z</time>
      </trkpt>
      <trkpt lat="46.52207" lon="5.79505">
        <ele>789.4</ele>
        <time>2021-10-17T06:57:24Z</time>
      </trkpt>
      <trkpt lat="46.52203" lon="5.79506">
        <ele>789.4</ele>
        <time>2021-10-17T06:57:25Z</time>
      </trkpt>
      <trkpt lat="46.52199" lon="5.79508">
        <ele>789.4</ele>
        <time>2021-10-17T06:57:26Z</time>
      </trkpt>
      <trkpt lat="46.52195" lon="5.79509">
        <ele>789.4</ele>
        <time>2021-10-17T06:57:27Z</time>
      </trkpt>
      <trkpt lat="46.52191" lon="5.7951">
        <ele>789.8</ele>
        <time>2021-10-17T06:57:28Z</time>
      </trkpt>
      <trkpt lat="46.52187" lon="5.79511">
        <ele>789.8</ele>
        <time>2021-10-17T06:57:29Z</time>
      </trkpt>
      <trkpt lat="46.52183" lon="5.79512">
        <ele>790</ele>
        <time>2021-10-17T06:57:30Z</time>
      </trkpt>
      <trkpt lat="46.52178" lon="5.79512">
        <ele>790</ele>
        <time>2021-10-17T06:57:31Z</time>
      </trkpt>
      <trkpt lat="46.52174" lon="5.79513">
        <ele>790</ele>
        <time>2021-10-17T06:57:32Z</time>
      </trkpt>
      <trkpt lat="46.5217" lon="5.79514">
        <ele>790.4</ele>
        <time>2021-10-17T06:57:33Z</time>
      </trkpt>
      <trkpt lat="46.52166" lon="5.79514">
        <ele>790.4</ele>
        <time>2021-10-17T06:57:34Z</time>
      </trkpt>
      <trkpt lat="46.52162" lon="5.79515">
        <ele>790.4</ele>
        <time>2021-10-17T06:57:35Z</time>
      </trkpt>
      <trkpt lat="46.52158" lon="5.79516">
        <ele>790.6</ele>
        <time>2021-10-17T06:57:36Z</time>
      </trkpt>
      <trkpt lat="46.52154" lon="5.79517">
        <ele>790.6</ele>
        <time>2021-10-17T06:57:37Z</time>
      </trkpt>
      <trkpt lat="46.52151" lon="5.79518">
        <ele>790.8</ele>
        <time>2021-10-17T06:57:38Z</time>
      </trkpt>
      <trkpt lat="46.52147" lon="5.7952">
        <ele>790.8</ele>
        <time>2021-10-17T06:57:39Z</time>
      </trkpt>
      <trkpt lat="46.52144" lon="5.79521">
        <ele>791.2</ele>
        <time>2021-10-17T06:57:40Z</time>
      </trkpt>
      <trkpt lat="46.5214" lon="5.79522">
        <ele>791.2</ele>
        <time>2021-10-17T06:57:41Z</time>
      </trkpt>
      <trkpt lat="46.52137" lon="5.79523">
        <ele>791.4</ele>
        <time>2021-10-17T06:57:42Z</time>
      </trkpt>
      <trkpt lat="46.52133" lon="5.79525">
        <ele>791.4</ele>
        <time>2021-10-17T06:57:43Z</time>
      </trkpt>
      <trkpt lat="46.52129" lon="5.79527">
        <ele>791.4</ele>
        <time>2021-10-17T06:57:44Z</time>
      </trkpt>
      <trkpt lat="46.52126" lon="5.79529">
        <ele>791.8</ele>
        <time>2021-10-17T06:57:45Z</time>
      </trkpt>
      <trkpt lat="46.52123" lon="5.79531">
        <ele>791.8</ele>
        <time>2021-10-17T06:57:46Z</time>
      </trkpt>
      <trkpt lat="46.52119" lon="5.79534">
        <ele>792</ele>
        <time>2021-10-17T06:57:47Z</time>
      </trkpt>
      <trkpt lat="46.52116" lon="5.79537">
        <ele>792</ele>
        <time>2021-10-17T06:57:48Z</time>
      </trkpt>
      <trkpt lat="46.52114" lon="5.79541">
        <ele>792.2</ele>
        <time>2021-10-17T06:57:49Z</time>
      </trkpt>
      <trkpt lat="46.52111" lon="5.79545">
        <ele>792.2</ele>
        <time>2021-10-17T06:57:50Z</time>
      </trkpt>
      <trkpt lat="46.52108" lon="5.79548">
        <ele>792.2</ele>
        <time>2021-10-17T06:57:51Z</time>
      </trkpt>
      <trkpt lat="46.52106" lon="5.79552">
        <ele>792.2</ele>
        <time>2021-10-17T06:57:52Z</time>
      </trkpt>
      <trkpt lat="46.52103" lon="5.79555">
        <ele>792.2</ele>
        <time>2021-10-17T06:57:53Z</time>
      </trkpt>
      <trkpt lat="46.52101" lon="5.79559">
        <ele>792.2</ele>
        <time>2021-10-17T06:57:54Z</time>
      </trkpt>
      <trkpt lat="46.52098" lon="5.79563">
        <ele>792.2</ele>
        <time>2021-10-17T06:57:55Z</time>
      </trkpt>
      <trkpt lat="46.52095" lon="5.79567">
        <ele>792.2</ele>
        <time>2021-10-17T06:57:56Z</time>
      </trkpt>
      <trkpt lat="46.52092" lon="5.79572">
        <ele>792.2</ele>
        <time>2021-10-17T06:57:57Z</time>
      </trkpt>
      <trkpt lat="46.52089" lon="5.79575">
        <ele>792.2</ele>
        <time>2021-10-17T06:57:58Z</time>
      </trkpt>
      <trkpt lat="46.52087" lon="5.79579">
        <ele>792.2</ele>
        <time>2021-10-17T06:57:59Z</time>
      </trkpt>
      <trkpt lat="46.52083" lon="5.79585">
        <ele>792.2</ele>
        <time>2021-10-17T06:58:00Z</time>
      </trkpt>
      <trkpt lat="46.52079" lon="5.7959">
        <ele>792.2</ele>
        <time>2021-10-17T06:58:01Z</time>
      </trkpt>
      <trkpt lat="46.52076" lon="5.79596">
        <ele>792.2</ele>
        <time>2021-10-17T06:58:02Z</time>
      </trkpt>
      <trkpt lat="46.52073" lon="5.79601">
        <ele>792</ele>
        <time>2021-10-17T06:58:03Z</time>
      </trkpt>
      <trkpt lat="46.5207" lon="5.79606">
        <ele>792</ele>
        <time>2021-10-17T06:58:04Z</time>
      </trkpt>
      <trkpt lat="46.52067" lon="5.79611">
        <ele>791.8</ele>
        <time>2021-10-17T06:58:05Z</time>
      </trkpt>
      <trkpt lat="46.52063" lon="5.79617">
        <ele>791.8</ele>
        <time>2021-10-17T06:58:06Z</time>
      </trkpt>
      <trkpt lat="46.5206" lon="5.79625">
        <ele>791.6</ele>
        <time>2021-10-17T06:58:07Z</time>
      </trkpt>
      <trkpt lat="46.52056" lon="5.79632">
        <ele>791.6</ele>
        <time>2021-10-17T06:58:08Z</time>
      </trkpt>
      <trkpt lat="46.52052" lon="5.79638">
        <ele>791.6</ele>
        <time>2021-10-17T06:58:09Z</time>
      </trkpt>
      <trkpt lat="46.52048" lon="5.79645">
        <ele>791.2</ele>
        <time>2021-10-17T06:58:10Z</time>
      </trkpt>
      <trkpt lat="46.52043" lon="5.79652">
        <ele>791.2</ele>
        <time>2021-10-17T06:58:11Z</time>
      </trkpt>
      <trkpt lat="46.52039" lon="5.79659">
        <ele>791</ele>
        <time>2021-10-17T06:58:12Z</time>
      </trkpt>
      <trkpt lat="46.52035" lon="5.79666">
        <ele>791</ele>
        <time>2021-10-17T06:58:13Z</time>
      </trkpt>
      <trkpt lat="46.52031" lon="5.79674">
        <ele>791</ele>
        <time>2021-10-17T06:58:14Z</time>
      </trkpt>
      <trkpt lat="46.52027" lon="5.79683">
        <ele>790.6</ele>
        <time>2021-10-17T06:58:15Z</time>
      </trkpt>
      <trkpt lat="46.52022" lon="5.7969">
        <ele>790.6</ele>
        <time>2021-10-17T06:58:16Z</time>
      </trkpt>
      <trkpt lat="46.52018" lon="5.79698">
        <ele>790.4</ele>
        <time>2021-10-17T06:58:17Z</time>
      </trkpt>
      <trkpt lat="46.52014" lon="5.79705">
        <ele>790.4</ele>
        <time>2021-10-17T06:58:18Z</time>
      </trkpt>
      <trkpt lat="46.5201" lon="5.79712">
        <ele>790</ele>
        <time>2021-10-17T06:58:19Z</time>
      </trkpt>
      <trkpt lat="46.52006" lon="5.79721">
        <ele>790</ele>
        <time>2021-10-17T06:58:20Z</time>
      </trkpt>
      <trkpt lat="46.52002" lon="5.79728">
        <ele>789.8</ele>
        <time>2021-10-17T06:58:21Z</time>
      </trkpt>
      <trkpt lat="46.51998" lon="5.79736">
        <ele>789.8</ele>
        <time>2021-10-17T06:58:22Z</time>
      </trkpt>
      <trkpt lat="46.51994" lon="5.79743">
        <ele>789.6</ele>
        <time>2021-10-17T06:58:23Z</time>
      </trkpt>
      <trkpt lat="46.5199" lon="5.79751">
        <ele>789.6</ele>
        <time>2021-10-17T06:58:24Z</time>
      </trkpt>
      <trkpt lat="46.51985" lon="5.79759">
        <ele>789.4</ele>
        <time>2021-10-17T06:58:25Z</time>
      </trkpt>
      <trkpt lat="46.51981" lon="5.79766">
        <ele>789.4</ele>
        <time>2021-10-17T06:58:26Z</time>
      </trkpt>
      <trkpt lat="46.51977" lon="5.79773">
        <ele>789.2</ele>
        <time>2021-10-17T06:58:27Z</time>
      </trkpt>
      <trkpt lat="46.51971" lon="5.7978">
        <ele>789.2</ele>
        <time>2021-10-17T06:58:28Z</time>
      </trkpt>
      <trkpt lat="46.51966" lon="5.79788">
        <ele>788.8</ele>
        <time>2021-10-17T06:58:29Z</time>
      </trkpt>
      <trkpt lat="46.51961" lon="5.79796">
        <ele>788.8</ele>
        <time>2021-10-17T06:58:30Z</time>
      </trkpt>
      <trkpt lat="46.51956" lon="5.79803">
        <ele>788.6</ele>
        <time>2021-10-17T06:58:31Z</time>
      </trkpt>
      <trkpt lat="46.51951" lon="5.79811">
        <ele>788.6</ele>
        <time>2021-10-17T06:58:32Z</time>
      </trkpt>
      <trkpt lat="46.51946" lon="5.79819">
        <ele>788.2</ele>
        <time>2021-10-17T06:58:33Z</time>
      </trkpt>
      <trkpt lat="46.51941" lon="5.79826">
        <ele>788.2</ele>
        <time>2021-10-17T06:58:34Z</time>
      </trkpt>
      <trkpt lat="46.51936" lon="5.79834">
        <ele>788</ele>
        <time>2021-10-17T06:58:35Z</time>
      </trkpt>
      <trkpt lat="46.5193" lon="5.7984">
        <ele>788</ele>
        <time>2021-10-17T06:58:36Z</time>
      </trkpt>
      <trkpt lat="46.51924" lon="5.79847">
        <ele>787.6</ele>
        <time>2021-10-17T06:58:37Z</time>
      </trkpt>
      <trkpt lat="46.51918" lon="5.79855">
        <ele>787.6</ele>
        <time>2021-10-17T06:58:38Z</time>
      </trkpt>
      <trkpt lat="46.51913" lon="5.79862">
        <ele>787.2</ele>
        <time>2021-10-17T06:58:39Z</time>
      </trkpt>
      <trkpt lat="46.51908" lon="5.79869">
        <ele>787.2</ele>
        <time>2021-10-17T06:58:40Z</time>
      </trkpt>
      <trkpt lat="46.51904" lon="5.79877">
        <ele>786.8</ele>
        <time>2021-10-17T06:58:41Z</time>
      </trkpt>
      <trkpt lat="46.519" lon="5.79884">
        <ele>786.8</ele>
        <time>2021-10-17T06:58:42Z</time>
      </trkpt>
      <trkpt lat="46.51895" lon="5.79893">
        <ele>786.6</ele>
        <time>2021-10-17T06:58:43Z</time>
      </trkpt>
      <trkpt lat="46.51891" lon="5.79902">
        <ele>786.6</ele>
        <time>2021-10-17T06:58:44Z</time>
      </trkpt>
      <trkpt lat="46.51887" lon="5.79911">
        <ele>786.4</ele>
        <time>2021-10-17T06:58:45Z</time>
      </trkpt>
      <trkpt lat="46.51883" lon="5.79919">
        <ele>786.4</ele>
        <time>2021-10-17T06:58:46Z</time>
      </trkpt>
      <trkpt lat="46.51878" lon="5.79929">
        <ele>786.2</ele>
        <time>2021-10-17T06:58:47Z</time>
      </trkpt>
      <trkpt lat="46.51872" lon="5.79939">
        <ele>786.2</ele>
        <time>2021-10-17T06:58:48Z</time>
      </trkpt>
      <trkpt lat="46.51867" lon="5.79948">
        <ele>785.8</ele>
        <time>2021-10-17T06:58:49Z</time>
      </trkpt>
      <trkpt lat="46.51861" lon="5.79957">
        <ele>785.8</ele>
        <time>2021-10-17T06:58:50Z</time>
      </trkpt>
      <trkpt lat="46.51855" lon="5.79965">
        <ele>785.6</ele>
        <time>2021-10-17T06:58:51Z</time>
      </trkpt>
      <trkpt lat="46.51847" lon="5.79971">
        <ele>785.4</ele>
        <time>2021-10-17T06:58:52Z</time>
      </trkpt>
      <trkpt lat="46.51839" lon="5.79975">
        <ele>785.4</ele>
        <time>2021-10-17T06:58:53Z</time>
      </trkpt>
      <trkpt lat="46.51832" lon="5.79978">
        <ele>785.2</ele>
        <time>2021-10-17T06:58:54Z</time>
      </trkpt>
      <trkpt lat="46.51825" lon="5.79978">
        <ele>785.2</ele>
        <time>2021-10-17T06:58:55Z</time>
      </trkpt>
      <trkpt lat="46.51817" lon="5.79978">
        <ele>785.2</ele>
        <time>2021-10-17T06:58:56Z</time>
      </trkpt>
      <trkpt lat="46.51808" lon="5.79979">
        <ele>785.2</ele>
        <time>2021-10-17T06:58:57Z</time>
      </trkpt>
      <trkpt lat="46.51801" lon="5.79978">
        <ele>785.2</ele>
        <time>2021-10-17T06:58:58Z</time>
      </trkpt>
      <trkpt lat="46.51793" lon="5.79978">
        <ele>784.8</ele>
        <time>2021-10-17T06:58:59Z</time>
      </trkpt>
      <trkpt lat="46.51784" lon="5.79979">
        <ele>784.8</ele>
        <time>2021-10-17T06:59:00Z</time>
      </trkpt>
      <trkpt lat="46.51776" lon="5.79979">
        <ele>784.6</ele>
        <time>2021-10-17T06:59:01Z</time>
      </trkpt>
      <trkpt lat="46.51769" lon="5.7998">
        <ele>784.4</ele>
        <time>2021-10-17T06:59:02Z</time>
      </trkpt>
      <trkpt lat="46.51761" lon="5.79982">
        <ele>784.4</ele>
        <time>2021-10-17T06:59:03Z</time>
      </trkpt>
      <trkpt lat="46.51753" lon="5.79984">
        <ele>784.2</ele>
        <time>2021-10-17T06:59:04Z</time>
      </trkpt>
      <trkpt lat="46.51745" lon="5.79986">
        <ele>784.2</ele>
        <time>2021-10-17T06:59:05Z</time>
      </trkpt>
      <trkpt lat="46.51737" lon="5.79988">
        <ele>784</ele>
        <time>2021-10-17T06:59:06Z</time>
      </trkpt>
      <trkpt lat="46.51729" lon="5.7999">
        <ele>784</ele>
        <time>2021-10-17T06:59:07Z</time>
      </trkpt>
      <trkpt lat="46.51722" lon="5.79992">
        <ele>784</ele>
        <time>2021-10-17T06:59:08Z</time>
      </trkpt>
      <trkpt lat="46.51716" lon="5.79994">
        <ele>784</ele>
        <time>2021-10-17T06:59:09Z</time>
      </trkpt>
      <trkpt lat="46.5171" lon="5.79995">
        <ele>784</ele>
        <time>2021-10-17T06:59:10Z</time>
      </trkpt>
      <trkpt lat="46.51704" lon="5.79996">
        <ele>784</ele>
        <time>2021-10-17T06:59:11Z</time>
      </trkpt>
      <trkpt lat="46.51697" lon="5.79997">
        <ele>784</ele>
        <time>2021-10-17T06:59:12Z</time>
      </trkpt>
      <trkpt lat="46.5169" lon="5.79998">
        <ele>784</ele>
        <time>2021-10-17T06:59:13Z</time>
      </trkpt>
      <trkpt lat="46.51683" lon="5.79999">
        <ele>784</ele>
        <time>2021-10-17T06:59:14Z</time>
      </trkpt>
      <trkpt lat="46.51676" lon="5.79999">
        <ele>784</ele>
        <time>2021-10-17T06:59:15Z</time>
      </trkpt>
      <trkpt lat="46.51668" lon="5.8">
        <ele>784</ele>
        <time>2021-10-17T06:59:16Z</time>
      </trkpt>
      <trkpt lat="46.51661" lon="5.80002">
        <ele>784</ele>
        <time>2021-10-17T06:59:17Z</time>
      </trkpt>
      <trkpt lat="46.51653" lon="5.80005">
        <ele>784</ele>
        <time>2021-10-17T06:59:18Z</time>
      </trkpt>
      <trkpt lat="46.51647" lon="5.80007">
        <ele>784</ele>
        <time>2021-10-17T06:59:19Z</time>
      </trkpt>
      <trkpt lat="46.51641" lon="5.8001">
        <ele>784.2</ele>
        <time>2021-10-17T06:59:20Z</time>
      </trkpt>
      <trkpt lat="46.51635" lon="5.80013">
        <ele>784.2</ele>
        <time>2021-10-17T06:59:21Z</time>
      </trkpt>
      <trkpt lat="46.5163" lon="5.80018">
        <ele>784.4</ele>
        <time>2021-10-17T06:59:22Z</time>
      </trkpt>
      <trkpt lat="46.51625" lon="5.80023">
        <ele>784.4</ele>
        <time>2021-10-17T06:59:23Z</time>
      </trkpt>
      <trkpt lat="46.51621" lon="5.80028">
        <ele>784.8</ele>
        <time>2021-10-17T06:59:24Z</time>
      </trkpt>
      <trkpt lat="46.51617" lon="5.80033">
        <ele>784.8</ele>
        <time>2021-10-17T06:59:25Z</time>
      </trkpt>
      <trkpt lat="46.51613" lon="5.80039">
        <ele>785.2</ele>
        <time>2021-10-17T06:59:26Z</time>
      </trkpt>
      <trkpt lat="46.5161" lon="5.80045">
        <ele>785.2</ele>
        <time>2021-10-17T06:59:27Z</time>
      </trkpt>
      <trkpt lat="46.51607" lon="5.80052">
        <ele>785.4</ele>
        <time>2021-10-17T06:59:28Z</time>
      </trkpt>
      <trkpt lat="46.51604" lon="5.80059">
        <ele>785.4</ele>
        <time>2021-10-17T06:59:29Z</time>
      </trkpt>
      <trkpt lat="46.51601" lon="5.80066">
        <ele>785.6</ele>
        <time>2021-10-17T06:59:30Z</time>
      </trkpt>
      <trkpt lat="46.51599" lon="5.80072">
        <ele>786</ele>
        <time>2021-10-17T06:59:31Z</time>
      </trkpt>
      <trkpt lat="46.51595" lon="5.80079">
        <ele>786</ele>
        <time>2021-10-17T06:59:32Z</time>
      </trkpt>
      <trkpt lat="46.51592" lon="5.80087">
        <ele>786.4</ele>
        <time>2021-10-17T06:59:33Z</time>
      </trkpt>
      <trkpt lat="46.51589" lon="5.80094">
        <ele>786.6</ele>
        <time>2021-10-17T06:59:34Z</time>
      </trkpt>
      <trkpt lat="46.51587" lon="5.801">
        <ele>786.8</ele>
        <time>2021-10-17T06:59:35Z</time>
      </trkpt>
      <trkpt lat="46.51585" lon="5.80106">
        <ele>787</ele>
        <time>2021-10-17T06:59:36Z</time>
      </trkpt>
      <trkpt lat="46.51582" lon="5.80113">
        <ele>787.4</ele>
        <time>2021-10-17T06:59:37Z</time>
      </trkpt>
      <trkpt lat="46.5158" lon="5.80119">
        <ele>787.6</ele>
        <time>2021-10-17T06:59:38Z</time>
      </trkpt>
      <trkpt lat="46.51578" lon="5.80124">
        <ele>788</ele>
        <time>2021-10-17T06:59:39Z</time>
      </trkpt>
      <trkpt lat="46.51574" lon="5.8013">
        <ele>788.2</ele>
        <time>2021-10-17T06:59:40Z</time>
      </trkpt>
      <trkpt lat="46.51571" lon="5.80135">
        <ele>788.4</ele>
        <time>2021-10-17T06:59:41Z</time>
      </trkpt>
      <trkpt lat="46.51568" lon="5.8014">
        <ele>788.6</ele>
        <time>2021-10-17T06:59:42Z</time>
      </trkpt>
      <trkpt lat="46.51565" lon="5.80146">
        <ele>788.6</ele>
        <time>2021-10-17T06:59:43Z</time>
      </trkpt>
      <trkpt lat="46.51562" lon="5.80152">
        <ele>789</ele>
        <time>2021-10-17T06:59:44Z</time>
      </trkpt>
      <trkpt lat="46.51559" lon="5.80159">
        <ele>789</ele>
        <time>2021-10-17T06:59:45Z</time>
      </trkpt>
      <trkpt lat="46.51555" lon="5.80164">
        <ele>789.2</ele>
        <time>2021-10-17T06:59:46Z</time>
      </trkpt>
      <trkpt lat="46.51552" lon="5.80171">
        <ele>789.6</ele>
        <time>2021-10-17T06:59:47Z</time>
      </trkpt>
      <trkpt lat="46.51549" lon="5.80176">
        <ele>789.6</ele>
        <time>2021-10-17T06:59:48Z</time>
      </trkpt>
      <trkpt lat="46.51546" lon="5.80182">
        <ele>789.6</ele>
        <time>2021-10-17T06:59:49Z</time>
      </trkpt>
      <trkpt lat="46.51543" lon="5.80188">
        <ele>789.8</ele>
        <time>2021-10-17T06:59:50Z</time>
      </trkpt>
      <trkpt lat="46.5154" lon="5.80194">
        <ele>789.8</ele>
        <time>2021-10-17T06:59:51Z</time>
      </trkpt>
      <trkpt lat="46.51537" lon="5.802">
        <ele>789.8</ele>
        <time>2021-10-17T06:59:52Z</time>
      </trkpt>
      <trkpt lat="46.51534" lon="5.80206">
        <ele>789.8</ele>
        <time>2021-10-17T06:59:53Z</time>
      </trkpt>
      <trkpt lat="46.51531" lon="5.80213">
        <ele>789.8</ele>
        <time>2021-10-17T06:59:54Z</time>
      </trkpt>
      <trkpt lat="46.51528" lon="5.8022">
        <ele>789.8</ele>
        <time>2021-10-17T06:59:55Z</time>
      </trkpt>
      <trkpt lat="46.51525" lon="5.80227">
        <ele>789.6</ele>
        <time>2021-10-17T06:59:56Z</time>
      </trkpt>
      <trkpt lat="46.51521" lon="5.80235">
        <ele>789.6</ele>
        <time>2021-10-17T06:59:57Z</time>
      </trkpt>
      <trkpt lat="46.51518" lon="5.80242">
        <ele>789.6</ele>
        <time>2021-10-17T06:59:58Z</time>
      </trkpt>
      <trkpt lat="46.51515" lon="5.8025">
        <ele>789.4</ele>
        <time>2021-10-17T06:59:59Z</time>
      </trkpt>
      <trkpt lat="46.51512" lon="5.80258">
        <ele>789.4</ele>
        <time>2021-10-17T07:00:00Z</time>
      </trkpt>
      <trkpt lat="46.51509" lon="5.80266">
        <ele>789.4</ele>
        <time>2021-10-17T07:00:01Z</time>
      </trkpt>
      <trkpt lat="46.51506" lon="5.80274">
        <ele>789.2</ele>
        <time>2021-10-17T07:00:02Z</time>
      </trkpt>
      <trkpt lat="46.51503" lon="5.80283">
        <ele>789.2</ele>
        <time>2021-10-17T07:00:03Z</time>
      </trkpt>
      <trkpt lat="46.51501" lon="5.80291">
        <ele>789</ele>
        <time>2021-10-17T07:00:04Z</time>
      </trkpt>
      <trkpt lat="46.51499" lon="5.803">
        <ele>789</ele>
        <time>2021-10-17T07:00:05Z</time>
      </trkpt>
      <trkpt lat="46.51497" lon="5.80309">
        <ele>789</ele>
        <time>2021-10-17T07:00:06Z</time>
      </trkpt>
      <trkpt lat="46.51495" lon="5.80318">
        <ele>788.8</ele>
        <time>2021-10-17T07:00:07Z</time>
      </trkpt>
      <trkpt lat="46.51493" lon="5.80327">
        <ele>788.8</ele>
        <time>2021-10-17T07:00:08Z</time>
      </trkpt>
      <trkpt lat="46.51491" lon="5.80337">
        <ele>788.8</ele>
        <time>2021-10-17T07:00:09Z</time>
      </trkpt>
      <trkpt lat="46.51489" lon="5.80346">
        <ele>788.8</ele>
        <time>2021-10-17T07:00:10Z</time>
      </trkpt>
      <trkpt lat="46.51487" lon="5.80356">
        <ele>788.6</ele>
        <time>2021-10-17T07:00:11Z</time>
      </trkpt>
      <trkpt lat="46.51485" lon="5.80365">
        <ele>788.6</ele>
        <time>2021-10-17T07:00:12Z</time>
      </trkpt>
      <trkpt lat="46.51483" lon="5.80374">
        <ele>788.6</ele>
        <time>2021-10-17T07:00:13Z</time>
      </trkpt>
      <trkpt lat="46.51481" lon="5.80383">
        <ele>788.6</ele>
        <time>2021-10-17T07:00:14Z</time>
      </trkpt>
      <trkpt lat="46.5148" lon="5.80392">
        <ele>788.6</ele>
        <time>2021-10-17T07:00:15Z</time>
      </trkpt>
      <trkpt lat="46.51478" lon="5.804">
        <ele>788.6</ele>
        <time>2021-10-17T07:00:16Z</time>
      </trkpt>
      <trkpt lat="46.51476" lon="5.80409">
        <ele>788.6</ele>
        <time>2021-10-17T07:00:17Z</time>
      </trkpt>
      <trkpt lat="46.51474" lon="5.80417">
        <ele>788.6</ele>
        <time>2021-10-17T07:00:18Z</time>
      </trkpt>
      <trkpt lat="46.51472" lon="5.80425">
        <ele>788.6</ele>
        <time>2021-10-17T07:00:19Z</time>
      </trkpt>
      <trkpt lat="46.51471" lon="5.80433">
        <ele>788.6</ele>
        <time>2021-10-17T07:00:20Z</time>
      </trkpt>
      <trkpt lat="46.51469" lon="5.80441">
        <ele>788.6</ele>
        <time>2021-10-17T07:00:21Z</time>
      </trkpt>
      <trkpt lat="46.51467" lon="5.80449">
        <ele>788.8</ele>
        <time>2021-10-17T07:00:22Z</time>
      </trkpt>
      <trkpt lat="46.51465" lon="5.80457">
        <ele>788.8</ele>
        <time>2021-10-17T07:00:23Z</time>
      </trkpt>
      <trkpt lat="46.51463" lon="5.80464">
        <ele>789</ele>
        <time>2021-10-17T07:00:24Z</time>
      </trkpt>
      <trkpt lat="46.51462" lon="5.80471">
        <ele>789</ele>
        <time>2021-10-17T07:00:25Z</time>
      </trkpt>
      <trkpt lat="46.5146" lon="5.80478">
        <ele>789.4</ele>
        <time>2021-10-17T07:00:26Z</time>
      </trkpt>
      <trkpt lat="46.51459" lon="5.80485">
        <ele>789.4</ele>
        <time>2021-10-17T07:00:27Z</time>
      </trkpt>
      <trkpt lat="46.51457" lon="5.80492">
        <ele>789.6</ele>
        <time>2021-10-17T07:00:28Z</time>
      </trkpt>
      <trkpt lat="46.51456" lon="5.80499">
        <ele>789.6</ele>
        <time>2021-10-17T07:00:29Z</time>
      </trkpt>
      <trkpt lat="46.51455" lon="5.80505">
        <ele>790</ele>
        <time>2021-10-17T07:00:30Z</time>
      </trkpt>
      <trkpt lat="46.51453" lon="5.80512">
        <ele>790.2</ele>
        <time>2021-10-17T07:00:31Z</time>
      </trkpt>
      <trkpt lat="46.51452" lon="5.80518">
        <ele>790.4</ele>
        <time>2021-10-17T07:00:32Z</time>
      </trkpt>
      <trkpt lat="46.51451" lon="5.80524">
        <ele>790.6</ele>
        <time>2021-10-17T07:00:33Z</time>
      </trkpt>
      <trkpt lat="46.5145" lon="5.80531">
        <ele>790.8</ele>
        <time>2021-10-17T07:00:34Z</time>
      </trkpt>
      <trkpt lat="46.51448" lon="5.80536">
        <ele>790.8</ele>
        <time>2021-10-17T07:00:35Z</time>
      </trkpt>
      <trkpt lat="46.51447" lon="5.80542">
        <ele>791.2</ele>
        <time>2021-10-17T07:00:36Z</time>
      </trkpt>
      <trkpt lat="46.51446" lon="5.80548">
        <ele>791.4</ele>
        <time>2021-10-17T07:00:37Z</time>
      </trkpt>
      <trkpt lat="46.51444" lon="5.80553">
        <ele>791.4</ele>
        <time>2021-10-17T07:00:38Z</time>
      </trkpt>
      <trkpt lat="46.51443" lon="5.80559">
        <ele>791.6</ele>
        <time>2021-10-17T07:00:39Z</time>
      </trkpt>
      <trkpt lat="46.51441" lon="5.80564">
        <ele>791.6</ele>
        <time>2021-10-17T07:00:40Z</time>
      </trkpt>
      <trkpt lat="46.5144" lon="5.8057">
        <ele>792.2</ele>
        <time>2021-10-17T07:00:41Z</time>
      </trkpt>
      <trkpt lat="46.51439" lon="5.80575">
        <ele>792.4</ele>
        <time>2021-10-17T07:00:42Z</time>
      </trkpt>
      <trkpt lat="46.51438" lon="5.8058">
        <ele>792.6</ele>
        <time>2021-10-17T07:00:43Z</time>
      </trkpt>
      <trkpt lat="46.51437" lon="5.80585">
        <ele>793</ele>
        <time>2021-10-17T07:00:44Z</time>
      </trkpt>
      <trkpt lat="46.51435" lon="5.80591">
        <ele>793</ele>
        <time>2021-10-17T07:00:45Z</time>
      </trkpt>
      <trkpt lat="46.51434" lon="5.80596">
        <ele>793.2</ele>
        <time>2021-10-17T07:00:46Z</time>
      </trkpt>
      <trkpt lat="46.51433" lon="5.80602">
        <ele>793.2</ele>
        <time>2021-10-17T07:00:47Z</time>
      </trkpt>
      <trkpt lat="46.51432" lon="5.80607">
        <ele>793.6</ele>
        <time>2021-10-17T07:00:48Z</time>
      </trkpt>
      <trkpt lat="46.51431" lon="5.80612">
        <ele>793.6</ele>
        <time>2021-10-17T07:00:49Z</time>
      </trkpt>
      <trkpt lat="46.5143" lon="5.80617">
        <ele>794</ele>
        <time>2021-10-17T07:00:50Z</time>
      </trkpt>
      <trkpt lat="46.51429" lon="5.80622">
        <ele>794</ele>
        <time>2021-10-17T07:00:51Z</time>
      </trkpt>
      <trkpt lat="46.51428" lon="5.80628">
        <ele>794.2</ele>
        <time>2021-10-17T07:00:52Z</time>
      </trkpt>
      <trkpt lat="46.51426" lon="5.80633">
        <ele>794.2</ele>
        <time>2021-10-17T07:00:53Z</time>
      </trkpt>
      <trkpt lat="46.51425" lon="5.80639">
        <ele>794.6</ele>
        <time>2021-10-17T07:00:54Z</time>
      </trkpt>
      <trkpt lat="46.51424" lon="5.80644">
        <ele>794.6</ele>
        <time>2021-10-17T07:00:55Z</time>
      </trkpt>
      <trkpt lat="46.51423" lon="5.80649">
        <ele>795</ele>
        <time>2021-10-17T07:00:56Z</time>
      </trkpt>
      <trkpt lat="46.51422" lon="5.80654">
        <ele>795</ele>
        <time>2021-10-17T07:00:57Z</time>
      </trkpt>
      <trkpt lat="46.51421" lon="5.80659">
        <ele>795.2</ele>
        <time>2021-10-17T07:00:58Z</time>
      </trkpt>
      <trkpt lat="46.5142" lon="5.80665">
        <ele>795.2</ele>
        <time>2021-10-17T07:00:59Z</time>
      </trkpt>
      <trkpt lat="46.51419" lon="5.8067">
        <ele>795.6</ele>
        <time>2021-10-17T07:01:00Z</time>
      </trkpt>
      <trkpt lat="46.51418" lon="5.80675">
        <ele>795.6</ele>
        <time>2021-10-17T07:01:01Z</time>
      </trkpt>
      <trkpt lat="46.51417" lon="5.8068">
        <ele>795.8</ele>
        <time>2021-10-17T07:01:02Z</time>
      </trkpt>
      <trkpt lat="46.51416" lon="5.80685">
        <ele>795.8</ele>
        <time>2021-10-17T07:01:03Z</time>
      </trkpt>
      <trkpt lat="46.51415" lon="5.8069">
        <ele>796.2</ele>
        <time>2021-10-17T07:01:04Z</time>
      </trkpt>
      <trkpt lat="46.51414" lon="5.80695">
        <ele>796.4</ele>
        <time>2021-10-17T07:01:05Z</time>
      </trkpt>
      <trkpt lat="46.51413" lon="5.807">
        <ele>796.8</ele>
        <time>2021-10-17T07:01:06Z</time>
      </trkpt>
      <trkpt lat="46.51412" lon="5.80705">
        <ele>797</ele>
        <time>2021-10-17T07:01:07Z</time>
      </trkpt>
      <trkpt lat="46.5141" lon="5.80711">
        <ele>797.2</ele>
        <time>2021-10-17T07:01:08Z</time>
      </trkpt>
      <trkpt lat="46.51409" lon="5.80716">
        <ele>797.4</ele>
        <time>2021-10-17T07:01:09Z</time>
      </trkpt>
      <trkpt lat="46.51409" lon="5.80721">
        <ele>797.4</ele>
        <time>2021-10-17T07:01:10Z</time>
      </trkpt>
      <trkpt lat="46.51407" lon="5.80725">
        <ele>798</ele>
        <time>2021-10-17T07:01:11Z</time>
      </trkpt>
      <trkpt lat="46.51406" lon="5.8073">
        <ele>798.2</ele>
        <time>2021-10-17T07:01:12Z</time>
      </trkpt>
      <trkpt lat="46.51405" lon="5.80735">
        <ele>798.2</ele>
        <time>2021-10-17T07:01:13Z</time>
      </trkpt>
      <trkpt lat="46.51404" lon="5.8074">
        <ele>798.6</ele>
        <time>2021-10-17T07:01:14Z</time>
      </trkpt>
      <trkpt lat="46.51403" lon="5.80745">
        <ele>798.6</ele>
        <time>2021-10-17T07:01:15Z</time>
      </trkpt>
      <trkpt lat="46.51402" lon="5.80751">
        <ele>798.8</ele>
        <time>2021-10-17T07:01:16Z</time>
      </trkpt>
      <trkpt lat="46.51401" lon="5.80756">
        <ele>798.8</ele>
        <time>2021-10-17T07:01:17Z</time>
      </trkpt>
      <trkpt lat="46.514" lon="5.80762">
        <ele>799.2</ele>
        <time>2021-10-17T07:01:18Z</time>
      </trkpt>
      <trkpt lat="46.51399" lon="5.80767">
        <ele>799.2</ele>
        <time>2021-10-17T07:01:19Z</time>
      </trkpt>
      <trkpt lat="46.51399" lon="5.80772">
        <ele>799.4</ele>
        <time>2021-10-17T07:01:20Z</time>
      </trkpt>
      <trkpt lat="46.51398" lon="5.80777">
        <ele>799.4</ele>
        <time>2021-10-17T07:01:21Z</time>
      </trkpt>
      <trkpt lat="46.51396" lon="5.80782">
        <ele>799.8</ele>
        <time>2021-10-17T07:01:22Z</time>
      </trkpt>
      <trkpt lat="46.51395" lon="5.80787">
        <ele>799.8</ele>
        <time>2021-10-17T07:01:23Z</time>
      </trkpt>
      <trkpt lat="46.51394" lon="5.80791">
        <ele>800</ele>
        <time>2021-10-17T07:01:24Z</time>
      </trkpt>
      <trkpt lat="46.51392" lon="5.80796">
        <ele>800.2</ele>
        <time>2021-10-17T07:01:25Z</time>
      </trkpt>
      <trkpt lat="46.51391" lon="5.80801">
        <ele>800.4</ele>
        <time>2021-10-17T07:01:26Z</time>
      </trkpt>
      <trkpt lat="46.51389" lon="5.80806">
        <ele>800.4</ele>
        <time>2021-10-17T07:01:27Z</time>
      </trkpt>
      <trkpt lat="46.51388" lon="5.80811">
        <ele>800.6</ele>
        <time>2021-10-17T07:01:28Z</time>
      </trkpt>
      <trkpt lat="46.51387" lon="5.80816">
        <ele>800.6</ele>
        <time>2021-10-17T07:01:29Z</time>
      </trkpt>
      <trkpt lat="46.51386" lon="5.80822">
        <ele>801</ele>
        <time>2021-10-17T07:01:30Z</time>
      </trkpt>
      <trkpt lat="46.51385" lon="5.80827">
        <ele>801</ele>
        <time>2021-10-17T07:01:31Z</time>
      </trkpt>
      <trkpt lat="46.51384" lon="5.80832">
        <ele>801.4</ele>
        <time>2021-10-17T07:01:32Z</time>
      </trkpt>
      <trkpt lat="46.51382" lon="5.80837">
        <ele>801.4</ele>
        <time>2021-10-17T07:01:33Z</time>
      </trkpt>
      <trkpt lat="46.51381" lon="5.80843">
        <ele>801.6</ele>
        <time>2021-10-17T07:01:34Z</time>
      </trkpt>
      <trkpt lat="46.51379" lon="5.80848">
        <ele>801.8</ele>
        <time>2021-10-17T07:01:35Z</time>
      </trkpt>
      <trkpt lat="46.51378" lon="5.80854">
        <ele>801.8</ele>
        <time>2021-10-17T07:01:36Z</time>
      </trkpt>
      <trkpt lat="46.51377" lon="5.80859">
        <ele>802.2</ele>
        <time>2021-10-17T07:01:37Z</time>
      </trkpt>
      <trkpt lat="46.51376" lon="5.80865">
        <ele>802.4</ele>
        <time>2021-10-17T07:01:38Z</time>
      </trkpt>
      <trkpt lat="46.51375" lon="5.80871">
        <ele>802.4</ele>
        <time>2021-10-17T07:01:39Z</time>
      </trkpt>
      <trkpt lat="46.51373" lon="5.80876">
        <ele>803</ele>
        <time>2021-10-17T07:01:40Z</time>
      </trkpt>
      <trkpt lat="46.51372" lon="5.80881">
        <ele>803.2</ele>
        <time>2021-10-17T07:01:41Z</time>
      </trkpt>
      <trkpt lat="46.51371" lon="5.80887">
        <ele>803.4</ele>
        <time>2021-10-17T07:01:42Z</time>
      </trkpt>
      <trkpt lat="46.5137" lon="5.80892">
        <ele>803.6</ele>
        <time>2021-10-17T07:01:43Z</time>
      </trkpt>
      <trkpt lat="46.5137" lon="5.80897">
        <ele>803.6</ele>
        <time>2021-10-17T07:01:44Z</time>
      </trkpt>
      <trkpt lat="46.51369" lon="5.80902">
        <ele>804</ele>
        <time>2021-10-17T07:01:45Z</time>
      </trkpt>
      <trkpt lat="46.51369" lon="5.80907">
        <ele>804.4</ele>
        <time>2021-10-17T07:01:46Z</time>
      </trkpt>
      <trkpt lat="46.5137" lon="5.80912">
        <ele>804.6</ele>
        <time>2021-10-17T07:01:47Z</time>
      </trkpt>
      <trkpt lat="46.5137" lon="5.80918">
        <ele>804.8</ele>
        <time>2021-10-17T07:01:48Z</time>
      </trkpt>
      <trkpt lat="46.5137" lon="5.80923">
        <ele>805.2</ele>
        <time>2021-10-17T07:01:49Z</time>
      </trkpt>
      <trkpt lat="46.51371" lon="5.80927">
        <ele>805.4</ele>
        <time>2021-10-17T07:01:50Z</time>
      </trkpt>
      <trkpt lat="46.51372" lon="5.80932">
        <ele>805.8</ele>
        <time>2021-10-17T07:01:51Z</time>
      </trkpt>
      <trkpt lat="46.51373" lon="5.80936">
        <ele>806</ele>
        <time>2021-10-17T07:01:52Z</time>
      </trkpt>
      <trkpt lat="46.51374" lon="5.8094">
        <ele>806.2</ele>
        <time>2021-10-17T07:01:53Z</time>
      </trkpt>
      <trkpt lat="46.51375" lon="5.80944">
        <ele>806.6</ele>
        <time>2021-10-17T07:01:54Z</time>
      </trkpt>
      <trkpt lat="46.51376" lon="5.80948">
        <ele>806.8</ele>
        <time>2021-10-17T07:01:55Z</time>
      </trkpt>
      <trkpt lat="46.51377" lon="5.80952">
        <ele>807.2</ele>
        <time>2021-10-17T07:01:56Z</time>
      </trkpt>
      <trkpt lat="46.51379" lon="5.80957">
        <ele>807.4</ele>
        <time>2021-10-17T07:01:57Z</time>
      </trkpt>
      <trkpt lat="46.5138" lon="5.80961">
        <ele>807.6</ele>
        <time>2021-10-17T07:01:58Z</time>
      </trkpt>
      <trkpt lat="46.51382" lon="5.80965">
        <ele>808</ele>
        <time>2021-10-17T07:01:59Z</time>
      </trkpt>
      <trkpt lat="46.51384" lon="5.80969">
        <ele>808.2</ele>
        <time>2021-10-17T07:02:00Z</time>
      </trkpt>
      <trkpt lat="46.51386" lon="5.80972">
        <ele>808.4</ele>
        <time>2021-10-17T07:02:01Z</time>
      </trkpt>
      <trkpt lat="46.51387" lon="5.80976">
        <ele>808.8</ele>
        <time>2021-10-17T07:02:02Z</time>
      </trkpt>
      <trkpt lat="46.5139" lon="5.80978">
        <ele>809</ele>
        <time>2021-10-17T07:02:03Z</time>
      </trkpt>
      <trkpt lat="46.51392" lon="5.80982">
        <ele>809.2</ele>
        <time>2021-10-17T07:02:04Z</time>
      </trkpt>
      <trkpt lat="46.51394" lon="5.80985">
        <ele>809.6</ele>
        <time>2021-10-17T07:02:05Z</time>
      </trkpt>
      <trkpt lat="46.51397" lon="5.80988">
        <ele>809.8</ele>
        <time>2021-10-17T07:02:06Z</time>
      </trkpt>
      <trkpt lat="46.51399" lon="5.80991">
        <ele>810</ele>
        <time>2021-10-17T07:02:07Z</time>
      </trkpt>
      <trkpt lat="46.51402" lon="5.80994">
        <ele>810.2</ele>
        <time>2021-10-17T07:02:08Z</time>
      </trkpt>
      <trkpt lat="46.51404" lon="5.80996">
        <ele>810.6</ele>
        <time>2021-10-17T07:02:09Z</time>
      </trkpt>
      <trkpt lat="46.51407" lon="5.80999">
        <ele>810.8</ele>
        <time>2021-10-17T07:02:10Z</time>
      </trkpt>
      <trkpt lat="46.51409" lon="5.81002">
        <ele>811</ele>
        <time>2021-10-17T07:02:11Z</time>
      </trkpt>
      <trkpt lat="46.51411" lon="5.81005">
        <ele>811.2</ele>
        <time>2021-10-17T07:02:12Z</time>
      </trkpt>
      <trkpt lat="46.51413" lon="5.81008">
        <ele>811.2</ele>
        <time>2021-10-17T07:02:13Z</time>
      </trkpt>
      <trkpt lat="46.51415" lon="5.8101">
        <ele>811.6</ele>
        <time>2021-10-17T07:02:14Z</time>
      </trkpt>
      <trkpt lat="46.51417" lon="5.81012">
        <ele>811.6</ele>
        <time>2021-10-17T07:02:15Z</time>
      </trkpt>
      <trkpt lat="46.51419" lon="5.81014">
        <ele>812</ele>
        <time>2021-10-17T07:02:16Z</time>
      </trkpt>
      <trkpt lat="46.51422" lon="5.81017">
        <ele>812.2</ele>
        <time>2021-10-17T07:02:17Z</time>
      </trkpt>
      <trkpt lat="46.51423" lon="5.81019">
        <ele>812.4</ele>
        <time>2021-10-17T07:02:18Z</time>
      </trkpt>
      <trkpt lat="46.51425" lon="5.81022">
        <ele>812.6</ele>
        <time>2021-10-17T07:02:19Z</time>
      </trkpt>
      <trkpt lat="46.51427" lon="5.81025">
        <ele>812.8</ele>
        <time>2021-10-17T07:02:20Z</time>
      </trkpt>
      <trkpt lat="46.51429" lon="5.81027">
        <ele>813</ele>
        <time>2021-10-17T07:02:21Z</time>
      </trkpt>
      <trkpt lat="46.51431" lon="5.81029">
        <ele>813.4</ele>
        <time>2021-10-17T07:02:22Z</time>
      </trkpt>
      <trkpt lat="46.51433" lon="5.81031">
        <ele>813.6</ele>
        <time>2021-10-17T07:02:23Z</time>
      </trkpt>
      <trkpt lat="46.51436" lon="5.81033">
        <ele>813.6</ele>
        <time>2021-10-17T07:02:24Z</time>
      </trkpt>
      <trkpt lat="46.51438" lon="5.81035">
        <ele>814</ele>
        <time>2021-10-17T07:02:25Z</time>
      </trkpt>
      <trkpt lat="46.5144" lon="5.81037">
        <ele>814</ele>
        <time>2021-10-17T07:02:26Z</time>
      </trkpt>
      <trkpt lat="46.51442" lon="5.81039">
        <ele>814.4</ele>
        <time>2021-10-17T07:02:27Z</time>
      </trkpt>
      <trkpt lat="46.51444" lon="5.81041">
        <ele>814.4</ele>
        <time>2021-10-17T07:02:28Z</time>
      </trkpt>
      <trkpt lat="46.51446" lon="5.81043">
        <ele>814.6</ele>
        <time>2021-10-17T07:02:29Z</time>
      </trkpt>
      <trkpt lat="46.51448" lon="5.81045">
        <ele>815</ele>
        <time>2021-10-17T07:02:30Z</time>
      </trkpt>
      <trkpt lat="46.5145" lon="5.81047">
        <ele>815.2</ele>
        <time>2021-10-17T07:02:31Z</time>
      </trkpt>
      <trkpt lat="46.51452" lon="5.81049">
        <ele>815.6</ele>
        <time>2021-10-17T07:02:32Z</time>
      </trkpt>
      <trkpt lat="46.51454" lon="5.8105">
        <ele>815.6</ele>
        <time>2021-10-17T07:02:33Z</time>
      </trkpt>
      <trkpt lat="46.51457" lon="5.81052">
        <ele>815.8</ele>
        <time>2021-10-17T07:02:34Z</time>
      </trkpt>
      <trkpt lat="46.51459" lon="5.81054">
        <ele>816.2</ele>
        <time>2021-10-17T07:02:35Z</time>
      </trkpt>
      <trkpt lat="46.51461" lon="5.81056">
        <ele>816.2</ele>
        <time>2021-10-17T07:02:36Z</time>
      </trkpt>
      <trkpt lat="46.51463" lon="5.81058">
        <ele>816.4</ele>
        <time>2021-10-17T07:02:37Z</time>
      </trkpt>
      <trkpt lat="46.51465" lon="5.8106">
        <ele>816.6</ele>
        <time>2021-10-17T07:02:38Z</time>
      </trkpt>
      <trkpt lat="46.51467" lon="5.81063">
        <ele>816.8</ele>
        <time>2021-10-17T07:02:39Z</time>
      </trkpt>
      <trkpt lat="46.51469" lon="5.81065">
        <ele>817</ele>
        <time>2021-10-17T07:02:40Z</time>
      </trkpt>
      <trkpt lat="46.5147" lon="5.81068">
        <ele>817.4</ele>
        <time>2021-10-17T07:02:41Z</time>
      </trkpt>
      <trkpt lat="46.51472" lon="5.81071">
        <ele>817.6</ele>
        <time>2021-10-17T07:02:42Z</time>
      </trkpt>
      <trkpt lat="46.51473" lon="5.81073">
        <ele>818</ele>
        <time>2021-10-17T07:02:43Z</time>
      </trkpt>
      <trkpt lat="46.51474" lon="5.81076">
        <ele>818.2</ele>
        <time>2021-10-17T07:02:44Z</time>
      </trkpt>
      <trkpt lat="46.51476" lon="5.81079">
        <ele>818.2</ele>
        <time>2021-10-17T07:02:45Z</time>
      </trkpt>
      <trkpt lat="46.51477" lon="5.81081">
        <ele>818.6</ele>
        <time>2021-10-17T07:02:46Z</time>
      </trkpt>
      <trkpt lat="46.51478" lon="5.81083">
        <ele>818.6</ele>
        <time>2021-10-17T07:02:47Z</time>
      </trkpt>
      <trkpt lat="46.5148" lon="5.81086">
        <ele>819</ele>
        <time>2021-10-17T07:02:48Z</time>
      </trkpt>
      <trkpt lat="46.51481" lon="5.81089">
        <ele>819</ele>
        <time>2021-10-17T07:02:49Z</time>
      </trkpt>
      <trkpt lat="46.51482" lon="5.81092">
        <ele>819.4</ele>
        <time>2021-10-17T07:02:50Z</time>
      </trkpt>
      <trkpt lat="46.51484" lon="5.81094">
        <ele>819.6</ele>
        <time>2021-10-17T07:02:51Z</time>
      </trkpt>
      <trkpt lat="46.51485" lon="5.81097">
        <ele>819.8</ele>
        <time>2021-10-17T07:02:52Z</time>
      </trkpt>
      <trkpt lat="46.51486" lon="5.81099">
        <ele>819.8</ele>
        <time>2021-10-17T07:02:53Z</time>
      </trkpt>
      <trkpt lat="46.51488" lon="5.81101">
        <ele>820.2</ele>
        <time>2021-10-17T07:02:54Z</time>
      </trkpt>
      <trkpt lat="46.51489" lon="5.81104">
        <ele>820.2</ele>
        <time>2021-10-17T07:02:55Z</time>
      </trkpt>
      <trkpt lat="46.51491" lon="5.81106">
        <ele>820.6</ele>
        <time>2021-10-17T07:02:56Z</time>
      </trkpt>
      <trkpt lat="46.51492" lon="5.8111">
        <ele>820.6</ele>
        <time>2021-10-17T07:02:57Z</time>
      </trkpt>
      <trkpt lat="46.51494" lon="5.81113">
        <ele>821</ele>
        <time>2021-10-17T07:02:58Z</time>
      </trkpt>
      <trkpt lat="46.51496" lon="5.81116">
        <ele>821.4</ele>
        <time>2021-10-17T07:02:59Z</time>
      </trkpt>
      <trkpt lat="46.51498" lon="5.8112">
        <ele>821.6</ele>
        <time>2021-10-17T07:03:00Z</time>
      </trkpt>
      <trkpt lat="46.515" lon="5.81123">
        <ele>821.8</ele>
        <time>2021-10-17T07:03:01Z</time>
      </trkpt>
      <trkpt lat="46.51502" lon="5.81127">
        <ele>821.8</ele>
        <time>2021-10-17T07:03:02Z</time>
      </trkpt>
      <trkpt lat="46.51504" lon="5.8113">
        <ele>822.2</ele>
        <time>2021-10-17T07:03:03Z</time>
      </trkpt>
      <trkpt lat="46.51506" lon="5.81134">
        <ele>822.4</ele>
        <time>2021-10-17T07:03:04Z</time>
      </trkpt>
      <trkpt lat="46.51508" lon="5.81137">
        <ele>822.4</ele>
        <time>2021-10-17T07:03:05Z</time>
      </trkpt>
      <trkpt lat="46.5151" lon="5.81141">
        <ele>822.8</ele>
        <time>2021-10-17T07:03:06Z</time>
      </trkpt>
      <trkpt lat="46.51512" lon="5.81144">
        <ele>823</ele>
        <time>2021-10-17T07:03:07Z</time>
      </trkpt>
      <trkpt lat="46.51515" lon="5.81146">
        <ele>823.2</ele>
        <time>2021-10-17T07:03:08Z</time>
      </trkpt>
      <trkpt lat="46.51517" lon="5.81149">
        <ele>823.4</ele>
        <time>2021-10-17T07:03:09Z</time>
      </trkpt>
      <trkpt lat="46.51519" lon="5.81152">
        <ele>823.6</ele>
        <time>2021-10-17T07:03:10Z</time>
      </trkpt>
      <trkpt lat="46.51522" lon="5.81154">
        <ele>823.8</ele>
        <time>2021-10-17T07:03:11Z</time>
      </trkpt>
      <trkpt lat="46.51524" lon="5.81156">
        <ele>824.2</ele>
        <time>2021-10-17T07:03:12Z</time>
      </trkpt>
      <trkpt lat="46.51527" lon="5.81158">
        <ele>824.4</ele>
        <time>2021-10-17T07:03:13Z</time>
      </trkpt>
      <trkpt lat="46.51529" lon="5.8116">
        <ele>824.4</ele>
        <time>2021-10-17T07:03:14Z</time>
      </trkpt>
      <trkpt lat="46.51531" lon="5.81162">
        <ele>824.8</ele>
        <time>2021-10-17T07:03:15Z</time>
      </trkpt>
      <trkpt lat="46.51533" lon="5.81165">
        <ele>825</ele>
        <time>2021-10-17T07:03:16Z</time>
      </trkpt>
      <trkpt lat="46.51535" lon="5.81168">
        <ele>825.2</ele>
        <time>2021-10-17T07:03:17Z</time>
      </trkpt>
      <trkpt lat="46.51537" lon="5.81169">
        <ele>825.6</ele>
        <time>2021-10-17T07:03:18Z</time>
      </trkpt>
      <trkpt lat="46.51539" lon="5.81171">
        <ele>825.8</ele>
        <time>2021-10-17T07:03:19Z</time>
      </trkpt>
      <trkpt lat="46.51541" lon="5.81174">
        <ele>826</ele>
        <time>2021-10-17T07:03:20Z</time>
      </trkpt>
      <trkpt lat="46.51544" lon="5.81176">
        <ele>826.2</ele>
        <time>2021-10-17T07:03:21Z</time>
      </trkpt>
      <trkpt lat="46.51546" lon="5.81178">
        <ele>826.6</ele>
        <time>2021-10-17T07:03:22Z</time>
      </trkpt>
      <trkpt lat="46.51548" lon="5.8118">
        <ele>826.8</ele>
        <time>2021-10-17T07:03:23Z</time>
      </trkpt>
      <trkpt lat="46.5155" lon="5.81182">
        <ele>827</ele>
        <time>2021-10-17T07:03:24Z</time>
      </trkpt>
      <trkpt lat="46.51553" lon="5.81184">
        <ele>827.4</ele>
        <time>2021-10-17T07:03:25Z</time>
      </trkpt>
      <trkpt lat="46.51555" lon="5.81187">
        <ele>827.4</ele>
        <time>2021-10-17T07:03:26Z</time>
      </trkpt>
      <trkpt lat="46.51558" lon="5.8119">
        <ele>827.6</ele>
        <time>2021-10-17T07:03:27Z</time>
      </trkpt>
      <trkpt lat="46.5156" lon="5.81193">
        <ele>827.8</ele>
        <time>2021-10-17T07:03:28Z</time>
      </trkpt>
      <trkpt lat="46.51562" lon="5.81196">
        <ele>827.8</ele>
        <time>2021-10-17T07:03:29Z</time>
      </trkpt>
      <trkpt lat="46.51564" lon="5.81199">
        <ele>828.4</ele>
        <time>2021-10-17T07:03:30Z</time>
      </trkpt>
      <trkpt lat="46.51566" lon="5.81203">
        <ele>828.6</ele>
        <time>2021-10-17T07:03:31Z</time>
      </trkpt>
      <trkpt lat="46.51568" lon="5.81206">
        <ele>828.6</ele>
        <time>2021-10-17T07:03:32Z</time>
      </trkpt>
      <trkpt lat="46.51571" lon="5.81209">
        <ele>829</ele>
        <time>2021-10-17T07:03:33Z</time>
      </trkpt>
      <trkpt lat="46.51573" lon="5.81213">
        <ele>829.2</ele>
        <time>2021-10-17T07:03:34Z</time>
      </trkpt>
      <trkpt lat="46.51575" lon="5.81216">
        <ele>829.2</ele>
        <time>2021-10-17T07:03:35Z</time>
      </trkpt>
      <trkpt lat="46.51578" lon="5.81219">
        <ele>829.6</ele>
        <time>2021-10-17T07:03:36Z</time>
      </trkpt>
      <trkpt lat="46.5158" lon="5.81222">
        <ele>829.8</ele>
        <time>2021-10-17T07:03:37Z</time>
      </trkpt>
      <trkpt lat="46.51582" lon="5.81224">
        <ele>830</ele>
        <time>2021-10-17T07:03:38Z</time>
      </trkpt>
      <trkpt lat="46.51584" lon="5.81227">
        <ele>830.2</ele>
        <time>2021-10-17T07:03:39Z</time>
      </trkpt>
      <trkpt lat="46.51586" lon="5.8123">
        <ele>830.2</ele>
        <time>2021-10-17T07:03:40Z</time>
      </trkpt>
      <trkpt lat="46.51589" lon="5.81232">
        <ele>830.6</ele>
        <time>2021-10-17T07:03:41Z</time>
      </trkpt>
      <trkpt lat="46.51591" lon="5.81235">
        <ele>830.8</ele>
        <time>2021-10-17T07:03:42Z</time>
      </trkpt>
      <trkpt lat="46.51593" lon="5.81238">
        <ele>830.8</ele>
        <time>2021-10-17T07:03:43Z</time>
      </trkpt>
      <trkpt lat="46.51595" lon="5.81241">
        <ele>831.2</ele>
        <time>2021-10-17T07:03:44Z</time>
      </trkpt>
      <trkpt lat="46.51598" lon="5.81244">
        <ele>831.2</ele>
        <time>2021-10-17T07:03:45Z</time>
      </trkpt>
      <trkpt lat="46.516" lon="5.81246">
        <ele>831.6</ele>
        <time>2021-10-17T07:03:46Z</time>
      </trkpt>
      <trkpt lat="46.51602" lon="5.81248">
        <ele>831.6</ele>
        <time>2021-10-17T07:03:47Z</time>
      </trkpt>
      <trkpt lat="46.51604" lon="5.8125">
        <ele>831.8</ele>
        <time>2021-10-17T07:03:48Z</time>
      </trkpt>
      <trkpt lat="46.51606" lon="5.81253">
        <ele>831.8</ele>
        <time>2021-10-17T07:03:49Z</time>
      </trkpt>
      <trkpt lat="46.51609" lon="5.81256">
        <ele>832.2</ele>
        <time>2021-10-17T07:03:50Z</time>
      </trkpt>
      <trkpt lat="46.51611" lon="5.81259">
        <ele>832.4</ele>
        <time>2021-10-17T07:03:51Z</time>
      </trkpt>
      <trkpt lat="46.51613" lon="5.81262">
        <ele>832.6</ele>
        <time>2021-10-17T07:03:52Z</time>
      </trkpt>
      <trkpt lat="46.51615" lon="5.81264">
        <ele>832.8</ele>
        <time>2021-10-17T07:03:53Z</time>
      </trkpt>
      <trkpt lat="46.51617" lon="5.81266">
        <ele>833</ele>
        <time>2021-10-17T07:03:54Z</time>
      </trkpt>
      <trkpt lat="46.51619" lon="5.81269">
        <ele>833</ele>
        <time>2021-10-17T07:03:55Z</time>
      </trkpt>
      <trkpt lat="46.51622" lon="5.81272">
        <ele>833.6</ele>
        <time>2021-10-17T07:03:56Z</time>
      </trkpt>
      <trkpt lat="46.51624" lon="5.81275">
        <ele>833.6</ele>
        <time>2021-10-17T07:03:57Z</time>
      </trkpt>
      <trkpt lat="46.51626" lon="5.81278">
        <ele>833.8</ele>
        <time>2021-10-17T07:03:58Z</time>
      </trkpt>
      <trkpt lat="46.51628" lon="5.81281">
        <ele>833.8</ele>
        <time>2021-10-17T07:03:59Z</time>
      </trkpt>
      <trkpt lat="46.5163" lon="5.81283">
        <ele>834</ele>
        <time>2021-10-17T07:04:00Z</time>
      </trkpt>
      <trkpt lat="46.51633" lon="5.81286">
        <ele>834</ele>
        <time>2021-10-17T07:04:01Z</time>
      </trkpt>
      <trkpt lat="46.51635" lon="5.81289">
        <ele>834.4</ele>
        <time>2021-10-17T07:04:02Z</time>
      </trkpt>
      <trkpt lat="46.51637" lon="5.81292">
        <ele>834.4</ele>
        <time>2021-10-17T07:04:03Z</time>
      </trkpt>
      <trkpt lat="46.51639" lon="5.81295">
        <ele>834.8</ele>
        <time>2021-10-17T07:04:04Z</time>
      </trkpt>
      <trkpt lat="46.51641" lon="5.81298">
        <ele>834.8</ele>
        <time>2021-10-17T07:04:05Z</time>
      </trkpt>
      <trkpt lat="46.51643" lon="5.81301">
        <ele>835</ele>
        <time>2021-10-17T07:04:06Z</time>
      </trkpt>
      <trkpt lat="46.51645" lon="5.81303">
        <ele>835</ele>
        <time>2021-10-17T07:04:07Z</time>
      </trkpt>
      <trkpt lat="46.51647" lon="5.81306">
        <ele>835.4</ele>
        <time>2021-10-17T07:04:08Z</time>
      </trkpt>
      <trkpt lat="46.51649" lon="5.8131">
        <ele>835.4</ele>
        <time>2021-10-17T07:04:09Z</time>
      </trkpt>
      <trkpt lat="46.51651" lon="5.81312">
        <ele>835.8</ele>
        <time>2021-10-17T07:04:10Z</time>
      </trkpt>
      <trkpt lat="46.51653" lon="5.81315">
        <ele>835.8</ele>
        <time>2021-10-17T07:04:11Z</time>
      </trkpt>
      <trkpt lat="46.51655" lon="5.81318">
        <ele>836.2</ele>
        <time>2021-10-17T07:04:12Z</time>
      </trkpt>
      <trkpt lat="46.51657" lon="5.81321">
        <ele>836.4</ele>
        <time>2021-10-17T07:04:13Z</time>
      </trkpt>
      <trkpt lat="46.51659" lon="5.81323">
        <ele>836.4</ele>
        <time>2021-10-17T07:04:14Z</time>
      </trkpt>
      <trkpt lat="46.51661" lon="5.81326">
        <ele>836.6</ele>
        <time>2021-10-17T07:04:15Z</time>
      </trkpt>
      <trkpt lat="46.51664" lon="5.81329">
        <ele>836.6</ele>
        <time>2021-10-17T07:04:16Z</time>
      </trkpt>
      <trkpt lat="46.51667" lon="5.81331">
        <ele>836.8</ele>
        <time>2021-10-17T07:04:17Z</time>
      </trkpt>
      <trkpt lat="46.51669" lon="5.81334">
        <ele>836.8</ele>
        <time>2021-10-17T07:04:18Z</time>
      </trkpt>
      <trkpt lat="46.51672" lon="5.81337">
        <ele>837</ele>
        <time>2021-10-17T07:04:19Z</time>
      </trkpt>
      <trkpt lat="46.51674" lon="5.81338">
        <ele>837</ele>
        <time>2021-10-17T07:04:20Z</time>
      </trkpt>
      <trkpt lat="46.51677" lon="5.8134">
        <ele>837.4</ele>
        <time>2021-10-17T07:04:21Z</time>
      </trkpt>
      <trkpt lat="46.51679" lon="5.81342">
        <ele>837.4</ele>
        <time>2021-10-17T07:04:22Z</time>
      </trkpt>
      <trkpt lat="46.51682" lon="5.81344">
        <ele>837.8</ele>
        <time>2021-10-17T07:04:23Z</time>
      </trkpt>
      <trkpt lat="46.51685" lon="5.81345">
        <ele>837.8</ele>
        <time>2021-10-17T07:04:24Z</time>
      </trkpt>
      <trkpt lat="46.51687" lon="5.81346">
        <ele>838</ele>
        <time>2021-10-17T07:04:25Z</time>
      </trkpt>
      <trkpt lat="46.5169" lon="5.81347">
        <ele>838</ele>
        <time>2021-10-17T07:04:26Z</time>
      </trkpt>
      <trkpt lat="46.51693" lon="5.81349">
        <ele>838.4</ele>
        <time>2021-10-17T07:04:27Z</time>
      </trkpt>
      <trkpt lat="46.51695" lon="5.81351">
        <ele>838.4</ele>
        <time>2021-10-17T07:04:28Z</time>
      </trkpt>
      <trkpt lat="46.51698" lon="5.81353">
        <ele>838.6</ele>
        <time>2021-10-17T07:04:29Z</time>
      </trkpt>
      <trkpt lat="46.51701" lon="5.81355">
        <ele>838.6</ele>
        <time>2021-10-17T07:04:30Z</time>
      </trkpt>
      <trkpt lat="46.51704" lon="5.81358">
        <ele>838.8</ele>
        <time>2021-10-17T07:04:31Z</time>
      </trkpt>
      <trkpt lat="46.51706" lon="5.8136">
        <ele>838.8</ele>
        <time>2021-10-17T07:04:32Z</time>
      </trkpt>
      <trkpt lat="46.51709" lon="5.81362">
        <ele>838.8</ele>
        <time>2021-10-17T07:04:33Z</time>
      </trkpt>
      <trkpt lat="46.51712" lon="5.81364">
        <ele>839.2</ele>
        <time>2021-10-17T07:04:34Z</time>
      </trkpt>
      <trkpt lat="46.51715" lon="5.81367">
        <ele>839.2</ele>
        <time>2021-10-17T07:04:35Z</time>
      </trkpt>
      <trkpt lat="46.51717" lon="5.81369">
        <ele>839.4</ele>
        <time>2021-10-17T07:04:36Z</time>
      </trkpt>
      <trkpt lat="46.5172" lon="5.81372">
        <ele>839.4</ele>
        <time>2021-10-17T07:04:37Z</time>
      </trkpt>
      <trkpt lat="46.51723" lon="5.81374">
        <ele>839.6</ele>
        <time>2021-10-17T07:04:38Z</time>
      </trkpt>
      <trkpt lat="46.51725" lon="5.81376">
        <ele>839.6</ele>
        <time>2021-10-17T07:04:39Z</time>
      </trkpt>
      <trkpt lat="46.51728" lon="5.81379">
        <ele>839.6</ele>
        <time>2021-10-17T07:04:40Z</time>
      </trkpt>
      <trkpt lat="46.5173" lon="5.81381">
        <ele>840</ele>
        <time>2021-10-17T07:04:41Z</time>
      </trkpt>
      <trkpt lat="46.51732" lon="5.81383">
        <ele>840</ele>
        <time>2021-10-17T07:04:42Z</time>
      </trkpt>
      <trkpt lat="46.51735" lon="5.81385">
        <ele>840.2</ele>
        <time>2021-10-17T07:04:43Z</time>
      </trkpt>
      <trkpt lat="46.51738" lon="5.81387">
        <ele>840.2</ele>
        <time>2021-10-17T07:04:44Z</time>
      </trkpt>
      <trkpt lat="46.51741" lon="5.81389">
        <ele>840.4</ele>
        <time>2021-10-17T07:04:45Z</time>
      </trkpt>
      <trkpt lat="46.51743" lon="5.81392">
        <ele>840.6</ele>
        <time>2021-10-17T07:04:46Z</time>
      </trkpt>
      <trkpt lat="46.51745" lon="5.81394">
        <ele>840.6</ele>
        <time>2021-10-17T07:04:47Z</time>
      </trkpt>
      <trkpt lat="46.51748" lon="5.81396">
        <ele>840.8</ele>
        <time>2021-10-17T07:04:48Z</time>
      </trkpt>
      <trkpt lat="46.5175" lon="5.81398">
        <ele>840.8</ele>
        <time>2021-10-17T07:04:49Z</time>
      </trkpt>
      <trkpt lat="46.51752" lon="5.814">
        <ele>841</ele>
        <time>2021-10-17T07:04:50Z</time>
      </trkpt>
      <trkpt lat="46.51755" lon="5.81402">
        <ele>841</ele>
        <time>2021-10-17T07:04:51Z</time>
      </trkpt>
      <trkpt lat="46.51758" lon="5.81405">
        <ele>841.4</ele>
        <time>2021-10-17T07:04:52Z</time>
      </trkpt>
      <trkpt lat="46.5176" lon="5.81407">
        <ele>841.6</ele>
        <time>2021-10-17T07:04:53Z</time>
      </trkpt>
      <trkpt lat="46.51763" lon="5.8141">
        <ele>841.6</ele>
        <time>2021-10-17T07:04:54Z</time>
      </trkpt>
      <trkpt lat="46.51765" lon="5.81412">
        <ele>842</ele>
        <time>2021-10-17T07:04:55Z</time>
      </trkpt>
      <trkpt lat="46.51768" lon="5.81415">
        <ele>842</ele>
        <time>2021-10-17T07:04:56Z</time>
      </trkpt>
      <trkpt lat="46.51771" lon="5.81416">
        <ele>842.4</ele>
        <time>2021-10-17T07:04:57Z</time>
      </trkpt>
      <trkpt lat="46.51774" lon="5.81419">
        <ele>842.4</ele>
        <time>2021-10-17T07:04:58Z</time>
      </trkpt>
      <trkpt lat="46.51777" lon="5.81421">
        <ele>842.4</ele>
        <time>2021-10-17T07:04:59Z</time>
      </trkpt>
      <trkpt lat="46.5178" lon="5.81424">
        <ele>842.6</ele>
        <time>2021-10-17T07:05:00Z</time>
      </trkpt>
      <trkpt lat="46.51783" lon="5.81426">
        <ele>842.6</ele>
        <time>2021-10-17T07:05:01Z</time>
      </trkpt>
      <trkpt lat="46.51785" lon="5.81428">
        <ele>842.8</ele>
        <time>2021-10-17T07:05:02Z</time>
      </trkpt>
      <trkpt lat="46.51788" lon="5.8143">
        <ele>842.8</ele>
        <time>2021-10-17T07:05:03Z</time>
      </trkpt>
      <trkpt lat="46.5179" lon="5.81433">
        <ele>843.2</ele>
        <time>2021-10-17T07:05:04Z</time>
      </trkpt>
      <trkpt lat="46.51793" lon="5.81436">
        <ele>843.4</ele>
        <time>2021-10-17T07:05:05Z</time>
      </trkpt>
      <trkpt lat="46.51796" lon="5.81438">
        <ele>843.4</ele>
        <time>2021-10-17T07:05:06Z</time>
      </trkpt>
      <trkpt lat="46.51798" lon="5.81441">
        <ele>843.8</ele>
        <time>2021-10-17T07:05:07Z</time>
      </trkpt>
      <trkpt lat="46.51801" lon="5.81443">
        <ele>843.8</ele>
        <time>2021-10-17T07:05:08Z</time>
      </trkpt>
      <trkpt lat="46.51804" lon="5.81444">
        <ele>844.2</ele>
        <time>2021-10-17T07:05:09Z</time>
      </trkpt>
      <trkpt lat="46.51807" lon="5.81446">
        <ele>844.2</ele>
        <time>2021-10-17T07:05:10Z</time>
      </trkpt>
      <trkpt lat="46.5181" lon="5.81448">
        <ele>844.6</ele>
        <time>2021-10-17T07:05:11Z</time>
      </trkpt>
      <trkpt lat="46.51812" lon="5.8145">
        <ele>844.6</ele>
        <time>2021-10-17T07:05:12Z</time>
      </trkpt>
      <trkpt lat="46.51815" lon="5.81452">
        <ele>844.8</ele>
        <time>2021-10-17T07:05:13Z</time>
      </trkpt>
      <trkpt lat="46.51818" lon="5.81454">
        <ele>844.8</ele>
        <time>2021-10-17T07:05:14Z</time>
      </trkpt>
      <trkpt lat="46.5182" lon="5.81456">
        <ele>845.4</ele>
        <time>2021-10-17T07:05:15Z</time>
      </trkpt>
      <trkpt lat="46.51823" lon="5.81458">
        <ele>845.6</ele>
        <time>2021-10-17T07:05:16Z</time>
      </trkpt>
      <trkpt lat="46.51826" lon="5.8146">
        <ele>845.8</ele>
        <time>2021-10-17T07:05:17Z</time>
      </trkpt>
      <trkpt lat="46.51828" lon="5.81462">
        <ele>845.8</ele>
        <time>2021-10-17T07:05:18Z</time>
      </trkpt>
      <trkpt lat="46.51831" lon="5.81465">
        <ele>846.2</ele>
        <time>2021-10-17T07:05:19Z</time>
      </trkpt>
      <trkpt lat="46.51834" lon="5.81467">
        <ele>846.6</ele>
        <time>2021-10-17T07:05:20Z</time>
      </trkpt>
      <trkpt lat="46.51837" lon="5.81469">
        <ele>846.8</ele>
        <time>2021-10-17T07:05:21Z</time>
      </trkpt>
      <trkpt lat="46.5184" lon="5.8147">
        <ele>847</ele>
        <time>2021-10-17T07:05:22Z</time>
      </trkpt>
      <trkpt lat="46.51843" lon="5.81472">
        <ele>847.2</ele>
        <time>2021-10-17T07:05:23Z</time>
      </trkpt>
      <trkpt lat="46.51846" lon="5.81474">
        <ele>847.2</ele>
        <time>2021-10-17T07:05:24Z</time>
      </trkpt>
      <trkpt lat="46.51848" lon="5.81476">
        <ele>847.6</ele>
        <time>2021-10-17T07:05:25Z</time>
      </trkpt>
      <trkpt lat="46.51851" lon="5.81479">
        <ele>847.8</ele>
        <time>2021-10-17T07:05:26Z</time>
      </trkpt>
      <trkpt lat="46.51853" lon="5.81482">
        <ele>848</ele>
        <time>2021-10-17T07:05:27Z</time>
      </trkpt>
      <trkpt lat="46.51856" lon="5.81485">
        <ele>848</ele>
        <time>2021-10-17T07:05:28Z</time>
      </trkpt>
      <trkpt lat="46.51858" lon="5.81489">
        <ele>848.4</ele>
        <time>2021-10-17T07:05:29Z</time>
      </trkpt>
      <trkpt lat="46.5186" lon="5.81492">
        <ele>848.6</ele>
        <time>2021-10-17T07:05:30Z</time>
      </trkpt>
      <trkpt lat="46.51862" lon="5.81495">
        <ele>848.6</ele>
        <time>2021-10-17T07:05:31Z</time>
      </trkpt>
      <trkpt lat="46.51863" lon="5.81499">
        <ele>849</ele>
        <time>2021-10-17T07:05:32Z</time>
      </trkpt>
      <trkpt lat="46.51865" lon="5.81502">
        <ele>849</ele>
        <time>2021-10-17T07:05:33Z</time>
      </trkpt>
      <trkpt lat="46.51866" lon="5.81505">
        <ele>849.4</ele>
        <time>2021-10-17T07:05:34Z</time>
      </trkpt>
      <trkpt lat="46.51867" lon="5.81508">
        <ele>849.6</ele>
        <time>2021-10-17T07:05:35Z</time>
      </trkpt>
      <trkpt lat="46.51868" lon="5.81511">
        <ele>850</ele>
        <time>2021-10-17T07:05:36Z</time>
      </trkpt>
      <trkpt lat="46.51869" lon="5.81515">
        <ele>850.2</ele>
        <time>2021-10-17T07:05:37Z</time>
      </trkpt>
      <trkpt lat="46.5187" lon="5.81519">
        <ele>850.4</ele>
        <time>2021-10-17T07:05:38Z</time>
      </trkpt>
      <trkpt lat="46.51871" lon="5.81522">
        <ele>850.6</ele>
        <time>2021-10-17T07:05:39Z</time>
      </trkpt>
      <trkpt lat="46.51872" lon="5.81526">
        <ele>850.8</ele>
        <time>2021-10-17T07:05:40Z</time>
      </trkpt>
      <trkpt lat="46.51874" lon="5.81529">
        <ele>851.2</ele>
        <time>2021-10-17T07:05:41Z</time>
      </trkpt>
      <trkpt lat="46.51875" lon="5.81533">
        <ele>851.4</ele>
        <time>2021-10-17T07:05:42Z</time>
      </trkpt>
      <trkpt lat="46.51876" lon="5.81536">
        <ele>851.6</ele>
        <time>2021-10-17T07:05:43Z</time>
      </trkpt>
      <trkpt lat="46.51877" lon="5.81539">
        <ele>851.6</ele>
        <time>2021-10-17T07:05:44Z</time>
      </trkpt>
      <trkpt lat="46.51878" lon="5.81542">
        <ele>852</ele>
        <time>2021-10-17T07:05:45Z</time>
      </trkpt>
      <trkpt lat="46.51879" lon="5.81545">
        <ele>852</ele>
        <time>2021-10-17T07:05:46Z</time>
      </trkpt>
      <trkpt lat="46.5188" lon="5.81547">
        <ele>852.4</ele>
        <time>2021-10-17T07:05:47Z</time>
      </trkpt>
      <trkpt lat="46.51881" lon="5.8155">
        <ele>852.6</ele>
        <time>2021-10-17T07:05:48Z</time>
      </trkpt>
      <trkpt lat="46.51883" lon="5.81552">
        <ele>852.6</ele>
        <time>2021-10-17T07:05:49Z</time>
      </trkpt>
      <trkpt lat="46.51885" lon="5.81555">
        <ele>853</ele>
        <time>2021-10-17T07:05:50Z</time>
      </trkpt>
      <trkpt lat="46.51887" lon="5.81557">
        <ele>853.2</ele>
        <time>2021-10-17T07:05:51Z</time>
      </trkpt>
      <trkpt lat="46.51889" lon="5.8156">
        <ele>853.2</ele>
        <time>2021-10-17T07:05:52Z</time>
      </trkpt>
      <trkpt lat="46.51892" lon="5.81563">
        <ele>853.6</ele>
        <time>2021-10-17T07:05:53Z</time>
      </trkpt>
      <trkpt lat="46.51893" lon="5.81565">
        <ele>853.6</ele>
        <time>2021-10-17T07:05:54Z</time>
      </trkpt>
      <trkpt lat="46.51896" lon="5.81568">
        <ele>854</ele>
        <time>2021-10-17T07:05:55Z</time>
      </trkpt>
      <trkpt lat="46.51898" lon="5.8157">
        <ele>854</ele>
        <time>2021-10-17T07:05:56Z</time>
      </trkpt>
      <trkpt lat="46.519" lon="5.81573">
        <ele>854.4</ele>
        <time>2021-10-17T07:05:57Z</time>
      </trkpt>
      <trkpt lat="46.51902" lon="5.81575">
        <ele>854.6</ele>
        <time>2021-10-17T07:05:58Z</time>
      </trkpt>
      <trkpt lat="46.51904" lon="5.81577">
        <ele>854.6</ele>
        <time>2021-10-17T07:05:59Z</time>
      </trkpt>
      <trkpt lat="46.51906" lon="5.81578">
        <ele>854.8</ele>
        <time>2021-10-17T07:06:00Z</time>
      </trkpt>
      <trkpt lat="46.51908" lon="5.8158">
        <ele>855</ele>
        <time>2021-10-17T07:06:01Z</time>
      </trkpt>
      <trkpt lat="46.51911" lon="5.81581">
        <ele>855.2</ele>
        <time>2021-10-17T07:06:02Z</time>
      </trkpt>
      <trkpt lat="46.51913" lon="5.81583">
        <ele>855.2</ele>
        <time>2021-10-17T07:06:03Z</time>
      </trkpt>
      <trkpt lat="46.51915" lon="5.81585">
        <ele>855.8</ele>
        <time>2021-10-17T07:06:04Z</time>
      </trkpt>
      <trkpt lat="46.51918" lon="5.81587">
        <ele>855.8</ele>
        <time>2021-10-17T07:06:05Z</time>
      </trkpt>
      <trkpt lat="46.51922" lon="5.81589">
        <ele>856</ele>
        <time>2021-10-17T07:06:06Z</time>
      </trkpt>
      <trkpt lat="46.51924" lon="5.81591">
        <ele>856</ele>
        <time>2021-10-17T07:06:07Z</time>
      </trkpt>
      <trkpt lat="46.51927" lon="5.81592">
        <ele>856.4</ele>
        <time>2021-10-17T07:06:08Z</time>
      </trkpt>
      <trkpt lat="46.5193" lon="5.81595">
        <ele>856.6</ele>
        <time>2021-10-17T07:06:09Z</time>
      </trkpt>
      <trkpt lat="46.51932" lon="5.81597">
        <ele>856.8</ele>
        <time>2021-10-17T07:06:10Z</time>
      </trkpt>
      <trkpt lat="46.51934" lon="5.816">
        <ele>856.8</ele>
        <time>2021-10-17T07:06:11Z</time>
      </trkpt>
      <trkpt lat="46.51937" lon="5.81603">
        <ele>857</ele>
        <time>2021-10-17T07:06:12Z</time>
      </trkpt>
      <trkpt lat="46.51939" lon="5.81606">
        <ele>857.2</ele>
        <time>2021-10-17T07:06:13Z</time>
      </trkpt>
      <trkpt lat="46.51941" lon="5.81609">
        <ele>857.4</ele>
        <time>2021-10-17T07:06:14Z</time>
      </trkpt>
      <trkpt lat="46.51943" lon="5.81611">
        <ele>857.8</ele>
        <time>2021-10-17T07:06:15Z</time>
      </trkpt>
      <trkpt lat="46.51945" lon="5.81614">
        <ele>858</ele>
        <time>2021-10-17T07:06:16Z</time>
      </trkpt>
      <trkpt lat="46.51947" lon="5.81617">
        <ele>858.2</ele>
        <time>2021-10-17T07:06:17Z</time>
      </trkpt>
      <trkpt lat="46.51949" lon="5.81619">
        <ele>858.2</ele>
        <time>2021-10-17T07:06:18Z</time>
      </trkpt>
      <trkpt lat="46.51951" lon="5.81622">
        <ele>858.6</ele>
        <time>2021-10-17T07:06:19Z</time>
      </trkpt>
      <trkpt lat="46.51953" lon="5.81624">
        <ele>858.8</ele>
        <time>2021-10-17T07:06:20Z</time>
      </trkpt>
      <trkpt lat="46.51955" lon="5.81628">
        <ele>859</ele>
        <time>2021-10-17T07:06:21Z</time>
      </trkpt>
      <trkpt lat="46.51957" lon="5.8163">
        <ele>859.2</ele>
        <time>2021-10-17T07:06:22Z</time>
      </trkpt>
      <trkpt lat="46.51958" lon="5.81633">
        <ele>859.6</ele>
        <time>2021-10-17T07:06:23Z</time>
      </trkpt>
      <trkpt lat="46.5196" lon="5.81636">
        <ele>859.8</ele>
        <time>2021-10-17T07:06:24Z</time>
      </trkpt>
      <trkpt lat="46.51962" lon="5.81639">
        <ele>860</ele>
        <time>2021-10-17T07:06:25Z</time>
      </trkpt>
      <trkpt lat="46.51964" lon="5.81642">
        <ele>860</ele>
        <time>2021-10-17T07:06:26Z</time>
      </trkpt>
      <trkpt lat="46.51965" lon="5.81645">
        <ele>860.4</ele>
        <time>2021-10-17T07:06:27Z</time>
      </trkpt>
      <trkpt lat="46.51967" lon="5.81648">
        <ele>860.4</ele>
        <time>2021-10-17T07:06:28Z</time>
      </trkpt>
      <trkpt lat="46.51969" lon="5.81652">
        <ele>860.8</ele>
        <time>2021-10-17T07:06:29Z</time>
      </trkpt>
      <trkpt lat="46.51971" lon="5.81655">
        <ele>861</ele>
        <time>2021-10-17T07:06:30Z</time>
      </trkpt>
      <trkpt lat="46.51972" lon="5.81658">
        <ele>861</ele>
        <time>2021-10-17T07:06:31Z</time>
      </trkpt>
      <trkpt lat="46.51974" lon="5.81661">
        <ele>861.2</ele>
        <time>2021-10-17T07:06:32Z</time>
      </trkpt>
      <trkpt lat="46.51976" lon="5.81664">
        <ele>861.2</ele>
        <time>2021-10-17T07:06:33Z</time>
      </trkpt>
      <trkpt lat="46.51978" lon="5.81666">
        <ele>861.4</ele>
        <time>2021-10-17T07:06:34Z</time>
      </trkpt>
      <trkpt lat="46.5198" lon="5.81669">
        <ele>861.8</ele>
        <time>2021-10-17T07:06:35Z</time>
      </trkpt>
      <trkpt lat="46.51982" lon="5.81672">
        <ele>862</ele>
        <time>2021-10-17T07:06:36Z</time>
      </trkpt>
      <trkpt lat="46.51984" lon="5.81675">
        <ele>862</ele>
        <time>2021-10-17T07:06:37Z</time>
      </trkpt>
      <trkpt lat="46.51986" lon="5.81678">
        <ele>862.4</ele>
        <time>2021-10-17T07:06:38Z</time>
      </trkpt>
      <trkpt lat="46.51988" lon="5.81681">
        <ele>862.4</ele>
        <time>2021-10-17T07:06:39Z</time>
      </trkpt>
      <trkpt lat="46.5199" lon="5.81685">
        <ele>862.6</ele>
        <time>2021-10-17T07:06:40Z</time>
      </trkpt>
      <trkpt lat="46.51992" lon="5.81688">
        <ele>862.6</ele>
        <time>2021-10-17T07:06:41Z</time>
      </trkpt>
      <trkpt lat="46.51994" lon="5.81692">
        <ele>862.8</ele>
        <time>2021-10-17T07:06:42Z</time>
      </trkpt>
      <trkpt lat="46.51996" lon="5.81695">
        <ele>863</ele>
        <time>2021-10-17T07:06:43Z</time>
      </trkpt>
      <trkpt lat="46.51998" lon="5.81699">
        <ele>863.4</ele>
        <time>2021-10-17T07:06:44Z</time>
      </trkpt>
      <trkpt lat="46.51999" lon="5.81702">
        <ele>863.6</ele>
        <time>2021-10-17T07:06:45Z</time>
      </trkpt>
      <trkpt lat="46.52001" lon="5.81706">
        <ele>863.8</ele>
        <time>2021-10-17T07:06:46Z</time>
      </trkpt>
      <trkpt lat="46.52003" lon="5.81709">
        <ele>864</ele>
        <time>2021-10-17T07:06:47Z</time>
      </trkpt>
      <trkpt lat="46.52004" lon="5.81713">
        <ele>864.4</ele>
        <time>2021-10-17T07:06:48Z</time>
      </trkpt>
      <trkpt lat="46.52005" lon="5.81716">
        <ele>864.6</ele>
        <time>2021-10-17T07:06:49Z</time>
      </trkpt>
      <trkpt lat="46.52007" lon="5.8172">
        <ele>864.8</ele>
        <time>2021-10-17T07:06:50Z</time>
      </trkpt>
      <trkpt lat="46.52008" lon="5.81723">
        <ele>864.8</ele>
        <time>2021-10-17T07:06:51Z</time>
      </trkpt>
      <trkpt lat="46.5201" lon="5.81726">
        <ele>865.2</ele>
        <time>2021-10-17T07:06:52Z</time>
      </trkpt>
      <trkpt lat="46.52011" lon="5.81729">
        <ele>865.2</ele>
        <time>2021-10-17T07:06:53Z</time>
      </trkpt>
      <trkpt lat="46.52013" lon="5.81732">
        <ele>865.4</ele>
        <time>2021-10-17T07:06:54Z</time>
      </trkpt>
      <trkpt lat="46.52015" lon="5.81735">
        <ele>865.8</ele>
        <time>2021-10-17T07:06:55Z</time>
      </trkpt>
      <trkpt lat="46.52017" lon="5.81738">
        <ele>866</ele>
        <time>2021-10-17T07:06:56Z</time>
      </trkpt>
      <trkpt lat="46.52018" lon="5.81741">
        <ele>866.2</ele>
        <time>2021-10-17T07:06:57Z</time>
      </trkpt>
      <trkpt lat="46.52019" lon="5.81745">
        <ele>866.4</ele>
        <time>2021-10-17T07:06:58Z</time>
      </trkpt>
      <trkpt lat="46.52021" lon="5.81748">
        <ele>866.6</ele>
        <time>2021-10-17T07:06:59Z</time>
      </trkpt>
      <trkpt lat="46.52022" lon="5.81751">
        <ele>866.6</ele>
        <time>2021-10-17T07:07:00Z</time>
      </trkpt>
      <trkpt lat="46.52024" lon="5.81754">
        <ele>867</ele>
        <time>2021-10-17T07:07:01Z</time>
      </trkpt>
      <trkpt lat="46.52026" lon="5.81757">
        <ele>867</ele>
        <time>2021-10-17T07:07:02Z</time>
      </trkpt>
      <trkpt lat="46.52027" lon="5.81759">
        <ele>867.4</ele>
        <time>2021-10-17T07:07:03Z</time>
      </trkpt>
      <trkpt lat="46.52029" lon="5.81762">
        <ele>867.6</ele>
        <time>2021-10-17T07:07:04Z</time>
      </trkpt>
      <trkpt lat="46.52031" lon="5.81765">
        <ele>867.8</ele>
        <time>2021-10-17T07:07:05Z</time>
      </trkpt>
      <trkpt lat="46.52032" lon="5.81768">
        <ele>867.8</ele>
        <time>2021-10-17T07:07:06Z</time>
      </trkpt>
      <trkpt lat="46.52034" lon="5.81771">
        <ele>868.2</ele>
        <time>2021-10-17T07:07:07Z</time>
      </trkpt>
      <trkpt lat="46.52035" lon="5.81774">
        <ele>868.4</ele>
        <time>2021-10-17T07:07:08Z</time>
      </trkpt>
      <trkpt lat="46.52037" lon="5.81777">
        <ele>868.8</ele>
        <time>2021-10-17T07:07:09Z</time>
      </trkpt>
      <trkpt lat="46.52038" lon="5.8178">
        <ele>869</ele>
        <time>2021-10-17T07:07:10Z</time>
      </trkpt>
      <trkpt lat="46.52039" lon="5.81783">
        <ele>869</ele>
        <time>2021-10-17T07:07:11Z</time>
      </trkpt>
      <trkpt lat="46.5204" lon="5.81787">
        <ele>869.4</ele>
        <time>2021-10-17T07:07:12Z</time>
      </trkpt>
      <trkpt lat="46.52042" lon="5.8179">
        <ele>869.6</ele>
        <time>2021-10-17T07:07:13Z</time>
      </trkpt>
      <trkpt lat="46.52043" lon="5.81793">
        <ele>869.8</ele>
        <time>2021-10-17T07:07:14Z</time>
      </trkpt>
      <trkpt lat="46.52044" lon="5.81796">
        <ele>869.8</ele>
        <time>2021-10-17T07:07:15Z</time>
      </trkpt>
      <trkpt lat="46.52046" lon="5.81799">
        <ele>870</ele>
        <time>2021-10-17T07:07:16Z</time>
      </trkpt>
      <trkpt lat="46.52048" lon="5.81802">
        <ele>870.4</ele>
        <time>2021-10-17T07:07:17Z</time>
      </trkpt>
      <trkpt lat="46.52049" lon="5.81805">
        <ele>870.6</ele>
        <time>2021-10-17T07:07:18Z</time>
      </trkpt>
      <trkpt lat="46.52051" lon="5.81808">
        <ele>870.8</ele>
        <time>2021-10-17T07:07:19Z</time>
      </trkpt>
      <trkpt lat="46.52052" lon="5.81811">
        <ele>870.8</ele>
        <time>2021-10-17T07:07:20Z</time>
      </trkpt>
      <trkpt lat="46.52053" lon="5.81815">
        <ele>871.2</ele>
        <time>2021-10-17T07:07:21Z</time>
      </trkpt>
      <trkpt lat="46.52054" lon="5.81818">
        <ele>871.2</ele>
        <time>2021-10-17T07:07:22Z</time>
      </trkpt>
      <trkpt lat="46.52056" lon="5.81821">
        <ele>871.4</ele>
        <time>2021-10-17T07:07:23Z</time>
      </trkpt>
      <trkpt lat="46.52057" lon="5.81825">
        <ele>871.8</ele>
        <time>2021-10-17T07:07:24Z</time>
      </trkpt>
      <trkpt lat="46.52058" lon="5.81829">
        <ele>871.8</ele>
        <time>2021-10-17T07:07:25Z</time>
      </trkpt>
      <trkpt lat="46.52059" lon="5.81832">
        <ele>872.2</ele>
        <time>2021-10-17T07:07:26Z</time>
      </trkpt>
      <trkpt lat="46.52061" lon="5.81836">
        <ele>872.4</ele>
        <time>2021-10-17T07:07:27Z</time>
      </trkpt>
      <trkpt lat="46.52062" lon="5.81839">
        <ele>872.4</ele>
        <time>2021-10-17T07:07:28Z</time>
      </trkpt>
      <trkpt lat="46.52064" lon="5.81842">
        <ele>872.8</ele>
        <time>2021-10-17T07:07:29Z</time>
      </trkpt>
      <trkpt lat="46.52065" lon="5.81846">
        <ele>872.8</ele>
        <time>2021-10-17T07:07:30Z</time>
      </trkpt>
      <trkpt lat="46.52066" lon="5.81849">
        <ele>873.2</ele>
        <time>2021-10-17T07:07:31Z</time>
      </trkpt>
      <trkpt lat="46.52068" lon="5.81853">
        <ele>873.4</ele>
        <time>2021-10-17T07:07:32Z</time>
      </trkpt>
      <trkpt lat="46.52069" lon="5.81856">
        <ele>873.4</ele>
        <time>2021-10-17T07:07:33Z</time>
      </trkpt>
      <trkpt lat="46.52071" lon="5.81859">
        <ele>873.6</ele>
        <time>2021-10-17T07:07:34Z</time>
      </trkpt>
      <trkpt lat="46.52073" lon="5.81861">
        <ele>873.6</ele>
        <time>2021-10-17T07:07:35Z</time>
      </trkpt>
      <trkpt lat="46.52074" lon="5.81864">
        <ele>874</ele>
        <time>2021-10-17T07:07:36Z</time>
      </trkpt>
      <trkpt lat="46.52076" lon="5.81867">
        <ele>874</ele>
        <time>2021-10-17T07:07:37Z</time>
      </trkpt>
      <trkpt lat="46.52078" lon="5.8187">
        <ele>874.2</ele>
        <time>2021-10-17T07:07:38Z</time>
      </trkpt>
      <trkpt lat="46.5208" lon="5.81873">
        <ele>874.2</ele>
        <time>2021-10-17T07:07:39Z</time>
      </trkpt>
      <trkpt lat="46.52082" lon="5.81875">
        <ele>874.6</ele>
        <time>2021-10-17T07:07:40Z</time>
      </trkpt>
      <trkpt lat="46.52085" lon="5.81877">
        <ele>874.6</ele>
        <time>2021-10-17T07:07:41Z</time>
      </trkpt>
      <trkpt lat="46.52088" lon="5.81879">
        <ele>874.8</ele>
        <time>2021-10-17T07:07:42Z</time>
      </trkpt>
      <trkpt lat="46.5209" lon="5.8188">
        <ele>874.8</ele>
        <time>2021-10-17T07:07:43Z</time>
      </trkpt>
      <trkpt lat="46.52093" lon="5.81881">
        <ele>875.2</ele>
        <time>2021-10-17T07:07:44Z</time>
      </trkpt>
      <trkpt lat="46.52096" lon="5.81882">
        <ele>875.2</ele>
        <time>2021-10-17T07:07:45Z</time>
      </trkpt>
      <trkpt lat="46.52098" lon="5.81883">
        <ele>875.2</ele>
        <time>2021-10-17T07:07:46Z</time>
      </trkpt>
      <trkpt lat="46.52101" lon="5.81883">
        <ele>875.6</ele>
        <time>2021-10-17T07:07:47Z</time>
      </trkpt>
      <trkpt lat="46.52104" lon="5.81882">
        <ele>875.6</ele>
        <time>2021-10-17T07:07:48Z</time>
      </trkpt>
      <trkpt lat="46.52107" lon="5.81882">
        <ele>875.8</ele>
        <time>2021-10-17T07:07:49Z</time>
      </trkpt>
      <trkpt lat="46.5211" lon="5.81881">
        <ele>875.8</ele>
        <time>2021-10-17T07:07:50Z</time>
      </trkpt>
      <trkpt lat="46.52113" lon="5.81881">
        <ele>876.2</ele>
        <time>2021-10-17T07:07:51Z</time>
      </trkpt>
      <trkpt lat="46.52116" lon="5.81881">
        <ele>876.2</ele>
        <time>2021-10-17T07:07:52Z</time>
      </trkpt>
      <trkpt lat="46.52118" lon="5.81882">
        <ele>876.4</ele>
        <time>2021-10-17T07:07:53Z</time>
      </trkpt>
      <trkpt lat="46.52121" lon="5.81882">
        <ele>876.4</ele>
        <time>2021-10-17T07:07:54Z</time>
      </trkpt>
      <trkpt lat="46.52124" lon="5.81883">
        <ele>876.8</ele>
        <time>2021-10-17T07:07:55Z</time>
      </trkpt>
      <trkpt lat="46.52127" lon="5.81884">
        <ele>876.8</ele>
        <time>2021-10-17T07:07:56Z</time>
      </trkpt>
      <trkpt lat="46.5213" lon="5.81885">
        <ele>877</ele>
        <time>2021-10-17T07:07:57Z</time>
      </trkpt>
      <trkpt lat="46.52132" lon="5.81886">
        <ele>877</ele>
        <time>2021-10-17T07:07:58Z</time>
      </trkpt>
      <trkpt lat="46.52135" lon="5.81888">
        <ele>877.2</ele>
        <time>2021-10-17T07:07:59Z</time>
      </trkpt>
      <trkpt lat="46.52138" lon="5.81889">
        <ele>877.2</ele>
        <time>2021-10-17T07:08:00Z</time>
      </trkpt>
      <trkpt lat="46.5214" lon="5.8189">
        <ele>877.6</ele>
        <time>2021-10-17T07:08:01Z</time>
      </trkpt>
      <trkpt lat="46.52143" lon="5.81891">
        <ele>877.6</ele>
        <time>2021-10-17T07:08:02Z</time>
      </trkpt>
      <trkpt lat="46.52146" lon="5.81892">
        <ele>877.8</ele>
        <time>2021-10-17T07:08:03Z</time>
      </trkpt>
      <trkpt lat="46.52149" lon="5.81892">
        <ele>877.8</ele>
        <time>2021-10-17T07:08:04Z</time>
      </trkpt>
      <trkpt lat="46.52152" lon="5.81892">
        <ele>878.2</ele>
        <time>2021-10-17T07:08:05Z</time>
      </trkpt>
      <trkpt lat="46.52155" lon="5.81892">
        <ele>878.2</ele>
        <time>2021-10-17T07:08:06Z</time>
      </trkpt>
      <trkpt lat="46.52158" lon="5.81892">
        <ele>878.6</ele>
        <time>2021-10-17T07:08:07Z</time>
      </trkpt>
      <trkpt lat="46.52161" lon="5.81892">
        <ele>878.6</ele>
        <time>2021-10-17T07:08:08Z</time>
      </trkpt>
      <trkpt lat="46.52164" lon="5.81892">
        <ele>878.8</ele>
        <time>2021-10-17T07:08:09Z</time>
      </trkpt>
      <trkpt lat="46.52167" lon="5.81892">
        <ele>878.8</ele>
        <time>2021-10-17T07:08:10Z</time>
      </trkpt>
      <trkpt lat="46.5217" lon="5.81891">
        <ele>879</ele>
        <time>2021-10-17T07:08:11Z</time>
      </trkpt>
      <trkpt lat="46.52173" lon="5.81891">
        <ele>879</ele>
        <time>2021-10-17T07:08:12Z</time>
      </trkpt>
      <trkpt lat="46.52176" lon="5.81891">
        <ele>879.2</ele>
        <time>2021-10-17T07:08:13Z</time>
      </trkpt>
      <trkpt lat="46.52179" lon="5.81891">
        <ele>879.2</ele>
        <time>2021-10-17T07:08:14Z</time>
      </trkpt>
      <trkpt lat="46.52182" lon="5.81891">
        <ele>879.6</ele>
        <time>2021-10-17T07:08:15Z</time>
      </trkpt>
      <trkpt lat="46.52185" lon="5.81891">
        <ele>879.6</ele>
        <time>2021-10-17T07:08:16Z</time>
      </trkpt>
      <trkpt lat="46.52188" lon="5.81891">
        <ele>879.8</ele>
        <time>2021-10-17T07:08:17Z</time>
      </trkpt>
      <trkpt lat="46.52191" lon="5.81892">
        <ele>879.8</ele>
        <time>2021-10-17T07:08:18Z</time>
      </trkpt>
      <trkpt lat="46.52194" lon="5.81893">
        <ele>880</ele>
        <time>2021-10-17T07:08:19Z</time>
      </trkpt>
      <trkpt lat="46.52197" lon="5.81894">
        <ele>880</ele>
        <time>2021-10-17T07:08:20Z</time>
      </trkpt>
      <trkpt lat="46.522" lon="5.81895">
        <ele>880</ele>
        <time>2021-10-17T07:08:21Z</time>
      </trkpt>
      <trkpt lat="46.52203" lon="5.81897">
        <ele>880.4</ele>
        <time>2021-10-17T07:08:22Z</time>
      </trkpt>
      <trkpt lat="46.52205" lon="5.81899">
        <ele>880.4</ele>
        <time>2021-10-17T07:08:23Z</time>
      </trkpt>
      <trkpt lat="46.52208" lon="5.81901">
        <ele>880.6</ele>
        <time>2021-10-17T07:08:24Z</time>
      </trkpt>
      <trkpt lat="46.52211" lon="5.81903">
        <ele>880.6</ele>
        <time>2021-10-17T07:08:25Z</time>
      </trkpt>
      <trkpt lat="46.52213" lon="5.81905">
        <ele>880.8</ele>
        <time>2021-10-17T07:08:26Z</time>
      </trkpt>
      <trkpt lat="46.52216" lon="5.81907">
        <ele>880.8</ele>
        <time>2021-10-17T07:08:27Z</time>
      </trkpt>
      <trkpt lat="46.52219" lon="5.81909">
        <ele>881</ele>
        <time>2021-10-17T07:08:28Z</time>
      </trkpt>
      <trkpt lat="46.52221" lon="5.81911">
        <ele>881</ele>
        <time>2021-10-17T07:08:29Z</time>
      </trkpt>
      <trkpt lat="46.52224" lon="5.81914">
        <ele>881.4</ele>
        <time>2021-10-17T07:08:30Z</time>
      </trkpt>
      <trkpt lat="46.52227" lon="5.81917">
        <ele>881.4</ele>
        <time>2021-10-17T07:08:31Z</time>
      </trkpt>
      <trkpt lat="46.52229" lon="5.8192">
        <ele>881.6</ele>
        <time>2021-10-17T07:08:32Z</time>
      </trkpt>
      <trkpt lat="46.52232" lon="5.81924">
        <ele>881.6</ele>
        <time>2021-10-17T07:08:33Z</time>
      </trkpt>
      <trkpt lat="46.52234" lon="5.81927">
        <ele>882</ele>
        <time>2021-10-17T07:08:34Z</time>
      </trkpt>
      <trkpt lat="46.52237" lon="5.81931">
        <ele>882</ele>
        <time>2021-10-17T07:08:35Z</time>
      </trkpt>
      <trkpt lat="46.52239" lon="5.81934">
        <ele>882.2</ele>
        <time>2021-10-17T07:08:36Z</time>
      </trkpt>
      <trkpt lat="46.52242" lon="5.81936">
        <ele>882.2</ele>
        <time>2021-10-17T07:08:37Z</time>
      </trkpt>
      <trkpt lat="46.52244" lon="5.81939">
        <ele>882.6</ele>
        <time>2021-10-17T07:08:38Z</time>
      </trkpt>
      <trkpt lat="46.52246" lon="5.81943">
        <ele>882.6</ele>
        <time>2021-10-17T07:08:39Z</time>
      </trkpt>
      <trkpt lat="46.52248" lon="5.81946">
        <ele>883</ele>
        <time>2021-10-17T07:08:40Z</time>
      </trkpt>
      <trkpt lat="46.52249" lon="5.81949">
        <ele>883</ele>
        <time>2021-10-17T07:08:41Z</time>
      </trkpt>
      <trkpt lat="46.52251" lon="5.81953">
        <ele>883.2</ele>
        <time>2021-10-17T07:08:42Z</time>
      </trkpt>
      <trkpt lat="46.52253" lon="5.81956">
        <ele>883.2</ele>
        <time>2021-10-17T07:08:43Z</time>
      </trkpt>
      <trkpt lat="46.52255" lon="5.8196">
        <ele>883.4</ele>
        <time>2021-10-17T07:08:44Z</time>
      </trkpt>
      <trkpt lat="46.52257" lon="5.81964">
        <ele>883.4</ele>
        <time>2021-10-17T07:08:45Z</time>
      </trkpt>
      <trkpt lat="46.52259" lon="5.81967">
        <ele>883.6</ele>
        <time>2021-10-17T07:08:46Z</time>
      </trkpt>
      <trkpt lat="46.52262" lon="5.81971">
        <ele>883.6</ele>
        <time>2021-10-17T07:08:47Z</time>
      </trkpt>
      <trkpt lat="46.52265" lon="5.81974">
        <ele>883.6</ele>
        <time>2021-10-17T07:08:48Z</time>
      </trkpt>
      <trkpt lat="46.52268" lon="5.81977">
        <ele>883.6</ele>
        <time>2021-10-17T07:08:49Z</time>
      </trkpt>
      <trkpt lat="46.52271" lon="5.81979">
        <ele>883.8</ele>
        <time>2021-10-17T07:08:50Z</time>
      </trkpt>
      <trkpt lat="46.52274" lon="5.81981">
        <ele>883.8</ele>
        <time>2021-10-17T07:08:51Z</time>
      </trkpt>
      <trkpt lat="46.52277" lon="5.81982">
        <ele>883.8</ele>
        <time>2021-10-17T07:08:52Z</time>
      </trkpt>
      <trkpt lat="46.52281" lon="5.81982">
        <ele>884.2</ele>
        <time>2021-10-17T07:08:53Z</time>
      </trkpt>
      <trkpt lat="46.52285" lon="5.81982">
        <ele>884.2</ele>
        <time>2021-10-17T07:08:54Z</time>
      </trkpt>
      <trkpt lat="46.52289" lon="5.81981">
        <ele>884.2</ele>
        <time>2021-10-17T07:08:55Z</time>
      </trkpt>
      <trkpt lat="46.52293" lon="5.81981">
        <ele>884.2</ele>
        <time>2021-10-17T07:08:56Z</time>
      </trkpt>
      <trkpt lat="46.52296" lon="5.81981">
        <ele>884.4</ele>
        <time>2021-10-17T07:08:57Z</time>
      </trkpt>
      <trkpt lat="46.523" lon="5.81982">
        <ele>884.4</ele>
        <time>2021-10-17T07:08:58Z</time>
      </trkpt>
      <trkpt lat="46.52302" lon="5.81982">
        <ele>884.4</ele>
        <time>2021-10-17T07:08:59Z</time>
      </trkpt>
      <trkpt lat="46.52304" lon="5.81983">
        <ele>884.4</ele>
        <time>2021-10-17T07:09:00Z</time>
      </trkpt>
      <trkpt lat="46.52306" lon="5.81983">
        <ele>884.6</ele>
        <time>2021-10-17T07:09:01Z</time>
      </trkpt>
      <trkpt lat="46.52308" lon="5.81983">
        <ele>884.6</ele>
        <time>2021-10-17T07:09:02Z</time>
      </trkpt>
      <trkpt lat="46.52308" lon="5.81982">
        <ele>884.6</ele>
        <time>2021-10-17T07:09:03Z</time>
      </trkpt>
      <trkpt lat="46.52307" lon="5.81981">
        <ele>884.6</ele>
        <time>2021-10-17T07:09:04Z</time>
      </trkpt>
      <trkpt lat="46.52305" lon="5.81981">
        <ele>884.8</ele>
        <time>2021-10-17T07:09:07Z</time>
      </trkpt>
      <trkpt lat="46.52304" lon="5.81981">
        <ele>884.8</ele>
        <time>2021-10-17T07:09:08Z</time>
      </trkpt>
      <trkpt lat="46.52303" lon="5.81982">
        <ele>884.8</ele>
        <time>2021-10-17T07:09:09Z</time>
      </trkpt>
      <trkpt lat="46.52302" lon="5.81982">
        <ele>884.8</ele>
        <time>2021-10-17T07:09:10Z</time>
      </trkpt>
      <trkpt lat="46.52301" lon="5.81982">
        <ele>884.8</ele>
        <time>2021-10-17T07:09:11Z</time>
      </trkpt>
      <trkpt lat="46.52299" lon="5.81982">
        <ele>884.6</ele>
        <time>2021-10-17T07:09:12Z</time>
      </trkpt>
      <trkpt lat="46.52298" lon="5.81982">
        <ele>884.6</ele>
        <time>2021-10-17T07:09:13Z</time>
      </trkpt>
      <trkpt lat="46.52297" lon="5.81982">
        <ele>884.6</ele>
        <time>2021-10-17T07:09:14Z</time>
      </trkpt>
      <trkpt lat="46.52296" lon="5.81982">
        <ele>884.6</ele>
        <time>2021-10-17T07:09:15Z</time>
      </trkpt>
      <trkpt lat="46.523" lon="5.81983">
        <ele>884</ele>
        <time>2021-10-17T07:10:35Z</time>
      </trkpt>
      <trkpt lat="46.52302" lon="5.81983">
        <ele>884</ele>
        <time>2021-10-17T07:10:36Z</time>
      </trkpt>
      <trkpt lat="46.52304" lon="5.81984">
        <ele>884.2</ele>
        <time>2021-10-17T07:10:37Z</time>
      </trkpt>
      <trkpt lat="46.52306" lon="5.81985">
        <ele>884.2</ele>
        <time>2021-10-17T07:10:38Z</time>
      </trkpt>
      <trkpt lat="46.52309" lon="5.81987">
        <ele>884.2</ele>
        <time>2021-10-17T07:10:39Z</time>
      </trkpt>
      <trkpt lat="46.52312" lon="5.81989">
        <ele>884.4</ele>
        <time>2021-10-17T07:10:40Z</time>
      </trkpt>
      <trkpt lat="46.52314" lon="5.81991">
        <ele>884.4</ele>
        <time>2021-10-17T07:10:41Z</time>
      </trkpt>
      <trkpt lat="46.52317" lon="5.81994">
        <ele>884.4</ele>
        <time>2021-10-17T07:10:42Z</time>
      </trkpt>
      <trkpt lat="46.5232" lon="5.81998">
        <ele>884.4</ele>
        <time>2021-10-17T07:10:43Z</time>
      </trkpt>
      <trkpt lat="46.52322" lon="5.82002">
        <ele>884.4</ele>
        <time>2021-10-17T07:10:44Z</time>
      </trkpt>
      <trkpt lat="46.52324" lon="5.82006">
        <ele>884.4</ele>
        <time>2021-10-17T07:10:45Z</time>
      </trkpt>
      <trkpt lat="46.52326" lon="5.82011">
        <ele>884.4</ele>
        <time>2021-10-17T07:10:46Z</time>
      </trkpt>
      <trkpt lat="46.52327" lon="5.82017">
        <ele>884.4</ele>
        <time>2021-10-17T07:10:47Z</time>
      </trkpt>
      <trkpt lat="46.52327" lon="5.82022">
        <ele>884.4</ele>
        <time>2021-10-17T07:10:48Z</time>
      </trkpt>
      <trkpt lat="46.52327" lon="5.82027">
        <ele>884.6</ele>
        <time>2021-10-17T07:10:49Z</time>
      </trkpt>
      <trkpt lat="46.52326" lon="5.82031">
        <ele>884.6</ele>
        <time>2021-10-17T07:10:50Z</time>
      </trkpt>
      <trkpt lat="46.52325" lon="5.82035">
        <ele>884.6</ele>
        <time>2021-10-17T07:10:51Z</time>
      </trkpt>
      <trkpt lat="46.52323" lon="5.82038">
        <ele>885</ele>
        <time>2021-10-17T07:10:52Z</time>
      </trkpt>
      <trkpt lat="46.52321" lon="5.82042">
        <ele>885</ele>
        <time>2021-10-17T07:10:53Z</time>
      </trkpt>
      <trkpt lat="46.52319" lon="5.82044">
        <ele>885.2</ele>
        <time>2021-10-17T07:10:54Z</time>
      </trkpt>
      <trkpt lat="46.52316" lon="5.82046">
        <ele>885.2</ele>
        <time>2021-10-17T07:10:55Z</time>
      </trkpt>
      <trkpt lat="46.52313" lon="5.82047">
        <ele>885.4</ele>
        <time>2021-10-17T07:10:56Z</time>
      </trkpt>
      <trkpt lat="46.52311" lon="5.82047">
        <ele>885.4</ele>
        <time>2021-10-17T07:10:57Z</time>
      </trkpt>
      <trkpt lat="46.52308" lon="5.82047">
        <ele>885.8</ele>
        <time>2021-10-17T07:10:58Z</time>
      </trkpt>
      <trkpt lat="46.52306" lon="5.82046">
        <ele>885.8</ele>
        <time>2021-10-17T07:10:59Z</time>
      </trkpt>
      <trkpt lat="46.52304" lon="5.82044">
        <ele>886</ele>
        <time>2021-10-17T07:11:00Z</time>
      </trkpt>
      <trkpt lat="46.52302" lon="5.82042">
        <ele>886.2</ele>
        <time>2021-10-17T07:11:01Z</time>
      </trkpt>
      <trkpt lat="46.523" lon="5.8204">
        <ele>886.4</ele>
        <time>2021-10-17T07:11:02Z</time>
      </trkpt>
      <trkpt lat="46.52297" lon="5.82037">
        <ele>886.4</ele>
        <time>2021-10-17T07:11:03Z</time>
      </trkpt>
      <trkpt lat="46.52295" lon="5.82035">
        <ele>886.8</ele>
        <time>2021-10-17T07:11:04Z</time>
      </trkpt>
      <trkpt lat="46.52293" lon="5.82033">
        <ele>886.8</ele>
        <time>2021-10-17T07:11:05Z</time>
      </trkpt>
      <trkpt lat="46.5229" lon="5.8203">
        <ele>887.2</ele>
        <time>2021-10-17T07:11:06Z</time>
      </trkpt>
      <trkpt lat="46.52288" lon="5.82028">
        <ele>887.2</ele>
        <time>2021-10-17T07:11:07Z</time>
      </trkpt>
      <trkpt lat="46.52287" lon="5.82025">
        <ele>887.6</ele>
        <time>2021-10-17T07:11:08Z</time>
      </trkpt>
      <trkpt lat="46.52285" lon="5.82023">
        <ele>887.8</ele>
        <time>2021-10-17T07:11:09Z</time>
      </trkpt>
      <trkpt lat="46.52283" lon="5.8202">
        <ele>888</ele>
        <time>2021-10-17T07:11:10Z</time>
      </trkpt>
      <trkpt lat="46.52282" lon="5.82018">
        <ele>888</ele>
        <time>2021-10-17T07:11:11Z</time>
      </trkpt>
      <trkpt lat="46.5228" lon="5.82016">
        <ele>888.4</ele>
        <time>2021-10-17T07:11:12Z</time>
      </trkpt>
      <trkpt lat="46.52278" lon="5.82013">
        <ele>888.6</ele>
        <time>2021-10-17T07:11:13Z</time>
      </trkpt>
      <trkpt lat="46.52276" lon="5.8201">
        <ele>888.8</ele>
        <time>2021-10-17T07:11:14Z</time>
      </trkpt>
      <trkpt lat="46.52274" lon="5.82007">
        <ele>888.8</ele>
        <time>2021-10-17T07:11:15Z</time>
      </trkpt>
      <trkpt lat="46.52272" lon="5.82005">
        <ele>889.2</ele>
        <time>2021-10-17T07:11:16Z</time>
      </trkpt>
      <trkpt lat="46.5227" lon="5.82002">
        <ele>889.2</ele>
        <time>2021-10-17T07:11:17Z</time>
      </trkpt>
      <trkpt lat="46.52268" lon="5.81998">
        <ele>889.6</ele>
        <time>2021-10-17T07:11:18Z</time>
      </trkpt>
      <trkpt lat="46.52266" lon="5.81995">
        <ele>889.8</ele>
        <time>2021-10-17T07:11:19Z</time>
      </trkpt>
      <trkpt lat="46.52264" lon="5.81993">
        <ele>889.8</ele>
        <time>2021-10-17T07:11:20Z</time>
      </trkpt>
      <trkpt lat="46.52261" lon="5.8199">
        <ele>890.2</ele>
        <time>2021-10-17T07:11:21Z</time>
      </trkpt>
      <trkpt lat="46.52259" lon="5.81988">
        <ele>890.2</ele>
        <time>2021-10-17T07:11:22Z</time>
      </trkpt>
      <trkpt lat="46.52256" lon="5.81986">
        <ele>890.6</ele>
        <time>2021-10-17T07:11:23Z</time>
      </trkpt>
      <trkpt lat="46.52253" lon="5.81984">
        <ele>890.8</ele>
        <time>2021-10-17T07:11:24Z</time>
      </trkpt>
      <trkpt lat="46.52251" lon="5.81983">
        <ele>890.8</ele>
        <time>2021-10-17T07:11:25Z</time>
      </trkpt>
      <trkpt lat="46.52248" lon="5.81982">
        <ele>891.2</ele>
        <time>2021-10-17T07:11:26Z</time>
      </trkpt>
      <trkpt lat="46.52245" lon="5.81981">
        <ele>891.2</ele>
        <time>2021-10-17T07:11:27Z</time>
      </trkpt>
      <trkpt lat="46.52242" lon="5.81981">
        <ele>891.4</ele>
        <time>2021-10-17T07:11:28Z</time>
      </trkpt>
      <trkpt lat="46.52239" lon="5.81981">
        <ele>891.6</ele>
        <time>2021-10-17T07:11:29Z</time>
      </trkpt>
      <trkpt lat="46.52236" lon="5.81981">
        <ele>891.6</ele>
        <time>2021-10-17T07:11:30Z</time>
      </trkpt>
      <trkpt lat="46.52233" lon="5.81982">
        <ele>891.8</ele>
        <time>2021-10-17T07:11:31Z</time>
      </trkpt>
      <trkpt lat="46.5223" lon="5.81982">
        <ele>891.8</ele>
        <time>2021-10-17T07:11:32Z</time>
      </trkpt>
      <trkpt lat="46.52227" lon="5.81984">
        <ele>892.2</ele>
        <time>2021-10-17T07:11:33Z</time>
      </trkpt>
      <trkpt lat="46.52224" lon="5.81985">
        <ele>892.2</ele>
        <time>2021-10-17T07:11:34Z</time>
      </trkpt>
      <trkpt lat="46.52221" lon="5.81987">
        <ele>892.6</ele>
        <time>2021-10-17T07:11:35Z</time>
      </trkpt>
      <trkpt lat="46.52218" lon="5.81989">
        <ele>892.6</ele>
        <time>2021-10-17T07:11:36Z</time>
      </trkpt>
      <trkpt lat="46.52215" lon="5.81991">
        <ele>892.8</ele>
        <time>2021-10-17T07:11:37Z</time>
      </trkpt>
      <trkpt lat="46.52211" lon="5.81992">
        <ele>892.8</ele>
        <time>2021-10-17T07:11:38Z</time>
      </trkpt>
      <trkpt lat="46.52208" lon="5.81994">
        <ele>893</ele>
        <time>2021-10-17T07:11:39Z</time>
      </trkpt>
      <trkpt lat="46.52205" lon="5.81995">
        <ele>893</ele>
        <time>2021-10-17T07:11:40Z</time>
      </trkpt>
      <trkpt lat="46.52202" lon="5.81997">
        <ele>893</ele>
        <time>2021-10-17T07:11:41Z</time>
      </trkpt>
      <trkpt lat="46.52198" lon="5.81999">
        <ele>893.2</ele>
        <time>2021-10-17T07:11:42Z</time>
      </trkpt>
      <trkpt lat="46.52195" lon="5.82">
        <ele>893.2</ele>
        <time>2021-10-17T07:11:43Z</time>
      </trkpt>
      <trkpt lat="46.52192" lon="5.82002">
        <ele>893.2</ele>
        <time>2021-10-17T07:11:44Z</time>
      </trkpt>
      <trkpt lat="46.52189" lon="5.82004">
        <ele>893.6</ele>
        <time>2021-10-17T07:11:45Z</time>
      </trkpt>
      <trkpt lat="46.52186" lon="5.82006">
        <ele>893.8</ele>
        <time>2021-10-17T07:11:46Z</time>
      </trkpt>
      <trkpt lat="46.52183" lon="5.82007">
        <ele>893.8</ele>
        <time>2021-10-17T07:11:47Z</time>
      </trkpt>
      <trkpt lat="46.5218" lon="5.82008">
        <ele>894.2</ele>
        <time>2021-10-17T07:11:48Z</time>
      </trkpt>
      <trkpt lat="46.52177" lon="5.82008">
        <ele>894.4</ele>
        <time>2021-10-17T07:11:49Z</time>
      </trkpt>
      <trkpt lat="46.52175" lon="5.82009">
        <ele>894.4</ele>
        <time>2021-10-17T07:11:50Z</time>
      </trkpt>
      <trkpt lat="46.52172" lon="5.82009">
        <ele>894.6</ele>
        <time>2021-10-17T07:11:51Z</time>
      </trkpt>
      <trkpt lat="46.52169" lon="5.82009">
        <ele>894.6</ele>
        <time>2021-10-17T07:11:52Z</time>
      </trkpt>
      <trkpt lat="46.52166" lon="5.82009">
        <ele>895</ele>
        <time>2021-10-17T07:11:53Z</time>
      </trkpt>
      <trkpt lat="46.52163" lon="5.8201">
        <ele>895</ele>
        <time>2021-10-17T07:11:54Z</time>
      </trkpt>
      <trkpt lat="46.5216" lon="5.8201">
        <ele>895.4</ele>
        <time>2021-10-17T07:11:55Z</time>
      </trkpt>
      <trkpt lat="46.52156" lon="5.82011">
        <ele>895.4</ele>
        <time>2021-10-17T07:11:56Z</time>
      </trkpt>
      <trkpt lat="46.52153" lon="5.82011">
        <ele>895.6</ele>
        <time>2021-10-17T07:11:57Z</time>
      </trkpt>
      <trkpt lat="46.5215" lon="5.82011">
        <ele>895.6</ele>
        <time>2021-10-17T07:11:58Z</time>
      </trkpt>
      <trkpt lat="46.52146" lon="5.82011">
        <ele>895.6</ele>
        <time>2021-10-17T07:11:59Z</time>
      </trkpt>
      <trkpt lat="46.52143" lon="5.82012">
        <ele>895.8</ele>
        <time>2021-10-17T07:12:00Z</time>
      </trkpt>
      <trkpt lat="46.52139" lon="5.82013">
        <ele>895.8</ele>
        <time>2021-10-17T07:12:01Z</time>
      </trkpt>
      <trkpt lat="46.52136" lon="5.82014">
        <ele>896</ele>
        <time>2021-10-17T07:12:02Z</time>
      </trkpt>
      <trkpt lat="46.52132" lon="5.82014">
        <ele>896</ele>
        <time>2021-10-17T07:12:03Z</time>
      </trkpt>
      <trkpt lat="46.52128" lon="5.82015">
        <ele>896.4</ele>
        <time>2021-10-17T07:12:04Z</time>
      </trkpt>
      <trkpt lat="46.52125" lon="5.82016">
        <ele>896.4</ele>
        <time>2021-10-17T07:12:05Z</time>
      </trkpt>
      <trkpt lat="46.52121" lon="5.82016">
        <ele>896.8</ele>
        <time>2021-10-17T07:12:06Z</time>
      </trkpt>
      <trkpt lat="46.52118" lon="5.82017">
        <ele>896.8</ele>
        <time>2021-10-17T07:12:07Z</time>
      </trkpt>
      <trkpt lat="46.52114" lon="5.82018">
        <ele>897.2</ele>
        <time>2021-10-17T07:12:08Z</time>
      </trkpt>
      <trkpt lat="46.52111" lon="5.8202">
        <ele>897.2</ele>
        <time>2021-10-17T07:12:09Z</time>
      </trkpt>
      <trkpt lat="46.52108" lon="5.82021">
        <ele>897.4</ele>
        <time>2021-10-17T07:12:10Z</time>
      </trkpt>
      <trkpt lat="46.52104" lon="5.82023">
        <ele>897.4</ele>
        <time>2021-10-17T07:12:11Z</time>
      </trkpt>
      <trkpt lat="46.52101" lon="5.82025">
        <ele>897.8</ele>
        <time>2021-10-17T07:12:12Z</time>
      </trkpt>
      <trkpt lat="46.52098" lon="5.82026">
        <ele>897.8</ele>
        <time>2021-10-17T07:12:13Z</time>
      </trkpt>
      <trkpt lat="46.52095" lon="5.82028">
        <ele>898</ele>
        <time>2021-10-17T07:12:14Z</time>
      </trkpt>
      <trkpt lat="46.52092" lon="5.82031">
        <ele>898</ele>
        <time>2021-10-17T07:12:15Z</time>
      </trkpt>
      <trkpt lat="46.52089" lon="5.82033">
        <ele>898.2</ele>
        <time>2021-10-17T07:12:16Z</time>
      </trkpt>
      <trkpt lat="46.52086" lon="5.82035">
        <ele>898.2</ele>
        <time>2021-10-17T07:12:17Z</time>
      </trkpt>
      <trkpt lat="46.52083" lon="5.82037">
        <ele>898.6</ele>
        <time>2021-10-17T07:12:18Z</time>
      </trkpt>
      <trkpt lat="46.52081" lon="5.82039">
        <ele>898.8</ele>
        <time>2021-10-17T07:12:19Z</time>
      </trkpt>
      <trkpt lat="46.52078" lon="5.8204">
        <ele>899</ele>
        <time>2021-10-17T07:12:20Z</time>
      </trkpt>
      <trkpt lat="46.52076" lon="5.82042">
        <ele>899</ele>
        <time>2021-10-17T07:12:21Z</time>
      </trkpt>
      <trkpt lat="46.52074" lon="5.82044">
        <ele>899.4</ele>
        <time>2021-10-17T07:12:22Z</time>
      </trkpt>
      <trkpt lat="46.52072" lon="5.82045">
        <ele>899.4</ele>
        <time>2021-10-17T07:12:23Z</time>
      </trkpt>
      <trkpt lat="46.52069" lon="5.82046">
        <ele>899.8</ele>
        <time>2021-10-17T07:12:24Z</time>
      </trkpt>
      <trkpt lat="46.52067" lon="5.82049">
        <ele>899.8</ele>
        <time>2021-10-17T07:12:25Z</time>
      </trkpt>
      <trkpt lat="46.52064" lon="5.8205">
        <ele>900</ele>
        <time>2021-10-17T07:12:26Z</time>
      </trkpt>
      <trkpt lat="46.52061" lon="5.82052">
        <ele>900</ele>
        <time>2021-10-17T07:12:27Z</time>
      </trkpt>
      <trkpt lat="46.52058" lon="5.82053">
        <ele>900.4</ele>
        <time>2021-10-17T07:12:28Z</time>
      </trkpt>
      <trkpt lat="46.52055" lon="5.82054">
        <ele>900.4</ele>
        <time>2021-10-17T07:12:29Z</time>
      </trkpt>
      <trkpt lat="46.52052" lon="5.82055">
        <ele>900.6</ele>
        <time>2021-10-17T07:12:30Z</time>
      </trkpt>
      <trkpt lat="46.52049" lon="5.82056">
        <ele>900.6</ele>
        <time>2021-10-17T07:12:31Z</time>
      </trkpt>
      <trkpt lat="46.52046" lon="5.82058">
        <ele>900.8</ele>
        <time>2021-10-17T07:12:32Z</time>
      </trkpt>
      <trkpt lat="46.52042" lon="5.82059">
        <ele>900.8</ele>
        <time>2021-10-17T07:12:33Z</time>
      </trkpt>
      <trkpt lat="46.52038" lon="5.8206">
        <ele>901.2</ele>
        <time>2021-10-17T07:12:34Z</time>
      </trkpt>
      <trkpt lat="46.52035" lon="5.82061">
        <ele>901.2</ele>
        <time>2021-10-17T07:12:35Z</time>
      </trkpt>
      <trkpt lat="46.52031" lon="5.82061">
        <ele>901.6</ele>
        <time>2021-10-17T07:12:36Z</time>
      </trkpt>
      <trkpt lat="46.52028" lon="5.82061">
        <ele>901.6</ele>
        <time>2021-10-17T07:12:37Z</time>
      </trkpt>
      <trkpt lat="46.52024" lon="5.8206">
        <ele>902</ele>
        <time>2021-10-17T07:12:38Z</time>
      </trkpt>
      <trkpt lat="46.5202" lon="5.8206">
        <ele>902.2</ele>
        <time>2021-10-17T07:12:39Z</time>
      </trkpt>
      <trkpt lat="46.52015" lon="5.82059">
        <ele>902.2</ele>
        <time>2021-10-17T07:12:40Z</time>
      </trkpt>
      <trkpt lat="46.5201" lon="5.82059">
        <ele>902.6</ele>
        <time>2021-10-17T07:12:41Z</time>
      </trkpt>
      <trkpt lat="46.52006" lon="5.82059">
        <ele>903</ele>
        <time>2021-10-17T07:12:42Z</time>
      </trkpt>
      <trkpt lat="46.52002" lon="5.82058">
        <ele>903.2</ele>
        <time>2021-10-17T07:12:43Z</time>
      </trkpt>
      <trkpt lat="46.51998" lon="5.82058">
        <ele>903.6</ele>
        <time>2021-10-17T07:12:44Z</time>
      </trkpt>
      <trkpt lat="46.51995" lon="5.82057">
        <ele>903.8</ele>
        <time>2021-10-17T07:12:45Z</time>
      </trkpt>
      <trkpt lat="46.51992" lon="5.82056">
        <ele>904</ele>
        <time>2021-10-17T07:12:46Z</time>
      </trkpt>
      <trkpt lat="46.51989" lon="5.82054">
        <ele>904.4</ele>
        <time>2021-10-17T07:12:47Z</time>
      </trkpt>
      <trkpt lat="46.51987" lon="5.82053">
        <ele>904.6</ele>
        <time>2021-10-17T07:12:48Z</time>
      </trkpt>
      <trkpt lat="46.51984" lon="5.82052">
        <ele>905</ele>
        <time>2021-10-17T07:12:49Z</time>
      </trkpt>
      <trkpt lat="46.51981" lon="5.82052">
        <ele>905</ele>
        <time>2021-10-17T07:12:50Z</time>
      </trkpt>
      <trkpt lat="46.51979" lon="5.82052">
        <ele>905.4</ele>
        <time>2021-10-17T07:12:51Z</time>
      </trkpt>
      <trkpt lat="46.51976" lon="5.82052">
        <ele>905.4</ele>
        <time>2021-10-17T07:12:52Z</time>
      </trkpt>
      <trkpt lat="46.51972" lon="5.82052">
        <ele>905.6</ele>
        <time>2021-10-17T07:12:53Z</time>
      </trkpt>
      <trkpt lat="46.51969" lon="5.82052">
        <ele>905.6</ele>
        <time>2021-10-17T07:12:54Z</time>
      </trkpt>
      <trkpt lat="46.51966" lon="5.82051">
        <ele>906</ele>
        <time>2021-10-17T07:12:55Z</time>
      </trkpt>
      <trkpt lat="46.51963" lon="5.8205">
        <ele>906</ele>
        <time>2021-10-17T07:12:56Z</time>
      </trkpt>
      <trkpt lat="46.51961" lon="5.82049">
        <ele>906.4</ele>
        <time>2021-10-17T07:12:57Z</time>
      </trkpt>
      <trkpt lat="46.51958" lon="5.82049">
        <ele>906.6</ele>
        <time>2021-10-17T07:12:58Z</time>
      </trkpt>
      <trkpt lat="46.51955" lon="5.82048">
        <ele>906.6</ele>
        <time>2021-10-17T07:12:59Z</time>
      </trkpt>
      <trkpt lat="46.51953" lon="5.82048">
        <ele>907</ele>
        <time>2021-10-17T07:13:00Z</time>
      </trkpt>
      <trkpt lat="46.5195" lon="5.82047">
        <ele>907</ele>
        <time>2021-10-17T07:13:01Z</time>
      </trkpt>
      <trkpt lat="46.51947" lon="5.82045">
        <ele>907.2</ele>
        <time>2021-10-17T07:13:02Z</time>
      </trkpt>
      <trkpt lat="46.51944" lon="5.82044">
        <ele>907.2</ele>
        <time>2021-10-17T07:13:03Z</time>
      </trkpt>
      <trkpt lat="46.5194" lon="5.82043">
        <ele>907.4</ele>
        <time>2021-10-17T07:13:04Z</time>
      </trkpt>
      <trkpt lat="46.51937" lon="5.82043">
        <ele>907.4</ele>
        <time>2021-10-17T07:13:05Z</time>
      </trkpt>
      <trkpt lat="46.51934" lon="5.82042">
        <ele>907.8</ele>
        <time>2021-10-17T07:13:06Z</time>
      </trkpt>
      <trkpt lat="46.5193" lon="5.82042">
        <ele>907.8</ele>
        <time>2021-10-17T07:13:07Z</time>
      </trkpt>
      <trkpt lat="46.51927" lon="5.82041">
        <ele>908.2</ele>
        <time>2021-10-17T07:13:08Z</time>
      </trkpt>
      <trkpt lat="46.51924" lon="5.82041">
        <ele>908.2</ele>
        <time>2021-10-17T07:13:09Z</time>
      </trkpt>
      <trkpt lat="46.51921" lon="5.8204">
        <ele>908.4</ele>
        <time>2021-10-17T07:13:10Z</time>
      </trkpt>
      <trkpt lat="46.51919" lon="5.82039">
        <ele>908.4</ele>
        <time>2021-10-17T07:13:11Z</time>
      </trkpt>
      <trkpt lat="46.51916" lon="5.82039">
        <ele>908.8</ele>
        <time>2021-10-17T07:13:12Z</time>
      </trkpt>
      <trkpt lat="46.51913" lon="5.82038">
        <ele>908.8</ele>
        <time>2021-10-17T07:13:13Z</time>
      </trkpt>
      <trkpt lat="46.5191" lon="5.82037">
        <ele>909</ele>
        <time>2021-10-17T07:13:14Z</time>
      </trkpt>
      <trkpt lat="46.51906" lon="5.82036">
        <ele>909</ele>
        <time>2021-10-17T07:13:15Z</time>
      </trkpt>
      <trkpt lat="46.51903" lon="5.82035">
        <ele>909.4</ele>
        <time>2021-10-17T07:13:16Z</time>
      </trkpt>
      <trkpt lat="46.519" lon="5.82035">
        <ele>909.4</ele>
        <time>2021-10-17T07:13:17Z</time>
      </trkpt>
      <trkpt lat="46.51897" lon="5.82034">
        <ele>909.8</ele>
        <time>2021-10-17T07:13:18Z</time>
      </trkpt>
      <trkpt lat="46.51895" lon="5.82035">
        <ele>909.8</ele>
        <time>2021-10-17T07:13:19Z</time>
      </trkpt>
      <trkpt lat="46.51892" lon="5.82035">
        <ele>910</ele>
        <time>2021-10-17T07:13:20Z</time>
      </trkpt>
      <trkpt lat="46.5189" lon="5.82035">
        <ele>910</ele>
        <time>2021-10-17T07:13:21Z</time>
      </trkpt>
      <trkpt lat="46.51887" lon="5.82035">
        <ele>910.4</ele>
        <time>2021-10-17T07:13:22Z</time>
      </trkpt>
      <trkpt lat="46.51884" lon="5.82036">
        <ele>910.6</ele>
        <time>2021-10-17T07:13:23Z</time>
      </trkpt>
      <trkpt lat="46.51882" lon="5.82036">
        <ele>910.6</ele>
        <time>2021-10-17T07:13:24Z</time>
      </trkpt>
      <trkpt lat="46.51879" lon="5.82037">
        <ele>911</ele>
        <time>2021-10-17T07:13:25Z</time>
      </trkpt>
      <trkpt lat="46.51876" lon="5.82038">
        <ele>911</ele>
        <time>2021-10-17T07:13:26Z</time>
      </trkpt>
      <trkpt lat="46.51874" lon="5.82039">
        <ele>911.2</ele>
        <time>2021-10-17T07:13:27Z</time>
      </trkpt>
      <trkpt lat="46.5187" lon="5.8204">
        <ele>911.2</ele>
        <time>2021-10-17T07:13:28Z</time>
      </trkpt>
      <trkpt lat="46.51867" lon="5.8204">
        <ele>911.6</ele>
        <time>2021-10-17T07:13:29Z</time>
      </trkpt>
      <trkpt lat="46.51864" lon="5.8204">
        <ele>911.6</ele>
        <time>2021-10-17T07:13:30Z</time>
      </trkpt>
      <trkpt lat="46.51861" lon="5.82041">
        <ele>911.8</ele>
        <time>2021-10-17T07:13:31Z</time>
      </trkpt>
      <trkpt lat="46.51858" lon="5.82041">
        <ele>911.8</ele>
        <time>2021-10-17T07:13:32Z</time>
      </trkpt>
      <trkpt lat="46.51855" lon="5.82042">
        <ele>912.2</ele>
        <time>2021-10-17T07:13:33Z</time>
      </trkpt>
      <trkpt lat="46.51852" lon="5.82043">
        <ele>912.2</ele>
        <time>2021-10-17T07:13:34Z</time>
      </trkpt>
      <trkpt lat="46.5185" lon="5.82043">
        <ele>912.4</ele>
        <time>2021-10-17T07:13:35Z</time>
      </trkpt>
      <trkpt lat="46.51848" lon="5.82044">
        <ele>912.4</ele>
        <time>2021-10-17T07:13:36Z</time>
      </trkpt>
      <trkpt lat="46.51845" lon="5.82044">
        <ele>912.4</ele>
        <time>2021-10-17T07:13:37Z</time>
      </trkpt>
      <trkpt lat="46.51842" lon="5.82045">
        <ele>912.8</ele>
        <time>2021-10-17T07:13:38Z</time>
      </trkpt>
      <trkpt lat="46.51839" lon="5.82046">
        <ele>912.8</ele>
        <time>2021-10-17T07:13:39Z</time>
      </trkpt>
      <trkpt lat="46.51836" lon="5.82047">
        <ele>913</ele>
        <time>2021-10-17T07:13:40Z</time>
      </trkpt>
      <trkpt lat="46.51833" lon="5.82048">
        <ele>913</ele>
        <time>2021-10-17T07:13:41Z</time>
      </trkpt>
      <trkpt lat="46.51829" lon="5.82048">
        <ele>913.4</ele>
        <time>2021-10-17T07:13:42Z</time>
      </trkpt>
      <trkpt lat="46.51825" lon="5.82048">
        <ele>913.4</ele>
        <time>2021-10-17T07:13:43Z</time>
      </trkpt>
      <trkpt lat="46.51822" lon="5.82048">
        <ele>913.6</ele>
        <time>2021-10-17T07:13:44Z</time>
      </trkpt>
      <trkpt lat="46.51818" lon="5.82047">
        <ele>913.6</ele>
        <time>2021-10-17T07:13:45Z</time>
      </trkpt>
      <trkpt lat="46.51814" lon="5.82046">
        <ele>914</ele>
        <time>2021-10-17T07:13:46Z</time>
      </trkpt>
      <trkpt lat="46.51811" lon="5.82045">
        <ele>914</ele>
        <time>2021-10-17T07:13:47Z</time>
      </trkpt>
      <trkpt lat="46.51807" lon="5.82044">
        <ele>914.2</ele>
        <time>2021-10-17T07:13:48Z</time>
      </trkpt>
      <trkpt lat="46.51803" lon="5.82043">
        <ele>914.2</ele>
        <time>2021-10-17T07:13:49Z</time>
      </trkpt>
      <trkpt lat="46.518" lon="5.82042">
        <ele>914.6</ele>
        <time>2021-10-17T07:13:50Z</time>
      </trkpt>
      <trkpt lat="46.51797" lon="5.8204">
        <ele>914.6</ele>
        <time>2021-10-17T07:13:51Z</time>
      </trkpt>
      <trkpt lat="46.51794" lon="5.82039">
        <ele>914.8</ele>
        <time>2021-10-17T07:13:52Z</time>
      </trkpt>
      <trkpt lat="46.51791" lon="5.82037">
        <ele>914.8</ele>
        <time>2021-10-17T07:13:53Z</time>
      </trkpt>
      <trkpt lat="46.51789" lon="5.82036">
        <ele>915.2</ele>
        <time>2021-10-17T07:13:54Z</time>
      </trkpt>
      <trkpt lat="46.51786" lon="5.82034">
        <ele>915.2</ele>
        <time>2021-10-17T07:13:55Z</time>
      </trkpt>
      <trkpt lat="46.51783" lon="5.82032">
        <ele>915.4</ele>
        <time>2021-10-17T07:13:56Z</time>
      </trkpt>
      <trkpt lat="46.51781" lon="5.82031">
        <ele>915.4</ele>
        <time>2021-10-17T07:13:57Z</time>
      </trkpt>
      <trkpt lat="46.51778" lon="5.82029">
        <ele>915.6</ele>
        <time>2021-10-17T07:13:58Z</time>
      </trkpt>
      <trkpt lat="46.51774" lon="5.82028">
        <ele>915.6</ele>
        <time>2021-10-17T07:13:59Z</time>
      </trkpt>
      <trkpt lat="46.51771" lon="5.82026">
        <ele>916</ele>
        <time>2021-10-17T07:14:00Z</time>
      </trkpt>
      <trkpt lat="46.51768" lon="5.82025">
        <ele>916</ele>
        <time>2021-10-17T07:14:01Z</time>
      </trkpt>
      <trkpt lat="46.51764" lon="5.82025">
        <ele>916.2</ele>
        <time>2021-10-17T07:14:02Z</time>
      </trkpt>
      <trkpt lat="46.51761" lon="5.82025">
        <ele>916.2</ele>
        <time>2021-10-17T07:14:03Z</time>
      </trkpt>
      <trkpt lat="46.51758" lon="5.82025">
        <ele>916.6</ele>
        <time>2021-10-17T07:14:04Z</time>
      </trkpt>
      <trkpt lat="46.51755" lon="5.82025">
        <ele>916.8</ele>
        <time>2021-10-17T07:14:05Z</time>
      </trkpt>
      <trkpt lat="46.51751" lon="5.82026">
        <ele>916.8</ele>
        <time>2021-10-17T07:14:06Z</time>
      </trkpt>
      <trkpt lat="46.51749" lon="5.82027">
        <ele>917.2</ele>
        <time>2021-10-17T07:14:07Z</time>
      </trkpt>
      <trkpt lat="46.51746" lon="5.82028">
        <ele>917.4</ele>
        <time>2021-10-17T07:14:08Z</time>
      </trkpt>
      <trkpt lat="46.51744" lon="5.8203">
        <ele>917.4</ele>
        <time>2021-10-17T07:14:09Z</time>
      </trkpt>
      <trkpt lat="46.51741" lon="5.82032">
        <ele>917.8</ele>
        <time>2021-10-17T07:14:10Z</time>
      </trkpt>
      <trkpt lat="46.51739" lon="5.82034">
        <ele>917.8</ele>
        <time>2021-10-17T07:14:11Z</time>
      </trkpt>
      <trkpt lat="46.51736" lon="5.82036">
        <ele>918</ele>
        <time>2021-10-17T07:14:12Z</time>
      </trkpt>
      <trkpt lat="46.51733" lon="5.82038">
        <ele>918</ele>
        <time>2021-10-17T07:14:13Z</time>
      </trkpt>
      <trkpt lat="46.51731" lon="5.82039">
        <ele>918</ele>
        <time>2021-10-17T07:14:14Z</time>
      </trkpt>
      <trkpt lat="46.51727" lon="5.82042">
        <ele>918.4</ele>
        <time>2021-10-17T07:14:15Z</time>
      </trkpt>
      <trkpt lat="46.51724" lon="5.82044">
        <ele>918.4</ele>
        <time>2021-10-17T07:14:16Z</time>
      </trkpt>
      <trkpt lat="46.51722" lon="5.82046">
        <ele>918.6</ele>
        <time>2021-10-17T07:14:17Z</time>
      </trkpt>
      <trkpt lat="46.51719" lon="5.82049">
        <ele>918.6</ele>
        <time>2021-10-17T07:14:18Z</time>
      </trkpt>
      <trkpt lat="46.51717" lon="5.82051">
        <ele>919</ele>
        <time>2021-10-17T07:14:19Z</time>
      </trkpt>
      <trkpt lat="46.51715" lon="5.82053">
        <ele>919</ele>
        <time>2021-10-17T07:14:20Z</time>
      </trkpt>
      <trkpt lat="46.51713" lon="5.82055">
        <ele>919.2</ele>
        <time>2021-10-17T07:14:21Z</time>
      </trkpt>
      <trkpt lat="46.51711" lon="5.82058">
        <ele>919.2</ele>
        <time>2021-10-17T07:14:22Z</time>
      </trkpt>
      <trkpt lat="46.51708" lon="5.8206">
        <ele>919.4</ele>
        <time>2021-10-17T07:14:23Z</time>
      </trkpt>
      <trkpt lat="46.51706" lon="5.82062">
        <ele>919.4</ele>
        <time>2021-10-17T07:14:24Z</time>
      </trkpt>
      <trkpt lat="46.51704" lon="5.82065">
        <ele>919.8</ele>
        <time>2021-10-17T07:14:25Z</time>
      </trkpt>
      <trkpt lat="46.51702" lon="5.82067">
        <ele>919.8</ele>
        <time>2021-10-17T07:14:26Z</time>
      </trkpt>
      <trkpt lat="46.517" lon="5.82069">
        <ele>920.2</ele>
        <time>2021-10-17T07:14:27Z</time>
      </trkpt>
      <trkpt lat="46.51698" lon="5.82071">
        <ele>920.2</ele>
        <time>2021-10-17T07:14:28Z</time>
      </trkpt>
      <trkpt lat="46.51696" lon="5.82073">
        <ele>920.4</ele>
        <time>2021-10-17T07:14:29Z</time>
      </trkpt>
      <trkpt lat="46.51694" lon="5.82075">
        <ele>920.4</ele>
        <time>2021-10-17T07:14:30Z</time>
      </trkpt>
      <trkpt lat="46.51692" lon="5.82077">
        <ele>920.8</ele>
        <time>2021-10-17T07:14:31Z</time>
      </trkpt>
      <trkpt lat="46.51689" lon="5.82078">
        <ele>920.8</ele>
        <time>2021-10-17T07:14:32Z</time>
      </trkpt>
      <trkpt lat="46.51687" lon="5.8208">
        <ele>921</ele>
        <time>2021-10-17T07:14:33Z</time>
      </trkpt>
      <trkpt lat="46.51685" lon="5.82082">
        <ele>921</ele>
        <time>2021-10-17T07:14:34Z</time>
      </trkpt>
      <trkpt lat="46.51682" lon="5.82083">
        <ele>921.4</ele>
        <time>2021-10-17T07:14:35Z</time>
      </trkpt>
      <trkpt lat="46.51679" lon="5.82085">
        <ele>921.4</ele>
        <time>2021-10-17T07:14:36Z</time>
      </trkpt>
      <trkpt lat="46.51676" lon="5.82087">
        <ele>921.6</ele>
        <time>2021-10-17T07:14:37Z</time>
      </trkpt>
      <trkpt lat="46.51673" lon="5.82088">
        <ele>921.6</ele>
        <time>2021-10-17T07:14:38Z</time>
      </trkpt>
      <trkpt lat="46.5167" lon="5.8209">
        <ele>922</ele>
        <time>2021-10-17T07:14:39Z</time>
      </trkpt>
      <trkpt lat="46.51668" lon="5.82091">
        <ele>922</ele>
        <time>2021-10-17T07:14:40Z</time>
      </trkpt>
      <trkpt lat="46.51664" lon="5.82092">
        <ele>922.2</ele>
        <time>2021-10-17T07:14:41Z</time>
      </trkpt>
      <trkpt lat="46.51661" lon="5.82093">
        <ele>922.2</ele>
        <time>2021-10-17T07:14:42Z</time>
      </trkpt>
      <trkpt lat="46.51658" lon="5.82094">
        <ele>922.2</ele>
        <time>2021-10-17T07:14:43Z</time>
      </trkpt>
      <trkpt lat="46.51654" lon="5.82095">
        <ele>922.4</ele>
        <time>2021-10-17T07:14:44Z</time>
      </trkpt>
      <trkpt lat="46.51649" lon="5.82097">
        <ele>922.4</ele>
        <time>2021-10-17T07:14:45Z</time>
      </trkpt>
      <trkpt lat="46.51644" lon="5.82097">
        <ele>922.4</ele>
        <time>2021-10-17T07:14:46Z</time>
      </trkpt>
      <trkpt lat="46.51641" lon="5.82098">
        <ele>922.8</ele>
        <time>2021-10-17T07:14:47Z</time>
      </trkpt>
      <trkpt lat="46.51637" lon="5.82098">
        <ele>922.8</ele>
        <time>2021-10-17T07:14:48Z</time>
      </trkpt>
      <trkpt lat="46.51634" lon="5.82098">
        <ele>923</ele>
        <time>2021-10-17T07:14:49Z</time>
      </trkpt>
      <trkpt lat="46.51631" lon="5.82098">
        <ele>923</ele>
        <time>2021-10-17T07:14:50Z</time>
      </trkpt>
      <trkpt lat="46.51628" lon="5.82098">
        <ele>923.2</ele>
        <time>2021-10-17T07:14:51Z</time>
      </trkpt>
      <trkpt lat="46.51625" lon="5.82099">
        <ele>923.6</ele>
        <time>2021-10-17T07:14:52Z</time>
      </trkpt>
      <trkpt lat="46.51622" lon="5.82099">
        <ele>923.8</ele>
        <time>2021-10-17T07:14:53Z</time>
      </trkpt>
      <trkpt lat="46.51619" lon="5.82099">
        <ele>923.8</ele>
        <time>2021-10-17T07:14:54Z</time>
      </trkpt>
      <trkpt lat="46.51615" lon="5.82098">
        <ele>924.2</ele>
        <time>2021-10-17T07:14:55Z</time>
      </trkpt>
      <trkpt lat="46.51611" lon="5.82098">
        <ele>924.2</ele>
        <time>2021-10-17T07:14:56Z</time>
      </trkpt>
      <trkpt lat="46.51607" lon="5.82099">
        <ele>924.6</ele>
        <time>2021-10-17T07:14:57Z</time>
      </trkpt>
      <trkpt lat="46.51604" lon="5.82099">
        <ele>924.6</ele>
        <time>2021-10-17T07:14:58Z</time>
      </trkpt>
      <trkpt lat="46.516" lon="5.82099">
        <ele>925</ele>
        <time>2021-10-17T07:14:59Z</time>
      </trkpt>
      <trkpt lat="46.51596" lon="5.82099">
        <ele>925</ele>
        <time>2021-10-17T07:15:00Z</time>
      </trkpt>
      <trkpt lat="46.51592" lon="5.82099">
        <ele>925.2</ele>
        <time>2021-10-17T07:15:01Z</time>
      </trkpt>
      <trkpt lat="46.51587" lon="5.82098">
        <ele>925.2</ele>
        <time>2021-10-17T07:15:02Z</time>
      </trkpt>
      <trkpt lat="46.51582" lon="5.82098">
        <ele>925.6</ele>
        <time>2021-10-17T07:15:03Z</time>
      </trkpt>
      <trkpt lat="46.51576" lon="5.82096">
        <ele>925.6</ele>
        <time>2021-10-17T07:15:04Z</time>
      </trkpt>
      <trkpt lat="46.51572" lon="5.82095">
        <ele>925.8</ele>
        <time>2021-10-17T07:15:05Z</time>
      </trkpt>
      <trkpt lat="46.51567" lon="5.82093">
        <ele>925.8</ele>
        <time>2021-10-17T07:15:06Z</time>
      </trkpt>
      <trkpt lat="46.51562" lon="5.82091">
        <ele>925.8</ele>
        <time>2021-10-17T07:15:07Z</time>
      </trkpt>
      <trkpt lat="46.51558" lon="5.82088">
        <ele>925.8</ele>
        <time>2021-10-17T07:15:08Z</time>
      </trkpt>
      <trkpt lat="46.51554" lon="5.82085">
        <ele>926</ele>
        <time>2021-10-17T07:15:09Z</time>
      </trkpt>
      <trkpt lat="46.51551" lon="5.82082">
        <ele>926</ele>
        <time>2021-10-17T07:15:10Z</time>
      </trkpt>
      <trkpt lat="46.51548" lon="5.82079">
        <ele>926.4</ele>
        <time>2021-10-17T07:15:11Z</time>
      </trkpt>
      <trkpt lat="46.51546" lon="5.82076">
        <ele>926.6</ele>
        <time>2021-10-17T07:15:12Z</time>
      </trkpt>
      <trkpt lat="46.51544" lon="5.82073">
        <ele>927</ele>
        <time>2021-10-17T07:15:13Z</time>
      </trkpt>
      <trkpt lat="46.51542" lon="5.8207">
        <ele>927.2</ele>
        <time>2021-10-17T07:15:14Z</time>
      </trkpt>
      <trkpt lat="46.5154" lon="5.82067">
        <ele>927.4</ele>
        <time>2021-10-17T07:15:15Z</time>
      </trkpt>
      <trkpt lat="46.51538" lon="5.82063">
        <ele>927.6</ele>
        <time>2021-10-17T07:15:16Z</time>
      </trkpt>
      <trkpt lat="46.51536" lon="5.82059">
        <ele>928</ele>
        <time>2021-10-17T07:15:17Z</time>
      </trkpt>
      <trkpt lat="46.51535" lon="5.82055">
        <ele>928.4</ele>
        <time>2021-10-17T07:15:18Z</time>
      </trkpt>
      <trkpt lat="46.51534" lon="5.8205">
        <ele>928.6</ele>
        <time>2021-10-17T07:15:19Z</time>
      </trkpt>
      <trkpt lat="46.51533" lon="5.82045">
        <ele>928.6</ele>
        <time>2021-10-17T07:15:20Z</time>
      </trkpt>
      <trkpt lat="46.51532" lon="5.8204">
        <ele>929</ele>
        <time>2021-10-17T07:15:21Z</time>
      </trkpt>
      <trkpt lat="46.51532" lon="5.82036">
        <ele>929.2</ele>
        <time>2021-10-17T07:15:22Z</time>
      </trkpt>
      <trkpt lat="46.51531" lon="5.82033">
        <ele>929.4</ele>
        <time>2021-10-17T07:15:23Z</time>
      </trkpt>
      <trkpt lat="46.5153" lon="5.82029">
        <ele>929.6</ele>
        <time>2021-10-17T07:15:24Z</time>
      </trkpt>
      <trkpt lat="46.51529" lon="5.82026">
        <ele>929.6</ele>
        <time>2021-10-17T07:15:25Z</time>
      </trkpt>
      <trkpt lat="46.51529" lon="5.82023">
        <ele>930</ele>
        <time>2021-10-17T07:15:26Z</time>
      </trkpt>
      <trkpt lat="46.51528" lon="5.82019">
        <ele>930</ele>
        <time>2021-10-17T07:15:27Z</time>
      </trkpt>
      <trkpt lat="46.51527" lon="5.82016">
        <ele>930.4</ele>
        <time>2021-10-17T07:15:28Z</time>
      </trkpt>
      <trkpt lat="46.51526" lon="5.82012">
        <ele>930.6</ele>
        <time>2021-10-17T07:15:29Z</time>
      </trkpt>
      <trkpt lat="46.51525" lon="5.82008">
        <ele>930.8</ele>
        <time>2021-10-17T07:15:30Z</time>
      </trkpt>
      <trkpt lat="46.51524" lon="5.82003">
        <ele>930.8</ele>
        <time>2021-10-17T07:15:31Z</time>
      </trkpt>
      <trkpt lat="46.51523" lon="5.81999">
        <ele>931.2</ele>
        <time>2021-10-17T07:15:32Z</time>
      </trkpt>
      <trkpt lat="46.51521" lon="5.81994">
        <ele>931.2</ele>
        <time>2021-10-17T07:15:33Z</time>
      </trkpt>
      <trkpt lat="46.5152" lon="5.81989">
        <ele>931.6</ele>
        <time>2021-10-17T07:15:34Z</time>
      </trkpt>
      <trkpt lat="46.51518" lon="5.81984">
        <ele>931.6</ele>
        <time>2021-10-17T07:15:35Z</time>
      </trkpt>
      <trkpt lat="46.51517" lon="5.81979">
        <ele>932</ele>
        <time>2021-10-17T07:15:36Z</time>
      </trkpt>
      <trkpt lat="46.51515" lon="5.81975">
        <ele>932</ele>
        <time>2021-10-17T07:15:37Z</time>
      </trkpt>
      <trkpt lat="46.51512" lon="5.8197">
        <ele>932</ele>
        <time>2021-10-17T07:15:38Z</time>
      </trkpt>
      <trkpt lat="46.5151" lon="5.81966">
        <ele>932.4</ele>
        <time>2021-10-17T07:15:39Z</time>
      </trkpt>
      <trkpt lat="46.51508" lon="5.81961">
        <ele>932.4</ele>
        <time>2021-10-17T07:15:40Z</time>
      </trkpt>
      <trkpt lat="46.51505" lon="5.81957">
        <ele>932.6</ele>
        <time>2021-10-17T07:15:41Z</time>
      </trkpt>
      <trkpt lat="46.51502" lon="5.81953">
        <ele>932.6</ele>
        <time>2021-10-17T07:15:42Z</time>
      </trkpt>
      <trkpt lat="46.515" lon="5.8195">
        <ele>933</ele>
        <time>2021-10-17T07:15:43Z</time>
      </trkpt>
      <trkpt lat="46.51496" lon="5.81947">
        <ele>933</ele>
        <time>2021-10-17T07:15:44Z</time>
      </trkpt>
      <trkpt lat="46.51493" lon="5.81945">
        <ele>933.2</ele>
        <time>2021-10-17T07:15:45Z</time>
      </trkpt>
      <trkpt lat="46.5149" lon="5.81943">
        <ele>933.2</ele>
        <time>2021-10-17T07:15:46Z</time>
      </trkpt>
      <trkpt lat="46.51487" lon="5.81941">
        <ele>933.6</ele>
        <time>2021-10-17T07:15:47Z</time>
      </trkpt>
      <trkpt lat="46.51484" lon="5.81939">
        <ele>933.6</ele>
        <time>2021-10-17T07:15:48Z</time>
      </trkpt>
      <trkpt lat="46.51481" lon="5.81937">
        <ele>934</ele>
        <time>2021-10-17T07:15:49Z</time>
      </trkpt>
      <trkpt lat="46.51477" lon="5.81935">
        <ele>934</ele>
        <time>2021-10-17T07:15:50Z</time>
      </trkpt>
      <trkpt lat="46.51474" lon="5.81934">
        <ele>934.2</ele>
        <time>2021-10-17T07:15:51Z</time>
      </trkpt>
      <trkpt lat="46.51471" lon="5.81933">
        <ele>934.2</ele>
        <time>2021-10-17T07:15:52Z</time>
      </trkpt>
      <trkpt lat="46.51469" lon="5.81932">
        <ele>934.4</ele>
        <time>2021-10-17T07:15:53Z</time>
      </trkpt>
      <trkpt lat="46.51466" lon="5.81931">
        <ele>934.4</ele>
        <time>2021-10-17T07:15:54Z</time>
      </trkpt>
      <trkpt lat="46.51463" lon="5.81929">
        <ele>934.8</ele>
        <time>2021-10-17T07:15:55Z</time>
      </trkpt>
      <trkpt lat="46.5146" lon="5.81928">
        <ele>934.8</ele>
        <time>2021-10-17T07:15:56Z</time>
      </trkpt>
      <trkpt lat="46.51457" lon="5.81926">
        <ele>934.8</ele>
        <time>2021-10-17T07:15:57Z</time>
      </trkpt>
      <trkpt lat="46.51454" lon="5.81925">
        <ele>935.2</ele>
        <time>2021-10-17T07:15:58Z</time>
      </trkpt>
      <trkpt lat="46.51451" lon="5.81924">
        <ele>935.2</ele>
        <time>2021-10-17T07:15:59Z</time>
      </trkpt>
      <trkpt lat="46.51447" lon="5.81923">
        <ele>935.6</ele>
        <time>2021-10-17T07:16:00Z</time>
      </trkpt>
      <trkpt lat="46.51444" lon="5.81922">
        <ele>935.6</ele>
        <time>2021-10-17T07:16:01Z</time>
      </trkpt>
      <trkpt lat="46.51441" lon="5.8192">
        <ele>935.8</ele>
        <time>2021-10-17T07:16:02Z</time>
      </trkpt>
      <trkpt lat="46.51438" lon="5.81918">
        <ele>935.8</ele>
        <time>2021-10-17T07:16:03Z</time>
      </trkpt>
      <trkpt lat="46.51434" lon="5.81916">
        <ele>936</ele>
        <time>2021-10-17T07:16:04Z</time>
      </trkpt>
      <trkpt lat="46.51431" lon="5.81915">
        <ele>936</ele>
        <time>2021-10-17T07:16:05Z</time>
      </trkpt>
      <trkpt lat="46.51427" lon="5.81914">
        <ele>936.4</ele>
        <time>2021-10-17T07:16:06Z</time>
      </trkpt>
      <trkpt lat="46.51424" lon="5.81913">
        <ele>936.4</ele>
        <time>2021-10-17T07:16:07Z</time>
      </trkpt>
      <trkpt lat="46.51421" lon="5.81911">
        <ele>936.6</ele>
        <time>2021-10-17T07:16:08Z</time>
      </trkpt>
      <trkpt lat="46.51417" lon="5.8191">
        <ele>937</ele>
        <time>2021-10-17T07:16:09Z</time>
      </trkpt>
      <trkpt lat="46.51414" lon="5.81909">
        <ele>937</ele>
        <time>2021-10-17T07:16:10Z</time>
      </trkpt>
      <trkpt lat="46.51411" lon="5.81908">
        <ele>937.4</ele>
        <time>2021-10-17T07:16:11Z</time>
      </trkpt>
      <trkpt lat="46.51407" lon="5.81907">
        <ele>937.6</ele>
        <time>2021-10-17T07:16:12Z</time>
      </trkpt>
      <trkpt lat="46.51404" lon="5.81906">
        <ele>937.8</ele>
        <time>2021-10-17T07:16:13Z</time>
      </trkpt>
      <trkpt lat="46.51401" lon="5.81905">
        <ele>937.8</ele>
        <time>2021-10-17T07:16:14Z</time>
      </trkpt>
      <trkpt lat="46.51397" lon="5.81904">
        <ele>938</ele>
        <time>2021-10-17T07:16:15Z</time>
      </trkpt>
      <trkpt lat="46.51393" lon="5.81903">
        <ele>938</ele>
        <time>2021-10-17T07:16:16Z</time>
      </trkpt>
      <trkpt lat="46.5139" lon="5.81903">
        <ele>938.2</ele>
        <time>2021-10-17T07:16:17Z</time>
      </trkpt>
      <trkpt lat="46.51386" lon="5.81902">
        <ele>938.4</ele>
        <time>2021-10-17T07:16:18Z</time>
      </trkpt>
      <trkpt lat="46.51382" lon="5.81902">
        <ele>938.4</ele>
        <time>2021-10-17T07:16:19Z</time>
      </trkpt>
      <trkpt lat="46.51379" lon="5.81901">
        <ele>938.8</ele>
        <time>2021-10-17T07:16:20Z</time>
      </trkpt>
      <trkpt lat="46.51376" lon="5.81902">
        <ele>938.8</ele>
        <time>2021-10-17T07:16:21Z</time>
      </trkpt>
      <trkpt lat="46.51372" lon="5.81902">
        <ele>939</ele>
        <time>2021-10-17T07:16:22Z</time>
      </trkpt>
      <trkpt lat="46.51369" lon="5.81903">
        <ele>939</ele>
        <time>2021-10-17T07:16:23Z</time>
      </trkpt>
      <trkpt lat="46.51366" lon="5.81904">
        <ele>939.2</ele>
        <time>2021-10-17T07:16:24Z</time>
      </trkpt>
      <trkpt lat="46.51363" lon="5.81904">
        <ele>939.2</ele>
        <time>2021-10-17T07:16:25Z</time>
      </trkpt>
      <trkpt lat="46.51359" lon="5.81905">
        <ele>939.6</ele>
        <time>2021-10-17T07:16:26Z</time>
      </trkpt>
      <trkpt lat="46.51356" lon="5.81906">
        <ele>939.6</ele>
        <time>2021-10-17T07:16:27Z</time>
      </trkpt>
      <trkpt lat="46.51352" lon="5.81907">
        <ele>939.8</ele>
        <time>2021-10-17T07:16:28Z</time>
      </trkpt>
      <trkpt lat="46.5135" lon="5.81909">
        <ele>939.8</ele>
        <time>2021-10-17T07:16:29Z</time>
      </trkpt>
      <trkpt lat="46.51347" lon="5.8191">
        <ele>940.2</ele>
        <time>2021-10-17T07:16:30Z</time>
      </trkpt>
      <trkpt lat="46.51344" lon="5.81912">
        <ele>940.2</ele>
        <time>2021-10-17T07:16:31Z</time>
      </trkpt>
      <trkpt lat="46.51341" lon="5.81914">
        <ele>940.4</ele>
        <time>2021-10-17T07:16:32Z</time>
      </trkpt>
      <trkpt lat="46.51337" lon="5.81916">
        <ele>940.4</ele>
        <time>2021-10-17T07:16:33Z</time>
      </trkpt>
      <trkpt lat="46.51335" lon="5.81918">
        <ele>940.6</ele>
        <time>2021-10-17T07:16:34Z</time>
      </trkpt>
      <trkpt lat="46.51332" lon="5.8192">
        <ele>940.6</ele>
        <time>2021-10-17T07:16:35Z</time>
      </trkpt>
      <trkpt lat="46.5133" lon="5.81922">
        <ele>941</ele>
        <time>2021-10-17T07:16:36Z</time>
      </trkpt>
      <trkpt lat="46.51327" lon="5.81924">
        <ele>941.2</ele>
        <time>2021-10-17T07:16:37Z</time>
      </trkpt>
      <trkpt lat="46.51325" lon="5.81926">
        <ele>941.2</ele>
        <time>2021-10-17T07:16:38Z</time>
      </trkpt>
      <trkpt lat="46.51322" lon="5.81929">
        <ele>941.6</ele>
        <time>2021-10-17T07:16:39Z</time>
      </trkpt>
      <trkpt lat="46.5132" lon="5.81931">
        <ele>941.8</ele>
        <time>2021-10-17T07:16:40Z</time>
      </trkpt>
      <trkpt lat="46.51318" lon="5.81934">
        <ele>942.2</ele>
        <time>2021-10-17T07:16:41Z</time>
      </trkpt>
      <trkpt lat="46.51316" lon="5.81936">
        <ele>942.2</ele>
        <time>2021-10-17T07:16:42Z</time>
      </trkpt>
      <trkpt lat="46.51313" lon="5.81939">
        <ele>942.6</ele>
        <time>2021-10-17T07:16:43Z</time>
      </trkpt>
      <trkpt lat="46.51311" lon="5.81941">
        <ele>942.8</ele>
        <time>2021-10-17T07:16:44Z</time>
      </trkpt>
      <trkpt lat="46.51308" lon="5.81944">
        <ele>942.8</ele>
        <time>2021-10-17T07:16:45Z</time>
      </trkpt>
      <trkpt lat="46.51307" lon="5.81947">
        <ele>943.2</ele>
        <time>2021-10-17T07:16:46Z</time>
      </trkpt>
      <trkpt lat="46.51305" lon="5.8195">
        <ele>943.2</ele>
        <time>2021-10-17T07:16:47Z</time>
      </trkpt>
      <trkpt lat="46.51303" lon="5.81953">
        <ele>943.4</ele>
        <time>2021-10-17T07:16:48Z</time>
      </trkpt>
      <trkpt lat="46.51301" lon="5.81956">
        <ele>943.4</ele>
        <time>2021-10-17T07:16:49Z</time>
      </trkpt>
      <trkpt lat="46.51298" lon="5.8196">
        <ele>943.8</ele>
        <time>2021-10-17T07:16:50Z</time>
      </trkpt>
      <trkpt lat="46.51295" lon="5.81963">
        <ele>943.8</ele>
        <time>2021-10-17T07:16:51Z</time>
      </trkpt>
      <trkpt lat="46.51293" lon="5.81967">
        <ele>944</ele>
        <time>2021-10-17T07:16:52Z</time>
      </trkpt>
      <trkpt lat="46.51291" lon="5.81971">
        <ele>944</ele>
        <time>2021-10-17T07:16:53Z</time>
      </trkpt>
      <trkpt lat="46.51288" lon="5.81974">
        <ele>944</ele>
        <time>2021-10-17T07:16:54Z</time>
      </trkpt>
      <trkpt lat="46.51285" lon="5.81978">
        <ele>944.2</ele>
        <time>2021-10-17T07:16:55Z</time>
      </trkpt>
      <trkpt lat="46.51282" lon="5.81982">
        <ele>944.2</ele>
        <time>2021-10-17T07:16:56Z</time>
      </trkpt>
      <trkpt lat="46.51279" lon="5.81987">
        <ele>944.2</ele>
        <time>2021-10-17T07:16:57Z</time>
      </trkpt>
      <trkpt lat="46.51276" lon="5.81991">
        <ele>944.2</ele>
        <time>2021-10-17T07:16:58Z</time>
      </trkpt>
      <trkpt lat="46.51273" lon="5.81994">
        <ele>944.2</ele>
        <time>2021-10-17T07:16:59Z</time>
      </trkpt>
      <trkpt lat="46.51269" lon="5.81999">
        <ele>944</ele>
        <time>2021-10-17T07:17:00Z</time>
      </trkpt>
      <trkpt lat="46.51264" lon="5.82004">
        <ele>944</ele>
        <time>2021-10-17T07:17:01Z</time>
      </trkpt>
      <trkpt lat="46.5126" lon="5.82008">
        <ele>944</ele>
        <time>2021-10-17T07:17:02Z</time>
      </trkpt>
      <trkpt lat="46.51256" lon="5.8201">
        <ele>944</ele>
        <time>2021-10-17T07:17:03Z</time>
      </trkpt>
      <trkpt lat="46.51252" lon="5.82013">
        <ele>943.6</ele>
        <time>2021-10-17T07:17:04Z</time>
      </trkpt>
      <trkpt lat="46.51247" lon="5.82015">
        <ele>943.6</ele>
        <time>2021-10-17T07:17:05Z</time>
      </trkpt>
      <trkpt lat="46.51243" lon="5.82018">
        <ele>943.4</ele>
        <time>2021-10-17T07:17:06Z</time>
      </trkpt>
      <trkpt lat="46.51239" lon="5.82022">
        <ele>943.4</ele>
        <time>2021-10-17T07:17:07Z</time>
      </trkpt>
      <trkpt lat="46.51234" lon="5.82025">
        <ele>943.4</ele>
        <time>2021-10-17T07:17:08Z</time>
      </trkpt>
      <trkpt lat="46.5123" lon="5.8203">
        <ele>943.2</ele>
        <time>2021-10-17T07:17:09Z</time>
      </trkpt>
      <trkpt lat="46.51226" lon="5.82034">
        <ele>943.2</ele>
        <time>2021-10-17T07:17:10Z</time>
      </trkpt>
      <trkpt lat="46.51223" lon="5.82039">
        <ele>943.2</ele>
        <time>2021-10-17T07:17:11Z</time>
      </trkpt>
      <trkpt lat="46.5122" lon="5.82045">
        <ele>943.2</ele>
        <time>2021-10-17T07:17:12Z</time>
      </trkpt>
      <trkpt lat="46.51216" lon="5.82051">
        <ele>943.2</ele>
        <time>2021-10-17T07:17:13Z</time>
      </trkpt>
      <trkpt lat="46.51213" lon="5.82059">
        <ele>943.2</ele>
        <time>2021-10-17T07:17:14Z</time>
      </trkpt>
      <trkpt lat="46.5121" lon="5.82067">
        <ele>943</ele>
        <time>2021-10-17T07:17:15Z</time>
      </trkpt>
      <trkpt lat="46.51208" lon="5.82073">
        <ele>943</ele>
        <time>2021-10-17T07:17:16Z</time>
      </trkpt>
      <trkpt lat="46.51205" lon="5.82078">
        <ele>943</ele>
        <time>2021-10-17T07:17:17Z</time>
      </trkpt>
      <trkpt lat="46.51202" lon="5.82083">
        <ele>943</ele>
        <time>2021-10-17T07:17:18Z</time>
      </trkpt>
      <trkpt lat="46.51198" lon="5.82088">
        <ele>943</ele>
        <time>2021-10-17T07:17:19Z</time>
      </trkpt>
      <trkpt lat="46.51194" lon="5.8209">
        <ele>943</ele>
        <time>2021-10-17T07:17:20Z</time>
      </trkpt>
      <trkpt lat="46.51189" lon="5.82091">
        <ele>942.6</ele>
        <time>2021-10-17T07:17:21Z</time>
      </trkpt>
      <trkpt lat="46.51184" lon="5.82089">
        <ele>942.4</ele>
        <time>2021-10-17T07:17:22Z</time>
      </trkpt>
      <trkpt lat="46.5118" lon="5.82086">
        <ele>942.2</ele>
        <time>2021-10-17T07:17:23Z</time>
      </trkpt>
      <trkpt lat="46.51175" lon="5.82083">
        <ele>942</ele>
        <time>2021-10-17T07:17:24Z</time>
      </trkpt>
      <trkpt lat="46.51171" lon="5.82079">
        <ele>941.8</ele>
        <time>2021-10-17T07:17:25Z</time>
      </trkpt>
      <trkpt lat="46.51167" lon="5.82075">
        <ele>941.6</ele>
        <time>2021-10-17T07:17:26Z</time>
      </trkpt>
      <trkpt lat="46.51162" lon="5.82071">
        <ele>941.2</ele>
        <time>2021-10-17T07:17:27Z</time>
      </trkpt>
      <trkpt lat="46.51158" lon="5.82066">
        <ele>941</ele>
        <time>2021-10-17T07:17:28Z</time>
      </trkpt>
      <trkpt lat="46.51153" lon="5.8206">
        <ele>940.8</ele>
        <time>2021-10-17T07:17:29Z</time>
      </trkpt>
      <trkpt lat="46.51147" lon="5.82055">
        <ele>940.4</ele>
        <time>2021-10-17T07:17:30Z</time>
      </trkpt>
      <trkpt lat="46.51141" lon="5.8205">
        <ele>940.2</ele>
        <time>2021-10-17T07:17:31Z</time>
      </trkpt>
      <trkpt lat="46.51134" lon="5.82047">
        <ele>940</ele>
        <time>2021-10-17T07:17:32Z</time>
      </trkpt>
      <trkpt lat="46.51128" lon="5.82044">
        <ele>939.6</ele>
        <time>2021-10-17T07:17:33Z</time>
      </trkpt>
      <trkpt lat="46.51121" lon="5.82041">
        <ele>939.4</ele>
        <time>2021-10-17T07:17:34Z</time>
      </trkpt>
      <trkpt lat="46.51113" lon="5.82039">
        <ele>939</ele>
        <time>2021-10-17T07:17:35Z</time>
      </trkpt>
      <trkpt lat="46.51106" lon="5.82037">
        <ele>938.8</ele>
        <time>2021-10-17T07:17:36Z</time>
      </trkpt>
      <trkpt lat="46.51099" lon="5.82035">
        <ele>938.8</ele>
        <time>2021-10-17T07:17:37Z</time>
      </trkpt>
      <trkpt lat="46.51091" lon="5.82033">
        <ele>938.4</ele>
        <time>2021-10-17T07:17:38Z</time>
      </trkpt>
      <trkpt lat="46.51084" lon="5.8203">
        <ele>938.2</ele>
        <time>2021-10-17T07:17:39Z</time>
      </trkpt>
      <trkpt lat="46.51076" lon="5.82028">
        <ele>938.2</ele>
        <time>2021-10-17T07:17:40Z</time>
      </trkpt>
      <trkpt lat="46.51069" lon="5.82026">
        <ele>937.8</ele>
        <time>2021-10-17T07:17:41Z</time>
      </trkpt>
      <trkpt lat="46.51061" lon="5.82023">
        <ele>937.8</ele>
        <time>2021-10-17T07:17:42Z</time>
      </trkpt>
      <trkpt lat="46.51055" lon="5.82021">
        <ele>937.4</ele>
        <time>2021-10-17T07:17:43Z</time>
      </trkpt>
      <trkpt lat="46.51048" lon="5.82018">
        <ele>937.2</ele>
        <time>2021-10-17T07:17:44Z</time>
      </trkpt>
      <trkpt lat="46.51041" lon="5.82016">
        <ele>937</ele>
        <time>2021-10-17T07:17:45Z</time>
      </trkpt>
      <trkpt lat="46.51034" lon="5.82014">
        <ele>937</ele>
        <time>2021-10-17T07:17:46Z</time>
      </trkpt>
      <trkpt lat="46.51027" lon="5.82012">
        <ele>936.6</ele>
        <time>2021-10-17T07:17:47Z</time>
      </trkpt>
      <trkpt lat="46.5102" lon="5.8201">
        <ele>936.6</ele>
        <time>2021-10-17T07:17:48Z</time>
      </trkpt>
      <trkpt lat="46.51014" lon="5.82007">
        <ele>936.4</ele>
        <time>2021-10-17T07:17:49Z</time>
      </trkpt>
      <trkpt lat="46.51009" lon="5.82005">
        <ele>936.2</ele>
        <time>2021-10-17T07:17:50Z</time>
      </trkpt>
      <trkpt lat="46.51003" lon="5.82002">
        <ele>936.2</ele>
        <time>2021-10-17T07:17:51Z</time>
      </trkpt>
      <trkpt lat="46.50998" lon="5.81999">
        <ele>935.8</ele>
        <time>2021-10-17T07:17:52Z</time>
      </trkpt>
      <trkpt lat="46.50992" lon="5.81995">
        <ele>935.6</ele>
        <time>2021-10-17T07:17:53Z</time>
      </trkpt>
      <trkpt lat="46.50986" lon="5.81991">
        <ele>935.6</ele>
        <time>2021-10-17T07:17:54Z</time>
      </trkpt>
      <trkpt lat="46.5098" lon="5.81988">
        <ele>935.2</ele>
        <time>2021-10-17T07:17:55Z</time>
      </trkpt>
      <trkpt lat="46.50974" lon="5.81984">
        <ele>935</ele>
        <time>2021-10-17T07:17:56Z</time>
      </trkpt>
      <trkpt lat="46.50968" lon="5.8198">
        <ele>934.8</ele>
        <time>2021-10-17T07:17:57Z</time>
      </trkpt>
      <trkpt lat="46.50962" lon="5.81975">
        <ele>934.8</ele>
        <time>2021-10-17T07:17:58Z</time>
      </trkpt>
      <trkpt lat="46.50955" lon="5.8197">
        <ele>934.4</ele>
        <time>2021-10-17T07:17:59Z</time>
      </trkpt>
      <trkpt lat="46.50949" lon="5.81967">
        <ele>934.4</ele>
        <time>2021-10-17T07:18:00Z</time>
      </trkpt>
      <trkpt lat="46.50942" lon="5.81963">
        <ele>934</ele>
        <time>2021-10-17T07:18:01Z</time>
      </trkpt>
      <trkpt lat="46.50936" lon="5.81959">
        <ele>934</ele>
        <time>2021-10-17T07:18:02Z</time>
      </trkpt>
      <trkpt lat="46.50929" lon="5.81957">
        <ele>933.8</ele>
        <time>2021-10-17T07:18:03Z</time>
      </trkpt>
      <trkpt lat="46.50923" lon="5.81955">
        <ele>933.8</ele>
        <time>2021-10-17T07:18:04Z</time>
      </trkpt>
      <trkpt lat="46.50916" lon="5.81954">
        <ele>933.8</ele>
        <time>2021-10-17T07:18:05Z</time>
      </trkpt>
      <trkpt lat="46.50909" lon="5.81954">
        <ele>933.4</ele>
        <time>2021-10-17T07:18:06Z</time>
      </trkpt>
      <trkpt lat="46.50901" lon="5.81955">
        <ele>933.4</ele>
        <time>2021-10-17T07:18:07Z</time>
      </trkpt>
      <trkpt lat="46.50893" lon="5.81955">
        <ele>933.4</ele>
        <time>2021-10-17T07:18:08Z</time>
      </trkpt>
      <trkpt lat="46.50887" lon="5.81955">
        <ele>933.2</ele>
        <time>2021-10-17T07:18:09Z</time>
      </trkpt>
      <trkpt lat="46.5088" lon="5.81955">
        <ele>933.2</ele>
        <time>2021-10-17T07:18:10Z</time>
      </trkpt>
      <trkpt lat="46.50872" lon="5.81956">
        <ele>932.8</ele>
        <time>2021-10-17T07:18:11Z</time>
      </trkpt>
      <trkpt lat="46.50864" lon="5.81956">
        <ele>932.8</ele>
        <time>2021-10-17T07:18:12Z</time>
      </trkpt>
      <trkpt lat="46.50856" lon="5.81956">
        <ele>932.8</ele>
        <time>2021-10-17T07:18:13Z</time>
      </trkpt>
      <trkpt lat="46.50849" lon="5.81956">
        <ele>932.6</ele>
        <time>2021-10-17T07:18:14Z</time>
      </trkpt>
      <trkpt lat="46.50842" lon="5.81956">
        <ele>932.6</ele>
        <time>2021-10-17T07:18:15Z</time>
      </trkpt>
      <trkpt lat="46.50835" lon="5.81956">
        <ele>932.6</ele>
        <time>2021-10-17T07:18:16Z</time>
      </trkpt>
      <trkpt lat="46.50829" lon="5.81958">
        <ele>932.6</ele>
        <time>2021-10-17T07:18:17Z</time>
      </trkpt>
      <trkpt lat="46.50822" lon="5.8196">
        <ele>932.6</ele>
        <time>2021-10-17T07:18:18Z</time>
      </trkpt>
      <trkpt lat="46.50816" lon="5.81963">
        <ele>932.4</ele>
        <time>2021-10-17T07:18:19Z</time>
      </trkpt>
      <trkpt lat="46.50809" lon="5.81965">
        <ele>932.4</ele>
        <time>2021-10-17T07:18:20Z</time>
      </trkpt>
      <trkpt lat="46.50803" lon="5.81968">
        <ele>932.2</ele>
        <time>2021-10-17T07:18:21Z</time>
      </trkpt>
      <trkpt lat="46.50797" lon="5.81971">
        <ele>932.2</ele>
        <time>2021-10-17T07:18:22Z</time>
      </trkpt>
      <trkpt lat="46.50791" lon="5.81974">
        <ele>932.2</ele>
        <time>2021-10-17T07:18:23Z</time>
      </trkpt>
      <trkpt lat="46.50784" lon="5.81976">
        <ele>932.2</ele>
        <time>2021-10-17T07:18:24Z</time>
      </trkpt>
      <trkpt lat="46.50778" lon="5.81978">
        <ele>932.2</ele>
        <time>2021-10-17T07:18:25Z</time>
      </trkpt>
      <trkpt lat="46.50772" lon="5.8198">
        <ele>932.2</ele>
        <time>2021-10-17T07:18:26Z</time>
      </trkpt>
      <trkpt lat="46.50765" lon="5.81981">
        <ele>932</ele>
        <time>2021-10-17T07:18:27Z</time>
      </trkpt>
      <trkpt lat="46.50759" lon="5.8198">
        <ele>932</ele>
        <time>2021-10-17T07:18:28Z</time>
      </trkpt>
      <trkpt lat="46.50753" lon="5.81979">
        <ele>931.8</ele>
        <time>2021-10-17T07:18:29Z</time>
      </trkpt>
      <trkpt lat="46.50747" lon="5.81976">
        <ele>931.8</ele>
        <time>2021-10-17T07:18:30Z</time>
      </trkpt>
      <trkpt lat="46.50742" lon="5.81972">
        <ele>931.8</ele>
        <time>2021-10-17T07:18:31Z</time>
      </trkpt>
      <trkpt lat="46.50737" lon="5.81967">
        <ele>931.8</ele>
        <time>2021-10-17T07:18:32Z</time>
      </trkpt>
      <trkpt lat="46.50733" lon="5.81963">
        <ele>931.8</ele>
        <time>2021-10-17T07:18:33Z</time>
      </trkpt>
      <trkpt lat="46.50729" lon="5.81958">
        <ele>931.4</ele>
        <time>2021-10-17T07:18:34Z</time>
      </trkpt>
      <trkpt lat="46.50724" lon="5.81954">
        <ele>931.4</ele>
        <time>2021-10-17T07:18:35Z</time>
      </trkpt>
      <trkpt lat="46.50718" lon="5.8195">
        <ele>931.4</ele>
        <time>2021-10-17T07:18:36Z</time>
      </trkpt>
      <trkpt lat="46.50713" lon="5.81949">
        <ele>931.2</ele>
        <time>2021-10-17T07:18:37Z</time>
      </trkpt>
      <trkpt lat="46.50707" lon="5.81949">
        <ele>931.2</ele>
        <time>2021-10-17T07:18:38Z</time>
      </trkpt>
      <trkpt lat="46.50701" lon="5.81951">
        <ele>931.2</ele>
        <time>2021-10-17T07:18:39Z</time>
      </trkpt>
      <trkpt lat="46.50696" lon="5.81955">
        <ele>931.2</ele>
        <time>2021-10-17T07:18:40Z</time>
      </trkpt>
      <trkpt lat="46.50691" lon="5.81959">
        <ele>931.6</ele>
        <time>2021-10-17T07:18:41Z</time>
      </trkpt>
      <trkpt lat="46.50686" lon="5.81962">
        <ele>931.6</ele>
        <time>2021-10-17T07:18:42Z</time>
      </trkpt>
      <trkpt lat="46.50681" lon="5.81966">
        <ele>931.6</ele>
        <time>2021-10-17T07:18:43Z</time>
      </trkpt>
      <trkpt lat="46.50676" lon="5.8197">
        <ele>931.8</ele>
        <time>2021-10-17T07:18:44Z</time>
      </trkpt>
      <trkpt lat="46.50672" lon="5.81974">
        <ele>931.8</ele>
        <time>2021-10-17T07:18:45Z</time>
      </trkpt>
      <trkpt lat="46.50668" lon="5.81977">
        <ele>931.8</ele>
        <time>2021-10-17T07:18:46Z</time>
      </trkpt>
      <trkpt lat="46.50663" lon="5.81981">
        <ele>932</ele>
        <time>2021-10-17T07:18:47Z</time>
      </trkpt>
      <trkpt lat="46.50659" lon="5.81985">
        <ele>932</ele>
        <time>2021-10-17T07:18:48Z</time>
      </trkpt>
      <trkpt lat="46.50655" lon="5.81989">
        <ele>932</ele>
        <time>2021-10-17T07:18:49Z</time>
      </trkpt>
      <trkpt lat="46.5065" lon="5.81994">
        <ele>932</ele>
        <time>2021-10-17T07:18:50Z</time>
      </trkpt>
      <trkpt lat="46.50645" lon="5.81998">
        <ele>932.2</ele>
        <time>2021-10-17T07:18:51Z</time>
      </trkpt>
      <trkpt lat="46.5064" lon="5.82002">
        <ele>932.2</ele>
        <time>2021-10-17T07:18:52Z</time>
      </trkpt>
      <trkpt lat="46.50635" lon="5.82006">
        <ele>932.2</ele>
        <time>2021-10-17T07:18:53Z</time>
      </trkpt>
      <trkpt lat="46.50631" lon="5.82009">
        <ele>932.2</ele>
        <time>2021-10-17T07:18:54Z</time>
      </trkpt>
      <trkpt lat="46.50626" lon="5.82013">
        <ele>932.6</ele>
        <time>2021-10-17T07:18:55Z</time>
      </trkpt>
      <trkpt lat="46.50622" lon="5.82016">
        <ele>932.6</ele>
        <time>2021-10-17T07:18:56Z</time>
      </trkpt>
      <trkpt lat="46.50617" lon="5.82018">
        <ele>932.8</ele>
        <time>2021-10-17T07:18:57Z</time>
      </trkpt>
      <trkpt lat="46.50612" lon="5.82021">
        <ele>932.8</ele>
        <time>2021-10-17T07:18:58Z</time>
      </trkpt>
      <trkpt lat="46.50608" lon="5.82024">
        <ele>933</ele>
        <time>2021-10-17T07:18:59Z</time>
      </trkpt>
      <trkpt lat="46.50604" lon="5.82027">
        <ele>933</ele>
        <time>2021-10-17T07:19:00Z</time>
      </trkpt>
      <trkpt lat="46.506" lon="5.8203">
        <ele>933</ele>
        <time>2021-10-17T07:19:01Z</time>
      </trkpt>
      <trkpt lat="46.50596" lon="5.82032">
        <ele>933.2</ele>
        <time>2021-10-17T07:19:02Z</time>
      </trkpt>
      <trkpt lat="46.50593" lon="5.82034">
        <ele>933.2</ele>
        <time>2021-10-17T07:19:03Z</time>
      </trkpt>
      <trkpt lat="46.50589" lon="5.82035">
        <ele>933.4</ele>
        <time>2021-10-17T07:19:04Z</time>
      </trkpt>
      <trkpt lat="46.50586" lon="5.82036">
        <ele>933.4</ele>
        <time>2021-10-17T07:19:05Z</time>
      </trkpt>
      <trkpt lat="46.50581" lon="5.82037">
        <ele>933.8</ele>
        <time>2021-10-17T07:19:06Z</time>
      </trkpt>
      <trkpt lat="46.50577" lon="5.82038">
        <ele>933.8</ele>
        <time>2021-10-17T07:19:07Z</time>
      </trkpt>
      <trkpt lat="46.50572" lon="5.82038">
        <ele>934.2</ele>
        <time>2021-10-17T07:19:08Z</time>
      </trkpt>
      <trkpt lat="46.50568" lon="5.82038">
        <ele>934.2</ele>
        <time>2021-10-17T07:19:09Z</time>
      </trkpt>
      <trkpt lat="46.50564" lon="5.82038">
        <ele>934.4</ele>
        <time>2021-10-17T07:19:10Z</time>
      </trkpt>
      <trkpt lat="46.50558" lon="5.82036">
        <ele>934.4</ele>
        <time>2021-10-17T07:19:11Z</time>
      </trkpt>
      <trkpt lat="46.50553" lon="5.82034">
        <ele>934.8</ele>
        <time>2021-10-17T07:19:12Z</time>
      </trkpt>
      <trkpt lat="46.50549" lon="5.82031">
        <ele>934.8</ele>
        <time>2021-10-17T07:19:13Z</time>
      </trkpt>
      <trkpt lat="46.50545" lon="5.82028">
        <ele>934.8</ele>
        <time>2021-10-17T07:19:14Z</time>
      </trkpt>
      <trkpt lat="46.50541" lon="5.82025">
        <ele>935</ele>
        <time>2021-10-17T07:19:15Z</time>
      </trkpt>
      <trkpt lat="46.50537" lon="5.82022">
        <ele>935</ele>
        <time>2021-10-17T07:19:16Z</time>
      </trkpt>
      <trkpt lat="46.50533" lon="5.82019">
        <ele>935.2</ele>
        <time>2021-10-17T07:19:17Z</time>
      </trkpt>
      <trkpt lat="46.50529" lon="5.82016">
        <ele>935.2</ele>
        <time>2021-10-17T07:19:18Z</time>
      </trkpt>
      <trkpt lat="46.50525" lon="5.82012">
        <ele>935.2</ele>
        <time>2021-10-17T07:19:19Z</time>
      </trkpt>
      <trkpt lat="46.5052" lon="5.82009">
        <ele>935.2</ele>
        <time>2021-10-17T07:19:20Z</time>
      </trkpt>
      <trkpt lat="46.50516" lon="5.82005">
        <ele>935.2</ele>
        <time>2021-10-17T07:19:21Z</time>
      </trkpt>
      <trkpt lat="46.50512" lon="5.82002">
        <ele>935.2</ele>
        <time>2021-10-17T07:19:22Z</time>
      </trkpt>
      <trkpt lat="46.50507" lon="5.81999">
        <ele>935.2</ele>
        <time>2021-10-17T07:19:23Z</time>
      </trkpt>
      <trkpt lat="46.50502" lon="5.81996">
        <ele>935.4</ele>
        <time>2021-10-17T07:19:24Z</time>
      </trkpt>
      <trkpt lat="46.50497" lon="5.81992">
        <ele>935.4</ele>
        <time>2021-10-17T07:19:25Z</time>
      </trkpt>
      <trkpt lat="46.50492" lon="5.81988">
        <ele>935.4</ele>
        <time>2021-10-17T07:19:26Z</time>
      </trkpt>
      <trkpt lat="46.50486" lon="5.81985">
        <ele>935.4</ele>
        <time>2021-10-17T07:19:27Z</time>
      </trkpt>
      <trkpt lat="46.50481" lon="5.81982">
        <ele>935.4</ele>
        <time>2021-10-17T07:19:28Z</time>
      </trkpt>
      <trkpt lat="46.50476" lon="5.81979">
        <ele>935.4</ele>
        <time>2021-10-17T07:19:29Z</time>
      </trkpt>
      <trkpt lat="46.50471" lon="5.81974">
        <ele>935.4</ele>
        <time>2021-10-17T07:19:30Z</time>
      </trkpt>
      <trkpt lat="46.50468" lon="5.81968">
        <ele>935.4</ele>
        <time>2021-10-17T07:19:31Z</time>
      </trkpt>
      <trkpt lat="46.50464" lon="5.81961">
        <ele>935.4</ele>
        <time>2021-10-17T07:19:32Z</time>
      </trkpt>
      <trkpt lat="46.50461" lon="5.81954">
        <ele>935.4</ele>
        <time>2021-10-17T07:19:33Z</time>
      </trkpt>
      <trkpt lat="46.50457" lon="5.81947">
        <ele>935.4</ele>
        <time>2021-10-17T07:19:34Z</time>
      </trkpt>
      <trkpt lat="46.50454" lon="5.81941">
        <ele>935.4</ele>
        <time>2021-10-17T07:19:35Z</time>
      </trkpt>
      <trkpt lat="46.5045" lon="5.81934">
        <ele>935.4</ele>
        <time>2021-10-17T07:19:36Z</time>
      </trkpt>
      <trkpt lat="46.50447" lon="5.81927">
        <ele>935.4</ele>
        <time>2021-10-17T07:19:37Z</time>
      </trkpt>
      <trkpt lat="46.50443" lon="5.81921">
        <ele>935.4</ele>
        <time>2021-10-17T07:19:38Z</time>
      </trkpt>
      <trkpt lat="46.50439" lon="5.81915">
        <ele>935.2</ele>
        <time>2021-10-17T07:19:39Z</time>
      </trkpt>
      <trkpt lat="46.50435" lon="5.8191">
        <ele>935.2</ele>
        <time>2021-10-17T07:19:40Z</time>
      </trkpt>
      <trkpt lat="46.5043" lon="5.81906">
        <ele>935.2</ele>
        <time>2021-10-17T07:19:41Z</time>
      </trkpt>
      <trkpt lat="46.50426" lon="5.81902">
        <ele>935.2</ele>
        <time>2021-10-17T07:19:42Z</time>
      </trkpt>
      <trkpt lat="46.50421" lon="5.81898">
        <ele>935.4</ele>
        <time>2021-10-17T07:19:43Z</time>
      </trkpt>
      <trkpt lat="46.50417" lon="5.81895">
        <ele>935.4</ele>
        <time>2021-10-17T07:19:44Z</time>
      </trkpt>
      <trkpt lat="46.50413" lon="5.81891">
        <ele>935.4</ele>
        <time>2021-10-17T07:19:45Z</time>
      </trkpt>
      <trkpt lat="46.50408" lon="5.81887">
        <ele>935.4</ele>
        <time>2021-10-17T07:19:46Z</time>
      </trkpt>
      <trkpt lat="46.50403" lon="5.81883">
        <ele>935.2</ele>
        <time>2021-10-17T07:19:47Z</time>
      </trkpt>
      <trkpt lat="46.50398" lon="5.81879">
        <ele>935.2</ele>
        <time>2021-10-17T07:19:48Z</time>
      </trkpt>
      <trkpt lat="46.50393" lon="5.81874">
        <ele>935.2</ele>
        <time>2021-10-17T07:19:49Z</time>
      </trkpt>
      <trkpt lat="46.50388" lon="5.8187">
        <ele>935.2</ele>
        <time>2021-10-17T07:19:50Z</time>
      </trkpt>
      <trkpt lat="46.50383" lon="5.81867">
        <ele>935.2</ele>
        <time>2021-10-17T07:19:51Z</time>
      </trkpt>
      <trkpt lat="46.50377" lon="5.81865">
        <ele>935.2</ele>
        <time>2021-10-17T07:19:52Z</time>
      </trkpt>
      <trkpt lat="46.50372" lon="5.81862">
        <ele>935.2</ele>
        <time>2021-10-17T07:19:53Z</time>
      </trkpt>
      <trkpt lat="46.50367" lon="5.8186">
        <ele>935.4</ele>
        <time>2021-10-17T07:19:54Z</time>
      </trkpt>
      <trkpt lat="46.50362" lon="5.8186">
        <ele>935.4</ele>
        <time>2021-10-17T07:19:55Z</time>
      </trkpt>
      <trkpt lat="46.50356" lon="5.8186">
        <ele>935.4</ele>
        <time>2021-10-17T07:19:56Z</time>
      </trkpt>
      <trkpt lat="46.50351" lon="5.81861">
        <ele>935.4</ele>
        <time>2021-10-17T07:19:57Z</time>
      </trkpt>
      <trkpt lat="46.50345" lon="5.81863">
        <ele>935.4</ele>
        <time>2021-10-17T07:19:58Z</time>
      </trkpt>
      <trkpt lat="46.5034" lon="5.81866">
        <ele>935.4</ele>
        <time>2021-10-17T07:19:59Z</time>
      </trkpt>
      <trkpt lat="46.50334" lon="5.8187">
        <ele>935.4</ele>
        <time>2021-10-17T07:20:00Z</time>
      </trkpt>
      <trkpt lat="46.50329" lon="5.81873">
        <ele>935.4</ele>
        <time>2021-10-17T07:20:01Z</time>
      </trkpt>
      <trkpt lat="46.50323" lon="5.81875">
        <ele>935.4</ele>
        <time>2021-10-17T07:20:02Z</time>
      </trkpt>
      <trkpt lat="46.50317" lon="5.81878">
        <ele>935.4</ele>
        <time>2021-10-17T07:20:03Z</time>
      </trkpt>
      <trkpt lat="46.50312" lon="5.81881">
        <ele>935.2</ele>
        <time>2021-10-17T07:20:04Z</time>
      </trkpt>
      <trkpt lat="46.50306" lon="5.81884">
        <ele>935.2</ele>
        <time>2021-10-17T07:20:05Z</time>
      </trkpt>
      <trkpt lat="46.50301" lon="5.81887">
        <ele>934.8</ele>
        <time>2021-10-17T07:20:06Z</time>
      </trkpt>
      <trkpt lat="46.50296" lon="5.81891">
        <ele>934.8</ele>
        <time>2021-10-17T07:20:07Z</time>
      </trkpt>
      <trkpt lat="46.50291" lon="5.81893">
        <ele>934.8</ele>
        <time>2021-10-17T07:20:08Z</time>
      </trkpt>
      <trkpt lat="46.50286" lon="5.81897">
        <ele>934.6</ele>
        <time>2021-10-17T07:20:09Z</time>
      </trkpt>
      <trkpt lat="46.50282" lon="5.81901">
        <ele>934.6</ele>
        <time>2021-10-17T07:20:10Z</time>
      </trkpt>
      <trkpt lat="46.50277" lon="5.81905">
        <ele>934.6</ele>
        <time>2021-10-17T07:20:11Z</time>
      </trkpt>
      <trkpt lat="46.50272" lon="5.81911">
        <ele>934.6</ele>
        <time>2021-10-17T07:20:12Z</time>
      </trkpt>
      <trkpt lat="46.50267" lon="5.81919">
        <ele>934.4</ele>
        <time>2021-10-17T07:20:13Z</time>
      </trkpt>
      <trkpt lat="46.50263" lon="5.81926">
        <ele>934.4</ele>
        <time>2021-10-17T07:20:14Z</time>
      </trkpt>
      <trkpt lat="46.50259" lon="5.81935">
        <ele>934.4</ele>
        <time>2021-10-17T07:20:15Z</time>
      </trkpt>
      <trkpt lat="46.50255" lon="5.81942">
        <ele>934.4</ele>
        <time>2021-10-17T07:20:16Z</time>
      </trkpt>
      <trkpt lat="46.50251" lon="5.81949">
        <ele>934.4</ele>
        <time>2021-10-17T07:20:17Z</time>
      </trkpt>
      <trkpt lat="46.50246" lon="5.81955">
        <ele>934.4</ele>
        <time>2021-10-17T07:20:18Z</time>
      </trkpt>
      <trkpt lat="46.50241" lon="5.8196">
        <ele>934.4</ele>
        <time>2021-10-17T07:20:19Z</time>
      </trkpt>
      <trkpt lat="46.50235" lon="5.81965">
        <ele>934.4</ele>
        <time>2021-10-17T07:20:20Z</time>
      </trkpt>
      <trkpt lat="46.50229" lon="5.8197">
        <ele>934.4</ele>
        <time>2021-10-17T07:20:21Z</time>
      </trkpt>
      <trkpt lat="46.50222" lon="5.81974">
        <ele>934.4</ele>
        <time>2021-10-17T07:20:22Z</time>
      </trkpt>
      <trkpt lat="46.50216" lon="5.81977">
        <ele>934.4</ele>
        <time>2021-10-17T07:20:23Z</time>
      </trkpt>
      <trkpt lat="46.50209" lon="5.8198">
        <ele>934.4</ele>
        <time>2021-10-17T07:20:24Z</time>
      </trkpt>
      <trkpt lat="46.50203" lon="5.81982">
        <ele>934.4</ele>
        <time>2021-10-17T07:20:25Z</time>
      </trkpt>
      <trkpt lat="46.50197" lon="5.81983">
        <ele>934.4</ele>
        <time>2021-10-17T07:20:26Z</time>
      </trkpt>
      <trkpt lat="46.5019" lon="5.81985">
        <ele>934.4</ele>
        <time>2021-10-17T07:20:27Z</time>
      </trkpt>
      <trkpt lat="46.50184" lon="5.81986">
        <ele>934.4</ele>
        <time>2021-10-17T07:20:28Z</time>
      </trkpt>
      <trkpt lat="46.50178" lon="5.81988">
        <ele>934.6</ele>
        <time>2021-10-17T07:20:29Z</time>
      </trkpt>
      <trkpt lat="46.50172" lon="5.81989">
        <ele>934.6</ele>
        <time>2021-10-17T07:20:30Z</time>
      </trkpt>
      <trkpt lat="46.50167" lon="5.8199">
        <ele>935</ele>
        <time>2021-10-17T07:20:31Z</time>
      </trkpt>
      <trkpt lat="46.50161" lon="5.81992">
        <ele>935</ele>
        <time>2021-10-17T07:20:32Z</time>
      </trkpt>
      <trkpt lat="46.50156" lon="5.81993">
        <ele>935</ele>
        <time>2021-10-17T07:20:33Z</time>
      </trkpt>
      <trkpt lat="46.50149" lon="5.81996">
        <ele>935.2</ele>
        <time>2021-10-17T07:20:34Z</time>
      </trkpt>
      <trkpt lat="46.50143" lon="5.81999">
        <ele>935.2</ele>
        <time>2021-10-17T07:20:35Z</time>
      </trkpt>
      <trkpt lat="46.50136" lon="5.82001">
        <ele>935.6</ele>
        <time>2021-10-17T07:20:36Z</time>
      </trkpt>
      <trkpt lat="46.50131" lon="5.82002">
        <ele>935.6</ele>
        <time>2021-10-17T07:20:37Z</time>
      </trkpt>
      <trkpt lat="46.50125" lon="5.82002">
        <ele>935.8</ele>
        <time>2021-10-17T07:20:38Z</time>
      </trkpt>
      <trkpt lat="46.50119" lon="5.82003">
        <ele>935.8</ele>
        <time>2021-10-17T07:20:39Z</time>
      </trkpt>
      <trkpt lat="46.50114" lon="5.82005">
        <ele>935.8</ele>
        <time>2021-10-17T07:20:40Z</time>
      </trkpt>
      <trkpt lat="46.50108" lon="5.82006">
        <ele>936</ele>
        <time>2021-10-17T07:20:41Z</time>
      </trkpt>
      <trkpt lat="46.50102" lon="5.82007">
        <ele>936</ele>
        <time>2021-10-17T07:20:42Z</time>
      </trkpt>
      <trkpt lat="46.50097" lon="5.82008">
        <ele>936.4</ele>
        <time>2021-10-17T07:20:43Z</time>
      </trkpt>
      <trkpt lat="46.50091" lon="5.82009">
        <ele>936.6</ele>
        <time>2021-10-17T07:20:44Z</time>
      </trkpt>
      <trkpt lat="46.50086" lon="5.8201">
        <ele>936.6</ele>
        <time>2021-10-17T07:20:45Z</time>
      </trkpt>
      <trkpt lat="46.50081" lon="5.82011">
        <ele>936.8</ele>
        <time>2021-10-17T07:20:46Z</time>
      </trkpt>
      <trkpt lat="46.50076" lon="5.82012">
        <ele>936.8</ele>
        <time>2021-10-17T07:20:47Z</time>
      </trkpt>
      <trkpt lat="46.50071" lon="5.82012">
        <ele>937.2</ele>
        <time>2021-10-17T07:20:48Z</time>
      </trkpt>
      <trkpt lat="46.50065" lon="5.82014">
        <ele>937.2</ele>
        <time>2021-10-17T07:20:49Z</time>
      </trkpt>
      <trkpt lat="46.5006" lon="5.82015">
        <ele>937.4</ele>
        <time>2021-10-17T07:20:50Z</time>
      </trkpt>
      <trkpt lat="46.50056" lon="5.82015">
        <ele>937.4</ele>
        <time>2021-10-17T07:20:51Z</time>
      </trkpt>
      <trkpt lat="46.50051" lon="5.82016">
        <ele>937.6</ele>
        <time>2021-10-17T07:20:52Z</time>
      </trkpt>
      <trkpt lat="46.50046" lon="5.82018">
        <ele>937.6</ele>
        <time>2021-10-17T07:20:53Z</time>
      </trkpt>
      <trkpt lat="46.50041" lon="5.82019">
        <ele>937.6</ele>
        <time>2021-10-17T07:20:54Z</time>
      </trkpt>
      <trkpt lat="46.50036" lon="5.82021">
        <ele>937.8</ele>
        <time>2021-10-17T07:20:55Z</time>
      </trkpt>
      <trkpt lat="46.50031" lon="5.82024">
        <ele>937.8</ele>
        <time>2021-10-17T07:20:56Z</time>
      </trkpt>
      <trkpt lat="46.50026" lon="5.82027">
        <ele>937.8</ele>
        <time>2021-10-17T07:20:57Z</time>
      </trkpt>
      <trkpt lat="46.50022" lon="5.82031">
        <ele>938.2</ele>
        <time>2021-10-17T07:20:58Z</time>
      </trkpt>
      <trkpt lat="46.50018" lon="5.82035">
        <ele>938.2</ele>
        <time>2021-10-17T07:20:59Z</time>
      </trkpt>
      <trkpt lat="46.50014" lon="5.8204">
        <ele>938.4</ele>
        <time>2021-10-17T07:21:00Z</time>
      </trkpt>
      <trkpt lat="46.5001" lon="5.82044">
        <ele>938.4</ele>
        <time>2021-10-17T07:21:01Z</time>
      </trkpt>
      <trkpt lat="46.50006" lon="5.82049">
        <ele>938.4</ele>
        <time>2021-10-17T07:21:02Z</time>
      </trkpt>
      <trkpt lat="46.50002" lon="5.82054">
        <ele>938.4</ele>
        <time>2021-10-17T07:21:03Z</time>
      </trkpt>
      <trkpt lat="46.49999" lon="5.82059">
        <ele>938.4</ele>
        <time>2021-10-17T07:21:04Z</time>
      </trkpt>
      <trkpt lat="46.49995" lon="5.82064">
        <ele>938.8</ele>
        <time>2021-10-17T07:21:05Z</time>
      </trkpt>
      <trkpt lat="46.49995" lon="5.82064">
        <ele>938.8</ele>
        <time>2021-10-17T07:21:06Z</time>
      </trkpt>
      <trkpt lat="46.4999" lon="5.82069">
        <ele>938.8</ele>
        <time>2021-10-17T07:21:07Z</time>
      </trkpt>
      <trkpt lat="46.49985" lon="5.82075">
        <ele>939</ele>
        <time>2021-10-17T07:21:08Z</time>
      </trkpt>
      <trkpt lat="46.4998" lon="5.8208">
        <ele>939</ele>
        <time>2021-10-17T07:21:09Z</time>
      </trkpt>
      <trkpt lat="46.49975" lon="5.82084">
        <ele>939</ele>
        <time>2021-10-17T07:21:10Z</time>
      </trkpt>
      <trkpt lat="46.49971" lon="5.82088">
        <ele>939.4</ele>
        <time>2021-10-17T07:21:11Z</time>
      </trkpt>
      <trkpt lat="46.49965" lon="5.82091">
        <ele>939.4</ele>
        <time>2021-10-17T07:21:12Z</time>
      </trkpt>
      <trkpt lat="46.49961" lon="5.82094">
        <ele>939.6</ele>
        <time>2021-10-17T07:21:13Z</time>
      </trkpt>
      <trkpt lat="46.49956" lon="5.82097">
        <ele>939.6</ele>
        <time>2021-10-17T07:21:14Z</time>
      </trkpt>
      <trkpt lat="46.49951" lon="5.82099">
        <ele>939.6</ele>
        <time>2021-10-17T07:21:15Z</time>
      </trkpt>
      <trkpt lat="46.49946" lon="5.82102">
        <ele>939.6</ele>
        <time>2021-10-17T07:21:16Z</time>
      </trkpt>
      <trkpt lat="46.49942" lon="5.82105">
        <ele>939.8</ele>
        <time>2021-10-17T07:21:17Z</time>
      </trkpt>
      <trkpt lat="46.49937" lon="5.82108">
        <ele>939.8</ele>
        <time>2021-10-17T07:21:18Z</time>
      </trkpt>
      <trkpt lat="46.49933" lon="5.82111">
        <ele>939.8</ele>
        <time>2021-10-17T07:21:19Z</time>
      </trkpt>
      <trkpt lat="46.49928" lon="5.82114">
        <ele>940.2</ele>
        <time>2021-10-17T07:21:20Z</time>
      </trkpt>
      <trkpt lat="46.49924" lon="5.82117">
        <ele>940.2</ele>
        <time>2021-10-17T07:21:21Z</time>
      </trkpt>
      <trkpt lat="46.49919" lon="5.8212">
        <ele>940.4</ele>
        <time>2021-10-17T07:21:22Z</time>
      </trkpt>
      <trkpt lat="46.49915" lon="5.82123">
        <ele>940.4</ele>
        <time>2021-10-17T07:21:23Z</time>
      </trkpt>
      <trkpt lat="46.49911" lon="5.82126">
        <ele>940.4</ele>
        <time>2021-10-17T07:21:24Z</time>
      </trkpt>
      <trkpt lat="46.49907" lon="5.82128">
        <ele>940.8</ele>
        <time>2021-10-17T07:21:25Z</time>
      </trkpt>
      <trkpt lat="46.49902" lon="5.8213">
        <ele>940.8</ele>
        <time>2021-10-17T07:21:26Z</time>
      </trkpt>
      <trkpt lat="46.49899" lon="5.82133">
        <ele>940.8</ele>
        <time>2021-10-17T07:21:27Z</time>
      </trkpt>
      <trkpt lat="46.49895" lon="5.82135">
        <ele>941</ele>
        <time>2021-10-17T07:21:28Z</time>
      </trkpt>
      <trkpt lat="46.49892" lon="5.82137">
        <ele>941</ele>
        <time>2021-10-17T07:21:29Z</time>
      </trkpt>
      <trkpt lat="46.49888" lon="5.82139">
        <ele>941.2</ele>
        <time>2021-10-17T07:21:30Z</time>
      </trkpt>
      <trkpt lat="46.49885" lon="5.82141">
        <ele>941.2</ele>
        <time>2021-10-17T07:21:31Z</time>
      </trkpt>
      <trkpt lat="46.49881" lon="5.82144">
        <ele>941.2</ele>
        <time>2021-10-17T07:21:32Z</time>
      </trkpt>
      <trkpt lat="46.49878" lon="5.82147">
        <ele>941.6</ele>
        <time>2021-10-17T07:21:33Z</time>
      </trkpt>
      <trkpt lat="46.49876" lon="5.8215">
        <ele>941.6</ele>
        <time>2021-10-17T07:21:34Z</time>
      </trkpt>
      <trkpt lat="46.49873" lon="5.82153">
        <ele>941.6</ele>
        <time>2021-10-17T07:21:35Z</time>
      </trkpt>
      <trkpt lat="46.4987" lon="5.82156">
        <ele>941.6</ele>
        <time>2021-10-17T07:21:36Z</time>
      </trkpt>
      <trkpt lat="46.49868" lon="5.82159">
        <ele>941.6</ele>
        <time>2021-10-17T07:21:37Z</time>
      </trkpt>
      <trkpt lat="46.49865" lon="5.82163">
        <ele>941.6</ele>
        <time>2021-10-17T07:21:38Z</time>
      </trkpt>
      <trkpt lat="46.49862" lon="5.82169">
        <ele>941.6</ele>
        <time>2021-10-17T07:21:39Z</time>
      </trkpt>
      <trkpt lat="46.49861" lon="5.82177">
        <ele>941.6</ele>
        <time>2021-10-17T07:21:40Z</time>
      </trkpt>
      <trkpt lat="46.49859" lon="5.82186">
        <ele>941.6</ele>
        <time>2021-10-17T07:21:41Z</time>
      </trkpt>
      <trkpt lat="46.49857" lon="5.82194">
        <ele>941.4</ele>
        <time>2021-10-17T07:21:42Z</time>
      </trkpt>
      <trkpt lat="46.49856" lon="5.82204">
        <ele>941.4</ele>
        <time>2021-10-17T07:21:43Z</time>
      </trkpt>
      <trkpt lat="46.49855" lon="5.82214">
        <ele>941.4</ele>
        <time>2021-10-17T07:21:44Z</time>
      </trkpt>
      <trkpt lat="46.49855" lon="5.82224">
        <ele>941</ele>
        <time>2021-10-17T07:21:45Z</time>
      </trkpt>
      <trkpt lat="46.49854" lon="5.82235">
        <ele>941</ele>
        <time>2021-10-17T07:21:46Z</time>
      </trkpt>
      <trkpt lat="46.49853" lon="5.82245">
        <ele>940.8</ele>
        <time>2021-10-17T07:21:47Z</time>
      </trkpt>
      <trkpt lat="46.49852" lon="5.82255">
        <ele>940.8</ele>
        <time>2021-10-17T07:21:48Z</time>
      </trkpt>
      <trkpt lat="46.49851" lon="5.82265">
        <ele>940.8</ele>
        <time>2021-10-17T07:21:49Z</time>
      </trkpt>
      <trkpt lat="46.4985" lon="5.82275">
        <ele>940.4</ele>
        <time>2021-10-17T07:21:50Z</time>
      </trkpt>
      <trkpt lat="46.49847" lon="5.82284">
        <ele>940.4</ele>
        <time>2021-10-17T07:21:51Z</time>
      </trkpt>
      <trkpt lat="46.49844" lon="5.82293">
        <ele>940</ele>
        <time>2021-10-17T07:21:52Z</time>
      </trkpt>
      <trkpt lat="46.49841" lon="5.82301">
        <ele>940</ele>
        <time>2021-10-17T07:21:53Z</time>
      </trkpt>
      <trkpt lat="46.49837" lon="5.82309">
        <ele>939.8</ele>
        <time>2021-10-17T07:21:54Z</time>
      </trkpt>
      <trkpt lat="46.49832" lon="5.82316">
        <ele>939.8</ele>
        <time>2021-10-17T07:21:55Z</time>
      </trkpt>
      <trkpt lat="46.49827" lon="5.82323">
        <ele>939.4</ele>
        <time>2021-10-17T07:21:56Z</time>
      </trkpt>
      <trkpt lat="46.49822" lon="5.82331">
        <ele>939.4</ele>
        <time>2021-10-17T07:21:57Z</time>
      </trkpt>
      <trkpt lat="46.49815" lon="5.82338">
        <ele>939.2</ele>
        <time>2021-10-17T07:21:58Z</time>
      </trkpt>
      <trkpt lat="46.49809" lon="5.82345">
        <ele>939.2</ele>
        <time>2021-10-17T07:21:59Z</time>
      </trkpt>
      <trkpt lat="46.49803" lon="5.82351">
        <ele>939.2</ele>
        <time>2021-10-17T07:22:00Z</time>
      </trkpt>
      <trkpt lat="46.49797" lon="5.82357">
        <ele>939.2</ele>
        <time>2021-10-17T07:22:01Z</time>
      </trkpt>
      <trkpt lat="46.49791" lon="5.82362">
        <ele>939.2</ele>
        <time>2021-10-17T07:22:02Z</time>
      </trkpt>
      <trkpt lat="46.49785" lon="5.82366">
        <ele>939.2</ele>
        <time>2021-10-17T07:22:03Z</time>
      </trkpt>
      <trkpt lat="46.49779" lon="5.8237">
        <ele>939.2</ele>
        <time>2021-10-17T07:22:04Z</time>
      </trkpt>
      <trkpt lat="46.49773" lon="5.82374">
        <ele>939.4</ele>
        <time>2021-10-17T07:22:05Z</time>
      </trkpt>
      <trkpt lat="46.49768" lon="5.82377">
        <ele>939.4</ele>
        <time>2021-10-17T07:22:06Z</time>
      </trkpt>
      <trkpt lat="46.49762" lon="5.8238">
        <ele>939.4</ele>
        <time>2021-10-17T07:22:07Z</time>
      </trkpt>
      <trkpt lat="46.49757" lon="5.82383">
        <ele>939.4</ele>
        <time>2021-10-17T07:22:08Z</time>
      </trkpt>
      <trkpt lat="46.49752" lon="5.82386">
        <ele>939.6</ele>
        <time>2021-10-17T07:22:09Z</time>
      </trkpt>
      <trkpt lat="46.49747" lon="5.82388">
        <ele>939.6</ele>
        <time>2021-10-17T07:22:10Z</time>
      </trkpt>
      <trkpt lat="46.49742" lon="5.82391">
        <ele>939.6</ele>
        <time>2021-10-17T07:22:11Z</time>
      </trkpt>
      <trkpt lat="46.49737" lon="5.82394">
        <ele>940</ele>
        <time>2021-10-17T07:22:12Z</time>
      </trkpt>
      <trkpt lat="46.49733" lon="5.82396">
        <ele>940.2</ele>
        <time>2021-10-17T07:22:13Z</time>
      </trkpt>
      <trkpt lat="46.49728" lon="5.82399">
        <ele>940.2</ele>
        <time>2021-10-17T07:22:14Z</time>
      </trkpt>
      <trkpt lat="46.49724" lon="5.82402">
        <ele>940.6</ele>
        <time>2021-10-17T07:22:15Z</time>
      </trkpt>
      <trkpt lat="46.4972" lon="5.82405">
        <ele>940.6</ele>
        <time>2021-10-17T07:22:16Z</time>
      </trkpt>
      <trkpt lat="46.49716" lon="5.82408">
        <ele>940.8</ele>
        <time>2021-10-17T07:22:17Z</time>
      </trkpt>
      <trkpt lat="46.49712" lon="5.8241">
        <ele>941.2</ele>
        <time>2021-10-17T07:22:18Z</time>
      </trkpt>
      <trkpt lat="46.49708" lon="5.82413">
        <ele>941.2</ele>
        <time>2021-10-17T07:22:19Z</time>
      </trkpt>
      <trkpt lat="46.49704" lon="5.82417">
        <ele>941.4</ele>
        <time>2021-10-17T07:22:20Z</time>
      </trkpt>
      <trkpt lat="46.49701" lon="5.8242">
        <ele>941.4</ele>
        <time>2021-10-17T07:22:21Z</time>
      </trkpt>
      <trkpt lat="46.49697" lon="5.82422">
        <ele>941.6</ele>
        <time>2021-10-17T07:22:22Z</time>
      </trkpt>
      <trkpt lat="46.49694" lon="5.82424">
        <ele>941.8</ele>
        <time>2021-10-17T07:22:23Z</time>
      </trkpt>
      <trkpt lat="46.4969" lon="5.82427">
        <ele>942</ele>
        <time>2021-10-17T07:22:24Z</time>
      </trkpt>
      <trkpt lat="46.49687" lon="5.8243">
        <ele>942</ele>
        <time>2021-10-17T07:22:25Z</time>
      </trkpt>
      <trkpt lat="46.49684" lon="5.82432">
        <ele>942.4</ele>
        <time>2021-10-17T07:22:26Z</time>
      </trkpt>
      <trkpt lat="46.49681" lon="5.82435">
        <ele>942.4</ele>
        <time>2021-10-17T07:22:27Z</time>
      </trkpt>
      <trkpt lat="46.49678" lon="5.82438">
        <ele>942.8</ele>
        <time>2021-10-17T07:22:28Z</time>
      </trkpt>
      <trkpt lat="46.49675" lon="5.82441">
        <ele>942.8</ele>
        <time>2021-10-17T07:22:29Z</time>
      </trkpt>
      <trkpt lat="46.49672" lon="5.82444">
        <ele>943</ele>
        <time>2021-10-17T07:22:30Z</time>
      </trkpt>
      <trkpt lat="46.4967" lon="5.82447">
        <ele>943</ele>
        <time>2021-10-17T07:22:31Z</time>
      </trkpt>
      <trkpt lat="46.49668" lon="5.82451">
        <ele>943.4</ele>
        <time>2021-10-17T07:22:32Z</time>
      </trkpt>
      <trkpt lat="46.49665" lon="5.82455">
        <ele>943.4</ele>
        <time>2021-10-17T07:22:33Z</time>
      </trkpt>
      <trkpt lat="46.49663" lon="5.82459">
        <ele>943.8</ele>
        <time>2021-10-17T07:22:34Z</time>
      </trkpt>
      <trkpt lat="46.49661" lon="5.82464">
        <ele>943.8</ele>
        <time>2021-10-17T07:22:35Z</time>
      </trkpt>
      <trkpt lat="46.49659" lon="5.82468">
        <ele>944</ele>
        <time>2021-10-17T07:22:36Z</time>
      </trkpt>
      <trkpt lat="46.49657" lon="5.82472">
        <ele>944</ele>
        <time>2021-10-17T07:22:37Z</time>
      </trkpt>
      <trkpt lat="46.49655" lon="5.82477">
        <ele>944.2</ele>
        <time>2021-10-17T07:22:38Z</time>
      </trkpt>
      <trkpt lat="46.49654" lon="5.82481">
        <ele>944.2</ele>
        <time>2021-10-17T07:22:39Z</time>
      </trkpt>
      <trkpt lat="46.49652" lon="5.82486">
        <ele>944.2</ele>
        <time>2021-10-17T07:22:40Z</time>
      </trkpt>
      <trkpt lat="46.4965" lon="5.82491">
        <ele>944.6</ele>
        <time>2021-10-17T07:22:41Z</time>
      </trkpt>
      <trkpt lat="46.49648" lon="5.82496">
        <ele>944.6</ele>
        <time>2021-10-17T07:22:42Z</time>
      </trkpt>
      <trkpt lat="46.49646" lon="5.82501">
        <ele>944.6</ele>
        <time>2021-10-17T07:22:43Z</time>
      </trkpt>
      <trkpt lat="46.49644" lon="5.82506">
        <ele>944.8</ele>
        <time>2021-10-17T07:22:44Z</time>
      </trkpt>
      <trkpt lat="46.49642" lon="5.8251">
        <ele>944.8</ele>
        <time>2021-10-17T07:22:45Z</time>
      </trkpt>
      <trkpt lat="46.49639" lon="5.82514">
        <ele>944.8</ele>
        <time>2021-10-17T07:22:46Z</time>
      </trkpt>
      <trkpt lat="46.49637" lon="5.82517">
        <ele>944.8</ele>
        <time>2021-10-17T07:22:47Z</time>
      </trkpt>
      <trkpt lat="46.49634" lon="5.8252">
        <ele>945.2</ele>
        <time>2021-10-17T07:22:48Z</time>
      </trkpt>
      <trkpt lat="46.4963" lon="5.82524">
        <ele>945.2</ele>
        <time>2021-10-17T07:22:49Z</time>
      </trkpt>
      <trkpt lat="46.49627" lon="5.82528">
        <ele>945.2</ele>
        <time>2021-10-17T07:22:50Z</time>
      </trkpt>
      <trkpt lat="46.49623" lon="5.82531">
        <ele>945.2</ele>
        <time>2021-10-17T07:22:51Z</time>
      </trkpt>
      <trkpt lat="46.4962" lon="5.82534">
        <ele>945.4</ele>
        <time>2021-10-17T07:22:52Z</time>
      </trkpt>
      <trkpt lat="46.49616" lon="5.82538">
        <ele>945.4</ele>
        <time>2021-10-17T07:22:53Z</time>
      </trkpt>
      <trkpt lat="46.49612" lon="5.82541">
        <ele>945.4</ele>
        <time>2021-10-17T07:22:54Z</time>
      </trkpt>
      <trkpt lat="46.49609" lon="5.82545">
        <ele>945.8</ele>
        <time>2021-10-17T07:22:55Z</time>
      </trkpt>
      <trkpt lat="46.49606" lon="5.82549">
        <ele>945.8</ele>
        <time>2021-10-17T07:22:56Z</time>
      </trkpt>
      <trkpt lat="46.49603" lon="5.82552">
        <ele>946</ele>
        <time>2021-10-17T07:22:57Z</time>
      </trkpt>
      <trkpt lat="46.496" lon="5.82556">
        <ele>946</ele>
        <time>2021-10-17T07:22:58Z</time>
      </trkpt>
      <trkpt lat="46.49596" lon="5.8256">
        <ele>946.4</ele>
        <time>2021-10-17T07:22:59Z</time>
      </trkpt>
      <trkpt lat="46.49593" lon="5.82564">
        <ele>946.4</ele>
        <time>2021-10-17T07:23:00Z</time>
      </trkpt>
      <trkpt lat="46.49589" lon="5.82568">
        <ele>946.6</ele>
        <time>2021-10-17T07:23:01Z</time>
      </trkpt>
      <trkpt lat="46.49585" lon="5.82572">
        <ele>946.6</ele>
        <time>2021-10-17T07:23:02Z</time>
      </trkpt>
      <trkpt lat="46.49582" lon="5.82578">
        <ele>947</ele>
        <time>2021-10-17T07:23:03Z</time>
      </trkpt>
      <trkpt lat="46.49579" lon="5.82583">
        <ele>947</ele>
        <time>2021-10-17T07:23:04Z</time>
      </trkpt>
      <trkpt lat="46.49577" lon="5.82589">
        <ele>947.2</ele>
        <time>2021-10-17T07:23:05Z</time>
      </trkpt>
      <trkpt lat="46.49574" lon="5.82595">
        <ele>947.2</ele>
        <time>2021-10-17T07:23:06Z</time>
      </trkpt>
      <trkpt lat="46.49572" lon="5.826">
        <ele>947.6</ele>
        <time>2021-10-17T07:23:07Z</time>
      </trkpt>
      <trkpt lat="46.4957" lon="5.82605">
        <ele>947.6</ele>
        <time>2021-10-17T07:23:08Z</time>
      </trkpt>
      <trkpt lat="46.49568" lon="5.82609">
        <ele>948</ele>
        <time>2021-10-17T07:23:09Z</time>
      </trkpt>
      <trkpt lat="46.49567" lon="5.82614">
        <ele>948</ele>
        <time>2021-10-17T07:23:10Z</time>
      </trkpt>
      <trkpt lat="46.49565" lon="5.82618">
        <ele>948</ele>
        <time>2021-10-17T07:23:11Z</time>
      </trkpt>
      <trkpt lat="46.49564" lon="5.82623">
        <ele>948</ele>
        <time>2021-10-17T07:23:12Z</time>
      </trkpt>
      <trkpt lat="46.49563" lon="5.82628">
        <ele>948</ele>
        <time>2021-10-17T07:23:13Z</time>
      </trkpt>
      <trkpt lat="46.49562" lon="5.82634">
        <ele>948</ele>
        <time>2021-10-17T07:23:14Z</time>
      </trkpt>
      <trkpt lat="46.49562" lon="5.8264">
        <ele>947.6</ele>
        <time>2021-10-17T07:23:15Z</time>
      </trkpt>
      <trkpt lat="46.49562" lon="5.82647">
        <ele>947.2</ele>
        <time>2021-10-17T07:23:16Z</time>
      </trkpt>
      <trkpt lat="46.49561" lon="5.82655">
        <ele>947</ele>
        <time>2021-10-17T07:23:17Z</time>
      </trkpt>
      <trkpt lat="46.49561" lon="5.82664">
        <ele>946.6</ele>
        <time>2021-10-17T07:23:18Z</time>
      </trkpt>
      <trkpt lat="46.49562" lon="5.82672">
        <ele>946.4</ele>
        <time>2021-10-17T07:23:19Z</time>
      </trkpt>
      <trkpt lat="46.49564" lon="5.82681">
        <ele>946</ele>
        <time>2021-10-17T07:23:20Z</time>
      </trkpt>
      <trkpt lat="46.49566" lon="5.82689">
        <ele>945.8</ele>
        <time>2021-10-17T07:23:21Z</time>
      </trkpt>
      <trkpt lat="46.4957" lon="5.82696">
        <ele>945.6</ele>
        <time>2021-10-17T07:23:22Z</time>
      </trkpt>
      <trkpt lat="46.49574" lon="5.82703">
        <ele>945.2</ele>
        <time>2021-10-17T07:23:23Z</time>
      </trkpt>
      <trkpt lat="46.49579" lon="5.8271">
        <ele>945</ele>
        <time>2021-10-17T07:23:24Z</time>
      </trkpt>
      <trkpt lat="46.49584" lon="5.82717">
        <ele>944.6</ele>
        <time>2021-10-17T07:23:25Z</time>
      </trkpt>
      <trkpt lat="46.49589" lon="5.82724">
        <ele>944.2</ele>
        <time>2021-10-17T07:23:26Z</time>
      </trkpt>
      <trkpt lat="46.49593" lon="5.82731">
        <ele>943.4</ele>
        <time>2021-10-17T07:23:27Z</time>
      </trkpt>
      <trkpt lat="46.49597" lon="5.82739">
        <ele>942.8</ele>
        <time>2021-10-17T07:23:28Z</time>
      </trkpt>
      <trkpt lat="46.496" lon="5.82745">
        <ele>942.2</ele>
        <time>2021-10-17T07:23:29Z</time>
      </trkpt>
      <trkpt lat="46.49602" lon="5.82751">
        <ele>941.6</ele>
        <time>2021-10-17T07:23:30Z</time>
      </trkpt>
      <trkpt lat="46.49604" lon="5.82756">
        <ele>941.2</ele>
        <time>2021-10-17T07:23:31Z</time>
      </trkpt>
      <trkpt lat="46.49605" lon="5.82761">
        <ele>940.8</ele>
        <time>2021-10-17T07:23:32Z</time>
      </trkpt>
      <trkpt lat="46.49604" lon="5.82764">
        <ele>940.4</ele>
        <time>2021-10-17T07:23:33Z</time>
      </trkpt>
      <trkpt lat="46.49601" lon="5.82768">
        <ele>940</ele>
        <time>2021-10-17T07:23:34Z</time>
      </trkpt>
      <trkpt lat="46.49598" lon="5.8277">
        <ele>939.6</ele>
        <time>2021-10-17T07:23:35Z</time>
      </trkpt>
      <trkpt lat="46.49593" lon="5.82771">
        <ele>939.4</ele>
        <time>2021-10-17T07:23:36Z</time>
      </trkpt>
      <trkpt lat="46.49589" lon="5.8277">
        <ele>939</ele>
        <time>2021-10-17T07:23:37Z</time>
      </trkpt>
      <trkpt lat="46.49584" lon="5.82768">
        <ele>938.6</ele>
        <time>2021-10-17T07:23:38Z</time>
      </trkpt>
      <trkpt lat="46.49579" lon="5.82765">
        <ele>938.2</ele>
        <time>2021-10-17T07:23:39Z</time>
      </trkpt>
      <trkpt lat="46.49573" lon="5.82762">
        <ele>937.8</ele>
        <time>2021-10-17T07:23:40Z</time>
      </trkpt>
      <trkpt lat="46.49567" lon="5.82759">
        <ele>937.4</ele>
        <time>2021-10-17T07:23:41Z</time>
      </trkpt>
      <trkpt lat="46.4956" lon="5.82756">
        <ele>936.8</ele>
        <time>2021-10-17T07:23:42Z</time>
      </trkpt>
      <trkpt lat="46.49554" lon="5.82752">
        <ele>936.4</ele>
        <time>2021-10-17T07:23:43Z</time>
      </trkpt>
      <trkpt lat="46.49546" lon="5.82748">
        <ele>936</ele>
        <time>2021-10-17T07:23:44Z</time>
      </trkpt>
      <trkpt lat="46.49539" lon="5.82744">
        <ele>935.6</ele>
        <time>2021-10-17T07:23:45Z</time>
      </trkpt>
      <trkpt lat="46.49531" lon="5.82741">
        <ele>935.4</ele>
        <time>2021-10-17T07:23:46Z</time>
      </trkpt>
      <trkpt lat="46.49524" lon="5.82738">
        <ele>935</ele>
        <time>2021-10-17T07:23:47Z</time>
      </trkpt>
      <trkpt lat="46.49515" lon="5.82737">
        <ele>934.4</ele>
        <time>2021-10-17T07:23:48Z</time>
      </trkpt>
      <trkpt lat="46.49507" lon="5.82735">
        <ele>934</ele>
        <time>2021-10-17T07:23:49Z</time>
      </trkpt>
      <trkpt lat="46.49498" lon="5.82734">
        <ele>933.8</ele>
        <time>2021-10-17T07:23:50Z</time>
      </trkpt>
      <trkpt lat="46.49489" lon="5.82733">
        <ele>933.4</ele>
        <time>2021-10-17T07:23:51Z</time>
      </trkpt>
      <trkpt lat="46.4948" lon="5.82733">
        <ele>933.2</ele>
        <time>2021-10-17T07:23:52Z</time>
      </trkpt>
      <trkpt lat="46.49471" lon="5.82733">
        <ele>932.8</ele>
        <time>2021-10-17T07:23:53Z</time>
      </trkpt>
      <trkpt lat="46.49463" lon="5.82732">
        <ele>932.6</ele>
        <time>2021-10-17T07:23:54Z</time>
      </trkpt>
      <trkpt lat="46.49454" lon="5.82732">
        <ele>932.2</ele>
        <time>2021-10-17T07:23:55Z</time>
      </trkpt>
      <trkpt lat="46.49447" lon="5.82733">
        <ele>931.6</ele>
        <time>2021-10-17T07:23:56Z</time>
      </trkpt>
      <trkpt lat="46.49439" lon="5.82734">
        <ele>931.2</ele>
        <time>2021-10-17T07:23:57Z</time>
      </trkpt>
      <trkpt lat="46.49433" lon="5.82736">
        <ele>930.6</ele>
        <time>2021-10-17T07:23:58Z</time>
      </trkpt>
      <trkpt lat="46.49427" lon="5.82739">
        <ele>930</ele>
        <time>2021-10-17T07:23:59Z</time>
      </trkpt>
      <trkpt lat="46.49422" lon="5.82744">
        <ele>929.2</ele>
        <time>2021-10-17T07:24:00Z</time>
      </trkpt>
      <trkpt lat="46.49417" lon="5.82752">
        <ele>928.4</ele>
        <time>2021-10-17T07:24:01Z</time>
      </trkpt>
      <trkpt lat="46.49413" lon="5.82762">
        <ele>927.2</ele>
        <time>2021-10-17T07:24:02Z</time>
      </trkpt>
      <trkpt lat="46.4941" lon="5.82773">
        <ele>926</ele>
        <time>2021-10-17T07:24:03Z</time>
      </trkpt>
      <trkpt lat="46.49407" lon="5.82784">
        <ele>924.8</ele>
        <time>2021-10-17T07:24:04Z</time>
      </trkpt>
      <trkpt lat="46.49403" lon="5.82795">
        <ele>923.4</ele>
        <time>2021-10-17T07:24:05Z</time>
      </trkpt>
      <trkpt lat="46.494" lon="5.82805">
        <ele>922.2</ele>
        <time>2021-10-17T07:24:06Z</time>
      </trkpt>
      <trkpt lat="46.49396" lon="5.82815">
        <ele>921</ele>
        <time>2021-10-17T07:24:07Z</time>
      </trkpt>
      <trkpt lat="46.49393" lon="5.82825">
        <ele>920</ele>
        <time>2021-10-17T07:24:08Z</time>
      </trkpt>
      <trkpt lat="46.4939" lon="5.82835">
        <ele>919</ele>
        <time>2021-10-17T07:24:09Z</time>
      </trkpt>
      <trkpt lat="46.49387" lon="5.82843">
        <ele>918</ele>
        <time>2021-10-17T07:24:10Z</time>
      </trkpt>
      <trkpt lat="46.49385" lon="5.82851">
        <ele>917.2</ele>
        <time>2021-10-17T07:24:11Z</time>
      </trkpt>
      <trkpt lat="46.49382" lon="5.82858">
        <ele>916.4</ele>
        <time>2021-10-17T07:24:12Z</time>
      </trkpt>
      <trkpt lat="46.4938" lon="5.82863">
        <ele>915.8</ele>
        <time>2021-10-17T07:24:13Z</time>
      </trkpt>
      <trkpt lat="46.49379" lon="5.82866">
        <ele>915.2</ele>
        <time>2021-10-17T07:24:14Z</time>
      </trkpt>
      <trkpt lat="46.49376" lon="5.82868">
        <ele>914.8</ele>
        <time>2021-10-17T07:24:15Z</time>
      </trkpt>
      <trkpt lat="46.49373" lon="5.82868">
        <ele>914.4</ele>
        <time>2021-10-17T07:24:16Z</time>
      </trkpt>
      <trkpt lat="46.4937" lon="5.82868">
        <ele>914.2</ele>
        <time>2021-10-17T07:24:17Z</time>
      </trkpt>
      <trkpt lat="46.49366" lon="5.82868">
        <ele>914.2</ele>
        <time>2021-10-17T07:24:18Z</time>
      </trkpt>
      <trkpt lat="46.49363" lon="5.82869">
        <ele>913.8</ele>
        <time>2021-10-17T07:24:19Z</time>
      </trkpt>
      <trkpt lat="46.49359" lon="5.8287">
        <ele>913.8</ele>
        <time>2021-10-17T07:24:20Z</time>
      </trkpt>
      <trkpt lat="46.49355" lon="5.8287">
        <ele>913.4</ele>
        <time>2021-10-17T07:24:21Z</time>
      </trkpt>
      <trkpt lat="46.49351" lon="5.82871">
        <ele>913.4</ele>
        <time>2021-10-17T07:24:22Z</time>
      </trkpt>
      <trkpt lat="46.49346" lon="5.82871">
        <ele>913</ele>
        <time>2021-10-17T07:24:23Z</time>
      </trkpt>
      <trkpt lat="46.4934" lon="5.82871">
        <ele>913</ele>
        <time>2021-10-17T07:24:24Z</time>
      </trkpt>
      <trkpt lat="46.49335" lon="5.82871">
        <ele>912.4</ele>
        <time>2021-10-17T07:24:25Z</time>
      </trkpt>
      <trkpt lat="46.49329" lon="5.82871">
        <ele>912.2</ele>
        <time>2021-10-17T07:24:26Z</time>
      </trkpt>
      <trkpt lat="46.49323" lon="5.82873">
        <ele>911.8</ele>
        <time>2021-10-17T07:24:27Z</time>
      </trkpt>
      <trkpt lat="46.49318" lon="5.82876">
        <ele>911.4</ele>
        <time>2021-10-17T07:24:28Z</time>
      </trkpt>
      <trkpt lat="46.49313" lon="5.8288">
        <ele>911</ele>
        <time>2021-10-17T07:24:29Z</time>
      </trkpt>
      <trkpt lat="46.49309" lon="5.82887">
        <ele>910.6</ele>
        <time>2021-10-17T07:24:30Z</time>
      </trkpt>
      <trkpt lat="46.49305" lon="5.82896">
        <ele>910</ele>
        <time>2021-10-17T07:24:31Z</time>
      </trkpt>
      <trkpt lat="46.49303" lon="5.82905">
        <ele>909.6</ele>
        <time>2021-10-17T07:24:32Z</time>
      </trkpt>
      <trkpt lat="46.49302" lon="5.82916">
        <ele>909.2</ele>
        <time>2021-10-17T07:24:33Z</time>
      </trkpt>
      <trkpt lat="46.49302" lon="5.82927">
        <ele>908.8</ele>
        <time>2021-10-17T07:24:34Z</time>
      </trkpt>
      <trkpt lat="46.49304" lon="5.82938">
        <ele>908.4</ele>
        <time>2021-10-17T07:24:35Z</time>
      </trkpt>
      <trkpt lat="46.49308" lon="5.82948">
        <ele>907.8</ele>
        <time>2021-10-17T07:24:36Z</time>
      </trkpt>
      <trkpt lat="46.49311" lon="5.82958">
        <ele>907.2</ele>
        <time>2021-10-17T07:24:37Z</time>
      </trkpt>
      <trkpt lat="46.49315" lon="5.82968">
        <ele>906.6</ele>
        <time>2021-10-17T07:24:38Z</time>
      </trkpt>
      <trkpt lat="46.49317" lon="5.82979">
        <ele>906</ele>
        <time>2021-10-17T07:24:39Z</time>
      </trkpt>
      <trkpt lat="46.49319" lon="5.82992">
        <ele>905.2</ele>
        <time>2021-10-17T07:24:40Z</time>
      </trkpt>
      <trkpt lat="46.4932" lon="5.83005">
        <ele>904.4</ele>
        <time>2021-10-17T07:24:41Z</time>
      </trkpt>
      <trkpt lat="46.49319" lon="5.83018">
        <ele>903.8</ele>
        <time>2021-10-17T07:24:42Z</time>
      </trkpt>
      <trkpt lat="46.49318" lon="5.8303">
        <ele>903</ele>
        <time>2021-10-17T07:24:43Z</time>
      </trkpt>
      <trkpt lat="46.49315" lon="5.83042">
        <ele>902</ele>
        <time>2021-10-17T07:24:44Z</time>
      </trkpt>
      <trkpt lat="46.49311" lon="5.83053">
        <ele>901.2</ele>
        <time>2021-10-17T07:24:45Z</time>
      </trkpt>
      <trkpt lat="46.49307" lon="5.83062">
        <ele>900.6</ele>
        <time>2021-10-17T07:24:46Z</time>
      </trkpt>
      <trkpt lat="46.49302" lon="5.83069">
        <ele>900</ele>
        <time>2021-10-17T07:24:47Z</time>
      </trkpt>
      <trkpt lat="46.49296" lon="5.83074">
        <ele>899.4</ele>
        <time>2021-10-17T07:24:48Z</time>
      </trkpt>
      <trkpt lat="46.49289" lon="5.83078">
        <ele>898.6</ele>
        <time>2021-10-17T07:24:49Z</time>
      </trkpt>
      <trkpt lat="46.4928" lon="5.83082">
        <ele>898</ele>
        <time>2021-10-17T07:24:50Z</time>
      </trkpt>
      <trkpt lat="46.49272" lon="5.83086">
        <ele>897.2</ele>
        <time>2021-10-17T07:24:51Z</time>
      </trkpt>
      <trkpt lat="46.49262" lon="5.83091">
        <ele>896.4</ele>
        <time>2021-10-17T07:24:52Z</time>
      </trkpt>
      <trkpt lat="46.49253" lon="5.83095">
        <ele>895.6</ele>
        <time>2021-10-17T07:24:53Z</time>
      </trkpt>
      <trkpt lat="46.49244" lon="5.83102">
        <ele>895</ele>
        <time>2021-10-17T07:24:54Z</time>
      </trkpt>
      <trkpt lat="46.49235" lon="5.83109">
        <ele>894.6</ele>
        <time>2021-10-17T07:24:55Z</time>
      </trkpt>
      <trkpt lat="46.49227" lon="5.83117">
        <ele>894.2</ele>
        <time>2021-10-17T07:24:56Z</time>
      </trkpt>
      <trkpt lat="46.49219" lon="5.83124">
        <ele>894</ele>
        <time>2021-10-17T07:24:57Z</time>
      </trkpt>
      <trkpt lat="46.49211" lon="5.83131">
        <ele>894</ele>
        <time>2021-10-17T07:24:58Z</time>
      </trkpt>
      <trkpt lat="46.49203" lon="5.83136">
        <ele>893.6</ele>
        <time>2021-10-17T07:24:59Z</time>
      </trkpt>
      <trkpt lat="46.49195" lon="5.83141">
        <ele>893.6</ele>
        <time>2021-10-17T07:25:00Z</time>
      </trkpt>
      <trkpt lat="46.49188" lon="5.83146">
        <ele>893.2</ele>
        <time>2021-10-17T07:25:01Z</time>
      </trkpt>
      <trkpt lat="46.49182" lon="5.83152">
        <ele>893.2</ele>
        <time>2021-10-17T07:25:02Z</time>
      </trkpt>
      <trkpt lat="46.49175" lon="5.83158">
        <ele>893.2</ele>
        <time>2021-10-17T07:25:03Z</time>
      </trkpt>
      <trkpt lat="46.49168" lon="5.83163">
        <ele>893.2</ele>
        <time>2021-10-17T07:25:04Z</time>
      </trkpt>
      <trkpt lat="46.49162" lon="5.83168">
        <ele>893.6</ele>
        <time>2021-10-17T07:25:05Z</time>
      </trkpt>
      <trkpt lat="46.49156" lon="5.83172">
        <ele>893.8</ele>
        <time>2021-10-17T07:25:06Z</time>
      </trkpt>
      <trkpt lat="46.4915" lon="5.83176">
        <ele>894.2</ele>
        <time>2021-10-17T07:25:07Z</time>
      </trkpt>
      <trkpt lat="46.49145" lon="5.8318">
        <ele>894.6</ele>
        <time>2021-10-17T07:25:08Z</time>
      </trkpt>
      <trkpt lat="46.4914" lon="5.83183">
        <ele>894.8</ele>
        <time>2021-10-17T07:25:09Z</time>
      </trkpt>
      <trkpt lat="46.49136" lon="5.83186">
        <ele>895.2</ele>
        <time>2021-10-17T07:25:10Z</time>
      </trkpt>
      <trkpt lat="46.49132" lon="5.83188">
        <ele>895.6</ele>
        <time>2021-10-17T07:25:11Z</time>
      </trkpt>
      <trkpt lat="46.49128" lon="5.8319">
        <ele>895.6</ele>
        <time>2021-10-17T07:25:12Z</time>
      </trkpt>
      <trkpt lat="46.49125" lon="5.83191">
        <ele>896.2</ele>
        <time>2021-10-17T07:25:13Z</time>
      </trkpt>
      <trkpt lat="46.49121" lon="5.83192">
        <ele>896.6</ele>
        <time>2021-10-17T07:25:14Z</time>
      </trkpt>
      <trkpt lat="46.49118" lon="5.83193">
        <ele>896.8</ele>
        <time>2021-10-17T07:25:15Z</time>
      </trkpt>
      <trkpt lat="46.49114" lon="5.83192">
        <ele>896.8</ele>
        <time>2021-10-17T07:25:16Z</time>
      </trkpt>
      <trkpt lat="46.4911" lon="5.83192">
        <ele>897.4</ele>
        <time>2021-10-17T07:25:17Z</time>
      </trkpt>
      <trkpt lat="46.49107" lon="5.83192">
        <ele>897.8</ele>
        <time>2021-10-17T07:25:18Z</time>
      </trkpt>
      <trkpt lat="46.49104" lon="5.83191">
        <ele>898</ele>
        <time>2021-10-17T07:25:19Z</time>
      </trkpt>
      <trkpt lat="46.49101" lon="5.83191">
        <ele>898.2</ele>
        <time>2021-10-17T07:25:20Z</time>
      </trkpt>
      <trkpt lat="46.49098" lon="5.8319">
        <ele>898.4</ele>
        <time>2021-10-17T07:25:21Z</time>
      </trkpt>
      <trkpt lat="46.49095" lon="5.83188">
        <ele>898.8</ele>
        <time>2021-10-17T07:25:22Z</time>
      </trkpt>
      <trkpt lat="46.49092" lon="5.83186">
        <ele>899</ele>
        <time>2021-10-17T07:25:23Z</time>
      </trkpt>
      <trkpt lat="46.49089" lon="5.83184">
        <ele>899</ele>
        <time>2021-10-17T07:25:24Z</time>
      </trkpt>
      <trkpt lat="46.49087" lon="5.83183">
        <ele>899.6</ele>
        <time>2021-10-17T07:25:25Z</time>
      </trkpt>
      <trkpt lat="46.49084" lon="5.83181">
        <ele>899.6</ele>
        <time>2021-10-17T07:25:26Z</time>
      </trkpt>
      <trkpt lat="46.49081" lon="5.83179">
        <ele>900</ele>
        <time>2021-10-17T07:25:27Z</time>
      </trkpt>
      <trkpt lat="46.49078" lon="5.83178">
        <ele>900.2</ele>
        <time>2021-10-17T07:25:28Z</time>
      </trkpt>
      <trkpt lat="46.49074" lon="5.83176">
        <ele>900.6</ele>
        <time>2021-10-17T07:25:29Z</time>
      </trkpt>
      <trkpt lat="46.49071" lon="5.83176">
        <ele>900.8</ele>
        <time>2021-10-17T07:25:30Z</time>
      </trkpt>
      <trkpt lat="46.49069" lon="5.83176">
        <ele>901.2</ele>
        <time>2021-10-17T07:25:31Z</time>
      </trkpt>
      <trkpt lat="46.49066" lon="5.83175">
        <ele>901.4</ele>
        <time>2021-10-17T07:25:32Z</time>
      </trkpt>
      <trkpt lat="46.49063" lon="5.83174">
        <ele>901.4</ele>
        <time>2021-10-17T07:25:33Z</time>
      </trkpt>
      <trkpt lat="46.4906" lon="5.83173">
        <ele>901.8</ele>
        <time>2021-10-17T07:25:34Z</time>
      </trkpt>
      <trkpt lat="46.49057" lon="5.83173">
        <ele>902</ele>
        <time>2021-10-17T07:25:35Z</time>
      </trkpt>
      <trkpt lat="46.49054" lon="5.83173">
        <ele>902.4</ele>
        <time>2021-10-17T07:25:36Z</time>
      </trkpt>
      <trkpt lat="46.49051" lon="5.83173">
        <ele>902.6</ele>
        <time>2021-10-17T07:25:37Z</time>
      </trkpt>
      <trkpt lat="46.49048" lon="5.83174">
        <ele>903</ele>
        <time>2021-10-17T07:25:38Z</time>
      </trkpt>
      <trkpt lat="46.49045" lon="5.83174">
        <ele>903.2</ele>
        <time>2021-10-17T07:25:39Z</time>
      </trkpt>
      <trkpt lat="46.49042" lon="5.83174">
        <ele>903.2</ele>
        <time>2021-10-17T07:25:40Z</time>
      </trkpt>
      <trkpt lat="46.4904" lon="5.83175">
        <ele>903.4</ele>
        <time>2021-10-17T07:25:41Z</time>
      </trkpt>
      <trkpt lat="46.49037" lon="5.83176">
        <ele>903.4</ele>
        <time>2021-10-17T07:25:42Z</time>
      </trkpt>
      <trkpt lat="46.49035" lon="5.83177">
        <ele>903.8</ele>
        <time>2021-10-17T07:25:43Z</time>
      </trkpt>
      <trkpt lat="46.49032" lon="5.83179">
        <ele>904</ele>
        <time>2021-10-17T07:25:44Z</time>
      </trkpt>
      <trkpt lat="46.4903" lon="5.8318">
        <ele>904.2</ele>
        <time>2021-10-17T07:25:45Z</time>
      </trkpt>
      <trkpt lat="46.49027" lon="5.83181">
        <ele>904.4</ele>
        <time>2021-10-17T07:25:46Z</time>
      </trkpt>
      <trkpt lat="46.49025" lon="5.83182">
        <ele>904.6</ele>
        <time>2021-10-17T07:25:47Z</time>
      </trkpt>
      <trkpt lat="46.49023" lon="5.83183">
        <ele>905</ele>
        <time>2021-10-17T07:25:48Z</time>
      </trkpt>
      <trkpt lat="46.4902" lon="5.83183">
        <ele>905.2</ele>
        <time>2021-10-17T07:25:49Z</time>
      </trkpt>
      <trkpt lat="46.49018" lon="5.83184">
        <ele>905.4</ele>
        <time>2021-10-17T07:25:50Z</time>
      </trkpt>
      <trkpt lat="46.49016" lon="5.83185">
        <ele>905.6</ele>
        <time>2021-10-17T07:25:51Z</time>
      </trkpt>
      <trkpt lat="46.49014" lon="5.83186">
        <ele>905.8</ele>
        <time>2021-10-17T07:25:52Z</time>
      </trkpt>
      <trkpt lat="46.49012" lon="5.83186">
        <ele>905.8</ele>
        <time>2021-10-17T07:25:53Z</time>
      </trkpt>
      <trkpt lat="46.49009" lon="5.83186">
        <ele>906.2</ele>
        <time>2021-10-17T07:25:54Z</time>
      </trkpt>
      <trkpt lat="46.49007" lon="5.83187">
        <ele>906.2</ele>
        <time>2021-10-17T07:25:55Z</time>
      </trkpt>
      <trkpt lat="46.49005" lon="5.83189">
        <ele>906.6</ele>
        <time>2021-10-17T07:25:56Z</time>
      </trkpt>
      <trkpt lat="46.49003" lon="5.8319">
        <ele>906.8</ele>
        <time>2021-10-17T07:25:57Z</time>
      </trkpt>
      <trkpt lat="46.49001" lon="5.83191">
        <ele>907</ele>
        <time>2021-10-17T07:25:58Z</time>
      </trkpt>
      <trkpt lat="46.49" lon="5.83191">
        <ele>907</ele>
        <time>2021-10-17T07:25:59Z</time>
      </trkpt>
      <trkpt lat="46.48998" lon="5.83192">
        <ele>907.4</ele>
        <time>2021-10-17T07:26:00Z</time>
      </trkpt>
      <trkpt lat="46.48996" lon="5.83192">
        <ele>907.8</ele>
        <time>2021-10-17T07:26:01Z</time>
      </trkpt>
      <trkpt lat="46.48994" lon="5.83193">
        <ele>907.8</ele>
        <time>2021-10-17T07:26:02Z</time>
      </trkpt>
      <trkpt lat="46.48993" lon="5.83194">
        <ele>908.2</ele>
        <time>2021-10-17T07:26:03Z</time>
      </trkpt>
      <trkpt lat="46.48991" lon="5.83194">
        <ele>908.2</ele>
        <time>2021-10-17T07:26:04Z</time>
      </trkpt>
      <trkpt lat="46.48989" lon="5.83195">
        <ele>908.4</ele>
        <time>2021-10-17T07:26:05Z</time>
      </trkpt>
      <trkpt lat="46.48988" lon="5.83195">
        <ele>908.6</ele>
        <time>2021-10-17T07:26:06Z</time>
      </trkpt>
      <trkpt lat="46.48986" lon="5.83196">
        <ele>909</ele>
        <time>2021-10-17T07:26:07Z</time>
      </trkpt>
      <trkpt lat="46.48984" lon="5.83197">
        <ele>909.2</ele>
        <time>2021-10-17T07:26:08Z</time>
      </trkpt>
      <trkpt lat="46.48982" lon="5.83198">
        <ele>909.2</ele>
        <time>2021-10-17T07:26:09Z</time>
      </trkpt>
      <trkpt lat="46.4898" lon="5.83199">
        <ele>909.4</ele>
        <time>2021-10-17T07:26:10Z</time>
      </trkpt>
      <trkpt lat="46.48978" lon="5.832">
        <ele>909.4</ele>
        <time>2021-10-17T07:26:11Z</time>
      </trkpt>
      <trkpt lat="46.48977" lon="5.83201">
        <ele>909.6</ele>
        <time>2021-10-17T07:26:12Z</time>
      </trkpt>
      <trkpt lat="46.48975" lon="5.83203">
        <ele>909.6</ele>
        <time>2021-10-17T07:26:13Z</time>
      </trkpt>
      <trkpt lat="46.48973" lon="5.83204">
        <ele>910</ele>
        <time>2021-10-17T07:26:14Z</time>
      </trkpt>
      <trkpt lat="46.48972" lon="5.83205">
        <ele>910</ele>
        <time>2021-10-17T07:26:15Z</time>
      </trkpt>
      <trkpt lat="46.4897" lon="5.83207">
        <ele>910.2</ele>
        <time>2021-10-17T07:26:16Z</time>
      </trkpt>
      <trkpt lat="46.48967" lon="5.83209">
        <ele>910.2</ele>
        <time>2021-10-17T07:26:17Z</time>
      </trkpt>
      <trkpt lat="46.48965" lon="5.8321">
        <ele>910.4</ele>
        <time>2021-10-17T07:26:18Z</time>
      </trkpt>
      <trkpt lat="46.48963" lon="5.83211">
        <ele>910.4</ele>
        <time>2021-10-17T07:26:19Z</time>
      </trkpt>
      <trkpt lat="46.4896" lon="5.83213">
        <ele>910.6</ele>
        <time>2021-10-17T07:26:20Z</time>
      </trkpt>
      <trkpt lat="46.48958" lon="5.83214">
        <ele>910.8</ele>
        <time>2021-10-17T07:26:21Z</time>
      </trkpt>
      <trkpt lat="46.48955" lon="5.83215">
        <ele>910.8</ele>
        <time>2021-10-17T07:26:22Z</time>
      </trkpt>
      <trkpt lat="46.48952" lon="5.83216">
        <ele>911.2</ele>
        <time>2021-10-17T07:26:23Z</time>
      </trkpt>
      <trkpt lat="46.48949" lon="5.83217">
        <ele>911.4</ele>
        <time>2021-10-17T07:26:24Z</time>
      </trkpt>
      <trkpt lat="46.48946" lon="5.83217">
        <ele>911.4</ele>
        <time>2021-10-17T07:26:25Z</time>
      </trkpt>
      <trkpt lat="46.48944" lon="5.83217">
        <ele>912</ele>
        <time>2021-10-17T07:26:26Z</time>
      </trkpt>
      <trkpt lat="46.48941" lon="5.83218">
        <ele>912.2</ele>
        <time>2021-10-17T07:26:27Z</time>
      </trkpt>
      <trkpt lat="46.48939" lon="5.83217">
        <ele>912.4</ele>
        <time>2021-10-17T07:26:28Z</time>
      </trkpt>
      <trkpt lat="46.48936" lon="5.83217">
        <ele>912.8</ele>
        <time>2021-10-17T07:26:29Z</time>
      </trkpt>
      <trkpt lat="46.48933" lon="5.83216">
        <ele>913</ele>
        <time>2021-10-17T07:26:30Z</time>
      </trkpt>
      <trkpt lat="46.4893" lon="5.83215">
        <ele>913.4</ele>
        <time>2021-10-17T07:26:31Z</time>
      </trkpt>
      <trkpt lat="46.48928" lon="5.83213">
        <ele>913.6</ele>
        <time>2021-10-17T07:26:32Z</time>
      </trkpt>
      <trkpt lat="46.48925" lon="5.83211">
        <ele>913.8</ele>
        <time>2021-10-17T07:26:33Z</time>
      </trkpt>
      <trkpt lat="46.48922" lon="5.8321">
        <ele>914</ele>
        <time>2021-10-17T07:26:34Z</time>
      </trkpt>
      <trkpt lat="46.48918" lon="5.83208">
        <ele>914.4</ele>
        <time>2021-10-17T07:26:35Z</time>
      </trkpt>
      <trkpt lat="46.48915" lon="5.83207">
        <ele>914.6</ele>
        <time>2021-10-17T07:26:36Z</time>
      </trkpt>
      <trkpt lat="46.48912" lon="5.83205">
        <ele>914.8</ele>
        <time>2021-10-17T07:26:37Z</time>
      </trkpt>
      <trkpt lat="46.48909" lon="5.83204">
        <ele>915.2</ele>
        <time>2021-10-17T07:26:38Z</time>
      </trkpt>
      <trkpt lat="46.48906" lon="5.83204">
        <ele>915.4</ele>
        <time>2021-10-17T07:26:39Z</time>
      </trkpt>
      <trkpt lat="46.48904" lon="5.83203">
        <ele>915.6</ele>
        <time>2021-10-17T07:26:40Z</time>
      </trkpt>
      <trkpt lat="46.48901" lon="5.83202">
        <ele>915.6</ele>
        <time>2021-10-17T07:26:41Z</time>
      </trkpt>
      <trkpt lat="46.48899" lon="5.83202">
        <ele>916</ele>
        <time>2021-10-17T07:26:42Z</time>
      </trkpt>
      <trkpt lat="46.48897" lon="5.83202">
        <ele>916.2</ele>
        <time>2021-10-17T07:26:43Z</time>
      </trkpt>
      <trkpt lat="46.48894" lon="5.83204">
        <ele>916.6</ele>
        <time>2021-10-17T07:26:44Z</time>
      </trkpt>
      <trkpt lat="46.48892" lon="5.83206">
        <ele>916.6</ele>
        <time>2021-10-17T07:26:45Z</time>
      </trkpt>
      <trkpt lat="46.48889" lon="5.83209">
        <ele>916.8</ele>
        <time>2021-10-17T07:26:46Z</time>
      </trkpt>
      <trkpt lat="46.48886" lon="5.83213">
        <ele>917.2</ele>
        <time>2021-10-17T07:26:47Z</time>
      </trkpt>
      <trkpt lat="46.48884" lon="5.83217">
        <ele>917.4</ele>
        <time>2021-10-17T07:26:48Z</time>
      </trkpt>
      <trkpt lat="46.48882" lon="5.83221">
        <ele>917.4</ele>
        <time>2021-10-17T07:26:49Z</time>
      </trkpt>
      <trkpt lat="46.48881" lon="5.83225">
        <ele>917.8</ele>
        <time>2021-10-17T07:26:50Z</time>
      </trkpt>
      <trkpt lat="46.4888" lon="5.83229">
        <ele>918</ele>
        <time>2021-10-17T07:26:51Z</time>
      </trkpt>
      <trkpt lat="46.4888" lon="5.83232">
        <ele>918</ele>
        <time>2021-10-17T07:26:52Z</time>
      </trkpt>
      <trkpt lat="46.4888" lon="5.83236">
        <ele>918.4</ele>
        <time>2021-10-17T07:26:53Z</time>
      </trkpt>
      <trkpt lat="46.48879" lon="5.83241">
        <ele>918.4</ele>
        <time>2021-10-17T07:26:54Z</time>
      </trkpt>
      <trkpt lat="46.48879" lon="5.83246">
        <ele>918.8</ele>
        <time>2021-10-17T07:26:55Z</time>
      </trkpt>
      <trkpt lat="46.48879" lon="5.8325">
        <ele>919</ele>
        <time>2021-10-17T07:26:56Z</time>
      </trkpt>
      <trkpt lat="46.4888" lon="5.83254">
        <ele>919</ele>
        <time>2021-10-17T07:26:57Z</time>
      </trkpt>
      <trkpt lat="46.48881" lon="5.83257">
        <ele>919.2</ele>
        <time>2021-10-17T07:26:58Z</time>
      </trkpt>
      <trkpt lat="46.48883" lon="5.83261">
        <ele>919.2</ele>
        <time>2021-10-17T07:26:59Z</time>
      </trkpt>
      <trkpt lat="46.48885" lon="5.83265">
        <ele>919.6</ele>
        <time>2021-10-17T07:27:00Z</time>
      </trkpt>
      <trkpt lat="46.48887" lon="5.83268">
        <ele>919.8</ele>
        <time>2021-10-17T07:27:01Z</time>
      </trkpt>
      <trkpt lat="46.4889" lon="5.83271">
        <ele>920</ele>
        <time>2021-10-17T07:27:02Z</time>
      </trkpt>
      <trkpt lat="46.48894" lon="5.83273">
        <ele>920</ele>
        <time>2021-10-17T07:27:03Z</time>
      </trkpt>
      <trkpt lat="46.48898" lon="5.83275">
        <ele>920.4</ele>
        <time>2021-10-17T07:27:04Z</time>
      </trkpt>
      <trkpt lat="46.48901" lon="5.83276">
        <ele>920.4</ele>
        <time>2021-10-17T07:27:05Z</time>
      </trkpt>
      <trkpt lat="46.48904" lon="5.83277">
        <ele>920.4</ele>
        <time>2021-10-17T07:27:06Z</time>
      </trkpt>
      <trkpt lat="46.48908" lon="5.83278">
        <ele>920.6</ele>
        <time>2021-10-17T07:27:07Z</time>
      </trkpt>
      <trkpt lat="46.48911" lon="5.83279">
        <ele>920.6</ele>
        <time>2021-10-17T07:27:08Z</time>
      </trkpt>
      <trkpt lat="46.48914" lon="5.8328">
        <ele>920.6</ele>
        <time>2021-10-17T07:27:09Z</time>
      </trkpt>
      <trkpt lat="46.48918" lon="5.83281">
        <ele>920.8</ele>
        <time>2021-10-17T07:27:10Z</time>
      </trkpt>
      <trkpt lat="46.48922" lon="5.83282">
        <ele>920.8</ele>
        <time>2021-10-17T07:27:11Z</time>
      </trkpt>
      <trkpt lat="46.48926" lon="5.83283">
        <ele>920.8</ele>
        <time>2021-10-17T07:27:12Z</time>
      </trkpt>
      <trkpt lat="46.4893" lon="5.83284">
        <ele>920.8</ele>
        <time>2021-10-17T07:27:13Z</time>
      </trkpt>
      <trkpt lat="46.48932" lon="5.83286">
        <ele>921.2</ele>
        <time>2021-10-17T07:27:14Z</time>
      </trkpt>
      <trkpt lat="46.48936" lon="5.83287">
        <ele>921.2</ele>
        <time>2021-10-17T07:27:15Z</time>
      </trkpt>
      <trkpt lat="46.48939" lon="5.83288">
        <ele>921.4</ele>
        <time>2021-10-17T07:27:16Z</time>
      </trkpt>
      <trkpt lat="46.48943" lon="5.8329">
        <ele>921.4</ele>
        <time>2021-10-17T07:27:17Z</time>
      </trkpt>
      <trkpt lat="46.48947" lon="5.83292">
        <ele>921.4</ele>
        <time>2021-10-17T07:27:18Z</time>
      </trkpt>
      <trkpt lat="46.48951" lon="5.83293">
        <ele>921.4</ele>
        <time>2021-10-17T07:27:19Z</time>
      </trkpt>
      <trkpt lat="46.48955" lon="5.83295">
        <ele>921.4</ele>
        <time>2021-10-17T07:27:20Z</time>
      </trkpt>
      <trkpt lat="46.48959" lon="5.83297">
        <ele>921.8</ele>
        <time>2021-10-17T07:27:21Z</time>
      </trkpt>
      <trkpt lat="46.48962" lon="5.83298">
        <ele>921.8</ele>
        <time>2021-10-17T07:27:22Z</time>
      </trkpt>
      <trkpt lat="46.48966" lon="5.83298">
        <ele>921.8</ele>
        <time>2021-10-17T07:27:23Z</time>
      </trkpt>
      <trkpt lat="46.4897" lon="5.83299">
        <ele>922</ele>
        <time>2021-10-17T07:27:24Z</time>
      </trkpt>
      <trkpt lat="46.48974" lon="5.833">
        <ele>922</ele>
        <time>2021-10-17T07:27:25Z</time>
      </trkpt>
      <trkpt lat="46.48978" lon="5.83302">
        <ele>922.2</ele>
        <time>2021-10-17T07:27:26Z</time>
      </trkpt>
      <trkpt lat="46.48982" lon="5.83303">
        <ele>922.2</ele>
        <time>2021-10-17T07:27:27Z</time>
      </trkpt>
      <trkpt lat="46.48986" lon="5.83305">
        <ele>922.4</ele>
        <time>2021-10-17T07:27:28Z</time>
      </trkpt>
      <trkpt lat="46.4899" lon="5.83307">
        <ele>922.4</ele>
        <time>2021-10-17T07:27:29Z</time>
      </trkpt>
      <trkpt lat="46.48995" lon="5.83308">
        <ele>922.4</ele>
        <time>2021-10-17T07:27:30Z</time>
      </trkpt>
      <trkpt lat="46.48999" lon="5.8331">
        <ele>922.8</ele>
        <time>2021-10-17T07:27:31Z</time>
      </trkpt>
      <trkpt lat="46.49003" lon="5.83311">
        <ele>922.8</ele>
        <time>2021-10-17T07:27:32Z</time>
      </trkpt>
      <trkpt lat="46.49007" lon="5.83313">
        <ele>922.8</ele>
        <time>2021-10-17T07:27:33Z</time>
      </trkpt>
      <trkpt lat="46.49011" lon="5.83314">
        <ele>922.8</ele>
        <time>2021-10-17T07:27:34Z</time>
      </trkpt>
      <trkpt lat="46.49015" lon="5.83315">
        <ele>923</ele>
        <time>2021-10-17T07:27:35Z</time>
      </trkpt>
      <trkpt lat="46.49019" lon="5.83317">
        <ele>923</ele>
        <time>2021-10-17T07:27:36Z</time>
      </trkpt>
      <trkpt lat="46.49023" lon="5.83319">
        <ele>923</ele>
        <time>2021-10-17T07:27:37Z</time>
      </trkpt>
      <trkpt lat="46.49026" lon="5.8332">
        <ele>923</ele>
        <time>2021-10-17T07:27:38Z</time>
      </trkpt>
      <trkpt lat="46.4903" lon="5.83322">
        <ele>923</ele>
        <time>2021-10-17T07:27:39Z</time>
      </trkpt>
      <trkpt lat="46.49035" lon="5.83324">
        <ele>923</ele>
        <time>2021-10-17T07:27:40Z</time>
      </trkpt>
      <trkpt lat="46.49039" lon="5.83326">
        <ele>923.4</ele>
        <time>2021-10-17T07:27:41Z</time>
      </trkpt>
      <trkpt lat="46.49043" lon="5.83327">
        <ele>923.4</ele>
        <time>2021-10-17T07:27:42Z</time>
      </trkpt>
      <trkpt lat="46.49047" lon="5.8333">
        <ele>923.4</ele>
        <time>2021-10-17T07:27:43Z</time>
      </trkpt>
      <trkpt lat="46.49051" lon="5.83331">
        <ele>923.4</ele>
        <time>2021-10-17T07:27:44Z</time>
      </trkpt>
      <trkpt lat="46.49056" lon="5.83333">
        <ele>923.4</ele>
        <time>2021-10-17T07:27:45Z</time>
      </trkpt>
      <trkpt lat="46.4906" lon="5.83336">
        <ele>923.4</ele>
        <time>2021-10-17T07:27:46Z</time>
      </trkpt>
      <trkpt lat="46.49065" lon="5.83338">
        <ele>923.4</ele>
        <time>2021-10-17T07:27:47Z</time>
      </trkpt>
      <trkpt lat="46.49069" lon="5.8334">
        <ele>923.4</ele>
        <time>2021-10-17T07:27:48Z</time>
      </trkpt>
      <trkpt lat="46.49074" lon="5.83341">
        <ele>923.6</ele>
        <time>2021-10-17T07:27:49Z</time>
      </trkpt>
      <trkpt lat="46.49079" lon="5.83343">
        <ele>923.6</ele>
        <time>2021-10-17T07:27:50Z</time>
      </trkpt>
      <trkpt lat="46.49084" lon="5.83345">
        <ele>923.8</ele>
        <time>2021-10-17T07:27:51Z</time>
      </trkpt>
      <trkpt lat="46.49088" lon="5.83345">
        <ele>923.8</ele>
        <time>2021-10-17T07:27:52Z</time>
      </trkpt>
      <trkpt lat="46.49093" lon="5.83345">
        <ele>923.8</ele>
        <time>2021-10-17T07:27:53Z</time>
      </trkpt>
      <trkpt lat="46.49098" lon="5.83342">
        <ele>923.8</ele>
        <time>2021-10-17T07:27:54Z</time>
      </trkpt>
      <trkpt lat="46.49102" lon="5.83339">
        <ele>924</ele>
        <time>2021-10-17T07:27:55Z</time>
      </trkpt>
      <trkpt lat="46.49106" lon="5.83334">
        <ele>924</ele>
        <time>2021-10-17T07:27:56Z</time>
      </trkpt>
      <trkpt lat="46.49109" lon="5.83329">
        <ele>924</ele>
        <time>2021-10-17T07:27:57Z</time>
      </trkpt>
      <trkpt lat="46.49113" lon="5.83323">
        <ele>924</ele>
        <time>2021-10-17T07:27:58Z</time>
      </trkpt>
      <trkpt lat="46.49116" lon="5.83317">
        <ele>924</ele>
        <time>2021-10-17T07:27:59Z</time>
      </trkpt>
      <trkpt lat="46.49119" lon="5.83312">
        <ele>924</ele>
        <time>2021-10-17T07:28:00Z</time>
      </trkpt>
      <trkpt lat="46.49123" lon="5.83307">
        <ele>924</ele>
        <time>2021-10-17T07:28:01Z</time>
      </trkpt>
      <trkpt lat="46.49127" lon="5.83302">
        <ele>924</ele>
        <time>2021-10-17T07:28:02Z</time>
      </trkpt>
      <trkpt lat="46.49131" lon="5.83299">
        <ele>924</ele>
        <time>2021-10-17T07:28:03Z</time>
      </trkpt>
      <trkpt lat="46.49135" lon="5.83296">
        <ele>924.4</ele>
        <time>2021-10-17T07:28:04Z</time>
      </trkpt>
      <trkpt lat="46.49139" lon="5.83294">
        <ele>924.4</ele>
        <time>2021-10-17T07:28:05Z</time>
      </trkpt>
      <trkpt lat="46.49143" lon="5.83293">
        <ele>924.6</ele>
        <time>2021-10-17T07:28:06Z</time>
      </trkpt>
      <trkpt lat="46.49147" lon="5.83292">
        <ele>924.6</ele>
        <time>2021-10-17T07:28:07Z</time>
      </trkpt>
      <trkpt lat="46.4915" lon="5.83292">
        <ele>925</ele>
        <time>2021-10-17T07:28:08Z</time>
      </trkpt>
      <trkpt lat="46.49154" lon="5.83292">
        <ele>925</ele>
        <time>2021-10-17T07:28:09Z</time>
      </trkpt>
      <trkpt lat="46.49158" lon="5.83294">
        <ele>925.2</ele>
        <time>2021-10-17T07:28:10Z</time>
      </trkpt>
      <trkpt lat="46.49162" lon="5.83295">
        <ele>925.2</ele>
        <time>2021-10-17T07:28:11Z</time>
      </trkpt>
      <trkpt lat="46.49166" lon="5.83298">
        <ele>925.6</ele>
        <time>2021-10-17T07:28:12Z</time>
      </trkpt>
      <trkpt lat="46.49169" lon="5.83301">
        <ele>925.6</ele>
        <time>2021-10-17T07:28:13Z</time>
      </trkpt>
      <trkpt lat="46.49171" lon="5.83306">
        <ele>926</ele>
        <time>2021-10-17T07:28:14Z</time>
      </trkpt>
      <trkpt lat="46.49172" lon="5.83311">
        <ele>926</ele>
        <time>2021-10-17T07:28:15Z</time>
      </trkpt>
      <trkpt lat="46.49173" lon="5.83317">
        <ele>926.2</ele>
        <time>2021-10-17T07:28:16Z</time>
      </trkpt>
      <trkpt lat="46.49174" lon="5.83322">
        <ele>926.2</ele>
        <time>2021-10-17T07:28:17Z</time>
      </trkpt>
      <trkpt lat="46.49173" lon="5.83327">
        <ele>926.6</ele>
        <time>2021-10-17T07:28:18Z</time>
      </trkpt>
      <trkpt lat="46.49171" lon="5.83332">
        <ele>927</ele>
        <time>2021-10-17T07:28:19Z</time>
      </trkpt>
      <trkpt lat="46.49169" lon="5.83337">
        <ele>927.2</ele>
        <time>2021-10-17T07:28:20Z</time>
      </trkpt>
      <trkpt lat="46.49167" lon="5.83341">
        <ele>927.4</ele>
        <time>2021-10-17T07:28:21Z</time>
      </trkpt>
      <trkpt lat="46.49164" lon="5.83345">
        <ele>927.6</ele>
        <time>2021-10-17T07:28:22Z</time>
      </trkpt>
      <trkpt lat="46.49161" lon="5.83349">
        <ele>928</ele>
        <time>2021-10-17T07:28:23Z</time>
      </trkpt>
      <trkpt lat="46.49159" lon="5.83352">
        <ele>928</ele>
        <time>2021-10-17T07:28:24Z</time>
      </trkpt>
      <trkpt lat="46.49156" lon="5.83355">
        <ele>928.4</ele>
        <time>2021-10-17T07:28:25Z</time>
      </trkpt>
      <trkpt lat="46.49152" lon="5.83357">
        <ele>928.6</ele>
        <time>2021-10-17T07:28:26Z</time>
      </trkpt>
      <trkpt lat="46.49149" lon="5.83358">
        <ele>928.8</ele>
        <time>2021-10-17T07:28:27Z</time>
      </trkpt>
      <trkpt lat="46.49145" lon="5.8336">
        <ele>929.2</ele>
        <time>2021-10-17T07:28:28Z</time>
      </trkpt>
      <trkpt lat="46.49142" lon="5.83361">
        <ele>929.4</ele>
        <time>2021-10-17T07:28:29Z</time>
      </trkpt>
      <trkpt lat="46.49138" lon="5.83363">
        <ele>929.8</ele>
        <time>2021-10-17T07:28:30Z</time>
      </trkpt>
      <trkpt lat="46.49135" lon="5.83364">
        <ele>930</ele>
        <time>2021-10-17T07:28:31Z</time>
      </trkpt>
      <trkpt lat="46.49131" lon="5.83365">
        <ele>930.4</ele>
        <time>2021-10-17T07:28:32Z</time>
      </trkpt>
      <trkpt lat="46.49128" lon="5.83366">
        <ele>930.6</ele>
        <time>2021-10-17T07:28:33Z</time>
      </trkpt>
      <trkpt lat="46.49124" lon="5.83367">
        <ele>931</ele>
        <time>2021-10-17T07:28:34Z</time>
      </trkpt>
      <trkpt lat="46.49121" lon="5.83368">
        <ele>931.2</ele>
        <time>2021-10-17T07:28:35Z</time>
      </trkpt>
      <trkpt lat="46.49118" lon="5.8337">
        <ele>931.4</ele>
        <time>2021-10-17T07:28:36Z</time>
      </trkpt>
      <trkpt lat="46.49115" lon="5.83371">
        <ele>931.8</ele>
        <time>2021-10-17T07:28:37Z</time>
      </trkpt>
      <trkpt lat="46.49111" lon="5.83372">
        <ele>932</ele>
        <time>2021-10-17T07:28:38Z</time>
      </trkpt>
      <trkpt lat="46.49108" lon="5.83373">
        <ele>932.4</ele>
        <time>2021-10-17T07:28:39Z</time>
      </trkpt>
      <trkpt lat="46.49105" lon="5.83374">
        <ele>932.6</ele>
        <time>2021-10-17T07:28:40Z</time>
      </trkpt>
      <trkpt lat="46.49102" lon="5.83375">
        <ele>932.8</ele>
        <time>2021-10-17T07:28:41Z</time>
      </trkpt>
      <trkpt lat="46.49099" lon="5.83376">
        <ele>933</ele>
        <time>2021-10-17T07:28:42Z</time>
      </trkpt>
      <trkpt lat="46.49096" lon="5.83378">
        <ele>933.2</ele>
        <time>2021-10-17T07:28:43Z</time>
      </trkpt>
      <trkpt lat="46.49093" lon="5.83379">
        <ele>933.6</ele>
        <time>2021-10-17T07:28:44Z</time>
      </trkpt>
      <trkpt lat="46.4909" lon="5.83379">
        <ele>933.8</ele>
        <time>2021-10-17T07:28:45Z</time>
      </trkpt>
      <trkpt lat="46.49087" lon="5.83381">
        <ele>934</ele>
        <time>2021-10-17T07:28:46Z</time>
      </trkpt>
      <trkpt lat="46.49085" lon="5.83382">
        <ele>934.2</ele>
        <time>2021-10-17T07:28:47Z</time>
      </trkpt>
      <trkpt lat="46.49082" lon="5.83382">
        <ele>934.4</ele>
        <time>2021-10-17T07:28:48Z</time>
      </trkpt>
      <trkpt lat="46.49079" lon="5.83382">
        <ele>934.8</ele>
        <time>2021-10-17T07:28:49Z</time>
      </trkpt>
      <trkpt lat="46.49076" lon="5.83383">
        <ele>935</ele>
        <time>2021-10-17T07:28:50Z</time>
      </trkpt>
      <trkpt lat="46.49073" lon="5.83383">
        <ele>935.2</ele>
        <time>2021-10-17T07:28:51Z</time>
      </trkpt>
      <trkpt lat="46.4907" lon="5.83383">
        <ele>935.4</ele>
        <time>2021-10-17T07:28:52Z</time>
      </trkpt>
      <trkpt lat="46.49067" lon="5.83383">
        <ele>935.8</ele>
        <time>2021-10-17T07:28:53Z</time>
      </trkpt>
      <trkpt lat="46.49064" lon="5.83383">
        <ele>936</ele>
        <time>2021-10-17T07:28:54Z</time>
      </trkpt>
      <trkpt lat="46.49061" lon="5.83383">
        <ele>936.2</ele>
        <time>2021-10-17T07:28:55Z</time>
      </trkpt>
      <trkpt lat="46.49058" lon="5.83383">
        <ele>936.4</ele>
        <time>2021-10-17T07:28:56Z</time>
      </trkpt>
      <trkpt lat="46.49055" lon="5.83383">
        <ele>936.6</ele>
        <time>2021-10-17T07:28:57Z</time>
      </trkpt>
      <trkpt lat="46.49052" lon="5.83383">
        <ele>937</ele>
        <time>2021-10-17T07:28:58Z</time>
      </trkpt>
      <trkpt lat="46.49049" lon="5.83382">
        <ele>937.4</ele>
        <time>2021-10-17T07:28:59Z</time>
      </trkpt>
      <trkpt lat="46.49047" lon="5.83381">
        <ele>937.8</ele>
        <time>2021-10-17T07:29:00Z</time>
      </trkpt>
      <trkpt lat="46.49044" lon="5.8338">
        <ele>938</ele>
        <time>2021-10-17T07:29:01Z</time>
      </trkpt>
      <trkpt lat="46.49041" lon="5.83379">
        <ele>938.4</ele>
        <time>2021-10-17T07:29:02Z</time>
      </trkpt>
      <trkpt lat="46.49039" lon="5.83378">
        <ele>938.6</ele>
        <time>2021-10-17T07:29:03Z</time>
      </trkpt>
      <trkpt lat="46.49037" lon="5.83377">
        <ele>939</ele>
        <time>2021-10-17T07:29:04Z</time>
      </trkpt>
      <trkpt lat="46.49035" lon="5.83376">
        <ele>939.2</ele>
        <time>2021-10-17T07:29:05Z</time>
      </trkpt>
      <trkpt lat="46.49033" lon="5.83375">
        <ele>939.4</ele>
        <time>2021-10-17T07:29:06Z</time>
      </trkpt>
      <trkpt lat="46.4903" lon="5.83375">
        <ele>939.6</ele>
        <time>2021-10-17T07:29:07Z</time>
      </trkpt>
      <trkpt lat="46.49028" lon="5.83374">
        <ele>939.6</ele>
        <time>2021-10-17T07:29:08Z</time>
      </trkpt>
      <trkpt lat="46.49026" lon="5.83373">
        <ele>939.8</ele>
        <time>2021-10-17T07:29:09Z</time>
      </trkpt>
      <trkpt lat="46.49023" lon="5.83372">
        <ele>939.8</ele>
        <time>2021-10-17T07:29:10Z</time>
      </trkpt>
      <trkpt lat="46.49021" lon="5.83371">
        <ele>940.2</ele>
        <time>2021-10-17T07:29:11Z</time>
      </trkpt>
      <trkpt lat="46.49018" lon="5.83371">
        <ele>940.2</ele>
        <time>2021-10-17T07:29:12Z</time>
      </trkpt>
      <trkpt lat="46.49016" lon="5.8337">
        <ele>940.6</ele>
        <time>2021-10-17T07:29:13Z</time>
      </trkpt>
      <trkpt lat="46.49014" lon="5.8337">
        <ele>940.6</ele>
        <time>2021-10-17T07:29:14Z</time>
      </trkpt>
      <trkpt lat="46.49012" lon="5.8337">
        <ele>940.8</ele>
        <time>2021-10-17T07:29:15Z</time>
      </trkpt>
      <trkpt lat="46.49009" lon="5.8337">
        <ele>940.8</ele>
        <time>2021-10-17T07:29:16Z</time>
      </trkpt>
      <trkpt lat="46.49007" lon="5.83371">
        <ele>941.2</ele>
        <time>2021-10-17T07:29:17Z</time>
      </trkpt>
      <trkpt lat="46.49004" lon="5.83372">
        <ele>941.4</ele>
        <time>2021-10-17T07:29:18Z</time>
      </trkpt>
      <trkpt lat="46.49002" lon="5.83372">
        <ele>941.4</ele>
        <time>2021-10-17T07:29:19Z</time>
      </trkpt>
      <trkpt lat="46.48999" lon="5.83372">
        <ele>941.4</ele>
        <time>2021-10-17T07:29:20Z</time>
      </trkpt>
      <trkpt lat="46.48996" lon="5.83373">
        <ele>941.8</ele>
        <time>2021-10-17T07:29:21Z</time>
      </trkpt>
      <trkpt lat="46.48993" lon="5.83373">
        <ele>942</ele>
        <time>2021-10-17T07:29:22Z</time>
      </trkpt>
      <trkpt lat="46.48991" lon="5.83374">
        <ele>942.2</ele>
        <time>2021-10-17T07:29:23Z</time>
      </trkpt>
      <trkpt lat="46.48989" lon="5.83374">
        <ele>942.6</ele>
        <time>2021-10-17T07:29:24Z</time>
      </trkpt>
      <trkpt lat="46.48987" lon="5.83374">
        <ele>942.8</ele>
        <time>2021-10-17T07:29:25Z</time>
      </trkpt>
      <trkpt lat="46.48985" lon="5.83374">
        <ele>942.8</ele>
        <time>2021-10-17T07:29:26Z</time>
      </trkpt>
      <trkpt lat="46.48983" lon="5.83374">
        <ele>943</ele>
        <time>2021-10-17T07:29:27Z</time>
      </trkpt>
      <trkpt lat="46.48981" lon="5.83374">
        <ele>943.2</ele>
        <time>2021-10-17T07:29:28Z</time>
      </trkpt>
      <trkpt lat="46.48979" lon="5.83374">
        <ele>943.6</ele>
        <time>2021-10-17T07:29:29Z</time>
      </trkpt>
      <trkpt lat="46.48977" lon="5.83374">
        <ele>943.8</ele>
        <time>2021-10-17T07:29:30Z</time>
      </trkpt>
      <trkpt lat="46.48976" lon="5.83374">
        <ele>943.8</ele>
        <time>2021-10-17T07:29:31Z</time>
      </trkpt>
      <trkpt lat="46.48973" lon="5.83373">
        <ele>944</ele>
        <time>2021-10-17T07:29:32Z</time>
      </trkpt>
      <trkpt lat="46.4897" lon="5.83373">
        <ele>944.4</ele>
        <time>2021-10-17T07:29:33Z</time>
      </trkpt>
      <trkpt lat="46.48968" lon="5.83373">
        <ele>944.6</ele>
        <time>2021-10-17T07:29:34Z</time>
      </trkpt>
      <trkpt lat="46.48966" lon="5.83373">
        <ele>944.8</ele>
        <time>2021-10-17T07:29:35Z</time>
      </trkpt>
      <trkpt lat="46.48964" lon="5.83373">
        <ele>944.8</ele>
        <time>2021-10-17T07:29:36Z</time>
      </trkpt>
      <trkpt lat="46.48962" lon="5.83372">
        <ele>944.8</ele>
        <time>2021-10-17T07:29:37Z</time>
      </trkpt>
      <trkpt lat="46.48959" lon="5.83371">
        <ele>945.2</ele>
        <time>2021-10-17T07:29:38Z</time>
      </trkpt>
      <trkpt lat="46.48957" lon="5.8337">
        <ele>945.4</ele>
        <time>2021-10-17T07:29:39Z</time>
      </trkpt>
      <trkpt lat="46.48955" lon="5.8337">
        <ele>945.6</ele>
        <time>2021-10-17T07:29:40Z</time>
      </trkpt>
      <trkpt lat="46.48952" lon="5.83369">
        <ele>946</ele>
        <time>2021-10-17T07:29:41Z</time>
      </trkpt>
      <trkpt lat="46.48949" lon="5.83369">
        <ele>946.2</ele>
        <time>2021-10-17T07:29:42Z</time>
      </trkpt>
      <trkpt lat="46.48947" lon="5.83368">
        <ele>946.4</ele>
        <time>2021-10-17T07:29:43Z</time>
      </trkpt>
      <trkpt lat="46.48944" lon="5.83368">
        <ele>946.6</ele>
        <time>2021-10-17T07:29:44Z</time>
      </trkpt>
      <trkpt lat="46.48942" lon="5.83367">
        <ele>946.6</ele>
        <time>2021-10-17T07:29:45Z</time>
      </trkpt>
      <trkpt lat="46.48939" lon="5.83367">
        <ele>947</ele>
        <time>2021-10-17T07:29:46Z</time>
      </trkpt>
      <trkpt lat="46.48936" lon="5.83366">
        <ele>947</ele>
        <time>2021-10-17T07:29:47Z</time>
      </trkpt>
      <trkpt lat="46.48934" lon="5.83365">
        <ele>947.4</ele>
        <time>2021-10-17T07:29:48Z</time>
      </trkpt>
      <trkpt lat="46.48931" lon="5.83365">
        <ele>947.4</ele>
        <time>2021-10-17T07:29:49Z</time>
      </trkpt>
      <trkpt lat="46.48928" lon="5.83366">
        <ele>947.8</ele>
        <time>2021-10-17T07:29:50Z</time>
      </trkpt>
      <trkpt lat="46.48925" lon="5.83366">
        <ele>947.8</ele>
        <time>2021-10-17T07:29:51Z</time>
      </trkpt>
      <trkpt lat="46.48922" lon="5.83366">
        <ele>948.2</ele>
        <time>2021-10-17T07:29:52Z</time>
      </trkpt>
      <trkpt lat="46.48919" lon="5.83366">
        <ele>948.2</ele>
        <time>2021-10-17T07:29:53Z</time>
      </trkpt>
      <trkpt lat="46.48916" lon="5.83366">
        <ele>948.4</ele>
        <time>2021-10-17T07:29:54Z</time>
      </trkpt>
      <trkpt lat="46.48913" lon="5.83367">
        <ele>948.4</ele>
        <time>2021-10-17T07:29:55Z</time>
      </trkpt>
      <trkpt lat="46.48911" lon="5.83367">
        <ele>948.8</ele>
        <time>2021-10-17T07:29:56Z</time>
      </trkpt>
      <trkpt lat="46.48908" lon="5.83367">
        <ele>949</ele>
        <time>2021-10-17T07:29:57Z</time>
      </trkpt>
      <trkpt lat="46.48906" lon="5.83368">
        <ele>949.2</ele>
        <time>2021-10-17T07:29:58Z</time>
      </trkpt>
      <trkpt lat="46.48903" lon="5.83368">
        <ele>949.6</ele>
        <time>2021-10-17T07:29:59Z</time>
      </trkpt>
      <trkpt lat="46.48901" lon="5.83369">
        <ele>949.8</ele>
        <time>2021-10-17T07:30:00Z</time>
      </trkpt>
      <trkpt lat="46.48898" lon="5.83369">
        <ele>950</ele>
        <time>2021-10-17T07:30:01Z</time>
      </trkpt>
      <trkpt lat="46.48896" lon="5.83369">
        <ele>950.2</ele>
        <time>2021-10-17T07:30:02Z</time>
      </trkpt>
      <trkpt lat="46.48894" lon="5.8337">
        <ele>950.2</ele>
        <time>2021-10-17T07:30:03Z</time>
      </trkpt>
      <trkpt lat="46.48892" lon="5.83369">
        <ele>950.6</ele>
        <time>2021-10-17T07:30:04Z</time>
      </trkpt>
      <trkpt lat="46.4889" lon="5.8337">
        <ele>950.6</ele>
        <time>2021-10-17T07:30:05Z</time>
      </trkpt>
      <trkpt lat="46.48888" lon="5.83371">
        <ele>950.8</ele>
        <time>2021-10-17T07:30:06Z</time>
      </trkpt>
      <trkpt lat="46.48886" lon="5.83372">
        <ele>950.8</ele>
        <time>2021-10-17T07:30:07Z</time>
      </trkpt>
      <trkpt lat="46.48884" lon="5.83372">
        <ele>951.2</ele>
        <time>2021-10-17T07:30:08Z</time>
      </trkpt>
      <trkpt lat="46.48882" lon="5.83373">
        <ele>951.2</ele>
        <time>2021-10-17T07:30:09Z</time>
      </trkpt>
      <trkpt lat="46.48879" lon="5.83374">
        <ele>951.6</ele>
        <time>2021-10-17T07:30:10Z</time>
      </trkpt>
      <trkpt lat="46.48877" lon="5.83375">
        <ele>951.6</ele>
        <time>2021-10-17T07:30:11Z</time>
      </trkpt>
      <trkpt lat="46.48876" lon="5.83377">
        <ele>951.8</ele>
        <time>2021-10-17T07:30:12Z</time>
      </trkpt>
      <trkpt lat="46.48874" lon="5.83377">
        <ele>951.8</ele>
        <time>2021-10-17T07:30:13Z</time>
      </trkpt>
      <trkpt lat="46.48873" lon="5.83378">
        <ele>952.2</ele>
        <time>2021-10-17T07:30:14Z</time>
      </trkpt>
      <trkpt lat="46.4887" lon="5.83379">
        <ele>952.2</ele>
        <time>2021-10-17T07:30:15Z</time>
      </trkpt>
      <trkpt lat="46.48868" lon="5.8338">
        <ele>952.4</ele>
        <time>2021-10-17T07:30:16Z</time>
      </trkpt>
      <trkpt lat="46.48866" lon="5.83382">
        <ele>952.6</ele>
        <time>2021-10-17T07:30:17Z</time>
      </trkpt>
      <trkpt lat="46.48865" lon="5.83384">
        <ele>952.8</ele>
        <time>2021-10-17T07:30:18Z</time>
      </trkpt>
      <trkpt lat="46.48862" lon="5.83386">
        <ele>953.2</ele>
        <time>2021-10-17T07:30:19Z</time>
      </trkpt>
      <trkpt lat="46.4886" lon="5.83388">
        <ele>953.4</ele>
        <time>2021-10-17T07:30:20Z</time>
      </trkpt>
      <trkpt lat="46.48859" lon="5.83391">
        <ele>953.4</ele>
        <time>2021-10-17T07:30:21Z</time>
      </trkpt>
      <trkpt lat="46.48857" lon="5.83394">
        <ele>953.6</ele>
        <time>2021-10-17T07:30:22Z</time>
      </trkpt>
      <trkpt lat="46.48854" lon="5.83397">
        <ele>953.6</ele>
        <time>2021-10-17T07:30:23Z</time>
      </trkpt>
      <trkpt lat="46.48852" lon="5.834">
        <ele>954.2</ele>
        <time>2021-10-17T07:30:24Z</time>
      </trkpt>
      <trkpt lat="46.48849" lon="5.83403">
        <ele>954.4</ele>
        <time>2021-10-17T07:30:25Z</time>
      </trkpt>
      <trkpt lat="46.48847" lon="5.83406">
        <ele>954.6</ele>
        <time>2021-10-17T07:30:26Z</time>
      </trkpt>
      <trkpt lat="46.48845" lon="5.83409">
        <ele>954.8</ele>
        <time>2021-10-17T07:30:27Z</time>
      </trkpt>
      <trkpt lat="46.48844" lon="5.83411">
        <ele>955</ele>
        <time>2021-10-17T07:30:28Z</time>
      </trkpt>
      <trkpt lat="46.48842" lon="5.83413">
        <ele>955</ele>
        <time>2021-10-17T07:30:29Z</time>
      </trkpt>
      <trkpt lat="46.4884" lon="5.83414">
        <ele>955.6</ele>
        <time>2021-10-17T07:30:30Z</time>
      </trkpt>
      <trkpt lat="46.48838" lon="5.83415">
        <ele>955.8</ele>
        <time>2021-10-17T07:30:31Z</time>
      </trkpt>
      <trkpt lat="46.48836" lon="5.83416">
        <ele>956</ele>
        <time>2021-10-17T07:30:32Z</time>
      </trkpt>
      <trkpt lat="46.48834" lon="5.83418">
        <ele>956.2</ele>
        <time>2021-10-17T07:30:33Z</time>
      </trkpt>
      <trkpt lat="46.48832" lon="5.8342">
        <ele>956.4</ele>
        <time>2021-10-17T07:30:34Z</time>
      </trkpt>
      <trkpt lat="46.48831" lon="5.83421">
        <ele>956.4</ele>
        <time>2021-10-17T07:30:35Z</time>
      </trkpt>
      <trkpt lat="46.48829" lon="5.83424">
        <ele>956.8</ele>
        <time>2021-10-17T07:30:36Z</time>
      </trkpt>
      <trkpt lat="46.48828" lon="5.83426">
        <ele>956.8</ele>
        <time>2021-10-17T07:30:37Z</time>
      </trkpt>
      <trkpt lat="46.48826" lon="5.83429">
        <ele>957</ele>
        <time>2021-10-17T07:30:38Z</time>
      </trkpt>
      <trkpt lat="46.48824" lon="5.83431">
        <ele>957</ele>
        <time>2021-10-17T07:30:39Z</time>
      </trkpt>
      <trkpt lat="46.48823" lon="5.83434">
        <ele>957</ele>
        <time>2021-10-17T07:30:40Z</time>
      </trkpt>
      <trkpt lat="46.48821" lon="5.83436">
        <ele>957.2</ele>
        <time>2021-10-17T07:30:41Z</time>
      </trkpt>
      <trkpt lat="46.48819" lon="5.83439">
        <ele>957.2</ele>
        <time>2021-10-17T07:30:42Z</time>
      </trkpt>
      <trkpt lat="46.48817" lon="5.83441">
        <ele>957.2</ele>
        <time>2021-10-17T07:30:43Z</time>
      </trkpt>
      <trkpt lat="46.48815" lon="5.83442">
        <ele>957.2</ele>
        <time>2021-10-17T07:30:44Z</time>
      </trkpt>
      <trkpt lat="46.48814" lon="5.83444">
        <ele>957.6</ele>
        <time>2021-10-17T07:30:45Z</time>
      </trkpt>
      <trkpt lat="46.48812" lon="5.83445">
        <ele>957.6</ele>
        <time>2021-10-17T07:30:46Z</time>
      </trkpt>
      <trkpt lat="46.4881" lon="5.83447">
        <ele>957.6</ele>
        <time>2021-10-17T07:30:47Z</time>
      </trkpt>
      <trkpt lat="46.48809" lon="5.83448">
        <ele>957.6</ele>
        <time>2021-10-17T07:30:48Z</time>
      </trkpt>
      <trkpt lat="46.48808" lon="5.83449">
        <ele>957.6</ele>
        <time>2021-10-17T07:30:49Z</time>
      </trkpt>
      <trkpt lat="46.488" lon="5.83458">
        <ele>957.2</ele>
        <time>2021-10-17T07:31:57Z</time>
      </trkpt>
      <trkpt lat="46.48797" lon="5.8346">
        <ele>957.2</ele>
        <time>2021-10-17T07:31:58Z</time>
      </trkpt>
      <trkpt lat="46.48794" lon="5.83462">
        <ele>956.8</ele>
        <time>2021-10-17T07:31:59Z</time>
      </trkpt>
      <trkpt lat="46.48791" lon="5.83462">
        <ele>956.8</ele>
        <time>2021-10-17T07:32:00Z</time>
      </trkpt>
      <trkpt lat="46.48788" lon="5.83462">
        <ele>956.6</ele>
        <time>2021-10-17T07:32:01Z</time>
      </trkpt>
      <trkpt lat="46.48784" lon="5.83461">
        <ele>956.6</ele>
        <time>2021-10-17T07:32:02Z</time>
      </trkpt>
      <trkpt lat="46.4878" lon="5.83461">
        <ele>956.2</ele>
        <time>2021-10-17T07:32:03Z</time>
      </trkpt>
      <trkpt lat="46.48775" lon="5.8346">
        <ele>956.2</ele>
        <time>2021-10-17T07:32:04Z</time>
      </trkpt>
      <trkpt lat="46.48769" lon="5.83459">
        <ele>956</ele>
        <time>2021-10-17T07:32:05Z</time>
      </trkpt>
      <trkpt lat="46.48764" lon="5.83458">
        <ele>955.8</ele>
        <time>2021-10-17T07:32:06Z</time>
      </trkpt>
      <trkpt lat="46.48758" lon="5.83456">
        <ele>955.6</ele>
        <time>2021-10-17T07:32:07Z</time>
      </trkpt>
      <trkpt lat="46.48753" lon="5.83454">
        <ele>955.2</ele>
        <time>2021-10-17T07:32:08Z</time>
      </trkpt>
      <trkpt lat="46.48747" lon="5.83452">
        <ele>955</ele>
        <time>2021-10-17T07:32:09Z</time>
      </trkpt>
      <trkpt lat="46.4874" lon="5.8345">
        <ele>954.6</ele>
        <time>2021-10-17T07:32:10Z</time>
      </trkpt>
      <trkpt lat="46.48733" lon="5.83448">
        <ele>954.2</ele>
        <time>2021-10-17T07:32:11Z</time>
      </trkpt>
      <trkpt lat="46.48726" lon="5.83446">
        <ele>953.8</ele>
        <time>2021-10-17T07:32:12Z</time>
      </trkpt>
      <trkpt lat="46.48719" lon="5.83444">
        <ele>953.4</ele>
        <time>2021-10-17T07:32:13Z</time>
      </trkpt>
      <trkpt lat="46.48712" lon="5.83442">
        <ele>953</ele>
        <time>2021-10-17T07:32:14Z</time>
      </trkpt>
      <trkpt lat="46.48704" lon="5.83439">
        <ele>952.6</ele>
        <time>2021-10-17T07:32:15Z</time>
      </trkpt>
      <trkpt lat="46.48697" lon="5.83436">
        <ele>952</ele>
        <time>2021-10-17T07:32:16Z</time>
      </trkpt>
      <trkpt lat="46.48689" lon="5.83433">
        <ele>951.6</ele>
        <time>2021-10-17T07:32:17Z</time>
      </trkpt>
      <trkpt lat="46.48681" lon="5.8343">
        <ele>951.2</ele>
        <time>2021-10-17T07:32:18Z</time>
      </trkpt>
      <trkpt lat="46.48673" lon="5.83427">
        <ele>950.8</ele>
        <time>2021-10-17T07:32:19Z</time>
      </trkpt>
      <trkpt lat="46.48665" lon="5.83425">
        <ele>950.4</ele>
        <time>2021-10-17T07:32:20Z</time>
      </trkpt>
      <trkpt lat="46.48657" lon="5.83422">
        <ele>950</ele>
        <time>2021-10-17T07:32:21Z</time>
      </trkpt>
      <trkpt lat="46.4865" lon="5.83422">
        <ele>949.4</ele>
        <time>2021-10-17T07:32:22Z</time>
      </trkpt>
      <trkpt lat="46.48642" lon="5.83423">
        <ele>949.2</ele>
        <time>2021-10-17T07:32:23Z</time>
      </trkpt>
      <trkpt lat="46.48636" lon="5.83425">
        <ele>948.8</ele>
        <time>2021-10-17T07:32:24Z</time>
      </trkpt>
      <trkpt lat="46.4863" lon="5.83429">
        <ele>948.4</ele>
        <time>2021-10-17T07:32:25Z</time>
      </trkpt>
      <trkpt lat="46.48624" lon="5.83434">
        <ele>947.8</ele>
        <time>2021-10-17T07:32:26Z</time>
      </trkpt>
      <trkpt lat="46.4862" lon="5.83443">
        <ele>947.2</ele>
        <time>2021-10-17T07:32:27Z</time>
      </trkpt>
      <trkpt lat="46.48618" lon="5.83454">
        <ele>946.8</ele>
        <time>2021-10-17T07:32:28Z</time>
      </trkpt>
      <trkpt lat="46.48616" lon="5.83466">
        <ele>946.4</ele>
        <time>2021-10-17T07:32:29Z</time>
      </trkpt>
      <trkpt lat="46.48615" lon="5.83478">
        <ele>946</ele>
        <time>2021-10-17T07:32:30Z</time>
      </trkpt>
      <trkpt lat="46.48615" lon="5.8349">
        <ele>945.6</ele>
        <time>2021-10-17T07:32:31Z</time>
      </trkpt>
      <trkpt lat="46.48615" lon="5.83503">
        <ele>945.2</ele>
        <time>2021-10-17T07:32:32Z</time>
      </trkpt>
      <trkpt lat="46.48615" lon="5.83516">
        <ele>944.8</ele>
        <time>2021-10-17T07:32:33Z</time>
      </trkpt>
      <trkpt lat="46.48615" lon="5.83529">
        <ele>944.2</ele>
        <time>2021-10-17T07:32:34Z</time>
      </trkpt>
      <trkpt lat="46.48614" lon="5.83541">
        <ele>943.8</ele>
        <time>2021-10-17T07:32:35Z</time>
      </trkpt>
      <trkpt lat="46.48613" lon="5.83553">
        <ele>943.2</ele>
        <time>2021-10-17T07:32:36Z</time>
      </trkpt>
      <trkpt lat="46.4861" lon="5.83565">
        <ele>942.6</ele>
        <time>2021-10-17T07:32:37Z</time>
      </trkpt>
      <trkpt lat="46.48606" lon="5.83577">
        <ele>942.2</ele>
        <time>2021-10-17T07:32:38Z</time>
      </trkpt>
      <trkpt lat="46.48599" lon="5.83586">
        <ele>941.6</ele>
        <time>2021-10-17T07:32:39Z</time>
      </trkpt>
      <trkpt lat="46.48591" lon="5.83595">
        <ele>941</ele>
        <time>2021-10-17T07:32:40Z</time>
      </trkpt>
      <trkpt lat="46.48584" lon="5.83603">
        <ele>940.4</ele>
        <time>2021-10-17T07:32:41Z</time>
      </trkpt>
      <trkpt lat="46.48575" lon="5.83611">
        <ele>939.8</ele>
        <time>2021-10-17T07:32:42Z</time>
      </trkpt>
      <trkpt lat="46.48567" lon="5.83619">
        <ele>939.4</ele>
        <time>2021-10-17T07:32:43Z</time>
      </trkpt>
      <trkpt lat="46.48559" lon="5.83626">
        <ele>938.8</ele>
        <time>2021-10-17T07:32:44Z</time>
      </trkpt>
      <trkpt lat="46.48551" lon="5.83635">
        <ele>938.4</ele>
        <time>2021-10-17T07:32:45Z</time>
      </trkpt>
      <trkpt lat="46.48543" lon="5.83644">
        <ele>937.8</ele>
        <time>2021-10-17T07:32:46Z</time>
      </trkpt>
      <trkpt lat="46.48536" lon="5.83653">
        <ele>937.2</ele>
        <time>2021-10-17T07:32:47Z</time>
      </trkpt>
      <trkpt lat="46.48529" lon="5.83664">
        <ele>936.4</ele>
        <time>2021-10-17T07:32:48Z</time>
      </trkpt>
      <trkpt lat="46.48522" lon="5.83676">
        <ele>935.8</ele>
        <time>2021-10-17T07:32:49Z</time>
      </trkpt>
      <trkpt lat="46.48515" lon="5.83688">
        <ele>935.2</ele>
        <time>2021-10-17T07:32:50Z</time>
      </trkpt>
      <trkpt lat="46.48507" lon="5.83699">
        <ele>934.6</ele>
        <time>2021-10-17T07:32:51Z</time>
      </trkpt>
      <trkpt lat="46.48498" lon="5.83709">
        <ele>934</ele>
        <time>2021-10-17T07:32:52Z</time>
      </trkpt>
      <trkpt lat="46.48489" lon="5.83718">
        <ele>933.2</ele>
        <time>2021-10-17T07:32:53Z</time>
      </trkpt>
      <trkpt lat="46.48479" lon="5.83725">
        <ele>932.4</ele>
        <time>2021-10-17T07:32:54Z</time>
      </trkpt>
      <trkpt lat="46.48469" lon="5.83731">
        <ele>931.8</ele>
        <time>2021-10-17T07:32:55Z</time>
      </trkpt>
      <trkpt lat="46.48459" lon="5.83735">
        <ele>931</ele>
        <time>2021-10-17T07:32:56Z</time>
      </trkpt>
      <trkpt lat="46.48449" lon="5.83739">
        <ele>930.4</ele>
        <time>2021-10-17T07:32:57Z</time>
      </trkpt>
      <trkpt lat="46.48439" lon="5.83741">
        <ele>929.8</ele>
        <time>2021-10-17T07:32:58Z</time>
      </trkpt>
      <trkpt lat="46.48428" lon="5.83742">
        <ele>929.2</ele>
        <time>2021-10-17T07:32:59Z</time>
      </trkpt>
      <trkpt lat="46.48416" lon="5.83741">
        <ele>928.6</ele>
        <time>2021-10-17T07:33:00Z</time>
      </trkpt>
      <trkpt lat="46.48405" lon="5.8374">
        <ele>928</ele>
        <time>2021-10-17T07:33:01Z</time>
      </trkpt>
      <trkpt lat="46.48394" lon="5.83738">
        <ele>927.4</ele>
        <time>2021-10-17T07:33:02Z</time>
      </trkpt>
      <trkpt lat="46.48383" lon="5.83736">
        <ele>926.8</ele>
        <time>2021-10-17T07:33:03Z</time>
      </trkpt>
      <trkpt lat="46.48373" lon="5.83735">
        <ele>926.2</ele>
        <time>2021-10-17T07:33:04Z</time>
      </trkpt>
      <trkpt lat="46.48362" lon="5.83734">
        <ele>925.4</ele>
        <time>2021-10-17T07:33:05Z</time>
      </trkpt>
      <trkpt lat="46.48351" lon="5.83735">
        <ele>924.8</ele>
        <time>2021-10-17T07:33:06Z</time>
      </trkpt>
      <trkpt lat="46.4834" lon="5.83736">
        <ele>924.2</ele>
        <time>2021-10-17T07:33:07Z</time>
      </trkpt>
      <trkpt lat="46.48329" lon="5.83737">
        <ele>923.6</ele>
        <time>2021-10-17T07:33:08Z</time>
      </trkpt>
      <trkpt lat="46.48318" lon="5.83739">
        <ele>923</ele>
        <time>2021-10-17T07:33:09Z</time>
      </trkpt>
      <trkpt lat="46.48307" lon="5.83739">
        <ele>922.2</ele>
        <time>2021-10-17T07:33:10Z</time>
      </trkpt>
      <trkpt lat="46.48296" lon="5.83738">
        <ele>921.6</ele>
        <time>2021-10-17T07:33:11Z</time>
      </trkpt>
      <trkpt lat="46.48285" lon="5.83736">
        <ele>921</ele>
        <time>2021-10-17T07:33:12Z</time>
      </trkpt>
      <trkpt lat="46.48275" lon="5.83733">
        <ele>920.2</ele>
        <time>2021-10-17T07:33:13Z</time>
      </trkpt>
      <trkpt lat="46.48262" lon="5.83731">
        <ele>919.6</ele>
        <time>2021-10-17T07:33:14Z</time>
      </trkpt>
      <trkpt lat="46.4825" lon="5.83728">
        <ele>919</ele>
        <time>2021-10-17T07:33:15Z</time>
      </trkpt>
      <trkpt lat="46.48239" lon="5.83726">
        <ele>918.4</ele>
        <time>2021-10-17T07:33:16Z</time>
      </trkpt>
      <trkpt lat="46.48226" lon="5.83723">
        <ele>917.8</ele>
        <time>2021-10-17T07:33:17Z</time>
      </trkpt>
      <trkpt lat="46.48215" lon="5.8372">
        <ele>917.2</ele>
        <time>2021-10-17T07:33:18Z</time>
      </trkpt>
      <trkpt lat="46.48203" lon="5.83716">
        <ele>916.6</ele>
        <time>2021-10-17T07:33:19Z</time>
      </trkpt>
      <trkpt lat="46.4819" lon="5.83713">
        <ele>916</ele>
        <time>2021-10-17T07:33:20Z</time>
      </trkpt>
      <trkpt lat="46.48177" lon="5.83713">
        <ele>915.4</ele>
        <time>2021-10-17T07:33:21Z</time>
      </trkpt>
      <trkpt lat="46.48166" lon="5.83712">
        <ele>914.6</ele>
        <time>2021-10-17T07:33:22Z</time>
      </trkpt>
      <trkpt lat="46.48154" lon="5.83712">
        <ele>914</ele>
        <time>2021-10-17T07:33:23Z</time>
      </trkpt>
      <trkpt lat="46.48144" lon="5.8371">
        <ele>913.4</ele>
        <time>2021-10-17T07:33:24Z</time>
      </trkpt>
      <trkpt lat="46.48133" lon="5.83708">
        <ele>912.6</ele>
        <time>2021-10-17T07:33:25Z</time>
      </trkpt>
      <trkpt lat="46.48122" lon="5.83704">
        <ele>912</ele>
        <time>2021-10-17T07:33:26Z</time>
      </trkpt>
      <trkpt lat="46.48111" lon="5.837">
        <ele>911.4</ele>
        <time>2021-10-17T07:33:27Z</time>
      </trkpt>
      <trkpt lat="46.481" lon="5.83697">
        <ele>910.8</ele>
        <time>2021-10-17T07:33:28Z</time>
      </trkpt>
      <trkpt lat="46.48089" lon="5.83695">
        <ele>910.4</ele>
        <time>2021-10-17T07:33:29Z</time>
      </trkpt>
      <trkpt lat="46.48079" lon="5.83694">
        <ele>910</ele>
        <time>2021-10-17T07:33:30Z</time>
      </trkpt>
      <trkpt lat="46.48069" lon="5.83695">
        <ele>909.6</ele>
        <time>2021-10-17T07:33:31Z</time>
      </trkpt>
      <trkpt lat="46.48058" lon="5.83696">
        <ele>909.4</ele>
        <time>2021-10-17T07:33:32Z</time>
      </trkpt>
      <trkpt lat="46.48047" lon="5.83697">
        <ele>909.2</ele>
        <time>2021-10-17T07:33:33Z</time>
      </trkpt>
      <trkpt lat="46.48037" lon="5.83697">
        <ele>909</ele>
        <time>2021-10-17T07:33:34Z</time>
      </trkpt>
      <trkpt lat="46.48027" lon="5.83697">
        <ele>909</ele>
        <time>2021-10-17T07:33:35Z</time>
      </trkpt>
      <trkpt lat="46.48017" lon="5.83696">
        <ele>908.8</ele>
        <time>2021-10-17T07:33:36Z</time>
      </trkpt>
      <trkpt lat="46.48008" lon="5.83694">
        <ele>908.8</ele>
        <time>2021-10-17T07:33:37Z</time>
      </trkpt>
      <trkpt lat="46.47999" lon="5.83692">
        <ele>908.8</ele>
        <time>2021-10-17T07:33:38Z</time>
      </trkpt>
      <trkpt lat="46.47991" lon="5.83689">
        <ele>908.4</ele>
        <time>2021-10-17T07:33:39Z</time>
      </trkpt>
      <trkpt lat="46.47982" lon="5.83685">
        <ele>908.4</ele>
        <time>2021-10-17T07:33:40Z</time>
      </trkpt>
      <trkpt lat="46.47974" lon="5.83679">
        <ele>908.2</ele>
        <time>2021-10-17T07:33:41Z</time>
      </trkpt>
      <trkpt lat="46.47965" lon="5.83675">
        <ele>908.2</ele>
        <time>2021-10-17T07:33:42Z</time>
      </trkpt>
      <trkpt lat="46.47957" lon="5.83671">
        <ele>908.2</ele>
        <time>2021-10-17T07:33:43Z</time>
      </trkpt>
      <trkpt lat="46.47949" lon="5.83667">
        <ele>908</ele>
        <time>2021-10-17T07:33:44Z</time>
      </trkpt>
      <trkpt lat="46.47941" lon="5.83663">
        <ele>908</ele>
        <time>2021-10-17T07:33:45Z</time>
      </trkpt>
      <trkpt lat="46.47933" lon="5.8366">
        <ele>907.8</ele>
        <time>2021-10-17T07:33:46Z</time>
      </trkpt>
      <trkpt lat="46.47925" lon="5.83657">
        <ele>907.8</ele>
        <time>2021-10-17T07:33:47Z</time>
      </trkpt>
      <trkpt lat="46.47917" lon="5.83652">
        <ele>907.8</ele>
        <time>2021-10-17T07:33:48Z</time>
      </trkpt>
      <trkpt lat="46.47908" lon="5.83647">
        <ele>907.8</ele>
        <time>2021-10-17T07:33:49Z</time>
      </trkpt>
      <trkpt lat="46.479" lon="5.83643">
        <ele>907.6</ele>
        <time>2021-10-17T07:33:50Z</time>
      </trkpt>
      <trkpt lat="46.47892" lon="5.83639">
        <ele>907.6</ele>
        <time>2021-10-17T07:33:51Z</time>
      </trkpt>
      <trkpt lat="46.47885" lon="5.83635">
        <ele>907.6</ele>
        <time>2021-10-17T07:33:52Z</time>
      </trkpt>
      <trkpt lat="46.47877" lon="5.83632">
        <ele>907.6</ele>
        <time>2021-10-17T07:33:53Z</time>
      </trkpt>
      <trkpt lat="46.47869" lon="5.83629">
        <ele>907.6</ele>
        <time>2021-10-17T07:33:54Z</time>
      </trkpt>
      <trkpt lat="46.47862" lon="5.83625">
        <ele>907.2</ele>
        <time>2021-10-17T07:33:55Z</time>
      </trkpt>
      <trkpt lat="46.47854" lon="5.83623">
        <ele>906.8</ele>
        <time>2021-10-17T07:33:56Z</time>
      </trkpt>
      <trkpt lat="46.47846" lon="5.83621">
        <ele>906.6</ele>
        <time>2021-10-17T07:33:57Z</time>
      </trkpt>
      <trkpt lat="46.47838" lon="5.8362">
        <ele>906.2</ele>
        <time>2021-10-17T07:33:58Z</time>
      </trkpt>
      <trkpt lat="46.47829" lon="5.83622">
        <ele>906</ele>
        <time>2021-10-17T07:33:59Z</time>
      </trkpt>
      <trkpt lat="46.47821" lon="5.83625">
        <ele>905.6</ele>
        <time>2021-10-17T07:34:00Z</time>
      </trkpt>
      <trkpt lat="46.47813" lon="5.83628">
        <ele>905.2</ele>
        <time>2021-10-17T07:34:01Z</time>
      </trkpt>
      <trkpt lat="46.47806" lon="5.83634">
        <ele>905</ele>
        <time>2021-10-17T07:34:02Z</time>
      </trkpt>
      <trkpt lat="46.47799" lon="5.83642">
        <ele>904.6</ele>
        <time>2021-10-17T07:34:03Z</time>
      </trkpt>
      <trkpt lat="46.47792" lon="5.83649">
        <ele>904.4</ele>
        <time>2021-10-17T07:34:04Z</time>
      </trkpt>
      <trkpt lat="46.47786" lon="5.83657">
        <ele>903.8</ele>
        <time>2021-10-17T07:34:05Z</time>
      </trkpt>
      <trkpt lat="46.4778" lon="5.83665">
        <ele>903.4</ele>
        <time>2021-10-17T07:34:06Z</time>
      </trkpt>
      <trkpt lat="46.47774" lon="5.83672">
        <ele>902.8</ele>
        <time>2021-10-17T07:34:07Z</time>
      </trkpt>
      <trkpt lat="46.47768" lon="5.8368">
        <ele>902.4</ele>
        <time>2021-10-17T07:34:08Z</time>
      </trkpt>
      <trkpt lat="46.47762" lon="5.83687">
        <ele>901.8</ele>
        <time>2021-10-17T07:34:09Z</time>
      </trkpt>
      <trkpt lat="46.47756" lon="5.83694">
        <ele>901.4</ele>
        <time>2021-10-17T07:34:10Z</time>
      </trkpt>
      <trkpt lat="46.47749" lon="5.837">
        <ele>900.8</ele>
        <time>2021-10-17T07:34:11Z</time>
      </trkpt>
      <trkpt lat="46.47741" lon="5.83705">
        <ele>900.4</ele>
        <time>2021-10-17T07:34:12Z</time>
      </trkpt>
      <trkpt lat="46.47733" lon="5.83709">
        <ele>900</ele>
        <time>2021-10-17T07:34:13Z</time>
      </trkpt>
      <trkpt lat="46.47725" lon="5.83711">
        <ele>899.4</ele>
        <time>2021-10-17T07:34:14Z</time>
      </trkpt>
      <trkpt lat="46.47717" lon="5.83712">
        <ele>899</ele>
        <time>2021-10-17T07:34:15Z</time>
      </trkpt>
      <trkpt lat="46.47708" lon="5.83713">
        <ele>898.6</ele>
        <time>2021-10-17T07:34:16Z</time>
      </trkpt>
      <trkpt lat="46.47699" lon="5.83713">
        <ele>898.2</ele>
        <time>2021-10-17T07:34:17Z</time>
      </trkpt>
      <trkpt lat="46.47689" lon="5.83714">
        <ele>897.8</ele>
        <time>2021-10-17T07:34:18Z</time>
      </trkpt>
      <trkpt lat="46.47679" lon="5.83715">
        <ele>897.6</ele>
        <time>2021-10-17T07:34:19Z</time>
      </trkpt>
      <trkpt lat="46.4767" lon="5.83715">
        <ele>897.6</ele>
        <time>2021-10-17T07:34:20Z</time>
      </trkpt>
      <trkpt lat="46.47661" lon="5.83713">
        <ele>897.6</ele>
        <time>2021-10-17T07:34:21Z</time>
      </trkpt>
      <trkpt lat="46.47653" lon="5.83711">
        <ele>897.4</ele>
        <time>2021-10-17T07:34:22Z</time>
      </trkpt>
      <trkpt lat="46.47645" lon="5.83708">
        <ele>897.4</ele>
        <time>2021-10-17T07:34:23Z</time>
      </trkpt>
      <trkpt lat="46.47638" lon="5.83705">
        <ele>897.4</ele>
        <time>2021-10-17T07:34:24Z</time>
      </trkpt>
      <trkpt lat="46.4763" lon="5.83703">
        <ele>897.4</ele>
        <time>2021-10-17T07:34:25Z</time>
      </trkpt>
      <trkpt lat="46.47623" lon="5.837">
        <ele>897.4</ele>
        <time>2021-10-17T07:34:26Z</time>
      </trkpt>
      <trkpt lat="46.47616" lon="5.83697">
        <ele>897.4</ele>
        <time>2021-10-17T07:34:27Z</time>
      </trkpt>
      <trkpt lat="46.47609" lon="5.83694">
        <ele>897.4</ele>
        <time>2021-10-17T07:34:28Z</time>
      </trkpt>
      <trkpt lat="46.47601" lon="5.83692">
        <ele>897.4</ele>
        <time>2021-10-17T07:34:29Z</time>
      </trkpt>
      <trkpt lat="46.47594" lon="5.83689">
        <ele>897.4</ele>
        <time>2021-10-17T07:34:30Z</time>
      </trkpt>
      <trkpt lat="46.47587" lon="5.83687">
        <ele>897.4</ele>
        <time>2021-10-17T07:34:31Z</time>
      </trkpt>
      <trkpt lat="46.47579" lon="5.83685">
        <ele>897.2</ele>
        <time>2021-10-17T07:34:32Z</time>
      </trkpt>
      <trkpt lat="46.47571" lon="5.83682">
        <ele>896.8</ele>
        <time>2021-10-17T07:34:33Z</time>
      </trkpt>
      <trkpt lat="46.47563" lon="5.8368">
        <ele>896.6</ele>
        <time>2021-10-17T07:34:34Z</time>
      </trkpt>
      <trkpt lat="46.47554" lon="5.83677">
        <ele>896.2</ele>
        <time>2021-10-17T07:34:35Z</time>
      </trkpt>
      <trkpt lat="46.47546" lon="5.83674">
        <ele>896</ele>
        <time>2021-10-17T07:34:36Z</time>
      </trkpt>
      <trkpt lat="46.47537" lon="5.83669">
        <ele>895.6</ele>
        <time>2021-10-17T07:34:37Z</time>
      </trkpt>
      <trkpt lat="46.47528" lon="5.83664">
        <ele>895.2</ele>
        <time>2021-10-17T07:34:38Z</time>
      </trkpt>
      <trkpt lat="46.47518" lon="5.83658">
        <ele>894.8</ele>
        <time>2021-10-17T07:34:39Z</time>
      </trkpt>
      <trkpt lat="46.47509" lon="5.83652">
        <ele>894.4</ele>
        <time>2021-10-17T07:34:40Z</time>
      </trkpt>
      <trkpt lat="46.47499" lon="5.83647">
        <ele>894</ele>
        <time>2021-10-17T07:34:41Z</time>
      </trkpt>
      <trkpt lat="46.4749" lon="5.83641">
        <ele>893.6</ele>
        <time>2021-10-17T07:34:42Z</time>
      </trkpt>
      <trkpt lat="46.4748" lon="5.83636">
        <ele>893.2</ele>
        <time>2021-10-17T07:34:43Z</time>
      </trkpt>
      <trkpt lat="46.4747" lon="5.8363">
        <ele>892.8</ele>
        <time>2021-10-17T07:34:44Z</time>
      </trkpt>
      <trkpt lat="46.4746" lon="5.83625">
        <ele>892.6</ele>
        <time>2021-10-17T07:34:45Z</time>
      </trkpt>
      <trkpt lat="46.4745" lon="5.8362">
        <ele>892.2</ele>
        <time>2021-10-17T07:34:46Z</time>
      </trkpt>
      <trkpt lat="46.4744" lon="5.83615">
        <ele>892.2</ele>
        <time>2021-10-17T07:34:47Z</time>
      </trkpt>
      <trkpt lat="46.47431" lon="5.83611">
        <ele>892</ele>
        <time>2021-10-17T07:34:48Z</time>
      </trkpt>
      <trkpt lat="46.47423" lon="5.83606">
        <ele>892</ele>
        <time>2021-10-17T07:34:49Z</time>
      </trkpt>
      <trkpt lat="46.47414" lon="5.83601">
        <ele>891.6</ele>
        <time>2021-10-17T07:34:50Z</time>
      </trkpt>
      <trkpt lat="46.47405" lon="5.83597">
        <ele>891.6</ele>
        <time>2021-10-17T07:34:51Z</time>
      </trkpt>
      <trkpt lat="46.47397" lon="5.83592">
        <ele>891.6</ele>
        <time>2021-10-17T07:34:52Z</time>
      </trkpt>
      <trkpt lat="46.47388" lon="5.83588">
        <ele>891.4</ele>
        <time>2021-10-17T07:34:53Z</time>
      </trkpt>
      <trkpt lat="46.4738" lon="5.83583">
        <ele>891.4</ele>
        <time>2021-10-17T07:34:54Z</time>
      </trkpt>
      <trkpt lat="46.47371" lon="5.83579">
        <ele>891.2</ele>
        <time>2021-10-17T07:34:55Z</time>
      </trkpt>
      <trkpt lat="46.47363" lon="5.83574">
        <ele>891.2</ele>
        <time>2021-10-17T07:34:56Z</time>
      </trkpt>
      <trkpt lat="46.47355" lon="5.8357">
        <ele>891.2</ele>
        <time>2021-10-17T07:34:57Z</time>
      </trkpt>
      <trkpt lat="46.47347" lon="5.83566">
        <ele>890.8</ele>
        <time>2021-10-17T07:34:58Z</time>
      </trkpt>
      <trkpt lat="46.47338" lon="5.83563">
        <ele>890.8</ele>
        <time>2021-10-17T07:34:59Z</time>
      </trkpt>
      <trkpt lat="46.4733" lon="5.83559">
        <ele>890.8</ele>
        <time>2021-10-17T07:35:00Z</time>
      </trkpt>
      <trkpt lat="46.47322" lon="5.83557">
        <ele>890.8</ele>
        <time>2021-10-17T07:35:01Z</time>
      </trkpt>
      <trkpt lat="46.47314" lon="5.83555">
        <ele>890.8</ele>
        <time>2021-10-17T07:35:02Z</time>
      </trkpt>
      <trkpt lat="46.47305" lon="5.83555">
        <ele>890.8</ele>
        <time>2021-10-17T07:35:03Z</time>
      </trkpt>
      <trkpt lat="46.47298" lon="5.83555">
        <ele>890.8</ele>
        <time>2021-10-17T07:35:04Z</time>
      </trkpt>
      <trkpt lat="46.4729" lon="5.83555">
        <ele>890.8</ele>
        <time>2021-10-17T07:35:05Z</time>
      </trkpt>
      <trkpt lat="46.47283" lon="5.83558">
        <ele>890.8</ele>
        <time>2021-10-17T07:35:06Z</time>
      </trkpt>
      <trkpt lat="46.47276" lon="5.83561">
        <ele>891</ele>
        <time>2021-10-17T07:35:07Z</time>
      </trkpt>
      <trkpt lat="46.4727" lon="5.83563">
        <ele>891</ele>
        <time>2021-10-17T07:35:08Z</time>
      </trkpt>
      <trkpt lat="46.47264" lon="5.83566">
        <ele>891</ele>
        <time>2021-10-17T07:35:09Z</time>
      </trkpt>
      <trkpt lat="46.47258" lon="5.83569">
        <ele>891.4</ele>
        <time>2021-10-17T07:35:10Z</time>
      </trkpt>
      <trkpt lat="46.47252" lon="5.83572">
        <ele>891.4</ele>
        <time>2021-10-17T07:35:11Z</time>
      </trkpt>
      <trkpt lat="46.47245" lon="5.83575">
        <ele>891.4</ele>
        <time>2021-10-17T07:35:12Z</time>
      </trkpt>
      <trkpt lat="46.47239" lon="5.83577">
        <ele>891.4</ele>
        <time>2021-10-17T07:35:13Z</time>
      </trkpt>
      <trkpt lat="46.47233" lon="5.8358">
        <ele>891.4</ele>
        <time>2021-10-17T07:35:14Z</time>
      </trkpt>
      <trkpt lat="46.47226" lon="5.83583">
        <ele>891.4</ele>
        <time>2021-10-17T07:35:15Z</time>
      </trkpt>
      <trkpt lat="46.4722" lon="5.83587">
        <ele>891.4</ele>
        <time>2021-10-17T07:35:16Z</time>
      </trkpt>
      <trkpt lat="46.47214" lon="5.8359">
        <ele>891</ele>
        <time>2021-10-17T07:35:17Z</time>
      </trkpt>
      <trkpt lat="46.47208" lon="5.83593">
        <ele>890.6</ele>
        <time>2021-10-17T07:35:18Z</time>
      </trkpt>
      <trkpt lat="46.47202" lon="5.83597">
        <ele>890.4</ele>
        <time>2021-10-17T07:35:19Z</time>
      </trkpt>
      <trkpt lat="46.47196" lon="5.83602">
        <ele>890.2</ele>
        <time>2021-10-17T07:35:20Z</time>
      </trkpt>
      <trkpt lat="46.47192" lon="5.83609">
        <ele>889.8</ele>
        <time>2021-10-17T07:35:21Z</time>
      </trkpt>
      <trkpt lat="46.47187" lon="5.83618">
        <ele>889.4</ele>
        <time>2021-10-17T07:35:22Z</time>
      </trkpt>
      <trkpt lat="46.47183" lon="5.83627">
        <ele>889</ele>
        <time>2021-10-17T07:35:23Z</time>
      </trkpt>
      <trkpt lat="46.4718" lon="5.83638">
        <ele>888.4</ele>
        <time>2021-10-17T07:35:24Z</time>
      </trkpt>
      <trkpt lat="46.47178" lon="5.8365">
        <ele>888</ele>
        <time>2021-10-17T07:35:25Z</time>
      </trkpt>
      <trkpt lat="46.47175" lon="5.83662">
        <ele>887.2</ele>
        <time>2021-10-17T07:35:26Z</time>
      </trkpt>
      <trkpt lat="46.47172" lon="5.83674">
        <ele>886.6</ele>
        <time>2021-10-17T07:35:27Z</time>
      </trkpt>
      <trkpt lat="46.47168" lon="5.83685">
        <ele>886</ele>
        <time>2021-10-17T07:35:28Z</time>
      </trkpt>
      <trkpt lat="46.47163" lon="5.83695">
        <ele>885.2</ele>
        <time>2021-10-17T07:35:29Z</time>
      </trkpt>
      <trkpt lat="46.47157" lon="5.83704">
        <ele>884.6</ele>
        <time>2021-10-17T07:35:30Z</time>
      </trkpt>
      <trkpt lat="46.4715" lon="5.8371">
        <ele>884</ele>
        <time>2021-10-17T07:35:31Z</time>
      </trkpt>
      <trkpt lat="46.47142" lon="5.83714">
        <ele>883.4</ele>
        <time>2021-10-17T07:35:32Z</time>
      </trkpt>
      <trkpt lat="46.47134" lon="5.83718">
        <ele>882.8</ele>
        <time>2021-10-17T07:35:33Z</time>
      </trkpt>
      <trkpt lat="46.47126" lon="5.83722">
        <ele>882.4</ele>
        <time>2021-10-17T07:35:34Z</time>
      </trkpt>
      <trkpt lat="46.47119" lon="5.83728">
        <ele>881.8</ele>
        <time>2021-10-17T07:35:35Z</time>
      </trkpt>
      <trkpt lat="46.47112" lon="5.83735">
        <ele>881.2</ele>
        <time>2021-10-17T07:35:36Z</time>
      </trkpt>
      <trkpt lat="46.47105" lon="5.83738">
        <ele>881</ele>
        <time>2021-10-17T07:35:37Z</time>
      </trkpt>
      <trkpt lat="46.47098" lon="5.8374">
        <ele>880.6</ele>
        <time>2021-10-17T07:35:38Z</time>
      </trkpt>
      <trkpt lat="46.4709" lon="5.8374">
        <ele>880.6</ele>
        <time>2021-10-17T07:35:39Z</time>
      </trkpt>
      <trkpt lat="46.47082" lon="5.83739">
        <ele>880.4</ele>
        <time>2021-10-17T07:35:40Z</time>
      </trkpt>
      <trkpt lat="46.47074" lon="5.83736">
        <ele>880.4</ele>
        <time>2021-10-17T07:35:41Z</time>
      </trkpt>
      <trkpt lat="46.47067" lon="5.83734">
        <ele>880.4</ele>
        <time>2021-10-17T07:35:42Z</time>
      </trkpt>
      <trkpt lat="46.4706" lon="5.83731">
        <ele>880.6</ele>
        <time>2021-10-17T07:35:43Z</time>
      </trkpt>
      <trkpt lat="46.47053" lon="5.83728">
        <ele>880.6</ele>
        <time>2021-10-17T07:35:44Z</time>
      </trkpt>
      <trkpt lat="46.47047" lon="5.83726">
        <ele>881.2</ele>
        <time>2021-10-17T07:35:45Z</time>
      </trkpt>
      <trkpt lat="46.47042" lon="5.83723">
        <ele>881.4</ele>
        <time>2021-10-17T07:35:46Z</time>
      </trkpt>
      <trkpt lat="46.47036" lon="5.8372">
        <ele>881.6</ele>
        <time>2021-10-17T07:35:47Z</time>
      </trkpt>
      <trkpt lat="46.47031" lon="5.83716">
        <ele>881.8</ele>
        <time>2021-10-17T07:35:48Z</time>
      </trkpt>
      <trkpt lat="46.47026" lon="5.83713">
        <ele>882.2</ele>
        <time>2021-10-17T07:35:49Z</time>
      </trkpt>
      <trkpt lat="46.4702" lon="5.8371">
        <ele>882.2</ele>
        <time>2021-10-17T07:35:50Z</time>
      </trkpt>
      <trkpt lat="46.47015" lon="5.83708">
        <ele>882.4</ele>
        <time>2021-10-17T07:35:51Z</time>
      </trkpt>
      <trkpt lat="46.4701" lon="5.83706">
        <ele>882.6</ele>
        <time>2021-10-17T07:35:52Z</time>
      </trkpt>
      <trkpt lat="46.47004" lon="5.83704">
        <ele>883</ele>
        <time>2021-10-17T07:35:53Z</time>
      </trkpt>
      <trkpt lat="46.46999" lon="5.83702">
        <ele>883</ele>
        <time>2021-10-17T07:35:54Z</time>
      </trkpt>
      <trkpt lat="46.46994" lon="5.83699">
        <ele>883.4</ele>
        <time>2021-10-17T07:35:55Z</time>
      </trkpt>
      <trkpt lat="46.46988" lon="5.83697">
        <ele>883.6</ele>
        <time>2021-10-17T07:35:56Z</time>
      </trkpt>
      <trkpt lat="46.46983" lon="5.83694">
        <ele>883.8</ele>
        <time>2021-10-17T07:35:57Z</time>
      </trkpt>
      <trkpt lat="46.46978" lon="5.83693">
        <ele>884</ele>
        <time>2021-10-17T07:35:58Z</time>
      </trkpt>
      <trkpt lat="46.46972" lon="5.83691">
        <ele>884.4</ele>
        <time>2021-10-17T07:35:59Z</time>
      </trkpt>
      <trkpt lat="46.46967" lon="5.83691">
        <ele>884.6</ele>
        <time>2021-10-17T07:36:00Z</time>
      </trkpt>
      <trkpt lat="46.46961" lon="5.8369">
        <ele>885</ele>
        <time>2021-10-17T07:36:01Z</time>
      </trkpt>
      <trkpt lat="46.46956" lon="5.83689">
        <ele>885.2</ele>
        <time>2021-10-17T07:36:02Z</time>
      </trkpt>
      <trkpt lat="46.4695" lon="5.83689">
        <ele>885.4</ele>
        <time>2021-10-17T07:36:03Z</time>
      </trkpt>
      <trkpt lat="46.46945" lon="5.83689">
        <ele>885.8</ele>
        <time>2021-10-17T07:36:04Z</time>
      </trkpt>
      <trkpt lat="46.46939" lon="5.83689">
        <ele>886</ele>
        <time>2021-10-17T07:36:05Z</time>
      </trkpt>
      <trkpt lat="46.46933" lon="5.83689">
        <ele>886</ele>
        <time>2021-10-17T07:36:06Z</time>
      </trkpt>
      <trkpt lat="46.46927" lon="5.83688">
        <ele>886.4</ele>
        <time>2021-10-17T07:36:07Z</time>
      </trkpt>
      <trkpt lat="46.46922" lon="5.83688">
        <ele>886.4</ele>
        <time>2021-10-17T07:36:08Z</time>
      </trkpt>
      <trkpt lat="46.46916" lon="5.83689">
        <ele>886.6</ele>
        <time>2021-10-17T07:36:09Z</time>
      </trkpt>
      <trkpt lat="46.4691" lon="5.8369">
        <ele>886.6</ele>
        <time>2021-10-17T07:36:10Z</time>
      </trkpt>
      <trkpt lat="46.46905" lon="5.83691">
        <ele>887</ele>
        <time>2021-10-17T07:36:11Z</time>
      </trkpt>
      <trkpt lat="46.46899" lon="5.83692">
        <ele>887.4</ele>
        <time>2021-10-17T07:36:12Z</time>
      </trkpt>
      <trkpt lat="46.46894" lon="5.83693">
        <ele>887.6</ele>
        <time>2021-10-17T07:36:13Z</time>
      </trkpt>
      <trkpt lat="46.46888" lon="5.83694">
        <ele>888</ele>
        <time>2021-10-17T07:36:14Z</time>
      </trkpt>
      <trkpt lat="46.46883" lon="5.83695">
        <ele>888.2</ele>
        <time>2021-10-17T07:36:15Z</time>
      </trkpt>
      <trkpt lat="46.46878" lon="5.83697">
        <ele>888.6</ele>
        <time>2021-10-17T07:36:16Z</time>
      </trkpt>
      <trkpt lat="46.46873" lon="5.83697">
        <ele>888.8</ele>
        <time>2021-10-17T07:36:17Z</time>
      </trkpt>
      <trkpt lat="46.46868" lon="5.83697">
        <ele>889.2</ele>
        <time>2021-10-17T07:36:18Z</time>
      </trkpt>
      <trkpt lat="46.46862" lon="5.83697">
        <ele>889.4</ele>
        <time>2021-10-17T07:36:19Z</time>
      </trkpt>
      <trkpt lat="46.46858" lon="5.83696">
        <ele>889.6</ele>
        <time>2021-10-17T07:36:20Z</time>
      </trkpt>
      <trkpt lat="46.46853" lon="5.83695">
        <ele>889.8</ele>
        <time>2021-10-17T07:36:21Z</time>
      </trkpt>
      <trkpt lat="46.46848" lon="5.83695">
        <ele>890.2</ele>
        <time>2021-10-17T07:36:22Z</time>
      </trkpt>
      <trkpt lat="46.46844" lon="5.83693">
        <ele>890.4</ele>
        <time>2021-10-17T07:36:23Z</time>
      </trkpt>
      <trkpt lat="46.4684" lon="5.83692">
        <ele>890.8</ele>
        <time>2021-10-17T07:36:24Z</time>
      </trkpt>
      <trkpt lat="46.46836" lon="5.83691">
        <ele>891.2</ele>
        <time>2021-10-17T07:36:25Z</time>
      </trkpt>
      <trkpt lat="46.46833" lon="5.83689">
        <ele>891.4</ele>
        <time>2021-10-17T07:36:26Z</time>
      </trkpt>
      <trkpt lat="46.46829" lon="5.83687">
        <ele>891.8</ele>
        <time>2021-10-17T07:36:27Z</time>
      </trkpt>
      <trkpt lat="46.46827" lon="5.83685">
        <ele>892.2</ele>
        <time>2021-10-17T07:36:28Z</time>
      </trkpt>
      <trkpt lat="46.46824" lon="5.83685">
        <ele>892.6</ele>
        <time>2021-10-17T07:36:29Z</time>
      </trkpt>
      <trkpt lat="46.46822" lon="5.83685">
        <ele>893</ele>
        <time>2021-10-17T07:36:30Z</time>
      </trkpt>
      <trkpt lat="46.46819" lon="5.83685">
        <ele>893.2</ele>
        <time>2021-10-17T07:36:31Z</time>
      </trkpt>
      <trkpt lat="46.46817" lon="5.83684">
        <ele>893.6</ele>
        <time>2021-10-17T07:36:32Z</time>
      </trkpt>
      <trkpt lat="46.46815" lon="5.83684">
        <ele>893.8</ele>
        <time>2021-10-17T07:36:33Z</time>
      </trkpt>
      <trkpt lat="46.46812" lon="5.83684">
        <ele>894</ele>
        <time>2021-10-17T07:36:34Z</time>
      </trkpt>
      <trkpt lat="46.4681" lon="5.83684">
        <ele>894</ele>
        <time>2021-10-17T07:36:35Z</time>
      </trkpt>
      <trkpt lat="46.46808" lon="5.83685">
        <ele>894.4</ele>
        <time>2021-10-17T07:36:36Z</time>
      </trkpt>
      <trkpt lat="46.46806" lon="5.83686">
        <ele>894.4</ele>
        <time>2021-10-17T07:36:37Z</time>
      </trkpt>
      <trkpt lat="46.46803" lon="5.83686">
        <ele>894.8</ele>
        <time>2021-10-17T07:36:38Z</time>
      </trkpt>
      <trkpt lat="46.46801" lon="5.83688">
        <ele>894.8</ele>
        <time>2021-10-17T07:36:39Z</time>
      </trkpt>
      <trkpt lat="46.46798" lon="5.83689">
        <ele>895.2</ele>
        <time>2021-10-17T07:36:40Z</time>
      </trkpt>
      <trkpt lat="46.46796" lon="5.8369">
        <ele>895.2</ele>
        <time>2021-10-17T07:36:41Z</time>
      </trkpt>
      <trkpt lat="46.46793" lon="5.83691">
        <ele>895.6</ele>
        <time>2021-10-17T07:36:42Z</time>
      </trkpt>
      <trkpt lat="46.46789" lon="5.83693">
        <ele>895.6</ele>
        <time>2021-10-17T07:36:43Z</time>
      </trkpt>
      <trkpt lat="46.46785" lon="5.83694">
        <ele>896</ele>
        <time>2021-10-17T07:36:44Z</time>
      </trkpt>
      <trkpt lat="46.46782" lon="5.83695">
        <ele>896</ele>
        <time>2021-10-17T07:36:45Z</time>
      </trkpt>
      <trkpt lat="46.4678" lon="5.83696">
        <ele>896.4</ele>
        <time>2021-10-17T07:36:46Z</time>
      </trkpt>
      <trkpt lat="46.46778" lon="5.83697">
        <ele>896.6</ele>
        <time>2021-10-17T07:36:47Z</time>
      </trkpt>
      <trkpt lat="46.46776" lon="5.83698">
        <ele>896.6</ele>
        <time>2021-10-17T07:36:48Z</time>
      </trkpt>
      <trkpt lat="46.46773" lon="5.837">
        <ele>896.8</ele>
        <time>2021-10-17T07:36:49Z</time>
      </trkpt>
      <trkpt lat="46.46771" lon="5.83702">
        <ele>897.2</ele>
        <time>2021-10-17T07:36:50Z</time>
      </trkpt>
      <trkpt lat="46.46768" lon="5.83704">
        <ele>897.2</ele>
        <time>2021-10-17T07:36:51Z</time>
      </trkpt>
      <trkpt lat="46.46765" lon="5.83706">
        <ele>897.4</ele>
        <time>2021-10-17T07:36:52Z</time>
      </trkpt>
      <trkpt lat="46.46762" lon="5.83708">
        <ele>897.6</ele>
        <time>2021-10-17T07:36:53Z</time>
      </trkpt>
      <trkpt lat="46.46759" lon="5.8371">
        <ele>897.8</ele>
        <time>2021-10-17T07:36:54Z</time>
      </trkpt>
      <trkpt lat="46.46757" lon="5.83712">
        <ele>897.8</ele>
        <time>2021-10-17T07:36:55Z</time>
      </trkpt>
      <trkpt lat="46.46755" lon="5.83715">
        <ele>898.2</ele>
        <time>2021-10-17T07:36:56Z</time>
      </trkpt>
      <trkpt lat="46.46752" lon="5.83719">
        <ele>898.2</ele>
        <time>2021-10-17T07:36:57Z</time>
      </trkpt>
      <trkpt lat="46.4675" lon="5.83722">
        <ele>898.4</ele>
        <time>2021-10-17T07:36:58Z</time>
      </trkpt>
      <trkpt lat="46.46748" lon="5.83725">
        <ele>898.4</ele>
        <time>2021-10-17T07:36:59Z</time>
      </trkpt>
      <trkpt lat="46.46746" lon="5.83728">
        <ele>898.8</ele>
        <time>2021-10-17T07:37:00Z</time>
      </trkpt>
      <trkpt lat="46.46744" lon="5.83731">
        <ele>899.2</ele>
        <time>2021-10-17T07:37:01Z</time>
      </trkpt>
      <trkpt lat="46.46742" lon="5.83734">
        <ele>899.4</ele>
        <time>2021-10-17T07:37:02Z</time>
      </trkpt>
      <trkpt lat="46.46741" lon="5.83738">
        <ele>899.6</ele>
        <time>2021-10-17T07:37:03Z</time>
      </trkpt>
      <trkpt lat="46.46738" lon="5.8374">
        <ele>899.6</ele>
        <time>2021-10-17T07:37:04Z</time>
      </trkpt>
      <trkpt lat="46.46736" lon="5.83743">
        <ele>900</ele>
        <time>2021-10-17T07:37:05Z</time>
      </trkpt>
      <trkpt lat="46.46734" lon="5.83745">
        <ele>900</ele>
        <time>2021-10-17T07:37:06Z</time>
      </trkpt>
      <trkpt lat="46.46731" lon="5.83747">
        <ele>900.4</ele>
        <time>2021-10-17T07:37:07Z</time>
      </trkpt>
      <trkpt lat="46.46728" lon="5.83749">
        <ele>900.4</ele>
        <time>2021-10-17T07:37:08Z</time>
      </trkpt>
      <trkpt lat="46.46725" lon="5.83752">
        <ele>900.6</ele>
        <time>2021-10-17T07:37:09Z</time>
      </trkpt>
      <trkpt lat="46.46721" lon="5.83754">
        <ele>900.6</ele>
        <time>2021-10-17T07:37:10Z</time>
      </trkpt>
      <trkpt lat="46.46717" lon="5.83756">
        <ele>900.6</ele>
        <time>2021-10-17T07:37:11Z</time>
      </trkpt>
      <trkpt lat="46.46712" lon="5.83757">
        <ele>900.6</ele>
        <time>2021-10-17T07:37:12Z</time>
      </trkpt>
      <trkpt lat="46.46708" lon="5.83758">
        <ele>900.6</ele>
        <time>2021-10-17T07:37:13Z</time>
      </trkpt>
      <trkpt lat="46.46703" lon="5.83759">
        <ele>900.6</ele>
        <time>2021-10-17T07:37:14Z</time>
      </trkpt>
      <trkpt lat="46.46698" lon="5.8376">
        <ele>900.4</ele>
        <time>2021-10-17T07:37:15Z</time>
      </trkpt>
      <trkpt lat="46.46693" lon="5.83761">
        <ele>900.4</ele>
        <time>2021-10-17T07:37:16Z</time>
      </trkpt>
      <trkpt lat="46.46689" lon="5.83762">
        <ele>900.4</ele>
        <time>2021-10-17T07:37:17Z</time>
      </trkpt>
      <trkpt lat="46.46684" lon="5.83762">
        <ele>900.4</ele>
        <time>2021-10-17T07:37:18Z</time>
      </trkpt>
      <trkpt lat="46.4668" lon="5.83762">
        <ele>900.4</ele>
        <time>2021-10-17T07:37:19Z</time>
      </trkpt>
      <trkpt lat="46.46675" lon="5.83762">
        <ele>900.6</ele>
        <time>2021-10-17T07:37:20Z</time>
      </trkpt>
      <trkpt lat="46.46671" lon="5.83761">
        <ele>900.6</ele>
        <time>2021-10-17T07:37:21Z</time>
      </trkpt>
      <trkpt lat="46.46667" lon="5.8376">
        <ele>900.6</ele>
        <time>2021-10-17T07:37:22Z</time>
      </trkpt>
      <trkpt lat="46.46664" lon="5.83759">
        <ele>901</ele>
        <time>2021-10-17T07:37:23Z</time>
      </trkpt>
      <trkpt lat="46.4666" lon="5.83757">
        <ele>901</ele>
        <time>2021-10-17T07:37:24Z</time>
      </trkpt>
      <trkpt lat="46.46657" lon="5.83755">
        <ele>901.2</ele>
        <time>2021-10-17T07:37:25Z</time>
      </trkpt>
      <trkpt lat="46.46654" lon="5.83754">
        <ele>901.2</ele>
        <time>2021-10-17T07:37:26Z</time>
      </trkpt>
      <trkpt lat="46.4665" lon="5.83752">
        <ele>901.6</ele>
        <time>2021-10-17T07:37:27Z</time>
      </trkpt>
      <trkpt lat="46.46647" lon="5.8375">
        <ele>901.6</ele>
        <time>2021-10-17T07:37:28Z</time>
      </trkpt>
      <trkpt lat="46.46644" lon="5.83748">
        <ele>901.6</ele>
        <time>2021-10-17T07:37:29Z</time>
      </trkpt>
      <trkpt lat="46.4664" lon="5.83746">
        <ele>901.8</ele>
        <time>2021-10-17T07:37:30Z</time>
      </trkpt>
      <trkpt lat="46.46637" lon="5.83745">
        <ele>901.8</ele>
        <time>2021-10-17T07:37:31Z</time>
      </trkpt>
      <trkpt lat="46.46634" lon="5.83743">
        <ele>901.8</ele>
        <time>2021-10-17T07:37:32Z</time>
      </trkpt>
      <trkpt lat="46.4663" lon="5.8374">
        <ele>901.8</ele>
        <time>2021-10-17T07:37:33Z</time>
      </trkpt>
      <trkpt lat="46.46627" lon="5.83737">
        <ele>901.8</ele>
        <time>2021-10-17T07:37:34Z</time>
      </trkpt>
      <trkpt lat="46.46623" lon="5.83734">
        <ele>901.8</ele>
        <time>2021-10-17T07:37:35Z</time>
      </trkpt>
      <trkpt lat="46.4662" lon="5.83731">
        <ele>901.8</ele>
        <time>2021-10-17T07:37:36Z</time>
      </trkpt>
      <trkpt lat="46.46616" lon="5.83727">
        <ele>901.4</ele>
        <time>2021-10-17T07:37:37Z</time>
      </trkpt>
      <trkpt lat="46.46612" lon="5.83724">
        <ele>901.4</ele>
        <time>2021-10-17T07:37:38Z</time>
      </trkpt>
      <trkpt lat="46.46607" lon="5.83722">
        <ele>901</ele>
        <time>2021-10-17T07:37:39Z</time>
      </trkpt>
      <trkpt lat="46.46601" lon="5.8372">
        <ele>900.8</ele>
        <time>2021-10-17T07:37:40Z</time>
      </trkpt>
      <trkpt lat="46.46595" lon="5.83718">
        <ele>900.4</ele>
        <time>2021-10-17T07:37:41Z</time>
      </trkpt>
      <trkpt lat="46.46589" lon="5.83716">
        <ele>900</ele>
        <time>2021-10-17T07:37:42Z</time>
      </trkpt>
      <trkpt lat="46.46581" lon="5.83714">
        <ele>899.4</ele>
        <time>2021-10-17T07:37:43Z</time>
      </trkpt>
      <trkpt lat="46.46574" lon="5.83712">
        <ele>899</ele>
        <time>2021-10-17T07:37:44Z</time>
      </trkpt>
      <trkpt lat="46.46567" lon="5.83709">
        <ele>898.4</ele>
        <time>2021-10-17T07:37:45Z</time>
      </trkpt>
      <trkpt lat="46.4656" lon="5.83706">
        <ele>897.8</ele>
        <time>2021-10-17T07:37:46Z</time>
      </trkpt>
      <trkpt lat="46.46554" lon="5.83704">
        <ele>897.2</ele>
        <time>2021-10-17T07:37:47Z</time>
      </trkpt>
      <trkpt lat="46.46548" lon="5.83702">
        <ele>896.8</ele>
        <time>2021-10-17T07:37:48Z</time>
      </trkpt>
      <trkpt lat="46.46541" lon="5.83702">
        <ele>896</ele>
        <time>2021-10-17T07:37:49Z</time>
      </trkpt>
      <trkpt lat="46.46533" lon="5.83702">
        <ele>895.4</ele>
        <time>2021-10-17T07:37:50Z</time>
      </trkpt>
      <trkpt lat="46.46526" lon="5.83702">
        <ele>894.6</ele>
        <time>2021-10-17T07:37:51Z</time>
      </trkpt>
      <trkpt lat="46.46519" lon="5.83703">
        <ele>894</ele>
        <time>2021-10-17T07:37:52Z</time>
      </trkpt>
      <trkpt lat="46.46511" lon="5.83703">
        <ele>893.4</ele>
        <time>2021-10-17T07:37:53Z</time>
      </trkpt>
      <trkpt lat="46.46503" lon="5.83702">
        <ele>892.6</ele>
        <time>2021-10-17T07:37:54Z</time>
      </trkpt>
      <trkpt lat="46.46495" lon="5.837">
        <ele>892</ele>
        <time>2021-10-17T07:37:55Z</time>
      </trkpt>
      <trkpt lat="46.46486" lon="5.83697">
        <ele>891.2</ele>
        <time>2021-10-17T07:37:56Z</time>
      </trkpt>
      <trkpt lat="46.46475" lon="5.83693">
        <ele>890.2</ele>
        <time>2021-10-17T07:37:57Z</time>
      </trkpt>
      <trkpt lat="46.46464" lon="5.83689">
        <ele>889.4</ele>
        <time>2021-10-17T07:37:58Z</time>
      </trkpt>
      <trkpt lat="46.46453" lon="5.83684">
        <ele>888.4</ele>
        <time>2021-10-17T07:37:59Z</time>
      </trkpt>
      <trkpt lat="46.46444" lon="5.83678">
        <ele>887.6</ele>
        <time>2021-10-17T07:38:00Z</time>
      </trkpt>
      <trkpt lat="46.46433" lon="5.83673">
        <ele>886.8</ele>
        <time>2021-10-17T07:38:01Z</time>
      </trkpt>
      <trkpt lat="46.46422" lon="5.8367">
        <ele>886.2</ele>
        <time>2021-10-17T07:38:02Z</time>
      </trkpt>
      <trkpt lat="46.46413" lon="5.83664">
        <ele>885.6</ele>
        <time>2021-10-17T07:38:03Z</time>
      </trkpt>
      <trkpt lat="46.46404" lon="5.83659">
        <ele>885.2</ele>
        <time>2021-10-17T07:38:04Z</time>
      </trkpt>
      <trkpt lat="46.46395" lon="5.83657">
        <ele>885</ele>
        <time>2021-10-17T07:38:05Z</time>
      </trkpt>
      <trkpt lat="46.46387" lon="5.83657">
        <ele>884.8</ele>
        <time>2021-10-17T07:38:06Z</time>
      </trkpt>
      <trkpt lat="46.46379" lon="5.83659">
        <ele>884.8</ele>
        <time>2021-10-17T07:38:07Z</time>
      </trkpt>
      <trkpt lat="46.4637" lon="5.83662">
        <ele>884.2</ele>
        <time>2021-10-17T07:38:08Z</time>
      </trkpt>
      <trkpt lat="46.46362" lon="5.83666">
        <ele>884</ele>
        <time>2021-10-17T07:38:09Z</time>
      </trkpt>
      <trkpt lat="46.46353" lon="5.8367">
        <ele>883.6</ele>
        <time>2021-10-17T07:38:10Z</time>
      </trkpt>
      <trkpt lat="46.46345" lon="5.83674">
        <ele>883.2</ele>
        <time>2021-10-17T07:38:11Z</time>
      </trkpt>
      <trkpt lat="46.46336" lon="5.83677">
        <ele>883</ele>
        <time>2021-10-17T07:38:12Z</time>
      </trkpt>
      <trkpt lat="46.46328" lon="5.83677">
        <ele>882.8</ele>
        <time>2021-10-17T07:38:13Z</time>
      </trkpt>
      <trkpt lat="46.46319" lon="5.83677">
        <ele>882.8</ele>
        <time>2021-10-17T07:38:14Z</time>
      </trkpt>
      <trkpt lat="46.46312" lon="5.83679">
        <ele>882.8</ele>
        <time>2021-10-17T07:38:15Z</time>
      </trkpt>
      <trkpt lat="46.46305" lon="5.83683">
        <ele>882.6</ele>
        <time>2021-10-17T07:38:16Z</time>
      </trkpt>
      <trkpt lat="46.46299" lon="5.8369">
        <ele>882.6</ele>
        <time>2021-10-17T07:38:17Z</time>
      </trkpt>
      <trkpt lat="46.46294" lon="5.83698">
        <ele>882.6</ele>
        <time>2021-10-17T07:38:18Z</time>
      </trkpt>
      <trkpt lat="46.46291" lon="5.83706">
        <ele>882.6</ele>
        <time>2021-10-17T07:38:19Z</time>
      </trkpt>
      <trkpt lat="46.46288" lon="5.83714">
        <ele>882.6</ele>
        <time>2021-10-17T07:38:20Z</time>
      </trkpt>
      <trkpt lat="46.46284" lon="5.83723">
        <ele>882.6</ele>
        <time>2021-10-17T07:38:21Z</time>
      </trkpt>
      <trkpt lat="46.46281" lon="5.83731">
        <ele>882.6</ele>
        <time>2021-10-17T07:38:22Z</time>
      </trkpt>
      <trkpt lat="46.46277" lon="5.8374">
        <ele>881.8</ele>
        <time>2021-10-17T07:38:23Z</time>
      </trkpt>
      <trkpt lat="46.46272" lon="5.83749">
        <ele>881.4</ele>
        <time>2021-10-17T07:38:24Z</time>
      </trkpt>
      <trkpt lat="46.46268" lon="5.83759">
        <ele>880.8</ele>
        <time>2021-10-17T07:38:25Z</time>
      </trkpt>
      <trkpt lat="46.46263" lon="5.83769">
        <ele>880.4</ele>
        <time>2021-10-17T07:38:26Z</time>
      </trkpt>
      <trkpt lat="46.46257" lon="5.83779">
        <ele>879.8</ele>
        <time>2021-10-17T07:38:27Z</time>
      </trkpt>
      <trkpt lat="46.4625" lon="5.83788">
        <ele>879.2</ele>
        <time>2021-10-17T07:38:28Z</time>
      </trkpt>
      <trkpt lat="46.46244" lon="5.83797">
        <ele>878.6</ele>
        <time>2021-10-17T07:38:29Z</time>
      </trkpt>
      <trkpt lat="46.46237" lon="5.83805">
        <ele>878.4</ele>
        <time>2021-10-17T07:38:30Z</time>
      </trkpt>
      <trkpt lat="46.46231" lon="5.83813">
        <ele>878.2</ele>
        <time>2021-10-17T07:38:31Z</time>
      </trkpt>
      <trkpt lat="46.46224" lon="5.83819">
        <ele>878.2</ele>
        <time>2021-10-17T07:38:32Z</time>
      </trkpt>
      <trkpt lat="46.46217" lon="5.83826">
        <ele>878</ele>
        <time>2021-10-17T07:38:33Z</time>
      </trkpt>
      <trkpt lat="46.4621" lon="5.83833">
        <ele>878</ele>
        <time>2021-10-17T07:38:34Z</time>
      </trkpt>
      <trkpt lat="46.46204" lon="5.83839">
        <ele>878</ele>
        <time>2021-10-17T07:38:35Z</time>
      </trkpt>
      <trkpt lat="46.46197" lon="5.83845">
        <ele>878</ele>
        <time>2021-10-17T07:38:36Z</time>
      </trkpt>
      <trkpt lat="46.46191" lon="5.83849">
        <ele>878</ele>
        <time>2021-10-17T07:38:37Z</time>
      </trkpt>
      <trkpt lat="46.46185" lon="5.83853">
        <ele>878.2</ele>
        <time>2021-10-17T07:38:38Z</time>
      </trkpt>
      <trkpt lat="46.46178" lon="5.83857">
        <ele>878.2</ele>
        <time>2021-10-17T07:38:39Z</time>
      </trkpt>
      <trkpt lat="46.46172" lon="5.83861">
        <ele>878.2</ele>
        <time>2021-10-17T07:38:40Z</time>
      </trkpt>
      <trkpt lat="46.46166" lon="5.83864">
        <ele>878.8</ele>
        <time>2021-10-17T07:38:41Z</time>
      </trkpt>
      <trkpt lat="46.46161" lon="5.83866">
        <ele>878.8</ele>
        <time>2021-10-17T07:38:42Z</time>
      </trkpt>
      <trkpt lat="46.46155" lon="5.83869">
        <ele>879.2</ele>
        <time>2021-10-17T07:38:43Z</time>
      </trkpt>
      <trkpt lat="46.46149" lon="5.83872">
        <ele>879.4</ele>
        <time>2021-10-17T07:38:44Z</time>
      </trkpt>
      <trkpt lat="46.46143" lon="5.83874">
        <ele>879.4</ele>
        <time>2021-10-17T07:38:45Z</time>
      </trkpt>
      <trkpt lat="46.46136" lon="5.83876">
        <ele>879.6</ele>
        <time>2021-10-17T07:38:46Z</time>
      </trkpt>
      <trkpt lat="46.4613" lon="5.83878">
        <ele>879.6</ele>
        <time>2021-10-17T07:38:47Z</time>
      </trkpt>
      <trkpt lat="46.46124" lon="5.83881">
        <ele>880</ele>
        <time>2021-10-17T07:38:48Z</time>
      </trkpt>
      <trkpt lat="46.46118" lon="5.83884">
        <ele>880</ele>
        <time>2021-10-17T07:38:49Z</time>
      </trkpt>
      <trkpt lat="46.46113" lon="5.83888">
        <ele>880</ele>
        <time>2021-10-17T07:38:50Z</time>
      </trkpt>
      <trkpt lat="46.46108" lon="5.83893">
        <ele>880</ele>
        <time>2021-10-17T07:38:51Z</time>
      </trkpt>
      <trkpt lat="46.46103" lon="5.83897">
        <ele>880.2</ele>
        <time>2021-10-17T07:38:52Z</time>
      </trkpt>
      <trkpt lat="46.46098" lon="5.83903">
        <ele>880.2</ele>
        <time>2021-10-17T07:38:53Z</time>
      </trkpt>
      <trkpt lat="46.46094" lon="5.83909">
        <ele>880.6</ele>
        <time>2021-10-17T07:38:54Z</time>
      </trkpt>
      <trkpt lat="46.4609" lon="5.83915">
        <ele>880.6</ele>
        <time>2021-10-17T07:38:55Z</time>
      </trkpt>
      <trkpt lat="46.46087" lon="5.83921">
        <ele>881</ele>
        <time>2021-10-17T07:38:56Z</time>
      </trkpt>
      <trkpt lat="46.46085" lon="5.83928">
        <ele>881</ele>
        <time>2021-10-17T07:38:57Z</time>
      </trkpt>
      <trkpt lat="46.46084" lon="5.83935">
        <ele>881</ele>
        <time>2021-10-17T07:38:58Z</time>
      </trkpt>
      <trkpt lat="46.46084" lon="5.83943">
        <ele>881</ele>
        <time>2021-10-17T07:38:59Z</time>
      </trkpt>
      <trkpt lat="46.46085" lon="5.83952">
        <ele>881</ele>
        <time>2021-10-17T07:39:00Z</time>
      </trkpt>
      <trkpt lat="46.46087" lon="5.8396">
        <ele>880.6</ele>
        <time>2021-10-17T07:39:01Z</time>
      </trkpt>
      <trkpt lat="46.4609" lon="5.83968">
        <ele>880.4</ele>
        <time>2021-10-17T07:39:02Z</time>
      </trkpt>
      <trkpt lat="46.46092" lon="5.83977">
        <ele>880</ele>
        <time>2021-10-17T07:39:03Z</time>
      </trkpt>
      <trkpt lat="46.46095" lon="5.83987">
        <ele>879.4</ele>
        <time>2021-10-17T07:39:04Z</time>
      </trkpt>
      <trkpt lat="46.46097" lon="5.83995">
        <ele>879</ele>
        <time>2021-10-17T07:39:05Z</time>
      </trkpt>
      <trkpt lat="46.46098" lon="5.84003">
        <ele>878.4</ele>
        <time>2021-10-17T07:39:06Z</time>
      </trkpt>
      <trkpt lat="46.46097" lon="5.84011">
        <ele>877.8</ele>
        <time>2021-10-17T07:39:07Z</time>
      </trkpt>
      <trkpt lat="46.46094" lon="5.8402">
        <ele>877.2</ele>
        <time>2021-10-17T07:39:08Z</time>
      </trkpt>
      <trkpt lat="46.46089" lon="5.84027">
        <ele>876.6</ele>
        <time>2021-10-17T07:39:09Z</time>
      </trkpt>
      <trkpt lat="46.46082" lon="5.84033">
        <ele>875.8</ele>
        <time>2021-10-17T07:39:10Z</time>
      </trkpt>
      <trkpt lat="46.46074" lon="5.84038">
        <ele>875.2</ele>
        <time>2021-10-17T07:39:11Z</time>
      </trkpt>
      <trkpt lat="46.46066" lon="5.84043">
        <ele>874.4</ele>
        <time>2021-10-17T07:39:12Z</time>
      </trkpt>
      <trkpt lat="46.46058" lon="5.84049">
        <ele>873.6</ele>
        <time>2021-10-17T07:39:13Z</time>
      </trkpt>
      <trkpt lat="46.46051" lon="5.84057">
        <ele>872.8</ele>
        <time>2021-10-17T07:39:14Z</time>
      </trkpt>
      <trkpt lat="46.46044" lon="5.84066">
        <ele>871.8</ele>
        <time>2021-10-17T07:39:15Z</time>
      </trkpt>
      <trkpt lat="46.46037" lon="5.84076">
        <ele>871</ele>
        <time>2021-10-17T07:39:16Z</time>
      </trkpt>
      <trkpt lat="46.46031" lon="5.84087">
        <ele>870.2</ele>
        <time>2021-10-17T07:39:17Z</time>
      </trkpt>
      <trkpt lat="46.46024" lon="5.84098">
        <ele>869.2</ele>
        <time>2021-10-17T07:39:18Z</time>
      </trkpt>
      <trkpt lat="46.46016" lon="5.84108">
        <ele>868.4</ele>
        <time>2021-10-17T07:39:19Z</time>
      </trkpt>
      <trkpt lat="46.46007" lon="5.84115">
        <ele>867.6</ele>
        <time>2021-10-17T07:39:20Z</time>
      </trkpt>
      <trkpt lat="46.45997" lon="5.84123">
        <ele>866.6</ele>
        <time>2021-10-17T07:39:21Z</time>
      </trkpt>
      <trkpt lat="46.45987" lon="5.84132">
        <ele>865.6</ele>
        <time>2021-10-17T07:39:22Z</time>
      </trkpt>
      <trkpt lat="46.45978" lon="5.84144">
        <ele>864.8</ele>
        <time>2021-10-17T07:39:23Z</time>
      </trkpt>
      <trkpt lat="46.45969" lon="5.8416">
        <ele>864</ele>
        <time>2021-10-17T07:39:24Z</time>
      </trkpt>
      <trkpt lat="46.45965" lon="5.84176">
        <ele>863.2</ele>
        <time>2021-10-17T07:39:25Z</time>
      </trkpt>
      <trkpt lat="46.45962" lon="5.84193">
        <ele>862.4</ele>
        <time>2021-10-17T07:39:26Z</time>
      </trkpt>
      <trkpt lat="46.45962" lon="5.84208">
        <ele>861.4</ele>
        <time>2021-10-17T07:39:27Z</time>
      </trkpt>
      <trkpt lat="46.45962" lon="5.84223">
        <ele>860.6</ele>
        <time>2021-10-17T07:39:28Z</time>
      </trkpt>
      <trkpt lat="46.45964" lon="5.84238">
        <ele>859.8</ele>
        <time>2021-10-17T07:39:29Z</time>
      </trkpt>
      <trkpt lat="46.45965" lon="5.84251">
        <ele>859</ele>
        <time>2021-10-17T07:39:30Z</time>
      </trkpt>
      <trkpt lat="46.45968" lon="5.84263">
        <ele>858.4</ele>
        <time>2021-10-17T07:39:31Z</time>
      </trkpt>
      <trkpt lat="46.45969" lon="5.84272">
        <ele>857.8</ele>
        <time>2021-10-17T07:39:32Z</time>
      </trkpt>
      <trkpt lat="46.45969" lon="5.84281">
        <ele>857.2</ele>
        <time>2021-10-17T07:39:33Z</time>
      </trkpt>
      <trkpt lat="46.45968" lon="5.84289">
        <ele>856.8</ele>
        <time>2021-10-17T07:39:34Z</time>
      </trkpt>
      <trkpt lat="46.45966" lon="5.84296">
        <ele>856.4</ele>
        <time>2021-10-17T07:39:35Z</time>
      </trkpt>
      <trkpt lat="46.45962" lon="5.84302">
        <ele>856</ele>
        <time>2021-10-17T07:39:36Z</time>
      </trkpt>
      <trkpt lat="46.45957" lon="5.84308">
        <ele>855.6</ele>
        <time>2021-10-17T07:39:37Z</time>
      </trkpt>
      <trkpt lat="46.45952" lon="5.84314">
        <ele>855.4</ele>
        <time>2021-10-17T07:39:38Z</time>
      </trkpt>
      <trkpt lat="46.45946" lon="5.84319">
        <ele>855.2</ele>
        <time>2021-10-17T07:39:39Z</time>
      </trkpt>
      <trkpt lat="46.4594" lon="5.84324">
        <ele>854.8</ele>
        <time>2021-10-17T07:39:40Z</time>
      </trkpt>
      <trkpt lat="46.45934" lon="5.84329">
        <ele>854.6</ele>
        <time>2021-10-17T07:39:41Z</time>
      </trkpt>
      <trkpt lat="46.45928" lon="5.84334">
        <ele>854.2</ele>
        <time>2021-10-17T07:39:42Z</time>
      </trkpt>
      <trkpt lat="46.45921" lon="5.84338">
        <ele>853.8</ele>
        <time>2021-10-17T07:39:43Z</time>
      </trkpt>
      <trkpt lat="46.45914" lon="5.84341">
        <ele>853.4</ele>
        <time>2021-10-17T07:39:44Z</time>
      </trkpt>
      <trkpt lat="46.45907" lon="5.84344">
        <ele>853</ele>
        <time>2021-10-17T07:39:45Z</time>
      </trkpt>
      <trkpt lat="46.45899" lon="5.84347">
        <ele>852.8</ele>
        <time>2021-10-17T07:39:46Z</time>
      </trkpt>
      <trkpt lat="46.45892" lon="5.8435">
        <ele>852.4</ele>
        <time>2021-10-17T07:39:47Z</time>
      </trkpt>
      <trkpt lat="46.45885" lon="5.84352">
        <ele>852.2</ele>
        <time>2021-10-17T07:39:48Z</time>
      </trkpt>
      <trkpt lat="46.45877" lon="5.84354">
        <ele>851.8</ele>
        <time>2021-10-17T07:39:49Z</time>
      </trkpt>
      <trkpt lat="46.45869" lon="5.84356">
        <ele>851.6</ele>
        <time>2021-10-17T07:39:50Z</time>
      </trkpt>
      <trkpt lat="46.45861" lon="5.84356">
        <ele>851.6</ele>
        <time>2021-10-17T07:39:51Z</time>
      </trkpt>
      <trkpt lat="46.45853" lon="5.84355">
        <ele>851.4</ele>
        <time>2021-10-17T07:39:52Z</time>
      </trkpt>
      <trkpt lat="46.45845" lon="5.84354">
        <ele>851.4</ele>
        <time>2021-10-17T07:39:53Z</time>
      </trkpt>
      <trkpt lat="46.45837" lon="5.84353">
        <ele>851</ele>
        <time>2021-10-17T07:39:54Z</time>
      </trkpt>
      <trkpt lat="46.45828" lon="5.8435">
        <ele>851</ele>
        <time>2021-10-17T07:39:55Z</time>
      </trkpt>
      <trkpt lat="46.4582" lon="5.84348">
        <ele>851</ele>
        <time>2021-10-17T07:39:56Z</time>
      </trkpt>
      <trkpt lat="46.45813" lon="5.84345">
        <ele>850.8</ele>
        <time>2021-10-17T07:39:57Z</time>
      </trkpt>
      <trkpt lat="46.45807" lon="5.84343">
        <ele>850.8</ele>
        <time>2021-10-17T07:39:58Z</time>
      </trkpt>
      <trkpt lat="46.45801" lon="5.84341">
        <ele>850.4</ele>
        <time>2021-10-17T07:39:59Z</time>
      </trkpt>
      <trkpt lat="46.45797" lon="5.8434">
        <ele>850.4</ele>
        <time>2021-10-17T07:40:00Z</time>
      </trkpt>
      <trkpt lat="46.45794" lon="5.84339">
        <ele>850.4</ele>
        <time>2021-10-17T07:40:01Z</time>
      </trkpt>
      <trkpt lat="46.45793" lon="5.8434">
        <ele>850.4</ele>
        <time>2021-10-17T07:40:02Z</time>
      </trkpt>
      <trkpt lat="46.45793" lon="5.84339">
        <ele>850.4</ele>
        <time>2021-10-17T07:40:03Z</time>
      </trkpt>
      <trkpt lat="46.45787" lon="5.84337">
        <ele>850.2</ele>
        <time>2021-10-17T07:42:13Z</time>
      </trkpt>
      <trkpt lat="46.45785" lon="5.84336">
        <ele>850.2</ele>
        <time>2021-10-17T07:42:14Z</time>
      </trkpt>
      <trkpt lat="46.45782" lon="5.84335">
        <ele>850.2</ele>
        <time>2021-10-17T07:42:15Z</time>
      </trkpt>
      <trkpt lat="46.45779" lon="5.84334">
        <ele>850.2</ele>
        <time>2021-10-17T07:42:16Z</time>
      </trkpt>
      <trkpt lat="46.45775" lon="5.84333">
        <ele>850.2</ele>
        <time>2021-10-17T07:42:17Z</time>
      </trkpt>
      <trkpt lat="46.45771" lon="5.84332">
        <ele>850.2</ele>
        <time>2021-10-17T07:42:18Z</time>
      </trkpt>
      <trkpt lat="46.45767" lon="5.8433">
        <ele>850.2</ele>
        <time>2021-10-17T07:42:19Z</time>
      </trkpt>
      <trkpt lat="46.45763" lon="5.84328">
        <ele>850</ele>
        <time>2021-10-17T07:42:20Z</time>
      </trkpt>
      <trkpt lat="46.45759" lon="5.84327">
        <ele>850</ele>
        <time>2021-10-17T07:42:21Z</time>
      </trkpt>
      <trkpt lat="46.45754" lon="5.84325">
        <ele>850</ele>
        <time>2021-10-17T07:42:22Z</time>
      </trkpt>
      <trkpt lat="46.45749" lon="5.84324">
        <ele>850</ele>
        <time>2021-10-17T07:42:23Z</time>
      </trkpt>
      <trkpt lat="46.45744" lon="5.84323">
        <ele>850</ele>
        <time>2021-10-17T07:42:24Z</time>
      </trkpt>
      <trkpt lat="46.45739" lon="5.84322">
        <ele>850</ele>
        <time>2021-10-17T07:42:25Z</time>
      </trkpt>
      <trkpt lat="46.45733" lon="5.84322">
        <ele>850</ele>
        <time>2021-10-17T07:42:26Z</time>
      </trkpt>
      <trkpt lat="46.45728" lon="5.84321">
        <ele>850</ele>
        <time>2021-10-17T07:42:27Z</time>
      </trkpt>
      <trkpt lat="46.45722" lon="5.8432">
        <ele>850</ele>
        <time>2021-10-17T07:42:28Z</time>
      </trkpt>
      <trkpt lat="46.45716" lon="5.8432">
        <ele>850</ele>
        <time>2021-10-17T07:42:29Z</time>
      </trkpt>
      <trkpt lat="46.4571" lon="5.8432">
        <ele>850</ele>
        <time>2021-10-17T07:42:30Z</time>
      </trkpt>
      <trkpt lat="46.45704" lon="5.84319">
        <ele>850</ele>
        <time>2021-10-17T07:42:31Z</time>
      </trkpt>
      <trkpt lat="46.45698" lon="5.84319">
        <ele>850</ele>
        <time>2021-10-17T07:42:32Z</time>
      </trkpt>
      <trkpt lat="46.45692" lon="5.8432">
        <ele>850</ele>
        <time>2021-10-17T07:42:33Z</time>
      </trkpt>
      <trkpt lat="46.45686" lon="5.8432">
        <ele>850</ele>
        <time>2021-10-17T07:42:34Z</time>
      </trkpt>
      <trkpt lat="46.4568" lon="5.84321">
        <ele>850</ele>
        <time>2021-10-17T07:42:35Z</time>
      </trkpt>
      <trkpt lat="46.45674" lon="5.84322">
        <ele>850</ele>
        <time>2021-10-17T07:42:36Z</time>
      </trkpt>
      <trkpt lat="46.45668" lon="5.84323">
        <ele>850</ele>
        <time>2021-10-17T07:42:37Z</time>
      </trkpt>
      <trkpt lat="46.45662" lon="5.84323">
        <ele>850</ele>
        <time>2021-10-17T07:42:38Z</time>
      </trkpt>
      <trkpt lat="46.45656" lon="5.84323">
        <ele>850</ele>
        <time>2021-10-17T07:42:39Z</time>
      </trkpt>
      <trkpt lat="46.4565" lon="5.84324">
        <ele>850.2</ele>
        <time>2021-10-17T07:42:40Z</time>
      </trkpt>
      <trkpt lat="46.45644" lon="5.84325">
        <ele>850.2</ele>
        <time>2021-10-17T07:42:41Z</time>
      </trkpt>
      <trkpt lat="46.45638" lon="5.84326">
        <ele>850.2</ele>
        <time>2021-10-17T07:42:42Z</time>
      </trkpt>
      <trkpt lat="46.45633" lon="5.84327">
        <ele>850.4</ele>
        <time>2021-10-17T07:42:43Z</time>
      </trkpt>
      <trkpt lat="46.45627" lon="5.84328">
        <ele>850.4</ele>
        <time>2021-10-17T07:42:44Z</time>
      </trkpt>
      <trkpt lat="46.45621" lon="5.84328">
        <ele>850.6</ele>
        <time>2021-10-17T07:42:45Z</time>
      </trkpt>
      <trkpt lat="46.45616" lon="5.84329">
        <ele>850.6</ele>
        <time>2021-10-17T07:42:46Z</time>
      </trkpt>
      <trkpt lat="46.45611" lon="5.84329">
        <ele>851</ele>
        <time>2021-10-17T07:42:47Z</time>
      </trkpt>
      <trkpt lat="46.45605" lon="5.8433">
        <ele>851</ele>
        <time>2021-10-17T07:42:48Z</time>
      </trkpt>
      <trkpt lat="46.456" lon="5.84331">
        <ele>851</ele>
        <time>2021-10-17T07:42:49Z</time>
      </trkpt>
      <trkpt lat="46.45594" lon="5.84332">
        <ele>851</ele>
        <time>2021-10-17T07:42:50Z</time>
      </trkpt>
      <trkpt lat="46.45588" lon="5.84332">
        <ele>851</ele>
        <time>2021-10-17T07:42:51Z</time>
      </trkpt>
      <trkpt lat="46.45582" lon="5.84333">
        <ele>851.2</ele>
        <time>2021-10-17T07:42:52Z</time>
      </trkpt>
      <trkpt lat="46.45577" lon="5.84334">
        <ele>851.2</ele>
        <time>2021-10-17T07:42:53Z</time>
      </trkpt>
      <trkpt lat="46.45571" lon="5.84335">
        <ele>851.2</ele>
        <time>2021-10-17T07:42:54Z</time>
      </trkpt>
      <trkpt lat="46.45565" lon="5.84335">
        <ele>851.2</ele>
        <time>2021-10-17T07:42:55Z</time>
      </trkpt>
      <trkpt lat="46.45558" lon="5.84336">
        <ele>851.2</ele>
        <time>2021-10-17T07:42:56Z</time>
      </trkpt>
      <trkpt lat="46.45552" lon="5.84336">
        <ele>851.2</ele>
        <time>2021-10-17T07:42:57Z</time>
      </trkpt>
      <trkpt lat="46.45546" lon="5.84337">
        <ele>851.2</ele>
        <time>2021-10-17T07:42:58Z</time>
      </trkpt>
      <trkpt lat="46.4554" lon="5.84338">
        <ele>851.2</ele>
        <time>2021-10-17T07:42:59Z</time>
      </trkpt>
      <trkpt lat="46.45535" lon="5.84339">
        <ele>851.4</ele>
        <time>2021-10-17T07:43:00Z</time>
      </trkpt>
      <trkpt lat="46.45529" lon="5.8434">
        <ele>851.4</ele>
        <time>2021-10-17T07:43:01Z</time>
      </trkpt>
      <trkpt lat="46.45523" lon="5.84342">
        <ele>851.8</ele>
        <time>2021-10-17T07:43:02Z</time>
      </trkpt>
      <trkpt lat="46.45517" lon="5.84343">
        <ele>851.8</ele>
        <time>2021-10-17T07:43:03Z</time>
      </trkpt>
      <trkpt lat="46.45512" lon="5.84344">
        <ele>852.2</ele>
        <time>2021-10-17T07:43:04Z</time>
      </trkpt>
      <trkpt lat="46.45507" lon="5.84346">
        <ele>852.2</ele>
        <time>2021-10-17T07:43:05Z</time>
      </trkpt>
      <trkpt lat="46.45502" lon="5.84348">
        <ele>852.4</ele>
        <time>2021-10-17T07:43:06Z</time>
      </trkpt>
      <trkpt lat="46.45496" lon="5.84349">
        <ele>852.4</ele>
        <time>2021-10-17T07:43:07Z</time>
      </trkpt>
      <trkpt lat="46.45491" lon="5.8435">
        <ele>852.4</ele>
        <time>2021-10-17T07:43:08Z</time>
      </trkpt>
      <trkpt lat="46.45485" lon="5.84351">
        <ele>852.4</ele>
        <time>2021-10-17T07:43:09Z</time>
      </trkpt>
      <trkpt lat="46.4548" lon="5.84353">
        <ele>852.8</ele>
        <time>2021-10-17T07:43:10Z</time>
      </trkpt>
      <trkpt lat="46.45474" lon="5.84355">
        <ele>852.8</ele>
        <time>2021-10-17T07:43:11Z</time>
      </trkpt>
      <trkpt lat="46.45469" lon="5.84356">
        <ele>853</ele>
        <time>2021-10-17T07:43:12Z</time>
      </trkpt>
      <trkpt lat="46.45463" lon="5.84357">
        <ele>853</ele>
        <time>2021-10-17T07:43:13Z</time>
      </trkpt>
      <trkpt lat="46.45458" lon="5.84358">
        <ele>853.2</ele>
        <time>2021-10-17T07:43:14Z</time>
      </trkpt>
      <trkpt lat="46.45452" lon="5.8436">
        <ele>853.2</ele>
        <time>2021-10-17T07:43:15Z</time>
      </trkpt>
      <trkpt lat="46.45446" lon="5.84361">
        <ele>853.6</ele>
        <time>2021-10-17T07:43:16Z</time>
      </trkpt>
      <trkpt lat="46.4544" lon="5.84364">
        <ele>853.6</ele>
        <time>2021-10-17T07:43:17Z</time>
      </trkpt>
      <trkpt lat="46.45435" lon="5.84367">
        <ele>853.6</ele>
        <time>2021-10-17T07:43:18Z</time>
      </trkpt>
      <trkpt lat="46.4543" lon="5.84369">
        <ele>853.8</ele>
        <time>2021-10-17T07:43:19Z</time>
      </trkpt>
      <trkpt lat="46.45425" lon="5.84372">
        <ele>853.8</ele>
        <time>2021-10-17T07:43:20Z</time>
      </trkpt>
      <trkpt lat="46.4542" lon="5.84375">
        <ele>854</ele>
        <time>2021-10-17T07:43:21Z</time>
      </trkpt>
      <trkpt lat="46.45416" lon="5.84377">
        <ele>854.4</ele>
        <time>2021-10-17T07:43:22Z</time>
      </trkpt>
      <trkpt lat="46.45411" lon="5.84379">
        <ele>854.6</ele>
        <time>2021-10-17T07:43:23Z</time>
      </trkpt>
      <trkpt lat="46.45406" lon="5.84382">
        <ele>854.6</ele>
        <time>2021-10-17T07:43:24Z</time>
      </trkpt>
      <trkpt lat="46.45401" lon="5.84385">
        <ele>854.8</ele>
        <time>2021-10-17T07:43:25Z</time>
      </trkpt>
      <trkpt lat="46.45397" lon="5.84389">
        <ele>854.8</ele>
        <time>2021-10-17T07:43:26Z</time>
      </trkpt>
      <trkpt lat="46.45391" lon="5.84393">
        <ele>855.2</ele>
        <time>2021-10-17T07:43:27Z</time>
      </trkpt>
      <trkpt lat="46.45387" lon="5.84397">
        <ele>855.2</ele>
        <time>2021-10-17T07:43:28Z</time>
      </trkpt>
      <trkpt lat="46.45382" lon="5.84401">
        <ele>855.6</ele>
        <time>2021-10-17T07:43:29Z</time>
      </trkpt>
      <trkpt lat="46.45377" lon="5.84405">
        <ele>855.6</ele>
        <time>2021-10-17T07:43:30Z</time>
      </trkpt>
      <trkpt lat="46.45373" lon="5.84409">
        <ele>856</ele>
        <time>2021-10-17T07:43:31Z</time>
      </trkpt>
      <trkpt lat="46.45368" lon="5.84413">
        <ele>856</ele>
        <time>2021-10-17T07:43:32Z</time>
      </trkpt>
      <trkpt lat="46.45363" lon="5.84417">
        <ele>856.2</ele>
        <time>2021-10-17T07:43:33Z</time>
      </trkpt>
      <trkpt lat="46.45359" lon="5.84421">
        <ele>856.2</ele>
        <time>2021-10-17T07:43:34Z</time>
      </trkpt>
      <trkpt lat="46.45355" lon="5.84427">
        <ele>856.8</ele>
        <time>2021-10-17T07:43:35Z</time>
      </trkpt>
      <trkpt lat="46.45351" lon="5.84431">
        <ele>857</ele>
        <time>2021-10-17T07:43:36Z</time>
      </trkpt>
      <trkpt lat="46.45346" lon="5.84434">
        <ele>857.4</ele>
        <time>2021-10-17T07:43:37Z</time>
      </trkpt>
      <trkpt lat="46.45341" lon="5.84437">
        <ele>857.4</ele>
        <time>2021-10-17T07:43:38Z</time>
      </trkpt>
      <trkpt lat="46.45337" lon="5.8444">
        <ele>857.8</ele>
        <time>2021-10-17T07:43:39Z</time>
      </trkpt>
      <trkpt lat="46.45332" lon="5.84443">
        <ele>858</ele>
        <time>2021-10-17T07:43:40Z</time>
      </trkpt>
      <trkpt lat="46.45327" lon="5.84446">
        <ele>858</ele>
        <time>2021-10-17T07:43:41Z</time>
      </trkpt>
      <trkpt lat="46.45322" lon="5.84449">
        <ele>858.4</ele>
        <time>2021-10-17T07:43:42Z</time>
      </trkpt>
      <trkpt lat="46.45318" lon="5.84451">
        <ele>858.4</ele>
        <time>2021-10-17T07:43:43Z</time>
      </trkpt>
      <trkpt lat="46.45313" lon="5.84453">
        <ele>858.8</ele>
        <time>2021-10-17T07:43:44Z</time>
      </trkpt>
      <trkpt lat="46.45309" lon="5.84455">
        <ele>859</ele>
        <time>2021-10-17T07:43:45Z</time>
      </trkpt>
      <trkpt lat="46.45306" lon="5.84458">
        <ele>859.2</ele>
        <time>2021-10-17T07:43:46Z</time>
      </trkpt>
      <trkpt lat="46.45302" lon="5.8446">
        <ele>859.4</ele>
        <time>2021-10-17T07:43:47Z</time>
      </trkpt>
      <trkpt lat="46.45298" lon="5.84462">
        <ele>859.6</ele>
        <time>2021-10-17T07:43:48Z</time>
      </trkpt>
      <trkpt lat="46.45294" lon="5.84463">
        <ele>859.6</ele>
        <time>2021-10-17T07:43:49Z</time>
      </trkpt>
      <trkpt lat="46.4529" lon="5.84465">
        <ele>860</ele>
        <time>2021-10-17T07:43:50Z</time>
      </trkpt>
      <trkpt lat="46.45286" lon="5.84467">
        <ele>860</ele>
        <time>2021-10-17T07:43:51Z</time>
      </trkpt>
      <trkpt lat="46.45282" lon="5.8447">
        <ele>860.4</ele>
        <time>2021-10-17T07:43:52Z</time>
      </trkpt>
      <trkpt lat="46.45278" lon="5.84471">
        <ele>860.4</ele>
        <time>2021-10-17T07:43:53Z</time>
      </trkpt>
      <trkpt lat="46.45273" lon="5.84473">
        <ele>860.8</ele>
        <time>2021-10-17T07:43:54Z</time>
      </trkpt>
      <trkpt lat="46.45269" lon="5.84474">
        <ele>860.8</ele>
        <time>2021-10-17T07:43:55Z</time>
      </trkpt>
      <trkpt lat="46.45265" lon="5.84476">
        <ele>861.2</ele>
        <time>2021-10-17T07:43:56Z</time>
      </trkpt>
      <trkpt lat="46.4526" lon="5.84478">
        <ele>861.2</ele>
        <time>2021-10-17T07:43:57Z</time>
      </trkpt>
      <trkpt lat="46.45256" lon="5.84481">
        <ele>861.4</ele>
        <time>2021-10-17T07:43:58Z</time>
      </trkpt>
      <trkpt lat="46.45252" lon="5.84484">
        <ele>861.4</ele>
        <time>2021-10-17T07:43:59Z</time>
      </trkpt>
      <trkpt lat="46.45248" lon="5.84487">
        <ele>861.8</ele>
        <time>2021-10-17T07:44:00Z</time>
      </trkpt>
      <trkpt lat="46.45244" lon="5.84489">
        <ele>862</ele>
        <time>2021-10-17T07:44:01Z</time>
      </trkpt>
      <trkpt lat="46.4524" lon="5.84491">
        <ele>862.2</ele>
        <time>2021-10-17T07:44:02Z</time>
      </trkpt>
      <trkpt lat="46.45235" lon="5.84493">
        <ele>862.6</ele>
        <time>2021-10-17T07:44:03Z</time>
      </trkpt>
      <trkpt lat="46.45231" lon="5.84496">
        <ele>862.6</ele>
        <time>2021-10-17T07:44:04Z</time>
      </trkpt>
      <trkpt lat="46.45228" lon="5.84498">
        <ele>863</ele>
        <time>2021-10-17T07:44:05Z</time>
      </trkpt>
      <trkpt lat="46.45223" lon="5.84502">
        <ele>863</ele>
        <time>2021-10-17T07:44:06Z</time>
      </trkpt>
      <trkpt lat="46.45218" lon="5.84508">
        <ele>863.4</ele>
        <time>2021-10-17T07:44:07Z</time>
      </trkpt>
      <trkpt lat="46.45213" lon="5.84513">
        <ele>863.4</ele>
        <time>2021-10-17T07:44:08Z</time>
      </trkpt>
      <trkpt lat="46.45209" lon="5.84517">
        <ele>863.8</ele>
        <time>2021-10-17T07:44:09Z</time>
      </trkpt>
      <trkpt lat="46.45204" lon="5.84522">
        <ele>864</ele>
        <time>2021-10-17T07:44:10Z</time>
      </trkpt>
      <trkpt lat="46.45199" lon="5.84527">
        <ele>864.2</ele>
        <time>2021-10-17T07:44:11Z</time>
      </trkpt>
      <trkpt lat="46.45195" lon="5.84532">
        <ele>864.2</ele>
        <time>2021-10-17T07:44:12Z</time>
      </trkpt>
      <trkpt lat="46.45191" lon="5.84536">
        <ele>864.8</ele>
        <time>2021-10-17T07:44:13Z</time>
      </trkpt>
      <trkpt lat="46.45187" lon="5.8454">
        <ele>865</ele>
        <time>2021-10-17T07:44:14Z</time>
      </trkpt>
      <trkpt lat="46.45183" lon="5.84544">
        <ele>865</ele>
        <time>2021-10-17T07:44:15Z</time>
      </trkpt>
      <trkpt lat="46.45179" lon="5.84547">
        <ele>865.4</ele>
        <time>2021-10-17T07:44:16Z</time>
      </trkpt>
      <trkpt lat="46.45175" lon="5.8455">
        <ele>865.4</ele>
        <time>2021-10-17T07:44:17Z</time>
      </trkpt>
      <trkpt lat="46.45172" lon="5.84553">
        <ele>865.8</ele>
        <time>2021-10-17T07:44:18Z</time>
      </trkpt>
      <trkpt lat="46.45168" lon="5.84556">
        <ele>866</ele>
        <time>2021-10-17T07:44:19Z</time>
      </trkpt>
      <trkpt lat="46.45164" lon="5.8456">
        <ele>866</ele>
        <time>2021-10-17T07:44:20Z</time>
      </trkpt>
      <trkpt lat="46.4516" lon="5.84563">
        <ele>866.4</ele>
        <time>2021-10-17T07:44:21Z</time>
      </trkpt>
      <trkpt lat="46.45156" lon="5.84567">
        <ele>866.4</ele>
        <time>2021-10-17T07:44:22Z</time>
      </trkpt>
      <trkpt lat="46.45153" lon="5.84571">
        <ele>866.8</ele>
        <time>2021-10-17T07:44:23Z</time>
      </trkpt>
      <trkpt lat="46.45151" lon="5.84575">
        <ele>866.8</ele>
        <time>2021-10-17T07:44:24Z</time>
      </trkpt>
      <trkpt lat="46.45147" lon="5.84581">
        <ele>867</ele>
        <time>2021-10-17T07:44:25Z</time>
      </trkpt>
      <trkpt lat="46.45143" lon="5.84587">
        <ele>867</ele>
        <time>2021-10-17T07:44:26Z</time>
      </trkpt>
      <trkpt lat="46.4514" lon="5.84592">
        <ele>867.4</ele>
        <time>2021-10-17T07:44:27Z</time>
      </trkpt>
      <trkpt lat="46.45136" lon="5.846">
        <ele>867.6</ele>
        <time>2021-10-17T07:44:28Z</time>
      </trkpt>
      <trkpt lat="46.45132" lon="5.84607">
        <ele>867.8</ele>
        <time>2021-10-17T07:44:29Z</time>
      </trkpt>
      <trkpt lat="46.45128" lon="5.84615">
        <ele>868.2</ele>
        <time>2021-10-17T07:44:30Z</time>
      </trkpt>
      <trkpt lat="46.45125" lon="5.8462">
        <ele>868.4</ele>
        <time>2021-10-17T07:44:31Z</time>
      </trkpt>
      <trkpt lat="46.45121" lon="5.84625">
        <ele>868.6</ele>
        <time>2021-10-17T07:44:32Z</time>
      </trkpt>
      <trkpt lat="46.45118" lon="5.84631">
        <ele>868.8</ele>
        <time>2021-10-17T07:44:33Z</time>
      </trkpt>
      <trkpt lat="46.45115" lon="5.84636">
        <ele>869</ele>
        <time>2021-10-17T07:44:34Z</time>
      </trkpt>
      <trkpt lat="46.45112" lon="5.84641">
        <ele>869</ele>
        <time>2021-10-17T07:44:35Z</time>
      </trkpt>
      <trkpt lat="46.45108" lon="5.84646">
        <ele>869.4</ele>
        <time>2021-10-17T07:44:36Z</time>
      </trkpt>
      <trkpt lat="46.45106" lon="5.84651">
        <ele>869.8</ele>
        <time>2021-10-17T07:44:37Z</time>
      </trkpt>
      <trkpt lat="46.45102" lon="5.84656">
        <ele>870</ele>
        <time>2021-10-17T07:44:38Z</time>
      </trkpt>
      <trkpt lat="46.45099" lon="5.8466">
        <ele>870.2</ele>
        <time>2021-10-17T07:44:39Z</time>
      </trkpt>
      <trkpt lat="46.45095" lon="5.84664">
        <ele>870.2</ele>
        <time>2021-10-17T07:44:40Z</time>
      </trkpt>
      <trkpt lat="46.45092" lon="5.84667">
        <ele>870.6</ele>
        <time>2021-10-17T07:44:41Z</time>
      </trkpt>
      <trkpt lat="46.45088" lon="5.8467">
        <ele>870.8</ele>
        <time>2021-10-17T07:44:42Z</time>
      </trkpt>
      <trkpt lat="46.45084" lon="5.84673">
        <ele>870.8</ele>
        <time>2021-10-17T07:44:43Z</time>
      </trkpt>
      <trkpt lat="46.4508" lon="5.84675">
        <ele>871.2</ele>
        <time>2021-10-17T07:44:44Z</time>
      </trkpt>
      <trkpt lat="46.45076" lon="5.84678">
        <ele>871.2</ele>
        <time>2021-10-17T07:44:45Z</time>
      </trkpt>
      <trkpt lat="46.45071" lon="5.8468">
        <ele>871.4</ele>
        <time>2021-10-17T07:44:46Z</time>
      </trkpt>
      <trkpt lat="46.45067" lon="5.84683">
        <ele>871.4</ele>
        <time>2021-10-17T07:44:47Z</time>
      </trkpt>
      <trkpt lat="46.45062" lon="5.84685">
        <ele>871.8</ele>
        <time>2021-10-17T07:44:48Z</time>
      </trkpt>
      <trkpt lat="46.45058" lon="5.84688">
        <ele>872.2</ele>
        <time>2021-10-17T07:44:49Z</time>
      </trkpt>
      <trkpt lat="46.45054" lon="5.8469">
        <ele>872.4</ele>
        <time>2021-10-17T07:44:50Z</time>
      </trkpt>
      <trkpt lat="46.45049" lon="5.84692">
        <ele>872.6</ele>
        <time>2021-10-17T07:44:51Z</time>
      </trkpt>
      <trkpt lat="46.45045" lon="5.84693">
        <ele>872.8</ele>
        <time>2021-10-17T07:44:52Z</time>
      </trkpt>
      <trkpt lat="46.45041" lon="5.84694">
        <ele>873.2</ele>
        <time>2021-10-17T07:44:53Z</time>
      </trkpt>
      <trkpt lat="46.45037" lon="5.84696">
        <ele>873.4</ele>
        <time>2021-10-17T07:44:54Z</time>
      </trkpt>
      <trkpt lat="46.45033" lon="5.84699">
        <ele>873.6</ele>
        <time>2021-10-17T07:44:55Z</time>
      </trkpt>
      <trkpt lat="46.45029" lon="5.847">
        <ele>874</ele>
        <time>2021-10-17T07:44:56Z</time>
      </trkpt>
      <trkpt lat="46.45026" lon="5.84701">
        <ele>874.2</ele>
        <time>2021-10-17T07:44:57Z</time>
      </trkpt>
      <trkpt lat="46.45022" lon="5.84703">
        <ele>874.4</ele>
        <time>2021-10-17T07:44:58Z</time>
      </trkpt>
      <trkpt lat="46.45018" lon="5.84705">
        <ele>874.8</ele>
        <time>2021-10-17T07:44:59Z</time>
      </trkpt>
      <trkpt lat="46.45015" lon="5.84706">
        <ele>875</ele>
        <time>2021-10-17T07:45:00Z</time>
      </trkpt>
      <trkpt lat="46.45011" lon="5.84707">
        <ele>875.4</ele>
        <time>2021-10-17T07:45:01Z</time>
      </trkpt>
      <trkpt lat="46.45007" lon="5.8471">
        <ele>875.6</ele>
        <time>2021-10-17T07:45:02Z</time>
      </trkpt>
      <trkpt lat="46.45003" lon="5.84713">
        <ele>876</ele>
        <time>2021-10-17T07:45:03Z</time>
      </trkpt>
      <trkpt lat="46.44999" lon="5.84715">
        <ele>876.2</ele>
        <time>2021-10-17T07:45:04Z</time>
      </trkpt>
      <trkpt lat="46.44995" lon="5.84717">
        <ele>876.2</ele>
        <time>2021-10-17T07:45:05Z</time>
      </trkpt>
      <trkpt lat="46.44992" lon="5.84719">
        <ele>876.4</ele>
        <time>2021-10-17T07:45:06Z</time>
      </trkpt>
      <trkpt lat="46.44988" lon="5.84721">
        <ele>876.4</ele>
        <time>2021-10-17T07:45:07Z</time>
      </trkpt>
      <trkpt lat="46.44984" lon="5.84722">
        <ele>876.8</ele>
        <time>2021-10-17T07:45:08Z</time>
      </trkpt>
      <trkpt lat="46.4498" lon="5.84724">
        <ele>876.8</ele>
        <time>2021-10-17T07:45:09Z</time>
      </trkpt>
      <trkpt lat="46.44977" lon="5.84726">
        <ele>876.8</ele>
        <time>2021-10-17T07:45:10Z</time>
      </trkpt>
      <trkpt lat="46.44973" lon="5.84728">
        <ele>877</ele>
        <time>2021-10-17T07:45:11Z</time>
      </trkpt>
      <trkpt lat="46.44969" lon="5.8473">
        <ele>877</ele>
        <time>2021-10-17T07:45:12Z</time>
      </trkpt>
      <trkpt lat="46.44964" lon="5.84732">
        <ele>877</ele>
        <time>2021-10-17T07:45:13Z</time>
      </trkpt>
      <trkpt lat="46.4496" lon="5.84734">
        <ele>876.8</ele>
        <time>2021-10-17T07:45:14Z</time>
      </trkpt>
      <trkpt lat="46.44955" lon="5.84737">
        <ele>876.6</ele>
        <time>2021-10-17T07:45:15Z</time>
      </trkpt>
      <trkpt lat="46.4495" lon="5.84741">
        <ele>876.4</ele>
        <time>2021-10-17T07:45:16Z</time>
      </trkpt>
      <trkpt lat="46.44944" lon="5.84745">
        <ele>876</ele>
        <time>2021-10-17T07:45:17Z</time>
      </trkpt>
      <trkpt lat="46.44938" lon="5.8475">
        <ele>875.6</ele>
        <time>2021-10-17T07:45:18Z</time>
      </trkpt>
      <trkpt lat="46.44932" lon="5.84755">
        <ele>875.4</ele>
        <time>2021-10-17T07:45:19Z</time>
      </trkpt>
      <trkpt lat="46.44926" lon="5.84761">
        <ele>875</ele>
        <time>2021-10-17T07:45:20Z</time>
      </trkpt>
      <trkpt lat="46.44919" lon="5.84767">
        <ele>874.6</ele>
        <time>2021-10-17T07:45:21Z</time>
      </trkpt>
      <trkpt lat="46.44913" lon="5.84772">
        <ele>874.4</ele>
        <time>2021-10-17T07:45:22Z</time>
      </trkpt>
      <trkpt lat="46.44906" lon="5.84778">
        <ele>874</ele>
        <time>2021-10-17T07:45:23Z</time>
      </trkpt>
      <trkpt lat="46.44901" lon="5.84784">
        <ele>873.6</ele>
        <time>2021-10-17T07:45:24Z</time>
      </trkpt>
      <trkpt lat="46.44895" lon="5.84788">
        <ele>873.2</ele>
        <time>2021-10-17T07:45:25Z</time>
      </trkpt>
      <trkpt lat="46.44891" lon="5.84793">
        <ele>872.8</ele>
        <time>2021-10-17T07:45:26Z</time>
      </trkpt>
      <trkpt lat="46.44887" lon="5.84799">
        <ele>872.6</ele>
        <time>2021-10-17T07:45:27Z</time>
      </trkpt>
      <trkpt lat="46.44883" lon="5.84806">
        <ele>872.2</ele>
        <time>2021-10-17T07:45:28Z</time>
      </trkpt>
      <trkpt lat="46.4488" lon="5.84815">
        <ele>871.6</ele>
        <time>2021-10-17T07:45:29Z</time>
      </trkpt>
      <trkpt lat="46.44878" lon="5.84825">
        <ele>871.2</ele>
        <time>2021-10-17T07:45:30Z</time>
      </trkpt>
      <trkpt lat="46.44875" lon="5.84834">
        <ele>870.8</ele>
        <time>2021-10-17T07:45:31Z</time>
      </trkpt>
      <trkpt lat="46.44872" lon="5.84842">
        <ele>870.4</ele>
        <time>2021-10-17T07:45:32Z</time>
      </trkpt>
      <trkpt lat="46.44867" lon="5.8485">
        <ele>870</ele>
        <time>2021-10-17T07:45:34Z</time>
      </trkpt>
      <trkpt lat="46.44862" lon="5.84857">
        <ele>869.6</ele>
        <time>2021-10-17T07:45:35Z</time>
      </trkpt>
      <trkpt lat="46.44857" lon="5.84864">
        <ele>869.4</ele>
        <time>2021-10-17T07:45:36Z</time>
      </trkpt>
      <trkpt lat="46.4485" lon="5.84871">
        <ele>869</ele>
        <time>2021-10-17T07:45:37Z</time>
      </trkpt>
      <trkpt lat="46.44844" lon="5.84877">
        <ele>868.8</ele>
        <time>2021-10-17T07:45:38Z</time>
      </trkpt>
      <trkpt lat="46.44838" lon="5.84884">
        <ele>868.6</ele>
        <time>2021-10-17T07:45:39Z</time>
      </trkpt>
      <trkpt lat="46.44832" lon="5.8489">
        <ele>868.2</ele>
        <time>2021-10-17T07:45:40Z</time>
      </trkpt>
      <trkpt lat="46.44827" lon="5.84896">
        <ele>867.8</ele>
        <time>2021-10-17T07:45:41Z</time>
      </trkpt>
      <trkpt lat="46.44824" lon="5.84902">
        <ele>867.6</ele>
        <time>2021-10-17T07:45:42Z</time>
      </trkpt>
      <trkpt lat="46.44821" lon="5.8491">
        <ele>867.2</ele>
        <time>2021-10-17T07:45:43Z</time>
      </trkpt>
      <trkpt lat="46.44819" lon="5.8492">
        <ele>866.6</ele>
        <time>2021-10-17T07:45:44Z</time>
      </trkpt>
      <trkpt lat="46.44819" lon="5.84932">
        <ele>866</ele>
        <time>2021-10-17T07:45:45Z</time>
      </trkpt>
      <trkpt lat="46.44818" lon="5.84944">
        <ele>865.4</ele>
        <time>2021-10-17T07:45:46Z</time>
      </trkpt>
      <trkpt lat="46.44817" lon="5.84956">
        <ele>865</ele>
        <time>2021-10-17T07:45:47Z</time>
      </trkpt>
      <trkpt lat="46.44816" lon="5.84972">
        <ele>864.6</ele>
        <time>2021-10-17T07:45:48Z</time>
      </trkpt>
      <trkpt lat="46.44816" lon="5.84976">
        <ele>864.2</ele>
        <time>2021-10-17T07:45:49Z</time>
      </trkpt>
      <trkpt lat="46.44815" lon="5.84983">
        <ele>863.8</ele>
        <time>2021-10-17T07:45:50Z</time>
      </trkpt>
      <trkpt lat="46.44814" lon="5.84988">
        <ele>863.6</ele>
        <time>2021-10-17T07:45:51Z</time>
      </trkpt>
      <trkpt lat="46.44811" lon="5.84992">
        <ele>863.2</ele>
        <time>2021-10-17T07:45:52Z</time>
      </trkpt>
      <trkpt lat="46.44808" lon="5.84995">
        <ele>863</ele>
        <time>2021-10-17T07:45:53Z</time>
      </trkpt>
      <trkpt lat="46.44805" lon="5.84996">
        <ele>862.8</ele>
        <time>2021-10-17T07:45:54Z</time>
      </trkpt>
      <trkpt lat="46.44802" lon="5.84997">
        <ele>862.2</ele>
        <time>2021-10-17T07:45:55Z</time>
      </trkpt>
      <trkpt lat="46.44799" lon="5.84996">
        <ele>862</ele>
        <time>2021-10-17T07:45:56Z</time>
      </trkpt>
      <trkpt lat="46.44797" lon="5.84995">
        <ele>861.8</ele>
        <time>2021-10-17T07:45:57Z</time>
      </trkpt>
      <trkpt lat="46.44796" lon="5.84992">
        <ele>861.6</ele>
        <time>2021-10-17T07:45:58Z</time>
      </trkpt>
      <trkpt lat="46.44795" lon="5.8499">
        <ele>861.4</ele>
        <time>2021-10-17T07:45:59Z</time>
      </trkpt>
      <trkpt lat="46.44794" lon="5.84989">
        <ele>861.4</ele>
        <time>2021-10-17T07:46:00Z</time>
      </trkpt>
      <trkpt lat="46.44793" lon="5.8499">
        <ele>861.4</ele>
        <time>2021-10-17T07:46:01Z</time>
      </trkpt>
      <trkpt lat="46.44793" lon="5.84991">
        <ele>861.2</ele>
        <time>2021-10-17T07:46:02Z</time>
      </trkpt>
      <trkpt lat="46.44783" lon="5.85002">
        <ele>859.8</ele>
        <time>2021-10-17T07:46:20Z</time>
      </trkpt>
      <trkpt lat="46.44782" lon="5.85003">
        <ele>859.4</ele>
        <time>2021-10-17T07:46:21Z</time>
      </trkpt>
      <trkpt lat="46.44781" lon="5.85004">
        <ele>859.4</ele>
        <time>2021-10-17T07:46:22Z</time>
      </trkpt>
      <trkpt lat="46.4478" lon="5.85005">
        <ele>859</ele>
        <time>2021-10-17T07:46:23Z</time>
      </trkpt>
      <trkpt lat="46.44779" lon="5.85007">
        <ele>859</ele>
        <time>2021-10-17T07:46:24Z</time>
      </trkpt>
      <trkpt lat="46.44778" lon="5.85008">
        <ele>858.8</ele>
        <time>2021-10-17T07:46:25Z</time>
      </trkpt>
      <trkpt lat="46.44777" lon="5.85009">
        <ele>858.8</ele>
        <time>2021-10-17T07:46:26Z</time>
      </trkpt>
      <trkpt lat="46.44776" lon="5.8501">
        <ele>858.4</ele>
        <time>2021-10-17T07:46:27Z</time>
      </trkpt>
      <trkpt lat="46.44776" lon="5.85012">
        <ele>858.4</ele>
        <time>2021-10-17T07:46:28Z</time>
      </trkpt>
      <trkpt lat="46.44775" lon="5.85013">
        <ele>858.2</ele>
        <time>2021-10-17T07:46:29Z</time>
      </trkpt>
      <trkpt lat="46.44774" lon="5.85014">
        <ele>858.2</ele>
        <time>2021-10-17T07:46:30Z</time>
      </trkpt>
      <trkpt lat="46.44774" lon="5.85014">
        <ele>857.6</ele>
        <time>2021-10-17T07:47:45Z</time>
      </trkpt>
      <trkpt lat="46.44775" lon="5.85013">
        <ele>857.6</ele>
        <time>2021-10-17T07:47:46Z</time>
      </trkpt>
      <trkpt lat="46.44775" lon="5.85013">
        <ele>857.6</ele>
        <time>2021-10-17T07:47:47Z</time>
      </trkpt>
      <trkpt lat="46.44776" lon="5.85012">
        <ele>857.6</ele>
        <time>2021-10-17T07:47:48Z</time>
      </trkpt>
      <trkpt lat="46.44778" lon="5.85009">
        <ele>858</ele>
        <time>2021-10-17T07:47:51Z</time>
      </trkpt>
      <trkpt lat="46.44779" lon="5.85008">
        <ele>858</ele>
        <time>2021-10-17T07:47:52Z</time>
      </trkpt>
      <trkpt lat="46.44779" lon="5.85007">
        <ele>858.2</ele>
        <time>2021-10-17T07:47:53Z</time>
      </trkpt>
      <trkpt lat="46.4478" lon="5.85006">
        <ele>858.2</ele>
        <time>2021-10-17T07:47:54Z</time>
      </trkpt>
      <trkpt lat="46.44781" lon="5.85005">
        <ele>858.2</ele>
        <time>2021-10-17T07:47:55Z</time>
      </trkpt>
      <trkpt lat="46.44782" lon="5.85004">
        <ele>858.4</ele>
        <time>2021-10-17T07:47:56Z</time>
      </trkpt>
      <trkpt lat="46.44783" lon="5.85003">
        <ele>858.4</ele>
        <time>2021-10-17T07:47:57Z</time>
      </trkpt>
      <trkpt lat="46.44785" lon="5.85001">
        <ele>859</ele>
        <time>2021-10-17T07:48:00Z</time>
      </trkpt>
      <trkpt lat="46.44786" lon="5.85">
        <ele>859.2</ele>
        <time>2021-10-17T07:48:01Z</time>
      </trkpt>
      <trkpt lat="46.44787" lon="5.85">
        <ele>859.2</ele>
        <time>2021-10-17T07:48:02Z</time>
      </trkpt>
      <trkpt lat="46.44788" lon="5.84999">
        <ele>859.6</ele>
        <time>2021-10-17T07:48:03Z</time>
      </trkpt>
      <trkpt lat="46.44789" lon="5.84998">
        <ele>859.6</ele>
        <time>2021-10-17T07:48:04Z</time>
      </trkpt>
      <trkpt lat="46.44793" lon="5.84986">
        <ele>860.6</ele>
        <time>2021-10-17T07:48:23Z</time>
      </trkpt>
      <trkpt lat="46.44793" lon="5.84983">
        <ele>860.6</ele>
        <time>2021-10-17T07:48:24Z</time>
      </trkpt>
      <trkpt lat="46.44792" lon="5.84979">
        <ele>860.6</ele>
        <time>2021-10-17T07:48:25Z</time>
      </trkpt>
      <trkpt lat="46.44792" lon="5.84975">
        <ele>860.4</ele>
        <time>2021-10-17T07:48:26Z</time>
      </trkpt>
      <trkpt lat="46.44792" lon="5.8497">
        <ele>860.4</ele>
        <time>2021-10-17T07:48:27Z</time>
      </trkpt>
      <trkpt lat="46.44792" lon="5.84965">
        <ele>860.2</ele>
        <time>2021-10-17T07:48:28Z</time>
      </trkpt>
      <trkpt lat="46.44793" lon="5.8496">
        <ele>860.2</ele>
        <time>2021-10-17T07:48:29Z</time>
      </trkpt>
      <trkpt lat="46.44793" lon="5.84954">
        <ele>859.8</ele>
        <time>2021-10-17T07:48:30Z</time>
      </trkpt>
      <trkpt lat="46.44793" lon="5.84947">
        <ele>859.8</ele>
        <time>2021-10-17T07:48:31Z</time>
      </trkpt>
      <trkpt lat="46.44792" lon="5.84941">
        <ele>859.4</ele>
        <time>2021-10-17T07:48:32Z</time>
      </trkpt>
      <trkpt lat="46.44791" lon="5.84934">
        <ele>859.2</ele>
        <time>2021-10-17T07:48:33Z</time>
      </trkpt>
      <trkpt lat="46.44789" lon="5.84926">
        <ele>859</ele>
        <time>2021-10-17T07:48:34Z</time>
      </trkpt>
      <trkpt lat="46.44786" lon="5.8492">
        <ele>858.6</ele>
        <time>2021-10-17T07:48:35Z</time>
      </trkpt>
      <trkpt lat="46.44783" lon="5.84915">
        <ele>858.2</ele>
        <time>2021-10-17T07:48:36Z</time>
      </trkpt>
      <trkpt lat="46.4478" lon="5.84911">
        <ele>858</ele>
        <time>2021-10-17T07:48:37Z</time>
      </trkpt>
      <trkpt lat="46.44776" lon="5.84908">
        <ele>857.6</ele>
        <time>2021-10-17T07:48:38Z</time>
      </trkpt>
      <trkpt lat="46.44772" lon="5.84907">
        <ele>857.4</ele>
        <time>2021-10-17T07:48:39Z</time>
      </trkpt>
      <trkpt lat="46.44768" lon="5.84907">
        <ele>857</ele>
        <time>2021-10-17T07:48:40Z</time>
      </trkpt>
      <trkpt lat="46.44764" lon="5.84911">
        <ele>856.6</ele>
        <time>2021-10-17T07:48:41Z</time>
      </trkpt>
      <trkpt lat="46.4476" lon="5.84916">
        <ele>856</ele>
        <time>2021-10-17T07:48:42Z</time>
      </trkpt>
      <trkpt lat="46.44757" lon="5.84922">
        <ele>855.6</ele>
        <time>2021-10-17T07:48:43Z</time>
      </trkpt>
      <trkpt lat="46.44756" lon="5.84929">
        <ele>855</ele>
        <time>2021-10-17T07:48:44Z</time>
      </trkpt>
      <trkpt lat="46.44755" lon="5.84938">
        <ele>854.6</ele>
        <time>2021-10-17T07:48:45Z</time>
      </trkpt>
      <trkpt lat="46.44753" lon="5.84947">
        <ele>854</ele>
        <time>2021-10-17T07:48:46Z</time>
      </trkpt>
      <trkpt lat="46.44751" lon="5.84956">
        <ele>853.6</ele>
        <time>2021-10-17T07:48:47Z</time>
      </trkpt>
      <trkpt lat="46.44747" lon="5.84963">
        <ele>853.2</ele>
        <time>2021-10-17T07:48:48Z</time>
      </trkpt>
      <trkpt lat="46.44742" lon="5.8497">
        <ele>852.6</ele>
        <time>2021-10-17T07:48:49Z</time>
      </trkpt>
      <trkpt lat="46.44735" lon="5.84975">
        <ele>852.2</ele>
        <time>2021-10-17T07:48:50Z</time>
      </trkpt>
      <trkpt lat="46.44728" lon="5.84979">
        <ele>851.8</ele>
        <time>2021-10-17T07:48:51Z</time>
      </trkpt>
      <trkpt lat="46.44722" lon="5.84982">
        <ele>851.4</ele>
        <time>2021-10-17T07:48:52Z</time>
      </trkpt>
      <trkpt lat="46.44717" lon="5.84986">
        <ele>851</ele>
        <time>2021-10-17T07:48:53Z</time>
      </trkpt>
      <trkpt lat="46.44713" lon="5.84991">
        <ele>850.4</ele>
        <time>2021-10-17T07:48:54Z</time>
      </trkpt>
      <trkpt lat="46.44711" lon="5.84999">
        <ele>850</ele>
        <time>2021-10-17T07:48:55Z</time>
      </trkpt>
      <trkpt lat="46.44711" lon="5.85007">
        <ele>849.4</ele>
        <time>2021-10-17T07:48:56Z</time>
      </trkpt>
      <trkpt lat="46.44713" lon="5.85015">
        <ele>849</ele>
        <time>2021-10-17T07:48:57Z</time>
      </trkpt>
      <trkpt lat="46.44717" lon="5.85024">
        <ele>848.6</ele>
        <time>2021-10-17T07:48:58Z</time>
      </trkpt>
      <trkpt lat="46.44723" lon="5.85031">
        <ele>848.2</ele>
        <time>2021-10-17T07:48:59Z</time>
      </trkpt>
      <trkpt lat="46.44729" lon="5.85037">
        <ele>847.6</ele>
        <time>2021-10-17T07:49:00Z</time>
      </trkpt>
      <trkpt lat="46.44734" lon="5.85043">
        <ele>847.2</ele>
        <time>2021-10-17T07:49:01Z</time>
      </trkpt>
      <trkpt lat="46.44739" lon="5.85052">
        <ele>846.6</ele>
        <time>2021-10-17T07:49:02Z</time>
      </trkpt>
      <trkpt lat="46.44742" lon="5.85062">
        <ele>846</ele>
        <time>2021-10-17T07:49:03Z</time>
      </trkpt>
      <trkpt lat="46.44744" lon="5.85073">
        <ele>845.4</ele>
        <time>2021-10-17T07:49:04Z</time>
      </trkpt>
      <trkpt lat="46.44744" lon="5.85084">
        <ele>844.8</ele>
        <time>2021-10-17T07:49:05Z</time>
      </trkpt>
      <trkpt lat="46.44743" lon="5.85096">
        <ele>844.2</ele>
        <time>2021-10-17T07:49:06Z</time>
      </trkpt>
      <trkpt lat="46.44742" lon="5.85108">
        <ele>843.6</ele>
        <time>2021-10-17T07:49:07Z</time>
      </trkpt>
      <trkpt lat="46.44741" lon="5.8512">
        <ele>843</ele>
        <time>2021-10-17T07:49:08Z</time>
      </trkpt>
      <trkpt lat="46.4474" lon="5.8513">
        <ele>842.4</ele>
        <time>2021-10-17T07:49:09Z</time>
      </trkpt>
      <trkpt lat="46.44738" lon="5.8514">
        <ele>841.8</ele>
        <time>2021-10-17T07:49:10Z</time>
      </trkpt>
      <trkpt lat="46.44735" lon="5.85148">
        <ele>841.4</ele>
        <time>2021-10-17T07:49:11Z</time>
      </trkpt>
      <trkpt lat="46.4473" lon="5.85155">
        <ele>840.8</ele>
        <time>2021-10-17T07:49:12Z</time>
      </trkpt>
      <trkpt lat="46.44725" lon="5.8516">
        <ele>840.2</ele>
        <time>2021-10-17T07:49:13Z</time>
      </trkpt>
      <trkpt lat="46.44718" lon="5.85162">
        <ele>839.6</ele>
        <time>2021-10-17T07:49:14Z</time>
      </trkpt>
      <trkpt lat="46.44711" lon="5.85163">
        <ele>839</ele>
        <time>2021-10-17T07:49:15Z</time>
      </trkpt>
      <trkpt lat="46.44704" lon="5.8516">
        <ele>838.4</ele>
        <time>2021-10-17T07:49:16Z</time>
      </trkpt>
      <trkpt lat="46.44696" lon="5.85155">
        <ele>837.8</ele>
        <time>2021-10-17T07:49:17Z</time>
      </trkpt>
      <trkpt lat="46.4469" lon="5.85148">
        <ele>837.2</ele>
        <time>2021-10-17T07:49:18Z</time>
      </trkpt>
      <trkpt lat="46.44683" lon="5.8514">
        <ele>836.6</ele>
        <time>2021-10-17T07:49:19Z</time>
      </trkpt>
      <trkpt lat="46.44674" lon="5.85133">
        <ele>836</ele>
        <time>2021-10-17T07:49:20Z</time>
      </trkpt>
      <trkpt lat="46.44665" lon="5.85128">
        <ele>835.2</ele>
        <time>2021-10-17T07:49:21Z</time>
      </trkpt>
      <trkpt lat="46.44656" lon="5.85123">
        <ele>834.6</ele>
        <time>2021-10-17T07:49:22Z</time>
      </trkpt>
      <trkpt lat="46.44646" lon="5.85118">
        <ele>834</ele>
        <time>2021-10-17T07:49:23Z</time>
      </trkpt>
      <trkpt lat="46.44638" lon="5.85113">
        <ele>833.4</ele>
        <time>2021-10-17T07:49:24Z</time>
      </trkpt>
      <trkpt lat="46.4463" lon="5.85108">
        <ele>832.6</ele>
        <time>2021-10-17T07:49:25Z</time>
      </trkpt>
      <trkpt lat="46.44622" lon="5.85102">
        <ele>831.8</ele>
        <time>2021-10-17T07:49:26Z</time>
      </trkpt>
      <trkpt lat="46.44615" lon="5.85095">
        <ele>831.2</ele>
        <time>2021-10-17T07:49:27Z</time>
      </trkpt>
      <trkpt lat="46.44609" lon="5.85088">
        <ele>830.6</ele>
        <time>2021-10-17T07:49:28Z</time>
      </trkpt>
      <trkpt lat="46.44605" lon="5.8508">
        <ele>830</ele>
        <time>2021-10-17T07:49:29Z</time>
      </trkpt>
      <trkpt lat="46.44601" lon="5.8507">
        <ele>829.2</ele>
        <time>2021-10-17T07:49:30Z</time>
      </trkpt>
      <trkpt lat="46.44598" lon="5.85059">
        <ele>828.6</ele>
        <time>2021-10-17T07:49:31Z</time>
      </trkpt>
      <trkpt lat="46.44594" lon="5.85047">
        <ele>828</ele>
        <time>2021-10-17T07:49:32Z</time>
      </trkpt>
      <trkpt lat="46.44589" lon="5.85037">
        <ele>827.2</ele>
        <time>2021-10-17T07:49:33Z</time>
      </trkpt>
      <trkpt lat="46.44583" lon="5.85027">
        <ele>826.6</ele>
        <time>2021-10-17T07:49:34Z</time>
      </trkpt>
      <trkpt lat="46.44578" lon="5.85017">
        <ele>825.8</ele>
        <time>2021-10-17T07:49:35Z</time>
      </trkpt>
      <trkpt lat="46.44574" lon="5.85008">
        <ele>825.4</ele>
        <time>2021-10-17T07:49:36Z</time>
      </trkpt>
      <trkpt lat="46.4457" lon="5.84999">
        <ele>824.8</ele>
        <time>2021-10-17T07:49:37Z</time>
      </trkpt>
      <trkpt lat="46.44564" lon="5.8499">
        <ele>824.2</ele>
        <time>2021-10-17T07:49:38Z</time>
      </trkpt>
      <trkpt lat="46.44557" lon="5.84985">
        <ele>823.6</ele>
        <time>2021-10-17T07:49:39Z</time>
      </trkpt>
      <trkpt lat="46.44549" lon="5.84982">
        <ele>823.2</ele>
        <time>2021-10-17T07:49:40Z</time>
      </trkpt>
      <trkpt lat="46.4454" lon="5.84979">
        <ele>822.6</ele>
        <time>2021-10-17T07:49:41Z</time>
      </trkpt>
      <trkpt lat="46.44531" lon="5.84975">
        <ele>822</ele>
        <time>2021-10-17T07:49:42Z</time>
      </trkpt>
      <trkpt lat="46.44522" lon="5.84969">
        <ele>821.2</ele>
        <time>2021-10-17T07:49:43Z</time>
      </trkpt>
      <trkpt lat="46.44511" lon="5.84965">
        <ele>820.4</ele>
        <time>2021-10-17T07:49:44Z</time>
      </trkpt>
      <trkpt lat="46.44501" lon="5.84964">
        <ele>819.8</ele>
        <time>2021-10-17T07:49:45Z</time>
      </trkpt>
      <trkpt lat="46.44493" lon="5.84964">
        <ele>819</ele>
        <time>2021-10-17T07:49:46Z</time>
      </trkpt>
      <trkpt lat="46.44484" lon="5.84963">
        <ele>818.4</ele>
        <time>2021-10-17T07:49:47Z</time>
      </trkpt>
      <trkpt lat="46.44477" lon="5.8496">
        <ele>817.6</ele>
        <time>2021-10-17T07:49:48Z</time>
      </trkpt>
      <trkpt lat="46.44471" lon="5.84955">
        <ele>817</ele>
        <time>2021-10-17T07:49:49Z</time>
      </trkpt>
      <trkpt lat="46.44466" lon="5.84948">
        <ele>816.4</ele>
        <time>2021-10-17T07:49:50Z</time>
      </trkpt>
      <trkpt lat="46.44463" lon="5.8494">
        <ele>815.6</ele>
        <time>2021-10-17T07:49:51Z</time>
      </trkpt>
      <trkpt lat="46.44461" lon="5.84928">
        <ele>815</ele>
        <time>2021-10-17T07:49:52Z</time>
      </trkpt>
      <trkpt lat="46.44458" lon="5.84917">
        <ele>814.4</ele>
        <time>2021-10-17T07:49:53Z</time>
      </trkpt>
      <trkpt lat="46.44455" lon="5.84905">
        <ele>813.6</ele>
        <time>2021-10-17T07:49:54Z</time>
      </trkpt>
      <trkpt lat="46.44451" lon="5.84895">
        <ele>813</ele>
        <time>2021-10-17T07:49:55Z</time>
      </trkpt>
      <trkpt lat="46.44445" lon="5.84886">
        <ele>812.4</ele>
        <time>2021-10-17T07:49:56Z</time>
      </trkpt>
      <trkpt lat="46.44438" lon="5.84879">
        <ele>811.8</ele>
        <time>2021-10-17T07:49:57Z</time>
      </trkpt>
      <trkpt lat="46.4443" lon="5.84873">
        <ele>811</ele>
        <time>2021-10-17T07:49:58Z</time>
      </trkpt>
      <trkpt lat="46.44421" lon="5.84868">
        <ele>810.4</ele>
        <time>2021-10-17T07:49:59Z</time>
      </trkpt>
      <trkpt lat="46.44412" lon="5.84863">
        <ele>809.8</ele>
        <time>2021-10-17T07:50:00Z</time>
      </trkpt>
      <trkpt lat="46.44404" lon="5.84856">
        <ele>809</ele>
        <time>2021-10-17T07:50:01Z</time>
      </trkpt>
      <trkpt lat="46.44397" lon="5.84845">
        <ele>808.4</ele>
        <time>2021-10-17T07:50:02Z</time>
      </trkpt>
      <trkpt lat="46.4439" lon="5.84836">
        <ele>807.6</ele>
        <time>2021-10-17T07:50:03Z</time>
      </trkpt>
      <trkpt lat="46.44382" lon="5.84824">
        <ele>807</ele>
        <time>2021-10-17T07:50:04Z</time>
      </trkpt>
      <trkpt lat="46.44375" lon="5.84813">
        <ele>806.2</ele>
        <time>2021-10-17T07:50:05Z</time>
      </trkpt>
      <trkpt lat="46.44369" lon="5.84802">
        <ele>805.6</ele>
        <time>2021-10-17T07:50:06Z</time>
      </trkpt>
      <trkpt lat="46.44363" lon="5.84794">
        <ele>804.8</ele>
        <time>2021-10-17T07:50:07Z</time>
      </trkpt>
      <trkpt lat="46.44356" lon="5.84787">
        <ele>804.2</ele>
        <time>2021-10-17T07:50:08Z</time>
      </trkpt>
      <trkpt lat="46.44349" lon="5.84782">
        <ele>803.6</ele>
        <time>2021-10-17T07:50:09Z</time>
      </trkpt>
      <trkpt lat="46.44342" lon="5.84779">
        <ele>803</ele>
        <time>2021-10-17T07:50:10Z</time>
      </trkpt>
      <trkpt lat="46.44334" lon="5.84778">
        <ele>802.2</ele>
        <time>2021-10-17T07:50:11Z</time>
      </trkpt>
      <trkpt lat="46.44327" lon="5.84779">
        <ele>801.6</ele>
        <time>2021-10-17T07:50:12Z</time>
      </trkpt>
      <trkpt lat="46.44319" lon="5.84782">
        <ele>800.8</ele>
        <time>2021-10-17T07:50:13Z</time>
      </trkpt>
      <trkpt lat="46.44312" lon="5.84786">
        <ele>800.2</ele>
        <time>2021-10-17T07:50:14Z</time>
      </trkpt>
      <trkpt lat="46.44305" lon="5.8479">
        <ele>799.4</ele>
        <time>2021-10-17T07:50:15Z</time>
      </trkpt>
      <trkpt lat="46.44298" lon="5.84791">
        <ele>798.8</ele>
        <time>2021-10-17T07:50:16Z</time>
      </trkpt>
      <trkpt lat="46.44291" lon="5.84789">
        <ele>798.4</ele>
        <time>2021-10-17T07:50:17Z</time>
      </trkpt>
      <trkpt lat="46.44285" lon="5.84784">
        <ele>797.8</ele>
        <time>2021-10-17T07:50:18Z</time>
      </trkpt>
      <trkpt lat="46.44279" lon="5.84778">
        <ele>797.2</ele>
        <time>2021-10-17T07:50:19Z</time>
      </trkpt>
      <trkpt lat="46.44273" lon="5.84771">
        <ele>796.6</ele>
        <time>2021-10-17T07:50:20Z</time>
      </trkpt>
      <trkpt lat="46.44268" lon="5.84763">
        <ele>796</ele>
        <time>2021-10-17T07:50:21Z</time>
      </trkpt>
      <trkpt lat="46.44264" lon="5.84755">
        <ele>795.2</ele>
        <time>2021-10-17T07:50:22Z</time>
      </trkpt>
      <trkpt lat="46.4426" lon="5.84748">
        <ele>794.6</ele>
        <time>2021-10-17T07:50:23Z</time>
      </trkpt>
      <trkpt lat="46.44257" lon="5.84742">
        <ele>794.2</ele>
        <time>2021-10-17T07:50:24Z</time>
      </trkpt>
      <trkpt lat="46.44253" lon="5.84738">
        <ele>793.8</ele>
        <time>2021-10-17T07:50:25Z</time>
      </trkpt>
      <trkpt lat="46.44249" lon="5.84736">
        <ele>793.4</ele>
        <time>2021-10-17T07:50:26Z</time>
      </trkpt>
      <trkpt lat="46.44245" lon="5.84737">
        <ele>793</ele>
        <time>2021-10-17T07:50:27Z</time>
      </trkpt>
      <trkpt lat="46.44243" lon="5.8474">
        <ele>792.4</ele>
        <time>2021-10-17T07:50:28Z</time>
      </trkpt>
      <trkpt lat="46.44242" lon="5.84748">
        <ele>792</ele>
        <time>2021-10-17T07:50:29Z</time>
      </trkpt>
      <trkpt lat="46.44243" lon="5.84755">
        <ele>791.8</ele>
        <time>2021-10-17T07:50:30Z</time>
      </trkpt>
      <trkpt lat="46.44245" lon="5.84761">
        <ele>791.6</ele>
        <time>2021-10-17T07:50:31Z</time>
      </trkpt>
      <trkpt lat="46.44248" lon="5.84766">
        <ele>791.6</ele>
        <time>2021-10-17T07:50:32Z</time>
      </trkpt>
      <trkpt lat="46.44251" lon="5.84772">
        <ele>791.2</ele>
        <time>2021-10-17T07:50:33Z</time>
      </trkpt>
      <trkpt lat="46.44255" lon="5.84778">
        <ele>791.2</ele>
        <time>2021-10-17T07:50:34Z</time>
      </trkpt>
      <trkpt lat="46.44259" lon="5.84784">
        <ele>791</ele>
        <time>2021-10-17T07:50:35Z</time>
      </trkpt>
      <trkpt lat="46.44262" lon="5.84791">
        <ele>791</ele>
        <time>2021-10-17T07:50:36Z</time>
      </trkpt>
      <trkpt lat="46.44266" lon="5.84797">
        <ele>790.6</ele>
        <time>2021-10-17T07:50:37Z</time>
      </trkpt>
      <trkpt lat="46.4427" lon="5.84805">
        <ele>790.4</ele>
        <time>2021-10-17T07:50:38Z</time>
      </trkpt>
      <trkpt lat="46.44274" lon="5.84812">
        <ele>790.2</ele>
        <time>2021-10-17T07:50:39Z</time>
      </trkpt>
      <trkpt lat="46.44278" lon="5.84818">
        <ele>789.8</ele>
        <time>2021-10-17T07:50:40Z</time>
      </trkpt>
      <trkpt lat="46.44284" lon="5.84824">
        <ele>789.6</ele>
        <time>2021-10-17T07:50:41Z</time>
      </trkpt>
      <trkpt lat="46.4429" lon="5.84829">
        <ele>789.2</ele>
        <time>2021-10-17T07:50:42Z</time>
      </trkpt>
      <trkpt lat="46.44297" lon="5.84832">
        <ele>788.8</ele>
        <time>2021-10-17T07:50:43Z</time>
      </trkpt>
      <trkpt lat="46.44303" lon="5.84835">
        <ele>788.4</ele>
        <time>2021-10-17T07:50:44Z</time>
      </trkpt>
      <trkpt lat="46.44308" lon="5.84838">
        <ele>788.2</ele>
        <time>2021-10-17T07:50:45Z</time>
      </trkpt>
      <trkpt lat="46.44313" lon="5.84843">
        <ele>787.8</ele>
        <time>2021-10-17T07:50:46Z</time>
      </trkpt>
      <trkpt lat="46.44317" lon="5.84849">
        <ele>787.6</ele>
        <time>2021-10-17T07:50:47Z</time>
      </trkpt>
      <trkpt lat="46.44319" lon="5.84856">
        <ele>787.4</ele>
        <time>2021-10-17T07:50:48Z</time>
      </trkpt>
      <trkpt lat="46.44321" lon="5.84864">
        <ele>787</ele>
        <time>2021-10-17T07:50:49Z</time>
      </trkpt>
      <trkpt lat="46.44322" lon="5.84873">
        <ele>786.8</ele>
        <time>2021-10-17T07:50:50Z</time>
      </trkpt>
      <trkpt lat="46.44323" lon="5.84881">
        <ele>786.6</ele>
        <time>2021-10-17T07:50:51Z</time>
      </trkpt>
      <trkpt lat="46.44325" lon="5.8489">
        <ele>786.2</ele>
        <time>2021-10-17T07:50:52Z</time>
      </trkpt>
      <trkpt lat="46.44326" lon="5.84898">
        <ele>786</ele>
        <time>2021-10-17T07:50:53Z</time>
      </trkpt>
      <trkpt lat="46.44328" lon="5.84905">
        <ele>785.6</ele>
        <time>2021-10-17T07:50:54Z</time>
      </trkpt>
      <trkpt lat="46.44329" lon="5.8491">
        <ele>785.4</ele>
        <time>2021-10-17T07:50:55Z</time>
      </trkpt>
      <trkpt lat="46.4433" lon="5.84914">
        <ele>785</ele>
        <time>2021-10-17T07:50:56Z</time>
      </trkpt>
      <trkpt lat="46.44331" lon="5.84916">
        <ele>785</ele>
        <time>2021-10-17T07:50:57Z</time>
      </trkpt>
      <trkpt lat="46.44331" lon="5.84917">
        <ele>784.8</ele>
        <time>2021-10-17T07:50:58Z</time>
      </trkpt>
      <trkpt lat="46.44331" lon="5.84917">
        <ele>784.8</ele>
        <time>2021-10-17T07:50:59Z</time>
      </trkpt>
      <trkpt lat="46.44334" lon="5.8492">
        <ele>783.8</ele>
        <time>2021-10-17T07:52:04Z</time>
      </trkpt>
      <trkpt lat="46.44336" lon="5.84923">
        <ele>783.8</ele>
        <time>2021-10-17T07:52:05Z</time>
      </trkpt>
      <trkpt lat="46.44338" lon="5.84926">
        <ele>783.6</ele>
        <time>2021-10-17T07:52:06Z</time>
      </trkpt>
      <trkpt lat="46.44342" lon="5.8493">
        <ele>783.4</ele>
        <time>2021-10-17T07:52:07Z</time>
      </trkpt>
      <trkpt lat="46.44346" lon="5.84933">
        <ele>783</ele>
        <time>2021-10-17T07:52:08Z</time>
      </trkpt>
      <trkpt lat="46.44351" lon="5.84937">
        <ele>782.6</ele>
        <time>2021-10-17T07:52:09Z</time>
      </trkpt>
      <trkpt lat="46.44355" lon="5.84942">
        <ele>782.2</ele>
        <time>2021-10-17T07:52:10Z</time>
      </trkpt>
      <trkpt lat="46.44359" lon="5.84948">
        <ele>781.6</ele>
        <time>2021-10-17T07:52:11Z</time>
      </trkpt>
      <trkpt lat="46.44361" lon="5.84956">
        <ele>781</ele>
        <time>2021-10-17T07:52:12Z</time>
      </trkpt>
      <trkpt lat="46.44363" lon="5.84965">
        <ele>780.6</ele>
        <time>2021-10-17T07:52:13Z</time>
      </trkpt>
      <trkpt lat="46.44363" lon="5.84975">
        <ele>780</ele>
        <time>2021-10-17T07:52:14Z</time>
      </trkpt>
      <trkpt lat="46.44361" lon="5.84985">
        <ele>779.4</ele>
        <time>2021-10-17T07:52:15Z</time>
      </trkpt>
      <trkpt lat="46.44357" lon="5.84995">
        <ele>778.8</ele>
        <time>2021-10-17T07:52:16Z</time>
      </trkpt>
      <trkpt lat="46.44354" lon="5.85006">
        <ele>778</ele>
        <time>2021-10-17T07:52:17Z</time>
      </trkpt>
      <trkpt lat="46.4435" lon="5.85017">
        <ele>777.4</ele>
        <time>2021-10-17T07:52:18Z</time>
      </trkpt>
      <trkpt lat="46.44346" lon="5.85029">
        <ele>776.8</ele>
        <time>2021-10-17T07:52:19Z</time>
      </trkpt>
      <trkpt lat="46.44344" lon="5.85042">
        <ele>776.2</ele>
        <time>2021-10-17T07:52:20Z</time>
      </trkpt>
      <trkpt lat="46.44341" lon="5.85053">
        <ele>775.6</ele>
        <time>2021-10-17T07:52:21Z</time>
      </trkpt>
      <trkpt lat="46.44338" lon="5.85064">
        <ele>775</ele>
        <time>2021-10-17T07:52:22Z</time>
      </trkpt>
      <trkpt lat="46.44333" lon="5.85074">
        <ele>774.4</ele>
        <time>2021-10-17T07:52:23Z</time>
      </trkpt>
      <trkpt lat="46.44329" lon="5.85082">
        <ele>774</ele>
        <time>2021-10-17T07:52:24Z</time>
      </trkpt>
      <trkpt lat="46.44325" lon="5.85088">
        <ele>773.4</ele>
        <time>2021-10-17T07:52:25Z</time>
      </trkpt>
      <trkpt lat="46.44323" lon="5.85094">
        <ele>773</ele>
        <time>2021-10-17T07:52:26Z</time>
      </trkpt>
      <trkpt lat="46.44322" lon="5.85101">
        <ele>772.6</ele>
        <time>2021-10-17T07:52:27Z</time>
      </trkpt>
      <trkpt lat="46.44326" lon="5.85116">
        <ele>771.4</ele>
        <time>2021-10-17T07:52:28Z</time>
      </trkpt>
      <trkpt lat="46.44331" lon="5.85123">
        <ele>770.6</ele>
        <time>2021-10-17T07:52:29Z</time>
      </trkpt>
      <trkpt lat="46.44337" lon="5.8513">
        <ele>770.6</ele>
        <time>2021-10-17T07:52:31Z</time>
      </trkpt>
      <trkpt lat="46.44344" lon="5.85136">
        <ele>770</ele>
        <time>2021-10-17T07:52:32Z</time>
      </trkpt>
      <trkpt lat="46.44352" lon="5.85141">
        <ele>769.2</ele>
        <time>2021-10-17T07:52:33Z</time>
      </trkpt>
      <trkpt lat="46.4436" lon="5.85145">
        <ele>768.4</ele>
        <time>2021-10-17T07:52:34Z</time>
      </trkpt>
      <trkpt lat="46.44369" lon="5.85149">
        <ele>767.4</ele>
        <time>2021-10-17T07:52:35Z</time>
      </trkpt>
      <trkpt lat="46.44378" lon="5.85152">
        <ele>766.6</ele>
        <time>2021-10-17T07:52:36Z</time>
      </trkpt>
      <trkpt lat="46.44387" lon="5.85153">
        <ele>765.8</ele>
        <time>2021-10-17T07:52:37Z</time>
      </trkpt>
      <trkpt lat="46.44396" lon="5.85153">
        <ele>765</ele>
        <time>2021-10-17T07:52:38Z</time>
      </trkpt>
      <trkpt lat="46.44403" lon="5.85152">
        <ele>764.4</ele>
        <time>2021-10-17T07:52:39Z</time>
      </trkpt>
      <trkpt lat="46.44408" lon="5.85153">
        <ele>763.6</ele>
        <time>2021-10-17T07:52:40Z</time>
      </trkpt>
      <trkpt lat="46.44413" lon="5.85154">
        <ele>763</ele>
        <time>2021-10-17T07:52:41Z</time>
      </trkpt>
      <trkpt lat="46.44417" lon="5.85157">
        <ele>762.4</ele>
        <time>2021-10-17T07:52:42Z</time>
      </trkpt>
      <trkpt lat="46.4442" lon="5.85163">
        <ele>761.8</ele>
        <time>2021-10-17T07:52:43Z</time>
      </trkpt>
      <trkpt lat="46.44421" lon="5.8517">
        <ele>761.2</ele>
        <time>2021-10-17T07:52:44Z</time>
      </trkpt>
      <trkpt lat="46.4442" lon="5.85177">
        <ele>760.4</ele>
        <time>2021-10-17T07:52:45Z</time>
      </trkpt>
      <trkpt lat="46.44416" lon="5.85183">
        <ele>759.8</ele>
        <time>2021-10-17T07:52:46Z</time>
      </trkpt>
      <trkpt lat="46.44411" lon="5.85191">
        <ele>759</ele>
        <time>2021-10-17T07:52:47Z</time>
      </trkpt>
      <trkpt lat="46.44405" lon="5.85199">
        <ele>758.4</ele>
        <time>2021-10-17T07:52:48Z</time>
      </trkpt>
      <trkpt lat="46.44399" lon="5.85207">
        <ele>757.6</ele>
        <time>2021-10-17T07:52:49Z</time>
      </trkpt>
      <trkpt lat="46.44394" lon="5.85217">
        <ele>756.6</ele>
        <time>2021-10-17T07:52:50Z</time>
      </trkpt>
      <trkpt lat="46.44389" lon="5.85228">
        <ele>755.6</ele>
        <time>2021-10-17T07:52:51Z</time>
      </trkpt>
      <trkpt lat="46.44385" lon="5.85241">
        <ele>754.8</ele>
        <time>2021-10-17T07:52:52Z</time>
      </trkpt>
      <trkpt lat="46.44383" lon="5.85254">
        <ele>753.8</ele>
        <time>2021-10-17T07:52:53Z</time>
      </trkpt>
      <trkpt lat="46.4438" lon="5.85267">
        <ele>752.8</ele>
        <time>2021-10-17T07:52:54Z</time>
      </trkpt>
      <trkpt lat="46.44376" lon="5.8528">
        <ele>751.8</ele>
        <time>2021-10-17T07:52:55Z</time>
      </trkpt>
      <trkpt lat="46.4437" lon="5.85291">
        <ele>751</ele>
        <time>2021-10-17T07:52:56Z</time>
      </trkpt>
      <trkpt lat="46.44363" lon="5.853">
        <ele>750</ele>
        <time>2021-10-17T07:52:57Z</time>
      </trkpt>
      <trkpt lat="46.44357" lon="5.85307">
        <ele>749.2</ele>
        <time>2021-10-17T07:52:58Z</time>
      </trkpt>
      <trkpt lat="46.44353" lon="5.85314">
        <ele>748.4</ele>
        <time>2021-10-17T07:52:59Z</time>
      </trkpt>
      <trkpt lat="46.4435" lon="5.85321">
        <ele>747.6</ele>
        <time>2021-10-17T07:53:00Z</time>
      </trkpt>
      <trkpt lat="46.44348" lon="5.85328">
        <ele>747</ele>
        <time>2021-10-17T07:53:01Z</time>
      </trkpt>
      <trkpt lat="46.44347" lon="5.85335">
        <ele>746.4</ele>
        <time>2021-10-17T07:53:02Z</time>
      </trkpt>
      <trkpt lat="46.44348" lon="5.85341">
        <ele>746</ele>
        <time>2021-10-17T07:53:03Z</time>
      </trkpt>
      <trkpt lat="46.44349" lon="5.85345">
        <ele>745.4</ele>
        <time>2021-10-17T07:53:04Z</time>
      </trkpt>
      <trkpt lat="46.4435" lon="5.85349">
        <ele>745</ele>
        <time>2021-10-17T07:53:05Z</time>
      </trkpt>
      <trkpt lat="46.44351" lon="5.85351">
        <ele>744.6</ele>
        <time>2021-10-17T07:53:06Z</time>
      </trkpt>
      <trkpt lat="46.44352" lon="5.85352">
        <ele>744.4</ele>
        <time>2021-10-17T07:53:07Z</time>
      </trkpt>
      <trkpt lat="46.44357" lon="5.85359">
        <ele>743.6</ele>
        <time>2021-10-17T07:54:27Z</time>
      </trkpt>
      <trkpt lat="46.44359" lon="5.85362">
        <ele>743.4</ele>
        <time>2021-10-17T07:54:28Z</time>
      </trkpt>
      <trkpt lat="46.44362" lon="5.85366">
        <ele>743.4</ele>
        <time>2021-10-17T07:54:29Z</time>
      </trkpt>
      <trkpt lat="46.44365" lon="5.8537">
        <ele>743</ele>
        <time>2021-10-17T07:54:30Z</time>
      </trkpt>
      <trkpt lat="46.44368" lon="5.85375">
        <ele>742.8</ele>
        <time>2021-10-17T07:54:31Z</time>
      </trkpt>
      <trkpt lat="46.44371" lon="5.8538">
        <ele>742.4</ele>
        <time>2021-10-17T07:54:32Z</time>
      </trkpt>
      <trkpt lat="46.44376" lon="5.85387">
        <ele>742.2</ele>
        <time>2021-10-17T07:54:33Z</time>
      </trkpt>
      <trkpt lat="46.4438" lon="5.85393">
        <ele>741.6</ele>
        <time>2021-10-17T07:54:34Z</time>
      </trkpt>
      <trkpt lat="46.44384" lon="5.85399">
        <ele>741.2</ele>
        <time>2021-10-17T07:54:35Z</time>
      </trkpt>
      <trkpt lat="46.44387" lon="5.85406">
        <ele>740.6</ele>
        <time>2021-10-17T07:54:36Z</time>
      </trkpt>
      <trkpt lat="46.44391" lon="5.85413">
        <ele>740</ele>
        <time>2021-10-17T07:54:37Z</time>
      </trkpt>
      <trkpt lat="46.44395" lon="5.85419">
        <ele>739.4</ele>
        <time>2021-10-17T07:54:38Z</time>
      </trkpt>
      <trkpt lat="46.44398" lon="5.85425">
        <ele>739</ele>
        <time>2021-10-17T07:54:39Z</time>
      </trkpt>
      <trkpt lat="46.44401" lon="5.8543">
        <ele>738.4</ele>
        <time>2021-10-17T07:54:40Z</time>
      </trkpt>
      <trkpt lat="46.44403" lon="5.85435">
        <ele>738</ele>
        <time>2021-10-17T07:54:41Z</time>
      </trkpt>
      <trkpt lat="46.44404" lon="5.8544">
        <ele>737.6</ele>
        <time>2021-10-17T07:54:42Z</time>
      </trkpt>
      <trkpt lat="46.44404" lon="5.85445">
        <ele>737.2</ele>
        <time>2021-10-17T07:54:43Z</time>
      </trkpt>
      <trkpt lat="46.44403" lon="5.85448">
        <ele>736.8</ele>
        <time>2021-10-17T07:54:44Z</time>
      </trkpt>
      <trkpt lat="46.444" lon="5.85451">
        <ele>736.4</ele>
        <time>2021-10-17T07:54:45Z</time>
      </trkpt>
      <trkpt lat="46.44397" lon="5.85454">
        <ele>735.8</ele>
        <time>2021-10-17T07:54:46Z</time>
      </trkpt>
      <trkpt lat="46.44393" lon="5.85454">
        <ele>735.4</ele>
        <time>2021-10-17T07:54:47Z</time>
      </trkpt>
      <trkpt lat="46.44389" lon="5.85453">
        <ele>735</ele>
        <time>2021-10-17T07:54:48Z</time>
      </trkpt>
      <trkpt lat="46.44385" lon="5.85451">
        <ele>734.8</ele>
        <time>2021-10-17T07:54:49Z</time>
      </trkpt>
      <trkpt lat="46.44381" lon="5.85447">
        <ele>734.2</ele>
        <time>2021-10-17T07:54:50Z</time>
      </trkpt>
      <trkpt lat="46.44376" lon="5.85443">
        <ele>733.8</ele>
        <time>2021-10-17T07:54:51Z</time>
      </trkpt>
      <trkpt lat="46.44371" lon="5.85439">
        <ele>733.4</ele>
        <time>2021-10-17T07:54:52Z</time>
      </trkpt>
      <trkpt lat="46.44366" lon="5.85434">
        <ele>732.8</ele>
        <time>2021-10-17T07:54:53Z</time>
      </trkpt>
      <trkpt lat="46.4436" lon="5.85429">
        <ele>732.4</ele>
        <time>2021-10-17T07:54:54Z</time>
      </trkpt>
      <trkpt lat="46.44353" lon="5.85423">
        <ele>731.8</ele>
        <time>2021-10-17T07:54:55Z</time>
      </trkpt>
      <trkpt lat="46.44346" lon="5.85418">
        <ele>731.2</ele>
        <time>2021-10-17T07:54:56Z</time>
      </trkpt>
      <trkpt lat="46.44338" lon="5.85412">
        <ele>730.4</ele>
        <time>2021-10-17T07:54:57Z</time>
      </trkpt>
      <trkpt lat="46.44329" lon="5.85407">
        <ele>729.8</ele>
        <time>2021-10-17T07:54:58Z</time>
      </trkpt>
      <trkpt lat="46.44319" lon="5.85402">
        <ele>728.8</ele>
        <time>2021-10-17T07:54:59Z</time>
      </trkpt>
      <trkpt lat="46.44309" lon="5.85396">
        <ele>728</ele>
        <time>2021-10-17T07:55:00Z</time>
      </trkpt>
      <trkpt lat="46.44299" lon="5.8539">
        <ele>727.2</ele>
        <time>2021-10-17T07:55:01Z</time>
      </trkpt>
      <trkpt lat="46.4429" lon="5.85384">
        <ele>726.2</ele>
        <time>2021-10-17T07:55:02Z</time>
      </trkpt>
      <trkpt lat="46.4428" lon="5.85377">
        <ele>725.2</ele>
        <time>2021-10-17T07:55:03Z</time>
      </trkpt>
      <trkpt lat="46.44271" lon="5.85369">
        <ele>724.2</ele>
        <time>2021-10-17T07:55:04Z</time>
      </trkpt>
      <trkpt lat="46.44262" lon="5.85363">
        <ele>723.2</ele>
        <time>2021-10-17T07:55:05Z</time>
      </trkpt>
      <trkpt lat="46.44253" lon="5.85357">
        <ele>722.2</ele>
        <time>2021-10-17T07:55:06Z</time>
      </trkpt>
      <trkpt lat="46.44245" lon="5.8535">
        <ele>721.2</ele>
        <time>2021-10-17T07:55:07Z</time>
      </trkpt>
      <trkpt lat="46.44238" lon="5.85345">
        <ele>720.4</ele>
        <time>2021-10-17T07:55:08Z</time>
      </trkpt>
      <trkpt lat="46.4423" lon="5.85343">
        <ele>719.4</ele>
        <time>2021-10-17T07:55:09Z</time>
      </trkpt>
      <trkpt lat="46.44222" lon="5.85342">
        <ele>718.6</ele>
        <time>2021-10-17T07:55:10Z</time>
      </trkpt>
      <trkpt lat="46.44213" lon="5.85343">
        <ele>717.8</ele>
        <time>2021-10-17T07:55:11Z</time>
      </trkpt>
      <trkpt lat="46.44204" lon="5.85347">
        <ele>717.2</ele>
        <time>2021-10-17T07:55:12Z</time>
      </trkpt>
      <trkpt lat="46.44196" lon="5.85352">
        <ele>716.4</ele>
        <time>2021-10-17T07:55:13Z</time>
      </trkpt>
      <trkpt lat="46.44189" lon="5.8536">
        <ele>715.8</ele>
        <time>2021-10-17T07:55:14Z</time>
      </trkpt>
      <trkpt lat="46.44181" lon="5.85369">
        <ele>715.2</ele>
        <time>2021-10-17T07:55:15Z</time>
      </trkpt>
      <trkpt lat="46.44173" lon="5.85378">
        <ele>714.6</ele>
        <time>2021-10-17T07:55:16Z</time>
      </trkpt>
      <trkpt lat="46.44166" lon="5.85386">
        <ele>714</ele>
        <time>2021-10-17T07:55:17Z</time>
      </trkpt>
      <trkpt lat="46.44158" lon="5.85393">
        <ele>713.4</ele>
        <time>2021-10-17T07:55:18Z</time>
      </trkpt>
      <trkpt lat="46.44149" lon="5.85401">
        <ele>712.8</ele>
        <time>2021-10-17T07:55:19Z</time>
      </trkpt>
      <trkpt lat="46.4414" lon="5.85409">
        <ele>712.2</ele>
        <time>2021-10-17T07:55:20Z</time>
      </trkpt>
      <trkpt lat="46.44132" lon="5.85416">
        <ele>711.6</ele>
        <time>2021-10-17T07:55:21Z</time>
      </trkpt>
      <trkpt lat="46.44124" lon="5.85423">
        <ele>711</ele>
        <time>2021-10-17T07:55:22Z</time>
      </trkpt>
      <trkpt lat="46.44115" lon="5.8543">
        <ele>710.4</ele>
        <time>2021-10-17T07:55:23Z</time>
      </trkpt>
      <trkpt lat="46.44105" lon="5.85435">
        <ele>709.6</ele>
        <time>2021-10-17T07:55:24Z</time>
      </trkpt>
      <trkpt lat="46.44095" lon="5.85439">
        <ele>708.8</ele>
        <time>2021-10-17T07:55:25Z</time>
      </trkpt>
      <trkpt lat="46.44085" lon="5.85443">
        <ele>708</ele>
        <time>2021-10-17T07:55:26Z</time>
      </trkpt>
      <trkpt lat="46.44075" lon="5.85446">
        <ele>707.4</ele>
        <time>2021-10-17T07:55:27Z</time>
      </trkpt>
      <trkpt lat="46.44065" lon="5.8545">
        <ele>706.6</ele>
        <time>2021-10-17T07:55:28Z</time>
      </trkpt>
      <trkpt lat="46.44057" lon="5.85453">
        <ele>706.2</ele>
        <time>2021-10-17T07:55:29Z</time>
      </trkpt>
      <trkpt lat="46.44051" lon="5.85456">
        <ele>705.6</ele>
        <time>2021-10-17T07:55:30Z</time>
      </trkpt>
      <trkpt lat="46.44045" lon="5.85459">
        <ele>705.2</ele>
        <time>2021-10-17T07:55:31Z</time>
      </trkpt>
      <trkpt lat="46.4404" lon="5.8546">
        <ele>704.6</ele>
        <time>2021-10-17T07:55:32Z</time>
      </trkpt>
      <trkpt lat="46.44036" lon="5.85461">
        <ele>704.2</ele>
        <time>2021-10-17T07:55:33Z</time>
      </trkpt>
      <trkpt lat="46.44033" lon="5.85462">
        <ele>703.6</ele>
        <time>2021-10-17T07:55:34Z</time>
      </trkpt>
      <trkpt lat="46.44029" lon="5.85463">
        <ele>703</ele>
        <time>2021-10-17T07:55:35Z</time>
      </trkpt>
      <trkpt lat="46.44025" lon="5.85464">
        <ele>702.6</ele>
        <time>2021-10-17T07:55:36Z</time>
      </trkpt>
      <trkpt lat="46.44022" lon="5.85466">
        <ele>702</ele>
        <time>2021-10-17T07:55:37Z</time>
      </trkpt>
      <trkpt lat="46.4402" lon="5.85467">
        <ele>701.6</ele>
        <time>2021-10-17T07:55:38Z</time>
      </trkpt>
      <trkpt lat="46.44018" lon="5.85468">
        <ele>701.2</ele>
        <time>2021-10-17T07:55:39Z</time>
      </trkpt>
      <trkpt lat="46.44017" lon="5.8547">
        <ele>700.8</ele>
        <time>2021-10-17T07:55:40Z</time>
      </trkpt>
      <trkpt lat="46.44016" lon="5.85471">
        <ele>700.4</ele>
        <time>2021-10-17T07:55:41Z</time>
      </trkpt>
      <trkpt lat="46.44015" lon="5.85471">
        <ele>700.2</ele>
        <time>2021-10-17T07:55:42Z</time>
      </trkpt>
      <trkpt lat="46.44013" lon="5.85472">
        <ele>699.4</ele>
        <time>2021-10-17T07:56:49Z</time>
      </trkpt>
      <trkpt lat="46.44011" lon="5.85474">
        <ele>699.4</ele>
        <time>2021-10-17T07:56:50Z</time>
      </trkpt>
      <trkpt lat="46.44008" lon="5.85476">
        <ele>699</ele>
        <time>2021-10-17T07:56:51Z</time>
      </trkpt>
      <trkpt lat="46.44004" lon="5.85478">
        <ele>698.8</ele>
        <time>2021-10-17T07:56:52Z</time>
      </trkpt>
      <trkpt lat="46.43999" lon="5.8548">
        <ele>698.4</ele>
        <time>2021-10-17T07:56:53Z</time>
      </trkpt>
      <trkpt lat="46.43994" lon="5.85483">
        <ele>698</ele>
        <time>2021-10-17T07:56:54Z</time>
      </trkpt>
      <trkpt lat="46.43988" lon="5.85486">
        <ele>697.6</ele>
        <time>2021-10-17T07:56:55Z</time>
      </trkpt>
      <trkpt lat="46.43982" lon="5.85489">
        <ele>697</ele>
        <time>2021-10-17T07:56:56Z</time>
      </trkpt>
      <trkpt lat="46.43975" lon="5.85492">
        <ele>696.6</ele>
        <time>2021-10-17T07:56:57Z</time>
      </trkpt>
      <trkpt lat="46.43968" lon="5.85496">
        <ele>696.2</ele>
        <time>2021-10-17T07:56:58Z</time>
      </trkpt>
      <trkpt lat="46.43961" lon="5.855">
        <ele>695.6</ele>
        <time>2021-10-17T07:56:59Z</time>
      </trkpt>
      <trkpt lat="46.43953" lon="5.85504">
        <ele>695.2</ele>
        <time>2021-10-17T07:57:00Z</time>
      </trkpt>
      <trkpt lat="46.43945" lon="5.85507">
        <ele>694.6</ele>
        <time>2021-10-17T07:57:01Z</time>
      </trkpt>
      <trkpt lat="46.43936" lon="5.85511">
        <ele>694.2</ele>
        <time>2021-10-17T07:57:02Z</time>
      </trkpt>
      <trkpt lat="46.43928" lon="5.85514">
        <ele>693.4</ele>
        <time>2021-10-17T07:57:03Z</time>
      </trkpt>
      <trkpt lat="46.4392" lon="5.85516">
        <ele>692.8</ele>
        <time>2021-10-17T07:57:04Z</time>
      </trkpt>
      <trkpt lat="46.43912" lon="5.85519">
        <ele>692.2</ele>
        <time>2021-10-17T07:57:05Z</time>
      </trkpt>
      <trkpt lat="46.43904" lon="5.85521">
        <ele>691.4</ele>
        <time>2021-10-17T07:57:06Z</time>
      </trkpt>
      <trkpt lat="46.43897" lon="5.85523">
        <ele>690.6</ele>
        <time>2021-10-17T07:57:07Z</time>
      </trkpt>
      <trkpt lat="46.4389" lon="5.85525">
        <ele>689.8</ele>
        <time>2021-10-17T07:57:08Z</time>
      </trkpt>
      <trkpt lat="46.43882" lon="5.85527">
        <ele>689</ele>
        <time>2021-10-17T07:57:09Z</time>
      </trkpt>
      <trkpt lat="46.43875" lon="5.85528">
        <ele>688.2</ele>
        <time>2021-10-17T07:57:10Z</time>
      </trkpt>
      <trkpt lat="46.43868" lon="5.85529">
        <ele>687.4</ele>
        <time>2021-10-17T07:57:11Z</time>
      </trkpt>
      <trkpt lat="46.43861" lon="5.85529">
        <ele>686.8</ele>
        <time>2021-10-17T07:57:12Z</time>
      </trkpt>
      <trkpt lat="46.43854" lon="5.85529">
        <ele>686</ele>
        <time>2021-10-17T07:57:13Z</time>
      </trkpt>
      <trkpt lat="46.43846" lon="5.85529">
        <ele>685.2</ele>
        <time>2021-10-17T07:57:14Z</time>
      </trkpt>
      <trkpt lat="46.43839" lon="5.85528">
        <ele>684.6</ele>
        <time>2021-10-17T07:57:15Z</time>
      </trkpt>
      <trkpt lat="46.43833" lon="5.85527">
        <ele>684</ele>
        <time>2021-10-17T07:57:16Z</time>
      </trkpt>
      <trkpt lat="46.43826" lon="5.85524">
        <ele>683.4</ele>
        <time>2021-10-17T07:57:17Z</time>
      </trkpt>
      <trkpt lat="46.4382" lon="5.85521">
        <ele>683</ele>
        <time>2021-10-17T07:57:18Z</time>
      </trkpt>
      <trkpt lat="46.43814" lon="5.85517">
        <ele>682.6</ele>
        <time>2021-10-17T07:57:19Z</time>
      </trkpt>
      <trkpt lat="46.43807" lon="5.85513">
        <ele>682.2</ele>
        <time>2021-10-17T07:57:20Z</time>
      </trkpt>
      <trkpt lat="46.43801" lon="5.85508">
        <ele>681.8</ele>
        <time>2021-10-17T07:57:21Z</time>
      </trkpt>
      <trkpt lat="46.43794" lon="5.85502">
        <ele>681.4</ele>
        <time>2021-10-17T07:57:22Z</time>
      </trkpt>
      <trkpt lat="46.43787" lon="5.85498">
        <ele>681</ele>
        <time>2021-10-17T07:57:23Z</time>
      </trkpt>
      <trkpt lat="46.4378" lon="5.85493">
        <ele>680.6</ele>
        <time>2021-10-17T07:57:24Z</time>
      </trkpt>
      <trkpt lat="46.43773" lon="5.85488">
        <ele>680.4</ele>
        <time>2021-10-17T07:57:25Z</time>
      </trkpt>
      <trkpt lat="46.43766" lon="5.85483">
        <ele>680</ele>
        <time>2021-10-17T07:57:26Z</time>
      </trkpt>
      <trkpt lat="46.43759" lon="5.85478">
        <ele>679.6</ele>
        <time>2021-10-17T07:57:27Z</time>
      </trkpt>
      <trkpt lat="46.43752" lon="5.85473">
        <ele>679.4</ele>
        <time>2021-10-17T07:57:28Z</time>
      </trkpt>
      <trkpt lat="46.43746" lon="5.85468">
        <ele>679</ele>
        <time>2021-10-17T07:57:29Z</time>
      </trkpt>
      <trkpt lat="46.4374" lon="5.85464">
        <ele>678.8</ele>
        <time>2021-10-17T07:57:30Z</time>
      </trkpt>
      <trkpt lat="46.43735" lon="5.8546">
        <ele>678.6</ele>
        <time>2021-10-17T07:57:31Z</time>
      </trkpt>
      <trkpt lat="46.4373" lon="5.85457">
        <ele>678.4</ele>
        <time>2021-10-17T07:57:32Z</time>
      </trkpt>
      <trkpt lat="46.43726" lon="5.85455">
        <ele>678</ele>
        <time>2021-10-17T07:57:33Z</time>
      </trkpt>
      <trkpt lat="46.43723" lon="5.85453">
        <ele>678</ele>
        <time>2021-10-17T07:57:34Z</time>
      </trkpt>
      <trkpt lat="46.4372" lon="5.85452">
        <ele>677.6</ele>
        <time>2021-10-17T07:57:35Z</time>
      </trkpt>
      <trkpt lat="46.43718" lon="5.8545">
        <ele>677.6</ele>
        <time>2021-10-17T07:57:36Z</time>
      </trkpt>
      <trkpt lat="46.43715" lon="5.85448">
        <ele>677.2</ele>
        <time>2021-10-17T07:57:37Z</time>
      </trkpt>
      <trkpt lat="46.43713" lon="5.85446">
        <ele>677</ele>
        <time>2021-10-17T07:57:38Z</time>
      </trkpt>
      <trkpt lat="46.4371" lon="5.85446">
        <ele>677</ele>
        <time>2021-10-17T07:57:39Z</time>
      </trkpt>
      <trkpt lat="46.43707" lon="5.85444">
        <ele>676.6</ele>
        <time>2021-10-17T07:57:40Z</time>
      </trkpt>
      <trkpt lat="46.43704" lon="5.85441">
        <ele>676.4</ele>
        <time>2021-10-17T07:57:41Z</time>
      </trkpt>
      <trkpt lat="46.437" lon="5.85437">
        <ele>676</ele>
        <time>2021-10-17T07:57:42Z</time>
      </trkpt>
      <trkpt lat="46.43695" lon="5.85433">
        <ele>675.8</ele>
        <time>2021-10-17T07:57:43Z</time>
      </trkpt>
      <trkpt lat="46.43691" lon="5.85428">
        <ele>675.6</ele>
        <time>2021-10-17T07:57:44Z</time>
      </trkpt>
      <trkpt lat="46.43686" lon="5.85423">
        <ele>675.2</ele>
        <time>2021-10-17T07:57:45Z</time>
      </trkpt>
      <trkpt lat="46.4368" lon="5.85419">
        <ele>675</ele>
        <time>2021-10-17T07:57:46Z</time>
      </trkpt>
      <trkpt lat="46.43674" lon="5.85415">
        <ele>674.6</ele>
        <time>2021-10-17T07:57:47Z</time>
      </trkpt>
      <trkpt lat="46.43668" lon="5.85411">
        <ele>674.2</ele>
        <time>2021-10-17T07:57:48Z</time>
      </trkpt>
      <trkpt lat="46.43662" lon="5.85407">
        <ele>673.8</ele>
        <time>2021-10-17T07:57:49Z</time>
      </trkpt>
      <trkpt lat="46.43655" lon="5.85403">
        <ele>673.6</ele>
        <time>2021-10-17T07:57:50Z</time>
      </trkpt>
      <trkpt lat="46.43648" lon="5.85399">
        <ele>673.2</ele>
        <time>2021-10-17T07:57:51Z</time>
      </trkpt>
      <trkpt lat="46.43641" lon="5.85396">
        <ele>672.8</ele>
        <time>2021-10-17T07:57:52Z</time>
      </trkpt>
      <trkpt lat="46.43633" lon="5.85394">
        <ele>672.4</ele>
        <time>2021-10-17T07:57:53Z</time>
      </trkpt>
      <trkpt lat="46.43625" lon="5.85393">
        <ele>672</ele>
        <time>2021-10-17T07:57:54Z</time>
      </trkpt>
      <trkpt lat="46.43616" lon="5.85393">
        <ele>671.4</ele>
        <time>2021-10-17T07:57:55Z</time>
      </trkpt>
      <trkpt lat="46.43608" lon="5.85395">
        <ele>671</ele>
        <time>2021-10-17T07:57:56Z</time>
      </trkpt>
      <trkpt lat="46.436" lon="5.85399">
        <ele>670.6</ele>
        <time>2021-10-17T07:57:57Z</time>
      </trkpt>
      <trkpt lat="46.43591" lon="5.85404">
        <ele>670.2</ele>
        <time>2021-10-17T07:57:58Z</time>
      </trkpt>
      <trkpt lat="46.43583" lon="5.8541">
        <ele>669.8</ele>
        <time>2021-10-17T07:57:59Z</time>
      </trkpt>
      <trkpt lat="46.43576" lon="5.85418">
        <ele>669.4</ele>
        <time>2021-10-17T07:58:00Z</time>
      </trkpt>
      <trkpt lat="46.43568" lon="5.85426">
        <ele>669</ele>
        <time>2021-10-17T07:58:01Z</time>
      </trkpt>
      <trkpt lat="46.43561" lon="5.85436">
        <ele>668.6</ele>
        <time>2021-10-17T07:58:02Z</time>
      </trkpt>
      <trkpt lat="46.43554" lon="5.85444">
        <ele>668</ele>
        <time>2021-10-17T07:58:03Z</time>
      </trkpt>
      <trkpt lat="46.43546" lon="5.85452">
        <ele>667.6</ele>
        <time>2021-10-17T07:58:04Z</time>
      </trkpt>
      <trkpt lat="46.43538" lon="5.85459">
        <ele>667.2</ele>
        <time>2021-10-17T07:58:05Z</time>
      </trkpt>
      <trkpt lat="46.4353" lon="5.85466">
        <ele>666.8</ele>
        <time>2021-10-17T07:58:06Z</time>
      </trkpt>
      <trkpt lat="46.43522" lon="5.85471">
        <ele>666.2</ele>
        <time>2021-10-17T07:58:07Z</time>
      </trkpt>
      <trkpt lat="46.43514" lon="5.85479">
        <ele>665.8</ele>
        <time>2021-10-17T07:58:08Z</time>
      </trkpt>
      <trkpt lat="46.43506" lon="5.85486">
        <ele>665.2</ele>
        <time>2021-10-17T07:58:09Z</time>
      </trkpt>
      <trkpt lat="46.43497" lon="5.85494">
        <ele>664.6</ele>
        <time>2021-10-17T07:58:10Z</time>
      </trkpt>
      <trkpt lat="46.43489" lon="5.85501">
        <ele>664</ele>
        <time>2021-10-17T07:58:11Z</time>
      </trkpt>
      <trkpt lat="46.43481" lon="5.85507">
        <ele>663.4</ele>
        <time>2021-10-17T07:58:12Z</time>
      </trkpt>
      <trkpt lat="46.43471" lon="5.85513">
        <ele>662.8</ele>
        <time>2021-10-17T07:58:13Z</time>
      </trkpt>
      <trkpt lat="46.43461" lon="5.85519">
        <ele>662.4</ele>
        <time>2021-10-17T07:58:14Z</time>
      </trkpt>
      <trkpt lat="46.4345" lon="5.85524">
        <ele>661.8</ele>
        <time>2021-10-17T07:58:15Z</time>
      </trkpt>
      <trkpt lat="46.43439" lon="5.85527">
        <ele>661.2</ele>
        <time>2021-10-17T07:58:16Z</time>
      </trkpt>
      <trkpt lat="46.43428" lon="5.85528">
        <ele>660.6</ele>
        <time>2021-10-17T07:58:17Z</time>
      </trkpt>
      <trkpt lat="46.43418" lon="5.85528">
        <ele>660</ele>
        <time>2021-10-17T07:58:18Z</time>
      </trkpt>
      <trkpt lat="46.43406" lon="5.85527">
        <ele>659.2</ele>
        <time>2021-10-17T07:58:19Z</time>
      </trkpt>
      <trkpt lat="46.43395" lon="5.85526">
        <ele>658.6</ele>
        <time>2021-10-17T07:58:20Z</time>
      </trkpt>
      <trkpt lat="46.43384" lon="5.85524">
        <ele>658</ele>
        <time>2021-10-17T07:58:21Z</time>
      </trkpt>
      <trkpt lat="46.43375" lon="5.85522">
        <ele>657.4</ele>
        <time>2021-10-17T07:58:22Z</time>
      </trkpt>
      <trkpt lat="46.43364" lon="5.8552">
        <ele>657</ele>
        <time>2021-10-17T07:58:23Z</time>
      </trkpt>
      <trkpt lat="46.43353" lon="5.85518">
        <ele>656.4</ele>
        <time>2021-10-17T07:58:24Z</time>
      </trkpt>
      <trkpt lat="46.43341" lon="5.85516">
        <ele>655.8</ele>
        <time>2021-10-17T07:58:25Z</time>
      </trkpt>
      <trkpt lat="46.4333" lon="5.85516">
        <ele>655.2</ele>
        <time>2021-10-17T07:58:26Z</time>
      </trkpt>
      <trkpt lat="46.43319" lon="5.85516">
        <ele>654.6</ele>
        <time>2021-10-17T07:58:27Z</time>
      </trkpt>
      <trkpt lat="46.43308" lon="5.85518">
        <ele>654.2</ele>
        <time>2021-10-17T07:58:28Z</time>
      </trkpt>
      <trkpt lat="46.43297" lon="5.85519">
        <ele>653.6</ele>
        <time>2021-10-17T07:58:29Z</time>
      </trkpt>
      <trkpt lat="46.43286" lon="5.85521">
        <ele>653</ele>
        <time>2021-10-17T07:58:30Z</time>
      </trkpt>
      <trkpt lat="46.43274" lon="5.85524">
        <ele>652.4</ele>
        <time>2021-10-17T07:58:31Z</time>
      </trkpt>
      <trkpt lat="46.43263" lon="5.85527">
        <ele>651.8</ele>
        <time>2021-10-17T07:58:32Z</time>
      </trkpt>
      <trkpt lat="46.43252" lon="5.8553">
        <ele>651.2</ele>
        <time>2021-10-17T07:58:33Z</time>
      </trkpt>
      <trkpt lat="46.43241" lon="5.85533">
        <ele>650.6</ele>
        <time>2021-10-17T07:58:34Z</time>
      </trkpt>
      <trkpt lat="46.43229" lon="5.85536">
        <ele>650</ele>
        <time>2021-10-17T07:58:35Z</time>
      </trkpt>
      <trkpt lat="46.43218" lon="5.85538">
        <ele>649.6</ele>
        <time>2021-10-17T07:58:36Z</time>
      </trkpt>
      <trkpt lat="46.43208" lon="5.8554">
        <ele>649</ele>
        <time>2021-10-17T07:58:37Z</time>
      </trkpt>
      <trkpt lat="46.43196" lon="5.85542">
        <ele>648.4</ele>
        <time>2021-10-17T07:58:38Z</time>
      </trkpt>
      <trkpt lat="46.43185" lon="5.85545">
        <ele>648</ele>
        <time>2021-10-17T07:58:39Z</time>
      </trkpt>
      <trkpt lat="46.43175" lon="5.85547">
        <ele>647.4</ele>
        <time>2021-10-17T07:58:40Z</time>
      </trkpt>
      <trkpt lat="46.43164" lon="5.8555">
        <ele>646.8</ele>
        <time>2021-10-17T07:58:41Z</time>
      </trkpt>
      <trkpt lat="46.43153" lon="5.85555">
        <ele>646.2</ele>
        <time>2021-10-17T07:58:42Z</time>
      </trkpt>
      <trkpt lat="46.43143" lon="5.8556">
        <ele>645.6</ele>
        <time>2021-10-17T07:58:43Z</time>
      </trkpt>
      <trkpt lat="46.43133" lon="5.85567">
        <ele>645</ele>
        <time>2021-10-17T07:58:44Z</time>
      </trkpt>
      <trkpt lat="46.43123" lon="5.85573">
        <ele>644.4</ele>
        <time>2021-10-17T07:58:45Z</time>
      </trkpt>
      <trkpt lat="46.43114" lon="5.8558">
        <ele>643.8</ele>
        <time>2021-10-17T07:58:46Z</time>
      </trkpt>
      <trkpt lat="46.43104" lon="5.85587">
        <ele>643.2</ele>
        <time>2021-10-17T07:58:47Z</time>
      </trkpt>
      <trkpt lat="46.43095" lon="5.85595">
        <ele>642.8</ele>
        <time>2021-10-17T07:58:48Z</time>
      </trkpt>
      <trkpt lat="46.43087" lon="5.85604">
        <ele>642.2</ele>
        <time>2021-10-17T07:58:49Z</time>
      </trkpt>
      <trkpt lat="46.43079" lon="5.85615">
        <ele>641.6</ele>
        <time>2021-10-17T07:58:50Z</time>
      </trkpt>
      <trkpt lat="46.43072" lon="5.85627">
        <ele>641</ele>
        <time>2021-10-17T07:58:51Z</time>
      </trkpt>
      <trkpt lat="46.43066" lon="5.8564">
        <ele>640.4</ele>
        <time>2021-10-17T07:58:52Z</time>
      </trkpt>
      <trkpt lat="46.4306" lon="5.85653">
        <ele>639.8</ele>
        <time>2021-10-17T07:58:53Z</time>
      </trkpt>
      <trkpt lat="46.43054" lon="5.85667">
        <ele>639.2</ele>
        <time>2021-10-17T07:58:54Z</time>
      </trkpt>
      <trkpt lat="46.43048" lon="5.85681">
        <ele>638.6</ele>
        <time>2021-10-17T07:58:55Z</time>
      </trkpt>
      <trkpt lat="46.43043" lon="5.85695">
        <ele>638</ele>
        <time>2021-10-17T07:58:56Z</time>
      </trkpt>
      <trkpt lat="46.43039" lon="5.8571">
        <ele>637.6</ele>
        <time>2021-10-17T07:58:57Z</time>
      </trkpt>
      <trkpt lat="46.43035" lon="5.85726">
        <ele>637</ele>
        <time>2021-10-17T07:58:58Z</time>
      </trkpt>
      <trkpt lat="46.4303" lon="5.8574">
        <ele>636.4</ele>
        <time>2021-10-17T07:58:59Z</time>
      </trkpt>
      <trkpt lat="46.43026" lon="5.85755">
        <ele>635.8</ele>
        <time>2021-10-17T07:59:00Z</time>
      </trkpt>
      <trkpt lat="46.43024" lon="5.85767">
        <ele>635.4</ele>
        <time>2021-10-17T07:59:01Z</time>
      </trkpt>
      <trkpt lat="46.4302" lon="5.85781">
        <ele>634.8</ele>
        <time>2021-10-17T07:59:02Z</time>
      </trkpt>
      <trkpt lat="46.43014" lon="5.85794">
        <ele>634.4</ele>
        <time>2021-10-17T07:59:03Z</time>
      </trkpt>
      <trkpt lat="46.43008" lon="5.85807">
        <ele>633.8</ele>
        <time>2021-10-17T07:59:04Z</time>
      </trkpt>
      <trkpt lat="46.43003" lon="5.8582">
        <ele>633.2</ele>
        <time>2021-10-17T07:59:05Z</time>
      </trkpt>
      <trkpt lat="46.42997" lon="5.85834">
        <ele>632.6</ele>
        <time>2021-10-17T07:59:06Z</time>
      </trkpt>
      <trkpt lat="46.4299" lon="5.8585">
        <ele>632</ele>
        <time>2021-10-17T07:59:07Z</time>
      </trkpt>
      <trkpt lat="46.42984" lon="5.85866">
        <ele>631.4</ele>
        <time>2021-10-17T07:59:08Z</time>
      </trkpt>
      <trkpt lat="46.42978" lon="5.85882">
        <ele>630.8</ele>
        <time>2021-10-17T07:59:09Z</time>
      </trkpt>
      <trkpt lat="46.42974" lon="5.85897">
        <ele>630.4</ele>
        <time>2021-10-17T07:59:10Z</time>
      </trkpt>
      <trkpt lat="46.42968" lon="5.85911">
        <ele>629.8</ele>
        <time>2021-10-17T07:59:11Z</time>
      </trkpt>
      <trkpt lat="46.42962" lon="5.85927">
        <ele>629.2</ele>
        <time>2021-10-17T07:59:12Z</time>
      </trkpt>
      <trkpt lat="46.42951" lon="5.85942">
        <ele>628.6</ele>
        <time>2021-10-17T07:59:13Z</time>
      </trkpt>
      <trkpt lat="46.42944" lon="5.85956">
        <ele>628</ele>
        <time>2021-10-17T07:59:14Z</time>
      </trkpt>
      <trkpt lat="46.42937" lon="5.85966">
        <ele>627.6</ele>
        <time>2021-10-17T07:59:15Z</time>
      </trkpt>
      <trkpt lat="46.42929" lon="5.85973">
        <ele>627</ele>
        <time>2021-10-17T07:59:16Z</time>
      </trkpt>
      <trkpt lat="46.42919" lon="5.85979">
        <ele>626.4</ele>
        <time>2021-10-17T07:59:17Z</time>
      </trkpt>
      <trkpt lat="46.4291" lon="5.85979">
        <ele>626</ele>
        <time>2021-10-17T07:59:18Z</time>
      </trkpt>
      <trkpt lat="46.429" lon="5.85979">
        <ele>625.6</ele>
        <time>2021-10-17T07:59:19Z</time>
      </trkpt>
      <trkpt lat="46.42887" lon="5.85977">
        <ele>625</ele>
        <time>2021-10-17T07:59:20Z</time>
      </trkpt>
      <trkpt lat="46.42876" lon="5.85973">
        <ele>624.6</ele>
        <time>2021-10-17T07:59:21Z</time>
      </trkpt>
      <trkpt lat="46.42867" lon="5.85965">
        <ele>624.2</ele>
        <time>2021-10-17T07:59:22Z</time>
      </trkpt>
      <trkpt lat="46.42858" lon="5.85957">
        <ele>623.8</ele>
        <time>2021-10-17T07:59:23Z</time>
      </trkpt>
      <trkpt lat="46.4285" lon="5.85947">
        <ele>623.2</ele>
        <time>2021-10-17T07:59:24Z</time>
      </trkpt>
      <trkpt lat="46.42842" lon="5.85937">
        <ele>622.8</ele>
        <time>2021-10-17T07:59:25Z</time>
      </trkpt>
      <trkpt lat="46.42835" lon="5.85927">
        <ele>622.4</ele>
        <time>2021-10-17T07:59:26Z</time>
      </trkpt>
      <trkpt lat="46.42827" lon="5.85917">
        <ele>622</ele>
        <time>2021-10-17T07:59:27Z</time>
      </trkpt>
      <trkpt lat="46.42819" lon="5.85909">
        <ele>621.6</ele>
        <time>2021-10-17T07:59:28Z</time>
      </trkpt>
      <trkpt lat="46.42809" lon="5.85903">
        <ele>621.2</ele>
        <time>2021-10-17T07:59:29Z</time>
      </trkpt>
      <trkpt lat="46.428" lon="5.85899">
        <ele>620.6</ele>
        <time>2021-10-17T07:59:30Z</time>
      </trkpt>
      <trkpt lat="46.4279" lon="5.85898">
        <ele>620</ele>
        <time>2021-10-17T07:59:31Z</time>
      </trkpt>
      <trkpt lat="46.4278" lon="5.859">
        <ele>619.6</ele>
        <time>2021-10-17T07:59:32Z</time>
      </trkpt>
      <trkpt lat="46.4277" lon="5.85903">
        <ele>619</ele>
        <time>2021-10-17T07:59:33Z</time>
      </trkpt>
      <trkpt lat="46.4276" lon="5.85905">
        <ele>618.6</ele>
        <time>2021-10-17T07:59:34Z</time>
      </trkpt>
      <trkpt lat="46.42741" lon="5.85909">
        <ele>617.4</ele>
        <time>2021-10-17T07:59:35Z</time>
      </trkpt>
      <trkpt lat="46.42731" lon="5.8591">
        <ele>617</ele>
        <time>2021-10-17T07:59:36Z</time>
      </trkpt>
      <trkpt lat="46.42721" lon="5.85909">
        <ele>616.4</ele>
        <time>2021-10-17T07:59:37Z</time>
      </trkpt>
      <trkpt lat="46.42712" lon="5.85904">
        <ele>615.8</ele>
        <time>2021-10-17T07:59:38Z</time>
      </trkpt>
      <trkpt lat="46.42703" lon="5.85896">
        <ele>615.4</ele>
        <time>2021-10-17T07:59:39Z</time>
      </trkpt>
      <trkpt lat="46.42695" lon="5.85887">
        <ele>615</ele>
        <time>2021-10-17T07:59:40Z</time>
      </trkpt>
      <trkpt lat="46.42687" lon="5.85877">
        <ele>614.6</ele>
        <time>2021-10-17T07:59:41Z</time>
      </trkpt>
      <trkpt lat="46.42679" lon="5.85866">
        <ele>614</ele>
        <time>2021-10-17T07:59:42Z</time>
      </trkpt>
      <trkpt lat="46.42671" lon="5.85856">
        <ele>613.4</ele>
        <time>2021-10-17T07:59:43Z</time>
      </trkpt>
      <trkpt lat="46.42662" lon="5.85847">
        <ele>612.8</ele>
        <time>2021-10-17T07:59:44Z</time>
      </trkpt>
      <trkpt lat="46.42653" lon="5.85838">
        <ele>612.2</ele>
        <time>2021-10-17T07:59:45Z</time>
      </trkpt>
      <trkpt lat="46.42644" lon="5.85828">
        <ele>611.6</ele>
        <time>2021-10-17T07:59:46Z</time>
      </trkpt>
      <trkpt lat="46.42636" lon="5.85817">
        <ele>611</ele>
        <time>2021-10-17T07:59:47Z</time>
      </trkpt>
      <trkpt lat="46.42628" lon="5.85806">
        <ele>610.4</ele>
        <time>2021-10-17T07:59:48Z</time>
      </trkpt>
      <trkpt lat="46.42621" lon="5.85795">
        <ele>609.8</ele>
        <time>2021-10-17T07:59:49Z</time>
      </trkpt>
      <trkpt lat="46.42614" lon="5.85785">
        <ele>609.2</ele>
        <time>2021-10-17T07:59:50Z</time>
      </trkpt>
      <trkpt lat="46.42605" lon="5.85778">
        <ele>608.6</ele>
        <time>2021-10-17T07:59:51Z</time>
      </trkpt>
      <trkpt lat="46.42596" lon="5.85773">
        <ele>608</ele>
        <time>2021-10-17T07:59:52Z</time>
      </trkpt>
      <trkpt lat="46.42587" lon="5.85773">
        <ele>607.4</ele>
        <time>2021-10-17T07:59:53Z</time>
      </trkpt>
      <trkpt lat="46.42578" lon="5.85775">
        <ele>607</ele>
        <time>2021-10-17T07:59:54Z</time>
      </trkpt>
      <trkpt lat="46.42569" lon="5.85781">
        <ele>606.6</ele>
        <time>2021-10-17T07:59:55Z</time>
      </trkpt>
      <trkpt lat="46.42559" lon="5.85786">
        <ele>606</ele>
        <time>2021-10-17T07:59:56Z</time>
      </trkpt>
      <trkpt lat="46.42549" lon="5.8579">
        <ele>605.6</ele>
        <time>2021-10-17T07:59:57Z</time>
      </trkpt>
      <trkpt lat="46.42539" lon="5.85791">
        <ele>605</ele>
        <time>2021-10-17T07:59:58Z</time>
      </trkpt>
      <trkpt lat="46.4253" lon="5.85791">
        <ele>604.4</ele>
        <time>2021-10-17T07:59:59Z</time>
      </trkpt>
      <trkpt lat="46.42522" lon="5.8579">
        <ele>603.8</ele>
        <time>2021-10-17T08:00:00Z</time>
      </trkpt>
      <trkpt lat="46.42512" lon="5.85789">
        <ele>603.4</ele>
        <time>2021-10-17T08:00:01Z</time>
      </trkpt>
      <trkpt lat="46.42503" lon="5.85784">
        <ele>602.8</ele>
        <time>2021-10-17T08:00:02Z</time>
      </trkpt>
      <trkpt lat="46.42494" lon="5.8578">
        <ele>602.4</ele>
        <time>2021-10-17T08:00:03Z</time>
      </trkpt>
      <trkpt lat="46.42486" lon="5.85776">
        <ele>602</ele>
        <time>2021-10-17T08:00:04Z</time>
      </trkpt>
      <trkpt lat="46.42479" lon="5.85773">
        <ele>601.6</ele>
        <time>2021-10-17T08:00:05Z</time>
      </trkpt>
      <trkpt lat="46.42472" lon="5.85771">
        <ele>601.2</ele>
        <time>2021-10-17T08:00:06Z</time>
      </trkpt>
      <trkpt lat="46.42465" lon="5.85773">
        <ele>600.8</ele>
        <time>2021-10-17T08:00:07Z</time>
      </trkpt>
      <trkpt lat="46.42459" lon="5.85777">
        <ele>600.4</ele>
        <time>2021-10-17T08:00:08Z</time>
      </trkpt>
      <trkpt lat="46.42453" lon="5.85784">
        <ele>600.2</ele>
        <time>2021-10-17T08:00:09Z</time>
      </trkpt>
      <trkpt lat="46.42447" lon="5.85792">
        <ele>599.8</ele>
        <time>2021-10-17T08:00:10Z</time>
      </trkpt>
      <trkpt lat="46.4244" lon="5.85798">
        <ele>599.2</ele>
        <time>2021-10-17T08:00:11Z</time>
      </trkpt>
      <trkpt lat="46.42433" lon="5.85804">
        <ele>598.8</ele>
        <time>2021-10-17T08:00:12Z</time>
      </trkpt>
      <trkpt lat="46.42425" lon="5.85807">
        <ele>598.4</ele>
        <time>2021-10-17T08:00:13Z</time>
      </trkpt>
      <trkpt lat="46.42416" lon="5.85807">
        <ele>598</ele>
        <time>2021-10-17T08:00:14Z</time>
      </trkpt>
      <trkpt lat="46.42407" lon="5.85806">
        <ele>597.6</ele>
        <time>2021-10-17T08:00:15Z</time>
      </trkpt>
      <trkpt lat="46.42397" lon="5.85805">
        <ele>597.2</ele>
        <time>2021-10-17T08:00:16Z</time>
      </trkpt>
      <trkpt lat="46.42388" lon="5.85804">
        <ele>596.6</ele>
        <time>2021-10-17T08:00:17Z</time>
      </trkpt>
      <trkpt lat="46.42379" lon="5.85804">
        <ele>596</ele>
        <time>2021-10-17T08:00:18Z</time>
      </trkpt>
      <trkpt lat="46.42371" lon="5.85805">
        <ele>595.6</ele>
        <time>2021-10-17T08:00:19Z</time>
      </trkpt>
      <trkpt lat="46.42361" lon="5.85807">
        <ele>595</ele>
        <time>2021-10-17T08:00:20Z</time>
      </trkpt>
      <trkpt lat="46.42353" lon="5.85813">
        <ele>594.4</ele>
        <time>2021-10-17T08:00:21Z</time>
      </trkpt>
      <trkpt lat="46.42346" lon="5.8582">
        <ele>593.8</ele>
        <time>2021-10-17T08:00:22Z</time>
      </trkpt>
      <trkpt lat="46.42339" lon="5.85828">
        <ele>593.2</ele>
        <time>2021-10-17T08:00:23Z</time>
      </trkpt>
      <trkpt lat="46.42331" lon="5.85836">
        <ele>592.6</ele>
        <time>2021-10-17T08:00:24Z</time>
      </trkpt>
      <trkpt lat="46.42323" lon="5.85842">
        <ele>592</ele>
        <time>2021-10-17T08:00:25Z</time>
      </trkpt>
      <trkpt lat="46.42313" lon="5.85848">
        <ele>591.6</ele>
        <time>2021-10-17T08:00:26Z</time>
      </trkpt>
      <trkpt lat="46.42304" lon="5.85853">
        <ele>591</ele>
        <time>2021-10-17T08:00:27Z</time>
      </trkpt>
      <trkpt lat="46.42294" lon="5.85857">
        <ele>590.4</ele>
        <time>2021-10-17T08:00:28Z</time>
      </trkpt>
      <trkpt lat="46.42284" lon="5.8586">
        <ele>589.8</ele>
        <time>2021-10-17T08:00:29Z</time>
      </trkpt>
      <trkpt lat="46.42273" lon="5.85863">
        <ele>589.2</ele>
        <time>2021-10-17T08:00:30Z</time>
      </trkpt>
      <trkpt lat="46.42263" lon="5.85866">
        <ele>588.6</ele>
        <time>2021-10-17T08:00:31Z</time>
      </trkpt>
      <trkpt lat="46.42253" lon="5.85869">
        <ele>588</ele>
        <time>2021-10-17T08:00:32Z</time>
      </trkpt>
      <trkpt lat="46.42243" lon="5.85874">
        <ele>587.6</ele>
        <time>2021-10-17T08:00:33Z</time>
      </trkpt>
      <trkpt lat="46.42233" lon="5.85879">
        <ele>587</ele>
        <time>2021-10-17T08:00:34Z</time>
      </trkpt>
      <trkpt lat="46.42223" lon="5.85885">
        <ele>586.4</ele>
        <time>2021-10-17T08:00:35Z</time>
      </trkpt>
      <trkpt lat="46.42213" lon="5.8589">
        <ele>586</ele>
        <time>2021-10-17T08:00:36Z</time>
      </trkpt>
      <trkpt lat="46.42202" lon="5.85895">
        <ele>585.4</ele>
        <time>2021-10-17T08:00:37Z</time>
      </trkpt>
      <trkpt lat="46.42192" lon="5.85899">
        <ele>584.8</ele>
        <time>2021-10-17T08:00:38Z</time>
      </trkpt>
      <trkpt lat="46.42181" lon="5.85904">
        <ele>584.2</ele>
        <time>2021-10-17T08:00:39Z</time>
      </trkpt>
      <trkpt lat="46.4217" lon="5.85906">
        <ele>583.8</ele>
        <time>2021-10-17T08:00:40Z</time>
      </trkpt>
      <trkpt lat="46.4216" lon="5.85909">
        <ele>583</ele>
        <time>2021-10-17T08:00:41Z</time>
      </trkpt>
      <trkpt lat="46.42148" lon="5.85912">
        <ele>582.4</ele>
        <time>2021-10-17T08:00:42Z</time>
      </trkpt>
      <trkpt lat="46.42137" lon="5.85914">
        <ele>582</ele>
        <time>2021-10-17T08:00:43Z</time>
      </trkpt>
      <trkpt lat="46.42126" lon="5.85915">
        <ele>581.4</ele>
        <time>2021-10-17T08:00:44Z</time>
      </trkpt>
      <trkpt lat="46.42116" lon="5.85916">
        <ele>580.8</ele>
        <time>2021-10-17T08:00:45Z</time>
      </trkpt>
      <trkpt lat="46.42107" lon="5.85916">
        <ele>580.4</ele>
        <time>2021-10-17T08:00:46Z</time>
      </trkpt>
      <trkpt lat="46.42098" lon="5.85917">
        <ele>579.8</ele>
        <time>2021-10-17T08:00:47Z</time>
      </trkpt>
      <trkpt lat="46.42089" lon="5.8592">
        <ele>579.2</ele>
        <time>2021-10-17T08:00:48Z</time>
      </trkpt>
      <trkpt lat="46.42081" lon="5.85925">
        <ele>578.8</ele>
        <time>2021-10-17T08:00:49Z</time>
      </trkpt>
      <trkpt lat="46.42072" lon="5.85932">
        <ele>578.2</ele>
        <time>2021-10-17T08:00:50Z</time>
      </trkpt>
      <trkpt lat="46.42065" lon="5.8594">
        <ele>577.8</ele>
        <time>2021-10-17T08:00:51Z</time>
      </trkpt>
      <trkpt lat="46.42058" lon="5.85949">
        <ele>577.2</ele>
        <time>2021-10-17T08:00:52Z</time>
      </trkpt>
      <trkpt lat="46.42051" lon="5.85957">
        <ele>576.8</ele>
        <time>2021-10-17T08:00:53Z</time>
      </trkpt>
      <trkpt lat="46.42043" lon="5.85963">
        <ele>576.2</ele>
        <time>2021-10-17T08:00:54Z</time>
      </trkpt>
      <trkpt lat="46.42035" lon="5.85968">
        <ele>575.6</ele>
        <time>2021-10-17T08:00:55Z</time>
      </trkpt>
      <trkpt lat="46.42026" lon="5.85971">
        <ele>575</ele>
        <time>2021-10-17T08:00:56Z</time>
      </trkpt>
      <trkpt lat="46.42018" lon="5.85974">
        <ele>574.6</ele>
        <time>2021-10-17T08:00:57Z</time>
      </trkpt>
      <trkpt lat="46.42012" lon="5.85977">
        <ele>574</ele>
        <time>2021-10-17T08:00:58Z</time>
      </trkpt>
      <trkpt lat="46.42012" lon="5.85977">
        <ele>573.6</ele>
        <time>2021-10-17T08:00:59Z</time>
      </trkpt>
      <trkpt lat="46.42001" lon="5.85989">
        <ele>573.2</ele>
        <time>2021-10-17T08:01:00Z</time>
      </trkpt>
      <trkpt lat="46.41998" lon="5.85997">
        <ele>572.6</ele>
        <time>2021-10-17T08:01:01Z</time>
      </trkpt>
      <trkpt lat="46.41998" lon="5.86007">
        <ele>572.2</ele>
        <time>2021-10-17T08:01:02Z</time>
      </trkpt>
      <trkpt lat="46.41998" lon="5.86007">
        <ele>571.8</ele>
        <time>2021-10-17T08:01:03Z</time>
      </trkpt>
      <trkpt lat="46.42001" lon="5.86032">
        <ele>571.4</ele>
        <time>2021-10-17T08:01:04Z</time>
      </trkpt>
      <trkpt lat="46.42002" lon="5.86046">
        <ele>570.8</ele>
        <time>2021-10-17T08:01:05Z</time>
      </trkpt>
      <trkpt lat="46.42002" lon="5.8606">
        <ele>570.4</ele>
        <time>2021-10-17T08:01:06Z</time>
      </trkpt>
      <trkpt lat="46.42002" lon="5.8606">
        <ele>569.8</ele>
        <time>2021-10-17T08:01:07Z</time>
      </trkpt>
      <trkpt lat="46.42002" lon="5.86086">
        <ele>569.2</ele>
        <time>2021-10-17T08:01:08Z</time>
      </trkpt>
      <trkpt lat="46.42" lon="5.86099">
        <ele>568.6</ele>
        <time>2021-10-17T08:01:09Z</time>
      </trkpt>
      <trkpt lat="46.41995" lon="5.86111">
        <ele>568.2</ele>
        <time>2021-10-17T08:01:10Z</time>
      </trkpt>
      <trkpt lat="46.41995" lon="5.86111">
        <ele>567.6</ele>
        <time>2021-10-17T08:01:11Z</time>
      </trkpt>
      <trkpt lat="46.41989" lon="5.86123">
        <ele>567</ele>
        <time>2021-10-17T08:01:12Z</time>
      </trkpt>
      <trkpt lat="46.41983" lon="5.86134">
        <ele>566.4</ele>
        <time>2021-10-17T08:01:13Z</time>
      </trkpt>
      <trkpt lat="46.41975" lon="5.86143">
        <ele>565.8</ele>
        <time>2021-10-17T08:01:14Z</time>
      </trkpt>
      <trkpt lat="46.41967" lon="5.86152">
        <ele>565</ele>
        <time>2021-10-17T08:01:15Z</time>
      </trkpt>
      <trkpt lat="46.41958" lon="5.86162">
        <ele>564.4</ele>
        <time>2021-10-17T08:01:16Z</time>
      </trkpt>
      <trkpt lat="46.41949" lon="5.86172">
        <ele>563.6</ele>
        <time>2021-10-17T08:01:17Z</time>
      </trkpt>
      <trkpt lat="46.4194" lon="5.86182">
        <ele>563</ele>
        <time>2021-10-17T08:01:18Z</time>
      </trkpt>
      <trkpt lat="46.41931" lon="5.86191">
        <ele>562.4</ele>
        <time>2021-10-17T08:01:19Z</time>
      </trkpt>
      <trkpt lat="46.41922" lon="5.86201">
        <ele>561.6</ele>
        <time>2021-10-17T08:01:20Z</time>
      </trkpt>
      <trkpt lat="46.41913" lon="5.86208">
        <ele>561.2</ele>
        <time>2021-10-17T08:01:21Z</time>
      </trkpt>
      <trkpt lat="46.41903" lon="5.86215">
        <ele>560.6</ele>
        <time>2021-10-17T08:01:22Z</time>
      </trkpt>
      <trkpt lat="46.41894" lon="5.8622">
        <ele>559.8</ele>
        <time>2021-10-17T08:01:23Z</time>
      </trkpt>
      <trkpt lat="46.41884" lon="5.86224">
        <ele>559.2</ele>
        <time>2021-10-17T08:01:24Z</time>
      </trkpt>
      <trkpt lat="46.41874" lon="5.86223">
        <ele>558.6</ele>
        <time>2021-10-17T08:01:25Z</time>
      </trkpt>
      <trkpt lat="46.41864" lon="5.86222">
        <ele>558.2</ele>
        <time>2021-10-17T08:01:26Z</time>
      </trkpt>
      <trkpt lat="46.41855" lon="5.86219">
        <ele>557.6</ele>
        <time>2021-10-17T08:01:27Z</time>
      </trkpt>
      <trkpt lat="46.41847" lon="5.86215">
        <ele>557.2</ele>
        <time>2021-10-17T08:01:28Z</time>
      </trkpt>
      <trkpt lat="46.41839" lon="5.8621">
        <ele>556.8</ele>
        <time>2021-10-17T08:01:29Z</time>
      </trkpt>
      <trkpt lat="46.41832" lon="5.86206">
        <ele>556.2</ele>
        <time>2021-10-17T08:01:30Z</time>
      </trkpt>
      <trkpt lat="46.41824" lon="5.86204">
        <ele>555.8</ele>
        <time>2021-10-17T08:01:31Z</time>
      </trkpt>
      <trkpt lat="46.41817" lon="5.86207">
        <ele>555.4</ele>
        <time>2021-10-17T08:01:32Z</time>
      </trkpt>
      <trkpt lat="46.4181" lon="5.86211">
        <ele>555</ele>
        <time>2021-10-17T08:01:33Z</time>
      </trkpt>
      <trkpt lat="46.41805" lon="5.86218">
        <ele>554.6</ele>
        <time>2021-10-17T08:01:34Z</time>
      </trkpt>
      <trkpt lat="46.41799" lon="5.86226">
        <ele>554</ele>
        <time>2021-10-17T08:01:35Z</time>
      </trkpt>
      <trkpt lat="46.41794" lon="5.86236">
        <ele>553.6</ele>
        <time>2021-10-17T08:01:36Z</time>
      </trkpt>
      <trkpt lat="46.41789" lon="5.86245">
        <ele>553</ele>
        <time>2021-10-17T08:01:37Z</time>
      </trkpt>
      <trkpt lat="46.41783" lon="5.86254">
        <ele>552.4</ele>
        <time>2021-10-17T08:01:38Z</time>
      </trkpt>
      <trkpt lat="46.41777" lon="5.86264">
        <ele>551.8</ele>
        <time>2021-10-17T08:01:39Z</time>
      </trkpt>
      <trkpt lat="46.41771" lon="5.86272">
        <ele>551.2</ele>
        <time>2021-10-17T08:01:40Z</time>
      </trkpt>
      <trkpt lat="46.41765" lon="5.86282">
        <ele>550.6</ele>
        <time>2021-10-17T08:01:41Z</time>
      </trkpt>
      <trkpt lat="46.41759" lon="5.86292">
        <ele>550.2</ele>
        <time>2021-10-17T08:01:42Z</time>
      </trkpt>
      <trkpt lat="46.41752" lon="5.86303">
        <ele>549.6</ele>
        <time>2021-10-17T08:01:43Z</time>
      </trkpt>
      <trkpt lat="46.41746" lon="5.86314">
        <ele>549.2</ele>
        <time>2021-10-17T08:01:44Z</time>
      </trkpt>
      <trkpt lat="46.41739" lon="5.86325">
        <ele>548.6</ele>
        <time>2021-10-17T08:01:45Z</time>
      </trkpt>
      <trkpt lat="46.41732" lon="5.86334">
        <ele>548</ele>
        <time>2021-10-17T08:01:46Z</time>
      </trkpt>
      <trkpt lat="46.41725" lon="5.86342">
        <ele>547.4</ele>
        <time>2021-10-17T08:01:47Z</time>
      </trkpt>
      <trkpt lat="46.41718" lon="5.86349">
        <ele>547</ele>
        <time>2021-10-17T08:01:48Z</time>
      </trkpt>
      <trkpt lat="46.41709" lon="5.86355">
        <ele>546.4</ele>
        <time>2021-10-17T08:01:49Z</time>
      </trkpt>
      <trkpt lat="46.41699" lon="5.86358">
        <ele>546</ele>
        <time>2021-10-17T08:01:50Z</time>
      </trkpt>
      <trkpt lat="46.4169" lon="5.86363">
        <ele>545.8</ele>
        <time>2021-10-17T08:01:51Z</time>
      </trkpt>
      <trkpt lat="46.41681" lon="5.86369">
        <ele>545.4</ele>
        <time>2021-10-17T08:01:52Z</time>
      </trkpt>
      <trkpt lat="46.41674" lon="5.86377">
        <ele>545.4</ele>
        <time>2021-10-17T08:01:53Z</time>
      </trkpt>
      <trkpt lat="46.41667" lon="5.86386">
        <ele>544.8</ele>
        <time>2021-10-17T08:01:54Z</time>
      </trkpt>
      <trkpt lat="46.41663" lon="5.86396">
        <ele>544.6</ele>
        <time>2021-10-17T08:01:55Z</time>
      </trkpt>
      <trkpt lat="46.41658" lon="5.86406">
        <ele>544.2</ele>
        <time>2021-10-17T08:01:56Z</time>
      </trkpt>
      <trkpt lat="46.41653" lon="5.86417">
        <ele>543.8</ele>
        <time>2021-10-17T08:01:57Z</time>
      </trkpt>
      <trkpt lat="46.41648" lon="5.86428">
        <ele>543.4</ele>
        <time>2021-10-17T08:01:58Z</time>
      </trkpt>
      <trkpt lat="46.41643" lon="5.86439">
        <ele>543</ele>
        <time>2021-10-17T08:01:59Z</time>
      </trkpt>
      <trkpt lat="46.41638" lon="5.8645">
        <ele>542.6</ele>
        <time>2021-10-17T08:02:00Z</time>
      </trkpt>
      <trkpt lat="46.41632" lon="5.86461">
        <ele>542</ele>
        <time>2021-10-17T08:02:01Z</time>
      </trkpt>
      <trkpt lat="46.41626" lon="5.86472">
        <ele>541.4</ele>
        <time>2021-10-17T08:02:02Z</time>
      </trkpt>
      <trkpt lat="46.4162" lon="5.86482">
        <ele>540.8</ele>
        <time>2021-10-17T08:02:03Z</time>
      </trkpt>
      <trkpt lat="46.41612" lon="5.86492">
        <ele>540.8</ele>
        <time>2021-10-17T08:02:04Z</time>
      </trkpt>
      <trkpt lat="46.41604" lon="5.865">
        <ele>539.8</ele>
        <time>2021-10-17T08:02:05Z</time>
      </trkpt>
      <trkpt lat="46.41595" lon="5.86509">
        <ele>539.8</ele>
        <time>2021-10-17T08:02:06Z</time>
      </trkpt>
      <trkpt lat="46.41587" lon="5.86518">
        <ele>539.2</ele>
        <time>2021-10-17T08:02:07Z</time>
      </trkpt>
      <trkpt lat="46.41578" lon="5.86527">
        <ele>538.8</ele>
        <time>2021-10-17T08:02:08Z</time>
      </trkpt>
      <trkpt lat="46.41569" lon="5.86536">
        <ele>538.2</ele>
        <time>2021-10-17T08:02:09Z</time>
      </trkpt>
      <trkpt lat="46.41561" lon="5.86545">
        <ele>537.8</ele>
        <time>2021-10-17T08:02:10Z</time>
      </trkpt>
      <trkpt lat="46.41551" lon="5.86553">
        <ele>537.2</ele>
        <time>2021-10-17T08:02:11Z</time>
      </trkpt>
      <trkpt lat="46.41542" lon="5.86561">
        <ele>536.6</ele>
        <time>2021-10-17T08:02:12Z</time>
      </trkpt>
      <trkpt lat="46.41533" lon="5.8657">
        <ele>536.2</ele>
        <time>2021-10-17T08:02:13Z</time>
      </trkpt>
      <trkpt lat="46.41525" lon="5.8658">
        <ele>535.6</ele>
        <time>2021-10-17T08:02:14Z</time>
      </trkpt>
      <trkpt lat="46.41516" lon="5.8659">
        <ele>535</ele>
        <time>2021-10-17T08:02:15Z</time>
      </trkpt>
      <trkpt lat="46.41508" lon="5.866">
        <ele>534.4</ele>
        <time>2021-10-17T08:02:16Z</time>
      </trkpt>
      <trkpt lat="46.41501" lon="5.86612">
        <ele>534</ele>
        <time>2021-10-17T08:02:17Z</time>
      </trkpt>
      <trkpt lat="46.41493" lon="5.86624">
        <ele>533.4</ele>
        <time>2021-10-17T08:02:18Z</time>
      </trkpt>
      <trkpt lat="46.41486" lon="5.86637">
        <ele>532.8</ele>
        <time>2021-10-17T08:02:19Z</time>
      </trkpt>
      <trkpt lat="46.41479" lon="5.86649">
        <ele>532.2</ele>
        <time>2021-10-17T08:02:20Z</time>
      </trkpt>
      <trkpt lat="46.41472" lon="5.86661">
        <ele>531.4</ele>
        <time>2021-10-17T08:02:21Z</time>
      </trkpt>
      <trkpt lat="46.41464" lon="5.86672">
        <ele>530.8</ele>
        <time>2021-10-17T08:02:22Z</time>
      </trkpt>
      <trkpt lat="46.41458" lon="5.86682">
        <ele>530.2</ele>
        <time>2021-10-17T08:02:23Z</time>
      </trkpt>
      <trkpt lat="46.41451" lon="5.8669">
        <ele>529.6</ele>
        <time>2021-10-17T08:02:24Z</time>
      </trkpt>
      <trkpt lat="46.41444" lon="5.86697">
        <ele>529.2</ele>
        <time>2021-10-17T08:02:25Z</time>
      </trkpt>
      <trkpt lat="46.41436" lon="5.86701">
        <ele>528.6</ele>
        <time>2021-10-17T08:02:26Z</time>
      </trkpt>
      <trkpt lat="46.41424" lon="5.86703">
        <ele>528</ele>
        <time>2021-10-17T08:02:27Z</time>
      </trkpt>
      <trkpt lat="46.41412" lon="5.86702">
        <ele>527.4</ele>
        <time>2021-10-17T08:02:28Z</time>
      </trkpt>
      <trkpt lat="46.414" lon="5.867">
        <ele>526.8</ele>
        <time>2021-10-17T08:02:29Z</time>
      </trkpt>
      <trkpt lat="46.41389" lon="5.86695">
        <ele>526.2</ele>
        <time>2021-10-17T08:02:30Z</time>
      </trkpt>
      <trkpt lat="46.41379" lon="5.86691">
        <ele>525.8</ele>
        <time>2021-10-17T08:02:31Z</time>
      </trkpt>
      <trkpt lat="46.41369" lon="5.86688">
        <ele>525.2</ele>
        <time>2021-10-17T08:02:32Z</time>
      </trkpt>
      <trkpt lat="46.41358" lon="5.86686">
        <ele>524.8</ele>
        <time>2021-10-17T08:02:33Z</time>
      </trkpt>
      <trkpt lat="46.41348" lon="5.86684">
        <ele>524.2</ele>
        <time>2021-10-17T08:02:34Z</time>
      </trkpt>
      <trkpt lat="46.41338" lon="5.86683">
        <ele>523.8</ele>
        <time>2021-10-17T08:02:35Z</time>
      </trkpt>
      <trkpt lat="46.41327" lon="5.8668">
        <ele>523.2</ele>
        <time>2021-10-17T08:02:36Z</time>
      </trkpt>
      <trkpt lat="46.41317" lon="5.86676">
        <ele>522.6</ele>
        <time>2021-10-17T08:02:37Z</time>
      </trkpt>
      <trkpt lat="46.41308" lon="5.86672">
        <ele>522</ele>
        <time>2021-10-17T08:02:38Z</time>
      </trkpt>
      <trkpt lat="46.41298" lon="5.86668">
        <ele>521.6</ele>
        <time>2021-10-17T08:02:39Z</time>
      </trkpt>
      <trkpt lat="46.41288" lon="5.86665">
        <ele>521</ele>
        <time>2021-10-17T08:02:40Z</time>
      </trkpt>
      <trkpt lat="46.41278" lon="5.86661">
        <ele>520.4</ele>
        <time>2021-10-17T08:02:41Z</time>
      </trkpt>
      <trkpt lat="46.41268" lon="5.86656">
        <ele>520</ele>
        <time>2021-10-17T08:02:42Z</time>
      </trkpt>
      <trkpt lat="46.41258" lon="5.86651">
        <ele>519.4</ele>
        <time>2021-10-17T08:02:43Z</time>
      </trkpt>
      <trkpt lat="46.41249" lon="5.86645">
        <ele>518.8</ele>
        <time>2021-10-17T08:02:44Z</time>
      </trkpt>
      <trkpt lat="46.41239" lon="5.86639">
        <ele>518.4</ele>
        <time>2021-10-17T08:02:45Z</time>
      </trkpt>
      <trkpt lat="46.41228" lon="5.86635">
        <ele>517.8</ele>
        <time>2021-10-17T08:02:46Z</time>
      </trkpt>
      <trkpt lat="46.41218" lon="5.86633">
        <ele>517</ele>
        <time>2021-10-17T08:02:47Z</time>
      </trkpt>
      <trkpt lat="46.41208" lon="5.86633">
        <ele>516.4</ele>
        <time>2021-10-17T08:02:48Z</time>
      </trkpt>
      <trkpt lat="46.41197" lon="5.86633">
        <ele>516</ele>
        <time>2021-10-17T08:02:49Z</time>
      </trkpt>
      <trkpt lat="46.41186" lon="5.86632">
        <ele>515.2</ele>
        <time>2021-10-17T08:02:50Z</time>
      </trkpt>
      <trkpt lat="46.41176" lon="5.8663">
        <ele>514.6</ele>
        <time>2021-10-17T08:02:51Z</time>
      </trkpt>
      <trkpt lat="46.41167" lon="5.86626">
        <ele>514.2</ele>
        <time>2021-10-17T08:02:52Z</time>
      </trkpt>
      <trkpt lat="46.41157" lon="5.86619">
        <ele>513.6</ele>
        <time>2021-10-17T08:02:53Z</time>
      </trkpt>
      <trkpt lat="46.41148" lon="5.8661">
        <ele>512.8</ele>
        <time>2021-10-17T08:02:54Z</time>
      </trkpt>
      <trkpt lat="46.41141" lon="5.86598">
        <ele>512.2</ele>
        <time>2021-10-17T08:02:55Z</time>
      </trkpt>
      <trkpt lat="46.41135" lon="5.86585">
        <ele>511.6</ele>
        <time>2021-10-17T08:02:56Z</time>
      </trkpt>
      <trkpt lat="46.41129" lon="5.86571">
        <ele>511</ele>
        <time>2021-10-17T08:02:57Z</time>
      </trkpt>
      <trkpt lat="46.41124" lon="5.86557">
        <ele>510.4</ele>
        <time>2021-10-17T08:02:58Z</time>
      </trkpt>
      <trkpt lat="46.4112" lon="5.86542">
        <ele>509.6</ele>
        <time>2021-10-17T08:02:59Z</time>
      </trkpt>
      <trkpt lat="46.41115" lon="5.86527">
        <ele>509</ele>
        <time>2021-10-17T08:03:00Z</time>
      </trkpt>
      <trkpt lat="46.41109" lon="5.86514">
        <ele>508.6</ele>
        <time>2021-10-17T08:03:01Z</time>
      </trkpt>
      <trkpt lat="46.41102" lon="5.86503">
        <ele>508</ele>
        <time>2021-10-17T08:03:02Z</time>
      </trkpt>
      <trkpt lat="46.41094" lon="5.86492">
        <ele>507.4</ele>
        <time>2021-10-17T08:03:03Z</time>
      </trkpt>
      <trkpt lat="46.41084" lon="5.86483">
        <ele>507</ele>
        <time>2021-10-17T08:03:04Z</time>
      </trkpt>
      <trkpt lat="46.41075" lon="5.86475">
        <ele>506.4</ele>
        <time>2021-10-17T08:03:05Z</time>
      </trkpt>
      <trkpt lat="46.41065" lon="5.86468">
        <ele>506</ele>
        <time>2021-10-17T08:03:06Z</time>
      </trkpt>
      <trkpt lat="46.41055" lon="5.86462">
        <ele>505.6</ele>
        <time>2021-10-17T08:03:07Z</time>
      </trkpt>
      <trkpt lat="46.41046" lon="5.86454">
        <ele>505.2</ele>
        <time>2021-10-17T08:03:08Z</time>
      </trkpt>
      <trkpt lat="46.41038" lon="5.86446">
        <ele>505</ele>
        <time>2021-10-17T08:03:09Z</time>
      </trkpt>
      <trkpt lat="46.4103" lon="5.86437">
        <ele>504.6</ele>
        <time>2021-10-17T08:03:10Z</time>
      </trkpt>
      <trkpt lat="46.41021" lon="5.86428">
        <ele>504.4</ele>
        <time>2021-10-17T08:03:11Z</time>
      </trkpt>
      <trkpt lat="46.41014" lon="5.86419">
        <ele>504.2</ele>
        <time>2021-10-17T08:03:12Z</time>
      </trkpt>
      <trkpt lat="46.41007" lon="5.86409">
        <ele>503.8</ele>
        <time>2021-10-17T08:03:13Z</time>
      </trkpt>
      <trkpt lat="46.41" lon="5.86401">
        <ele>503.8</ele>
        <time>2021-10-17T08:03:14Z</time>
      </trkpt>
      <trkpt lat="46.40993" lon="5.86393">
        <ele>503.6</ele>
        <time>2021-10-17T08:03:15Z</time>
      </trkpt>
      <trkpt lat="46.40986" lon="5.86387">
        <ele>503.6</ele>
        <time>2021-10-17T08:03:16Z</time>
      </trkpt>
      <trkpt lat="46.40978" lon="5.86382">
        <ele>503.2</ele>
        <time>2021-10-17T08:03:17Z</time>
      </trkpt>
      <trkpt lat="46.40969" lon="5.86379">
        <ele>503</ele>
        <time>2021-10-17T08:03:18Z</time>
      </trkpt>
      <trkpt lat="46.40961" lon="5.86377">
        <ele>503</ele>
        <time>2021-10-17T08:03:19Z</time>
      </trkpt>
      <trkpt lat="46.40952" lon="5.86374">
        <ele>502.6</ele>
        <time>2021-10-17T08:03:20Z</time>
      </trkpt>
      <trkpt lat="46.40943" lon="5.86371">
        <ele>502.2</ele>
        <time>2021-10-17T08:03:21Z</time>
      </trkpt>
      <trkpt lat="46.40934" lon="5.86368">
        <ele>501.8</ele>
        <time>2021-10-17T08:03:22Z</time>
      </trkpt>
      <trkpt lat="46.40925" lon="5.86363">
        <ele>501.6</ele>
        <time>2021-10-17T08:03:23Z</time>
      </trkpt>
      <trkpt lat="46.40917" lon="5.86358">
        <ele>501.2</ele>
        <time>2021-10-17T08:03:24Z</time>
      </trkpt>
      <trkpt lat="46.40909" lon="5.86353">
        <ele>501.2</ele>
        <time>2021-10-17T08:03:25Z</time>
      </trkpt>
      <trkpt lat="46.40901" lon="5.86351">
        <ele>500.8</ele>
        <time>2021-10-17T08:03:26Z</time>
      </trkpt>
      <trkpt lat="46.40893" lon="5.8635">
        <ele>500.8</ele>
        <time>2021-10-17T08:03:27Z</time>
      </trkpt>
      <trkpt lat="46.40884" lon="5.86353">
        <ele>500.6</ele>
        <time>2021-10-17T08:03:28Z</time>
      </trkpt>
      <trkpt lat="46.40876" lon="5.86358">
        <ele>500.4</ele>
        <time>2021-10-17T08:03:29Z</time>
      </trkpt>
      <trkpt lat="46.40868" lon="5.86366">
        <ele>500</ele>
        <time>2021-10-17T08:03:30Z</time>
      </trkpt>
      <trkpt lat="46.40862" lon="5.86374">
        <ele>499.8</ele>
        <time>2021-10-17T08:03:31Z</time>
      </trkpt>
      <trkpt lat="46.40855" lon="5.86384">
        <ele>499.6</ele>
        <time>2021-10-17T08:03:32Z</time>
      </trkpt>
      <trkpt lat="46.40849" lon="5.86393">
        <ele>499.2</ele>
        <time>2021-10-17T08:03:33Z</time>
      </trkpt>
      <trkpt lat="46.40843" lon="5.86402">
        <ele>498.8</ele>
        <time>2021-10-17T08:03:34Z</time>
      </trkpt>
      <trkpt lat="46.40836" lon="5.86411">
        <ele>498.6</ele>
        <time>2021-10-17T08:03:35Z</time>
      </trkpt>
      <trkpt lat="46.4083" lon="5.86418">
        <ele>498.2</ele>
        <time>2021-10-17T08:03:36Z</time>
      </trkpt>
      <trkpt lat="46.40824" lon="5.86423">
        <ele>497.8</ele>
        <time>2021-10-17T08:03:37Z</time>
      </trkpt>
      <trkpt lat="46.40817" lon="5.86428">
        <ele>497.4</ele>
        <time>2021-10-17T08:03:38Z</time>
      </trkpt>
      <trkpt lat="46.4081" lon="5.86431">
        <ele>497.2</ele>
        <time>2021-10-17T08:03:39Z</time>
      </trkpt>
      <trkpt lat="46.40803" lon="5.86434">
        <ele>497</ele>
        <time>2021-10-17T08:03:40Z</time>
      </trkpt>
      <trkpt lat="46.40795" lon="5.86436">
        <ele>496.6</ele>
        <time>2021-10-17T08:03:41Z</time>
      </trkpt>
      <trkpt lat="46.40787" lon="5.86439">
        <ele>496.4</ele>
        <time>2021-10-17T08:03:42Z</time>
      </trkpt>
      <trkpt lat="46.4078" lon="5.86442">
        <ele>496.2</ele>
        <time>2021-10-17T08:03:43Z</time>
      </trkpt>
      <trkpt lat="46.40772" lon="5.86445">
        <ele>495.8</ele>
        <time>2021-10-17T08:03:44Z</time>
      </trkpt>
      <trkpt lat="46.40764" lon="5.86448">
        <ele>495.4</ele>
        <time>2021-10-17T08:03:45Z</time>
      </trkpt>
      <trkpt lat="46.40756" lon="5.86451">
        <ele>495.2</ele>
        <time>2021-10-17T08:03:46Z</time>
      </trkpt>
      <trkpt lat="46.40748" lon="5.86455">
        <ele>494.8</ele>
        <time>2021-10-17T08:03:47Z</time>
      </trkpt>
      <trkpt lat="46.4074" lon="5.86459">
        <ele>494.6</ele>
        <time>2021-10-17T08:03:48Z</time>
      </trkpt>
      <trkpt lat="46.40732" lon="5.86463">
        <ele>494.2</ele>
        <time>2021-10-17T08:03:49Z</time>
      </trkpt>
      <trkpt lat="46.40724" lon="5.86467">
        <ele>494</ele>
        <time>2021-10-17T08:03:50Z</time>
      </trkpt>
      <trkpt lat="46.40715" lon="5.86472">
        <ele>493.6</ele>
        <time>2021-10-17T08:03:51Z</time>
      </trkpt>
      <trkpt lat="46.40707" lon="5.86476">
        <ele>493.2</ele>
        <time>2021-10-17T08:03:52Z</time>
      </trkpt>
      <trkpt lat="46.40699" lon="5.86481">
        <ele>493</ele>
        <time>2021-10-17T08:03:53Z</time>
      </trkpt>
      <trkpt lat="46.40691" lon="5.86486">
        <ele>492.6</ele>
        <time>2021-10-17T08:03:54Z</time>
      </trkpt>
      <trkpt lat="46.40683" lon="5.86491">
        <ele>492.4</ele>
        <time>2021-10-17T08:03:55Z</time>
      </trkpt>
      <trkpt lat="46.40675" lon="5.86495">
        <ele>492</ele>
        <time>2021-10-17T08:03:56Z</time>
      </trkpt>
      <trkpt lat="46.40667" lon="5.865">
        <ele>491.8</ele>
        <time>2021-10-17T08:03:57Z</time>
      </trkpt>
      <trkpt lat="46.40659" lon="5.86505">
        <ele>491.6</ele>
        <time>2021-10-17T08:03:58Z</time>
      </trkpt>
      <trkpt lat="46.40651" lon="5.8651">
        <ele>491.2</ele>
        <time>2021-10-17T08:03:59Z</time>
      </trkpt>
      <trkpt lat="46.40643" lon="5.86515">
        <ele>491</ele>
        <time>2021-10-17T08:04:00Z</time>
      </trkpt>
      <trkpt lat="46.40634" lon="5.86521">
        <ele>490.6</ele>
        <time>2021-10-17T08:04:01Z</time>
      </trkpt>
      <trkpt lat="46.40626" lon="5.86526">
        <ele>490.4</ele>
        <time>2021-10-17T08:04:02Z</time>
      </trkpt>
      <trkpt lat="46.40617" lon="5.86531">
        <ele>490.2</ele>
        <time>2021-10-17T08:04:03Z</time>
      </trkpt>
      <trkpt lat="46.40609" lon="5.86536">
        <ele>490</ele>
        <time>2021-10-17T08:04:04Z</time>
      </trkpt>
      <trkpt lat="46.40601" lon="5.86541">
        <ele>489.6</ele>
        <time>2021-10-17T08:04:05Z</time>
      </trkpt>
      <trkpt lat="46.40593" lon="5.86545">
        <ele>489.4</ele>
        <time>2021-10-17T08:04:06Z</time>
      </trkpt>
      <trkpt lat="46.40584" lon="5.8655">
        <ele>489</ele>
        <time>2021-10-17T08:04:07Z</time>
      </trkpt>
      <trkpt lat="46.40574" lon="5.86554">
        <ele>488.8</ele>
        <time>2021-10-17T08:04:08Z</time>
      </trkpt>
      <trkpt lat="46.40564" lon="5.8656">
        <ele>488.4</ele>
        <time>2021-10-17T08:04:09Z</time>
      </trkpt>
      <trkpt lat="46.40555" lon="5.86565">
        <ele>488.2</ele>
        <time>2021-10-17T08:04:10Z</time>
      </trkpt>
      <trkpt lat="46.40547" lon="5.86569">
        <ele>488</ele>
        <time>2021-10-17T08:04:11Z</time>
      </trkpt>
      <trkpt lat="46.40538" lon="5.86573">
        <ele>488</ele>
        <time>2021-10-17T08:04:12Z</time>
      </trkpt>
      <trkpt lat="46.40531" lon="5.86574">
        <ele>487.4</ele>
        <time>2021-10-17T08:04:13Z</time>
      </trkpt>
      <trkpt lat="46.40524" lon="5.86578">
        <ele>487.4</ele>
        <time>2021-10-17T08:04:14Z</time>
      </trkpt>
      <trkpt lat="46.40513" lon="5.86584">
        <ele>487</ele>
        <time>2021-10-17T08:04:15Z</time>
      </trkpt>
      <trkpt lat="46.40505" lon="5.86593">
        <ele>486.8</ele>
        <time>2021-10-17T08:04:16Z</time>
      </trkpt>
      <trkpt lat="46.40497" lon="5.866">
        <ele>486.8</ele>
        <time>2021-10-17T08:04:17Z</time>
      </trkpt>
      <trkpt lat="46.40488" lon="5.86607">
        <ele>486.4</ele>
        <time>2021-10-17T08:04:18Z</time>
      </trkpt>
      <trkpt lat="46.4048" lon="5.86613">
        <ele>486</ele>
        <time>2021-10-17T08:04:19Z</time>
      </trkpt>
      <trkpt lat="46.40472" lon="5.86617">
        <ele>485.8</ele>
        <time>2021-10-17T08:04:20Z</time>
      </trkpt>
      <trkpt lat="46.40464" lon="5.8662">
        <ele>485.8</ele>
        <time>2021-10-17T08:04:21Z</time>
      </trkpt>
      <trkpt lat="46.40455" lon="5.86622">
        <ele>485.4</ele>
        <time>2021-10-17T08:04:22Z</time>
      </trkpt>
      <trkpt lat="46.40447" lon="5.86622">
        <ele>485.2</ele>
        <time>2021-10-17T08:04:23Z</time>
      </trkpt>
      <trkpt lat="46.40439" lon="5.86621">
        <ele>485</ele>
        <time>2021-10-17T08:04:24Z</time>
      </trkpt>
      <trkpt lat="46.40431" lon="5.86619">
        <ele>484.6</ele>
        <time>2021-10-17T08:04:25Z</time>
      </trkpt>
      <trkpt lat="46.40422" lon="5.86616">
        <ele>484.2</ele>
        <time>2021-10-17T08:04:26Z</time>
      </trkpt>
      <trkpt lat="46.40414" lon="5.86612">
        <ele>483.8</ele>
        <time>2021-10-17T08:04:27Z</time>
      </trkpt>
      <trkpt lat="46.40406" lon="5.86606">
        <ele>483.4</ele>
        <time>2021-10-17T08:04:28Z</time>
      </trkpt>
      <trkpt lat="46.40399" lon="5.866">
        <ele>483</ele>
        <time>2021-10-17T08:04:29Z</time>
      </trkpt>
      <trkpt lat="46.40392" lon="5.86592">
        <ele>482.6</ele>
        <time>2021-10-17T08:04:30Z</time>
      </trkpt>
      <trkpt lat="46.40384" lon="5.86585">
        <ele>482.4</ele>
        <time>2021-10-17T08:04:31Z</time>
      </trkpt>
      <trkpt lat="46.40376" lon="5.86577">
        <ele>481.8</ele>
        <time>2021-10-17T08:04:32Z</time>
      </trkpt>
      <trkpt lat="46.40369" lon="5.86571">
        <ele>481.4</ele>
        <time>2021-10-17T08:04:33Z</time>
      </trkpt>
      <trkpt lat="46.40361" lon="5.86565">
        <ele>480.8</ele>
        <time>2021-10-17T08:04:34Z</time>
      </trkpt>
      <trkpt lat="46.40352" lon="5.86559">
        <ele>480.4</ele>
        <time>2021-10-17T08:04:35Z</time>
      </trkpt>
      <trkpt lat="46.40342" lon="5.86556">
        <ele>479.8</ele>
        <time>2021-10-17T08:04:36Z</time>
      </trkpt>
      <trkpt lat="46.40333" lon="5.86554">
        <ele>479.4</ele>
        <time>2021-10-17T08:04:37Z</time>
      </trkpt>
      <trkpt lat="46.40324" lon="5.86551">
        <ele>479.2</ele>
        <time>2021-10-17T08:04:38Z</time>
      </trkpt>
      <trkpt lat="46.40314" lon="5.8655">
        <ele>478.8</ele>
        <time>2021-10-17T08:04:39Z</time>
      </trkpt>
      <trkpt lat="46.40305" lon="5.86547">
        <ele>478.4</ele>
        <time>2021-10-17T08:04:40Z</time>
      </trkpt>
      <trkpt lat="46.40295" lon="5.86544">
        <ele>478</ele>
        <time>2021-10-17T08:04:41Z</time>
      </trkpt>
      <trkpt lat="46.40286" lon="5.8654">
        <ele>477.6</ele>
        <time>2021-10-17T08:04:42Z</time>
      </trkpt>
      <trkpt lat="46.40278" lon="5.86535">
        <ele>477</ele>
        <time>2021-10-17T08:04:43Z</time>
      </trkpt>
      <trkpt lat="46.40269" lon="5.8653">
        <ele>476.6</ele>
        <time>2021-10-17T08:04:44Z</time>
      </trkpt>
      <trkpt lat="46.4026" lon="5.86524">
        <ele>476</ele>
        <time>2021-10-17T08:04:45Z</time>
      </trkpt>
      <trkpt lat="46.4025" lon="5.86519">
        <ele>475.4</ele>
        <time>2021-10-17T08:04:46Z</time>
      </trkpt>
      <trkpt lat="46.40241" lon="5.86513">
        <ele>475</ele>
        <time>2021-10-17T08:04:47Z</time>
      </trkpt>
      <trkpt lat="46.40232" lon="5.86509">
        <ele>474.6</ele>
        <time>2021-10-17T08:04:48Z</time>
      </trkpt>
      <trkpt lat="46.40222" lon="5.86505">
        <ele>474.2</ele>
        <time>2021-10-17T08:04:49Z</time>
      </trkpt>
      <trkpt lat="46.40212" lon="5.86502">
        <ele>473.6</ele>
        <time>2021-10-17T08:04:50Z</time>
      </trkpt>
      <trkpt lat="46.40203" lon="5.86498">
        <ele>473.2</ele>
        <time>2021-10-17T08:04:51Z</time>
      </trkpt>
      <trkpt lat="46.40193" lon="5.86494">
        <ele>472.8</ele>
        <time>2021-10-17T08:04:52Z</time>
      </trkpt>
      <trkpt lat="46.40184" lon="5.86488">
        <ele>472.4</ele>
        <time>2021-10-17T08:04:53Z</time>
      </trkpt>
      <trkpt lat="46.40175" lon="5.86483">
        <ele>471.8</ele>
        <time>2021-10-17T08:04:54Z</time>
      </trkpt>
      <trkpt lat="46.40165" lon="5.86478">
        <ele>471.2</ele>
        <time>2021-10-17T08:04:55Z</time>
      </trkpt>
      <trkpt lat="46.40156" lon="5.86471">
        <ele>470.8</ele>
        <time>2021-10-17T08:04:56Z</time>
      </trkpt>
      <trkpt lat="46.40146" lon="5.86463">
        <ele>470.2</ele>
        <time>2021-10-17T08:04:57Z</time>
      </trkpt>
      <trkpt lat="46.40137" lon="5.86455">
        <ele>469.6</ele>
        <time>2021-10-17T08:04:58Z</time>
      </trkpt>
      <trkpt lat="46.40128" lon="5.86449">
        <ele>469.2</ele>
        <time>2021-10-17T08:04:59Z</time>
      </trkpt>
      <trkpt lat="46.40119" lon="5.86441">
        <ele>468.8</ele>
        <time>2021-10-17T08:05:00Z</time>
      </trkpt>
      <trkpt lat="46.4011" lon="5.86434">
        <ele>468.2</ele>
        <time>2021-10-17T08:05:01Z</time>
      </trkpt>
      <trkpt lat="46.40102" lon="5.86427">
        <ele>467.8</ele>
        <time>2021-10-17T08:05:02Z</time>
      </trkpt>
      <trkpt lat="46.40094" lon="5.86416">
        <ele>467.2</ele>
        <time>2021-10-17T08:05:03Z</time>
      </trkpt>
      <trkpt lat="46.40086" lon="5.86405">
        <ele>466.8</ele>
        <time>2021-10-17T08:05:04Z</time>
      </trkpt>
      <trkpt lat="46.40078" lon="5.86396">
        <ele>466.2</ele>
        <time>2021-10-17T08:05:05Z</time>
      </trkpt>
      <trkpt lat="46.40069" lon="5.86386">
        <ele>465.8</ele>
        <time>2021-10-17T08:05:06Z</time>
      </trkpt>
      <trkpt lat="46.40061" lon="5.86377">
        <ele>465.2</ele>
        <time>2021-10-17T08:05:07Z</time>
      </trkpt>
      <trkpt lat="46.40053" lon="5.86367">
        <ele>464.6</ele>
        <time>2021-10-17T08:05:08Z</time>
      </trkpt>
      <trkpt lat="46.40045" lon="5.86358">
        <ele>464.2</ele>
        <time>2021-10-17T08:05:09Z</time>
      </trkpt>
      <trkpt lat="46.40038" lon="5.8635">
        <ele>463.6</ele>
        <time>2021-10-17T08:05:10Z</time>
      </trkpt>
      <trkpt lat="46.40031" lon="5.86342">
        <ele>463</ele>
        <time>2021-10-17T08:05:11Z</time>
      </trkpt>
      <trkpt lat="46.40023" lon="5.86335">
        <ele>462.6</ele>
        <time>2021-10-17T08:05:12Z</time>
      </trkpt>
      <trkpt lat="46.40016" lon="5.86332">
        <ele>462.2</ele>
        <time>2021-10-17T08:05:13Z</time>
      </trkpt>
      <trkpt lat="46.40008" lon="5.86331">
        <ele>461.8</ele>
        <time>2021-10-17T08:05:14Z</time>
      </trkpt>
      <trkpt lat="46.40001" lon="5.86334">
        <ele>461.4</ele>
        <time>2021-10-17T08:05:15Z</time>
      </trkpt>
      <trkpt lat="46.39993" lon="5.86337">
        <ele>461</ele>
        <time>2021-10-17T08:05:16Z</time>
      </trkpt>
      <trkpt lat="46.39986" lon="5.86343">
        <ele>460.6</ele>
        <time>2021-10-17T08:05:17Z</time>
      </trkpt>
      <trkpt lat="46.39978" lon="5.86349">
        <ele>460.2</ele>
        <time>2021-10-17T08:05:18Z</time>
      </trkpt>
      <trkpt lat="46.3997" lon="5.86354">
        <ele>459.8</ele>
        <time>2021-10-17T08:05:19Z</time>
      </trkpt>
      <trkpt lat="46.39963" lon="5.86358">
        <ele>459.4</ele>
        <time>2021-10-17T08:05:20Z</time>
      </trkpt>
      <trkpt lat="46.39955" lon="5.86363">
        <ele>459</ele>
        <time>2021-10-17T08:05:21Z</time>
      </trkpt>
      <trkpt lat="46.39947" lon="5.86368">
        <ele>458.6</ele>
        <time>2021-10-17T08:05:22Z</time>
      </trkpt>
      <trkpt lat="46.39938" lon="5.86373">
        <ele>458.4</ele>
        <time>2021-10-17T08:05:23Z</time>
      </trkpt>
      <trkpt lat="46.3993" lon="5.86377">
        <ele>458</ele>
        <time>2021-10-17T08:05:24Z</time>
      </trkpt>
      <trkpt lat="46.39921" lon="5.86382">
        <ele>457.4</ele>
        <time>2021-10-17T08:05:25Z</time>
      </trkpt>
      <trkpt lat="46.39912" lon="5.86387">
        <ele>457</ele>
        <time>2021-10-17T08:05:26Z</time>
      </trkpt>
      <trkpt lat="46.39903" lon="5.86391">
        <ele>456.4</ele>
        <time>2021-10-17T08:05:27Z</time>
      </trkpt>
      <trkpt lat="46.39895" lon="5.86396">
        <ele>456</ele>
        <time>2021-10-17T08:05:28Z</time>
      </trkpt>
      <trkpt lat="46.39887" lon="5.864">
        <ele>455.4</ele>
        <time>2021-10-17T08:05:29Z</time>
      </trkpt>
      <trkpt lat="46.3988" lon="5.86404">
        <ele>455</ele>
        <time>2021-10-17T08:05:30Z</time>
      </trkpt>
      <trkpt lat="46.39872" lon="5.86408">
        <ele>454.6</ele>
        <time>2021-10-17T08:05:31Z</time>
      </trkpt>
      <trkpt lat="46.39864" lon="5.86411">
        <ele>454.2</ele>
        <time>2021-10-17T08:05:32Z</time>
      </trkpt>
      <trkpt lat="46.39856" lon="5.86412">
        <ele>453.6</ele>
        <time>2021-10-17T08:05:33Z</time>
      </trkpt>
      <trkpt lat="46.39847" lon="5.86413">
        <ele>453.2</ele>
        <time>2021-10-17T08:05:34Z</time>
      </trkpt>
      <trkpt lat="46.39839" lon="5.86412">
        <ele>452.6</ele>
        <time>2021-10-17T08:05:35Z</time>
      </trkpt>
      <trkpt lat="46.3983" lon="5.86409">
        <ele>452.4</ele>
        <time>2021-10-17T08:05:36Z</time>
      </trkpt>
      <trkpt lat="46.3982" lon="5.86407">
        <ele>452</ele>
        <time>2021-10-17T08:05:37Z</time>
      </trkpt>
      <trkpt lat="46.39811" lon="5.86404">
        <ele>451.4</ele>
        <time>2021-10-17T08:05:38Z</time>
      </trkpt>
      <trkpt lat="46.39802" lon="5.86402">
        <ele>451</ele>
        <time>2021-10-17T08:05:39Z</time>
      </trkpt>
      <trkpt lat="46.39792" lon="5.86401">
        <ele>450.6</ele>
        <time>2021-10-17T08:05:40Z</time>
      </trkpt>
      <trkpt lat="46.39783" lon="5.864">
        <ele>450</ele>
        <time>2021-10-17T08:05:41Z</time>
      </trkpt>
      <trkpt lat="46.39776" lon="5.86393">
        <ele>449.6</ele>
        <time>2021-10-17T08:05:42Z</time>
      </trkpt>
      <trkpt lat="46.39769" lon="5.8639">
        <ele>449</ele>
        <time>2021-10-17T08:05:43Z</time>
      </trkpt>
      <trkpt lat="46.39761" lon="5.86388">
        <ele>448.4</ele>
        <time>2021-10-17T08:05:44Z</time>
      </trkpt>
      <trkpt lat="46.39754" lon="5.86385">
        <ele>448</ele>
        <time>2021-10-17T08:05:45Z</time>
      </trkpt>
      <trkpt lat="46.39747" lon="5.86383">
        <ele>447.6</ele>
        <time>2021-10-17T08:05:46Z</time>
      </trkpt>
      <trkpt lat="46.39741" lon="5.86381">
        <ele>447.2</ele>
        <time>2021-10-17T08:05:47Z</time>
      </trkpt>
      <trkpt lat="46.39734" lon="5.86379">
        <ele>446.8</ele>
        <time>2021-10-17T08:05:48Z</time>
      </trkpt>
      <trkpt lat="46.39729" lon="5.86377">
        <ele>446.6</ele>
        <time>2021-10-17T08:05:49Z</time>
      </trkpt>
      <trkpt lat="46.39724" lon="5.86375">
        <ele>446.2</ele>
        <time>2021-10-17T08:05:50Z</time>
      </trkpt>
      <trkpt lat="46.3972" lon="5.86371">
        <ele>446.2</ele>
        <time>2021-10-17T08:05:51Z</time>
      </trkpt>
      <trkpt lat="46.39716" lon="5.86366">
        <ele>445.6</ele>
        <time>2021-10-17T08:05:52Z</time>
      </trkpt>
      <trkpt lat="46.39712" lon="5.86361">
        <ele>445.6</ele>
        <time>2021-10-17T08:05:53Z</time>
      </trkpt>
      <trkpt lat="46.39708" lon="5.86356">
        <ele>445.2</ele>
        <time>2021-10-17T08:05:54Z</time>
      </trkpt>
      <trkpt lat="46.39703" lon="5.86351">
        <ele>445</ele>
        <time>2021-10-17T08:05:55Z</time>
      </trkpt>
      <trkpt lat="46.39698" lon="5.86345">
        <ele>444.4</ele>
        <time>2021-10-17T08:05:56Z</time>
      </trkpt>
      <trkpt lat="46.39693" lon="5.86339">
        <ele>444</ele>
        <time>2021-10-17T08:05:57Z</time>
      </trkpt>
      <trkpt lat="46.39687" lon="5.86332">
        <ele>443.6</ele>
        <time>2021-10-17T08:05:58Z</time>
      </trkpt>
      <trkpt lat="46.39681" lon="5.86327">
        <ele>443.2</ele>
        <time>2021-10-17T08:05:59Z</time>
      </trkpt>
      <trkpt lat="46.39673" lon="5.86324">
        <ele>442.8</ele>
        <time>2021-10-17T08:06:00Z</time>
      </trkpt>
      <trkpt lat="46.39665" lon="5.86323">
        <ele>442.4</ele>
        <time>2021-10-17T08:06:01Z</time>
      </trkpt>
      <trkpt lat="46.39658" lon="5.86323">
        <ele>442.2</ele>
        <time>2021-10-17T08:06:02Z</time>
      </trkpt>
      <trkpt lat="46.3965" lon="5.86325">
        <ele>441.8</ele>
        <time>2021-10-17T08:06:03Z</time>
      </trkpt>
      <trkpt lat="46.39644" lon="5.86326">
        <ele>441.6</ele>
        <time>2021-10-17T08:06:04Z</time>
      </trkpt>
      <trkpt lat="46.39637" lon="5.86325">
        <ele>441.4</ele>
        <time>2021-10-17T08:06:05Z</time>
      </trkpt>
      <trkpt lat="46.3963" lon="5.86322">
        <ele>441</ele>
        <time>2021-10-17T08:06:06Z</time>
      </trkpt>
      <trkpt lat="46.39623" lon="5.86317">
        <ele>440.6</ele>
        <time>2021-10-17T08:06:07Z</time>
      </trkpt>
      <trkpt lat="46.39617" lon="5.86312">
        <ele>440.2</ele>
        <time>2021-10-17T08:06:08Z</time>
      </trkpt>
      <trkpt lat="46.3961" lon="5.86306">
        <ele>440</ele>
        <time>2021-10-17T08:06:09Z</time>
      </trkpt>
      <trkpt lat="46.39603" lon="5.86301">
        <ele>439.6</ele>
        <time>2021-10-17T08:06:10Z</time>
      </trkpt>
      <trkpt lat="46.39595" lon="5.86296">
        <ele>439.2</ele>
        <time>2021-10-17T08:06:11Z</time>
      </trkpt>
      <trkpt lat="46.39588" lon="5.86291">
        <ele>438.8</ele>
        <time>2021-10-17T08:06:12Z</time>
      </trkpt>
      <trkpt lat="46.39581" lon="5.86287">
        <ele>438.4</ele>
        <time>2021-10-17T08:06:13Z</time>
      </trkpt>
      <trkpt lat="46.39574" lon="5.86284">
        <ele>438</ele>
        <time>2021-10-17T08:06:14Z</time>
      </trkpt>
      <trkpt lat="46.39567" lon="5.86281">
        <ele>437.6</ele>
        <time>2021-10-17T08:06:15Z</time>
      </trkpt>
      <trkpt lat="46.3956" lon="5.86278">
        <ele>437.2</ele>
        <time>2021-10-17T08:06:16Z</time>
      </trkpt>
      <trkpt lat="46.39552" lon="5.86276">
        <ele>436.6</ele>
        <time>2021-10-17T08:06:17Z</time>
      </trkpt>
      <trkpt lat="46.39545" lon="5.86273">
        <ele>436.2</ele>
        <time>2021-10-17T08:06:18Z</time>
      </trkpt>
      <trkpt lat="46.39536" lon="5.86271">
        <ele>435.6</ele>
        <time>2021-10-17T08:06:19Z</time>
      </trkpt>
      <trkpt lat="46.39528" lon="5.86268">
        <ele>435.2</ele>
        <time>2021-10-17T08:06:20Z</time>
      </trkpt>
      <trkpt lat="46.3952" lon="5.86265">
        <ele>434.6</ele>
        <time>2021-10-17T08:06:21Z</time>
      </trkpt>
      <trkpt lat="46.39511" lon="5.86262">
        <ele>434.2</ele>
        <time>2021-10-17T08:06:22Z</time>
      </trkpt>
      <trkpt lat="46.39502" lon="5.86258">
        <ele>433.6</ele>
        <time>2021-10-17T08:06:23Z</time>
      </trkpt>
      <trkpt lat="46.39494" lon="5.86254">
        <ele>433.2</ele>
        <time>2021-10-17T08:06:24Z</time>
      </trkpt>
      <trkpt lat="46.39484" lon="5.86251">
        <ele>432.8</ele>
        <time>2021-10-17T08:06:25Z</time>
      </trkpt>
      <trkpt lat="46.39474" lon="5.86249">
        <ele>432.4</ele>
        <time>2021-10-17T08:06:26Z</time>
      </trkpt>
      <trkpt lat="46.39465" lon="5.86245">
        <ele>431.8</ele>
        <time>2021-10-17T08:06:27Z</time>
      </trkpt>
      <trkpt lat="46.39455" lon="5.8624">
        <ele>431.4</ele>
        <time>2021-10-17T08:06:28Z</time>
      </trkpt>
      <trkpt lat="46.39446" lon="5.86237">
        <ele>431</ele>
        <time>2021-10-17T08:06:29Z</time>
      </trkpt>
      <trkpt lat="46.39437" lon="5.86236">
        <ele>430.6</ele>
        <time>2021-10-17T08:06:30Z</time>
      </trkpt>
      <trkpt lat="46.39427" lon="5.86236">
        <ele>430</ele>
        <time>2021-10-17T08:06:31Z</time>
      </trkpt>
      <trkpt lat="46.39418" lon="5.86238">
        <ele>429.6</ele>
        <time>2021-10-17T08:06:32Z</time>
      </trkpt>
      <trkpt lat="46.3941" lon="5.8624">
        <ele>429</ele>
        <time>2021-10-17T08:06:33Z</time>
      </trkpt>
      <trkpt lat="46.39401" lon="5.8624">
        <ele>428.6</ele>
        <time>2021-10-17T08:06:34Z</time>
      </trkpt>
      <trkpt lat="46.39393" lon="5.86239">
        <ele>428.2</ele>
        <time>2021-10-17T08:06:35Z</time>
      </trkpt>
      <trkpt lat="46.39385" lon="5.86238">
        <ele>427.8</ele>
        <time>2021-10-17T08:06:36Z</time>
      </trkpt>
      <trkpt lat="46.39378" lon="5.86237">
        <ele>427.2</ele>
        <time>2021-10-17T08:06:37Z</time>
      </trkpt>
      <trkpt lat="46.39372" lon="5.86235">
        <ele>427</ele>
        <time>2021-10-17T08:06:38Z</time>
      </trkpt>
      <trkpt lat="46.39367" lon="5.86234">
        <ele>426.6</ele>
        <time>2021-10-17T08:06:39Z</time>
      </trkpt>
      <trkpt lat="46.39364" lon="5.86232">
        <ele>426.4</ele>
        <time>2021-10-17T08:06:40Z</time>
      </trkpt>
      <trkpt lat="46.39359" lon="5.86229">
        <ele>426.4</ele>
        <time>2021-10-17T08:06:41Z</time>
      </trkpt>
      <trkpt lat="46.39354" lon="5.86227">
        <ele>426</ele>
        <time>2021-10-17T08:06:42Z</time>
      </trkpt>
      <trkpt lat="46.3935" lon="5.86224">
        <ele>426</ele>
        <time>2021-10-17T08:06:43Z</time>
      </trkpt>
      <trkpt lat="46.39346" lon="5.86221">
        <ele>426</ele>
        <time>2021-10-17T08:06:44Z</time>
      </trkpt>
      <trkpt lat="46.39341" lon="5.86218">
        <ele>426</ele>
        <time>2021-10-17T08:06:45Z</time>
      </trkpt>
      <trkpt lat="46.39338" lon="5.86215">
        <ele>425.8</ele>
        <time>2021-10-17T08:06:46Z</time>
      </trkpt>
      <trkpt lat="46.39334" lon="5.86213">
        <ele>425.8</ele>
        <time>2021-10-17T08:06:47Z</time>
      </trkpt>
      <trkpt lat="46.3933" lon="5.86208">
        <ele>425.8</ele>
        <time>2021-10-17T08:06:48Z</time>
      </trkpt>
      <trkpt lat="46.39327" lon="5.86204">
        <ele>425.8</ele>
        <time>2021-10-17T08:06:49Z</time>
      </trkpt>
      <trkpt lat="46.39323" lon="5.86201">
        <ele>425.8</ele>
        <time>2021-10-17T08:06:50Z</time>
      </trkpt>
      <trkpt lat="46.39319" lon="5.86197">
        <ele>426</ele>
        <time>2021-10-17T08:06:51Z</time>
      </trkpt>
      <trkpt lat="46.39315" lon="5.86194">
        <ele>426</ele>
        <time>2021-10-17T08:06:52Z</time>
      </trkpt>
      <trkpt lat="46.39311" lon="5.8619">
        <ele>426.4</ele>
        <time>2021-10-17T08:06:53Z</time>
      </trkpt>
      <trkpt lat="46.39307" lon="5.86187">
        <ele>426.4</ele>
        <time>2021-10-17T08:06:54Z</time>
      </trkpt>
      <trkpt lat="46.39303" lon="5.86182">
        <ele>426.6</ele>
        <time>2021-10-17T08:06:55Z</time>
      </trkpt>
      <trkpt lat="46.39299" lon="5.86179">
        <ele>427</ele>
        <time>2021-10-17T08:06:56Z</time>
      </trkpt>
      <trkpt lat="46.39295" lon="5.86177">
        <ele>427</ele>
        <time>2021-10-17T08:06:57Z</time>
      </trkpt>
      <trkpt lat="46.3929" lon="5.86175">
        <ele>427.2</ele>
        <time>2021-10-17T08:06:58Z</time>
      </trkpt>
      <trkpt lat="46.39285" lon="5.86173">
        <ele>427.6</ele>
        <time>2021-10-17T08:06:59Z</time>
      </trkpt>
      <trkpt lat="46.39281" lon="5.8617">
        <ele>427.8</ele>
        <time>2021-10-17T08:07:00Z</time>
      </trkpt>
      <trkpt lat="46.39278" lon="5.86166">
        <ele>428</ele>
        <time>2021-10-17T08:07:01Z</time>
      </trkpt>
      <trkpt lat="46.39274" lon="5.86162">
        <ele>428</ele>
        <time>2021-10-17T08:07:02Z</time>
      </trkpt>
      <trkpt lat="46.39269" lon="5.8616">
        <ele>428.4</ele>
        <time>2021-10-17T08:07:03Z</time>
      </trkpt>
      <trkpt lat="46.39265" lon="5.86158">
        <ele>428.4</ele>
        <time>2021-10-17T08:07:04Z</time>
      </trkpt>
      <trkpt lat="46.39261" lon="5.86154">
        <ele>428.8</ele>
        <time>2021-10-17T08:07:05Z</time>
      </trkpt>
      <trkpt lat="46.39257" lon="5.8615">
        <ele>428.8</ele>
        <time>2021-10-17T08:07:06Z</time>
      </trkpt>
      <trkpt lat="46.39253" lon="5.86146">
        <ele>429</ele>
        <time>2021-10-17T08:07:07Z</time>
      </trkpt>
      <trkpt lat="46.39248" lon="5.86142">
        <ele>429</ele>
        <time>2021-10-17T08:07:08Z</time>
      </trkpt>
      <trkpt lat="46.39243" lon="5.86138">
        <ele>429.4</ele>
        <time>2021-10-17T08:07:09Z</time>
      </trkpt>
      <trkpt lat="46.39239" lon="5.86134">
        <ele>429.4</ele>
        <time>2021-10-17T08:07:10Z</time>
      </trkpt>
      <trkpt lat="46.39234" lon="5.86131">
        <ele>429.6</ele>
        <time>2021-10-17T08:07:11Z</time>
      </trkpt>
      <trkpt lat="46.3923" lon="5.86127">
        <ele>429.6</ele>
        <time>2021-10-17T08:07:12Z</time>
      </trkpt>
      <trkpt lat="46.39225" lon="5.86124">
        <ele>430</ele>
        <time>2021-10-17T08:07:13Z</time>
      </trkpt>
      <trkpt lat="46.39221" lon="5.86122">
        <ele>430</ele>
        <time>2021-10-17T08:07:14Z</time>
      </trkpt>
      <trkpt lat="46.39216" lon="5.86118">
        <ele>430.2</ele>
        <time>2021-10-17T08:07:15Z</time>
      </trkpt>
      <trkpt lat="46.39212" lon="5.86115">
        <ele>430.2</ele>
        <time>2021-10-17T08:07:16Z</time>
      </trkpt>
      <trkpt lat="46.39208" lon="5.86112">
        <ele>430.6</ele>
        <time>2021-10-17T08:07:17Z</time>
      </trkpt>
      <trkpt lat="46.39204" lon="5.86108">
        <ele>430.6</ele>
        <time>2021-10-17T08:07:18Z</time>
      </trkpt>
      <trkpt lat="46.39201" lon="5.86103">
        <ele>431</ele>
        <time>2021-10-17T08:07:19Z</time>
      </trkpt>
      <trkpt lat="46.39198" lon="5.86099">
        <ele>431.2</ele>
        <time>2021-10-17T08:07:20Z</time>
      </trkpt>
      <trkpt lat="46.39194" lon="5.86097">
        <ele>431.6</ele>
        <time>2021-10-17T08:07:21Z</time>
      </trkpt>
      <trkpt lat="46.39191" lon="5.86095">
        <ele>431.8</ele>
        <time>2021-10-17T08:07:22Z</time>
      </trkpt>
      <trkpt lat="46.39187" lon="5.86093">
        <ele>432.2</ele>
        <time>2021-10-17T08:07:23Z</time>
      </trkpt>
      <trkpt lat="46.39183" lon="5.86092">
        <ele>432.4</ele>
        <time>2021-10-17T08:07:24Z</time>
      </trkpt>
      <trkpt lat="46.3918" lon="5.86091">
        <ele>432.6</ele>
        <time>2021-10-17T08:07:25Z</time>
      </trkpt>
      <trkpt lat="46.39176" lon="5.8609">
        <ele>433</ele>
        <time>2021-10-17T08:07:26Z</time>
      </trkpt>
      <trkpt lat="46.39173" lon="5.86089">
        <ele>433.2</ele>
        <time>2021-10-17T08:07:27Z</time>
      </trkpt>
      <trkpt lat="46.3917" lon="5.86088">
        <ele>433.6</ele>
        <time>2021-10-17T08:07:28Z</time>
      </trkpt>
      <trkpt lat="46.39167" lon="5.86087">
        <ele>434</ele>
        <time>2021-10-17T08:07:29Z</time>
      </trkpt>
      <trkpt lat="46.39163" lon="5.86088">
        <ele>434.4</ele>
        <time>2021-10-17T08:07:30Z</time>
      </trkpt>
      <trkpt lat="46.3916" lon="5.86087">
        <ele>434.6</ele>
        <time>2021-10-17T08:07:31Z</time>
      </trkpt>
      <trkpt lat="46.39157" lon="5.86086">
        <ele>434.8</ele>
        <time>2021-10-17T08:07:32Z</time>
      </trkpt>
      <trkpt lat="46.39154" lon="5.86085">
        <ele>435.2</ele>
        <time>2021-10-17T08:07:33Z</time>
      </trkpt>
      <trkpt lat="46.39151" lon="5.86085">
        <ele>435.4</ele>
        <time>2021-10-17T08:07:34Z</time>
      </trkpt>
      <trkpt lat="46.39148" lon="5.86083">
        <ele>435.6</ele>
        <time>2021-10-17T08:07:35Z</time>
      </trkpt>
      <trkpt lat="46.39146" lon="5.86081">
        <ele>436</ele>
        <time>2021-10-17T08:07:36Z</time>
      </trkpt>
      <trkpt lat="46.39144" lon="5.86079">
        <ele>436.2</ele>
        <time>2021-10-17T08:07:37Z</time>
      </trkpt>
      <trkpt lat="46.39142" lon="5.86076">
        <ele>436.6</ele>
        <time>2021-10-17T08:07:38Z</time>
      </trkpt>
      <trkpt lat="46.39141" lon="5.86072">
        <ele>436.8</ele>
        <time>2021-10-17T08:07:39Z</time>
      </trkpt>
      <trkpt lat="46.3914" lon="5.86068">
        <ele>437</ele>
        <time>2021-10-17T08:07:40Z</time>
      </trkpt>
      <trkpt lat="46.39139" lon="5.86064">
        <ele>437.4</ele>
        <time>2021-10-17T08:07:41Z</time>
      </trkpt>
      <trkpt lat="46.39138" lon="5.8606">
        <ele>437.6</ele>
        <time>2021-10-17T08:07:42Z</time>
      </trkpt>
      <trkpt lat="46.39136" lon="5.86057">
        <ele>437.8</ele>
        <time>2021-10-17T08:07:43Z</time>
      </trkpt>
      <trkpt lat="46.39134" lon="5.86055">
        <ele>438.2</ele>
        <time>2021-10-17T08:07:44Z</time>
      </trkpt>
      <trkpt lat="46.39131" lon="5.86052">
        <ele>438.6</ele>
        <time>2021-10-17T08:07:45Z</time>
      </trkpt>
      <trkpt lat="46.39129" lon="5.8605">
        <ele>438.8</ele>
        <time>2021-10-17T08:07:46Z</time>
      </trkpt>
      <trkpt lat="46.39126" lon="5.86049">
        <ele>439</ele>
        <time>2021-10-17T08:07:47Z</time>
      </trkpt>
      <trkpt lat="46.39124" lon="5.86047">
        <ele>439.2</ele>
        <time>2021-10-17T08:07:48Z</time>
      </trkpt>
      <trkpt lat="46.39121" lon="5.86046">
        <ele>439.6</ele>
        <time>2021-10-17T08:07:49Z</time>
      </trkpt>
      <trkpt lat="46.39119" lon="5.86044">
        <ele>439.8</ele>
        <time>2021-10-17T08:07:50Z</time>
      </trkpt>
      <trkpt lat="46.39116" lon="5.86043">
        <ele>440.2</ele>
        <time>2021-10-17T08:07:51Z</time>
      </trkpt>
      <trkpt lat="46.39114" lon="5.86041">
        <ele>440.4</ele>
        <time>2021-10-17T08:07:52Z</time>
      </trkpt>
      <trkpt lat="46.39111" lon="5.86039">
        <ele>440.6</ele>
        <time>2021-10-17T08:07:53Z</time>
      </trkpt>
      <trkpt lat="46.39109" lon="5.86038">
        <ele>440.8</ele>
        <time>2021-10-17T08:07:54Z</time>
      </trkpt>
      <trkpt lat="46.39107" lon="5.86036">
        <ele>441.2</ele>
        <time>2021-10-17T08:07:55Z</time>
      </trkpt>
      <trkpt lat="46.39105" lon="5.86034">
        <ele>441.4</ele>
        <time>2021-10-17T08:07:56Z</time>
      </trkpt>
      <trkpt lat="46.39103" lon="5.86033">
        <ele>441.6</ele>
        <time>2021-10-17T08:07:57Z</time>
      </trkpt>
      <trkpt lat="46.391" lon="5.86031">
        <ele>441.8</ele>
        <time>2021-10-17T08:07:58Z</time>
      </trkpt>
      <trkpt lat="46.39098" lon="5.8603">
        <ele>442</ele>
        <time>2021-10-17T08:07:59Z</time>
      </trkpt>
      <trkpt lat="46.39096" lon="5.86027">
        <ele>442.4</ele>
        <time>2021-10-17T08:08:00Z</time>
      </trkpt>
      <trkpt lat="46.39094" lon="5.86025">
        <ele>442.6</ele>
        <time>2021-10-17T08:08:01Z</time>
      </trkpt>
      <trkpt lat="46.39091" lon="5.86023">
        <ele>442.8</ele>
        <time>2021-10-17T08:08:02Z</time>
      </trkpt>
      <trkpt lat="46.39089" lon="5.86022">
        <ele>443.2</ele>
        <time>2021-10-17T08:08:03Z</time>
      </trkpt>
      <trkpt lat="46.39087" lon="5.86021">
        <ele>443.4</ele>
        <time>2021-10-17T08:08:04Z</time>
      </trkpt>
      <trkpt lat="46.39084" lon="5.86019">
        <ele>443.4</ele>
        <time>2021-10-17T08:08:05Z</time>
      </trkpt>
      <trkpt lat="46.39082" lon="5.86018">
        <ele>443.8</ele>
        <time>2021-10-17T08:08:06Z</time>
      </trkpt>
      <trkpt lat="46.3908" lon="5.86017">
        <ele>444</ele>
        <time>2021-10-17T08:08:07Z</time>
      </trkpt>
      <trkpt lat="46.39078" lon="5.86015">
        <ele>444.2</ele>
        <time>2021-10-17T08:08:08Z</time>
      </trkpt>
      <trkpt lat="46.39075" lon="5.86014">
        <ele>444.6</ele>
        <time>2021-10-17T08:08:09Z</time>
      </trkpt>
      <trkpt lat="46.39073" lon="5.86012">
        <ele>444.8</ele>
        <time>2021-10-17T08:08:10Z</time>
      </trkpt>
      <trkpt lat="46.39071" lon="5.8601">
        <ele>445</ele>
        <time>2021-10-17T08:08:11Z</time>
      </trkpt>
      <trkpt lat="46.39069" lon="5.86008">
        <ele>445.4</ele>
        <time>2021-10-17T08:08:12Z</time>
      </trkpt>
      <trkpt lat="46.39067" lon="5.86006">
        <ele>445.6</ele>
        <time>2021-10-17T08:08:13Z</time>
      </trkpt>
      <trkpt lat="46.39066" lon="5.86003">
        <ele>445.8</ele>
        <time>2021-10-17T08:08:14Z</time>
      </trkpt>
      <trkpt lat="46.39065" lon="5.86001">
        <ele>446</ele>
        <time>2021-10-17T08:08:15Z</time>
      </trkpt>
      <trkpt lat="46.39064" lon="5.85998">
        <ele>446.2</ele>
        <time>2021-10-17T08:08:16Z</time>
      </trkpt>
      <trkpt lat="46.39063" lon="5.85995">
        <ele>446.6</ele>
        <time>2021-10-17T08:08:17Z</time>
      </trkpt>
      <trkpt lat="46.39061" lon="5.85992">
        <ele>446.6</ele>
        <time>2021-10-17T08:08:18Z</time>
      </trkpt>
      <trkpt lat="46.3906" lon="5.85989">
        <ele>447</ele>
        <time>2021-10-17T08:08:19Z</time>
      </trkpt>
      <trkpt lat="46.39059" lon="5.85987">
        <ele>447.2</ele>
        <time>2021-10-17T08:08:20Z</time>
      </trkpt>
      <trkpt lat="46.39057" lon="5.85984">
        <ele>447.2</ele>
        <time>2021-10-17T08:08:21Z</time>
      </trkpt>
      <trkpt lat="46.39056" lon="5.85982">
        <ele>447.6</ele>
        <time>2021-10-17T08:08:22Z</time>
      </trkpt>
      <trkpt lat="46.39054" lon="5.8598">
        <ele>447.8</ele>
        <time>2021-10-17T08:08:23Z</time>
      </trkpt>
      <trkpt lat="46.39053" lon="5.85978">
        <ele>448</ele>
        <time>2021-10-17T08:08:24Z</time>
      </trkpt>
      <trkpt lat="46.39051" lon="5.85976">
        <ele>448.4</ele>
        <time>2021-10-17T08:08:25Z</time>
      </trkpt>
      <trkpt lat="46.3905" lon="5.85974">
        <ele>448.8</ele>
        <time>2021-10-17T08:08:26Z</time>
      </trkpt>
      <trkpt lat="46.39048" lon="5.85972">
        <ele>449.2</ele>
        <time>2021-10-17T08:08:27Z</time>
      </trkpt>
      <trkpt lat="46.39047" lon="5.85969">
        <ele>449.4</ele>
        <time>2021-10-17T08:08:28Z</time>
      </trkpt>
      <trkpt lat="46.39045" lon="5.85967">
        <ele>450</ele>
        <time>2021-10-17T08:08:29Z</time>
      </trkpt>
      <trkpt lat="46.39044" lon="5.85965">
        <ele>450.2</ele>
        <time>2021-10-17T08:08:30Z</time>
      </trkpt>
      <trkpt lat="46.39042" lon="5.85962">
        <ele>450.6</ele>
        <time>2021-10-17T08:08:31Z</time>
      </trkpt>
      <trkpt lat="46.39041" lon="5.8596">
        <ele>450.8</ele>
        <time>2021-10-17T08:08:32Z</time>
      </trkpt>
      <trkpt lat="46.3904" lon="5.85957">
        <ele>451.2</ele>
        <time>2021-10-17T08:08:33Z</time>
      </trkpt>
      <trkpt lat="46.39039" lon="5.85955">
        <ele>451.6</ele>
        <time>2021-10-17T08:08:34Z</time>
      </trkpt>
      <trkpt lat="46.39038" lon="5.85953">
        <ele>452</ele>
        <time>2021-10-17T08:08:35Z</time>
      </trkpt>
      <trkpt lat="46.39037" lon="5.85951">
        <ele>452.4</ele>
        <time>2021-10-17T08:08:36Z</time>
      </trkpt>
      <trkpt lat="46.39035" lon="5.85949">
        <ele>452.8</ele>
        <time>2021-10-17T08:08:37Z</time>
      </trkpt>
      <trkpt lat="46.39034" lon="5.85948">
        <ele>453.2</ele>
        <time>2021-10-17T08:08:38Z</time>
      </trkpt>
      <trkpt lat="46.39032" lon="5.85948">
        <ele>453.6</ele>
        <time>2021-10-17T08:08:39Z</time>
      </trkpt>
      <trkpt lat="46.3903" lon="5.85948">
        <ele>453.8</ele>
        <time>2021-10-17T08:08:40Z</time>
      </trkpt>
      <trkpt lat="46.39029" lon="5.85947">
        <ele>454.2</ele>
        <time>2021-10-17T08:08:41Z</time>
      </trkpt>
      <trkpt lat="46.39027" lon="5.85945">
        <ele>454.6</ele>
        <time>2021-10-17T08:08:42Z</time>
      </trkpt>
      <trkpt lat="46.39026" lon="5.85943">
        <ele>455</ele>
        <time>2021-10-17T08:08:43Z</time>
      </trkpt>
      <trkpt lat="46.39024" lon="5.8594">
        <ele>455.2</ele>
        <time>2021-10-17T08:08:44Z</time>
      </trkpt>
      <trkpt lat="46.39023" lon="5.85938">
        <ele>455.6</ele>
        <time>2021-10-17T08:08:45Z</time>
      </trkpt>
      <trkpt lat="46.39022" lon="5.85936">
        <ele>456</ele>
        <time>2021-10-17T08:08:46Z</time>
      </trkpt>
      <trkpt lat="46.39021" lon="5.85933">
        <ele>456.2</ele>
        <time>2021-10-17T08:08:47Z</time>
      </trkpt>
      <trkpt lat="46.3902" lon="5.85931">
        <ele>456.6</ele>
        <time>2021-10-17T08:08:48Z</time>
      </trkpt>
      <trkpt lat="46.39019" lon="5.85929">
        <ele>456.8</ele>
        <time>2021-10-17T08:08:49Z</time>
      </trkpt>
      <trkpt lat="46.39017" lon="5.85927">
        <ele>457.2</ele>
        <time>2021-10-17T08:08:50Z</time>
      </trkpt>
      <trkpt lat="46.39016" lon="5.85925">
        <ele>457.6</ele>
        <time>2021-10-17T08:08:51Z</time>
      </trkpt>
      <trkpt lat="46.39015" lon="5.85923">
        <ele>458</ele>
        <time>2021-10-17T08:08:52Z</time>
      </trkpt>
      <trkpt lat="46.39013" lon="5.85923">
        <ele>458.4</ele>
        <time>2021-10-17T08:08:53Z</time>
      </trkpt>
      <trkpt lat="46.39012" lon="5.85921">
        <ele>459</ele>
        <time>2021-10-17T08:08:54Z</time>
      </trkpt>
      <trkpt lat="46.39011" lon="5.8592">
        <ele>459.4</ele>
        <time>2021-10-17T08:08:55Z</time>
      </trkpt>
      <trkpt lat="46.3901" lon="5.85918">
        <ele>459.8</ele>
        <time>2021-10-17T08:08:56Z</time>
      </trkpt>
      <trkpt lat="46.39009" lon="5.85916">
        <ele>460</ele>
        <time>2021-10-17T08:08:57Z</time>
      </trkpt>
      <trkpt lat="46.39008" lon="5.85914">
        <ele>460.4</ele>
        <time>2021-10-17T08:08:58Z</time>
      </trkpt>
      <trkpt lat="46.39007" lon="5.85912">
        <ele>460.4</ele>
        <time>2021-10-17T08:08:59Z</time>
      </trkpt>
      <trkpt lat="46.39007" lon="5.85909">
        <ele>460.6</ele>
        <time>2021-10-17T08:09:00Z</time>
      </trkpt>
      <trkpt lat="46.39006" lon="5.85907">
        <ele>461</ele>
        <time>2021-10-17T08:09:01Z</time>
      </trkpt>
      <trkpt lat="46.39005" lon="5.85906">
        <ele>461.2</ele>
        <time>2021-10-17T08:09:02Z</time>
      </trkpt>
      <trkpt lat="46.39004" lon="5.85905">
        <ele>461.4</ele>
        <time>2021-10-17T08:09:03Z</time>
      </trkpt>
      <trkpt lat="46.39003" lon="5.85905">
        <ele>461.8</ele>
        <time>2021-10-17T08:09:04Z</time>
      </trkpt>
      <trkpt lat="46.39002" lon="5.85904">
        <ele>462</ele>
        <time>2021-10-17T08:09:05Z</time>
      </trkpt>
      <trkpt lat="46.39" lon="5.85902">
        <ele>462</ele>
        <time>2021-10-17T08:09:06Z</time>
      </trkpt>
      <trkpt lat="46.38998" lon="5.85902">
        <ele>462.2</ele>
        <time>2021-10-17T08:09:07Z</time>
      </trkpt>
      <trkpt lat="46.38996" lon="5.859">
        <ele>462.2</ele>
        <time>2021-10-17T08:09:08Z</time>
      </trkpt>
      <trkpt lat="46.38995" lon="5.859">
        <ele>462.6</ele>
        <time>2021-10-17T08:09:09Z</time>
      </trkpt>
      <trkpt lat="46.38995" lon="5.85899">
        <ele>462.6</ele>
        <time>2021-10-17T08:09:10Z</time>
      </trkpt>
      <trkpt lat="46.38994" lon="5.85899">
        <ele>462.6</ele>
        <time>2021-10-17T08:09:11Z</time>
      </trkpt>
      <trkpt lat="46.38994" lon="5.85899">
        <ele>462.8</ele>
        <time>2021-10-17T08:09:12Z</time>
      </trkpt>
      <trkpt lat="46.38993" lon="5.85898">
        <ele>462.8</ele>
        <time>2021-10-17T08:09:13Z</time>
      </trkpt>
      <trkpt lat="46.38993" lon="5.85898">
        <ele>465</ele>
        <time>2021-10-17T08:50:56Z</time>
      </trkpt>
      <trkpt lat="46.38992" lon="5.85898">
        <ele>465</ele>
        <time>2021-10-17T08:50:57Z</time>
      </trkpt>
      <trkpt lat="46.38992" lon="5.85897">
        <ele>465</ele>
        <time>2021-10-17T08:50:58Z</time>
      </trkpt>
      <trkpt lat="46.38993" lon="5.85898">
        <ele>465</ele>
        <time>2021-10-17T08:50:59Z</time>
      </trkpt>
      <trkpt lat="46.38995" lon="5.85899">
        <ele>465</ele>
        <time>2021-10-17T08:51:00Z</time>
      </trkpt>
      <trkpt lat="46.38997" lon="5.859">
        <ele>465</ele>
        <time>2021-10-17T08:51:01Z</time>
      </trkpt>
      <trkpt lat="46.38998" lon="5.85902">
        <ele>464.8</ele>
        <time>2021-10-17T08:51:02Z</time>
      </trkpt>
      <trkpt lat="46.39001" lon="5.85904">
        <ele>464.8</ele>
        <time>2021-10-17T08:51:03Z</time>
      </trkpt>
      <trkpt lat="46.39003" lon="5.85906">
        <ele>464.4</ele>
        <time>2021-10-17T08:51:04Z</time>
      </trkpt>
      <trkpt lat="46.39005" lon="5.85908">
        <ele>464</ele>
        <time>2021-10-17T08:51:05Z</time>
      </trkpt>
      <trkpt lat="46.39007" lon="5.8591">
        <ele>463.6</ele>
        <time>2021-10-17T08:51:06Z</time>
      </trkpt>
      <trkpt lat="46.3901" lon="5.85914">
        <ele>463</ele>
        <time>2021-10-17T08:51:07Z</time>
      </trkpt>
      <trkpt lat="46.39015" lon="5.8592">
        <ele>462.4</ele>
        <time>2021-10-17T08:51:08Z</time>
      </trkpt>
      <trkpt lat="46.39018" lon="5.85928">
        <ele>461.6</ele>
        <time>2021-10-17T08:51:09Z</time>
      </trkpt>
      <trkpt lat="46.39023" lon="5.85934">
        <ele>460.6</ele>
        <time>2021-10-17T08:51:10Z</time>
      </trkpt>
      <trkpt lat="46.39028" lon="5.85942">
        <ele>459.6</ele>
        <time>2021-10-17T08:51:11Z</time>
      </trkpt>
      <trkpt lat="46.39034" lon="5.8595">
        <ele>458.6</ele>
        <time>2021-10-17T08:51:12Z</time>
      </trkpt>
      <trkpt lat="46.39038" lon="5.85958">
        <ele>457.6</ele>
        <time>2021-10-17T08:51:13Z</time>
      </trkpt>
      <trkpt lat="46.39043" lon="5.85965">
        <ele>456.4</ele>
        <time>2021-10-17T08:51:14Z</time>
      </trkpt>
      <trkpt lat="46.39047" lon="5.85971">
        <ele>455.4</ele>
        <time>2021-10-17T08:51:15Z</time>
      </trkpt>
      <trkpt lat="46.3905" lon="5.85977">
        <ele>454.4</ele>
        <time>2021-10-17T08:51:16Z</time>
      </trkpt>
      <trkpt lat="46.39053" lon="5.85982">
        <ele>453.4</ele>
        <time>2021-10-17T08:51:17Z</time>
      </trkpt>
      <trkpt lat="46.39056" lon="5.85988">
        <ele>452.6</ele>
        <time>2021-10-17T08:51:18Z</time>
      </trkpt>
      <trkpt lat="46.3906" lon="5.85995">
        <ele>451.8</ele>
        <time>2021-10-17T08:51:19Z</time>
      </trkpt>
      <trkpt lat="46.39064" lon="5.86002">
        <ele>451.2</ele>
        <time>2021-10-17T08:51:20Z</time>
      </trkpt>
      <trkpt lat="46.39069" lon="5.86008">
        <ele>450.4</ele>
        <time>2021-10-17T08:51:21Z</time>
      </trkpt>
      <trkpt lat="46.39075" lon="5.86014">
        <ele>450</ele>
        <time>2021-10-17T08:51:22Z</time>
      </trkpt>
      <trkpt lat="46.39082" lon="5.8602">
        <ele>449.2</ele>
        <time>2021-10-17T08:51:23Z</time>
      </trkpt>
      <trkpt lat="46.39088" lon="5.86026">
        <ele>448.6</ele>
        <time>2021-10-17T08:51:24Z</time>
      </trkpt>
      <trkpt lat="46.39094" lon="5.86031">
        <ele>447.8</ele>
        <time>2021-10-17T08:51:25Z</time>
      </trkpt>
      <trkpt lat="46.39099" lon="5.86036">
        <ele>447</ele>
        <time>2021-10-17T08:51:26Z</time>
      </trkpt>
      <trkpt lat="46.39105" lon="5.8604">
        <ele>446.2</ele>
        <time>2021-10-17T08:51:27Z</time>
      </trkpt>
      <trkpt lat="46.39111" lon="5.86045">
        <ele>445.6</ele>
        <time>2021-10-17T08:51:28Z</time>
      </trkpt>
      <trkpt lat="46.39117" lon="5.86049">
        <ele>445</ele>
        <time>2021-10-17T08:51:29Z</time>
      </trkpt>
      <trkpt lat="46.39123" lon="5.86053">
        <ele>444.2</ele>
        <time>2021-10-17T08:51:30Z</time>
      </trkpt>
      <trkpt lat="46.3913" lon="5.86056">
        <ele>443.6</ele>
        <time>2021-10-17T08:51:31Z</time>
      </trkpt>
      <trkpt lat="46.39137" lon="5.86061">
        <ele>443.2</ele>
        <time>2021-10-17T08:51:32Z</time>
      </trkpt>
      <trkpt lat="46.39139" lon="5.86064">
        <ele>442.6</ele>
        <time>2021-10-17T08:51:33Z</time>
      </trkpt>
      <trkpt lat="46.39143" lon="5.86069">
        <ele>442</ele>
        <time>2021-10-17T08:51:34Z</time>
      </trkpt>
      <trkpt lat="46.39146" lon="5.86075">
        <ele>441.4</ele>
        <time>2021-10-17T08:51:35Z</time>
      </trkpt>
      <trkpt lat="46.39149" lon="5.86079">
        <ele>440.8</ele>
        <time>2021-10-17T08:51:36Z</time>
      </trkpt>
      <trkpt lat="46.39154" lon="5.86082">
        <ele>440.4</ele>
        <time>2021-10-17T08:51:37Z</time>
      </trkpt>
      <trkpt lat="46.3916" lon="5.86083">
        <ele>439.8</ele>
        <time>2021-10-17T08:51:38Z</time>
      </trkpt>
      <trkpt lat="46.39166" lon="5.86084">
        <ele>439.2</ele>
        <time>2021-10-17T08:51:39Z</time>
      </trkpt>
      <trkpt lat="46.39171" lon="5.86085">
        <ele>438.6</ele>
        <time>2021-10-17T08:51:40Z</time>
      </trkpt>
      <trkpt lat="46.39176" lon="5.86086">
        <ele>438.2</ele>
        <time>2021-10-17T08:51:41Z</time>
      </trkpt>
      <trkpt lat="46.39181" lon="5.86087">
        <ele>437.6</ele>
        <time>2021-10-17T08:51:42Z</time>
      </trkpt>
      <trkpt lat="46.39184" lon="5.86087">
        <ele>437</ele>
        <time>2021-10-17T08:51:43Z</time>
      </trkpt>
      <trkpt lat="46.39188" lon="5.86088">
        <ele>436.6</ele>
        <time>2021-10-17T08:51:44Z</time>
      </trkpt>
      <trkpt lat="46.39191" lon="5.86088">
        <ele>436.2</ele>
        <time>2021-10-17T08:51:45Z</time>
      </trkpt>
      <trkpt lat="46.39193" lon="5.86089">
        <ele>435.8</ele>
        <time>2021-10-17T08:51:46Z</time>
      </trkpt>
      <trkpt lat="46.39195" lon="5.8609">
        <ele>435.4</ele>
        <time>2021-10-17T08:51:47Z</time>
      </trkpt>
      <trkpt lat="46.39196" lon="5.86092">
        <ele>435.2</ele>
        <time>2021-10-17T08:51:48Z</time>
      </trkpt>
      <trkpt lat="46.39197" lon="5.86094">
        <ele>434.8</ele>
        <time>2021-10-17T08:51:49Z</time>
      </trkpt>
      <trkpt lat="46.39198" lon="5.86097">
        <ele>434.4</ele>
        <time>2021-10-17T08:51:50Z</time>
      </trkpt>
      <trkpt lat="46.39199" lon="5.86099">
        <ele>434.4</ele>
        <time>2021-10-17T08:51:51Z</time>
      </trkpt>
      <trkpt lat="46.39199" lon="5.86102">
        <ele>434</ele>
        <time>2021-10-17T08:51:52Z</time>
      </trkpt>
      <trkpt lat="46.392" lon="5.86104">
        <ele>434</ele>
        <time>2021-10-17T08:51:53Z</time>
      </trkpt>
      <trkpt lat="46.392" lon="5.86106">
        <ele>433.8</ele>
        <time>2021-10-17T08:51:54Z</time>
      </trkpt>
      <trkpt lat="46.39202" lon="5.86108">
        <ele>433.8</ele>
        <time>2021-10-17T08:51:55Z</time>
      </trkpt>
      <trkpt lat="46.39204" lon="5.8611">
        <ele>433.4</ele>
        <time>2021-10-17T08:51:56Z</time>
      </trkpt>
      <trkpt lat="46.39207" lon="5.86113">
        <ele>433.4</ele>
        <time>2021-10-17T08:51:57Z</time>
      </trkpt>
      <trkpt lat="46.3921" lon="5.86115">
        <ele>433</ele>
        <time>2021-10-17T08:51:58Z</time>
      </trkpt>
      <trkpt lat="46.39213" lon="5.86118">
        <ele>433</ele>
        <time>2021-10-17T08:51:59Z</time>
      </trkpt>
      <trkpt lat="46.39216" lon="5.86121">
        <ele>433</ele>
        <time>2021-10-17T08:52:00Z</time>
      </trkpt>
      <trkpt lat="46.39219" lon="5.86123">
        <ele>432.8</ele>
        <time>2021-10-17T08:52:01Z</time>
      </trkpt>
      <trkpt lat="46.39222" lon="5.86126">
        <ele>432.8</ele>
        <time>2021-10-17T08:52:02Z</time>
      </trkpt>
      <trkpt lat="46.39226" lon="5.86126">
        <ele>432.6</ele>
        <time>2021-10-17T08:52:03Z</time>
      </trkpt>
      <trkpt lat="46.39231" lon="5.86127">
        <ele>432.6</ele>
        <time>2021-10-17T08:52:04Z</time>
      </trkpt>
      <trkpt lat="46.39235" lon="5.8613">
        <ele>432.6</ele>
        <time>2021-10-17T08:52:05Z</time>
      </trkpt>
      <trkpt lat="46.3924" lon="5.86133">
        <ele>432.2</ele>
        <time>2021-10-17T08:52:06Z</time>
      </trkpt>
      <trkpt lat="46.39244" lon="5.86137">
        <ele>432</ele>
        <time>2021-10-17T08:52:07Z</time>
      </trkpt>
      <trkpt lat="46.3925" lon="5.86143">
        <ele>432</ele>
        <time>2021-10-17T08:52:08Z</time>
      </trkpt>
      <trkpt lat="46.39257" lon="5.86146">
        <ele>431.8</ele>
        <time>2021-10-17T08:52:09Z</time>
      </trkpt>
      <trkpt lat="46.39262" lon="5.86149">
        <ele>431.8</ele>
        <time>2021-10-17T08:52:10Z</time>
      </trkpt>
      <trkpt lat="46.39268" lon="5.86152">
        <ele>431.4</ele>
        <time>2021-10-17T08:52:11Z</time>
      </trkpt>
      <trkpt lat="46.39275" lon="5.86157">
        <ele>431.4</ele>
        <time>2021-10-17T08:52:12Z</time>
      </trkpt>
      <trkpt lat="46.39281" lon="5.86161">
        <ele>431.2</ele>
        <time>2021-10-17T08:52:13Z</time>
      </trkpt>
      <trkpt lat="46.39287" lon="5.86165">
        <ele>430.8</ele>
        <time>2021-10-17T08:52:14Z</time>
      </trkpt>
      <trkpt lat="46.39297" lon="5.86171">
        <ele>430.4</ele>
        <time>2021-10-17T08:52:15Z</time>
      </trkpt>
      <trkpt lat="46.39306" lon="5.86177">
        <ele>430.2</ele>
        <time>2021-10-17T08:52:16Z</time>
      </trkpt>
      <trkpt lat="46.39314" lon="5.86183">
        <ele>430</ele>
        <time>2021-10-17T08:52:17Z</time>
      </trkpt>
      <trkpt lat="46.39321" lon="5.8619">
        <ele>429.6</ele>
        <time>2021-10-17T08:52:18Z</time>
      </trkpt>
      <trkpt lat="46.39327" lon="5.86196">
        <ele>429.4</ele>
        <time>2021-10-17T08:52:19Z</time>
      </trkpt>
      <trkpt lat="46.39332" lon="5.86202">
        <ele>429.4</ele>
        <time>2021-10-17T08:52:20Z</time>
      </trkpt>
      <trkpt lat="46.39336" lon="5.86208">
        <ele>429</ele>
        <time>2021-10-17T08:52:21Z</time>
      </trkpt>
      <trkpt lat="46.39339" lon="5.86215">
        <ele>428.8</ele>
        <time>2021-10-17T08:52:22Z</time>
      </trkpt>
      <trkpt lat="46.39342" lon="5.86223">
        <ele>428.8</ele>
        <time>2021-10-17T08:52:23Z</time>
      </trkpt>
      <trkpt lat="46.39341" lon="5.86228">
        <ele>428.4</ele>
        <time>2021-10-17T08:52:24Z</time>
      </trkpt>
      <trkpt lat="46.3934" lon="5.86234">
        <ele>428</ele>
        <time>2021-10-17T08:52:25Z</time>
      </trkpt>
      <trkpt lat="46.39338" lon="5.86243">
        <ele>428</ele>
        <time>2021-10-17T08:52:26Z</time>
      </trkpt>
      <trkpt lat="46.39336" lon="5.86252">
        <ele>427.8</ele>
        <time>2021-10-17T08:52:27Z</time>
      </trkpt>
      <trkpt lat="46.39334" lon="5.86261">
        <ele>427.8</ele>
        <time>2021-10-17T08:52:28Z</time>
      </trkpt>
      <trkpt lat="46.39332" lon="5.86271">
        <ele>427.4</ele>
        <time>2021-10-17T08:52:29Z</time>
      </trkpt>
      <trkpt lat="46.3933" lon="5.86281">
        <ele>427.4</ele>
        <time>2021-10-17T08:52:30Z</time>
      </trkpt>
      <trkpt lat="46.3933" lon="5.8629">
        <ele>427.2</ele>
        <time>2021-10-17T08:52:31Z</time>
      </trkpt>
      <trkpt lat="46.39329" lon="5.86298">
        <ele>427.2</ele>
        <time>2021-10-17T08:52:32Z</time>
      </trkpt>
      <trkpt lat="46.39329" lon="5.86307">
        <ele>427.2</ele>
        <time>2021-10-17T08:52:33Z</time>
      </trkpt>
      <trkpt lat="46.39328" lon="5.86315">
        <ele>427.2</ele>
        <time>2021-10-17T08:52:34Z</time>
      </trkpt>
      <trkpt lat="46.39328" lon="5.86324">
        <ele>427</ele>
        <time>2021-10-17T08:52:35Z</time>
      </trkpt>
      <trkpt lat="46.39326" lon="5.86332">
        <ele>427</ele>
        <time>2021-10-17T08:52:36Z</time>
      </trkpt>
      <trkpt lat="46.39325" lon="5.8634">
        <ele>427</ele>
        <time>2021-10-17T08:52:37Z</time>
      </trkpt>
      <trkpt lat="46.39325" lon="5.86346">
        <ele>427</ele>
        <time>2021-10-17T08:52:38Z</time>
      </trkpt>
      <trkpt lat="46.39325" lon="5.86352">
        <ele>427</ele>
        <time>2021-10-17T08:52:39Z</time>
      </trkpt>
      <trkpt lat="46.39325" lon="5.86358">
        <ele>427</ele>
        <time>2021-10-17T08:52:40Z</time>
      </trkpt>
      <trkpt lat="46.39324" lon="5.86363">
        <ele>427</ele>
        <time>2021-10-17T08:52:41Z</time>
      </trkpt>
      <trkpt lat="46.39323" lon="5.86367">
        <ele>427</ele>
        <time>2021-10-17T08:52:42Z</time>
      </trkpt>
      <trkpt lat="46.39322" lon="5.8637">
        <ele>427</ele>
        <time>2021-10-17T08:52:43Z</time>
      </trkpt>
      <trkpt lat="46.39322" lon="5.86373">
        <ele>427</ele>
        <time>2021-10-17T08:52:44Z</time>
      </trkpt>
      <trkpt lat="46.39322" lon="5.86377">
        <ele>427</ele>
        <time>2021-10-17T08:52:45Z</time>
      </trkpt>
      <trkpt lat="46.39321" lon="5.86381">
        <ele>427</ele>
        <time>2021-10-17T08:52:46Z</time>
      </trkpt>
      <trkpt lat="46.3932" lon="5.86387">
        <ele>427</ele>
        <time>2021-10-17T08:52:47Z</time>
      </trkpt>
      <trkpt lat="46.3932" lon="5.86394">
        <ele>427</ele>
        <time>2021-10-17T08:52:48Z</time>
      </trkpt>
      <trkpt lat="46.39319" lon="5.86401">
        <ele>427</ele>
        <time>2021-10-17T08:52:49Z</time>
      </trkpt>
      <trkpt lat="46.39319" lon="5.86409">
        <ele>427</ele>
        <time>2021-10-17T08:52:50Z</time>
      </trkpt>
      <trkpt lat="46.39319" lon="5.86417">
        <ele>426.8</ele>
        <time>2021-10-17T08:52:51Z</time>
      </trkpt>
      <trkpt lat="46.39318" lon="5.86426">
        <ele>426.8</ele>
        <time>2021-10-17T08:52:52Z</time>
      </trkpt>
      <trkpt lat="46.39317" lon="5.86434">
        <ele>426.8</ele>
        <time>2021-10-17T08:52:53Z</time>
      </trkpt>
      <trkpt lat="46.39316" lon="5.86439">
        <ele>426.8</ele>
        <time>2021-10-17T08:52:54Z</time>
      </trkpt>
      <trkpt lat="46.39314" lon="5.86442">
        <ele>426.8</ele>
        <time>2021-10-17T08:52:55Z</time>
      </trkpt>
      <trkpt lat="46.39311" lon="5.86444">
        <ele>426.8</ele>
        <time>2021-10-17T08:52:56Z</time>
      </trkpt>
      <trkpt lat="46.39309" lon="5.86446">
        <ele>427</ele>
        <time>2021-10-17T08:52:57Z</time>
      </trkpt>
      <trkpt lat="46.39305" lon="5.86445">
        <ele>427</ele>
        <time>2021-10-17T08:52:58Z</time>
      </trkpt>
      <trkpt lat="46.39301" lon="5.86445">
        <ele>427.2</ele>
        <time>2021-10-17T08:52:59Z</time>
      </trkpt>
      <trkpt lat="46.39297" lon="5.86444">
        <ele>427.2</ele>
        <time>2021-10-17T08:53:00Z</time>
      </trkpt>
      <trkpt lat="46.39293" lon="5.86443">
        <ele>427.4</ele>
        <time>2021-10-17T08:53:01Z</time>
      </trkpt>
      <trkpt lat="46.3929" lon="5.86442">
        <ele>427.4</ele>
        <time>2021-10-17T08:53:02Z</time>
      </trkpt>
      <trkpt lat="46.39287" lon="5.86441">
        <ele>427.4</ele>
        <time>2021-10-17T08:53:03Z</time>
      </trkpt>
      <trkpt lat="46.39285" lon="5.86439">
        <ele>427.4</ele>
        <time>2021-10-17T08:53:04Z</time>
      </trkpt>
      <trkpt lat="46.39282" lon="5.86438">
        <ele>427.4</ele>
        <time>2021-10-17T08:53:05Z</time>
      </trkpt>
      <trkpt lat="46.39279" lon="5.86437">
        <ele>427.8</ele>
        <time>2021-10-17T08:53:06Z</time>
      </trkpt>
      <trkpt lat="46.39277" lon="5.86436">
        <ele>427.8</ele>
        <time>2021-10-17T08:53:07Z</time>
      </trkpt>
      <trkpt lat="46.39274" lon="5.86435">
        <ele>427.8</ele>
        <time>2021-10-17T08:53:08Z</time>
      </trkpt>
      <trkpt lat="46.39272" lon="5.86434">
        <ele>427.8</ele>
        <time>2021-10-17T08:53:09Z</time>
      </trkpt>
      <trkpt lat="46.3927" lon="5.86432">
        <ele>427.8</ele>
        <time>2021-10-17T08:53:10Z</time>
      </trkpt>
      <trkpt lat="46.39268" lon="5.86431">
        <ele>427.8</ele>
        <time>2021-10-17T08:53:11Z</time>
      </trkpt>
      <trkpt lat="46.39265" lon="5.86429">
        <ele>428</ele>
        <time>2021-10-17T08:53:12Z</time>
      </trkpt>
      <trkpt lat="46.39263" lon="5.86427">
        <ele>428</ele>
        <time>2021-10-17T08:53:13Z</time>
      </trkpt>
      <trkpt lat="46.3926" lon="5.86425">
        <ele>428</ele>
        <time>2021-10-17T08:53:14Z</time>
      </trkpt>
      <trkpt lat="46.39258" lon="5.86424">
        <ele>428</ele>
        <time>2021-10-17T08:53:15Z</time>
      </trkpt>
      <trkpt lat="46.39255" lon="5.86424">
        <ele>428</ele>
        <time>2021-10-17T08:53:16Z</time>
      </trkpt>
      <trkpt lat="46.39253" lon="5.86426">
        <ele>428.4</ele>
        <time>2021-10-17T08:53:17Z</time>
      </trkpt>
      <trkpt lat="46.39251" lon="5.8643">
        <ele>428.4</ele>
        <time>2021-10-17T08:53:18Z</time>
      </trkpt>
      <trkpt lat="46.3925" lon="5.86435">
        <ele>428.4</ele>
        <time>2021-10-17T08:53:19Z</time>
      </trkpt>
      <trkpt lat="46.3925" lon="5.8644">
        <ele>428.4</ele>
        <time>2021-10-17T08:53:20Z</time>
      </trkpt>
      <trkpt lat="46.39252" lon="5.86444">
        <ele>428.4</ele>
        <time>2021-10-17T08:53:21Z</time>
      </trkpt>
      <trkpt lat="46.39254" lon="5.86448">
        <ele>428.4</ele>
        <time>2021-10-17T08:53:22Z</time>
      </trkpt>
      <trkpt lat="46.39257" lon="5.86451">
        <ele>428.6</ele>
        <time>2021-10-17T08:53:23Z</time>
      </trkpt>
      <trkpt lat="46.3926" lon="5.86455">
        <ele>428.6</ele>
        <time>2021-10-17T08:53:24Z</time>
      </trkpt>
      <trkpt lat="46.39263" lon="5.86459">
        <ele>429</ele>
        <time>2021-10-17T08:53:25Z</time>
      </trkpt>
      <trkpt lat="46.39267" lon="5.86463">
        <ele>429</ele>
        <time>2021-10-17T08:53:26Z</time>
      </trkpt>
      <trkpt lat="46.3927" lon="5.86467">
        <ele>429.4</ele>
        <time>2021-10-17T08:53:27Z</time>
      </trkpt>
      <trkpt lat="46.39274" lon="5.86471">
        <ele>429.4</ele>
        <time>2021-10-17T08:53:28Z</time>
      </trkpt>
      <trkpt lat="46.39277" lon="5.86475">
        <ele>429.6</ele>
        <time>2021-10-17T08:53:29Z</time>
      </trkpt>
      <trkpt lat="46.39281" lon="5.86479">
        <ele>429.6</ele>
        <time>2021-10-17T08:53:30Z</time>
      </trkpt>
      <trkpt lat="46.39284" lon="5.86483">
        <ele>430</ele>
        <time>2021-10-17T08:53:31Z</time>
      </trkpt>
      <trkpt lat="46.39288" lon="5.86487">
        <ele>430</ele>
        <time>2021-10-17T08:53:32Z</time>
      </trkpt>
      <trkpt lat="46.39292" lon="5.86492">
        <ele>430.2</ele>
        <time>2021-10-17T08:53:33Z</time>
      </trkpt>
      <trkpt lat="46.39296" lon="5.86496">
        <ele>430.2</ele>
        <time>2021-10-17T08:53:34Z</time>
      </trkpt>
      <trkpt lat="46.39299" lon="5.86501">
        <ele>430.6</ele>
        <time>2021-10-17T08:53:35Z</time>
      </trkpt>
      <trkpt lat="46.39302" lon="5.86506">
        <ele>430.6</ele>
        <time>2021-10-17T08:53:36Z</time>
      </trkpt>
      <trkpt lat="46.39306" lon="5.86511">
        <ele>431</ele>
        <time>2021-10-17T08:53:37Z</time>
      </trkpt>
      <trkpt lat="46.39311" lon="5.86516">
        <ele>431</ele>
        <time>2021-10-17T08:53:38Z</time>
      </trkpt>
      <trkpt lat="46.39314" lon="5.86521">
        <ele>431.2</ele>
        <time>2021-10-17T08:53:39Z</time>
      </trkpt>
      <trkpt lat="46.39318" lon="5.86527">
        <ele>431.2</ele>
        <time>2021-10-17T08:53:40Z</time>
      </trkpt>
      <trkpt lat="46.39322" lon="5.86532">
        <ele>431.6</ele>
        <time>2021-10-17T08:53:41Z</time>
      </trkpt>
      <trkpt lat="46.39326" lon="5.86536">
        <ele>431.6</ele>
        <time>2021-10-17T08:53:42Z</time>
      </trkpt>
      <trkpt lat="46.3933" lon="5.86541">
        <ele>431.8</ele>
        <time>2021-10-17T08:53:43Z</time>
      </trkpt>
      <trkpt lat="46.39334" lon="5.86545">
        <ele>432.2</ele>
        <time>2021-10-17T08:53:44Z</time>
      </trkpt>
      <trkpt lat="46.39338" lon="5.86549">
        <ele>432.2</ele>
        <time>2021-10-17T08:53:45Z</time>
      </trkpt>
      <trkpt lat="46.39342" lon="5.86554">
        <ele>432.4</ele>
        <time>2021-10-17T08:53:46Z</time>
      </trkpt>
      <trkpt lat="46.39346" lon="5.86558">
        <ele>432.8</ele>
        <time>2021-10-17T08:53:47Z</time>
      </trkpt>
      <trkpt lat="46.3935" lon="5.86563">
        <ele>433</ele>
        <time>2021-10-17T08:53:48Z</time>
      </trkpt>
      <trkpt lat="46.39353" lon="5.86567">
        <ele>433.2</ele>
        <time>2021-10-17T08:53:49Z</time>
      </trkpt>
      <trkpt lat="46.39357" lon="5.86571">
        <ele>433.6</ele>
        <time>2021-10-17T08:53:50Z</time>
      </trkpt>
      <trkpt lat="46.3936" lon="5.86574">
        <ele>433.6</ele>
        <time>2021-10-17T08:53:51Z</time>
      </trkpt>
      <trkpt lat="46.39362" lon="5.86577">
        <ele>433.8</ele>
        <time>2021-10-17T08:53:52Z</time>
      </trkpt>
      <trkpt lat="46.39364" lon="5.86581">
        <ele>433.8</ele>
        <time>2021-10-17T08:53:53Z</time>
      </trkpt>
      <trkpt lat="46.39364" lon="5.86585">
        <ele>434</ele>
        <time>2021-10-17T08:53:54Z</time>
      </trkpt>
      <trkpt lat="46.39364" lon="5.86587">
        <ele>434</ele>
        <time>2021-10-17T08:53:55Z</time>
      </trkpt>
      <trkpt lat="46.39363" lon="5.86588">
        <ele>434</ele>
        <time>2021-10-17T08:53:56Z</time>
      </trkpt>
      <trkpt lat="46.39362" lon="5.8659">
        <ele>434.2</ele>
        <time>2021-10-17T08:53:57Z</time>
      </trkpt>
      <trkpt lat="46.3936" lon="5.86591">
        <ele>434.2</ele>
        <time>2021-10-17T08:53:58Z</time>
      </trkpt>
      <trkpt lat="46.39358" lon="5.86591">
        <ele>434.2</ele>
        <time>2021-10-17T08:53:59Z</time>
      </trkpt>
      <trkpt lat="46.39355" lon="5.86591">
        <ele>434.2</ele>
        <time>2021-10-17T08:54:00Z</time>
      </trkpt>
      <trkpt lat="46.39351" lon="5.86591">
        <ele>434.2</ele>
        <time>2021-10-17T08:54:01Z</time>
      </trkpt>
      <trkpt lat="46.39346" lon="5.86589">
        <ele>434.2</ele>
        <time>2021-10-17T08:54:02Z</time>
      </trkpt>
      <trkpt lat="46.39342" lon="5.86588">
        <ele>434.2</ele>
        <time>2021-10-17T08:54:03Z</time>
      </trkpt>
      <trkpt lat="46.39337" lon="5.86586">
        <ele>434.2</ele>
        <time>2021-10-17T08:54:04Z</time>
      </trkpt>
      <trkpt lat="46.39331" lon="5.86583">
        <ele>434.2</ele>
        <time>2021-10-17T08:54:05Z</time>
      </trkpt>
      <trkpt lat="46.39326" lon="5.86581">
        <ele>434.2</ele>
        <time>2021-10-17T08:54:06Z</time>
      </trkpt>
      <trkpt lat="46.3932" lon="5.86579">
        <ele>434.2</ele>
        <time>2021-10-17T08:54:07Z</time>
      </trkpt>
      <trkpt lat="46.39314" lon="5.86577">
        <ele>434.2</ele>
        <time>2021-10-17T08:54:08Z</time>
      </trkpt>
      <trkpt lat="46.39309" lon="5.86576">
        <ele>434.2</ele>
        <time>2021-10-17T08:54:09Z</time>
      </trkpt>
      <trkpt lat="46.39303" lon="5.86574">
        <ele>434.2</ele>
        <time>2021-10-17T08:54:10Z</time>
      </trkpt>
      <trkpt lat="46.39298" lon="5.86572">
        <ele>434.2</ele>
        <time>2021-10-17T08:54:11Z</time>
      </trkpt>
      <trkpt lat="46.39293" lon="5.8657">
        <ele>434</ele>
        <time>2021-10-17T08:54:12Z</time>
      </trkpt>
      <trkpt lat="46.39288" lon="5.86568">
        <ele>434</ele>
        <time>2021-10-17T08:54:13Z</time>
      </trkpt>
      <trkpt lat="46.39283" lon="5.86566">
        <ele>434</ele>
        <time>2021-10-17T08:54:14Z</time>
      </trkpt>
      <trkpt lat="46.39277" lon="5.86564">
        <ele>434</ele>
        <time>2021-10-17T08:54:15Z</time>
      </trkpt>
      <trkpt lat="46.39272" lon="5.86561">
        <ele>434</ele>
        <time>2021-10-17T08:54:16Z</time>
      </trkpt>
      <trkpt lat="46.39267" lon="5.86559">
        <ele>434</ele>
        <time>2021-10-17T08:54:17Z</time>
      </trkpt>
      <trkpt lat="46.39261" lon="5.86556">
        <ele>434</ele>
        <time>2021-10-17T08:54:18Z</time>
      </trkpt>
      <trkpt lat="46.39257" lon="5.86554">
        <ele>434</ele>
        <time>2021-10-17T08:54:19Z</time>
      </trkpt>
      <trkpt lat="46.39252" lon="5.86552">
        <ele>434</ele>
        <time>2021-10-17T08:54:20Z</time>
      </trkpt>
      <trkpt lat="46.39247" lon="5.86549">
        <ele>434</ele>
        <time>2021-10-17T08:54:21Z</time>
      </trkpt>
      <trkpt lat="46.39241" lon="5.86547">
        <ele>434.2</ele>
        <time>2021-10-17T08:54:22Z</time>
      </trkpt>
      <trkpt lat="46.39237" lon="5.86544">
        <ele>434.2</ele>
        <time>2021-10-17T08:54:23Z</time>
      </trkpt>
      <trkpt lat="46.39233" lon="5.86541">
        <ele>434.2</ele>
        <time>2021-10-17T08:54:24Z</time>
      </trkpt>
      <trkpt lat="46.39229" lon="5.86538">
        <ele>434.2</ele>
        <time>2021-10-17T08:54:25Z</time>
      </trkpt>
      <trkpt lat="46.39225" lon="5.86536">
        <ele>434.2</ele>
        <time>2021-10-17T08:54:26Z</time>
      </trkpt>
      <trkpt lat="46.39221" lon="5.86534">
        <ele>434.2</ele>
        <time>2021-10-17T08:54:27Z</time>
      </trkpt>
      <trkpt lat="46.39218" lon="5.86532">
        <ele>434.2</ele>
        <time>2021-10-17T08:54:28Z</time>
      </trkpt>
      <trkpt lat="46.39214" lon="5.8653">
        <ele>434.2</ele>
        <time>2021-10-17T08:54:29Z</time>
      </trkpt>
      <trkpt lat="46.3921" lon="5.86527">
        <ele>434.2</ele>
        <time>2021-10-17T08:54:30Z</time>
      </trkpt>
      <trkpt lat="46.39205" lon="5.86524">
        <ele>434.2</ele>
        <time>2021-10-17T08:54:31Z</time>
      </trkpt>
      <trkpt lat="46.392" lon="5.8652">
        <ele>434.2</ele>
        <time>2021-10-17T08:54:32Z</time>
      </trkpt>
      <trkpt lat="46.39195" lon="5.86517">
        <ele>434</ele>
        <time>2021-10-17T08:54:33Z</time>
      </trkpt>
      <trkpt lat="46.39189" lon="5.86515">
        <ele>433.8</ele>
        <time>2021-10-17T08:54:34Z</time>
      </trkpt>
      <trkpt lat="46.39184" lon="5.86513">
        <ele>433.6</ele>
        <time>2021-10-17T08:54:35Z</time>
      </trkpt>
      <trkpt lat="46.39179" lon="5.8651">
        <ele>433.2</ele>
        <time>2021-10-17T08:54:36Z</time>
      </trkpt>
      <trkpt lat="46.39174" lon="5.86507">
        <ele>433</ele>
        <time>2021-10-17T08:54:37Z</time>
      </trkpt>
      <trkpt lat="46.3917" lon="5.86504">
        <ele>432.6</ele>
        <time>2021-10-17T08:54:38Z</time>
      </trkpt>
      <trkpt lat="46.39166" lon="5.86502">
        <ele>432.2</ele>
        <time>2021-10-17T08:54:39Z</time>
      </trkpt>
      <trkpt lat="46.39162" lon="5.865">
        <ele>432</ele>
        <time>2021-10-17T08:54:40Z</time>
      </trkpt>
      <trkpt lat="46.39159" lon="5.86498">
        <ele>431.6</ele>
        <time>2021-10-17T08:54:41Z</time>
      </trkpt>
      <trkpt lat="46.39156" lon="5.86496">
        <ele>431.4</ele>
        <time>2021-10-17T08:54:42Z</time>
      </trkpt>
      <trkpt lat="46.39152" lon="5.86494">
        <ele>431</ele>
        <time>2021-10-17T08:54:43Z</time>
      </trkpt>
      <trkpt lat="46.39149" lon="5.86492">
        <ele>430.8</ele>
        <time>2021-10-17T08:54:44Z</time>
      </trkpt>
      <trkpt lat="46.39145" lon="5.8649">
        <ele>430.8</ele>
        <time>2021-10-17T08:54:45Z</time>
      </trkpt>
      <trkpt lat="46.39141" lon="5.86491">
        <ele>430.6</ele>
        <time>2021-10-17T08:54:46Z</time>
      </trkpt>
      <trkpt lat="46.39136" lon="5.86491">
        <ele>430.4</ele>
        <time>2021-10-17T08:54:47Z</time>
      </trkpt>
      <trkpt lat="46.39131" lon="5.86489">
        <ele>430.4</ele>
        <time>2021-10-17T08:54:48Z</time>
      </trkpt>
      <trkpt lat="46.39125" lon="5.86488">
        <ele>430</ele>
        <time>2021-10-17T08:54:49Z</time>
      </trkpt>
      <trkpt lat="46.39119" lon="5.86488">
        <ele>430</ele>
        <time>2021-10-17T08:54:50Z</time>
      </trkpt>
      <trkpt lat="46.39113" lon="5.86488">
        <ele>429.8</ele>
        <time>2021-10-17T08:54:51Z</time>
      </trkpt>
      <trkpt lat="46.39106" lon="5.86488">
        <ele>429.8</ele>
        <time>2021-10-17T08:54:52Z</time>
      </trkpt>
      <trkpt lat="46.391" lon="5.86489">
        <ele>429.4</ele>
        <time>2021-10-17T08:54:53Z</time>
      </trkpt>
      <trkpt lat="46.39093" lon="5.86488">
        <ele>429.4</ele>
        <time>2021-10-17T08:54:54Z</time>
      </trkpt>
      <trkpt lat="46.39087" lon="5.86488">
        <ele>429</ele>
        <time>2021-10-17T08:54:55Z</time>
      </trkpt>
      <trkpt lat="46.3908" lon="5.86491">
        <ele>429</ele>
        <time>2021-10-17T08:54:56Z</time>
      </trkpt>
      <trkpt lat="46.39074" lon="5.86492">
        <ele>429</ele>
        <time>2021-10-17T08:54:57Z</time>
      </trkpt>
      <trkpt lat="46.39069" lon="5.86492">
        <ele>429.2</ele>
        <time>2021-10-17T08:54:58Z</time>
      </trkpt>
      <trkpt lat="46.39064" lon="5.86493">
        <ele>429.2</ele>
        <time>2021-10-17T08:54:59Z</time>
      </trkpt>
      <trkpt lat="46.3906" lon="5.86493">
        <ele>429.6</ele>
        <time>2021-10-17T08:55:00Z</time>
      </trkpt>
      <trkpt lat="46.39055" lon="5.86494">
        <ele>429.6</ele>
        <time>2021-10-17T08:55:01Z</time>
      </trkpt>
      <trkpt lat="46.39051" lon="5.86495">
        <ele>429.6</ele>
        <time>2021-10-17T08:55:02Z</time>
      </trkpt>
      <trkpt lat="46.39046" lon="5.86496">
        <ele>429.8</ele>
        <time>2021-10-17T08:55:03Z</time>
      </trkpt>
      <trkpt lat="46.39041" lon="5.86497">
        <ele>429.8</ele>
        <time>2021-10-17T08:55:04Z</time>
      </trkpt>
      <trkpt lat="46.39036" lon="5.86498">
        <ele>430.2</ele>
        <time>2021-10-17T08:55:05Z</time>
      </trkpt>
      <trkpt lat="46.3903" lon="5.86499">
        <ele>430.2</ele>
        <time>2021-10-17T08:55:06Z</time>
      </trkpt>
      <trkpt lat="46.39025" lon="5.865">
        <ele>430.4</ele>
        <time>2021-10-17T08:55:07Z</time>
      </trkpt>
      <trkpt lat="46.3902" lon="5.865">
        <ele>430.4</ele>
        <time>2021-10-17T08:55:08Z</time>
      </trkpt>
      <trkpt lat="46.39015" lon="5.865">
        <ele>430.4</ele>
        <time>2021-10-17T08:55:09Z</time>
      </trkpt>
      <trkpt lat="46.39009" lon="5.86501">
        <ele>430.6</ele>
        <time>2021-10-17T08:55:10Z</time>
      </trkpt>
      <trkpt lat="46.39004" lon="5.86502">
        <ele>430.6</ele>
        <time>2021-10-17T08:55:11Z</time>
      </trkpt>
      <trkpt lat="46.38997" lon="5.86503">
        <ele>430.6</ele>
        <time>2021-10-17T08:55:12Z</time>
      </trkpt>
      <trkpt lat="46.38991" lon="5.86503">
        <ele>430.6</ele>
        <time>2021-10-17T08:55:13Z</time>
      </trkpt>
      <trkpt lat="46.38985" lon="5.86504">
        <ele>430.6</ele>
        <time>2021-10-17T08:55:14Z</time>
      </trkpt>
      <trkpt lat="46.38979" lon="5.86504">
        <ele>430.6</ele>
        <time>2021-10-17T08:55:15Z</time>
      </trkpt>
      <trkpt lat="46.38974" lon="5.86504">
        <ele>431</ele>
        <time>2021-10-17T08:55:16Z</time>
      </trkpt>
      <trkpt lat="46.38968" lon="5.86504">
        <ele>431</ele>
        <time>2021-10-17T08:55:17Z</time>
      </trkpt>
      <trkpt lat="46.38962" lon="5.86505">
        <ele>431</ele>
        <time>2021-10-17T08:55:18Z</time>
      </trkpt>
      <trkpt lat="46.38956" lon="5.86507">
        <ele>431.2</ele>
        <time>2021-10-17T08:55:19Z</time>
      </trkpt>
      <trkpt lat="46.38951" lon="5.86508">
        <ele>431.6</ele>
        <time>2021-10-17T08:55:20Z</time>
      </trkpt>
      <trkpt lat="46.38946" lon="5.86509">
        <ele>431.8</ele>
        <time>2021-10-17T08:55:21Z</time>
      </trkpt>
      <trkpt lat="46.38941" lon="5.8651">
        <ele>432</ele>
        <time>2021-10-17T08:55:22Z</time>
      </trkpt>
      <trkpt lat="46.38936" lon="5.86511">
        <ele>432.4</ele>
        <time>2021-10-17T08:55:23Z</time>
      </trkpt>
      <trkpt lat="46.38931" lon="5.86513">
        <ele>432.8</ele>
        <time>2021-10-17T08:55:24Z</time>
      </trkpt>
      <trkpt lat="46.38927" lon="5.86515">
        <ele>433</ele>
        <time>2021-10-17T08:55:25Z</time>
      </trkpt>
      <trkpt lat="46.38924" lon="5.86519">
        <ele>433.2</ele>
        <time>2021-10-17T08:55:26Z</time>
      </trkpt>
      <trkpt lat="46.3892" lon="5.86522">
        <ele>433.2</ele>
        <time>2021-10-17T08:55:27Z</time>
      </trkpt>
      <trkpt lat="46.38916" lon="5.86525">
        <ele>433.6</ele>
        <time>2021-10-17T08:55:28Z</time>
      </trkpt>
      <trkpt lat="46.38913" lon="5.8653">
        <ele>433.8</ele>
        <time>2021-10-17T08:55:29Z</time>
      </trkpt>
      <trkpt lat="46.38906" lon="5.86539">
        <ele>434</ele>
        <time>2021-10-17T08:55:30Z</time>
      </trkpt>
      <trkpt lat="46.38903" lon="5.86544">
        <ele>434.4</ele>
        <time>2021-10-17T08:55:31Z</time>
      </trkpt>
      <trkpt lat="46.38899" lon="5.86548">
        <ele>434.6</ele>
        <time>2021-10-17T08:55:32Z</time>
      </trkpt>
      <trkpt lat="46.38895" lon="5.86552">
        <ele>434.8</ele>
        <time>2021-10-17T08:55:33Z</time>
      </trkpt>
      <trkpt lat="46.38891" lon="5.86557">
        <ele>435.2</ele>
        <time>2021-10-17T08:55:34Z</time>
      </trkpt>
      <trkpt lat="46.38888" lon="5.86563">
        <ele>435.4</ele>
        <time>2021-10-17T08:55:35Z</time>
      </trkpt>
      <trkpt lat="46.38885" lon="5.86568">
        <ele>435.8</ele>
        <time>2021-10-17T08:55:36Z</time>
      </trkpt>
      <trkpt lat="46.38881" lon="5.86571">
        <ele>436</ele>
        <time>2021-10-17T08:55:37Z</time>
      </trkpt>
      <trkpt lat="46.38876" lon="5.86574">
        <ele>436.4</ele>
        <time>2021-10-17T08:55:38Z</time>
      </trkpt>
      <trkpt lat="46.38872" lon="5.86575">
        <ele>436.6</ele>
        <time>2021-10-17T08:55:39Z</time>
      </trkpt>
      <trkpt lat="46.38868" lon="5.86577">
        <ele>436.8</ele>
        <time>2021-10-17T08:55:40Z</time>
      </trkpt>
      <trkpt lat="46.38864" lon="5.86578">
        <ele>436.8</ele>
        <time>2021-10-17T08:55:41Z</time>
      </trkpt>
      <trkpt lat="46.38859" lon="5.8658">
        <ele>437</ele>
        <time>2021-10-17T08:55:42Z</time>
      </trkpt>
      <trkpt lat="46.38856" lon="5.86582">
        <ele>437</ele>
        <time>2021-10-17T08:55:43Z</time>
      </trkpt>
      <trkpt lat="46.38851" lon="5.86584">
        <ele>437</ele>
        <time>2021-10-17T08:55:44Z</time>
      </trkpt>
      <trkpt lat="46.38846" lon="5.86585">
        <ele>437.4</ele>
        <time>2021-10-17T08:55:45Z</time>
      </trkpt>
      <trkpt lat="46.3884" lon="5.86585">
        <ele>437.4</ele>
        <time>2021-10-17T08:55:46Z</time>
      </trkpt>
      <trkpt lat="46.38835" lon="5.86584">
        <ele>437.4</ele>
        <time>2021-10-17T08:55:47Z</time>
      </trkpt>
      <trkpt lat="46.38829" lon="5.86584">
        <ele>437.4</ele>
        <time>2021-10-17T08:55:48Z</time>
      </trkpt>
      <trkpt lat="46.38823" lon="5.86584">
        <ele>437.4</ele>
        <time>2021-10-17T08:55:49Z</time>
      </trkpt>
      <trkpt lat="46.38816" lon="5.86583">
        <ele>437.4</ele>
        <time>2021-10-17T08:55:50Z</time>
      </trkpt>
      <trkpt lat="46.38809" lon="5.86584">
        <ele>437.4</ele>
        <time>2021-10-17T08:55:51Z</time>
      </trkpt>
      <trkpt lat="46.38802" lon="5.86585">
        <ele>437</ele>
        <time>2021-10-17T08:55:52Z</time>
      </trkpt>
      <trkpt lat="46.38795" lon="5.86587">
        <ele>436.8</ele>
        <time>2021-10-17T08:55:53Z</time>
      </trkpt>
      <trkpt lat="46.38789" lon="5.8659">
        <ele>436.8</ele>
        <time>2021-10-17T08:55:54Z</time>
      </trkpt>
      <trkpt lat="46.38783" lon="5.86594">
        <ele>436.2</ele>
        <time>2021-10-17T08:55:55Z</time>
      </trkpt>
      <trkpt lat="46.38778" lon="5.86598">
        <ele>436</ele>
        <time>2021-10-17T08:55:56Z</time>
      </trkpt>
      <trkpt lat="46.38774" lon="5.86601">
        <ele>435.6</ele>
        <time>2021-10-17T08:55:57Z</time>
      </trkpt>
      <trkpt lat="46.38769" lon="5.86603">
        <ele>435.4</ele>
        <time>2021-10-17T08:55:58Z</time>
      </trkpt>
      <trkpt lat="46.38764" lon="5.86607">
        <ele>435</ele>
        <time>2021-10-17T08:55:59Z</time>
      </trkpt>
      <trkpt lat="46.3876" lon="5.86611">
        <ele>434.8</ele>
        <time>2021-10-17T08:56:00Z</time>
      </trkpt>
      <trkpt lat="46.38755" lon="5.86616">
        <ele>434.8</ele>
        <time>2021-10-17T08:56:01Z</time>
      </trkpt>
      <trkpt lat="46.3875" lon="5.86622">
        <ele>434.4</ele>
        <time>2021-10-17T08:56:02Z</time>
      </trkpt>
      <trkpt lat="46.38744" lon="5.86629">
        <ele>434.2</ele>
        <time>2021-10-17T08:56:03Z</time>
      </trkpt>
      <trkpt lat="46.38739" lon="5.86636">
        <ele>434</ele>
        <time>2021-10-17T08:56:04Z</time>
      </trkpt>
      <trkpt lat="46.38734" lon="5.86645">
        <ele>433.6</ele>
        <time>2021-10-17T08:56:05Z</time>
      </trkpt>
      <trkpt lat="46.3873" lon="5.86652">
        <ele>433.2</ele>
        <time>2021-10-17T08:56:06Z</time>
      </trkpt>
      <trkpt lat="46.38726" lon="5.8666">
        <ele>433</ele>
        <time>2021-10-17T08:56:07Z</time>
      </trkpt>
      <trkpt lat="46.38722" lon="5.86667">
        <ele>432.6</ele>
        <time>2021-10-17T08:56:08Z</time>
      </trkpt>
      <trkpt lat="46.38718" lon="5.86674">
        <ele>432.4</ele>
        <time>2021-10-17T08:56:09Z</time>
      </trkpt>
      <trkpt lat="46.38715" lon="5.86681">
        <ele>432.2</ele>
        <time>2021-10-17T08:56:10Z</time>
      </trkpt>
      <trkpt lat="46.38711" lon="5.86687">
        <ele>432.2</ele>
        <time>2021-10-17T08:56:11Z</time>
      </trkpt>
      <trkpt lat="46.38708" lon="5.86694">
        <ele>431.8</ele>
        <time>2021-10-17T08:56:12Z</time>
      </trkpt>
      <trkpt lat="46.38706" lon="5.86699">
        <ele>431.8</ele>
        <time>2021-10-17T08:56:13Z</time>
      </trkpt>
      <trkpt lat="46.38703" lon="5.86703">
        <ele>431.6</ele>
        <time>2021-10-17T08:56:14Z</time>
      </trkpt>
      <trkpt lat="46.38702" lon="5.86708">
        <ele>431.6</ele>
        <time>2021-10-17T08:56:15Z</time>
      </trkpt>
      <trkpt lat="46.38699" lon="5.86712">
        <ele>431.2</ele>
        <time>2021-10-17T08:56:16Z</time>
      </trkpt>
      <trkpt lat="46.38695" lon="5.86716">
        <ele>431.2</ele>
        <time>2021-10-17T08:56:17Z</time>
      </trkpt>
      <trkpt lat="46.38691" lon="5.86719">
        <ele>431</ele>
        <time>2021-10-17T08:56:18Z</time>
      </trkpt>
      <trkpt lat="46.38687" lon="5.86718">
        <ele>431</ele>
        <time>2021-10-17T08:56:19Z</time>
      </trkpt>
      <trkpt lat="46.38683" lon="5.86718">
        <ele>430.6</ele>
        <time>2021-10-17T08:56:20Z</time>
      </trkpt>
      <trkpt lat="46.38679" lon="5.86717">
        <ele>430.4</ele>
        <time>2021-10-17T08:56:21Z</time>
      </trkpt>
      <trkpt lat="46.38673" lon="5.86718">
        <ele>430.2</ele>
        <time>2021-10-17T08:56:22Z</time>
      </trkpt>
      <trkpt lat="46.38668" lon="5.8672">
        <ele>429.8</ele>
        <time>2021-10-17T08:56:23Z</time>
      </trkpt>
      <trkpt lat="46.38662" lon="5.86725">
        <ele>429.8</ele>
        <time>2021-10-17T08:56:24Z</time>
      </trkpt>
      <trkpt lat="46.38657" lon="5.86731">
        <ele>429.6</ele>
        <time>2021-10-17T08:56:25Z</time>
      </trkpt>
      <trkpt lat="46.38653" lon="5.86737">
        <ele>429.6</ele>
        <time>2021-10-17T08:56:26Z</time>
      </trkpt>
      <trkpt lat="46.38649" lon="5.86745">
        <ele>429.6</ele>
        <time>2021-10-17T08:56:27Z</time>
      </trkpt>
      <trkpt lat="46.38645" lon="5.86751">
        <ele>429.6</ele>
        <time>2021-10-17T08:56:28Z</time>
      </trkpt>
      <trkpt lat="46.3864" lon="5.86758">
        <ele>429.6</ele>
        <time>2021-10-17T08:56:29Z</time>
      </trkpt>
      <trkpt lat="46.38636" lon="5.86764">
        <ele>429.6</ele>
        <time>2021-10-17T08:56:30Z</time>
      </trkpt>
      <trkpt lat="46.38632" lon="5.8677">
        <ele>429.6</ele>
        <time>2021-10-17T08:56:31Z</time>
      </trkpt>
      <trkpt lat="46.38627" lon="5.86774">
        <ele>429.6</ele>
        <time>2021-10-17T08:56:32Z</time>
      </trkpt>
      <trkpt lat="46.38623" lon="5.86779">
        <ele>429.6</ele>
        <time>2021-10-17T08:56:33Z</time>
      </trkpt>
      <trkpt lat="46.38618" lon="5.86783">
        <ele>429.6</ele>
        <time>2021-10-17T08:56:34Z</time>
      </trkpt>
      <trkpt lat="46.38614" lon="5.86788">
        <ele>429.6</ele>
        <time>2021-10-17T08:56:35Z</time>
      </trkpt>
      <trkpt lat="46.38609" lon="5.86793">
        <ele>429.6</ele>
        <time>2021-10-17T08:56:36Z</time>
      </trkpt>
      <trkpt lat="46.38604" lon="5.86798">
        <ele>429.6</ele>
        <time>2021-10-17T08:56:37Z</time>
      </trkpt>
      <trkpt lat="46.38599" lon="5.86802">
        <ele>429.6</ele>
        <time>2021-10-17T08:56:38Z</time>
      </trkpt>
      <trkpt lat="46.38593" lon="5.86807">
        <ele>429.6</ele>
        <time>2021-10-17T08:56:39Z</time>
      </trkpt>
      <trkpt lat="46.38588" lon="5.86811">
        <ele>429.6</ele>
        <time>2021-10-17T08:56:40Z</time>
      </trkpt>
      <trkpt lat="46.38583" lon="5.86815">
        <ele>429.6</ele>
        <time>2021-10-17T08:56:41Z</time>
      </trkpt>
      <trkpt lat="46.38579" lon="5.86819">
        <ele>429.6</ele>
        <time>2021-10-17T08:56:42Z</time>
      </trkpt>
      <trkpt lat="46.38574" lon="5.86823">
        <ele>429.8</ele>
        <time>2021-10-17T08:56:43Z</time>
      </trkpt>
      <trkpt lat="46.38569" lon="5.86827">
        <ele>429.8</ele>
        <time>2021-10-17T08:56:44Z</time>
      </trkpt>
      <trkpt lat="46.38564" lon="5.86831">
        <ele>429.8</ele>
        <time>2021-10-17T08:56:45Z</time>
      </trkpt>
      <trkpt lat="46.38559" lon="5.86836">
        <ele>429.8</ele>
        <time>2021-10-17T08:56:46Z</time>
      </trkpt>
      <trkpt lat="46.38553" lon="5.86841">
        <ele>429.8</ele>
        <time>2021-10-17T08:56:47Z</time>
      </trkpt>
      <trkpt lat="46.38549" lon="5.86847">
        <ele>429.8</ele>
        <time>2021-10-17T08:56:48Z</time>
      </trkpt>
      <trkpt lat="46.38545" lon="5.86854">
        <ele>430.2</ele>
        <time>2021-10-17T08:56:49Z</time>
      </trkpt>
      <trkpt lat="46.38541" lon="5.86861">
        <ele>430.2</ele>
        <time>2021-10-17T08:56:50Z</time>
      </trkpt>
      <trkpt lat="46.38537" lon="5.86869">
        <ele>430.2</ele>
        <time>2021-10-17T08:56:51Z</time>
      </trkpt>
      <trkpt lat="46.38533" lon="5.86876">
        <ele>430.2</ele>
        <time>2021-10-17T08:56:52Z</time>
      </trkpt>
      <trkpt lat="46.38528" lon="5.86883">
        <ele>430.2</ele>
        <time>2021-10-17T08:56:53Z</time>
      </trkpt>
      <trkpt lat="46.38524" lon="5.8689">
        <ele>430.2</ele>
        <time>2021-10-17T08:56:54Z</time>
      </trkpt>
      <trkpt lat="46.38519" lon="5.86896">
        <ele>430.2</ele>
        <time>2021-10-17T08:56:55Z</time>
      </trkpt>
      <trkpt lat="46.38514" lon="5.86902">
        <ele>430.2</ele>
        <time>2021-10-17T08:56:56Z</time>
      </trkpt>
      <trkpt lat="46.38508" lon="5.86907">
        <ele>430.2</ele>
        <time>2021-10-17T08:56:57Z</time>
      </trkpt>
      <trkpt lat="46.38503" lon="5.86912">
        <ele>430.2</ele>
        <time>2021-10-17T08:56:58Z</time>
      </trkpt>
      <trkpt lat="46.38498" lon="5.86918">
        <ele>430.2</ele>
        <time>2021-10-17T08:56:59Z</time>
      </trkpt>
      <trkpt lat="46.38493" lon="5.86922">
        <ele>430.4</ele>
        <time>2021-10-17T08:57:00Z</time>
      </trkpt>
      <trkpt lat="46.38488" lon="5.86927">
        <ele>430.4</ele>
        <time>2021-10-17T08:57:01Z</time>
      </trkpt>
      <trkpt lat="46.38483" lon="5.86932">
        <ele>430.4</ele>
        <time>2021-10-17T08:57:02Z</time>
      </trkpt>
      <trkpt lat="46.38479" lon="5.86937">
        <ele>430.4</ele>
        <time>2021-10-17T08:57:03Z</time>
      </trkpt>
      <trkpt lat="46.38474" lon="5.86944">
        <ele>430.4</ele>
        <time>2021-10-17T08:57:04Z</time>
      </trkpt>
      <trkpt lat="46.3847" lon="5.8695">
        <ele>430.6</ele>
        <time>2021-10-17T08:57:05Z</time>
      </trkpt>
      <trkpt lat="46.38466" lon="5.86956">
        <ele>430.6</ele>
        <time>2021-10-17T08:57:06Z</time>
      </trkpt>
      <trkpt lat="46.38462" lon="5.86962">
        <ele>430.6</ele>
        <time>2021-10-17T08:57:07Z</time>
      </trkpt>
      <trkpt lat="46.38458" lon="5.86969">
        <ele>430.6</ele>
        <time>2021-10-17T08:57:08Z</time>
      </trkpt>
      <trkpt lat="46.38454" lon="5.86975">
        <ele>430.6</ele>
        <time>2021-10-17T08:57:09Z</time>
      </trkpt>
      <trkpt lat="46.3845" lon="5.86981">
        <ele>430.6</ele>
        <time>2021-10-17T08:57:10Z</time>
      </trkpt>
      <trkpt lat="46.38445" lon="5.86987">
        <ele>430.6</ele>
        <time>2021-10-17T08:57:11Z</time>
      </trkpt>
      <trkpt lat="46.38441" lon="5.86993">
        <ele>430.6</ele>
        <time>2021-10-17T08:57:12Z</time>
      </trkpt>
      <trkpt lat="46.38436" lon="5.86998">
        <ele>430.6</ele>
        <time>2021-10-17T08:57:13Z</time>
      </trkpt>
      <trkpt lat="46.38431" lon="5.87003">
        <ele>430.6</ele>
        <time>2021-10-17T08:57:14Z</time>
      </trkpt>
      <trkpt lat="46.38425" lon="5.87007">
        <ele>430.6</ele>
        <time>2021-10-17T08:57:15Z</time>
      </trkpt>
      <trkpt lat="46.38419" lon="5.87012">
        <ele>430.8</ele>
        <time>2021-10-17T08:57:16Z</time>
      </trkpt>
      <trkpt lat="46.38413" lon="5.87016">
        <ele>430.8</ele>
        <time>2021-10-17T08:57:17Z</time>
      </trkpt>
      <trkpt lat="46.38407" lon="5.87019">
        <ele>430.8</ele>
        <time>2021-10-17T08:57:18Z</time>
      </trkpt>
      <trkpt lat="46.38401" lon="5.87022">
        <ele>430.8</ele>
        <time>2021-10-17T08:57:19Z</time>
      </trkpt>
      <trkpt lat="46.38396" lon="5.87025">
        <ele>430.8</ele>
        <time>2021-10-17T08:57:20Z</time>
      </trkpt>
      <trkpt lat="46.38389" lon="5.87028">
        <ele>430.8</ele>
        <time>2021-10-17T08:57:21Z</time>
      </trkpt>
      <trkpt lat="46.38384" lon="5.87031">
        <ele>430.8</ele>
        <time>2021-10-17T08:57:22Z</time>
      </trkpt>
      <trkpt lat="46.38378" lon="5.87034">
        <ele>430.8</ele>
        <time>2021-10-17T08:57:23Z</time>
      </trkpt>
      <trkpt lat="46.38372" lon="5.87036">
        <ele>431</ele>
        <time>2021-10-17T08:57:24Z</time>
      </trkpt>
      <trkpt lat="46.38367" lon="5.87038">
        <ele>431</ele>
        <time>2021-10-17T08:57:25Z</time>
      </trkpt>
      <trkpt lat="46.38362" lon="5.87039">
        <ele>431.2</ele>
        <time>2021-10-17T08:57:26Z</time>
      </trkpt>
      <trkpt lat="46.38357" lon="5.87039">
        <ele>431.2</ele>
        <time>2021-10-17T08:57:27Z</time>
      </trkpt>
      <trkpt lat="46.38352" lon="5.87039">
        <ele>431.2</ele>
        <time>2021-10-17T08:57:28Z</time>
      </trkpt>
      <trkpt lat="46.38347" lon="5.87037">
        <ele>431.4</ele>
        <time>2021-10-17T08:57:29Z</time>
      </trkpt>
      <trkpt lat="46.38341" lon="5.87035">
        <ele>431.4</ele>
        <time>2021-10-17T08:57:30Z</time>
      </trkpt>
      <trkpt lat="46.38336" lon="5.87031">
        <ele>431.4</ele>
        <time>2021-10-17T08:57:31Z</time>
      </trkpt>
      <trkpt lat="46.38331" lon="5.87028">
        <ele>431.4</ele>
        <time>2021-10-17T08:57:32Z</time>
      </trkpt>
      <trkpt lat="46.38325" lon="5.87025">
        <ele>431.4</ele>
        <time>2021-10-17T08:57:33Z</time>
      </trkpt>
      <trkpt lat="46.3832" lon="5.87021">
        <ele>431</ele>
        <time>2021-10-17T08:57:34Z</time>
      </trkpt>
      <trkpt lat="46.38314" lon="5.87018">
        <ele>431</ele>
        <time>2021-10-17T08:57:35Z</time>
      </trkpt>
      <trkpt lat="46.38309" lon="5.87014">
        <ele>430.8</ele>
        <time>2021-10-17T08:57:36Z</time>
      </trkpt>
      <trkpt lat="46.38304" lon="5.87011">
        <ele>430.8</ele>
        <time>2021-10-17T08:57:37Z</time>
      </trkpt>
      <trkpt lat="46.38298" lon="5.87007">
        <ele>430.8</ele>
        <time>2021-10-17T08:57:38Z</time>
      </trkpt>
      <trkpt lat="46.38292" lon="5.87005">
        <ele>430.6</ele>
        <time>2021-10-17T08:57:39Z</time>
      </trkpt>
      <trkpt lat="46.38286" lon="5.87005">
        <ele>430.6</ele>
        <time>2021-10-17T08:57:40Z</time>
      </trkpt>
      <trkpt lat="46.38281" lon="5.87007">
        <ele>430.6</ele>
        <time>2021-10-17T08:57:41Z</time>
      </trkpt>
      <trkpt lat="46.38276" lon="5.87009">
        <ele>430.2</ele>
        <time>2021-10-17T08:57:42Z</time>
      </trkpt>
      <trkpt lat="46.38271" lon="5.87013">
        <ele>430.2</ele>
        <time>2021-10-17T08:57:43Z</time>
      </trkpt>
      <trkpt lat="46.38266" lon="5.87018">
        <ele>430.2</ele>
        <time>2021-10-17T08:57:44Z</time>
      </trkpt>
      <trkpt lat="46.38262" lon="5.87024">
        <ele>430.2</ele>
        <time>2021-10-17T08:57:45Z</time>
      </trkpt>
      <trkpt lat="46.38258" lon="5.87029">
        <ele>430.2</ele>
        <time>2021-10-17T08:57:46Z</time>
      </trkpt>
      <trkpt lat="46.38253" lon="5.87034">
        <ele>430</ele>
        <time>2021-10-17T08:57:47Z</time>
      </trkpt>
      <trkpt lat="46.38249" lon="5.87039">
        <ele>430</ele>
        <time>2021-10-17T08:57:48Z</time>
      </trkpt>
      <trkpt lat="46.38244" lon="5.87045">
        <ele>430</ele>
        <time>2021-10-17T08:57:49Z</time>
      </trkpt>
      <trkpt lat="46.3824" lon="5.87051">
        <ele>430</ele>
        <time>2021-10-17T08:57:50Z</time>
      </trkpt>
      <trkpt lat="46.38237" lon="5.87057">
        <ele>430</ele>
        <time>2021-10-17T08:57:51Z</time>
      </trkpt>
      <trkpt lat="46.38233" lon="5.87064">
        <ele>430</ele>
        <time>2021-10-17T08:57:52Z</time>
      </trkpt>
      <trkpt lat="46.3823" lon="5.8707">
        <ele>430</ele>
        <time>2021-10-17T08:57:53Z</time>
      </trkpt>
      <trkpt lat="46.38227" lon="5.87076">
        <ele>430</ele>
        <time>2021-10-17T08:57:54Z</time>
      </trkpt>
      <trkpt lat="46.38224" lon="5.87082">
        <ele>430</ele>
        <time>2021-10-17T08:57:55Z</time>
      </trkpt>
      <trkpt lat="46.38221" lon="5.87088">
        <ele>430.4</ele>
        <time>2021-10-17T08:57:56Z</time>
      </trkpt>
      <trkpt lat="46.38219" lon="5.87094">
        <ele>430.4</ele>
        <time>2021-10-17T08:57:57Z</time>
      </trkpt>
      <trkpt lat="46.38216" lon="5.87101">
        <ele>430.4</ele>
        <time>2021-10-17T08:57:58Z</time>
      </trkpt>
      <trkpt lat="46.38214" lon="5.87107">
        <ele>430.8</ele>
        <time>2021-10-17T08:57:59Z</time>
      </trkpt>
      <trkpt lat="46.38212" lon="5.87114">
        <ele>430.8</ele>
        <time>2021-10-17T08:58:00Z</time>
      </trkpt>
      <trkpt lat="46.38209" lon="5.8712">
        <ele>430.8</ele>
        <time>2021-10-17T08:58:01Z</time>
      </trkpt>
      <trkpt lat="46.38206" lon="5.87127">
        <ele>431</ele>
        <time>2021-10-17T08:58:02Z</time>
      </trkpt>
      <trkpt lat="46.38201" lon="5.87133">
        <ele>431</ele>
        <time>2021-10-17T08:58:03Z</time>
      </trkpt>
      <trkpt lat="46.38198" lon="5.8714">
        <ele>431</ele>
        <time>2021-10-17T08:58:04Z</time>
      </trkpt>
      <trkpt lat="46.38194" lon="5.87147">
        <ele>431</ele>
        <time>2021-10-17T08:58:05Z</time>
      </trkpt>
      <trkpt lat="46.38191" lon="5.87155">
        <ele>431.2</ele>
        <time>2021-10-17T08:58:06Z</time>
      </trkpt>
      <trkpt lat="46.38188" lon="5.87164">
        <ele>431.2</ele>
        <time>2021-10-17T08:58:07Z</time>
      </trkpt>
      <trkpt lat="46.38184" lon="5.87172">
        <ele>431.2</ele>
        <time>2021-10-17T08:58:08Z</time>
      </trkpt>
      <trkpt lat="46.3818" lon="5.87179">
        <ele>431.2</ele>
        <time>2021-10-17T08:58:09Z</time>
      </trkpt>
      <trkpt lat="46.38177" lon="5.87187">
        <ele>431</ele>
        <time>2021-10-17T08:58:10Z</time>
      </trkpt>
      <trkpt lat="46.38173" lon="5.87195">
        <ele>431</ele>
        <time>2021-10-17T08:58:11Z</time>
      </trkpt>
      <trkpt lat="46.38169" lon="5.87202">
        <ele>431</ele>
        <time>2021-10-17T08:58:12Z</time>
      </trkpt>
      <trkpt lat="46.38165" lon="5.8721">
        <ele>431</ele>
        <time>2021-10-17T08:58:13Z</time>
      </trkpt>
      <trkpt lat="46.38162" lon="5.87217">
        <ele>431</ele>
        <time>2021-10-17T08:58:14Z</time>
      </trkpt>
      <trkpt lat="46.38159" lon="5.87226">
        <ele>431</ele>
        <time>2021-10-17T08:58:15Z</time>
      </trkpt>
      <trkpt lat="46.38155" lon="5.87233">
        <ele>431</ele>
        <time>2021-10-17T08:58:16Z</time>
      </trkpt>
      <trkpt lat="46.38151" lon="5.87241">
        <ele>431</ele>
        <time>2021-10-17T08:58:17Z</time>
      </trkpt>
      <trkpt lat="46.38147" lon="5.87248">
        <ele>431</ele>
        <time>2021-10-17T08:58:18Z</time>
      </trkpt>
      <trkpt lat="46.38143" lon="5.87255">
        <ele>431</ele>
        <time>2021-10-17T08:58:19Z</time>
      </trkpt>
      <trkpt lat="46.3814" lon="5.87262">
        <ele>430.8</ele>
        <time>2021-10-17T08:58:20Z</time>
      </trkpt>
      <trkpt lat="46.38136" lon="5.87269">
        <ele>430.8</ele>
        <time>2021-10-17T08:58:21Z</time>
      </trkpt>
      <trkpt lat="46.38132" lon="5.87276">
        <ele>430.8</ele>
        <time>2021-10-17T08:58:22Z</time>
      </trkpt>
      <trkpt lat="46.38128" lon="5.87283">
        <ele>430.8</ele>
        <time>2021-10-17T08:58:23Z</time>
      </trkpt>
      <trkpt lat="46.38124" lon="5.8729">
        <ele>430.8</ele>
        <time>2021-10-17T08:58:24Z</time>
      </trkpt>
      <trkpt lat="46.3812" lon="5.87297">
        <ele>430.8</ele>
        <time>2021-10-17T08:58:25Z</time>
      </trkpt>
      <trkpt lat="46.38116" lon="5.87304">
        <ele>430.8</ele>
        <time>2021-10-17T08:58:26Z</time>
      </trkpt>
      <trkpt lat="46.38111" lon="5.87311">
        <ele>430.8</ele>
        <time>2021-10-17T08:58:27Z</time>
      </trkpt>
      <trkpt lat="46.38107" lon="5.87318">
        <ele>430.8</ele>
        <time>2021-10-17T08:58:28Z</time>
      </trkpt>
      <trkpt lat="46.38103" lon="5.87326">
        <ele>430.8</ele>
        <time>2021-10-17T08:58:29Z</time>
      </trkpt>
      <trkpt lat="46.38099" lon="5.87334">
        <ele>430.8</ele>
        <time>2021-10-17T08:58:30Z</time>
      </trkpt>
      <trkpt lat="46.38095" lon="5.87341">
        <ele>430.8</ele>
        <time>2021-10-17T08:58:31Z</time>
      </trkpt>
      <trkpt lat="46.38091" lon="5.87349">
        <ele>430.8</ele>
        <time>2021-10-17T08:58:32Z</time>
      </trkpt>
      <trkpt lat="46.38086" lon="5.87356">
        <ele>430.8</ele>
        <time>2021-10-17T08:58:33Z</time>
      </trkpt>
      <trkpt lat="46.38082" lon="5.87364">
        <ele>431</ele>
        <time>2021-10-17T08:58:34Z</time>
      </trkpt>
      <trkpt lat="46.38078" lon="5.87372">
        <ele>431</ele>
        <time>2021-10-17T08:58:35Z</time>
      </trkpt>
      <trkpt lat="46.38075" lon="5.87381">
        <ele>431</ele>
        <time>2021-10-17T08:58:36Z</time>
      </trkpt>
      <trkpt lat="46.38071" lon="5.87389">
        <ele>431</ele>
        <time>2021-10-17T08:58:37Z</time>
      </trkpt>
      <trkpt lat="46.38067" lon="5.87397">
        <ele>431</ele>
        <time>2021-10-17T08:58:38Z</time>
      </trkpt>
      <trkpt lat="46.38063" lon="5.87406">
        <ele>431.4</ele>
        <time>2021-10-17T08:58:39Z</time>
      </trkpt>
      <trkpt lat="46.38059" lon="5.87414">
        <ele>431.4</ele>
        <time>2021-10-17T08:58:40Z</time>
      </trkpt>
      <trkpt lat="46.38055" lon="5.87422">
        <ele>431.4</ele>
        <time>2021-10-17T08:58:41Z</time>
      </trkpt>
      <trkpt lat="46.38051" lon="5.8743">
        <ele>431.4</ele>
        <time>2021-10-17T08:58:42Z</time>
      </trkpt>
      <trkpt lat="46.38047" lon="5.87438">
        <ele>431.4</ele>
        <time>2021-10-17T08:58:43Z</time>
      </trkpt>
      <trkpt lat="46.38042" lon="5.87445">
        <ele>431.4</ele>
        <time>2021-10-17T08:58:44Z</time>
      </trkpt>
      <trkpt lat="46.38037" lon="5.87452">
        <ele>431.4</ele>
        <time>2021-10-17T08:58:45Z</time>
      </trkpt>
      <trkpt lat="46.38031" lon="5.87458">
        <ele>431.4</ele>
        <time>2021-10-17T08:58:46Z</time>
      </trkpt>
      <trkpt lat="46.38026" lon="5.87464">
        <ele>431.4</ele>
        <time>2021-10-17T08:58:47Z</time>
      </trkpt>
      <trkpt lat="46.3802" lon="5.87468">
        <ele>431.4</ele>
        <time>2021-10-17T08:58:48Z</time>
      </trkpt>
      <trkpt lat="46.38013" lon="5.87471">
        <ele>431.4</ele>
        <time>2021-10-17T08:58:49Z</time>
      </trkpt>
      <trkpt lat="46.38006" lon="5.87475">
        <ele>431.4</ele>
        <time>2021-10-17T08:58:50Z</time>
      </trkpt>
      <trkpt lat="46.37999" lon="5.87476">
        <ele>431.4</ele>
        <time>2021-10-17T08:58:51Z</time>
      </trkpt>
      <trkpt lat="46.37992" lon="5.87477">
        <ele>431.4</ele>
        <time>2021-10-17T08:58:52Z</time>
      </trkpt>
      <trkpt lat="46.37985" lon="5.87478">
        <ele>431.4</ele>
        <time>2021-10-17T08:58:53Z</time>
      </trkpt>
      <trkpt lat="46.37979" lon="5.87478">
        <ele>431.4</ele>
        <time>2021-10-17T08:58:54Z</time>
      </trkpt>
      <trkpt lat="46.37972" lon="5.87478">
        <ele>431.4</ele>
        <time>2021-10-17T08:58:55Z</time>
      </trkpt>
      <trkpt lat="46.37965" lon="5.87477">
        <ele>431.4</ele>
        <time>2021-10-17T08:58:56Z</time>
      </trkpt>
      <trkpt lat="46.37958" lon="5.87476">
        <ele>431.4</ele>
        <time>2021-10-17T08:58:57Z</time>
      </trkpt>
      <trkpt lat="46.37951" lon="5.87473">
        <ele>431.4</ele>
        <time>2021-10-17T08:58:58Z</time>
      </trkpt>
      <trkpt lat="46.37944" lon="5.8747">
        <ele>431.4</ele>
        <time>2021-10-17T08:58:59Z</time>
      </trkpt>
      <trkpt lat="46.37938" lon="5.87466">
        <ele>431</ele>
        <time>2021-10-17T08:59:00Z</time>
      </trkpt>
      <trkpt lat="46.37931" lon="5.87462">
        <ele>431</ele>
        <time>2021-10-17T08:59:01Z</time>
      </trkpt>
      <trkpt lat="46.37925" lon="5.87457">
        <ele>431</ele>
        <time>2021-10-17T08:59:02Z</time>
      </trkpt>
      <trkpt lat="46.37918" lon="5.87453">
        <ele>430.8</ele>
        <time>2021-10-17T08:59:03Z</time>
      </trkpt>
      <trkpt lat="46.37912" lon="5.87449">
        <ele>430.8</ele>
        <time>2021-10-17T08:59:04Z</time>
      </trkpt>
      <trkpt lat="46.37905" lon="5.87447">
        <ele>430.8</ele>
        <time>2021-10-17T08:59:05Z</time>
      </trkpt>
      <trkpt lat="46.37898" lon="5.87445">
        <ele>430.6</ele>
        <time>2021-10-17T08:59:06Z</time>
      </trkpt>
      <trkpt lat="46.37891" lon="5.87444">
        <ele>430.6</ele>
        <time>2021-10-17T08:59:07Z</time>
      </trkpt>
      <trkpt lat="46.37883" lon="5.87443">
        <ele>430.2</ele>
        <time>2021-10-17T08:59:08Z</time>
      </trkpt>
      <trkpt lat="46.37875" lon="5.87442">
        <ele>430</ele>
        <time>2021-10-17T08:59:09Z</time>
      </trkpt>
      <trkpt lat="46.37867" lon="5.8744">
        <ele>429.8</ele>
        <time>2021-10-17T08:59:10Z</time>
      </trkpt>
      <trkpt lat="46.37858" lon="5.87437">
        <ele>429.4</ele>
        <time>2021-10-17T08:59:11Z</time>
      </trkpt>
      <trkpt lat="46.3785" lon="5.87433">
        <ele>429.2</ele>
        <time>2021-10-17T08:59:12Z</time>
      </trkpt>
      <trkpt lat="46.37842" lon="5.87428">
        <ele>428.8</ele>
        <time>2021-10-17T08:59:13Z</time>
      </trkpt>
      <trkpt lat="46.37834" lon="5.87422">
        <ele>428.6</ele>
        <time>2021-10-17T08:59:14Z</time>
      </trkpt>
      <trkpt lat="46.37827" lon="5.87417">
        <ele>428.2</ele>
        <time>2021-10-17T08:59:15Z</time>
      </trkpt>
      <trkpt lat="46.37819" lon="5.87411">
        <ele>428</ele>
        <time>2021-10-17T08:59:16Z</time>
      </trkpt>
      <trkpt lat="46.37811" lon="5.87405">
        <ele>427.6</ele>
        <time>2021-10-17T08:59:17Z</time>
      </trkpt>
      <trkpt lat="46.37803" lon="5.87399">
        <ele>427.4</ele>
        <time>2021-10-17T08:59:18Z</time>
      </trkpt>
      <trkpt lat="46.37795" lon="5.87392">
        <ele>427</ele>
        <time>2021-10-17T08:59:19Z</time>
      </trkpt>
      <trkpt lat="46.37787" lon="5.87386">
        <ele>426.6</ele>
        <time>2021-10-17T08:59:20Z</time>
      </trkpt>
      <trkpt lat="46.3778" lon="5.87378">
        <ele>426.2</ele>
        <time>2021-10-17T08:59:21Z</time>
      </trkpt>
      <trkpt lat="46.37773" lon="5.8737">
        <ele>425.8</ele>
        <time>2021-10-17T08:59:22Z</time>
      </trkpt>
      <trkpt lat="46.37767" lon="5.8736">
        <ele>425.6</ele>
        <time>2021-10-17T08:59:23Z</time>
      </trkpt>
      <trkpt lat="46.37761" lon="5.87351">
        <ele>425.2</ele>
        <time>2021-10-17T08:59:24Z</time>
      </trkpt>
      <trkpt lat="46.37755" lon="5.87341">
        <ele>425</ele>
        <time>2021-10-17T08:59:25Z</time>
      </trkpt>
      <trkpt lat="46.3775" lon="5.8733">
        <ele>424.6</ele>
        <time>2021-10-17T08:59:26Z</time>
      </trkpt>
      <trkpt lat="46.37745" lon="5.8732">
        <ele>424.4</ele>
        <time>2021-10-17T08:59:27Z</time>
      </trkpt>
      <trkpt lat="46.37741" lon="5.87311">
        <ele>424</ele>
        <time>2021-10-17T08:59:28Z</time>
      </trkpt>
      <trkpt lat="46.37737" lon="5.87303">
        <ele>424</ele>
        <time>2021-10-17T08:59:29Z</time>
      </trkpt>
      <trkpt lat="46.37734" lon="5.87295">
        <ele>423.6</ele>
        <time>2021-10-17T08:59:30Z</time>
      </trkpt>
      <trkpt lat="46.37731" lon="5.87289">
        <ele>423.6</ele>
        <time>2021-10-17T08:59:31Z</time>
      </trkpt>
      <trkpt lat="46.37728" lon="5.87282">
        <ele>423.2</ele>
        <time>2021-10-17T08:59:32Z</time>
      </trkpt>
      <trkpt lat="46.37725" lon="5.87276">
        <ele>423</ele>
        <time>2021-10-17T08:59:33Z</time>
      </trkpt>
      <trkpt lat="46.37722" lon="5.8727">
        <ele>423</ele>
        <time>2021-10-17T08:59:34Z</time>
      </trkpt>
      <trkpt lat="46.3772" lon="5.87265">
        <ele>422.6</ele>
        <time>2021-10-17T08:59:35Z</time>
      </trkpt>
      <trkpt lat="46.37718" lon="5.8726">
        <ele>422.6</ele>
        <time>2021-10-17T08:59:36Z</time>
      </trkpt>
      <trkpt lat="46.37716" lon="5.87255">
        <ele>422.4</ele>
        <time>2021-10-17T08:59:37Z</time>
      </trkpt>
      <trkpt lat="46.37714" lon="5.87249">
        <ele>422.4</ele>
        <time>2021-10-17T08:59:38Z</time>
      </trkpt>
      <trkpt lat="46.37711" lon="5.87242">
        <ele>422.4</ele>
        <time>2021-10-17T08:59:39Z</time>
      </trkpt>
      <trkpt lat="46.3771" lon="5.87235">
        <ele>422.2</ele>
        <time>2021-10-17T08:59:40Z</time>
      </trkpt>
      <trkpt lat="46.37708" lon="5.87226">
        <ele>422.2</ele>
        <time>2021-10-17T08:59:41Z</time>
      </trkpt>
      <trkpt lat="46.37707" lon="5.87217">
        <ele>421.8</ele>
        <time>2021-10-17T08:59:42Z</time>
      </trkpt>
      <trkpt lat="46.37706" lon="5.87208">
        <ele>421.8</ele>
        <time>2021-10-17T08:59:43Z</time>
      </trkpt>
      <trkpt lat="46.37705" lon="5.87198">
        <ele>421.8</ele>
        <time>2021-10-17T08:59:44Z</time>
      </trkpt>
      <trkpt lat="46.37703" lon="5.87189">
        <ele>421.8</ele>
        <time>2021-10-17T08:59:45Z</time>
      </trkpt>
      <trkpt lat="46.37701" lon="5.8718">
        <ele>421.8</ele>
        <time>2021-10-17T08:59:46Z</time>
      </trkpt>
      <trkpt lat="46.37699" lon="5.87171">
        <ele>421.8</ele>
        <time>2021-10-17T08:59:47Z</time>
      </trkpt>
      <trkpt lat="46.37697" lon="5.87163">
        <ele>421.8</ele>
        <time>2021-10-17T08:59:48Z</time>
      </trkpt>
      <trkpt lat="46.37693" lon="5.87155">
        <ele>421.8</ele>
        <time>2021-10-17T08:59:49Z</time>
      </trkpt>
      <trkpt lat="46.37689" lon="5.87148">
        <ele>421.8</ele>
        <time>2021-10-17T08:59:50Z</time>
      </trkpt>
      <trkpt lat="46.37683" lon="5.87141">
        <ele>421.8</ele>
        <time>2021-10-17T08:59:51Z</time>
      </trkpt>
      <trkpt lat="46.37678" lon="5.87134">
        <ele>421.6</ele>
        <time>2021-10-17T08:59:52Z</time>
      </trkpt>
      <trkpt lat="46.37673" lon="5.87128">
        <ele>421.6</ele>
        <time>2021-10-17T08:59:53Z</time>
      </trkpt>
      <trkpt lat="46.37667" lon="5.87121">
        <ele>421.6</ele>
        <time>2021-10-17T08:59:54Z</time>
      </trkpt>
      <trkpt lat="46.37662" lon="5.87115">
        <ele>421.6</ele>
        <time>2021-10-17T08:59:55Z</time>
      </trkpt>
      <trkpt lat="46.37657" lon="5.87109">
        <ele>421.6</ele>
        <time>2021-10-17T08:59:56Z</time>
      </trkpt>
      <trkpt lat="46.37653" lon="5.87103">
        <ele>421.6</ele>
        <time>2021-10-17T08:59:57Z</time>
      </trkpt>
      <trkpt lat="46.37648" lon="5.87097">
        <ele>421.6</ele>
        <time>2021-10-17T08:59:58Z</time>
      </trkpt>
      <trkpt lat="46.37643" lon="5.87091">
        <ele>421.6</ele>
        <time>2021-10-17T08:59:59Z</time>
      </trkpt>
      <trkpt lat="46.37637" lon="5.87083">
        <ele>421.6</ele>
        <time>2021-10-17T09:00:00Z</time>
      </trkpt>
      <trkpt lat="46.37632" lon="5.87078">
        <ele>421.6</ele>
        <time>2021-10-17T09:00:01Z</time>
      </trkpt>
      <trkpt lat="46.37626" lon="5.87074">
        <ele>421.8</ele>
        <time>2021-10-17T09:00:02Z</time>
      </trkpt>
      <trkpt lat="46.3762" lon="5.87072">
        <ele>421.8</ele>
        <time>2021-10-17T09:00:03Z</time>
      </trkpt>
      <trkpt lat="46.37615" lon="5.8707">
        <ele>422.4</ele>
        <time>2021-10-17T09:00:04Z</time>
      </trkpt>
      <trkpt lat="46.3761" lon="5.87068">
        <ele>422.6</ele>
        <time>2021-10-17T09:00:05Z</time>
      </trkpt>
      <trkpt lat="46.37605" lon="5.87067">
        <ele>422.8</ele>
        <time>2021-10-17T09:00:06Z</time>
      </trkpt>
      <trkpt lat="46.37601" lon="5.87066">
        <ele>423</ele>
        <time>2021-10-17T09:00:07Z</time>
      </trkpt>
      <trkpt lat="46.37597" lon="5.87065">
        <ele>423.4</ele>
        <time>2021-10-17T09:00:08Z</time>
      </trkpt>
      <trkpt lat="46.37593" lon="5.87065">
        <ele>423.8</ele>
        <time>2021-10-17T09:00:09Z</time>
      </trkpt>
      <trkpt lat="46.37589" lon="5.87064">
        <ele>424</ele>
        <time>2021-10-17T09:00:10Z</time>
      </trkpt>
      <trkpt lat="46.37586" lon="5.87064">
        <ele>424.2</ele>
        <time>2021-10-17T09:00:11Z</time>
      </trkpt>
      <trkpt lat="46.37582" lon="5.87063">
        <ele>424.6</ele>
        <time>2021-10-17T09:00:12Z</time>
      </trkpt>
      <trkpt lat="46.37579" lon="5.87062">
        <ele>424.8</ele>
        <time>2021-10-17T09:00:13Z</time>
      </trkpt>
      <trkpt lat="46.37575" lon="5.87061">
        <ele>425</ele>
        <time>2021-10-17T09:00:14Z</time>
      </trkpt>
      <trkpt lat="46.37571" lon="5.87061">
        <ele>425.2</ele>
        <time>2021-10-17T09:00:15Z</time>
      </trkpt>
      <trkpt lat="46.37567" lon="5.87061">
        <ele>425.4</ele>
        <time>2021-10-17T09:00:16Z</time>
      </trkpt>
      <trkpt lat="46.37563" lon="5.87061">
        <ele>425.4</ele>
        <time>2021-10-17T09:00:17Z</time>
      </trkpt>
      <trkpt lat="46.3756" lon="5.87061">
        <ele>426</ele>
        <time>2021-10-17T09:00:18Z</time>
      </trkpt>
      <trkpt lat="46.37556" lon="5.87061">
        <ele>426.2</ele>
        <time>2021-10-17T09:00:19Z</time>
      </trkpt>
      <trkpt lat="46.37553" lon="5.87061">
        <ele>426.4</ele>
        <time>2021-10-17T09:00:20Z</time>
      </trkpt>
      <trkpt lat="46.37549" lon="5.8706">
        <ele>426.6</ele>
        <time>2021-10-17T09:00:21Z</time>
      </trkpt>
      <trkpt lat="46.37545" lon="5.8706">
        <ele>427</ele>
        <time>2021-10-17T09:00:22Z</time>
      </trkpt>
      <trkpt lat="46.37541" lon="5.87059">
        <ele>427.2</ele>
        <time>2021-10-17T09:00:23Z</time>
      </trkpt>
      <trkpt lat="46.37537" lon="5.87059">
        <ele>427.6</ele>
        <time>2021-10-17T09:00:24Z</time>
      </trkpt>
      <trkpt lat="46.37533" lon="5.87059">
        <ele>427.8</ele>
        <time>2021-10-17T09:00:25Z</time>
      </trkpt>
      <trkpt lat="46.37529" lon="5.87058">
        <ele>428.2</ele>
        <time>2021-10-17T09:00:26Z</time>
      </trkpt>
      <trkpt lat="46.37525" lon="5.87058">
        <ele>428.4</ele>
        <time>2021-10-17T09:00:27Z</time>
      </trkpt>
      <trkpt lat="46.37521" lon="5.87058">
        <ele>428.6</ele>
        <time>2021-10-17T09:00:28Z</time>
      </trkpt>
      <trkpt lat="46.37517" lon="5.87057">
        <ele>428.6</ele>
        <time>2021-10-17T09:00:29Z</time>
      </trkpt>
      <trkpt lat="46.37513" lon="5.87057">
        <ele>429.2</ele>
        <time>2021-10-17T09:00:30Z</time>
      </trkpt>
      <trkpt lat="46.37509" lon="5.87056">
        <ele>429.2</ele>
        <time>2021-10-17T09:00:31Z</time>
      </trkpt>
      <trkpt lat="46.37506" lon="5.87056">
        <ele>429.6</ele>
        <time>2021-10-17T09:00:32Z</time>
      </trkpt>
      <trkpt lat="46.37502" lon="5.87056">
        <ele>429.8</ele>
        <time>2021-10-17T09:00:33Z</time>
      </trkpt>
      <trkpt lat="46.37499" lon="5.87056">
        <ele>429.8</ele>
        <time>2021-10-17T09:00:34Z</time>
      </trkpt>
      <trkpt lat="46.37496" lon="5.87056">
        <ele>430</ele>
        <time>2021-10-17T09:00:35Z</time>
      </trkpt>
      <trkpt lat="46.37492" lon="5.87057">
        <ele>430.2</ele>
        <time>2021-10-17T09:00:36Z</time>
      </trkpt>
      <trkpt lat="46.37488" lon="5.87057">
        <ele>430.2</ele>
        <time>2021-10-17T09:00:37Z</time>
      </trkpt>
      <trkpt lat="46.37485" lon="5.87058">
        <ele>430.6</ele>
        <time>2021-10-17T09:00:38Z</time>
      </trkpt>
      <trkpt lat="46.37481" lon="5.87057">
        <ele>430.6</ele>
        <time>2021-10-17T09:00:39Z</time>
      </trkpt>
      <trkpt lat="46.37478" lon="5.87056">
        <ele>431</ele>
        <time>2021-10-17T09:00:40Z</time>
      </trkpt>
      <trkpt lat="46.37474" lon="5.87056">
        <ele>431.4</ele>
        <time>2021-10-17T09:00:41Z</time>
      </trkpt>
      <trkpt lat="46.37471" lon="5.87055">
        <ele>431.8</ele>
        <time>2021-10-17T09:00:42Z</time>
      </trkpt>
      <trkpt lat="46.37467" lon="5.87054">
        <ele>432</ele>
        <time>2021-10-17T09:00:43Z</time>
      </trkpt>
      <trkpt lat="46.37464" lon="5.87053">
        <ele>432.2</ele>
        <time>2021-10-17T09:00:44Z</time>
      </trkpt>
      <trkpt lat="46.37461" lon="5.87052">
        <ele>432.4</ele>
        <time>2021-10-17T09:00:45Z</time>
      </trkpt>
      <trkpt lat="46.37458" lon="5.87051">
        <ele>432.8</ele>
        <time>2021-10-17T09:00:46Z</time>
      </trkpt>
      <trkpt lat="46.37455" lon="5.87049">
        <ele>433</ele>
        <time>2021-10-17T09:00:47Z</time>
      </trkpt>
      <trkpt lat="46.37452" lon="5.87048">
        <ele>433</ele>
        <time>2021-10-17T09:00:48Z</time>
      </trkpt>
      <trkpt lat="46.37449" lon="5.87046">
        <ele>433.4</ele>
        <time>2021-10-17T09:00:49Z</time>
      </trkpt>
      <trkpt lat="46.37445" lon="5.87044">
        <ele>433.4</ele>
        <time>2021-10-17T09:00:50Z</time>
      </trkpt>
      <trkpt lat="46.37441" lon="5.87042">
        <ele>433.8</ele>
        <time>2021-10-17T09:00:51Z</time>
      </trkpt>
      <trkpt lat="46.37437" lon="5.87041">
        <ele>434</ele>
        <time>2021-10-17T09:00:52Z</time>
      </trkpt>
      <trkpt lat="46.37434" lon="5.87039">
        <ele>434.2</ele>
        <time>2021-10-17T09:00:53Z</time>
      </trkpt>
      <trkpt lat="46.37431" lon="5.87037">
        <ele>434.4</ele>
        <time>2021-10-17T09:00:54Z</time>
      </trkpt>
      <trkpt lat="46.37427" lon="5.87034">
        <ele>434.6</ele>
        <time>2021-10-17T09:00:55Z</time>
      </trkpt>
      <trkpt lat="46.37423" lon="5.87032">
        <ele>434.6</ele>
        <time>2021-10-17T09:00:56Z</time>
      </trkpt>
      <trkpt lat="46.3742" lon="5.8703">
        <ele>435</ele>
        <time>2021-10-17T09:00:57Z</time>
      </trkpt>
      <trkpt lat="46.37417" lon="5.87028">
        <ele>435.2</ele>
        <time>2021-10-17T09:00:58Z</time>
      </trkpt>
      <trkpt lat="46.37414" lon="5.87026">
        <ele>435.4</ele>
        <time>2021-10-17T09:00:59Z</time>
      </trkpt>
      <trkpt lat="46.37411" lon="5.87025">
        <ele>435.4</ele>
        <time>2021-10-17T09:01:00Z</time>
      </trkpt>
      <trkpt lat="46.37408" lon="5.87023">
        <ele>435.8</ele>
        <time>2021-10-17T09:01:01Z</time>
      </trkpt>
      <trkpt lat="46.37405" lon="5.8702">
        <ele>436</ele>
        <time>2021-10-17T09:01:02Z</time>
      </trkpt>
      <trkpt lat="46.37401" lon="5.87017">
        <ele>436</ele>
        <time>2021-10-17T09:01:03Z</time>
      </trkpt>
      <trkpt lat="46.37397" lon="5.87015">
        <ele>436.6</ele>
        <time>2021-10-17T09:01:04Z</time>
      </trkpt>
      <trkpt lat="46.37394" lon="5.87013">
        <ele>436.8</ele>
        <time>2021-10-17T09:01:05Z</time>
      </trkpt>
      <trkpt lat="46.3739" lon="5.8701">
        <ele>437</ele>
        <time>2021-10-17T09:01:06Z</time>
      </trkpt>
      <trkpt lat="46.37387" lon="5.87008">
        <ele>437.4</ele>
        <time>2021-10-17T09:01:07Z</time>
      </trkpt>
      <trkpt lat="46.37383" lon="5.87006">
        <ele>437.6</ele>
        <time>2021-10-17T09:01:08Z</time>
      </trkpt>
      <trkpt lat="46.3738" lon="5.87003">
        <ele>437.8</ele>
        <time>2021-10-17T09:01:09Z</time>
      </trkpt>
      <trkpt lat="46.37377" lon="5.87">
        <ele>437.8</ele>
        <time>2021-10-17T09:01:10Z</time>
      </trkpt>
      <trkpt lat="46.37374" lon="5.86998">
        <ele>438.2</ele>
        <time>2021-10-17T09:01:11Z</time>
      </trkpt>
      <trkpt lat="46.37371" lon="5.86995">
        <ele>438.2</ele>
        <time>2021-10-17T09:01:12Z</time>
      </trkpt>
      <trkpt lat="46.37368" lon="5.86992">
        <ele>438.6</ele>
        <time>2021-10-17T09:01:13Z</time>
      </trkpt>
      <trkpt lat="46.37364" lon="5.8699">
        <ele>438.6</ele>
        <time>2021-10-17T09:01:14Z</time>
      </trkpt>
      <trkpt lat="46.37361" lon="5.86988">
        <ele>439.2</ele>
        <time>2021-10-17T09:01:15Z</time>
      </trkpt>
      <trkpt lat="46.37358" lon="5.86986">
        <ele>439.4</ele>
        <time>2021-10-17T09:01:16Z</time>
      </trkpt>
      <trkpt lat="46.37354" lon="5.86984">
        <ele>439.8</ele>
        <time>2021-10-17T09:01:17Z</time>
      </trkpt>
      <trkpt lat="46.37351" lon="5.86983">
        <ele>440</ele>
        <time>2021-10-17T09:01:18Z</time>
      </trkpt>
      <trkpt lat="46.37347" lon="5.86981">
        <ele>440.2</ele>
        <time>2021-10-17T09:01:19Z</time>
      </trkpt>
      <trkpt lat="46.37344" lon="5.86979">
        <ele>440.6</ele>
        <time>2021-10-17T09:01:20Z</time>
      </trkpt>
      <trkpt lat="46.3734" lon="5.86978">
        <ele>440.8</ele>
        <time>2021-10-17T09:01:21Z</time>
      </trkpt>
      <trkpt lat="46.37337" lon="5.86977">
        <ele>441</ele>
        <time>2021-10-17T09:01:22Z</time>
      </trkpt>
      <trkpt lat="46.37333" lon="5.86976">
        <ele>441.2</ele>
        <time>2021-10-17T09:01:23Z</time>
      </trkpt>
      <trkpt lat="46.3733" lon="5.86975">
        <ele>441.2</ele>
        <time>2021-10-17T09:01:24Z</time>
      </trkpt>
      <trkpt lat="46.37326" lon="5.86974">
        <ele>441.6</ele>
        <time>2021-10-17T09:01:25Z</time>
      </trkpt>
      <trkpt lat="46.37323" lon="5.86972">
        <ele>441.8</ele>
        <time>2021-10-17T09:01:26Z</time>
      </trkpt>
      <trkpt lat="46.37319" lon="5.8697">
        <ele>441.8</ele>
        <time>2021-10-17T09:01:27Z</time>
      </trkpt>
      <trkpt lat="46.37315" lon="5.86968">
        <ele>442.2</ele>
        <time>2021-10-17T09:01:28Z</time>
      </trkpt>
      <trkpt lat="46.37312" lon="5.86967">
        <ele>442.2</ele>
        <time>2021-10-17T09:01:29Z</time>
      </trkpt>
      <trkpt lat="46.37308" lon="5.86965">
        <ele>442.6</ele>
        <time>2021-10-17T09:01:30Z</time>
      </trkpt>
      <trkpt lat="46.37305" lon="5.86963">
        <ele>442.8</ele>
        <time>2021-10-17T09:01:31Z</time>
      </trkpt>
      <trkpt lat="46.37302" lon="5.86961">
        <ele>443</ele>
        <time>2021-10-17T09:01:32Z</time>
      </trkpt>
      <trkpt lat="46.37299" lon="5.86959">
        <ele>443.2</ele>
        <time>2021-10-17T09:01:33Z</time>
      </trkpt>
      <trkpt lat="46.37296" lon="5.86956">
        <ele>443.6</ele>
        <time>2021-10-17T09:01:34Z</time>
      </trkpt>
      <trkpt lat="46.37293" lon="5.86954">
        <ele>443.6</ele>
        <time>2021-10-17T09:01:35Z</time>
      </trkpt>
      <trkpt lat="46.37289" lon="5.86951">
        <ele>444</ele>
        <time>2021-10-17T09:01:36Z</time>
      </trkpt>
      <trkpt lat="46.37286" lon="5.86949">
        <ele>444.2</ele>
        <time>2021-10-17T09:01:37Z</time>
      </trkpt>
      <trkpt lat="46.37283" lon="5.86946">
        <ele>444.6</ele>
        <time>2021-10-17T09:01:38Z</time>
      </trkpt>
      <trkpt lat="46.37279" lon="5.86945">
        <ele>444.8</ele>
        <time>2021-10-17T09:01:39Z</time>
      </trkpt>
      <trkpt lat="46.37276" lon="5.86942">
        <ele>445</ele>
        <time>2021-10-17T09:01:40Z</time>
      </trkpt>
      <trkpt lat="46.37272" lon="5.8694">
        <ele>445.2</ele>
        <time>2021-10-17T09:01:41Z</time>
      </trkpt>
      <trkpt lat="46.37269" lon="5.86939">
        <ele>445.6</ele>
        <time>2021-10-17T09:01:42Z</time>
      </trkpt>
      <trkpt lat="46.37265" lon="5.86937">
        <ele>445.8</ele>
        <time>2021-10-17T09:01:43Z</time>
      </trkpt>
      <trkpt lat="46.37262" lon="5.86936">
        <ele>446</ele>
        <time>2021-10-17T09:01:44Z</time>
      </trkpt>
      <trkpt lat="46.37259" lon="5.86935">
        <ele>446</ele>
        <time>2021-10-17T09:01:45Z</time>
      </trkpt>
      <trkpt lat="46.37255" lon="5.86934">
        <ele>446.4</ele>
        <time>2021-10-17T09:01:46Z</time>
      </trkpt>
      <trkpt lat="46.37252" lon="5.86932">
        <ele>446.8</ele>
        <time>2021-10-17T09:01:47Z</time>
      </trkpt>
      <trkpt lat="46.37249" lon="5.86931">
        <ele>447</ele>
        <time>2021-10-17T09:01:48Z</time>
      </trkpt>
      <trkpt lat="46.37246" lon="5.86929">
        <ele>447.2</ele>
        <time>2021-10-17T09:01:49Z</time>
      </trkpt>
      <trkpt lat="46.37242" lon="5.86927">
        <ele>447.2</ele>
        <time>2021-10-17T09:01:50Z</time>
      </trkpt>
      <trkpt lat="46.3724" lon="5.86926">
        <ele>447.6</ele>
        <time>2021-10-17T09:01:51Z</time>
      </trkpt>
      <trkpt lat="46.37237" lon="5.86924">
        <ele>447.6</ele>
        <time>2021-10-17T09:01:52Z</time>
      </trkpt>
      <trkpt lat="46.37234" lon="5.86922">
        <ele>447.8</ele>
        <time>2021-10-17T09:01:53Z</time>
      </trkpt>
      <trkpt lat="46.37231" lon="5.86921">
        <ele>447.8</ele>
        <time>2021-10-17T09:01:54Z</time>
      </trkpt>
      <trkpt lat="46.37228" lon="5.86919">
        <ele>448.4</ele>
        <time>2021-10-17T09:01:55Z</time>
      </trkpt>
      <trkpt lat="46.37225" lon="5.86917">
        <ele>448.6</ele>
        <time>2021-10-17T09:01:56Z</time>
      </trkpt>
      <trkpt lat="46.37222" lon="5.86914">
        <ele>448.8</ele>
        <time>2021-10-17T09:01:57Z</time>
      </trkpt>
      <trkpt lat="46.37219" lon="5.86911">
        <ele>449</ele>
        <time>2021-10-17T09:01:58Z</time>
      </trkpt>
      <trkpt lat="46.37216" lon="5.86909">
        <ele>449</ele>
        <time>2021-10-17T09:01:59Z</time>
      </trkpt>
      <trkpt lat="46.37213" lon="5.86907">
        <ele>449.4</ele>
        <time>2021-10-17T09:02:00Z</time>
      </trkpt>
      <trkpt lat="46.3721" lon="5.86905">
        <ele>449.8</ele>
        <time>2021-10-17T09:02:01Z</time>
      </trkpt>
      <trkpt lat="46.37206" lon="5.86902">
        <ele>449.8</ele>
        <time>2021-10-17T09:02:02Z</time>
      </trkpt>
      <trkpt lat="46.37203" lon="5.86901">
        <ele>450</ele>
        <time>2021-10-17T09:02:03Z</time>
      </trkpt>
      <trkpt lat="46.37199" lon="5.86899">
        <ele>450</ele>
        <time>2021-10-17T09:02:04Z</time>
      </trkpt>
      <trkpt lat="46.37196" lon="5.86897">
        <ele>450.4</ele>
        <time>2021-10-17T09:02:05Z</time>
      </trkpt>
      <trkpt lat="46.37192" lon="5.86895">
        <ele>450.4</ele>
        <time>2021-10-17T09:02:06Z</time>
      </trkpt>
      <trkpt lat="46.37189" lon="5.86893">
        <ele>451</ele>
        <time>2021-10-17T09:02:07Z</time>
      </trkpt>
      <trkpt lat="46.37186" lon="5.86891">
        <ele>451</ele>
        <time>2021-10-17T09:02:08Z</time>
      </trkpt>
      <trkpt lat="46.37182" lon="5.86889">
        <ele>451.2</ele>
        <time>2021-10-17T09:02:09Z</time>
      </trkpt>
      <trkpt lat="46.37179" lon="5.86887">
        <ele>451.4</ele>
        <time>2021-10-17T09:02:10Z</time>
      </trkpt>
      <trkpt lat="46.37176" lon="5.86886">
        <ele>451.4</ele>
        <time>2021-10-17T09:02:11Z</time>
      </trkpt>
      <trkpt lat="46.37172" lon="5.86884">
        <ele>452</ele>
        <time>2021-10-17T09:02:12Z</time>
      </trkpt>
      <trkpt lat="46.37169" lon="5.86882">
        <ele>452.2</ele>
        <time>2021-10-17T09:02:13Z</time>
      </trkpt>
      <trkpt lat="46.37166" lon="5.8688">
        <ele>452.2</ele>
        <time>2021-10-17T09:02:14Z</time>
      </trkpt>
      <trkpt lat="46.37163" lon="5.86878">
        <ele>452.4</ele>
        <time>2021-10-17T09:02:15Z</time>
      </trkpt>
      <trkpt lat="46.37159" lon="5.86876">
        <ele>452.6</ele>
        <time>2021-10-17T09:02:16Z</time>
      </trkpt>
      <trkpt lat="46.37156" lon="5.86875">
        <ele>453</ele>
        <time>2021-10-17T09:02:17Z</time>
      </trkpt>
      <trkpt lat="46.37153" lon="5.86873">
        <ele>453.2</ele>
        <time>2021-10-17T09:02:18Z</time>
      </trkpt>
      <trkpt lat="46.3715" lon="5.86871">
        <ele>453.2</ele>
        <time>2021-10-17T09:02:19Z</time>
      </trkpt>
      <trkpt lat="46.37147" lon="5.86869">
        <ele>453.6</ele>
        <time>2021-10-17T09:02:20Z</time>
      </trkpt>
      <trkpt lat="46.37144" lon="5.86868">
        <ele>453.6</ele>
        <time>2021-10-17T09:02:21Z</time>
      </trkpt>
      <trkpt lat="46.37141" lon="5.86866">
        <ele>453.8</ele>
        <time>2021-10-17T09:02:22Z</time>
      </trkpt>
      <trkpt lat="46.37138" lon="5.86865">
        <ele>453.8</ele>
        <time>2021-10-17T09:02:23Z</time>
      </trkpt>
      <trkpt lat="46.37135" lon="5.86863">
        <ele>454.2</ele>
        <time>2021-10-17T09:02:24Z</time>
      </trkpt>
      <trkpt lat="46.37132" lon="5.86862">
        <ele>454.2</ele>
        <time>2021-10-17T09:02:25Z</time>
      </trkpt>
      <trkpt lat="46.37129" lon="5.8686">
        <ele>454.6</ele>
        <time>2021-10-17T09:02:26Z</time>
      </trkpt>
      <trkpt lat="46.37125" lon="5.86858">
        <ele>454.6</ele>
        <time>2021-10-17T09:02:27Z</time>
      </trkpt>
      <trkpt lat="46.37122" lon="5.86855">
        <ele>455</ele>
        <time>2021-10-17T09:02:28Z</time>
      </trkpt>
      <trkpt lat="46.3712" lon="5.86853">
        <ele>455.2</ele>
        <time>2021-10-17T09:02:29Z</time>
      </trkpt>
      <trkpt lat="46.37117" lon="5.8685">
        <ele>455.4</ele>
        <time>2021-10-17T09:02:30Z</time>
      </trkpt>
      <trkpt lat="46.37115" lon="5.86846">
        <ele>455.6</ele>
        <time>2021-10-17T09:02:31Z</time>
      </trkpt>
      <trkpt lat="46.37113" lon="5.86843">
        <ele>456</ele>
        <time>2021-10-17T09:02:32Z</time>
      </trkpt>
      <trkpt lat="46.37111" lon="5.8684">
        <ele>456.2</ele>
        <time>2021-10-17T09:02:33Z</time>
      </trkpt>
      <trkpt lat="46.37109" lon="5.86837">
        <ele>456.6</ele>
        <time>2021-10-17T09:02:34Z</time>
      </trkpt>
      <trkpt lat="46.37106" lon="5.86833">
        <ele>456.8</ele>
        <time>2021-10-17T09:02:35Z</time>
      </trkpt>
      <trkpt lat="46.37104" lon="5.86829">
        <ele>457</ele>
        <time>2021-10-17T09:02:36Z</time>
      </trkpt>
      <trkpt lat="46.37102" lon="5.86826">
        <ele>457.2</ele>
        <time>2021-10-17T09:02:37Z</time>
      </trkpt>
      <trkpt lat="46.37099" lon="5.86822">
        <ele>457.2</ele>
        <time>2021-10-17T09:02:38Z</time>
      </trkpt>
      <trkpt lat="46.37097" lon="5.86819">
        <ele>457.6</ele>
        <time>2021-10-17T09:02:39Z</time>
      </trkpt>
      <trkpt lat="46.37095" lon="5.86816">
        <ele>457.8</ele>
        <time>2021-10-17T09:02:40Z</time>
      </trkpt>
      <trkpt lat="46.37092" lon="5.86812">
        <ele>457.8</ele>
        <time>2021-10-17T09:02:41Z</time>
      </trkpt>
      <trkpt lat="46.3709" lon="5.86809">
        <ele>457.8</ele>
        <time>2021-10-17T09:02:42Z</time>
      </trkpt>
      <trkpt lat="46.37087" lon="5.86806">
        <ele>458.2</ele>
        <time>2021-10-17T09:02:43Z</time>
      </trkpt>
      <trkpt lat="46.37085" lon="5.86802">
        <ele>458.2</ele>
        <time>2021-10-17T09:02:44Z</time>
      </trkpt>
      <trkpt lat="46.37083" lon="5.86799">
        <ele>458.6</ele>
        <time>2021-10-17T09:02:45Z</time>
      </trkpt>
      <trkpt lat="46.37081" lon="5.86796">
        <ele>458.8</ele>
        <time>2021-10-17T09:02:46Z</time>
      </trkpt>
      <trkpt lat="46.37078" lon="5.86793">
        <ele>459</ele>
        <time>2021-10-17T09:02:47Z</time>
      </trkpt>
      <trkpt lat="46.37076" lon="5.8679">
        <ele>459</ele>
        <time>2021-10-17T09:02:48Z</time>
      </trkpt>
      <trkpt lat="46.37074" lon="5.86786">
        <ele>459.4</ele>
        <time>2021-10-17T09:02:49Z</time>
      </trkpt>
      <trkpt lat="46.37071" lon="5.86783">
        <ele>459.4</ele>
        <time>2021-10-17T09:02:50Z</time>
      </trkpt>
      <trkpt lat="46.37069" lon="5.8678">
        <ele>459.8</ele>
        <time>2021-10-17T09:02:51Z</time>
      </trkpt>
      <trkpt lat="46.37067" lon="5.86777">
        <ele>460</ele>
        <time>2021-10-17T09:02:52Z</time>
      </trkpt>
      <trkpt lat="46.37065" lon="5.86774">
        <ele>460.4</ele>
        <time>2021-10-17T09:02:53Z</time>
      </trkpt>
      <trkpt lat="46.37063" lon="5.8677">
        <ele>460.6</ele>
        <time>2021-10-17T09:02:54Z</time>
      </trkpt>
      <trkpt lat="46.37061" lon="5.86767">
        <ele>460.6</ele>
        <time>2021-10-17T09:02:55Z</time>
      </trkpt>
      <trkpt lat="46.37059" lon="5.86764">
        <ele>461</ele>
        <time>2021-10-17T09:02:56Z</time>
      </trkpt>
      <trkpt lat="46.37056" lon="5.86761">
        <ele>461.2</ele>
        <time>2021-10-17T09:02:57Z</time>
      </trkpt>
      <trkpt lat="46.37054" lon="5.86758">
        <ele>461.4</ele>
        <time>2021-10-17T09:02:58Z</time>
      </trkpt>
      <trkpt lat="46.37051" lon="5.86755">
        <ele>461.6</ele>
        <time>2021-10-17T09:02:59Z</time>
      </trkpt>
      <trkpt lat="46.37049" lon="5.86752">
        <ele>461.6</ele>
        <time>2021-10-17T09:03:00Z</time>
      </trkpt>
      <trkpt lat="46.37046" lon="5.86749">
        <ele>462</ele>
        <time>2021-10-17T09:03:01Z</time>
      </trkpt>
      <trkpt lat="46.37044" lon="5.86746">
        <ele>462</ele>
        <time>2021-10-17T09:03:02Z</time>
      </trkpt>
      <trkpt lat="46.37041" lon="5.86743">
        <ele>462.2</ele>
        <time>2021-10-17T09:03:03Z</time>
      </trkpt>
      <trkpt lat="46.37038" lon="5.8674">
        <ele>462.4</ele>
        <time>2021-10-17T09:03:04Z</time>
      </trkpt>
      <trkpt lat="46.37036" lon="5.86736">
        <ele>462.8</ele>
        <time>2021-10-17T09:03:05Z</time>
      </trkpt>
      <trkpt lat="46.37033" lon="5.86733">
        <ele>463</ele>
        <time>2021-10-17T09:03:06Z</time>
      </trkpt>
      <trkpt lat="46.3703" lon="5.8673">
        <ele>463.2</ele>
        <time>2021-10-17T09:03:07Z</time>
      </trkpt>
      <trkpt lat="46.37028" lon="5.86727">
        <ele>463.2</ele>
        <time>2021-10-17T09:03:08Z</time>
      </trkpt>
      <trkpt lat="46.37025" lon="5.86723">
        <ele>463.6</ele>
        <time>2021-10-17T09:03:09Z</time>
      </trkpt>
      <trkpt lat="46.37023" lon="5.86719">
        <ele>463.8</ele>
        <time>2021-10-17T09:03:10Z</time>
      </trkpt>
      <trkpt lat="46.37021" lon="5.86716">
        <ele>464</ele>
        <time>2021-10-17T09:03:11Z</time>
      </trkpt>
      <trkpt lat="46.37018" lon="5.86712">
        <ele>464</ele>
        <time>2021-10-17T09:03:12Z</time>
      </trkpt>
      <trkpt lat="46.37016" lon="5.86709">
        <ele>464.4</ele>
        <time>2021-10-17T09:03:13Z</time>
      </trkpt>
      <trkpt lat="46.37013" lon="5.86706">
        <ele>464.6</ele>
        <time>2021-10-17T09:03:14Z</time>
      </trkpt>
      <trkpt lat="46.37011" lon="5.86703">
        <ele>465</ele>
        <time>2021-10-17T09:03:15Z</time>
      </trkpt>
      <trkpt lat="46.37008" lon="5.867">
        <ele>465.2</ele>
        <time>2021-10-17T09:03:16Z</time>
      </trkpt>
      <trkpt lat="46.37006" lon="5.86697">
        <ele>465.6</ele>
        <time>2021-10-17T09:03:17Z</time>
      </trkpt>
      <trkpt lat="46.37003" lon="5.86694">
        <ele>465.6</ele>
        <time>2021-10-17T09:03:18Z</time>
      </trkpt>
      <trkpt lat="46.37001" lon="5.8669">
        <ele>465.8</ele>
        <time>2021-10-17T09:03:19Z</time>
      </trkpt>
      <trkpt lat="46.36999" lon="5.86687">
        <ele>466.2</ele>
        <time>2021-10-17T09:03:20Z</time>
      </trkpt>
      <trkpt lat="46.36996" lon="5.86684">
        <ele>466.2</ele>
        <time>2021-10-17T09:03:21Z</time>
      </trkpt>
      <trkpt lat="46.36994" lon="5.86681">
        <ele>466.4</ele>
        <time>2021-10-17T09:03:22Z</time>
      </trkpt>
      <trkpt lat="46.36991" lon="5.86677">
        <ele>466.8</ele>
        <time>2021-10-17T09:03:23Z</time>
      </trkpt>
      <trkpt lat="46.36989" lon="5.86674">
        <ele>467</ele>
        <time>2021-10-17T09:03:24Z</time>
      </trkpt>
      <trkpt lat="46.36986" lon="5.86672">
        <ele>467.2</ele>
        <time>2021-10-17T09:03:25Z</time>
      </trkpt>
      <trkpt lat="46.36984" lon="5.86669">
        <ele>467.6</ele>
        <time>2021-10-17T09:03:26Z</time>
      </trkpt>
      <trkpt lat="46.36981" lon="5.86667">
        <ele>467.6</ele>
        <time>2021-10-17T09:03:27Z</time>
      </trkpt>
      <trkpt lat="46.36979" lon="5.86664">
        <ele>468</ele>
        <time>2021-10-17T09:03:28Z</time>
      </trkpt>
      <trkpt lat="46.36977" lon="5.86661">
        <ele>468</ele>
        <time>2021-10-17T09:03:29Z</time>
      </trkpt>
      <trkpt lat="46.36975" lon="5.86658">
        <ele>468.4</ele>
        <time>2021-10-17T09:03:30Z</time>
      </trkpt>
      <trkpt lat="46.36973" lon="5.86655">
        <ele>468.4</ele>
        <time>2021-10-17T09:03:31Z</time>
      </trkpt>
      <trkpt lat="46.36971" lon="5.86652">
        <ele>468.6</ele>
        <time>2021-10-17T09:03:32Z</time>
      </trkpt>
      <trkpt lat="46.36971" lon="5.86652">
        <ele>468.8</ele>
        <time>2021-10-17T09:03:33Z</time>
      </trkpt>
      <trkpt lat="46.36969" lon="5.8665">
        <ele>469.2</ele>
        <time>2021-10-17T09:03:34Z</time>
      </trkpt>
      <trkpt lat="46.36967" lon="5.86646">
        <ele>469.4</ele>
        <time>2021-10-17T09:03:35Z</time>
      </trkpt>
      <trkpt lat="46.36966" lon="5.86643">
        <ele>469.4</ele>
        <time>2021-10-17T09:03:36Z</time>
      </trkpt>
      <trkpt lat="46.36964" lon="5.86639">
        <ele>469.6</ele>
        <time>2021-10-17T09:03:37Z</time>
      </trkpt>
      <trkpt lat="46.36962" lon="5.86636">
        <ele>469.6</ele>
        <time>2021-10-17T09:03:38Z</time>
      </trkpt>
      <trkpt lat="46.3696" lon="5.86632">
        <ele>470</ele>
        <time>2021-10-17T09:03:39Z</time>
      </trkpt>
      <trkpt lat="46.36958" lon="5.86629">
        <ele>470.2</ele>
        <time>2021-10-17T09:03:40Z</time>
      </trkpt>
      <trkpt lat="46.36956" lon="5.86625">
        <ele>470.2</ele>
        <time>2021-10-17T09:03:41Z</time>
      </trkpt>
      <trkpt lat="46.36954" lon="5.86622">
        <ele>470.6</ele>
        <time>2021-10-17T09:03:42Z</time>
      </trkpt>
      <trkpt lat="46.36952" lon="5.86618">
        <ele>470.6</ele>
        <time>2021-10-17T09:03:43Z</time>
      </trkpt>
      <trkpt lat="46.3695" lon="5.86614">
        <ele>470.8</ele>
        <time>2021-10-17T09:03:44Z</time>
      </trkpt>
      <trkpt lat="46.36948" lon="5.8661">
        <ele>470.8</ele>
        <time>2021-10-17T09:03:45Z</time>
      </trkpt>
      <trkpt lat="46.36946" lon="5.86606">
        <ele>471.2</ele>
        <time>2021-10-17T09:03:46Z</time>
      </trkpt>
      <trkpt lat="46.36944" lon="5.86603">
        <ele>471.4</ele>
        <time>2021-10-17T09:03:47Z</time>
      </trkpt>
      <trkpt lat="46.36942" lon="5.86599">
        <ele>471.4</ele>
        <time>2021-10-17T09:03:48Z</time>
      </trkpt>
      <trkpt lat="46.3694" lon="5.86595">
        <ele>471.8</ele>
        <time>2021-10-17T09:03:49Z</time>
      </trkpt>
      <trkpt lat="46.36938" lon="5.86592">
        <ele>471.8</ele>
        <time>2021-10-17T09:03:50Z</time>
      </trkpt>
      <trkpt lat="46.36936" lon="5.86588">
        <ele>472.2</ele>
        <time>2021-10-17T09:03:51Z</time>
      </trkpt>
      <trkpt lat="46.36934" lon="5.86584">
        <ele>472.4</ele>
        <time>2021-10-17T09:03:52Z</time>
      </trkpt>
      <trkpt lat="46.36933" lon="5.8658">
        <ele>472.8</ele>
        <time>2021-10-17T09:03:53Z</time>
      </trkpt>
      <trkpt lat="46.3693" lon="5.86576">
        <ele>473</ele>
        <time>2021-10-17T09:03:54Z</time>
      </trkpt>
      <trkpt lat="46.36928" lon="5.86572">
        <ele>473.2</ele>
        <time>2021-10-17T09:03:55Z</time>
      </trkpt>
      <trkpt lat="46.36926" lon="5.86568">
        <ele>473.4</ele>
        <time>2021-10-17T09:03:56Z</time>
      </trkpt>
      <trkpt lat="46.36924" lon="5.86564">
        <ele>473.4</ele>
        <time>2021-10-17T09:03:57Z</time>
      </trkpt>
      <trkpt lat="46.36922" lon="5.8656">
        <ele>473.8</ele>
        <time>2021-10-17T09:03:58Z</time>
      </trkpt>
      <trkpt lat="46.3692" lon="5.86556">
        <ele>473.8</ele>
        <time>2021-10-17T09:03:59Z</time>
      </trkpt>
      <trkpt lat="46.36919" lon="5.86552">
        <ele>474.2</ele>
        <time>2021-10-17T09:04:00Z</time>
      </trkpt>
      <trkpt lat="46.36916" lon="5.86549">
        <ele>474.4</ele>
        <time>2021-10-17T09:04:01Z</time>
      </trkpt>
      <trkpt lat="46.36914" lon="5.86545">
        <ele>474.6</ele>
        <time>2021-10-17T09:04:02Z</time>
      </trkpt>
      <trkpt lat="46.36912" lon="5.86541">
        <ele>474.6</ele>
        <time>2021-10-17T09:04:03Z</time>
      </trkpt>
      <trkpt lat="46.36911" lon="5.86537">
        <ele>475</ele>
        <time>2021-10-17T09:04:04Z</time>
      </trkpt>
      <trkpt lat="46.36909" lon="5.86534">
        <ele>475.2</ele>
        <time>2021-10-17T09:04:05Z</time>
      </trkpt>
      <trkpt lat="46.36907" lon="5.8653">
        <ele>475.4</ele>
        <time>2021-10-17T09:04:06Z</time>
      </trkpt>
      <trkpt lat="46.36905" lon="5.86526">
        <ele>475.8</ele>
        <time>2021-10-17T09:04:07Z</time>
      </trkpt>
      <trkpt lat="46.36903" lon="5.86523">
        <ele>476</ele>
        <time>2021-10-17T09:04:08Z</time>
      </trkpt>
      <trkpt lat="46.36901" lon="5.86519">
        <ele>476.2</ele>
        <time>2021-10-17T09:04:09Z</time>
      </trkpt>
      <trkpt lat="46.36899" lon="5.86516">
        <ele>476.4</ele>
        <time>2021-10-17T09:04:10Z</time>
      </trkpt>
      <trkpt lat="46.36897" lon="5.86512">
        <ele>476.6</ele>
        <time>2021-10-17T09:04:11Z</time>
      </trkpt>
      <trkpt lat="46.36895" lon="5.86508">
        <ele>476.8</ele>
        <time>2021-10-17T09:04:12Z</time>
      </trkpt>
      <trkpt lat="46.36893" lon="5.86505">
        <ele>476.8</ele>
        <time>2021-10-17T09:04:13Z</time>
      </trkpt>
      <trkpt lat="46.36891" lon="5.86501">
        <ele>477.2</ele>
        <time>2021-10-17T09:04:14Z</time>
      </trkpt>
      <trkpt lat="46.3689" lon="5.86497">
        <ele>477.2</ele>
        <time>2021-10-17T09:04:15Z</time>
      </trkpt>
      <trkpt lat="46.36889" lon="5.86493">
        <ele>477.6</ele>
        <time>2021-10-17T09:04:16Z</time>
      </trkpt>
      <trkpt lat="46.36888" lon="5.86489">
        <ele>477.8</ele>
        <time>2021-10-17T09:04:17Z</time>
      </trkpt>
      <trkpt lat="46.36886" lon="5.86485">
        <ele>478</ele>
        <time>2021-10-17T09:04:18Z</time>
      </trkpt>
      <trkpt lat="46.36885" lon="5.8648">
        <ele>478</ele>
        <time>2021-10-17T09:04:19Z</time>
      </trkpt>
      <trkpt lat="46.36883" lon="5.86476">
        <ele>478.4</ele>
        <time>2021-10-17T09:04:20Z</time>
      </trkpt>
      <trkpt lat="46.36882" lon="5.86472">
        <ele>478.6</ele>
        <time>2021-10-17T09:04:21Z</time>
      </trkpt>
      <trkpt lat="46.36881" lon="5.86467">
        <ele>478.8</ele>
        <time>2021-10-17T09:04:22Z</time>
      </trkpt>
      <trkpt lat="46.3688" lon="5.86463">
        <ele>479.2</ele>
        <time>2021-10-17T09:04:23Z</time>
      </trkpt>
      <trkpt lat="46.36878" lon="5.86459">
        <ele>479.4</ele>
        <time>2021-10-17T09:04:24Z</time>
      </trkpt>
      <trkpt lat="46.36877" lon="5.86455">
        <ele>479.6</ele>
        <time>2021-10-17T09:04:25Z</time>
      </trkpt>
      <trkpt lat="46.36875" lon="5.86451">
        <ele>479.8</ele>
        <time>2021-10-17T09:04:26Z</time>
      </trkpt>
      <trkpt lat="46.36874" lon="5.86447">
        <ele>480.2</ele>
        <time>2021-10-17T09:04:27Z</time>
      </trkpt>
      <trkpt lat="46.36873" lon="5.86442">
        <ele>480.4</ele>
        <time>2021-10-17T09:04:28Z</time>
      </trkpt>
      <trkpt lat="46.36873" lon="5.86438">
        <ele>480.6</ele>
        <time>2021-10-17T09:04:29Z</time>
      </trkpt>
      <trkpt lat="46.36872" lon="5.86433">
        <ele>480.6</ele>
        <time>2021-10-17T09:04:30Z</time>
      </trkpt>
      <trkpt lat="46.36871" lon="5.86429">
        <ele>481</ele>
        <time>2021-10-17T09:04:31Z</time>
      </trkpt>
      <trkpt lat="46.3687" lon="5.86425">
        <ele>481.2</ele>
        <time>2021-10-17T09:04:32Z</time>
      </trkpt>
      <trkpt lat="46.36868" lon="5.86421">
        <ele>481.6</ele>
        <time>2021-10-17T09:04:33Z</time>
      </trkpt>
      <trkpt lat="46.36867" lon="5.86417">
        <ele>481.6</ele>
        <time>2021-10-17T09:04:34Z</time>
      </trkpt>
      <trkpt lat="46.36866" lon="5.86413">
        <ele>481.8</ele>
        <time>2021-10-17T09:04:35Z</time>
      </trkpt>
      <trkpt lat="46.36865" lon="5.86409">
        <ele>482.2</ele>
        <time>2021-10-17T09:04:36Z</time>
      </trkpt>
      <trkpt lat="46.36863" lon="5.86405">
        <ele>482.2</ele>
        <time>2021-10-17T09:04:37Z</time>
      </trkpt>
      <trkpt lat="46.36862" lon="5.86402">
        <ele>482.4</ele>
        <time>2021-10-17T09:04:38Z</time>
      </trkpt>
      <trkpt lat="46.36861" lon="5.86398">
        <ele>482.6</ele>
        <time>2021-10-17T09:04:39Z</time>
      </trkpt>
      <trkpt lat="46.3686" lon="5.86394">
        <ele>482.8</ele>
        <time>2021-10-17T09:04:40Z</time>
      </trkpt>
      <trkpt lat="46.36859" lon="5.8639">
        <ele>483</ele>
        <time>2021-10-17T09:04:41Z</time>
      </trkpt>
      <trkpt lat="46.36857" lon="5.86387">
        <ele>483.2</ele>
        <time>2021-10-17T09:04:42Z</time>
      </trkpt>
      <trkpt lat="46.36856" lon="5.86383">
        <ele>483.6</ele>
        <time>2021-10-17T09:04:43Z</time>
      </trkpt>
      <trkpt lat="46.36855" lon="5.86379">
        <ele>483.8</ele>
        <time>2021-10-17T09:04:44Z</time>
      </trkpt>
      <trkpt lat="46.36853" lon="5.86375">
        <ele>484</ele>
        <time>2021-10-17T09:04:45Z</time>
      </trkpt>
      <trkpt lat="46.36852" lon="5.86371">
        <ele>484</ele>
        <time>2021-10-17T09:04:46Z</time>
      </trkpt>
      <trkpt lat="46.3685" lon="5.86368">
        <ele>484.4</ele>
        <time>2021-10-17T09:04:47Z</time>
      </trkpt>
      <trkpt lat="46.36849" lon="5.86364">
        <ele>484.6</ele>
        <time>2021-10-17T09:04:48Z</time>
      </trkpt>
      <trkpt lat="46.36848" lon="5.8636">
        <ele>484.8</ele>
        <time>2021-10-17T09:04:49Z</time>
      </trkpt>
      <trkpt lat="46.36846" lon="5.86356">
        <ele>485.2</ele>
        <time>2021-10-17T09:04:50Z</time>
      </trkpt>
      <trkpt lat="46.36845" lon="5.86352">
        <ele>485.4</ele>
        <time>2021-10-17T09:04:51Z</time>
      </trkpt>
      <trkpt lat="46.36843" lon="5.86349">
        <ele>485.4</ele>
        <time>2021-10-17T09:04:52Z</time>
      </trkpt>
      <trkpt lat="46.36841" lon="5.86345">
        <ele>485.6</ele>
        <time>2021-10-17T09:04:53Z</time>
      </trkpt>
      <trkpt lat="46.36838" lon="5.86342">
        <ele>485.8</ele>
        <time>2021-10-17T09:04:54Z</time>
      </trkpt>
      <trkpt lat="46.36836" lon="5.86338">
        <ele>486</ele>
        <time>2021-10-17T09:04:55Z</time>
      </trkpt>
      <trkpt lat="46.36834" lon="5.86334">
        <ele>486</ele>
        <time>2021-10-17T09:04:56Z</time>
      </trkpt>
      <trkpt lat="46.36832" lon="5.8633">
        <ele>486.4</ele>
        <time>2021-10-17T09:04:57Z</time>
      </trkpt>
      <trkpt lat="46.3683" lon="5.86327">
        <ele>486.4</ele>
        <time>2021-10-17T09:04:58Z</time>
      </trkpt>
      <trkpt lat="46.36829" lon="5.86324">
        <ele>486.8</ele>
        <time>2021-10-17T09:04:59Z</time>
      </trkpt>
      <trkpt lat="46.36827" lon="5.86321">
        <ele>486.8</ele>
        <time>2021-10-17T09:05:00Z</time>
      </trkpt>
      <trkpt lat="46.36825" lon="5.86318">
        <ele>487.2</ele>
        <time>2021-10-17T09:05:01Z</time>
      </trkpt>
      <trkpt lat="46.36823" lon="5.86314">
        <ele>487.2</ele>
        <time>2021-10-17T09:05:02Z</time>
      </trkpt>
      <trkpt lat="46.36821" lon="5.86311">
        <ele>487.6</ele>
        <time>2021-10-17T09:05:03Z</time>
      </trkpt>
      <trkpt lat="46.3682" lon="5.86307">
        <ele>487.8</ele>
        <time>2021-10-17T09:05:04Z</time>
      </trkpt>
      <trkpt lat="46.36818" lon="5.86303">
        <ele>487.8</ele>
        <time>2021-10-17T09:05:05Z</time>
      </trkpt>
      <trkpt lat="46.36816" lon="5.863">
        <ele>488</ele>
        <time>2021-10-17T09:05:06Z</time>
      </trkpt>
      <trkpt lat="46.36813" lon="5.86297">
        <ele>488</ele>
        <time>2021-10-17T09:05:07Z</time>
      </trkpt>
      <trkpt lat="46.3681" lon="5.86294">
        <ele>488.4</ele>
        <time>2021-10-17T09:05:08Z</time>
      </trkpt>
      <trkpt lat="46.36808" lon="5.86291">
        <ele>488.4</ele>
        <time>2021-10-17T09:05:09Z</time>
      </trkpt>
      <trkpt lat="46.36805" lon="5.86288">
        <ele>488.8</ele>
        <time>2021-10-17T09:05:10Z</time>
      </trkpt>
      <trkpt lat="46.36803" lon="5.86285">
        <ele>489</ele>
        <time>2021-10-17T09:05:11Z</time>
      </trkpt>
      <trkpt lat="46.36801" lon="5.86281">
        <ele>489</ele>
        <time>2021-10-17T09:05:12Z</time>
      </trkpt>
      <trkpt lat="46.36798" lon="5.86278">
        <ele>489.2</ele>
        <time>2021-10-17T09:05:13Z</time>
      </trkpt>
      <trkpt lat="46.36796" lon="5.86274">
        <ele>489.4</ele>
        <time>2021-10-17T09:05:14Z</time>
      </trkpt>
      <trkpt lat="46.36793" lon="5.8627">
        <ele>489.8</ele>
        <time>2021-10-17T09:05:15Z</time>
      </trkpt>
      <trkpt lat="46.3679" lon="5.86266">
        <ele>490</ele>
        <time>2021-10-17T09:05:16Z</time>
      </trkpt>
      <trkpt lat="46.36788" lon="5.86263">
        <ele>490.2</ele>
        <time>2021-10-17T09:05:17Z</time>
      </trkpt>
      <trkpt lat="46.36785" lon="5.8626">
        <ele>490.2</ele>
        <time>2021-10-17T09:05:18Z</time>
      </trkpt>
      <trkpt lat="46.36783" lon="5.86256">
        <ele>490.6</ele>
        <time>2021-10-17T09:05:19Z</time>
      </trkpt>
      <trkpt lat="46.3678" lon="5.86253">
        <ele>490.8</ele>
        <time>2021-10-17T09:05:20Z</time>
      </trkpt>
      <trkpt lat="46.36777" lon="5.8625">
        <ele>491</ele>
        <time>2021-10-17T09:05:21Z</time>
      </trkpt>
      <trkpt lat="46.36775" lon="5.86247">
        <ele>491</ele>
        <time>2021-10-17T09:05:22Z</time>
      </trkpt>
      <trkpt lat="46.36772" lon="5.86245">
        <ele>491.4</ele>
        <time>2021-10-17T09:05:23Z</time>
      </trkpt>
      <trkpt lat="46.3677" lon="5.86242">
        <ele>491.6</ele>
        <time>2021-10-17T09:05:24Z</time>
      </trkpt>
      <trkpt lat="46.36768" lon="5.86239">
        <ele>491.6</ele>
        <time>2021-10-17T09:05:25Z</time>
      </trkpt>
      <trkpt lat="46.36766" lon="5.86235">
        <ele>492</ele>
        <time>2021-10-17T09:05:26Z</time>
      </trkpt>
      <trkpt lat="46.36764" lon="5.86231">
        <ele>492</ele>
        <time>2021-10-17T09:05:27Z</time>
      </trkpt>
      <trkpt lat="46.36761" lon="5.86227">
        <ele>492.4</ele>
        <time>2021-10-17T09:05:28Z</time>
      </trkpt>
      <trkpt lat="46.36759" lon="5.86223">
        <ele>492.4</ele>
        <time>2021-10-17T09:05:29Z</time>
      </trkpt>
      <trkpt lat="46.36757" lon="5.86219">
        <ele>492.8</ele>
        <time>2021-10-17T09:05:30Z</time>
      </trkpt>
      <trkpt lat="46.36755" lon="5.86215">
        <ele>493</ele>
        <time>2021-10-17T09:05:31Z</time>
      </trkpt>
      <trkpt lat="46.36753" lon="5.86212">
        <ele>493.2</ele>
        <time>2021-10-17T09:05:32Z</time>
      </trkpt>
      <trkpt lat="46.36751" lon="5.86208">
        <ele>493.2</ele>
        <time>2021-10-17T09:05:33Z</time>
      </trkpt>
      <trkpt lat="46.36749" lon="5.86205">
        <ele>493.8</ele>
        <time>2021-10-17T09:05:34Z</time>
      </trkpt>
      <trkpt lat="46.36748" lon="5.86201">
        <ele>494</ele>
        <time>2021-10-17T09:05:35Z</time>
      </trkpt>
      <trkpt lat="46.36746" lon="5.86198">
        <ele>494.2</ele>
        <time>2021-10-17T09:05:36Z</time>
      </trkpt>
      <trkpt lat="46.36745" lon="5.86195">
        <ele>494.4</ele>
        <time>2021-10-17T09:05:37Z</time>
      </trkpt>
      <trkpt lat="46.36744" lon="5.86191">
        <ele>494.6</ele>
        <time>2021-10-17T09:05:38Z</time>
      </trkpt>
      <trkpt lat="46.36743" lon="5.86188">
        <ele>494.6</ele>
        <time>2021-10-17T09:05:39Z</time>
      </trkpt>
      <trkpt lat="46.36741" lon="5.86185">
        <ele>495</ele>
        <time>2021-10-17T09:05:40Z</time>
      </trkpt>
      <trkpt lat="46.36739" lon="5.86181">
        <ele>495</ele>
        <time>2021-10-17T09:05:41Z</time>
      </trkpt>
      <trkpt lat="46.36737" lon="5.86178">
        <ele>495.4</ele>
        <time>2021-10-17T09:05:42Z</time>
      </trkpt>
      <trkpt lat="46.36735" lon="5.86175">
        <ele>495.6</ele>
        <time>2021-10-17T09:05:43Z</time>
      </trkpt>
      <trkpt lat="46.36734" lon="5.86171">
        <ele>495.6</ele>
        <time>2021-10-17T09:05:44Z</time>
      </trkpt>
      <trkpt lat="46.36732" lon="5.86168">
        <ele>496</ele>
        <time>2021-10-17T09:05:45Z</time>
      </trkpt>
      <trkpt lat="46.36731" lon="5.86165">
        <ele>496.2</ele>
        <time>2021-10-17T09:05:46Z</time>
      </trkpt>
      <trkpt lat="46.3673" lon="5.86161">
        <ele>496.6</ele>
        <time>2021-10-17T09:05:47Z</time>
      </trkpt>
      <trkpt lat="46.36729" lon="5.86159">
        <ele>496.6</ele>
        <time>2021-10-17T09:05:48Z</time>
      </trkpt>
      <trkpt lat="46.36728" lon="5.86155">
        <ele>497</ele>
        <time>2021-10-17T09:05:49Z</time>
      </trkpt>
      <trkpt lat="46.36727" lon="5.86152">
        <ele>497.2</ele>
        <time>2021-10-17T09:05:50Z</time>
      </trkpt>
      <trkpt lat="46.36725" lon="5.86148">
        <ele>497.4</ele>
        <time>2021-10-17T09:05:51Z</time>
      </trkpt>
      <trkpt lat="46.36725" lon="5.86144">
        <ele>497.6</ele>
        <time>2021-10-17T09:05:52Z</time>
      </trkpt>
      <trkpt lat="46.36724" lon="5.86141">
        <ele>497.8</ele>
        <time>2021-10-17T09:05:53Z</time>
      </trkpt>
      <trkpt lat="46.36724" lon="5.86138">
        <ele>498</ele>
        <time>2021-10-17T09:05:54Z</time>
      </trkpt>
      <trkpt lat="46.36723" lon="5.86134">
        <ele>498.2</ele>
        <time>2021-10-17T09:05:55Z</time>
      </trkpt>
      <trkpt lat="46.36723" lon="5.86131">
        <ele>498.6</ele>
        <time>2021-10-17T09:05:56Z</time>
      </trkpt>
      <trkpt lat="46.36723" lon="5.86127">
        <ele>498.6</ele>
        <time>2021-10-17T09:05:57Z</time>
      </trkpt>
      <trkpt lat="46.36722" lon="5.86123">
        <ele>498.8</ele>
        <time>2021-10-17T09:05:58Z</time>
      </trkpt>
      <trkpt lat="46.36722" lon="5.86119">
        <ele>499</ele>
        <time>2021-10-17T09:05:59Z</time>
      </trkpt>
      <trkpt lat="46.36722" lon="5.86115">
        <ele>499.4</ele>
        <time>2021-10-17T09:06:00Z</time>
      </trkpt>
      <trkpt lat="46.36721" lon="5.86112">
        <ele>499.4</ele>
        <time>2021-10-17T09:06:01Z</time>
      </trkpt>
      <trkpt lat="46.36721" lon="5.86108">
        <ele>499.6</ele>
        <time>2021-10-17T09:06:02Z</time>
      </trkpt>
      <trkpt lat="46.36721" lon="5.86105">
        <ele>499.6</ele>
        <time>2021-10-17T09:06:03Z</time>
      </trkpt>
      <trkpt lat="46.3672" lon="5.86102">
        <ele>500</ele>
        <time>2021-10-17T09:06:04Z</time>
      </trkpt>
      <trkpt lat="46.36719" lon="5.86099">
        <ele>500</ele>
        <time>2021-10-17T09:06:05Z</time>
      </trkpt>
      <trkpt lat="46.36719" lon="5.86096">
        <ele>500.4</ele>
        <time>2021-10-17T09:06:06Z</time>
      </trkpt>
      <trkpt lat="46.36718" lon="5.86093">
        <ele>500.4</ele>
        <time>2021-10-17T09:06:07Z</time>
      </trkpt>
      <trkpt lat="46.36717" lon="5.86091">
        <ele>500.6</ele>
        <time>2021-10-17T09:06:08Z</time>
      </trkpt>
      <trkpt lat="46.36716" lon="5.86089">
        <ele>500.6</ele>
        <time>2021-10-17T09:06:09Z</time>
      </trkpt>
      <trkpt lat="46.36716" lon="5.86088">
        <ele>500.6</ele>
        <time>2021-10-17T09:06:10Z</time>
      </trkpt>
      <trkpt lat="46.36716" lon="5.86087">
        <ele>500.8</ele>
        <time>2021-10-17T09:06:11Z</time>
      </trkpt>
      <trkpt lat="46.36716" lon="5.86084">
        <ele>501.2</ele>
        <time>2021-10-17T09:13:51Z</time>
      </trkpt>
      <trkpt lat="46.36715" lon="5.86083">
        <ele>501.2</ele>
        <time>2021-10-17T09:13:52Z</time>
      </trkpt>
      <trkpt lat="46.36714" lon="5.86081">
        <ele>501.2</ele>
        <time>2021-10-17T09:13:53Z</time>
      </trkpt>
      <trkpt lat="46.36713" lon="5.86079">
        <ele>501.2</ele>
        <time>2021-10-17T09:13:54Z</time>
      </trkpt>
      <trkpt lat="46.36712" lon="5.86077">
        <ele>501.4</ele>
        <time>2021-10-17T09:13:55Z</time>
      </trkpt>
      <trkpt lat="46.36711" lon="5.86074">
        <ele>501.4</ele>
        <time>2021-10-17T09:13:56Z</time>
      </trkpt>
      <trkpt lat="46.36709" lon="5.86072">
        <ele>501.4</ele>
        <time>2021-10-17T09:13:57Z</time>
      </trkpt>
      <trkpt lat="46.36707" lon="5.86069">
        <ele>501.4</ele>
        <time>2021-10-17T09:13:58Z</time>
      </trkpt>
      <trkpt lat="46.36706" lon="5.86067">
        <ele>501.4</ele>
        <time>2021-10-17T09:13:59Z</time>
      </trkpt>
      <trkpt lat="46.36704" lon="5.86064">
        <ele>501.6</ele>
        <time>2021-10-17T09:14:00Z</time>
      </trkpt>
      <trkpt lat="46.36702" lon="5.86062">
        <ele>501.6</ele>
        <time>2021-10-17T09:14:01Z</time>
      </trkpt>
      <trkpt lat="46.367" lon="5.86059">
        <ele>501.8</ele>
        <time>2021-10-17T09:14:02Z</time>
      </trkpt>
      <trkpt lat="46.36698" lon="5.86056">
        <ele>501.8</ele>
        <time>2021-10-17T09:14:03Z</time>
      </trkpt>
      <trkpt lat="46.36695" lon="5.86053">
        <ele>502.2</ele>
        <time>2021-10-17T09:14:04Z</time>
      </trkpt>
      <trkpt lat="46.36692" lon="5.86051">
        <ele>502.2</ele>
        <time>2021-10-17T09:14:05Z</time>
      </trkpt>
      <trkpt lat="46.3669" lon="5.86048">
        <ele>502.4</ele>
        <time>2021-10-17T09:14:06Z</time>
      </trkpt>
      <trkpt lat="46.36687" lon="5.86046">
        <ele>502.4</ele>
        <time>2021-10-17T09:14:07Z</time>
      </trkpt>
      <trkpt lat="46.36685" lon="5.86044">
        <ele>502.8</ele>
        <time>2021-10-17T09:14:08Z</time>
      </trkpt>
      <trkpt lat="46.36682" lon="5.86042">
        <ele>502.8</ele>
        <time>2021-10-17T09:14:09Z</time>
      </trkpt>
      <trkpt lat="46.36679" lon="5.8604">
        <ele>503</ele>
        <time>2021-10-17T09:14:10Z</time>
      </trkpt>
      <trkpt lat="46.36676" lon="5.86038">
        <ele>503</ele>
        <time>2021-10-17T09:14:11Z</time>
      </trkpt>
      <trkpt lat="46.36672" lon="5.86036">
        <ele>503.4</ele>
        <time>2021-10-17T09:14:12Z</time>
      </trkpt>
      <trkpt lat="46.36669" lon="5.86034">
        <ele>503.4</ele>
        <time>2021-10-17T09:14:13Z</time>
      </trkpt>
      <trkpt lat="46.36665" lon="5.86033">
        <ele>503.6</ele>
        <time>2021-10-17T09:14:14Z</time>
      </trkpt>
      <trkpt lat="46.36661" lon="5.86032">
        <ele>503.8</ele>
        <time>2021-10-17T09:14:15Z</time>
      </trkpt>
      <trkpt lat="46.36657" lon="5.86031">
        <ele>503.8</ele>
        <time>2021-10-17T09:14:16Z</time>
      </trkpt>
      <trkpt lat="46.36653" lon="5.86029">
        <ele>504.2</ele>
        <time>2021-10-17T09:14:17Z</time>
      </trkpt>
      <trkpt lat="46.36649" lon="5.86028">
        <ele>504.2</ele>
        <time>2021-10-17T09:14:18Z</time>
      </trkpt>
      <trkpt lat="46.36645" lon="5.86027">
        <ele>504.6</ele>
        <time>2021-10-17T09:14:19Z</time>
      </trkpt>
      <trkpt lat="46.36641" lon="5.86025">
        <ele>504.6</ele>
        <time>2021-10-17T09:14:20Z</time>
      </trkpt>
      <trkpt lat="46.36638" lon="5.86023">
        <ele>505</ele>
        <time>2021-10-17T09:14:21Z</time>
      </trkpt>
      <trkpt lat="46.36635" lon="5.8602">
        <ele>505.2</ele>
        <time>2021-10-17T09:14:22Z</time>
      </trkpt>
      <trkpt lat="46.36631" lon="5.86017">
        <ele>505.6</ele>
        <time>2021-10-17T09:14:23Z</time>
      </trkpt>
      <trkpt lat="46.36628" lon="5.86014">
        <ele>505.8</ele>
        <time>2021-10-17T09:14:24Z</time>
      </trkpt>
      <trkpt lat="46.36625" lon="5.86011">
        <ele>506</ele>
        <time>2021-10-17T09:14:25Z</time>
      </trkpt>
      <trkpt lat="46.36622" lon="5.86008">
        <ele>506.2</ele>
        <time>2021-10-17T09:14:26Z</time>
      </trkpt>
      <trkpt lat="46.36619" lon="5.86005">
        <ele>506.6</ele>
        <time>2021-10-17T09:14:27Z</time>
      </trkpt>
      <trkpt lat="46.36616" lon="5.86002">
        <ele>506.6</ele>
        <time>2021-10-17T09:14:28Z</time>
      </trkpt>
      <trkpt lat="46.36613" lon="5.85999">
        <ele>507</ele>
        <time>2021-10-17T09:14:29Z</time>
      </trkpt>
      <trkpt lat="46.3661" lon="5.85995">
        <ele>507.2</ele>
        <time>2021-10-17T09:14:30Z</time>
      </trkpt>
      <trkpt lat="46.36607" lon="5.85992">
        <ele>507.4</ele>
        <time>2021-10-17T09:14:31Z</time>
      </trkpt>
      <trkpt lat="46.36604" lon="5.85988">
        <ele>507.6</ele>
        <time>2021-10-17T09:14:32Z</time>
      </trkpt>
      <trkpt lat="46.36601" lon="5.85984">
        <ele>507.6</ele>
        <time>2021-10-17T09:14:33Z</time>
      </trkpt>
      <trkpt lat="46.36598" lon="5.85981">
        <ele>508</ele>
        <time>2021-10-17T09:14:34Z</time>
      </trkpt>
      <trkpt lat="46.36595" lon="5.85978">
        <ele>508</ele>
        <time>2021-10-17T09:14:35Z</time>
      </trkpt>
      <trkpt lat="46.36591" lon="5.85975">
        <ele>508.6</ele>
        <time>2021-10-17T09:14:36Z</time>
      </trkpt>
      <trkpt lat="46.36588" lon="5.85973">
        <ele>508.8</ele>
        <time>2021-10-17T09:14:37Z</time>
      </trkpt>
      <trkpt lat="46.36584" lon="5.8597">
        <ele>509.2</ele>
        <time>2021-10-17T09:14:38Z</time>
      </trkpt>
      <trkpt lat="46.36581" lon="5.85967">
        <ele>509.4</ele>
        <time>2021-10-17T09:14:39Z</time>
      </trkpt>
      <trkpt lat="46.36578" lon="5.85964">
        <ele>509.8</ele>
        <time>2021-10-17T09:14:40Z</time>
      </trkpt>
      <trkpt lat="46.36574" lon="5.85962">
        <ele>510</ele>
        <time>2021-10-17T09:14:41Z</time>
      </trkpt>
      <trkpt lat="46.36571" lon="5.85959">
        <ele>510.2</ele>
        <time>2021-10-17T09:14:42Z</time>
      </trkpt>
      <trkpt lat="46.36568" lon="5.85957">
        <ele>510.6</ele>
        <time>2021-10-17T09:14:43Z</time>
      </trkpt>
      <trkpt lat="46.36564" lon="5.85954">
        <ele>510.8</ele>
        <time>2021-10-17T09:14:44Z</time>
      </trkpt>
      <trkpt lat="46.36562" lon="5.8595">
        <ele>511.2</ele>
        <time>2021-10-17T09:14:45Z</time>
      </trkpt>
      <trkpt lat="46.36559" lon="5.85946">
        <ele>511.4</ele>
        <time>2021-10-17T09:14:46Z</time>
      </trkpt>
      <trkpt lat="46.36555" lon="5.85942">
        <ele>511.6</ele>
        <time>2021-10-17T09:14:47Z</time>
      </trkpt>
      <trkpt lat="46.36552" lon="5.85939">
        <ele>511.6</ele>
        <time>2021-10-17T09:14:48Z</time>
      </trkpt>
      <trkpt lat="46.36549" lon="5.85936">
        <ele>512</ele>
        <time>2021-10-17T09:14:49Z</time>
      </trkpt>
      <trkpt lat="46.36545" lon="5.85932">
        <ele>512.2</ele>
        <time>2021-10-17T09:14:50Z</time>
      </trkpt>
      <trkpt lat="46.36542" lon="5.85928">
        <ele>512.6</ele>
        <time>2021-10-17T09:14:51Z</time>
      </trkpt>
      <trkpt lat="46.36539" lon="5.85924">
        <ele>512.8</ele>
        <time>2021-10-17T09:14:52Z</time>
      </trkpt>
      <trkpt lat="46.36536" lon="5.85921">
        <ele>513</ele>
        <time>2021-10-17T09:14:53Z</time>
      </trkpt>
      <trkpt lat="46.36533" lon="5.85917">
        <ele>513.4</ele>
        <time>2021-10-17T09:14:54Z</time>
      </trkpt>
      <trkpt lat="46.36531" lon="5.85912">
        <ele>513.6</ele>
        <time>2021-10-17T09:14:55Z</time>
      </trkpt>
      <trkpt lat="46.36529" lon="5.85908">
        <ele>514</ele>
        <time>2021-10-17T09:14:56Z</time>
      </trkpt>
      <trkpt lat="46.36527" lon="5.85904">
        <ele>514.2</ele>
        <time>2021-10-17T09:14:57Z</time>
      </trkpt>
      <trkpt lat="46.36525" lon="5.859">
        <ele>514.6</ele>
        <time>2021-10-17T09:14:58Z</time>
      </trkpt>
      <trkpt lat="46.36522" lon="5.85896">
        <ele>514.8</ele>
        <time>2021-10-17T09:14:59Z</time>
      </trkpt>
      <trkpt lat="46.3652" lon="5.85892">
        <ele>515</ele>
        <time>2021-10-17T09:15:00Z</time>
      </trkpt>
      <trkpt lat="46.36518" lon="5.85886">
        <ele>515.2</ele>
        <time>2021-10-17T09:15:01Z</time>
      </trkpt>
      <trkpt lat="46.36516" lon="5.85881">
        <ele>515.6</ele>
        <time>2021-10-17T09:15:02Z</time>
      </trkpt>
      <trkpt lat="46.36515" lon="5.85875">
        <ele>515.8</ele>
        <time>2021-10-17T09:15:03Z</time>
      </trkpt>
      <trkpt lat="46.36514" lon="5.85869">
        <ele>515.8</ele>
        <time>2021-10-17T09:15:04Z</time>
      </trkpt>
      <trkpt lat="46.36512" lon="5.85864">
        <ele>516.2</ele>
        <time>2021-10-17T09:15:05Z</time>
      </trkpt>
      <trkpt lat="46.3651" lon="5.85859">
        <ele>516.2</ele>
        <time>2021-10-17T09:15:06Z</time>
      </trkpt>
      <trkpt lat="46.36507" lon="5.85854">
        <ele>516.6</ele>
        <time>2021-10-17T09:15:07Z</time>
      </trkpt>
      <trkpt lat="46.36504" lon="5.85851">
        <ele>516.8</ele>
        <time>2021-10-17T09:15:08Z</time>
      </trkpt>
      <trkpt lat="46.36501" lon="5.85847">
        <ele>517</ele>
        <time>2021-10-17T09:15:09Z</time>
      </trkpt>
      <trkpt lat="46.36497" lon="5.85845">
        <ele>517</ele>
        <time>2021-10-17T09:15:10Z</time>
      </trkpt>
      <trkpt lat="46.36493" lon="5.85842">
        <ele>517.4</ele>
        <time>2021-10-17T09:15:11Z</time>
      </trkpt>
      <trkpt lat="46.36489" lon="5.8584">
        <ele>517.6</ele>
        <time>2021-10-17T09:15:12Z</time>
      </trkpt>
      <trkpt lat="46.36486" lon="5.85839">
        <ele>517.8</ele>
        <time>2021-10-17T09:15:13Z</time>
      </trkpt>
      <trkpt lat="46.36482" lon="5.85839">
        <ele>518.2</ele>
        <time>2021-10-17T09:15:14Z</time>
      </trkpt>
      <trkpt lat="46.36477" lon="5.85838">
        <ele>518.4</ele>
        <time>2021-10-17T09:15:15Z</time>
      </trkpt>
      <trkpt lat="46.36473" lon="5.85837">
        <ele>518.6</ele>
        <time>2021-10-17T09:15:16Z</time>
      </trkpt>
      <trkpt lat="46.36469" lon="5.85836">
        <ele>518.8</ele>
        <time>2021-10-17T09:15:17Z</time>
      </trkpt>
      <trkpt lat="46.36465" lon="5.85834">
        <ele>519.2</ele>
        <time>2021-10-17T09:15:18Z</time>
      </trkpt>
      <trkpt lat="46.36461" lon="5.85831">
        <ele>519.4</ele>
        <time>2021-10-17T09:15:19Z</time>
      </trkpt>
      <trkpt lat="46.36458" lon="5.85828">
        <ele>519.8</ele>
        <time>2021-10-17T09:15:20Z</time>
      </trkpt>
      <trkpt lat="46.36455" lon="5.85825">
        <ele>520</ele>
        <time>2021-10-17T09:15:21Z</time>
      </trkpt>
      <trkpt lat="46.36452" lon="5.85822">
        <ele>520.2</ele>
        <time>2021-10-17T09:15:22Z</time>
      </trkpt>
      <trkpt lat="46.3645" lon="5.85818">
        <ele>520.2</ele>
        <time>2021-10-17T09:15:23Z</time>
      </trkpt>
      <trkpt lat="46.36448" lon="5.85814">
        <ele>520.8</ele>
        <time>2021-10-17T09:15:24Z</time>
      </trkpt>
      <trkpt lat="46.36445" lon="5.85809">
        <ele>521</ele>
        <time>2021-10-17T09:15:25Z</time>
      </trkpt>
      <trkpt lat="46.36443" lon="5.85805">
        <ele>521.2</ele>
        <time>2021-10-17T09:15:26Z</time>
      </trkpt>
      <trkpt lat="46.36442" lon="5.85801">
        <ele>521.8</ele>
        <time>2021-10-17T09:15:27Z</time>
      </trkpt>
      <trkpt lat="46.36441" lon="5.85796">
        <ele>522.2</ele>
        <time>2021-10-17T09:15:28Z</time>
      </trkpt>
      <trkpt lat="46.3644" lon="5.8579">
        <ele>522.4</ele>
        <time>2021-10-17T09:15:29Z</time>
      </trkpt>
      <trkpt lat="46.3644" lon="5.85785">
        <ele>522.8</ele>
        <time>2021-10-17T09:15:30Z</time>
      </trkpt>
      <trkpt lat="46.36439" lon="5.8578">
        <ele>523</ele>
        <time>2021-10-17T09:15:31Z</time>
      </trkpt>
      <trkpt lat="46.36438" lon="5.85774">
        <ele>523.2</ele>
        <time>2021-10-17T09:15:32Z</time>
      </trkpt>
      <trkpt lat="46.36437" lon="5.85768">
        <ele>523.6</ele>
        <time>2021-10-17T09:15:33Z</time>
      </trkpt>
      <trkpt lat="46.36437" lon="5.85763">
        <ele>523.8</ele>
        <time>2021-10-17T09:15:34Z</time>
      </trkpt>
      <trkpt lat="46.36436" lon="5.85758">
        <ele>524</ele>
        <time>2021-10-17T09:15:35Z</time>
      </trkpt>
      <trkpt lat="46.36436" lon="5.85752">
        <ele>524.2</ele>
        <time>2021-10-17T09:15:36Z</time>
      </trkpt>
      <trkpt lat="46.36435" lon="5.85747">
        <ele>524.6</ele>
        <time>2021-10-17T09:15:37Z</time>
      </trkpt>
      <trkpt lat="46.36434" lon="5.85742">
        <ele>524.8</ele>
        <time>2021-10-17T09:15:38Z</time>
      </trkpt>
      <trkpt lat="46.36433" lon="5.85736">
        <ele>525</ele>
        <time>2021-10-17T09:15:39Z</time>
      </trkpt>
      <trkpt lat="46.36432" lon="5.85731">
        <ele>525.4</ele>
        <time>2021-10-17T09:15:40Z</time>
      </trkpt>
      <trkpt lat="46.36431" lon="5.85726">
        <ele>525.4</ele>
        <time>2021-10-17T09:15:41Z</time>
      </trkpt>
      <trkpt lat="46.3643" lon="5.85722">
        <ele>525.8</ele>
        <time>2021-10-17T09:15:42Z</time>
      </trkpt>
      <trkpt lat="46.36428" lon="5.85717">
        <ele>525.8</ele>
        <time>2021-10-17T09:15:43Z</time>
      </trkpt>
      <trkpt lat="46.36426" lon="5.85712">
        <ele>526</ele>
        <time>2021-10-17T09:15:44Z</time>
      </trkpt>
      <trkpt lat="46.36424" lon="5.85708">
        <ele>526.4</ele>
        <time>2021-10-17T09:15:45Z</time>
      </trkpt>
      <trkpt lat="46.36421" lon="5.85704">
        <ele>526.6</ele>
        <time>2021-10-17T09:15:46Z</time>
      </trkpt>
      <trkpt lat="46.36418" lon="5.857">
        <ele>526.6</ele>
        <time>2021-10-17T09:15:47Z</time>
      </trkpt>
      <trkpt lat="46.36415" lon="5.85696">
        <ele>527</ele>
        <time>2021-10-17T09:15:48Z</time>
      </trkpt>
      <trkpt lat="46.36412" lon="5.85692">
        <ele>527.2</ele>
        <time>2021-10-17T09:15:49Z</time>
      </trkpt>
      <trkpt lat="46.3641" lon="5.85688">
        <ele>527.4</ele>
        <time>2021-10-17T09:15:50Z</time>
      </trkpt>
      <trkpt lat="46.36407" lon="5.85685">
        <ele>527.6</ele>
        <time>2021-10-17T09:15:51Z</time>
      </trkpt>
      <trkpt lat="46.36404" lon="5.85681">
        <ele>528</ele>
        <time>2021-10-17T09:15:52Z</time>
      </trkpt>
      <trkpt lat="46.36402" lon="5.85678">
        <ele>528.2</ele>
        <time>2021-10-17T09:15:53Z</time>
      </trkpt>
      <trkpt lat="46.36399" lon="5.85674">
        <ele>528.4</ele>
        <time>2021-10-17T09:15:54Z</time>
      </trkpt>
      <trkpt lat="46.36398" lon="5.8567">
        <ele>528.4</ele>
        <time>2021-10-17T09:15:55Z</time>
      </trkpt>
      <trkpt lat="46.36396" lon="5.85667">
        <ele>528.8</ele>
        <time>2021-10-17T09:15:56Z</time>
      </trkpt>
      <trkpt lat="46.36395" lon="5.85662">
        <ele>529</ele>
        <time>2021-10-17T09:15:57Z</time>
      </trkpt>
      <trkpt lat="46.36394" lon="5.85658">
        <ele>529.2</ele>
        <time>2021-10-17T09:15:58Z</time>
      </trkpt>
      <trkpt lat="46.36392" lon="5.85654">
        <ele>529.2</ele>
        <time>2021-10-17T09:15:59Z</time>
      </trkpt>
      <trkpt lat="46.3639" lon="5.85651">
        <ele>529.6</ele>
        <time>2021-10-17T09:16:00Z</time>
      </trkpt>
      <trkpt lat="46.36387" lon="5.85648">
        <ele>529.8</ele>
        <time>2021-10-17T09:16:01Z</time>
      </trkpt>
      <trkpt lat="46.36384" lon="5.85645">
        <ele>530</ele>
        <time>2021-10-17T09:16:02Z</time>
      </trkpt>
      <trkpt lat="46.36381" lon="5.85642">
        <ele>530.4</ele>
        <time>2021-10-17T09:16:03Z</time>
      </trkpt>
      <trkpt lat="46.36377" lon="5.8564">
        <ele>530.6</ele>
        <time>2021-10-17T09:16:04Z</time>
      </trkpt>
      <trkpt lat="46.36374" lon="5.85638">
        <ele>530.8</ele>
        <time>2021-10-17T09:16:05Z</time>
      </trkpt>
      <trkpt lat="46.3637" lon="5.85637">
        <ele>531</ele>
        <time>2021-10-17T09:16:06Z</time>
      </trkpt>
      <trkpt lat="46.36367" lon="5.85636">
        <ele>531.2</ele>
        <time>2021-10-17T09:16:07Z</time>
      </trkpt>
      <trkpt lat="46.36364" lon="5.85634">
        <ele>531.6</ele>
        <time>2021-10-17T09:16:08Z</time>
      </trkpt>
      <trkpt lat="46.3636" lon="5.85633">
        <ele>531.8</ele>
        <time>2021-10-17T09:16:09Z</time>
      </trkpt>
      <trkpt lat="46.36357" lon="5.85631">
        <ele>532</ele>
        <time>2021-10-17T09:16:10Z</time>
      </trkpt>
      <trkpt lat="46.36353" lon="5.85629">
        <ele>532</ele>
        <time>2021-10-17T09:16:11Z</time>
      </trkpt>
      <trkpt lat="46.3635" lon="5.85627">
        <ele>532.4</ele>
        <time>2021-10-17T09:16:12Z</time>
      </trkpt>
      <trkpt lat="46.36347" lon="5.85625">
        <ele>532.6</ele>
        <time>2021-10-17T09:16:13Z</time>
      </trkpt>
      <trkpt lat="46.36344" lon="5.85621">
        <ele>532.6</ele>
        <time>2021-10-17T09:16:14Z</time>
      </trkpt>
      <trkpt lat="46.36341" lon="5.85618">
        <ele>533</ele>
        <time>2021-10-17T09:16:15Z</time>
      </trkpt>
      <trkpt lat="46.36338" lon="5.85614">
        <ele>533.2</ele>
        <time>2021-10-17T09:16:16Z</time>
      </trkpt>
      <trkpt lat="46.36336" lon="5.8561">
        <ele>533.6</ele>
        <time>2021-10-17T09:16:17Z</time>
      </trkpt>
      <trkpt lat="46.36334" lon="5.85605">
        <ele>533.8</ele>
        <time>2021-10-17T09:16:18Z</time>
      </trkpt>
      <trkpt lat="46.36333" lon="5.85601">
        <ele>534</ele>
        <time>2021-10-17T09:16:19Z</time>
      </trkpt>
      <trkpt lat="46.36331" lon="5.85597">
        <ele>534.2</ele>
        <time>2021-10-17T09:16:20Z</time>
      </trkpt>
      <trkpt lat="46.3633" lon="5.85592">
        <ele>534.4</ele>
        <time>2021-10-17T09:16:21Z</time>
      </trkpt>
      <trkpt lat="46.36328" lon="5.85588">
        <ele>534.8</ele>
        <time>2021-10-17T09:16:22Z</time>
      </trkpt>
      <trkpt lat="46.36327" lon="5.85584">
        <ele>534.8</ele>
        <time>2021-10-17T09:16:23Z</time>
      </trkpt>
      <trkpt lat="46.36326" lon="5.85579">
        <ele>535.2</ele>
        <time>2021-10-17T09:16:24Z</time>
      </trkpt>
      <trkpt lat="46.36325" lon="5.85575">
        <ele>535.4</ele>
        <time>2021-10-17T09:16:25Z</time>
      </trkpt>
      <trkpt lat="46.36324" lon="5.8557">
        <ele>535.6</ele>
        <time>2021-10-17T09:16:26Z</time>
      </trkpt>
      <trkpt lat="46.36323" lon="5.85565">
        <ele>535.6</ele>
        <time>2021-10-17T09:16:27Z</time>
      </trkpt>
      <trkpt lat="46.36322" lon="5.85561">
        <ele>536.2</ele>
        <time>2021-10-17T09:16:28Z</time>
      </trkpt>
      <trkpt lat="46.36322" lon="5.85555">
        <ele>536.2</ele>
        <time>2021-10-17T09:16:29Z</time>
      </trkpt>
      <trkpt lat="46.36321" lon="5.85551">
        <ele>536.4</ele>
        <time>2021-10-17T09:16:30Z</time>
      </trkpt>
      <trkpt lat="46.36321" lon="5.85545">
        <ele>536.8</ele>
        <time>2021-10-17T09:16:31Z</time>
      </trkpt>
      <trkpt lat="46.36321" lon="5.8554">
        <ele>537</ele>
        <time>2021-10-17T09:16:32Z</time>
      </trkpt>
      <trkpt lat="46.3632" lon="5.85535">
        <ele>537</ele>
        <time>2021-10-17T09:16:33Z</time>
      </trkpt>
      <trkpt lat="46.36319" lon="5.8553">
        <ele>537.4</ele>
        <time>2021-10-17T09:16:34Z</time>
      </trkpt>
      <trkpt lat="46.36318" lon="5.85525">
        <ele>537.6</ele>
        <time>2021-10-17T09:16:35Z</time>
      </trkpt>
      <trkpt lat="46.36317" lon="5.8552">
        <ele>537.8</ele>
        <time>2021-10-17T09:16:36Z</time>
      </trkpt>
      <trkpt lat="46.36316" lon="5.85515">
        <ele>538</ele>
        <time>2021-10-17T09:16:37Z</time>
      </trkpt>
      <trkpt lat="46.36315" lon="5.85511">
        <ele>538.4</ele>
        <time>2021-10-17T09:16:38Z</time>
      </trkpt>
      <trkpt lat="46.36313" lon="5.85506">
        <ele>538.6</ele>
        <time>2021-10-17T09:16:39Z</time>
      </trkpt>
      <trkpt lat="46.3631" lon="5.85502">
        <ele>538.8</ele>
        <time>2021-10-17T09:16:40Z</time>
      </trkpt>
      <trkpt lat="46.36308" lon="5.85498">
        <ele>539.2</ele>
        <time>2021-10-17T09:16:41Z</time>
      </trkpt>
      <trkpt lat="46.36305" lon="5.85494">
        <ele>539.4</ele>
        <time>2021-10-17T09:16:42Z</time>
      </trkpt>
      <trkpt lat="46.36303" lon="5.85491">
        <ele>539.6</ele>
        <time>2021-10-17T09:16:43Z</time>
      </trkpt>
      <trkpt lat="46.36299" lon="5.85488">
        <ele>540</ele>
        <time>2021-10-17T09:16:44Z</time>
      </trkpt>
      <trkpt lat="46.36295" lon="5.85485">
        <ele>540.2</ele>
        <time>2021-10-17T09:16:45Z</time>
      </trkpt>
      <trkpt lat="46.36291" lon="5.85483">
        <ele>540.2</ele>
        <time>2021-10-17T09:16:46Z</time>
      </trkpt>
      <trkpt lat="46.36287" lon="5.85481">
        <ele>540.6</ele>
        <time>2021-10-17T09:16:47Z</time>
      </trkpt>
      <trkpt lat="46.36283" lon="5.85479">
        <ele>540.8</ele>
        <time>2021-10-17T09:16:48Z</time>
      </trkpt>
      <trkpt lat="46.3628" lon="5.85478">
        <ele>540.8</ele>
        <time>2021-10-17T09:16:49Z</time>
      </trkpt>
      <trkpt lat="46.36276" lon="5.85479">
        <ele>541.2</ele>
        <time>2021-10-17T09:16:50Z</time>
      </trkpt>
      <trkpt lat="46.36272" lon="5.85479">
        <ele>541.4</ele>
        <time>2021-10-17T09:16:51Z</time>
      </trkpt>
      <trkpt lat="46.36269" lon="5.8548">
        <ele>541.6</ele>
        <time>2021-10-17T09:16:52Z</time>
      </trkpt>
      <trkpt lat="46.36265" lon="5.85482">
        <ele>542</ele>
        <time>2021-10-17T09:16:53Z</time>
      </trkpt>
      <trkpt lat="46.36262" lon="5.85484">
        <ele>542.2</ele>
        <time>2021-10-17T09:16:54Z</time>
      </trkpt>
      <trkpt lat="46.36258" lon="5.85487">
        <ele>542.4</ele>
        <time>2021-10-17T09:16:55Z</time>
      </trkpt>
      <trkpt lat="46.36254" lon="5.85489">
        <ele>542.6</ele>
        <time>2021-10-17T09:16:56Z</time>
      </trkpt>
      <trkpt lat="46.36251" lon="5.8549">
        <ele>543</ele>
        <time>2021-10-17T09:16:57Z</time>
      </trkpt>
      <trkpt lat="46.36247" lon="5.85491">
        <ele>543.2</ele>
        <time>2021-10-17T09:16:58Z</time>
      </trkpt>
      <trkpt lat="46.36243" lon="5.85491">
        <ele>543.4</ele>
        <time>2021-10-17T09:16:59Z</time>
      </trkpt>
      <trkpt lat="46.3624" lon="5.8549">
        <ele>543.4</ele>
        <time>2021-10-17T09:17:00Z</time>
      </trkpt>
      <trkpt lat="46.36236" lon="5.85488">
        <ele>543.8</ele>
        <time>2021-10-17T09:17:01Z</time>
      </trkpt>
      <trkpt lat="46.36233" lon="5.85486">
        <ele>544.2</ele>
        <time>2021-10-17T09:17:02Z</time>
      </trkpt>
      <trkpt lat="46.36231" lon="5.85483">
        <ele>544.4</ele>
        <time>2021-10-17T09:17:03Z</time>
      </trkpt>
      <trkpt lat="46.36229" lon="5.8548">
        <ele>544.8</ele>
        <time>2021-10-17T09:17:04Z</time>
      </trkpt>
      <trkpt lat="46.36227" lon="5.85476">
        <ele>545</ele>
        <time>2021-10-17T09:17:05Z</time>
      </trkpt>
      <trkpt lat="46.36225" lon="5.85471">
        <ele>545.2</ele>
        <time>2021-10-17T09:17:06Z</time>
      </trkpt>
      <trkpt lat="46.36223" lon="5.85467">
        <ele>545.6</ele>
        <time>2021-10-17T09:17:07Z</time>
      </trkpt>
      <trkpt lat="46.36221" lon="5.85463">
        <ele>545.8</ele>
        <time>2021-10-17T09:17:08Z</time>
      </trkpt>
      <trkpt lat="46.36218" lon="5.85459">
        <ele>546.2</ele>
        <time>2021-10-17T09:17:09Z</time>
      </trkpt>
      <trkpt lat="46.36216" lon="5.85454">
        <ele>546.4</ele>
        <time>2021-10-17T09:17:10Z</time>
      </trkpt>
      <trkpt lat="46.36214" lon="5.8545">
        <ele>546.6</ele>
        <time>2021-10-17T09:17:11Z</time>
      </trkpt>
      <trkpt lat="46.36212" lon="5.85447">
        <ele>546.8</ele>
        <time>2021-10-17T09:17:12Z</time>
      </trkpt>
      <trkpt lat="46.36209" lon="5.85443">
        <ele>546.8</ele>
        <time>2021-10-17T09:17:13Z</time>
      </trkpt>
      <trkpt lat="46.36206" lon="5.85441">
        <ele>547.2</ele>
        <time>2021-10-17T09:17:14Z</time>
      </trkpt>
      <trkpt lat="46.36202" lon="5.85439">
        <ele>547.4</ele>
        <time>2021-10-17T09:17:15Z</time>
      </trkpt>
      <trkpt lat="46.36199" lon="5.85437">
        <ele>547.6</ele>
        <time>2021-10-17T09:17:16Z</time>
      </trkpt>
      <trkpt lat="46.36196" lon="5.85436">
        <ele>547.8</ele>
        <time>2021-10-17T09:17:17Z</time>
      </trkpt>
      <trkpt lat="46.36193" lon="5.85436">
        <ele>547.8</ele>
        <time>2021-10-17T09:17:18Z</time>
      </trkpt>
      <trkpt lat="46.36189" lon="5.85436">
        <ele>548.2</ele>
        <time>2021-10-17T09:17:19Z</time>
      </trkpt>
      <trkpt lat="46.36185" lon="5.85435">
        <ele>548.4</ele>
        <time>2021-10-17T09:17:20Z</time>
      </trkpt>
      <trkpt lat="46.36182" lon="5.85434">
        <ele>548.4</ele>
        <time>2021-10-17T09:17:21Z</time>
      </trkpt>
      <trkpt lat="46.36178" lon="5.85433">
        <ele>548.8</ele>
        <time>2021-10-17T09:17:22Z</time>
      </trkpt>
      <trkpt lat="46.36175" lon="5.85431">
        <ele>549</ele>
        <time>2021-10-17T09:17:23Z</time>
      </trkpt>
      <trkpt lat="46.36171" lon="5.8543">
        <ele>549.4</ele>
        <time>2021-10-17T09:17:24Z</time>
      </trkpt>
      <trkpt lat="46.36169" lon="5.85428">
        <ele>549.6</ele>
        <time>2021-10-17T09:17:25Z</time>
      </trkpt>
      <trkpt lat="46.36166" lon="5.85426">
        <ele>549.8</ele>
        <time>2021-10-17T09:17:26Z</time>
      </trkpt>
      <trkpt lat="46.36164" lon="5.85422">
        <ele>550</ele>
        <time>2021-10-17T09:17:27Z</time>
      </trkpt>
      <trkpt lat="46.36162" lon="5.85419">
        <ele>550</ele>
        <time>2021-10-17T09:17:28Z</time>
      </trkpt>
      <trkpt lat="46.36159" lon="5.85416">
        <ele>550.4</ele>
        <time>2021-10-17T09:17:29Z</time>
      </trkpt>
      <trkpt lat="46.36157" lon="5.85413">
        <ele>550.4</ele>
        <time>2021-10-17T09:17:30Z</time>
      </trkpt>
      <trkpt lat="46.36155" lon="5.85409">
        <ele>550.6</ele>
        <time>2021-10-17T09:17:31Z</time>
      </trkpt>
      <trkpt lat="46.36153" lon="5.85406">
        <ele>550.6</ele>
        <time>2021-10-17T09:17:32Z</time>
      </trkpt>
      <trkpt lat="46.36151" lon="5.85402">
        <ele>551</ele>
        <time>2021-10-17T09:17:33Z</time>
      </trkpt>
      <trkpt lat="46.36149" lon="5.85398">
        <ele>551.2</ele>
        <time>2021-10-17T09:17:34Z</time>
      </trkpt>
      <trkpt lat="46.36147" lon="5.85394">
        <ele>551.4</ele>
        <time>2021-10-17T09:17:35Z</time>
      </trkpt>
      <trkpt lat="46.36145" lon="5.85391">
        <ele>551.4</ele>
        <time>2021-10-17T09:17:36Z</time>
      </trkpt>
      <trkpt lat="46.36142" lon="5.85387">
        <ele>551.8</ele>
        <time>2021-10-17T09:17:37Z</time>
      </trkpt>
      <trkpt lat="46.3614" lon="5.85383">
        <ele>552</ele>
        <time>2021-10-17T09:17:38Z</time>
      </trkpt>
      <trkpt lat="46.36137" lon="5.8538">
        <ele>552</ele>
        <time>2021-10-17T09:17:39Z</time>
      </trkpt>
      <trkpt lat="46.36135" lon="5.85376">
        <ele>552.4</ele>
        <time>2021-10-17T09:17:40Z</time>
      </trkpt>
      <trkpt lat="46.36132" lon="5.85374">
        <ele>552.6</ele>
        <time>2021-10-17T09:17:41Z</time>
      </trkpt>
      <trkpt lat="46.3613" lon="5.85371">
        <ele>552.6</ele>
        <time>2021-10-17T09:17:42Z</time>
      </trkpt>
      <trkpt lat="46.36127" lon="5.85368">
        <ele>553</ele>
        <time>2021-10-17T09:17:43Z</time>
      </trkpt>
      <trkpt lat="46.36124" lon="5.85364">
        <ele>553.2</ele>
        <time>2021-10-17T09:17:44Z</time>
      </trkpt>
      <trkpt lat="46.36122" lon="5.85361">
        <ele>553.4</ele>
        <time>2021-10-17T09:17:45Z</time>
      </trkpt>
      <trkpt lat="46.36119" lon="5.85358">
        <ele>553.6</ele>
        <time>2021-10-17T09:17:46Z</time>
      </trkpt>
      <trkpt lat="46.36116" lon="5.85355">
        <ele>553.6</ele>
        <time>2021-10-17T09:17:47Z</time>
      </trkpt>
      <trkpt lat="46.36113" lon="5.85352">
        <ele>554</ele>
        <time>2021-10-17T09:17:48Z</time>
      </trkpt>
      <trkpt lat="46.36111" lon="5.85349">
        <ele>554</ele>
        <time>2021-10-17T09:17:49Z</time>
      </trkpt>
      <trkpt lat="46.36108" lon="5.85346">
        <ele>554.2</ele>
        <time>2021-10-17T09:17:50Z</time>
      </trkpt>
      <trkpt lat="46.36105" lon="5.85343">
        <ele>554.4</ele>
        <time>2021-10-17T09:17:51Z</time>
      </trkpt>
      <trkpt lat="46.36103" lon="5.85341">
        <ele>554.4</ele>
        <time>2021-10-17T09:17:52Z</time>
      </trkpt>
      <trkpt lat="46.36101" lon="5.85338">
        <ele>554.8</ele>
        <time>2021-10-17T09:17:53Z</time>
      </trkpt>
      <trkpt lat="46.36099" lon="5.85335">
        <ele>554.8</ele>
        <time>2021-10-17T09:17:54Z</time>
      </trkpt>
      <trkpt lat="46.36096" lon="5.85331">
        <ele>555.2</ele>
        <time>2021-10-17T09:17:55Z</time>
      </trkpt>
      <trkpt lat="46.36094" lon="5.85328">
        <ele>555.2</ele>
        <time>2021-10-17T09:17:56Z</time>
      </trkpt>
      <trkpt lat="46.36092" lon="5.85325">
        <ele>555.6</ele>
        <time>2021-10-17T09:17:57Z</time>
      </trkpt>
      <trkpt lat="46.3609" lon="5.85321">
        <ele>555.8</ele>
        <time>2021-10-17T09:17:58Z</time>
      </trkpt>
      <trkpt lat="46.36088" lon="5.85318">
        <ele>556.2</ele>
        <time>2021-10-17T09:17:59Z</time>
      </trkpt>
      <trkpt lat="46.36085" lon="5.85313">
        <ele>556.4</ele>
        <time>2021-10-17T09:18:00Z</time>
      </trkpt>
      <trkpt lat="46.36083" lon="5.85309">
        <ele>556.4</ele>
        <time>2021-10-17T09:18:01Z</time>
      </trkpt>
      <trkpt lat="46.36081" lon="5.85305">
        <ele>556.8</ele>
        <time>2021-10-17T09:18:02Z</time>
      </trkpt>
      <trkpt lat="46.36078" lon="5.85302">
        <ele>556.8</ele>
        <time>2021-10-17T09:18:03Z</time>
      </trkpt>
      <trkpt lat="46.36076" lon="5.85297">
        <ele>557.2</ele>
        <time>2021-10-17T09:18:04Z</time>
      </trkpt>
      <trkpt lat="46.36073" lon="5.85293">
        <ele>557.6</ele>
        <time>2021-10-17T09:18:05Z</time>
      </trkpt>
      <trkpt lat="46.36071" lon="5.85289">
        <ele>557.6</ele>
        <time>2021-10-17T09:18:06Z</time>
      </trkpt>
      <trkpt lat="46.36068" lon="5.85284">
        <ele>558</ele>
        <time>2021-10-17T09:18:07Z</time>
      </trkpt>
      <trkpt lat="46.36065" lon="5.8528">
        <ele>558.2</ele>
        <time>2021-10-17T09:18:08Z</time>
      </trkpt>
      <trkpt lat="46.36062" lon="5.85276">
        <ele>558.6</ele>
        <time>2021-10-17T09:18:09Z</time>
      </trkpt>
      <trkpt lat="46.3606" lon="5.85272">
        <ele>558.8</ele>
        <time>2021-10-17T09:18:10Z</time>
      </trkpt>
      <trkpt lat="46.36058" lon="5.85267">
        <ele>559</ele>
        <time>2021-10-17T09:18:11Z</time>
      </trkpt>
      <trkpt lat="46.36056" lon="5.85263">
        <ele>559.4</ele>
        <time>2021-10-17T09:18:12Z</time>
      </trkpt>
      <trkpt lat="46.36055" lon="5.85258">
        <ele>559.6</ele>
        <time>2021-10-17T09:18:13Z</time>
      </trkpt>
      <trkpt lat="46.36053" lon="5.85253">
        <ele>560</ele>
        <time>2021-10-17T09:18:14Z</time>
      </trkpt>
      <trkpt lat="46.36052" lon="5.85248">
        <ele>560.2</ele>
        <time>2021-10-17T09:18:15Z</time>
      </trkpt>
      <trkpt lat="46.36051" lon="5.85242">
        <ele>560.4</ele>
        <time>2021-10-17T09:18:16Z</time>
      </trkpt>
      <trkpt lat="46.36051" lon="5.85237">
        <ele>560.8</ele>
        <time>2021-10-17T09:18:17Z</time>
      </trkpt>
      <trkpt lat="46.36051" lon="5.85232">
        <ele>561</ele>
        <time>2021-10-17T09:18:18Z</time>
      </trkpt>
      <trkpt lat="46.36052" lon="5.85227">
        <ele>561.4</ele>
        <time>2021-10-17T09:18:19Z</time>
      </trkpt>
      <trkpt lat="46.36054" lon="5.85223">
        <ele>561.6</ele>
        <time>2021-10-17T09:18:20Z</time>
      </trkpt>
      <trkpt lat="46.36056" lon="5.85219">
        <ele>562</ele>
        <time>2021-10-17T09:18:21Z</time>
      </trkpt>
      <trkpt lat="46.36058" lon="5.85215">
        <ele>562.2</ele>
        <time>2021-10-17T09:18:22Z</time>
      </trkpt>
      <trkpt lat="46.36061" lon="5.85212">
        <ele>562.4</ele>
        <time>2021-10-17T09:18:23Z</time>
      </trkpt>
      <trkpt lat="46.36064" lon="5.85208">
        <ele>562.6</ele>
        <time>2021-10-17T09:18:24Z</time>
      </trkpt>
      <trkpt lat="46.36067" lon="5.85205">
        <ele>563</ele>
        <time>2021-10-17T09:18:25Z</time>
      </trkpt>
      <trkpt lat="46.36069" lon="5.85202">
        <ele>563</ele>
        <time>2021-10-17T09:18:26Z</time>
      </trkpt>
      <trkpt lat="46.36072" lon="5.85198">
        <ele>563.4</ele>
        <time>2021-10-17T09:18:27Z</time>
      </trkpt>
      <trkpt lat="46.36075" lon="5.85194">
        <ele>563.8</ele>
        <time>2021-10-17T09:18:28Z</time>
      </trkpt>
      <trkpt lat="46.36076" lon="5.8519">
        <ele>564</ele>
        <time>2021-10-17T09:18:29Z</time>
      </trkpt>
      <trkpt lat="46.36078" lon="5.85185">
        <ele>564.2</ele>
        <time>2021-10-17T09:18:30Z</time>
      </trkpt>
      <trkpt lat="46.36079" lon="5.8518">
        <ele>564.4</ele>
        <time>2021-10-17T09:18:31Z</time>
      </trkpt>
      <trkpt lat="46.3608" lon="5.85175">
        <ele>564.6</ele>
        <time>2021-10-17T09:18:32Z</time>
      </trkpt>
      <trkpt lat="46.36081" lon="5.8517">
        <ele>564.6</ele>
        <time>2021-10-17T09:18:33Z</time>
      </trkpt>
      <trkpt lat="46.36081" lon="5.85165">
        <ele>565</ele>
        <time>2021-10-17T09:18:34Z</time>
      </trkpt>
      <trkpt lat="46.36081" lon="5.85159">
        <ele>565.4</ele>
        <time>2021-10-17T09:18:35Z</time>
      </trkpt>
      <trkpt lat="46.3608" lon="5.85154">
        <ele>565.6</ele>
        <time>2021-10-17T09:18:36Z</time>
      </trkpt>
      <trkpt lat="46.36079" lon="5.85149">
        <ele>565.6</ele>
        <time>2021-10-17T09:18:37Z</time>
      </trkpt>
      <trkpt lat="46.36077" lon="5.85144">
        <ele>566</ele>
        <time>2021-10-17T09:18:38Z</time>
      </trkpt>
      <trkpt lat="46.36075" lon="5.8514">
        <ele>566</ele>
        <time>2021-10-17T09:18:39Z</time>
      </trkpt>
      <trkpt lat="46.36073" lon="5.85136">
        <ele>566.2</ele>
        <time>2021-10-17T09:18:40Z</time>
      </trkpt>
      <trkpt lat="46.3607" lon="5.85132">
        <ele>566.6</ele>
        <time>2021-10-17T09:18:41Z</time>
      </trkpt>
      <trkpt lat="46.36067" lon="5.85129">
        <ele>566.8</ele>
        <time>2021-10-17T09:18:42Z</time>
      </trkpt>
      <trkpt lat="46.36064" lon="5.85126">
        <ele>567</ele>
        <time>2021-10-17T09:18:43Z</time>
      </trkpt>
      <trkpt lat="46.36061" lon="5.85121">
        <ele>567.4</ele>
        <time>2021-10-17T09:18:44Z</time>
      </trkpt>
      <trkpt lat="46.36058" lon="5.85117">
        <ele>567.6</ele>
        <time>2021-10-17T09:18:45Z</time>
      </trkpt>
      <trkpt lat="46.36056" lon="5.85113">
        <ele>568</ele>
        <time>2021-10-17T09:18:46Z</time>
      </trkpt>
      <trkpt lat="46.36053" lon="5.85109">
        <ele>568.2</ele>
        <time>2021-10-17T09:18:47Z</time>
      </trkpt>
      <trkpt lat="46.36051" lon="5.85105">
        <ele>568.4</ele>
        <time>2021-10-17T09:18:48Z</time>
      </trkpt>
      <trkpt lat="46.36048" lon="5.85101">
        <ele>568.8</ele>
        <time>2021-10-17T09:18:49Z</time>
      </trkpt>
      <trkpt lat="46.36046" lon="5.85097">
        <ele>569</ele>
        <time>2021-10-17T09:18:50Z</time>
      </trkpt>
      <trkpt lat="46.36044" lon="5.85093">
        <ele>569</ele>
        <time>2021-10-17T09:18:51Z</time>
      </trkpt>
      <trkpt lat="46.36041" lon="5.85089">
        <ele>569.4</ele>
        <time>2021-10-17T09:18:52Z</time>
      </trkpt>
      <trkpt lat="46.36039" lon="5.85085">
        <ele>569.6</ele>
        <time>2021-10-17T09:18:53Z</time>
      </trkpt>
      <trkpt lat="46.36036" lon="5.85082">
        <ele>569.6</ele>
        <time>2021-10-17T09:18:54Z</time>
      </trkpt>
      <trkpt lat="46.36034" lon="5.85078">
        <ele>570</ele>
        <time>2021-10-17T09:18:55Z</time>
      </trkpt>
      <trkpt lat="46.36031" lon="5.85074">
        <ele>570</ele>
        <time>2021-10-17T09:18:56Z</time>
      </trkpt>
      <trkpt lat="46.36029" lon="5.85071">
        <ele>570.4</ele>
        <time>2021-10-17T09:18:57Z</time>
      </trkpt>
      <trkpt lat="46.36026" lon="5.85068">
        <ele>570.6</ele>
        <time>2021-10-17T09:18:58Z</time>
      </trkpt>
      <trkpt lat="46.36022" lon="5.85066">
        <ele>570.6</ele>
        <time>2021-10-17T09:18:59Z</time>
      </trkpt>
      <trkpt lat="46.36019" lon="5.85064">
        <ele>571</ele>
        <time>2021-10-17T09:19:00Z</time>
      </trkpt>
      <trkpt lat="46.36016" lon="5.85062">
        <ele>571.4</ele>
        <time>2021-10-17T09:19:01Z</time>
      </trkpt>
      <trkpt lat="46.36012" lon="5.85061">
        <ele>571.6</ele>
        <time>2021-10-17T09:19:02Z</time>
      </trkpt>
      <trkpt lat="46.36009" lon="5.85059">
        <ele>571.6</ele>
        <time>2021-10-17T09:19:03Z</time>
      </trkpt>
      <trkpt lat="46.36006" lon="5.85058">
        <ele>572</ele>
        <time>2021-10-17T09:19:04Z</time>
      </trkpt>
      <trkpt lat="46.36002" lon="5.85056">
        <ele>572</ele>
        <time>2021-10-17T09:19:05Z</time>
      </trkpt>
      <trkpt lat="46.35999" lon="5.85055">
        <ele>572.4</ele>
        <time>2021-10-17T09:19:06Z</time>
      </trkpt>
      <trkpt lat="46.35996" lon="5.85053">
        <ele>572.4</ele>
        <time>2021-10-17T09:19:07Z</time>
      </trkpt>
      <trkpt lat="46.35993" lon="5.85051">
        <ele>572.8</ele>
        <time>2021-10-17T09:19:08Z</time>
      </trkpt>
      <trkpt lat="46.3599" lon="5.85048">
        <ele>573</ele>
        <time>2021-10-17T09:19:09Z</time>
      </trkpt>
      <trkpt lat="46.35988" lon="5.85046">
        <ele>573.4</ele>
        <time>2021-10-17T09:19:10Z</time>
      </trkpt>
      <trkpt lat="46.35986" lon="5.85043">
        <ele>573.6</ele>
        <time>2021-10-17T09:19:11Z</time>
      </trkpt>
      <trkpt lat="46.35983" lon="5.8504">
        <ele>573.6</ele>
        <time>2021-10-17T09:19:12Z</time>
      </trkpt>
      <trkpt lat="46.35981" lon="5.85037">
        <ele>574</ele>
        <time>2021-10-17T09:19:13Z</time>
      </trkpt>
      <trkpt lat="46.35979" lon="5.85034">
        <ele>574.2</ele>
        <time>2021-10-17T09:19:14Z</time>
      </trkpt>
      <trkpt lat="46.35978" lon="5.8503">
        <ele>574.4</ele>
        <time>2021-10-17T09:19:15Z</time>
      </trkpt>
      <trkpt lat="46.35976" lon="5.85026">
        <ele>574.4</ele>
        <time>2021-10-17T09:19:16Z</time>
      </trkpt>
      <trkpt lat="46.35974" lon="5.85022">
        <ele>574.8</ele>
        <time>2021-10-17T09:19:17Z</time>
      </trkpt>
      <trkpt lat="46.35972" lon="5.85019">
        <ele>575.2</ele>
        <time>2021-10-17T09:19:18Z</time>
      </trkpt>
      <trkpt lat="46.3597" lon="5.85015">
        <ele>575.4</ele>
        <time>2021-10-17T09:19:19Z</time>
      </trkpt>
      <trkpt lat="46.35969" lon="5.85011">
        <ele>575.6</ele>
        <time>2021-10-17T09:19:20Z</time>
      </trkpt>
      <trkpt lat="46.35968" lon="5.85007">
        <ele>576</ele>
        <time>2021-10-17T09:19:21Z</time>
      </trkpt>
      <trkpt lat="46.35966" lon="5.85003">
        <ele>576.2</ele>
        <time>2021-10-17T09:19:22Z</time>
      </trkpt>
      <trkpt lat="46.35965" lon="5.84999">
        <ele>576.6</ele>
        <time>2021-10-17T09:19:23Z</time>
      </trkpt>
      <trkpt lat="46.35964" lon="5.84995">
        <ele>576.8</ele>
        <time>2021-10-17T09:19:24Z</time>
      </trkpt>
      <trkpt lat="46.35962" lon="5.84991">
        <ele>577</ele>
        <time>2021-10-17T09:19:25Z</time>
      </trkpt>
      <trkpt lat="46.35961" lon="5.84987">
        <ele>577.2</ele>
        <time>2021-10-17T09:19:26Z</time>
      </trkpt>
      <trkpt lat="46.3596" lon="5.84984">
        <ele>577.4</ele>
        <time>2021-10-17T09:19:27Z</time>
      </trkpt>
      <trkpt lat="46.35959" lon="5.8498">
        <ele>577.6</ele>
        <time>2021-10-17T09:19:28Z</time>
      </trkpt>
      <trkpt lat="46.35958" lon="5.84976">
        <ele>577.6</ele>
        <time>2021-10-17T09:19:29Z</time>
      </trkpt>
      <trkpt lat="46.35957" lon="5.84972">
        <ele>578</ele>
        <time>2021-10-17T09:19:30Z</time>
      </trkpt>
      <trkpt lat="46.35955" lon="5.84968">
        <ele>578.2</ele>
        <time>2021-10-17T09:19:31Z</time>
      </trkpt>
      <trkpt lat="46.35954" lon="5.84964">
        <ele>578.2</ele>
        <time>2021-10-17T09:19:32Z</time>
      </trkpt>
      <trkpt lat="46.35952" lon="5.8496">
        <ele>578.6</ele>
        <time>2021-10-17T09:19:33Z</time>
      </trkpt>
      <trkpt lat="46.35951" lon="5.84956">
        <ele>578.6</ele>
        <time>2021-10-17T09:19:34Z</time>
      </trkpt>
      <trkpt lat="46.35949" lon="5.84952">
        <ele>579</ele>
        <time>2021-10-17T09:19:35Z</time>
      </trkpt>
      <trkpt lat="46.35948" lon="5.84948">
        <ele>579</ele>
        <time>2021-10-17T09:19:36Z</time>
      </trkpt>
      <trkpt lat="46.35946" lon="5.84944">
        <ele>579.4</ele>
        <time>2021-10-17T09:19:37Z</time>
      </trkpt>
      <trkpt lat="46.35945" lon="5.8494">
        <ele>579.4</ele>
        <time>2021-10-17T09:19:38Z</time>
      </trkpt>
      <trkpt lat="46.35944" lon="5.84936">
        <ele>579.6</ele>
        <time>2021-10-17T09:19:39Z</time>
      </trkpt>
      <trkpt lat="46.35943" lon="5.84932">
        <ele>579.6</ele>
        <time>2021-10-17T09:19:40Z</time>
      </trkpt>
      <trkpt lat="46.35942" lon="5.84927">
        <ele>580</ele>
        <time>2021-10-17T09:19:41Z</time>
      </trkpt>
      <trkpt lat="46.35941" lon="5.84923">
        <ele>580</ele>
        <time>2021-10-17T09:19:42Z</time>
      </trkpt>
      <trkpt lat="46.3594" lon="5.84919">
        <ele>580.4</ele>
        <time>2021-10-17T09:19:43Z</time>
      </trkpt>
      <trkpt lat="46.35938" lon="5.84915">
        <ele>580.6</ele>
        <time>2021-10-17T09:19:44Z</time>
      </trkpt>
      <trkpt lat="46.35937" lon="5.84911">
        <ele>580.8</ele>
        <time>2021-10-17T09:19:45Z</time>
      </trkpt>
      <trkpt lat="46.35936" lon="5.84907">
        <ele>581.2</ele>
        <time>2021-10-17T09:19:46Z</time>
      </trkpt>
      <trkpt lat="46.35935" lon="5.84903">
        <ele>581.4</ele>
        <time>2021-10-17T09:19:47Z</time>
      </trkpt>
      <trkpt lat="46.35933" lon="5.84899">
        <ele>581.6</ele>
        <time>2021-10-17T09:19:48Z</time>
      </trkpt>
      <trkpt lat="46.35932" lon="5.84896">
        <ele>582</ele>
        <time>2021-10-17T09:19:49Z</time>
      </trkpt>
      <trkpt lat="46.3593" lon="5.84892">
        <ele>582.2</ele>
        <time>2021-10-17T09:19:50Z</time>
      </trkpt>
      <trkpt lat="46.35928" lon="5.84889">
        <ele>582.2</ele>
        <time>2021-10-17T09:19:51Z</time>
      </trkpt>
      <trkpt lat="46.35927" lon="5.84885">
        <ele>582.4</ele>
        <time>2021-10-17T09:19:52Z</time>
      </trkpt>
      <trkpt lat="46.35925" lon="5.84881">
        <ele>582.6</ele>
        <time>2021-10-17T09:19:53Z</time>
      </trkpt>
      <trkpt lat="46.35923" lon="5.84878">
        <ele>582.6</ele>
        <time>2021-10-17T09:19:54Z</time>
      </trkpt>
      <trkpt lat="46.35921" lon="5.84875">
        <ele>583</ele>
        <time>2021-10-17T09:19:55Z</time>
      </trkpt>
      <trkpt lat="46.35919" lon="5.84872">
        <ele>583</ele>
        <time>2021-10-17T09:19:56Z</time>
      </trkpt>
      <trkpt lat="46.35916" lon="5.84869">
        <ele>583.4</ele>
        <time>2021-10-17T09:19:57Z</time>
      </trkpt>
      <trkpt lat="46.35914" lon="5.84865">
        <ele>583.4</ele>
        <time>2021-10-17T09:19:58Z</time>
      </trkpt>
      <trkpt lat="46.35912" lon="5.84862">
        <ele>583.6</ele>
        <time>2021-10-17T09:19:59Z</time>
      </trkpt>
      <trkpt lat="46.3591" lon="5.84858">
        <ele>583.6</ele>
        <time>2021-10-17T09:20:00Z</time>
      </trkpt>
      <trkpt lat="46.35908" lon="5.84854">
        <ele>583.8</ele>
        <time>2021-10-17T09:20:01Z</time>
      </trkpt>
      <trkpt lat="46.35906" lon="5.8485">
        <ele>583.8</ele>
        <time>2021-10-17T09:20:02Z</time>
      </trkpt>
      <trkpt lat="46.35904" lon="5.84846">
        <ele>584.2</ele>
        <time>2021-10-17T09:20:03Z</time>
      </trkpt>
      <trkpt lat="46.35902" lon="5.84842">
        <ele>584.4</ele>
        <time>2021-10-17T09:20:04Z</time>
      </trkpt>
      <trkpt lat="46.35901" lon="5.84838">
        <ele>584.4</ele>
        <time>2021-10-17T09:20:05Z</time>
      </trkpt>
      <trkpt lat="46.35899" lon="5.84834">
        <ele>584.8</ele>
        <time>2021-10-17T09:20:06Z</time>
      </trkpt>
      <trkpt lat="46.35898" lon="5.8483">
        <ele>585.2</ele>
        <time>2021-10-17T09:20:07Z</time>
      </trkpt>
      <trkpt lat="46.35896" lon="5.84825">
        <ele>585.2</ele>
        <time>2021-10-17T09:20:08Z</time>
      </trkpt>
      <trkpt lat="46.35895" lon="5.84821">
        <ele>585.6</ele>
        <time>2021-10-17T09:20:09Z</time>
      </trkpt>
      <trkpt lat="46.35893" lon="5.84818">
        <ele>585.8</ele>
        <time>2021-10-17T09:20:10Z</time>
      </trkpt>
      <trkpt lat="46.35892" lon="5.84813">
        <ele>586</ele>
        <time>2021-10-17T09:20:11Z</time>
      </trkpt>
      <trkpt lat="46.3589" lon="5.8481">
        <ele>586.2</ele>
        <time>2021-10-17T09:20:12Z</time>
      </trkpt>
      <trkpt lat="46.35889" lon="5.84806">
        <ele>586.6</ele>
        <time>2021-10-17T09:20:13Z</time>
      </trkpt>
      <trkpt lat="46.35887" lon="5.84802">
        <ele>586.6</ele>
        <time>2021-10-17T09:20:14Z</time>
      </trkpt>
      <trkpt lat="46.35886" lon="5.84798">
        <ele>587</ele>
        <time>2021-10-17T09:20:15Z</time>
      </trkpt>
      <trkpt lat="46.35884" lon="5.84795">
        <ele>587</ele>
        <time>2021-10-17T09:20:16Z</time>
      </trkpt>
      <trkpt lat="46.35882" lon="5.84791">
        <ele>587.2</ele>
        <time>2021-10-17T09:20:17Z</time>
      </trkpt>
      <trkpt lat="46.3588" lon="5.84787">
        <ele>587.2</ele>
        <time>2021-10-17T09:20:18Z</time>
      </trkpt>
      <trkpt lat="46.35878" lon="5.84784">
        <ele>587.6</ele>
        <time>2021-10-17T09:20:19Z</time>
      </trkpt>
      <trkpt lat="46.35876" lon="5.8478">
        <ele>587.6</ele>
        <time>2021-10-17T09:20:20Z</time>
      </trkpt>
      <trkpt lat="46.35874" lon="5.84777">
        <ele>588</ele>
        <time>2021-10-17T09:20:21Z</time>
      </trkpt>
      <trkpt lat="46.35871" lon="5.84774">
        <ele>588.2</ele>
        <time>2021-10-17T09:20:22Z</time>
      </trkpt>
      <trkpt lat="46.35868" lon="5.84771">
        <ele>588.4</ele>
        <time>2021-10-17T09:20:23Z</time>
      </trkpt>
      <trkpt lat="46.35866" lon="5.84767">
        <ele>588.6</ele>
        <time>2021-10-17T09:20:24Z</time>
      </trkpt>
      <trkpt lat="46.35863" lon="5.84764">
        <ele>588.6</ele>
        <time>2021-10-17T09:20:25Z</time>
      </trkpt>
      <trkpt lat="46.35861" lon="5.84761">
        <ele>589</ele>
        <time>2021-10-17T09:20:26Z</time>
      </trkpt>
      <trkpt lat="46.35858" lon="5.84758">
        <ele>589</ele>
        <time>2021-10-17T09:20:27Z</time>
      </trkpt>
      <trkpt lat="46.35855" lon="5.84755">
        <ele>589.4</ele>
        <time>2021-10-17T09:20:28Z</time>
      </trkpt>
      <trkpt lat="46.35852" lon="5.84752">
        <ele>589.6</ele>
        <time>2021-10-17T09:20:29Z</time>
      </trkpt>
      <trkpt lat="46.35849" lon="5.84749">
        <ele>589.8</ele>
        <time>2021-10-17T09:20:30Z</time>
      </trkpt>
      <trkpt lat="46.35846" lon="5.84746">
        <ele>589.8</ele>
        <time>2021-10-17T09:20:31Z</time>
      </trkpt>
      <trkpt lat="46.35844" lon="5.84743">
        <ele>590.4</ele>
        <time>2021-10-17T09:20:32Z</time>
      </trkpt>
      <trkpt lat="46.35841" lon="5.8474">
        <ele>590.6</ele>
        <time>2021-10-17T09:20:33Z</time>
      </trkpt>
      <trkpt lat="46.35839" lon="5.84736">
        <ele>590.8</ele>
        <time>2021-10-17T09:20:34Z</time>
      </trkpt>
      <trkpt lat="46.35837" lon="5.84733">
        <ele>591</ele>
        <time>2021-10-17T09:20:35Z</time>
      </trkpt>
      <trkpt lat="46.35834" lon="5.8473">
        <ele>591</ele>
        <time>2021-10-17T09:20:36Z</time>
      </trkpt>
      <trkpt lat="46.35832" lon="5.84727">
        <ele>591.4</ele>
        <time>2021-10-17T09:20:37Z</time>
      </trkpt>
      <trkpt lat="46.35829" lon="5.84724">
        <ele>591.6</ele>
        <time>2021-10-17T09:20:38Z</time>
      </trkpt>
      <trkpt lat="46.35827" lon="5.84721">
        <ele>592</ele>
        <time>2021-10-17T09:20:39Z</time>
      </trkpt>
      <trkpt lat="46.35825" lon="5.84718">
        <ele>592.2</ele>
        <time>2021-10-17T09:20:40Z</time>
      </trkpt>
      <trkpt lat="46.35822" lon="5.84715">
        <ele>592.2</ele>
        <time>2021-10-17T09:20:41Z</time>
      </trkpt>
      <trkpt lat="46.3582" lon="5.84711">
        <ele>592.4</ele>
        <time>2021-10-17T09:20:42Z</time>
      </trkpt>
      <trkpt lat="46.35819" lon="5.84708">
        <ele>592.4</ele>
        <time>2021-10-17T09:20:43Z</time>
      </trkpt>
      <trkpt lat="46.35817" lon="5.84704">
        <ele>592.8</ele>
        <time>2021-10-17T09:20:44Z</time>
      </trkpt>
      <trkpt lat="46.35815" lon="5.847">
        <ele>592.8</ele>
        <time>2021-10-17T09:20:45Z</time>
      </trkpt>
      <trkpt lat="46.35813" lon="5.84697">
        <ele>593.2</ele>
        <time>2021-10-17T09:20:46Z</time>
      </trkpt>
      <trkpt lat="46.35811" lon="5.84693">
        <ele>593.2</ele>
        <time>2021-10-17T09:20:47Z</time>
      </trkpt>
      <trkpt lat="46.35809" lon="5.84689">
        <ele>593.6</ele>
        <time>2021-10-17T09:20:48Z</time>
      </trkpt>
      <trkpt lat="46.35808" lon="5.84685">
        <ele>593.6</ele>
        <time>2021-10-17T09:20:49Z</time>
      </trkpt>
      <trkpt lat="46.35806" lon="5.84681">
        <ele>594</ele>
        <time>2021-10-17T09:20:50Z</time>
      </trkpt>
      <trkpt lat="46.35805" lon="5.84677">
        <ele>594.2</ele>
        <time>2021-10-17T09:20:51Z</time>
      </trkpt>
      <trkpt lat="46.35804" lon="5.84673">
        <ele>594.4</ele>
        <time>2021-10-17T09:20:52Z</time>
      </trkpt>
      <trkpt lat="46.35803" lon="5.84669">
        <ele>594.4</ele>
        <time>2021-10-17T09:20:53Z</time>
      </trkpt>
      <trkpt lat="46.35801" lon="5.84665">
        <ele>594.8</ele>
        <time>2021-10-17T09:20:54Z</time>
      </trkpt>
      <trkpt lat="46.358" lon="5.84661">
        <ele>595</ele>
        <time>2021-10-17T09:20:55Z</time>
      </trkpt>
      <trkpt lat="46.35798" lon="5.84657">
        <ele>595.4</ele>
        <time>2021-10-17T09:20:56Z</time>
      </trkpt>
      <trkpt lat="46.35796" lon="5.84653">
        <ele>595.6</ele>
        <time>2021-10-17T09:20:57Z</time>
      </trkpt>
      <trkpt lat="46.35795" lon="5.84649">
        <ele>595.8</ele>
        <time>2021-10-17T09:20:58Z</time>
      </trkpt>
      <trkpt lat="46.35793" lon="5.84645">
        <ele>595.8</ele>
        <time>2021-10-17T09:20:59Z</time>
      </trkpt>
      <trkpt lat="46.35791" lon="5.84641">
        <ele>596.2</ele>
        <time>2021-10-17T09:21:00Z</time>
      </trkpt>
      <trkpt lat="46.3579" lon="5.84637">
        <ele>596.2</ele>
        <time>2021-10-17T09:21:01Z</time>
      </trkpt>
      <trkpt lat="46.35788" lon="5.84633">
        <ele>596.6</ele>
        <time>2021-10-17T09:21:02Z</time>
      </trkpt>
      <trkpt lat="46.35786" lon="5.84629">
        <ele>596.6</ele>
        <time>2021-10-17T09:21:03Z</time>
      </trkpt>
      <trkpt lat="46.35784" lon="5.84626">
        <ele>596.8</ele>
        <time>2021-10-17T09:21:04Z</time>
      </trkpt>
      <trkpt lat="46.35782" lon="5.84622">
        <ele>597.2</ele>
        <time>2021-10-17T09:21:05Z</time>
      </trkpt>
      <trkpt lat="46.3578" lon="5.84619">
        <ele>597.4</ele>
        <time>2021-10-17T09:21:06Z</time>
      </trkpt>
      <trkpt lat="46.35778" lon="5.84616">
        <ele>597.6</ele>
        <time>2021-10-17T09:21:07Z</time>
      </trkpt>
      <trkpt lat="46.35776" lon="5.84613">
        <ele>597.8</ele>
        <time>2021-10-17T09:21:08Z</time>
      </trkpt>
      <trkpt lat="46.35774" lon="5.8461">
        <ele>598</ele>
        <time>2021-10-17T09:21:09Z</time>
      </trkpt>
      <trkpt lat="46.35772" lon="5.84607">
        <ele>598</ele>
        <time>2021-10-17T09:21:10Z</time>
      </trkpt>
      <trkpt lat="46.3577" lon="5.84604">
        <ele>598.4</ele>
        <time>2021-10-17T09:21:11Z</time>
      </trkpt>
      <trkpt lat="46.35768" lon="5.846">
        <ele>598.6</ele>
        <time>2021-10-17T09:21:12Z</time>
      </trkpt>
      <trkpt lat="46.35766" lon="5.84597">
        <ele>598.6</ele>
        <time>2021-10-17T09:21:13Z</time>
      </trkpt>
      <trkpt lat="46.35763" lon="5.84594">
        <ele>599</ele>
        <time>2021-10-17T09:21:14Z</time>
      </trkpt>
      <trkpt lat="46.35761" lon="5.84591">
        <ele>599</ele>
        <time>2021-10-17T09:21:15Z</time>
      </trkpt>
      <trkpt lat="46.35758" lon="5.84588">
        <ele>599.4</ele>
        <time>2021-10-17T09:21:16Z</time>
      </trkpt>
      <trkpt lat="46.35756" lon="5.84585">
        <ele>599.4</ele>
        <time>2021-10-17T09:21:17Z</time>
      </trkpt>
      <trkpt lat="46.35753" lon="5.84582">
        <ele>599.8</ele>
        <time>2021-10-17T09:21:18Z</time>
      </trkpt>
      <trkpt lat="46.3575" lon="5.84579">
        <ele>599.8</ele>
        <time>2021-10-17T09:21:19Z</time>
      </trkpt>
      <trkpt lat="46.35748" lon="5.84575">
        <ele>600.2</ele>
        <time>2021-10-17T09:21:20Z</time>
      </trkpt>
      <trkpt lat="46.35745" lon="5.84572">
        <ele>600.4</ele>
        <time>2021-10-17T09:21:21Z</time>
      </trkpt>
      <trkpt lat="46.35743" lon="5.84569">
        <ele>600.6</ele>
        <time>2021-10-17T09:21:22Z</time>
      </trkpt>
      <trkpt lat="46.3574" lon="5.84567">
        <ele>600.6</ele>
        <time>2021-10-17T09:21:23Z</time>
      </trkpt>
      <trkpt lat="46.35737" lon="5.84566">
        <ele>601</ele>
        <time>2021-10-17T09:21:24Z</time>
      </trkpt>
      <trkpt lat="46.35734" lon="5.84565">
        <ele>601</ele>
        <time>2021-10-17T09:21:25Z</time>
      </trkpt>
      <trkpt lat="46.35731" lon="5.84565">
        <ele>601.2</ele>
        <time>2021-10-17T09:21:26Z</time>
      </trkpt>
      <trkpt lat="46.35727" lon="5.84566">
        <ele>601.4</ele>
        <time>2021-10-17T09:21:27Z</time>
      </trkpt>
      <trkpt lat="46.35724" lon="5.84566">
        <ele>601.4</ele>
        <time>2021-10-17T09:21:28Z</time>
      </trkpt>
      <trkpt lat="46.35721" lon="5.84566">
        <ele>601.8</ele>
        <time>2021-10-17T09:21:29Z</time>
      </trkpt>
      <trkpt lat="46.35718" lon="5.84566">
        <ele>602</ele>
        <time>2021-10-17T09:21:30Z</time>
      </trkpt>
      <trkpt lat="46.35715" lon="5.84566">
        <ele>602.4</ele>
        <time>2021-10-17T09:21:31Z</time>
      </trkpt>
      <trkpt lat="46.35712" lon="5.84566">
        <ele>602.6</ele>
        <time>2021-10-17T09:21:32Z</time>
      </trkpt>
      <trkpt lat="46.35709" lon="5.84567">
        <ele>602.6</ele>
        <time>2021-10-17T09:21:33Z</time>
      </trkpt>
      <trkpt lat="46.35707" lon="5.84567">
        <ele>602.8</ele>
        <time>2021-10-17T09:21:34Z</time>
      </trkpt>
      <trkpt lat="46.35704" lon="5.84568">
        <ele>602.8</ele>
        <time>2021-10-17T09:21:35Z</time>
      </trkpt>
      <trkpt lat="46.35701" lon="5.84567">
        <ele>603.2</ele>
        <time>2021-10-17T09:21:36Z</time>
      </trkpt>
      <trkpt lat="46.35698" lon="5.84567">
        <ele>603.2</ele>
        <time>2021-10-17T09:21:37Z</time>
      </trkpt>
      <trkpt lat="46.35695" lon="5.84567">
        <ele>603.6</ele>
        <time>2021-10-17T09:21:38Z</time>
      </trkpt>
      <trkpt lat="46.35693" lon="5.84566">
        <ele>603.8</ele>
        <time>2021-10-17T09:21:39Z</time>
      </trkpt>
      <trkpt lat="46.3569" lon="5.84565">
        <ele>603.8</ele>
        <time>2021-10-17T09:21:40Z</time>
      </trkpt>
      <trkpt lat="46.35687" lon="5.84563">
        <ele>604.2</ele>
        <time>2021-10-17T09:21:41Z</time>
      </trkpt>
      <trkpt lat="46.35684" lon="5.8456">
        <ele>604.6</ele>
        <time>2021-10-17T09:21:42Z</time>
      </trkpt>
      <trkpt lat="46.35681" lon="5.84557">
        <ele>604.8</ele>
        <time>2021-10-17T09:21:43Z</time>
      </trkpt>
      <trkpt lat="46.35678" lon="5.84554">
        <ele>605</ele>
        <time>2021-10-17T09:21:44Z</time>
      </trkpt>
      <trkpt lat="46.35676" lon="5.84551">
        <ele>605.2</ele>
        <time>2021-10-17T09:21:45Z</time>
      </trkpt>
      <trkpt lat="46.35676" lon="5.84551">
        <ele>605.6</ele>
        <time>2021-10-17T09:21:46Z</time>
      </trkpt>
      <trkpt lat="46.35673" lon="5.84547">
        <ele>605.8</ele>
        <time>2021-10-17T09:21:47Z</time>
      </trkpt>
      <trkpt lat="46.35671" lon="5.84544">
        <ele>605.8</ele>
        <time>2021-10-17T09:21:48Z</time>
      </trkpt>
      <trkpt lat="46.35666" lon="5.84537">
        <ele>606</ele>
        <time>2021-10-17T09:21:49Z</time>
      </trkpt>
      <trkpt lat="46.35666" lon="5.84537">
        <ele>606</ele>
        <time>2021-10-17T09:21:50Z</time>
      </trkpt>
      <trkpt lat="46.35661" lon="5.8453">
        <ele>606.4</ele>
        <time>2021-10-17T09:21:51Z</time>
      </trkpt>
      <trkpt lat="46.35659" lon="5.84527">
        <ele>606.4</ele>
        <time>2021-10-17T09:21:52Z</time>
      </trkpt>
      <trkpt lat="46.35657" lon="5.84525">
        <ele>606.8</ele>
        <time>2021-10-17T09:21:53Z</time>
      </trkpt>
      <trkpt lat="46.35657" lon="5.84525">
        <ele>607</ele>
        <time>2021-10-17T09:21:54Z</time>
      </trkpt>
      <trkpt lat="46.35652" lon="5.8452">
        <ele>607.2</ele>
        <time>2021-10-17T09:21:55Z</time>
      </trkpt>
      <trkpt lat="46.35652" lon="5.8452">
        <ele>607.6</ele>
        <time>2021-10-17T09:21:56Z</time>
      </trkpt>
      <trkpt lat="46.35649" lon="5.84517">
        <ele>607.8</ele>
        <time>2021-10-17T09:21:57Z</time>
      </trkpt>
      <trkpt lat="46.35646" lon="5.84515">
        <ele>608</ele>
        <time>2021-10-17T09:21:58Z</time>
      </trkpt>
      <trkpt lat="46.35643" lon="5.84513">
        <ele>608.2</ele>
        <time>2021-10-17T09:21:59Z</time>
      </trkpt>
      <trkpt lat="46.3564" lon="5.84511">
        <ele>608.4</ele>
        <time>2021-10-17T09:22:00Z</time>
      </trkpt>
      <trkpt lat="46.35638" lon="5.84508">
        <ele>608.4</ele>
        <time>2021-10-17T09:22:01Z</time>
      </trkpt>
      <trkpt lat="46.35635" lon="5.84506">
        <ele>608.8</ele>
        <time>2021-10-17T09:22:02Z</time>
      </trkpt>
      <trkpt lat="46.35632" lon="5.84503">
        <ele>608.8</ele>
        <time>2021-10-17T09:22:03Z</time>
      </trkpt>
      <trkpt lat="46.35629" lon="5.84501">
        <ele>609.2</ele>
        <time>2021-10-17T09:22:04Z</time>
      </trkpt>
      <trkpt lat="46.35626" lon="5.84498">
        <ele>609.2</ele>
        <time>2021-10-17T09:22:05Z</time>
      </trkpt>
      <trkpt lat="46.35623" lon="5.84496">
        <ele>609.6</ele>
        <time>2021-10-17T09:22:06Z</time>
      </trkpt>
      <trkpt lat="46.3562" lon="5.84493">
        <ele>609.8</ele>
        <time>2021-10-17T09:22:07Z</time>
      </trkpt>
      <trkpt lat="46.35617" lon="5.8449">
        <ele>610</ele>
        <time>2021-10-17T09:22:08Z</time>
      </trkpt>
      <trkpt lat="46.35614" lon="5.84488">
        <ele>610.2</ele>
        <time>2021-10-17T09:22:09Z</time>
      </trkpt>
      <trkpt lat="46.35612" lon="5.84485">
        <ele>610.2</ele>
        <time>2021-10-17T09:22:10Z</time>
      </trkpt>
      <trkpt lat="46.35609" lon="5.84483">
        <ele>610.6</ele>
        <time>2021-10-17T09:22:11Z</time>
      </trkpt>
      <trkpt lat="46.35606" lon="5.8448">
        <ele>610.8</ele>
        <time>2021-10-17T09:22:12Z</time>
      </trkpt>
      <trkpt lat="46.35603" lon="5.84478">
        <ele>610.8</ele>
        <time>2021-10-17T09:22:13Z</time>
      </trkpt>
      <trkpt lat="46.356" lon="5.84476">
        <ele>611.2</ele>
        <time>2021-10-17T09:22:14Z</time>
      </trkpt>
      <trkpt lat="46.35597" lon="5.84474">
        <ele>611.2</ele>
        <time>2021-10-17T09:22:15Z</time>
      </trkpt>
      <trkpt lat="46.35594" lon="5.84472">
        <ele>611.6</ele>
        <time>2021-10-17T09:22:16Z</time>
      </trkpt>
      <trkpt lat="46.35591" lon="5.84471">
        <ele>611.6</ele>
        <time>2021-10-17T09:22:17Z</time>
      </trkpt>
      <trkpt lat="46.35588" lon="5.8447">
        <ele>611.8</ele>
        <time>2021-10-17T09:22:18Z</time>
      </trkpt>
      <trkpt lat="46.35585" lon="5.8447">
        <ele>611.8</ele>
        <time>2021-10-17T09:22:19Z</time>
      </trkpt>
      <trkpt lat="46.35581" lon="5.84469">
        <ele>612.2</ele>
        <time>2021-10-17T09:22:20Z</time>
      </trkpt>
      <trkpt lat="46.35578" lon="5.84468">
        <ele>612.4</ele>
        <time>2021-10-17T09:22:21Z</time>
      </trkpt>
      <trkpt lat="46.35575" lon="5.84468">
        <ele>612.4</ele>
        <time>2021-10-17T09:22:22Z</time>
      </trkpt>
      <trkpt lat="46.35572" lon="5.84467">
        <ele>612.8</ele>
        <time>2021-10-17T09:22:23Z</time>
      </trkpt>
      <trkpt lat="46.35569" lon="5.84467">
        <ele>612.8</ele>
        <time>2021-10-17T09:22:24Z</time>
      </trkpt>
      <trkpt lat="46.35566" lon="5.84466">
        <ele>613</ele>
        <time>2021-10-17T09:22:25Z</time>
      </trkpt>
      <trkpt lat="46.35563" lon="5.84466">
        <ele>613</ele>
        <time>2021-10-17T09:22:26Z</time>
      </trkpt>
      <trkpt lat="46.35559" lon="5.84467">
        <ele>613.4</ele>
        <time>2021-10-17T09:22:27Z</time>
      </trkpt>
      <trkpt lat="46.35556" lon="5.84467">
        <ele>613.4</ele>
        <time>2021-10-17T09:22:28Z</time>
      </trkpt>
      <trkpt lat="46.35553" lon="5.84467">
        <ele>613.6</ele>
        <time>2021-10-17T09:22:29Z</time>
      </trkpt>
      <trkpt lat="46.35549" lon="5.84467">
        <ele>614</ele>
        <time>2021-10-17T09:22:30Z</time>
      </trkpt>
      <trkpt lat="46.35546" lon="5.84467">
        <ele>614.2</ele>
        <time>2021-10-17T09:22:31Z</time>
      </trkpt>
      <trkpt lat="46.35543" lon="5.84467">
        <ele>614.4</ele>
        <time>2021-10-17T09:22:32Z</time>
      </trkpt>
      <trkpt lat="46.35539" lon="5.84467">
        <ele>614.6</ele>
        <time>2021-10-17T09:22:33Z</time>
      </trkpt>
      <trkpt lat="46.35536" lon="5.84468">
        <ele>614.8</ele>
        <time>2021-10-17T09:22:34Z</time>
      </trkpt>
      <trkpt lat="46.35533" lon="5.84469">
        <ele>614.8</ele>
        <time>2021-10-17T09:22:35Z</time>
      </trkpt>
      <trkpt lat="46.35529" lon="5.84469">
        <ele>615.2</ele>
        <time>2021-10-17T09:22:36Z</time>
      </trkpt>
      <trkpt lat="46.35526" lon="5.84469">
        <ele>615.2</ele>
        <time>2021-10-17T09:22:37Z</time>
      </trkpt>
      <trkpt lat="46.35523" lon="5.84469">
        <ele>615.6</ele>
        <time>2021-10-17T09:22:38Z</time>
      </trkpt>
      <trkpt lat="46.3552" lon="5.84469">
        <ele>615.8</ele>
        <time>2021-10-17T09:22:39Z</time>
      </trkpt>
      <trkpt lat="46.35517" lon="5.84469">
        <ele>616.2</ele>
        <time>2021-10-17T09:22:40Z</time>
      </trkpt>
      <trkpt lat="46.35513" lon="5.84469">
        <ele>616.4</ele>
        <time>2021-10-17T09:22:41Z</time>
      </trkpt>
      <trkpt lat="46.3551" lon="5.8447">
        <ele>616.4</ele>
        <time>2021-10-17T09:22:42Z</time>
      </trkpt>
      <trkpt lat="46.35507" lon="5.8447">
        <ele>616.6</ele>
        <time>2021-10-17T09:22:43Z</time>
      </trkpt>
      <trkpt lat="46.35504" lon="5.84471">
        <ele>616.6</ele>
        <time>2021-10-17T09:22:44Z</time>
      </trkpt>
      <trkpt lat="46.35501" lon="5.84472">
        <ele>617</ele>
        <time>2021-10-17T09:22:45Z</time>
      </trkpt>
      <trkpt lat="46.35497" lon="5.84472">
        <ele>617.2</ele>
        <time>2021-10-17T09:22:46Z</time>
      </trkpt>
      <trkpt lat="46.35494" lon="5.84471">
        <ele>617.4</ele>
        <time>2021-10-17T09:22:47Z</time>
      </trkpt>
      <trkpt lat="46.35491" lon="5.84471">
        <ele>617.4</ele>
        <time>2021-10-17T09:22:48Z</time>
      </trkpt>
      <trkpt lat="46.35488" lon="5.84471">
        <ele>617.8</ele>
        <time>2021-10-17T09:22:49Z</time>
      </trkpt>
      <trkpt lat="46.35485" lon="5.8447">
        <ele>618</ele>
        <time>2021-10-17T09:22:50Z</time>
      </trkpt>
      <trkpt lat="46.35481" lon="5.8447">
        <ele>618.2</ele>
        <time>2021-10-17T09:22:51Z</time>
      </trkpt>
      <trkpt lat="46.35478" lon="5.84469">
        <ele>618.6</ele>
        <time>2021-10-17T09:22:52Z</time>
      </trkpt>
      <trkpt lat="46.35475" lon="5.84467">
        <ele>618.8</ele>
        <time>2021-10-17T09:22:53Z</time>
      </trkpt>
      <trkpt lat="46.35472" lon="5.84466">
        <ele>619</ele>
        <time>2021-10-17T09:22:54Z</time>
      </trkpt>
      <trkpt lat="46.35469" lon="5.84464">
        <ele>619.2</ele>
        <time>2021-10-17T09:22:55Z</time>
      </trkpt>
      <trkpt lat="46.35466" lon="5.84462">
        <ele>619.4</ele>
        <time>2021-10-17T09:22:56Z</time>
      </trkpt>
      <trkpt lat="46.35463" lon="5.84461">
        <ele>619.6</ele>
        <time>2021-10-17T09:22:57Z</time>
      </trkpt>
      <trkpt lat="46.35459" lon="5.84459">
        <ele>620</ele>
        <time>2021-10-17T09:22:58Z</time>
      </trkpt>
      <trkpt lat="46.35456" lon="5.84458">
        <ele>620.2</ele>
        <time>2021-10-17T09:22:59Z</time>
      </trkpt>
      <trkpt lat="46.35453" lon="5.84456">
        <ele>620.2</ele>
        <time>2021-10-17T09:23:00Z</time>
      </trkpt>
      <trkpt lat="46.3545" lon="5.84454">
        <ele>620.6</ele>
        <time>2021-10-17T09:23:01Z</time>
      </trkpt>
      <trkpt lat="46.35447" lon="5.84453">
        <ele>620.6</ele>
        <time>2021-10-17T09:23:02Z</time>
      </trkpt>
      <trkpt lat="46.35444" lon="5.84451">
        <ele>621</ele>
        <time>2021-10-17T09:23:03Z</time>
      </trkpt>
      <trkpt lat="46.3544" lon="5.84449">
        <ele>621</ele>
        <time>2021-10-17T09:23:04Z</time>
      </trkpt>
      <trkpt lat="46.35437" lon="5.84447">
        <ele>621.4</ele>
        <time>2021-10-17T09:23:05Z</time>
      </trkpt>
      <trkpt lat="46.35434" lon="5.84445">
        <ele>621.6</ele>
        <time>2021-10-17T09:23:06Z</time>
      </trkpt>
      <trkpt lat="46.35432" lon="5.84443">
        <ele>621.8</ele>
        <time>2021-10-17T09:23:07Z</time>
      </trkpt>
      <trkpt lat="46.35429" lon="5.84441">
        <ele>622</ele>
        <time>2021-10-17T09:23:08Z</time>
      </trkpt>
      <trkpt lat="46.35426" lon="5.84439">
        <ele>622.4</ele>
        <time>2021-10-17T09:23:09Z</time>
      </trkpt>
      <trkpt lat="46.35423" lon="5.84437">
        <ele>622.4</ele>
        <time>2021-10-17T09:23:10Z</time>
      </trkpt>
      <trkpt lat="46.3542" lon="5.84435">
        <ele>622.8</ele>
        <time>2021-10-17T09:23:11Z</time>
      </trkpt>
      <trkpt lat="46.35418" lon="5.84432">
        <ele>623</ele>
        <time>2021-10-17T09:23:12Z</time>
      </trkpt>
      <trkpt lat="46.35415" lon="5.8443">
        <ele>623.2</ele>
        <time>2021-10-17T09:23:13Z</time>
      </trkpt>
      <trkpt lat="46.35413" lon="5.84426">
        <ele>623.4</ele>
        <time>2021-10-17T09:23:14Z</time>
      </trkpt>
      <trkpt lat="46.3541" lon="5.84423">
        <ele>623.4</ele>
        <time>2021-10-17T09:23:15Z</time>
      </trkpt>
      <trkpt lat="46.35408" lon="5.8442">
        <ele>623.8</ele>
        <time>2021-10-17T09:23:16Z</time>
      </trkpt>
      <trkpt lat="46.35406" lon="5.84416">
        <ele>624.2</ele>
        <time>2021-10-17T09:23:17Z</time>
      </trkpt>
      <trkpt lat="46.35404" lon="5.84412">
        <ele>624.4</ele>
        <time>2021-10-17T09:23:18Z</time>
      </trkpt>
      <trkpt lat="46.35402" lon="5.84408">
        <ele>624.6</ele>
        <time>2021-10-17T09:23:19Z</time>
      </trkpt>
      <trkpt lat="46.354" lon="5.84404">
        <ele>625</ele>
        <time>2021-10-17T09:23:20Z</time>
      </trkpt>
      <trkpt lat="46.35398" lon="5.84399">
        <ele>625.2</ele>
        <time>2021-10-17T09:23:21Z</time>
      </trkpt>
      <trkpt lat="46.35397" lon="5.84395">
        <ele>625.4</ele>
        <time>2021-10-17T09:23:22Z</time>
      </trkpt>
      <trkpt lat="46.35396" lon="5.8439">
        <ele>625.8</ele>
        <time>2021-10-17T09:23:23Z</time>
      </trkpt>
      <trkpt lat="46.35394" lon="5.84386">
        <ele>626</ele>
        <time>2021-10-17T09:23:24Z</time>
      </trkpt>
      <trkpt lat="46.35393" lon="5.84381">
        <ele>626.2</ele>
        <time>2021-10-17T09:23:25Z</time>
      </trkpt>
      <trkpt lat="46.35393" lon="5.84377">
        <ele>626.4</ele>
        <time>2021-10-17T09:23:26Z</time>
      </trkpt>
      <trkpt lat="46.35392" lon="5.84372">
        <ele>626.4</ele>
        <time>2021-10-17T09:23:27Z</time>
      </trkpt>
      <trkpt lat="46.35391" lon="5.84367">
        <ele>626.8</ele>
        <time>2021-10-17T09:23:28Z</time>
      </trkpt>
      <trkpt lat="46.3539" lon="5.84363">
        <ele>626.8</ele>
        <time>2021-10-17T09:23:29Z</time>
      </trkpt>
      <trkpt lat="46.35389" lon="5.84358">
        <ele>627.2</ele>
        <time>2021-10-17T09:23:30Z</time>
      </trkpt>
      <trkpt lat="46.35389" lon="5.84353">
        <ele>627.2</ele>
        <time>2021-10-17T09:23:31Z</time>
      </trkpt>
      <trkpt lat="46.35388" lon="5.84349">
        <ele>627.6</ele>
        <time>2021-10-17T09:23:32Z</time>
      </trkpt>
      <trkpt lat="46.35387" lon="5.84344">
        <ele>627.6</ele>
        <time>2021-10-17T09:23:33Z</time>
      </trkpt>
      <trkpt lat="46.35387" lon="5.8434">
        <ele>628</ele>
        <time>2021-10-17T09:23:34Z</time>
      </trkpt>
      <trkpt lat="46.35386" lon="5.84335">
        <ele>628</ele>
        <time>2021-10-17T09:23:35Z</time>
      </trkpt>
      <trkpt lat="46.35385" lon="5.84331">
        <ele>628.2</ele>
        <time>2021-10-17T09:23:36Z</time>
      </trkpt>
      <trkpt lat="46.35384" lon="5.84327">
        <ele>628.2</ele>
        <time>2021-10-17T09:23:37Z</time>
      </trkpt>
      <trkpt lat="46.35382" lon="5.84323">
        <ele>628.8</ele>
        <time>2021-10-17T09:23:38Z</time>
      </trkpt>
      <trkpt lat="46.35381" lon="5.84318">
        <ele>628.8</ele>
        <time>2021-10-17T09:23:39Z</time>
      </trkpt>
      <trkpt lat="46.3538" lon="5.84314">
        <ele>629</ele>
        <time>2021-10-17T09:23:40Z</time>
      </trkpt>
      <trkpt lat="46.35378" lon="5.8431">
        <ele>629.2</ele>
        <time>2021-10-17T09:23:41Z</time>
      </trkpt>
      <trkpt lat="46.35377" lon="5.84306">
        <ele>629.6</ele>
        <time>2021-10-17T09:23:42Z</time>
      </trkpt>
      <trkpt lat="46.35375" lon="5.84302">
        <ele>629.8</ele>
        <time>2021-10-17T09:23:43Z</time>
      </trkpt>
      <trkpt lat="46.35374" lon="5.84298">
        <ele>630</ele>
        <time>2021-10-17T09:23:44Z</time>
      </trkpt>
      <trkpt lat="46.35373" lon="5.84294">
        <ele>630.2</ele>
        <time>2021-10-17T09:23:45Z</time>
      </trkpt>
      <trkpt lat="46.35371" lon="5.84291">
        <ele>630.6</ele>
        <time>2021-10-17T09:23:46Z</time>
      </trkpt>
      <trkpt lat="46.3537" lon="5.84287">
        <ele>630.8</ele>
        <time>2021-10-17T09:23:47Z</time>
      </trkpt>
      <trkpt lat="46.35368" lon="5.84283">
        <ele>631</ele>
        <time>2021-10-17T09:23:48Z</time>
      </trkpt>
      <trkpt lat="46.35367" lon="5.84279">
        <ele>631.2</ele>
        <time>2021-10-17T09:23:49Z</time>
      </trkpt>
      <trkpt lat="46.35365" lon="5.84275">
        <ele>631.2</ele>
        <time>2021-10-17T09:23:50Z</time>
      </trkpt>
      <trkpt lat="46.35364" lon="5.84271">
        <ele>631.2</ele>
        <time>2021-10-17T09:23:51Z</time>
      </trkpt>
      <trkpt lat="46.35362" lon="5.84268">
        <ele>631.8</ele>
        <time>2021-10-17T09:23:52Z</time>
      </trkpt>
      <trkpt lat="46.3536" lon="5.84264">
        <ele>631.8</ele>
        <time>2021-10-17T09:23:53Z</time>
      </trkpt>
      <trkpt lat="46.35358" lon="5.8426">
        <ele>632</ele>
        <time>2021-10-17T09:23:54Z</time>
      </trkpt>
      <trkpt lat="46.35356" lon="5.84256">
        <ele>632</ele>
        <time>2021-10-17T09:23:55Z</time>
      </trkpt>
      <trkpt lat="46.35354" lon="5.84253">
        <ele>632.4</ele>
        <time>2021-10-17T09:23:56Z</time>
      </trkpt>
      <trkpt lat="46.35352" lon="5.8425">
        <ele>632.4</ele>
        <time>2021-10-17T09:23:57Z</time>
      </trkpt>
      <trkpt lat="46.3535" lon="5.84247">
        <ele>632.8</ele>
        <time>2021-10-17T09:23:58Z</time>
      </trkpt>
      <trkpt lat="46.35348" lon="5.84244">
        <ele>632.8</ele>
        <time>2021-10-17T09:23:59Z</time>
      </trkpt>
      <trkpt lat="46.35345" lon="5.84241">
        <ele>633</ele>
        <time>2021-10-17T09:24:00Z</time>
      </trkpt>
      <trkpt lat="46.35343" lon="5.84239">
        <ele>633.4</ele>
        <time>2021-10-17T09:24:01Z</time>
      </trkpt>
      <trkpt lat="46.3534" lon="5.84237">
        <ele>633.4</ele>
        <time>2021-10-17T09:24:02Z</time>
      </trkpt>
      <trkpt lat="46.35338" lon="5.84234">
        <ele>633.6</ele>
        <time>2021-10-17T09:24:03Z</time>
      </trkpt>
      <trkpt lat="46.35336" lon="5.84232">
        <ele>633.6</ele>
        <time>2021-10-17T09:24:04Z</time>
      </trkpt>
      <trkpt lat="46.35333" lon="5.84229">
        <ele>634</ele>
        <time>2021-10-17T09:24:05Z</time>
      </trkpt>
      <trkpt lat="46.35331" lon="5.84226">
        <ele>634</ele>
        <time>2021-10-17T09:24:06Z</time>
      </trkpt>
      <trkpt lat="46.35329" lon="5.84223">
        <ele>634.2</ele>
        <time>2021-10-17T09:24:07Z</time>
      </trkpt>
      <trkpt lat="46.35327" lon="5.8422">
        <ele>634.4</ele>
        <time>2021-10-17T09:24:08Z</time>
      </trkpt>
      <trkpt lat="46.35325" lon="5.84217">
        <ele>634.4</ele>
        <time>2021-10-17T09:24:09Z</time>
      </trkpt>
      <trkpt lat="46.35323" lon="5.84215">
        <ele>634.8</ele>
        <time>2021-10-17T09:24:10Z</time>
      </trkpt>
      <trkpt lat="46.35321" lon="5.84212">
        <ele>635</ele>
        <time>2021-10-17T09:24:11Z</time>
      </trkpt>
      <trkpt lat="46.35319" lon="5.84208">
        <ele>635.2</ele>
        <time>2021-10-17T09:24:12Z</time>
      </trkpt>
      <trkpt lat="46.35318" lon="5.84205">
        <ele>635.2</ele>
        <time>2021-10-17T09:24:13Z</time>
      </trkpt>
      <trkpt lat="46.35316" lon="5.84202">
        <ele>635.6</ele>
        <time>2021-10-17T09:24:14Z</time>
      </trkpt>
      <trkpt lat="46.35315" lon="5.84198">
        <ele>635.8</ele>
        <time>2021-10-17T09:24:15Z</time>
      </trkpt>
      <trkpt lat="46.35313" lon="5.84195">
        <ele>635.8</ele>
        <time>2021-10-17T09:24:16Z</time>
      </trkpt>
      <trkpt lat="46.35311" lon="5.84191">
        <ele>636.2</ele>
        <time>2021-10-17T09:24:17Z</time>
      </trkpt>
      <trkpt lat="46.3531" lon="5.84188">
        <ele>636.4</ele>
        <time>2021-10-17T09:24:18Z</time>
      </trkpt>
      <trkpt lat="46.35308" lon="5.84184">
        <ele>636.8</ele>
        <time>2021-10-17T09:24:19Z</time>
      </trkpt>
      <trkpt lat="46.35307" lon="5.8418">
        <ele>636.8</ele>
        <time>2021-10-17T09:24:20Z</time>
      </trkpt>
      <trkpt lat="46.35305" lon="5.84177">
        <ele>637</ele>
        <time>2021-10-17T09:24:21Z</time>
      </trkpt>
      <trkpt lat="46.35304" lon="5.84173">
        <ele>637</ele>
        <time>2021-10-17T09:24:22Z</time>
      </trkpt>
      <trkpt lat="46.35302" lon="5.84169">
        <ele>637.4</ele>
        <time>2021-10-17T09:24:23Z</time>
      </trkpt>
      <trkpt lat="46.353" lon="5.84166">
        <ele>637.6</ele>
        <time>2021-10-17T09:24:24Z</time>
      </trkpt>
      <trkpt lat="46.35299" lon="5.84162">
        <ele>637.6</ele>
        <time>2021-10-17T09:24:25Z</time>
      </trkpt>
      <trkpt lat="46.35297" lon="5.84158">
        <ele>638</ele>
        <time>2021-10-17T09:24:26Z</time>
      </trkpt>
      <trkpt lat="46.35295" lon="5.84155">
        <ele>638</ele>
        <time>2021-10-17T09:24:27Z</time>
      </trkpt>
      <trkpt lat="46.35293" lon="5.84151">
        <ele>638.2</ele>
        <time>2021-10-17T09:24:28Z</time>
      </trkpt>
      <trkpt lat="46.35292" lon="5.84147">
        <ele>638.2</ele>
        <time>2021-10-17T09:24:29Z</time>
      </trkpt>
      <trkpt lat="46.3529" lon="5.84144">
        <ele>638.6</ele>
        <time>2021-10-17T09:24:30Z</time>
      </trkpt>
      <trkpt lat="46.35288" lon="5.8414">
        <ele>638.8</ele>
        <time>2021-10-17T09:24:31Z</time>
      </trkpt>
      <trkpt lat="46.35287" lon="5.84136">
        <ele>638.8</ele>
        <time>2021-10-17T09:24:32Z</time>
      </trkpt>
      <trkpt lat="46.35285" lon="5.84133">
        <ele>639.2</ele>
        <time>2021-10-17T09:24:33Z</time>
      </trkpt>
      <trkpt lat="46.35283" lon="5.8413">
        <ele>639.2</ele>
        <time>2021-10-17T09:24:34Z</time>
      </trkpt>
      <trkpt lat="46.35281" lon="5.84126">
        <ele>639.6</ele>
        <time>2021-10-17T09:24:35Z</time>
      </trkpt>
      <trkpt lat="46.3528" lon="5.84122">
        <ele>639.8</ele>
        <time>2021-10-17T09:24:36Z</time>
      </trkpt>
      <trkpt lat="46.35278" lon="5.84118">
        <ele>639.8</ele>
        <time>2021-10-17T09:24:37Z</time>
      </trkpt>
      <trkpt lat="46.35277" lon="5.84114">
        <ele>640</ele>
        <time>2021-10-17T09:24:38Z</time>
      </trkpt>
      <trkpt lat="46.35275" lon="5.8411">
        <ele>640</ele>
        <time>2021-10-17T09:24:39Z</time>
      </trkpt>
      <trkpt lat="46.35273" lon="5.84107">
        <ele>640.4</ele>
        <time>2021-10-17T09:24:40Z</time>
      </trkpt>
      <trkpt lat="46.35271" lon="5.84103">
        <ele>640.6</ele>
        <time>2021-10-17T09:24:41Z</time>
      </trkpt>
      <trkpt lat="46.35269" lon="5.84099">
        <ele>640.6</ele>
        <time>2021-10-17T09:24:42Z</time>
      </trkpt>
      <trkpt lat="46.35267" lon="5.84095">
        <ele>641</ele>
        <time>2021-10-17T09:24:43Z</time>
      </trkpt>
      <trkpt lat="46.35266" lon="5.84091">
        <ele>641</ele>
        <time>2021-10-17T09:24:44Z</time>
      </trkpt>
      <trkpt lat="46.35264" lon="5.84086">
        <ele>641.2</ele>
        <time>2021-10-17T09:24:45Z</time>
      </trkpt>
      <trkpt lat="46.35262" lon="5.84082">
        <ele>641.2</ele>
        <time>2021-10-17T09:24:46Z</time>
      </trkpt>
      <trkpt lat="46.35261" lon="5.84078">
        <ele>641.6</ele>
        <time>2021-10-17T09:24:47Z</time>
      </trkpt>
      <trkpt lat="46.35259" lon="5.84074">
        <ele>641.6</ele>
        <time>2021-10-17T09:24:48Z</time>
      </trkpt>
      <trkpt lat="46.35258" lon="5.8407">
        <ele>642</ele>
        <time>2021-10-17T09:24:49Z</time>
      </trkpt>
      <trkpt lat="46.35256" lon="5.84066">
        <ele>642.2</ele>
        <time>2021-10-17T09:24:50Z</time>
      </trkpt>
      <trkpt lat="46.35255" lon="5.84062">
        <ele>642.4</ele>
        <time>2021-10-17T09:24:51Z</time>
      </trkpt>
      <trkpt lat="46.35253" lon="5.84058">
        <ele>642.8</ele>
        <time>2021-10-17T09:24:52Z</time>
      </trkpt>
      <trkpt lat="46.35252" lon="5.84054">
        <ele>643</ele>
        <time>2021-10-17T09:24:53Z</time>
      </trkpt>
      <trkpt lat="46.35251" lon="5.8405">
        <ele>643.2</ele>
        <time>2021-10-17T09:24:54Z</time>
      </trkpt>
      <trkpt lat="46.35249" lon="5.84046">
        <ele>643.4</ele>
        <time>2021-10-17T09:24:55Z</time>
      </trkpt>
      <trkpt lat="46.35247" lon="5.84042">
        <ele>643.8</ele>
        <time>2021-10-17T09:24:56Z</time>
      </trkpt>
      <trkpt lat="46.35245" lon="5.84038">
        <ele>644</ele>
        <time>2021-10-17T09:24:57Z</time>
      </trkpt>
      <trkpt lat="46.35243" lon="5.84035">
        <ele>644</ele>
        <time>2021-10-17T09:24:58Z</time>
      </trkpt>
      <trkpt lat="46.35241" lon="5.84031">
        <ele>644.4</ele>
        <time>2021-10-17T09:24:59Z</time>
      </trkpt>
      <trkpt lat="46.35238" lon="5.84029">
        <ele>644.4</ele>
        <time>2021-10-17T09:25:00Z</time>
      </trkpt>
      <trkpt lat="46.35235" lon="5.84026">
        <ele>644.6</ele>
        <time>2021-10-17T09:25:01Z</time>
      </trkpt>
      <trkpt lat="46.35232" lon="5.84024">
        <ele>644.6</ele>
        <time>2021-10-17T09:25:02Z</time>
      </trkpt>
      <trkpt lat="46.35229" lon="5.84022">
        <ele>645</ele>
        <time>2021-10-17T09:25:03Z</time>
      </trkpt>
      <trkpt lat="46.35226" lon="5.84021">
        <ele>645</ele>
        <time>2021-10-17T09:25:04Z</time>
      </trkpt>
      <trkpt lat="46.35222" lon="5.8402">
        <ele>645.4</ele>
        <time>2021-10-17T09:25:05Z</time>
      </trkpt>
      <trkpt lat="46.35219" lon="5.84019">
        <ele>645.4</ele>
        <time>2021-10-17T09:25:06Z</time>
      </trkpt>
      <trkpt lat="46.35216" lon="5.84018">
        <ele>645.8</ele>
        <time>2021-10-17T09:25:07Z</time>
      </trkpt>
      <trkpt lat="46.35213" lon="5.84017">
        <ele>645.8</ele>
        <time>2021-10-17T09:25:08Z</time>
      </trkpt>
      <trkpt lat="46.3521" lon="5.84016">
        <ele>646</ele>
        <time>2021-10-17T09:25:09Z</time>
      </trkpt>
      <trkpt lat="46.35207" lon="5.84015">
        <ele>646</ele>
        <time>2021-10-17T09:25:10Z</time>
      </trkpt>
      <trkpt lat="46.35203" lon="5.84013">
        <ele>646.4</ele>
        <time>2021-10-17T09:25:11Z</time>
      </trkpt>
      <trkpt lat="46.352" lon="5.84011">
        <ele>646.4</ele>
        <time>2021-10-17T09:25:12Z</time>
      </trkpt>
      <trkpt lat="46.35197" lon="5.8401">
        <ele>646.8</ele>
        <time>2021-10-17T09:25:13Z</time>
      </trkpt>
      <trkpt lat="46.35194" lon="5.84008">
        <ele>646.8</ele>
        <time>2021-10-17T09:25:14Z</time>
      </trkpt>
      <trkpt lat="46.35191" lon="5.84007">
        <ele>647</ele>
        <time>2021-10-17T09:25:15Z</time>
      </trkpt>
      <trkpt lat="46.35188" lon="5.84005">
        <ele>647</ele>
        <time>2021-10-17T09:25:16Z</time>
      </trkpt>
      <trkpt lat="46.35185" lon="5.84003">
        <ele>647.4</ele>
        <time>2021-10-17T09:25:17Z</time>
      </trkpt>
      <trkpt lat="46.35182" lon="5.84001">
        <ele>647.4</ele>
        <time>2021-10-17T09:25:18Z</time>
      </trkpt>
      <trkpt lat="46.35179" lon="5.83999">
        <ele>647.4</ele>
        <time>2021-10-17T09:25:19Z</time>
      </trkpt>
      <trkpt lat="46.35176" lon="5.83997">
        <ele>647.8</ele>
        <time>2021-10-17T09:25:20Z</time>
      </trkpt>
      <trkpt lat="46.35174" lon="5.83995">
        <ele>648</ele>
        <time>2021-10-17T09:25:21Z</time>
      </trkpt>
      <trkpt lat="46.35171" lon="5.83993">
        <ele>648</ele>
        <time>2021-10-17T09:25:22Z</time>
      </trkpt>
      <trkpt lat="46.35168" lon="5.83991">
        <ele>648.4</ele>
        <time>2021-10-17T09:25:23Z</time>
      </trkpt>
      <trkpt lat="46.35165" lon="5.83989">
        <ele>648.8</ele>
        <time>2021-10-17T09:25:24Z</time>
      </trkpt>
      <trkpt lat="46.35162" lon="5.83987">
        <ele>649</ele>
        <time>2021-10-17T09:25:25Z</time>
      </trkpt>
      <trkpt lat="46.3516" lon="5.83985">
        <ele>649</ele>
        <time>2021-10-17T09:25:26Z</time>
      </trkpt>
      <trkpt lat="46.35157" lon="5.83983">
        <ele>649.4</ele>
        <time>2021-10-17T09:25:27Z</time>
      </trkpt>
      <trkpt lat="46.35155" lon="5.8398">
        <ele>649.4</ele>
        <time>2021-10-17T09:25:28Z</time>
      </trkpt>
      <trkpt lat="46.35152" lon="5.83978">
        <ele>649.8</ele>
        <time>2021-10-17T09:25:29Z</time>
      </trkpt>
      <trkpt lat="46.35149" lon="5.83976">
        <ele>649.8</ele>
        <time>2021-10-17T09:25:30Z</time>
      </trkpt>
      <trkpt lat="46.35146" lon="5.83975">
        <ele>650</ele>
        <time>2021-10-17T09:25:31Z</time>
      </trkpt>
      <trkpt lat="46.35143" lon="5.83973">
        <ele>650</ele>
        <time>2021-10-17T09:25:32Z</time>
      </trkpt>
      <trkpt lat="46.35141" lon="5.83971">
        <ele>650.2</ele>
        <time>2021-10-17T09:25:33Z</time>
      </trkpt>
      <trkpt lat="46.35138" lon="5.83969">
        <ele>650.4</ele>
        <time>2021-10-17T09:25:34Z</time>
      </trkpt>
      <trkpt lat="46.35135" lon="5.83967">
        <ele>650.4</ele>
        <time>2021-10-17T09:25:35Z</time>
      </trkpt>
      <trkpt lat="46.35133" lon="5.83965">
        <ele>650.8</ele>
        <time>2021-10-17T09:25:36Z</time>
      </trkpt>
      <trkpt lat="46.3513" lon="5.83963">
        <ele>650.8</ele>
        <time>2021-10-17T09:25:37Z</time>
      </trkpt>
      <trkpt lat="46.35127" lon="5.83961">
        <ele>651.2</ele>
        <time>2021-10-17T09:25:38Z</time>
      </trkpt>
      <trkpt lat="46.35124" lon="5.83958">
        <ele>651.4</ele>
        <time>2021-10-17T09:25:39Z</time>
      </trkpt>
      <trkpt lat="46.35121" lon="5.83956">
        <ele>651.4</ele>
        <time>2021-10-17T09:25:40Z</time>
      </trkpt>
      <trkpt lat="46.35119" lon="5.83953">
        <ele>651.8</ele>
        <time>2021-10-17T09:25:41Z</time>
      </trkpt>
      <trkpt lat="46.35116" lon="5.8395">
        <ele>651.8</ele>
        <time>2021-10-17T09:25:42Z</time>
      </trkpt>
      <trkpt lat="46.35113" lon="5.83948">
        <ele>652.2</ele>
        <time>2021-10-17T09:25:43Z</time>
      </trkpt>
      <trkpt lat="46.35111" lon="5.83945">
        <ele>652.4</ele>
        <time>2021-10-17T09:25:44Z</time>
      </trkpt>
      <trkpt lat="46.35108" lon="5.83942">
        <ele>652.6</ele>
        <time>2021-10-17T09:25:45Z</time>
      </trkpt>
      <trkpt lat="46.35106" lon="5.83938">
        <ele>652.6</ele>
        <time>2021-10-17T09:25:46Z</time>
      </trkpt>
      <trkpt lat="46.35104" lon="5.83935">
        <ele>653</ele>
        <time>2021-10-17T09:25:47Z</time>
      </trkpt>
      <trkpt lat="46.35101" lon="5.83931">
        <ele>653</ele>
        <time>2021-10-17T09:25:48Z</time>
      </trkpt>
      <trkpt lat="46.35099" lon="5.83928">
        <ele>653.4</ele>
        <time>2021-10-17T09:25:49Z</time>
      </trkpt>
      <trkpt lat="46.35097" lon="5.83924">
        <ele>653.4</ele>
        <time>2021-10-17T09:25:50Z</time>
      </trkpt>
      <trkpt lat="46.35095" lon="5.8392">
        <ele>653.8</ele>
        <time>2021-10-17T09:25:51Z</time>
      </trkpt>
      <trkpt lat="46.35094" lon="5.83917">
        <ele>654</ele>
        <time>2021-10-17T09:25:52Z</time>
      </trkpt>
      <trkpt lat="46.35092" lon="5.83914">
        <ele>654</ele>
        <time>2021-10-17T09:25:53Z</time>
      </trkpt>
      <trkpt lat="46.3509" lon="5.83911">
        <ele>654.2</ele>
        <time>2021-10-17T09:25:54Z</time>
      </trkpt>
      <trkpt lat="46.35089" lon="5.83908">
        <ele>654.6</ele>
        <time>2021-10-17T09:25:55Z</time>
      </trkpt>
      <trkpt lat="46.35087" lon="5.83905">
        <ele>654.8</ele>
        <time>2021-10-17T09:25:56Z</time>
      </trkpt>
      <trkpt lat="46.35085" lon="5.83902">
        <ele>655</ele>
        <time>2021-10-17T09:25:57Z</time>
      </trkpt>
      <trkpt lat="46.35083" lon="5.83899">
        <ele>655</ele>
        <time>2021-10-17T09:25:58Z</time>
      </trkpt>
      <trkpt lat="46.35081" lon="5.83896">
        <ele>655.4</ele>
        <time>2021-10-17T09:25:59Z</time>
      </trkpt>
      <trkpt lat="46.35079" lon="5.83894">
        <ele>655.6</ele>
        <time>2021-10-17T09:26:00Z</time>
      </trkpt>
      <trkpt lat="46.35077" lon="5.83891">
        <ele>655.6</ele>
        <time>2021-10-17T09:26:01Z</time>
      </trkpt>
      <trkpt lat="46.35074" lon="5.83888">
        <ele>656</ele>
        <time>2021-10-17T09:26:02Z</time>
      </trkpt>
      <trkpt lat="46.35072" lon="5.83886">
        <ele>656.2</ele>
        <time>2021-10-17T09:26:03Z</time>
      </trkpt>
      <trkpt lat="46.3507" lon="5.83883">
        <ele>656.4</ele>
        <time>2021-10-17T09:26:04Z</time>
      </trkpt>
      <trkpt lat="46.35068" lon="5.8388">
        <ele>656.4</ele>
        <time>2021-10-17T09:26:05Z</time>
      </trkpt>
      <trkpt lat="46.35065" lon="5.83878">
        <ele>656.8</ele>
        <time>2021-10-17T09:26:06Z</time>
      </trkpt>
      <trkpt lat="46.35063" lon="5.83875">
        <ele>656.8</ele>
        <time>2021-10-17T09:26:07Z</time>
      </trkpt>
      <trkpt lat="46.3506" lon="5.83873">
        <ele>657.2</ele>
        <time>2021-10-17T09:26:08Z</time>
      </trkpt>
      <trkpt lat="46.35057" lon="5.83872">
        <ele>657.4</ele>
        <time>2021-10-17T09:26:09Z</time>
      </trkpt>
      <trkpt lat="46.35054" lon="5.83871">
        <ele>657.6</ele>
        <time>2021-10-17T09:26:10Z</time>
      </trkpt>
      <trkpt lat="46.35052" lon="5.83869">
        <ele>658</ele>
        <time>2021-10-17T09:26:11Z</time>
      </trkpt>
      <trkpt lat="46.35049" lon="5.83868">
        <ele>658</ele>
        <time>2021-10-17T09:26:12Z</time>
      </trkpt>
      <trkpt lat="46.35046" lon="5.83867">
        <ele>658.2</ele>
        <time>2021-10-17T09:26:13Z</time>
      </trkpt>
      <trkpt lat="46.35044" lon="5.83867">
        <ele>658.4</ele>
        <time>2021-10-17T09:26:14Z</time>
      </trkpt>
      <trkpt lat="46.35041" lon="5.83866">
        <ele>658.6</ele>
        <time>2021-10-17T09:26:15Z</time>
      </trkpt>
      <trkpt lat="46.35038" lon="5.83865">
        <ele>658.6</ele>
        <time>2021-10-17T09:26:16Z</time>
      </trkpt>
      <trkpt lat="46.35036" lon="5.83864">
        <ele>659</ele>
        <time>2021-10-17T09:26:17Z</time>
      </trkpt>
      <trkpt lat="46.35033" lon="5.83863">
        <ele>659</ele>
        <time>2021-10-17T09:26:18Z</time>
      </trkpt>
      <trkpt lat="46.3503" lon="5.83862">
        <ele>659.6</ele>
        <time>2021-10-17T09:26:19Z</time>
      </trkpt>
      <trkpt lat="46.35028" lon="5.8386">
        <ele>659.6</ele>
        <time>2021-10-17T09:26:20Z</time>
      </trkpt>
      <trkpt lat="46.35025" lon="5.83859">
        <ele>659.8</ele>
        <time>2021-10-17T09:26:21Z</time>
      </trkpt>
      <trkpt lat="46.35023" lon="5.83857">
        <ele>659.8</ele>
        <time>2021-10-17T09:26:22Z</time>
      </trkpt>
      <trkpt lat="46.3502" lon="5.83856">
        <ele>660.2</ele>
        <time>2021-10-17T09:26:23Z</time>
      </trkpt>
      <trkpt lat="46.35018" lon="5.83854">
        <ele>660.2</ele>
        <time>2021-10-17T09:26:24Z</time>
      </trkpt>
      <trkpt lat="46.35015" lon="5.83852">
        <ele>660.6</ele>
        <time>2021-10-17T09:26:25Z</time>
      </trkpt>
      <trkpt lat="46.35013" lon="5.83851">
        <ele>660.6</ele>
        <time>2021-10-17T09:26:26Z</time>
      </trkpt>
      <trkpt lat="46.3501" lon="5.83849">
        <ele>661</ele>
        <time>2021-10-17T09:26:27Z</time>
      </trkpt>
      <trkpt lat="46.35008" lon="5.83847">
        <ele>661</ele>
        <time>2021-10-17T09:26:28Z</time>
      </trkpt>
      <trkpt lat="46.35006" lon="5.83845">
        <ele>661.2</ele>
        <time>2021-10-17T09:26:29Z</time>
      </trkpt>
      <trkpt lat="46.35004" lon="5.83843">
        <ele>661.2</ele>
        <time>2021-10-17T09:26:30Z</time>
      </trkpt>
      <trkpt lat="46.35002" lon="5.8384">
        <ele>661.6</ele>
        <time>2021-10-17T09:26:31Z</time>
      </trkpt>
      <trkpt lat="46.35" lon="5.83839">
        <ele>661.6</ele>
        <time>2021-10-17T09:26:32Z</time>
      </trkpt>
      <trkpt lat="46.34998" lon="5.83837">
        <ele>662</ele>
        <time>2021-10-17T09:26:33Z</time>
      </trkpt>
      <trkpt lat="46.34995" lon="5.83835">
        <ele>662</ele>
        <time>2021-10-17T09:26:34Z</time>
      </trkpt>
      <trkpt lat="46.34993" lon="5.83834">
        <ele>662.4</ele>
        <time>2021-10-17T09:26:35Z</time>
      </trkpt>
      <trkpt lat="46.34991" lon="5.83832">
        <ele>662.4</ele>
        <time>2021-10-17T09:26:36Z</time>
      </trkpt>
      <trkpt lat="46.34988" lon="5.8383">
        <ele>662.8</ele>
        <time>2021-10-17T09:26:37Z</time>
      </trkpt>
      <trkpt lat="46.34986" lon="5.83829">
        <ele>662.8</ele>
        <time>2021-10-17T09:26:38Z</time>
      </trkpt>
      <trkpt lat="46.34984" lon="5.83827">
        <ele>663.2</ele>
        <time>2021-10-17T09:26:39Z</time>
      </trkpt>
      <trkpt lat="46.34981" lon="5.83825">
        <ele>663.4</ele>
        <time>2021-10-17T09:26:40Z</time>
      </trkpt>
      <trkpt lat="46.34979" lon="5.83823">
        <ele>663.4</ele>
        <time>2021-10-17T09:26:41Z</time>
      </trkpt>
      <trkpt lat="46.34977" lon="5.83821">
        <ele>663.6</ele>
        <time>2021-10-17T09:26:42Z</time>
      </trkpt>
      <trkpt lat="46.34974" lon="5.83818">
        <ele>663.6</ele>
        <time>2021-10-17T09:26:43Z</time>
      </trkpt>
      <trkpt lat="46.34972" lon="5.83817">
        <ele>664</ele>
        <time>2021-10-17T09:26:44Z</time>
      </trkpt>
      <trkpt lat="46.34969" lon="5.83815">
        <ele>664</ele>
        <time>2021-10-17T09:26:45Z</time>
      </trkpt>
      <trkpt lat="46.34966" lon="5.83813">
        <ele>664.4</ele>
        <time>2021-10-17T09:26:46Z</time>
      </trkpt>
      <trkpt lat="46.34964" lon="5.8381">
        <ele>664.6</ele>
        <time>2021-10-17T09:26:47Z</time>
      </trkpt>
      <trkpt lat="46.34962" lon="5.83808">
        <ele>664.8</ele>
        <time>2021-10-17T09:26:48Z</time>
      </trkpt>
      <trkpt lat="46.34959" lon="5.83806">
        <ele>664.8</ele>
        <time>2021-10-17T09:26:49Z</time>
      </trkpt>
      <trkpt lat="46.34957" lon="5.83804">
        <ele>665</ele>
        <time>2021-10-17T09:26:50Z</time>
      </trkpt>
      <trkpt lat="46.34954" lon="5.83802">
        <ele>665.2</ele>
        <time>2021-10-17T09:26:51Z</time>
      </trkpt>
      <trkpt lat="46.34952" lon="5.838">
        <ele>665.2</ele>
        <time>2021-10-17T09:26:52Z</time>
      </trkpt>
      <trkpt lat="46.34949" lon="5.83798">
        <ele>665.6</ele>
        <time>2021-10-17T09:26:53Z</time>
      </trkpt>
      <trkpt lat="46.34947" lon="5.83795">
        <ele>665.8</ele>
        <time>2021-10-17T09:26:54Z</time>
      </trkpt>
      <trkpt lat="46.34945" lon="5.83793">
        <ele>666</ele>
        <time>2021-10-17T09:26:55Z</time>
      </trkpt>
      <trkpt lat="46.34942" lon="5.8379">
        <ele>666.2</ele>
        <time>2021-10-17T09:26:56Z</time>
      </trkpt>
      <trkpt lat="46.34939" lon="5.83788">
        <ele>666.2</ele>
        <time>2021-10-17T09:26:57Z</time>
      </trkpt>
      <trkpt lat="46.34937" lon="5.83786">
        <ele>666.6</ele>
        <time>2021-10-17T09:26:58Z</time>
      </trkpt>
      <trkpt lat="46.34934" lon="5.83784">
        <ele>667</ele>
        <time>2021-10-17T09:26:59Z</time>
      </trkpt>
      <trkpt lat="46.34931" lon="5.83782">
        <ele>667</ele>
        <time>2021-10-17T09:27:00Z</time>
      </trkpt>
      <trkpt lat="46.34928" lon="5.83781">
        <ele>667.4</ele>
        <time>2021-10-17T09:27:01Z</time>
      </trkpt>
      <trkpt lat="46.34926" lon="5.83778">
        <ele>667.6</ele>
        <time>2021-10-17T09:27:02Z</time>
      </trkpt>
      <trkpt lat="46.34923" lon="5.83776">
        <ele>667.6</ele>
        <time>2021-10-17T09:27:03Z</time>
      </trkpt>
      <trkpt lat="46.3492" lon="5.83774">
        <ele>668</ele>
        <time>2021-10-17T09:27:04Z</time>
      </trkpt>
      <trkpt lat="46.34918" lon="5.83772">
        <ele>668</ele>
        <time>2021-10-17T09:27:05Z</time>
      </trkpt>
      <trkpt lat="46.34915" lon="5.83769">
        <ele>668.4</ele>
        <time>2021-10-17T09:27:06Z</time>
      </trkpt>
      <trkpt lat="46.34912" lon="5.83767">
        <ele>668.4</ele>
        <time>2021-10-17T09:27:07Z</time>
      </trkpt>
      <trkpt lat="46.34909" lon="5.83765">
        <ele>668.8</ele>
        <time>2021-10-17T09:27:08Z</time>
      </trkpt>
      <trkpt lat="46.34907" lon="5.83763">
        <ele>669</ele>
        <time>2021-10-17T09:27:09Z</time>
      </trkpt>
      <trkpt lat="46.34904" lon="5.83761">
        <ele>669.2</ele>
        <time>2021-10-17T09:27:10Z</time>
      </trkpt>
      <trkpt lat="46.34902" lon="5.83759">
        <ele>669.4</ele>
        <time>2021-10-17T09:27:11Z</time>
      </trkpt>
      <trkpt lat="46.34899" lon="5.83756">
        <ele>669.6</ele>
        <time>2021-10-17T09:27:12Z</time>
      </trkpt>
      <trkpt lat="46.34896" lon="5.83754">
        <ele>669.6</ele>
        <time>2021-10-17T09:27:13Z</time>
      </trkpt>
      <trkpt lat="46.34894" lon="5.83752">
        <ele>669.8</ele>
        <time>2021-10-17T09:27:14Z</time>
      </trkpt>
      <trkpt lat="46.34891" lon="5.83749">
        <ele>669.8</ele>
        <time>2021-10-17T09:27:15Z</time>
      </trkpt>
      <trkpt lat="46.34889" lon="5.83747">
        <ele>670.2</ele>
        <time>2021-10-17T09:27:16Z</time>
      </trkpt>
      <trkpt lat="46.34886" lon="5.83745">
        <ele>670.2</ele>
        <time>2021-10-17T09:27:17Z</time>
      </trkpt>
      <trkpt lat="46.34884" lon="5.83742">
        <ele>670.6</ele>
        <time>2021-10-17T09:27:18Z</time>
      </trkpt>
      <trkpt lat="46.34881" lon="5.8374">
        <ele>670.6</ele>
        <time>2021-10-17T09:27:19Z</time>
      </trkpt>
      <trkpt lat="46.34879" lon="5.83738">
        <ele>670.8</ele>
        <time>2021-10-17T09:27:20Z</time>
      </trkpt>
      <trkpt lat="46.34877" lon="5.83735">
        <ele>670.8</ele>
        <time>2021-10-17T09:27:21Z</time>
      </trkpt>
      <trkpt lat="46.34874" lon="5.83733">
        <ele>671.2</ele>
        <time>2021-10-17T09:27:22Z</time>
      </trkpt>
      <trkpt lat="46.34872" lon="5.83731">
        <ele>671.6</ele>
        <time>2021-10-17T09:27:23Z</time>
      </trkpt>
      <trkpt lat="46.34869" lon="5.83729">
        <ele>671.6</ele>
        <time>2021-10-17T09:27:24Z</time>
      </trkpt>
      <trkpt lat="46.34867" lon="5.83726">
        <ele>671.8</ele>
        <time>2021-10-17T09:27:25Z</time>
      </trkpt>
      <trkpt lat="46.34864" lon="5.83724">
        <ele>671.8</ele>
        <time>2021-10-17T09:27:26Z</time>
      </trkpt>
      <trkpt lat="46.34862" lon="5.83721">
        <ele>672.2</ele>
        <time>2021-10-17T09:27:27Z</time>
      </trkpt>
      <trkpt lat="46.34859" lon="5.83719">
        <ele>672.4</ele>
        <time>2021-10-17T09:27:28Z</time>
      </trkpt>
      <trkpt lat="46.34856" lon="5.83717">
        <ele>672.4</ele>
        <time>2021-10-17T09:27:29Z</time>
      </trkpt>
      <trkpt lat="46.34854" lon="5.83714">
        <ele>672.8</ele>
        <time>2021-10-17T09:27:30Z</time>
      </trkpt>
      <trkpt lat="46.34851" lon="5.83712">
        <ele>672.8</ele>
        <time>2021-10-17T09:27:31Z</time>
      </trkpt>
      <trkpt lat="46.34848" lon="5.8371">
        <ele>673</ele>
        <time>2021-10-17T09:27:32Z</time>
      </trkpt>
      <trkpt lat="46.34846" lon="5.83708">
        <ele>673</ele>
        <time>2021-10-17T09:27:33Z</time>
      </trkpt>
      <trkpt lat="46.34843" lon="5.83706">
        <ele>673.4</ele>
        <time>2021-10-17T09:27:34Z</time>
      </trkpt>
      <trkpt lat="46.34841" lon="5.83704">
        <ele>673.4</ele>
        <time>2021-10-17T09:27:35Z</time>
      </trkpt>
      <trkpt lat="46.34838" lon="5.83702">
        <ele>673.8</ele>
        <time>2021-10-17T09:27:36Z</time>
      </trkpt>
      <trkpt lat="46.34835" lon="5.837">
        <ele>673.8</ele>
        <time>2021-10-17T09:27:37Z</time>
      </trkpt>
      <trkpt lat="46.34832" lon="5.83699">
        <ele>674.2</ele>
        <time>2021-10-17T09:27:38Z</time>
      </trkpt>
      <trkpt lat="46.3483" lon="5.83697">
        <ele>674.2</ele>
        <time>2021-10-17T09:27:39Z</time>
      </trkpt>
      <trkpt lat="46.34827" lon="5.83695">
        <ele>674.6</ele>
        <time>2021-10-17T09:27:40Z</time>
      </trkpt>
      <trkpt lat="46.34824" lon="5.83694">
        <ele>674.6</ele>
        <time>2021-10-17T09:27:41Z</time>
      </trkpt>
      <trkpt lat="46.34821" lon="5.83692">
        <ele>674.8</ele>
        <time>2021-10-17T09:27:42Z</time>
      </trkpt>
      <trkpt lat="46.34819" lon="5.8369">
        <ele>674.8</ele>
        <time>2021-10-17T09:27:43Z</time>
      </trkpt>
      <trkpt lat="46.34816" lon="5.83688">
        <ele>675.2</ele>
        <time>2021-10-17T09:27:44Z</time>
      </trkpt>
      <trkpt lat="46.34813" lon="5.83687">
        <ele>675.2</ele>
        <time>2021-10-17T09:27:45Z</time>
      </trkpt>
      <trkpt lat="46.3481" lon="5.83685">
        <ele>675.4</ele>
        <time>2021-10-17T09:27:46Z</time>
      </trkpt>
      <trkpt lat="46.34807" lon="5.83683">
        <ele>675.4</ele>
        <time>2021-10-17T09:27:47Z</time>
      </trkpt>
      <trkpt lat="46.34804" lon="5.83681">
        <ele>675.8</ele>
        <time>2021-10-17T09:27:48Z</time>
      </trkpt>
      <trkpt lat="46.34801" lon="5.8368">
        <ele>676</ele>
        <time>2021-10-17T09:27:49Z</time>
      </trkpt>
      <trkpt lat="46.34799" lon="5.83678">
        <ele>676.2</ele>
        <time>2021-10-17T09:27:50Z</time>
      </trkpt>
      <trkpt lat="46.34796" lon="5.83676">
        <ele>676.4</ele>
        <time>2021-10-17T09:27:51Z</time>
      </trkpt>
      <trkpt lat="46.34793" lon="5.83674">
        <ele>676.4</ele>
        <time>2021-10-17T09:27:52Z</time>
      </trkpt>
      <trkpt lat="46.34791" lon="5.83672">
        <ele>676.8</ele>
        <time>2021-10-17T09:27:53Z</time>
      </trkpt>
      <trkpt lat="46.34788" lon="5.8367">
        <ele>676.8</ele>
        <time>2021-10-17T09:27:54Z</time>
      </trkpt>
      <trkpt lat="46.34786" lon="5.83667">
        <ele>677.2</ele>
        <time>2021-10-17T09:27:55Z</time>
      </trkpt>
      <trkpt lat="46.34783" lon="5.83665">
        <ele>677.2</ele>
        <time>2021-10-17T09:27:56Z</time>
      </trkpt>
      <trkpt lat="46.34781" lon="5.83662">
        <ele>677.6</ele>
        <time>2021-10-17T09:27:57Z</time>
      </trkpt>
      <trkpt lat="46.34779" lon="5.8366">
        <ele>677.8</ele>
        <time>2021-10-17T09:27:58Z</time>
      </trkpt>
      <trkpt lat="46.34776" lon="5.83657">
        <ele>678.2</ele>
        <time>2021-10-17T09:27:59Z</time>
      </trkpt>
      <trkpt lat="46.34774" lon="5.83654">
        <ele>678.2</ele>
        <time>2021-10-17T09:28:00Z</time>
      </trkpt>
      <trkpt lat="46.34772" lon="5.83651">
        <ele>678.4</ele>
        <time>2021-10-17T09:28:01Z</time>
      </trkpt>
      <trkpt lat="46.3477" lon="5.83649">
        <ele>678.4</ele>
        <time>2021-10-17T09:28:02Z</time>
      </trkpt>
      <trkpt lat="46.34767" lon="5.83646">
        <ele>678.8</ele>
        <time>2021-10-17T09:28:03Z</time>
      </trkpt>
      <trkpt lat="46.34765" lon="5.83643">
        <ele>679</ele>
        <time>2021-10-17T09:28:04Z</time>
      </trkpt>
      <trkpt lat="46.34763" lon="5.8364">
        <ele>679.4</ele>
        <time>2021-10-17T09:28:05Z</time>
      </trkpt>
      <trkpt lat="46.34761" lon="5.83638">
        <ele>679.6</ele>
        <time>2021-10-17T09:28:06Z</time>
      </trkpt>
      <trkpt lat="46.34759" lon="5.83635">
        <ele>679.8</ele>
        <time>2021-10-17T09:28:07Z</time>
      </trkpt>
      <trkpt lat="46.34756" lon="5.83633">
        <ele>680</ele>
        <time>2021-10-17T09:28:08Z</time>
      </trkpt>
      <trkpt lat="46.34754" lon="5.8363">
        <ele>680.2</ele>
        <time>2021-10-17T09:28:09Z</time>
      </trkpt>
      <trkpt lat="46.34752" lon="5.83627">
        <ele>680.4</ele>
        <time>2021-10-17T09:28:10Z</time>
      </trkpt>
      <trkpt lat="46.3475" lon="5.83624">
        <ele>680.6</ele>
        <time>2021-10-17T09:28:11Z</time>
      </trkpt>
      <trkpt lat="46.34748" lon="5.83621">
        <ele>680.6</ele>
        <time>2021-10-17T09:28:12Z</time>
      </trkpt>
      <trkpt lat="46.34745" lon="5.83619">
        <ele>681</ele>
        <time>2021-10-17T09:28:13Z</time>
      </trkpt>
      <trkpt lat="46.34743" lon="5.83616">
        <ele>681</ele>
        <time>2021-10-17T09:28:14Z</time>
      </trkpt>
      <trkpt lat="46.3474" lon="5.83614">
        <ele>681.4</ele>
        <time>2021-10-17T09:28:15Z</time>
      </trkpt>
      <trkpt lat="46.34738" lon="5.83611">
        <ele>681.4</ele>
        <time>2021-10-17T09:28:16Z</time>
      </trkpt>
      <trkpt lat="46.34736" lon="5.83608">
        <ele>681.8</ele>
        <time>2021-10-17T09:28:17Z</time>
      </trkpt>
      <trkpt lat="46.34733" lon="5.83606">
        <ele>682</ele>
        <time>2021-10-17T09:28:18Z</time>
      </trkpt>
      <trkpt lat="46.34731" lon="5.83603">
        <ele>682</ele>
        <time>2021-10-17T09:28:19Z</time>
      </trkpt>
      <trkpt lat="46.34729" lon="5.83601">
        <ele>682.4</ele>
        <time>2021-10-17T09:28:20Z</time>
      </trkpt>
      <trkpt lat="46.34727" lon="5.83598">
        <ele>682.4</ele>
        <time>2021-10-17T09:28:21Z</time>
      </trkpt>
      <trkpt lat="46.34725" lon="5.83596">
        <ele>682.6</ele>
        <time>2021-10-17T09:28:22Z</time>
      </trkpt>
      <trkpt lat="46.34722" lon="5.83594">
        <ele>682.6</ele>
        <time>2021-10-17T09:28:23Z</time>
      </trkpt>
      <trkpt lat="46.3472" lon="5.83592">
        <ele>682.8</ele>
        <time>2021-10-17T09:28:24Z</time>
      </trkpt>
      <trkpt lat="46.34719" lon="5.83589">
        <ele>682.8</ele>
        <time>2021-10-17T09:28:25Z</time>
      </trkpt>
      <trkpt lat="46.34716" lon="5.83587">
        <ele>683.2</ele>
        <time>2021-10-17T09:28:26Z</time>
      </trkpt>
      <trkpt lat="46.34714" lon="5.83585">
        <ele>683.4</ele>
        <time>2021-10-17T09:28:27Z</time>
      </trkpt>
      <trkpt lat="46.34712" lon="5.83583">
        <ele>683.4</ele>
        <time>2021-10-17T09:28:28Z</time>
      </trkpt>
      <trkpt lat="46.3471" lon="5.83581">
        <ele>683.8</ele>
        <time>2021-10-17T09:28:29Z</time>
      </trkpt>
      <trkpt lat="46.34708" lon="5.83579">
        <ele>683.8</ele>
        <time>2021-10-17T09:28:30Z</time>
      </trkpt>
      <trkpt lat="46.34705" lon="5.83577">
        <ele>684.2</ele>
        <time>2021-10-17T09:28:31Z</time>
      </trkpt>
      <trkpt lat="46.34703" lon="5.83575">
        <ele>684.4</ele>
        <time>2021-10-17T09:28:32Z</time>
      </trkpt>
      <trkpt lat="46.34701" lon="5.83574">
        <ele>684.4</ele>
        <time>2021-10-17T09:28:33Z</time>
      </trkpt>
      <trkpt lat="46.34698" lon="5.83572">
        <ele>684.8</ele>
        <time>2021-10-17T09:28:34Z</time>
      </trkpt>
      <trkpt lat="46.34696" lon="5.8357">
        <ele>684.8</ele>
        <time>2021-10-17T09:28:35Z</time>
      </trkpt>
      <trkpt lat="46.34694" lon="5.83568">
        <ele>685.2</ele>
        <time>2021-10-17T09:28:36Z</time>
      </trkpt>
      <trkpt lat="46.34692" lon="5.83566">
        <ele>685.2</ele>
        <time>2021-10-17T09:28:37Z</time>
      </trkpt>
      <trkpt lat="46.3469" lon="5.83563">
        <ele>685.6</ele>
        <time>2021-10-17T09:28:38Z</time>
      </trkpt>
      <trkpt lat="46.34688" lon="5.8356">
        <ele>685.8</ele>
        <time>2021-10-17T09:28:39Z</time>
      </trkpt>
      <trkpt lat="46.34685" lon="5.83558">
        <ele>685.8</ele>
        <time>2021-10-17T09:28:40Z</time>
      </trkpt>
      <trkpt lat="46.34683" lon="5.83556">
        <ele>686.2</ele>
        <time>2021-10-17T09:28:41Z</time>
      </trkpt>
      <trkpt lat="46.34681" lon="5.83554">
        <ele>686.4</ele>
        <time>2021-10-17T09:28:42Z</time>
      </trkpt>
      <trkpt lat="46.34678" lon="5.8355">
        <ele>686.6</ele>
        <time>2021-10-17T09:28:43Z</time>
      </trkpt>
      <trkpt lat="46.34676" lon="5.83547">
        <ele>686.6</ele>
        <time>2021-10-17T09:28:44Z</time>
      </trkpt>
      <trkpt lat="46.34674" lon="5.83545">
        <ele>687</ele>
        <time>2021-10-17T09:28:45Z</time>
      </trkpt>
      <trkpt lat="46.34671" lon="5.83543">
        <ele>687.2</ele>
        <time>2021-10-17T09:28:46Z</time>
      </trkpt>
      <trkpt lat="46.34669" lon="5.83541">
        <ele>687.2</ele>
        <time>2021-10-17T09:28:47Z</time>
      </trkpt>
      <trkpt lat="46.34666" lon="5.83538">
        <ele>687.6</ele>
        <time>2021-10-17T09:28:48Z</time>
      </trkpt>
      <trkpt lat="46.34664" lon="5.83536">
        <ele>687.8</ele>
        <time>2021-10-17T09:28:49Z</time>
      </trkpt>
      <trkpt lat="46.34662" lon="5.83533">
        <ele>687.8</ele>
        <time>2021-10-17T09:28:50Z</time>
      </trkpt>
      <trkpt lat="46.3466" lon="5.83531">
        <ele>688</ele>
        <time>2021-10-17T09:28:51Z</time>
      </trkpt>
      <trkpt lat="46.34657" lon="5.83528">
        <ele>688</ele>
        <time>2021-10-17T09:28:52Z</time>
      </trkpt>
      <trkpt lat="46.34655" lon="5.83526">
        <ele>688.4</ele>
        <time>2021-10-17T09:28:53Z</time>
      </trkpt>
      <trkpt lat="46.34653" lon="5.83523">
        <ele>688.4</ele>
        <time>2021-10-17T09:28:54Z</time>
      </trkpt>
      <trkpt lat="46.34651" lon="5.8352">
        <ele>688.8</ele>
        <time>2021-10-17T09:28:55Z</time>
      </trkpt>
      <trkpt lat="46.34648" lon="5.83517">
        <ele>688.8</ele>
        <time>2021-10-17T09:28:56Z</time>
      </trkpt>
      <trkpt lat="46.34646" lon="5.83515">
        <ele>689</ele>
        <time>2021-10-17T09:28:57Z</time>
      </trkpt>
      <trkpt lat="46.34644" lon="5.83512">
        <ele>689.4</ele>
        <time>2021-10-17T09:28:58Z</time>
      </trkpt>
      <trkpt lat="46.34641" lon="5.8351">
        <ele>689.4</ele>
        <time>2021-10-17T09:28:59Z</time>
      </trkpt>
      <trkpt lat="46.34639" lon="5.83508">
        <ele>689.6</ele>
        <time>2021-10-17T09:29:00Z</time>
      </trkpt>
      <trkpt lat="46.34636" lon="5.83505">
        <ele>689.8</ele>
        <time>2021-10-17T09:29:01Z</time>
      </trkpt>
      <trkpt lat="46.34634" lon="5.83503">
        <ele>689.8</ele>
        <time>2021-10-17T09:29:02Z</time>
      </trkpt>
      <trkpt lat="46.34632" lon="5.835">
        <ele>690.2</ele>
        <time>2021-10-17T09:29:03Z</time>
      </trkpt>
      <trkpt lat="46.3463" lon="5.83497">
        <ele>690.4</ele>
        <time>2021-10-17T09:29:04Z</time>
      </trkpt>
      <trkpt lat="46.34627" lon="5.83494">
        <ele>690.4</ele>
        <time>2021-10-17T09:29:05Z</time>
      </trkpt>
      <trkpt lat="46.34624" lon="5.83491">
        <ele>690.6</ele>
        <time>2021-10-17T09:29:06Z</time>
      </trkpt>
      <trkpt lat="46.34622" lon="5.83488">
        <ele>690.6</ele>
        <time>2021-10-17T09:29:07Z</time>
      </trkpt>
      <trkpt lat="46.34619" lon="5.83485">
        <ele>691</ele>
        <time>2021-10-17T09:29:08Z</time>
      </trkpt>
      <trkpt lat="46.34616" lon="5.83482">
        <ele>691</ele>
        <time>2021-10-17T09:29:09Z</time>
      </trkpt>
      <trkpt lat="46.34614" lon="5.83478">
        <ele>691.4</ele>
        <time>2021-10-17T09:29:10Z</time>
      </trkpt>
      <trkpt lat="46.34611" lon="5.83475">
        <ele>691.6</ele>
        <time>2021-10-17T09:29:11Z</time>
      </trkpt>
      <trkpt lat="46.34609" lon="5.83472">
        <ele>692</ele>
        <time>2021-10-17T09:29:12Z</time>
      </trkpt>
      <trkpt lat="46.34606" lon="5.8347">
        <ele>692.2</ele>
        <time>2021-10-17T09:29:13Z</time>
      </trkpt>
      <trkpt lat="46.34604" lon="5.83467">
        <ele>692.4</ele>
        <time>2021-10-17T09:29:14Z</time>
      </trkpt>
      <trkpt lat="46.34601" lon="5.83464">
        <ele>692.6</ele>
        <time>2021-10-17T09:29:15Z</time>
      </trkpt>
      <trkpt lat="46.34599" lon="5.83461">
        <ele>692.6</ele>
        <time>2021-10-17T09:29:16Z</time>
      </trkpt>
      <trkpt lat="46.34596" lon="5.83458">
        <ele>693</ele>
        <time>2021-10-17T09:29:17Z</time>
      </trkpt>
      <trkpt lat="46.34594" lon="5.83455">
        <ele>693</ele>
        <time>2021-10-17T09:29:18Z</time>
      </trkpt>
      <trkpt lat="46.34591" lon="5.83452">
        <ele>693.4</ele>
        <time>2021-10-17T09:29:19Z</time>
      </trkpt>
      <trkpt lat="46.34589" lon="5.83449">
        <ele>693.6</ele>
        <time>2021-10-17T09:29:20Z</time>
      </trkpt>
      <trkpt lat="46.34587" lon="5.83446">
        <ele>693.8</ele>
        <time>2021-10-17T09:29:21Z</time>
      </trkpt>
      <trkpt lat="46.34584" lon="5.83443">
        <ele>693.8</ele>
        <time>2021-10-17T09:29:22Z</time>
      </trkpt>
      <trkpt lat="46.34582" lon="5.83439">
        <ele>694.2</ele>
        <time>2021-10-17T09:29:23Z</time>
      </trkpt>
      <trkpt lat="46.3458" lon="5.83436">
        <ele>694.2</ele>
        <time>2021-10-17T09:29:24Z</time>
      </trkpt>
      <trkpt lat="46.34578" lon="5.83433">
        <ele>694.6</ele>
        <time>2021-10-17T09:29:25Z</time>
      </trkpt>
      <trkpt lat="46.34575" lon="5.83431">
        <ele>694.8</ele>
        <time>2021-10-17T09:29:26Z</time>
      </trkpt>
      <trkpt lat="46.34572" lon="5.83428">
        <ele>694.8</ele>
        <time>2021-10-17T09:29:27Z</time>
      </trkpt>
      <trkpt lat="46.3457" lon="5.83425">
        <ele>695</ele>
        <time>2021-10-17T09:29:28Z</time>
      </trkpt>
      <trkpt lat="46.34567" lon="5.83422">
        <ele>695.4</ele>
        <time>2021-10-17T09:29:29Z</time>
      </trkpt>
      <trkpt lat="46.34565" lon="5.83419">
        <ele>695.4</ele>
        <time>2021-10-17T09:29:30Z</time>
      </trkpt>
      <trkpt lat="46.34563" lon="5.83416">
        <ele>695.6</ele>
        <time>2021-10-17T09:29:31Z</time>
      </trkpt>
      <trkpt lat="46.3456" lon="5.83413">
        <ele>695.6</ele>
        <time>2021-10-17T09:29:32Z</time>
      </trkpt>
      <trkpt lat="46.34558" lon="5.83411">
        <ele>696</ele>
        <time>2021-10-17T09:29:33Z</time>
      </trkpt>
      <trkpt lat="46.34555" lon="5.83408">
        <ele>696</ele>
        <time>2021-10-17T09:29:34Z</time>
      </trkpt>
      <trkpt lat="46.34552" lon="5.83406">
        <ele>696.2</ele>
        <time>2021-10-17T09:29:35Z</time>
      </trkpt>
      <trkpt lat="46.3455" lon="5.83403">
        <ele>696.2</ele>
        <time>2021-10-17T09:29:36Z</time>
      </trkpt>
      <trkpt lat="46.34547" lon="5.83401">
        <ele>696.6</ele>
        <time>2021-10-17T09:29:37Z</time>
      </trkpt>
      <trkpt lat="46.34545" lon="5.83399">
        <ele>696.6</ele>
        <time>2021-10-17T09:29:38Z</time>
      </trkpt>
      <trkpt lat="46.34543" lon="5.83397">
        <ele>696.8</ele>
        <time>2021-10-17T09:29:39Z</time>
      </trkpt>
      <trkpt lat="46.3454" lon="5.83394">
        <ele>696.8</ele>
        <time>2021-10-17T09:29:40Z</time>
      </trkpt>
      <trkpt lat="46.34538" lon="5.83392">
        <ele>697.2</ele>
        <time>2021-10-17T09:29:41Z</time>
      </trkpt>
      <trkpt lat="46.34535" lon="5.8339">
        <ele>697.4</ele>
        <time>2021-10-17T09:29:42Z</time>
      </trkpt>
      <trkpt lat="46.34533" lon="5.83387">
        <ele>697.6</ele>
        <time>2021-10-17T09:29:43Z</time>
      </trkpt>
      <trkpt lat="46.34531" lon="5.83385">
        <ele>697.6</ele>
        <time>2021-10-17T09:29:44Z</time>
      </trkpt>
      <trkpt lat="46.34528" lon="5.83383">
        <ele>698</ele>
        <time>2021-10-17T09:29:45Z</time>
      </trkpt>
      <trkpt lat="46.34526" lon="5.83381">
        <ele>698.2</ele>
        <time>2021-10-17T09:29:46Z</time>
      </trkpt>
      <trkpt lat="46.34524" lon="5.83379">
        <ele>698.4</ele>
        <time>2021-10-17T09:29:47Z</time>
      </trkpt>
      <trkpt lat="46.34521" lon="5.83377">
        <ele>698.4</ele>
        <time>2021-10-17T09:29:48Z</time>
      </trkpt>
      <trkpt lat="46.34519" lon="5.83374">
        <ele>698.8</ele>
        <time>2021-10-17T09:29:49Z</time>
      </trkpt>
      <trkpt lat="46.34516" lon="5.83372">
        <ele>698.8</ele>
        <time>2021-10-17T09:29:50Z</time>
      </trkpt>
      <trkpt lat="46.34513" lon="5.83369">
        <ele>699.2</ele>
        <time>2021-10-17T09:29:51Z</time>
      </trkpt>
      <trkpt lat="46.34511" lon="5.83367">
        <ele>699.2</ele>
        <time>2021-10-17T09:29:52Z</time>
      </trkpt>
      <trkpt lat="46.34508" lon="5.83365">
        <ele>699.4</ele>
        <time>2021-10-17T09:29:53Z</time>
      </trkpt>
      <trkpt lat="46.34505" lon="5.83363">
        <ele>699.4</ele>
        <time>2021-10-17T09:29:54Z</time>
      </trkpt>
      <trkpt lat="46.34503" lon="5.8336">
        <ele>699.8</ele>
        <time>2021-10-17T09:29:55Z</time>
      </trkpt>
      <trkpt lat="46.345" lon="5.83358">
        <ele>700</ele>
        <time>2021-10-17T09:29:56Z</time>
      </trkpt>
      <trkpt lat="46.34497" lon="5.83355">
        <ele>700</ele>
        <time>2021-10-17T09:29:57Z</time>
      </trkpt>
      <trkpt lat="46.34494" lon="5.83353">
        <ele>700.4</ele>
        <time>2021-10-17T09:29:58Z</time>
      </trkpt>
      <trkpt lat="46.34492" lon="5.83351">
        <ele>700.4</ele>
        <time>2021-10-17T09:29:59Z</time>
      </trkpt>
      <trkpt lat="46.34489" lon="5.83349">
        <ele>700.8</ele>
        <time>2021-10-17T09:30:00Z</time>
      </trkpt>
      <trkpt lat="46.34486" lon="5.83347">
        <ele>701</ele>
        <time>2021-10-17T09:30:01Z</time>
      </trkpt>
      <trkpt lat="46.34484" lon="5.83345">
        <ele>701.2</ele>
        <time>2021-10-17T09:30:02Z</time>
      </trkpt>
      <trkpt lat="46.34481" lon="5.83343">
        <ele>701.4</ele>
        <time>2021-10-17T09:30:03Z</time>
      </trkpt>
      <trkpt lat="46.34478" lon="5.8334">
        <ele>701.6</ele>
        <time>2021-10-17T09:30:04Z</time>
      </trkpt>
      <trkpt lat="46.34476" lon="5.83338">
        <ele>701.6</ele>
        <time>2021-10-17T09:30:05Z</time>
      </trkpt>
      <trkpt lat="46.34473" lon="5.83335">
        <ele>701.8</ele>
        <time>2021-10-17T09:30:06Z</time>
      </trkpt>
      <trkpt lat="46.34471" lon="5.83333">
        <ele>701.8</ele>
        <time>2021-10-17T09:30:07Z</time>
      </trkpt>
      <trkpt lat="46.34468" lon="5.8333">
        <ele>702.2</ele>
        <time>2021-10-17T09:30:08Z</time>
      </trkpt>
      <trkpt lat="46.34466" lon="5.83328">
        <ele>702.2</ele>
        <time>2021-10-17T09:30:09Z</time>
      </trkpt>
      <trkpt lat="46.34464" lon="5.83325">
        <ele>702.6</ele>
        <time>2021-10-17T09:30:10Z</time>
      </trkpt>
      <trkpt lat="46.34461" lon="5.83323">
        <ele>702.8</ele>
        <time>2021-10-17T09:30:11Z</time>
      </trkpt>
      <trkpt lat="46.34459" lon="5.83321">
        <ele>702.8</ele>
        <time>2021-10-17T09:30:12Z</time>
      </trkpt>
      <trkpt lat="46.34457" lon="5.83319">
        <ele>703.2</ele>
        <time>2021-10-17T09:30:13Z</time>
      </trkpt>
      <trkpt lat="46.34454" lon="5.83316">
        <ele>703.2</ele>
        <time>2021-10-17T09:30:14Z</time>
      </trkpt>
      <trkpt lat="46.34452" lon="5.83314">
        <ele>703.4</ele>
        <time>2021-10-17T09:30:15Z</time>
      </trkpt>
      <trkpt lat="46.3445" lon="5.83312">
        <ele>703.4</ele>
        <time>2021-10-17T09:30:16Z</time>
      </trkpt>
      <trkpt lat="46.34448" lon="5.8331">
        <ele>703.8</ele>
        <time>2021-10-17T09:30:17Z</time>
      </trkpt>
      <trkpt lat="46.34446" lon="5.83308">
        <ele>703.8</ele>
        <time>2021-10-17T09:30:18Z</time>
      </trkpt>
      <trkpt lat="46.34443" lon="5.83305">
        <ele>704</ele>
        <time>2021-10-17T09:30:19Z</time>
      </trkpt>
      <trkpt lat="46.34441" lon="5.83302">
        <ele>704</ele>
        <time>2021-10-17T09:30:20Z</time>
      </trkpt>
      <trkpt lat="46.34439" lon="5.83299">
        <ele>704.4</ele>
        <time>2021-10-17T09:30:21Z</time>
      </trkpt>
      <trkpt lat="46.34437" lon="5.83296">
        <ele>704.4</ele>
        <time>2021-10-17T09:30:22Z</time>
      </trkpt>
      <trkpt lat="46.34435" lon="5.83294">
        <ele>704.6</ele>
        <time>2021-10-17T09:30:23Z</time>
      </trkpt>
      <trkpt lat="46.34433" lon="5.83291">
        <ele>704.6</ele>
        <time>2021-10-17T09:30:24Z</time>
      </trkpt>
      <trkpt lat="46.34431" lon="5.83288">
        <ele>705</ele>
        <time>2021-10-17T09:30:25Z</time>
      </trkpt>
      <trkpt lat="46.34429" lon="5.83286">
        <ele>705</ele>
        <time>2021-10-17T09:30:26Z</time>
      </trkpt>
      <trkpt lat="46.34427" lon="5.83283">
        <ele>705.2</ele>
        <time>2021-10-17T09:30:27Z</time>
      </trkpt>
      <trkpt lat="46.34425" lon="5.83281">
        <ele>705.2</ele>
        <time>2021-10-17T09:30:28Z</time>
      </trkpt>
      <trkpt lat="46.34423" lon="5.83278">
        <ele>705.6</ele>
        <time>2021-10-17T09:30:29Z</time>
      </trkpt>
      <trkpt lat="46.3442" lon="5.83275">
        <ele>705.6</ele>
        <time>2021-10-17T09:30:30Z</time>
      </trkpt>
      <trkpt lat="46.34418" lon="5.83273">
        <ele>705.8</ele>
        <time>2021-10-17T09:30:31Z</time>
      </trkpt>
      <trkpt lat="46.34416" lon="5.8327">
        <ele>706.2</ele>
        <time>2021-10-17T09:30:32Z</time>
      </trkpt>
      <trkpt lat="46.34414" lon="5.83267">
        <ele>706.2</ele>
        <time>2021-10-17T09:30:33Z</time>
      </trkpt>
      <trkpt lat="46.34412" lon="5.83263">
        <ele>706.6</ele>
        <time>2021-10-17T09:30:34Z</time>
      </trkpt>
      <trkpt lat="46.3441" lon="5.8326">
        <ele>706.6</ele>
        <time>2021-10-17T09:30:35Z</time>
      </trkpt>
      <trkpt lat="46.34408" lon="5.83257">
        <ele>706.8</ele>
        <time>2021-10-17T09:30:36Z</time>
      </trkpt>
      <trkpt lat="46.34406" lon="5.83253">
        <ele>706.8</ele>
        <time>2021-10-17T09:30:37Z</time>
      </trkpt>
      <trkpt lat="46.34404" lon="5.8325">
        <ele>707.4</ele>
        <time>2021-10-17T09:30:38Z</time>
      </trkpt>
      <trkpt lat="46.34401" lon="5.83246">
        <ele>707.6</ele>
        <time>2021-10-17T09:30:39Z</time>
      </trkpt>
      <trkpt lat="46.34399" lon="5.83243">
        <ele>707.8</ele>
        <time>2021-10-17T09:30:40Z</time>
      </trkpt>
      <trkpt lat="46.34397" lon="5.8324">
        <ele>708.2</ele>
        <time>2021-10-17T09:30:41Z</time>
      </trkpt>
      <trkpt lat="46.34394" lon="5.83237">
        <ele>708.4</ele>
        <time>2021-10-17T09:30:42Z</time>
      </trkpt>
      <trkpt lat="46.34392" lon="5.83233">
        <ele>708.6</ele>
        <time>2021-10-17T09:30:43Z</time>
      </trkpt>
      <trkpt lat="46.3439" lon="5.8323">
        <ele>708.6</ele>
        <time>2021-10-17T09:30:44Z</time>
      </trkpt>
      <trkpt lat="46.34388" lon="5.83227">
        <ele>709</ele>
        <time>2021-10-17T09:30:45Z</time>
      </trkpt>
      <trkpt lat="46.34386" lon="5.83224">
        <ele>709</ele>
        <time>2021-10-17T09:30:46Z</time>
      </trkpt>
      <trkpt lat="46.34384" lon="5.83221">
        <ele>709.4</ele>
        <time>2021-10-17T09:30:47Z</time>
      </trkpt>
      <trkpt lat="46.34382" lon="5.83218">
        <ele>709.6</ele>
        <time>2021-10-17T09:30:48Z</time>
      </trkpt>
      <trkpt lat="46.3438" lon="5.83215">
        <ele>709.8</ele>
        <time>2021-10-17T09:30:49Z</time>
      </trkpt>
      <trkpt lat="46.34378" lon="5.83211">
        <ele>710</ele>
        <time>2021-10-17T09:30:50Z</time>
      </trkpt>
      <trkpt lat="46.34376" lon="5.83208">
        <ele>710.4</ele>
        <time>2021-10-17T09:30:51Z</time>
      </trkpt>
      <trkpt lat="46.34374" lon="5.83205">
        <ele>710.6</ele>
        <time>2021-10-17T09:30:52Z</time>
      </trkpt>
      <trkpt lat="46.34372" lon="5.83202">
        <ele>710.6</ele>
        <time>2021-10-17T09:30:53Z</time>
      </trkpt>
      <trkpt lat="46.3437" lon="5.83199">
        <ele>710.8</ele>
        <time>2021-10-17T09:30:54Z</time>
      </trkpt>
      <trkpt lat="46.34368" lon="5.83196">
        <ele>711</ele>
        <time>2021-10-17T09:30:55Z</time>
      </trkpt>
      <trkpt lat="46.34366" lon="5.83193">
        <ele>711</ele>
        <time>2021-10-17T09:30:56Z</time>
      </trkpt>
      <trkpt lat="46.34364" lon="5.8319">
        <ele>711.4</ele>
        <time>2021-10-17T09:30:57Z</time>
      </trkpt>
      <trkpt lat="46.34361" lon="5.83187">
        <ele>711.6</ele>
        <time>2021-10-17T09:30:58Z</time>
      </trkpt>
      <trkpt lat="46.34359" lon="5.83184">
        <ele>711.6</ele>
        <time>2021-10-17T09:30:59Z</time>
      </trkpt>
      <trkpt lat="46.34357" lon="5.83181">
        <ele>712.2</ele>
        <time>2021-10-17T09:31:00Z</time>
      </trkpt>
      <trkpt lat="46.34355" lon="5.83177">
        <ele>712.4</ele>
        <time>2021-10-17T09:31:01Z</time>
      </trkpt>
      <trkpt lat="46.34353" lon="5.83175">
        <ele>712.6</ele>
        <time>2021-10-17T09:31:02Z</time>
      </trkpt>
      <trkpt lat="46.34351" lon="5.83172">
        <ele>713</ele>
        <time>2021-10-17T09:31:03Z</time>
      </trkpt>
      <trkpt lat="46.34349" lon="5.83169">
        <ele>713.2</ele>
        <time>2021-10-17T09:31:04Z</time>
      </trkpt>
      <trkpt lat="46.34347" lon="5.83166">
        <ele>713.4</ele>
        <time>2021-10-17T09:31:05Z</time>
      </trkpt>
      <trkpt lat="46.34345" lon="5.83163">
        <ele>713.4</ele>
        <time>2021-10-17T09:31:06Z</time>
      </trkpt>
      <trkpt lat="46.34343" lon="5.8316">
        <ele>713.8</ele>
        <time>2021-10-17T09:31:07Z</time>
      </trkpt>
      <trkpt lat="46.34341" lon="5.83156">
        <ele>713.8</ele>
        <time>2021-10-17T09:31:08Z</time>
      </trkpt>
      <trkpt lat="46.34339" lon="5.83153">
        <ele>714.2</ele>
        <time>2021-10-17T09:31:09Z</time>
      </trkpt>
      <trkpt lat="46.34337" lon="5.83149">
        <ele>714.2</ele>
        <time>2021-10-17T09:31:10Z</time>
      </trkpt>
      <trkpt lat="46.34335" lon="5.83146">
        <ele>714.6</ele>
        <time>2021-10-17T09:31:11Z</time>
      </trkpt>
      <trkpt lat="46.34333" lon="5.83143">
        <ele>714.6</ele>
        <time>2021-10-17T09:31:12Z</time>
      </trkpt>
      <trkpt lat="46.34331" lon="5.8314">
        <ele>714.8</ele>
        <time>2021-10-17T09:31:13Z</time>
      </trkpt>
      <trkpt lat="46.34329" lon="5.83137">
        <ele>714.8</ele>
        <time>2021-10-17T09:31:14Z</time>
      </trkpt>
      <trkpt lat="46.34327" lon="5.83134">
        <ele>715.2</ele>
        <time>2021-10-17T09:31:15Z</time>
      </trkpt>
      <trkpt lat="46.34325" lon="5.83131">
        <ele>715.4</ele>
        <time>2021-10-17T09:31:16Z</time>
      </trkpt>
      <trkpt lat="46.34323" lon="5.83128">
        <ele>715.4</ele>
        <time>2021-10-17T09:31:17Z</time>
      </trkpt>
      <trkpt lat="46.34321" lon="5.83124">
        <ele>715.8</ele>
        <time>2021-10-17T09:31:18Z</time>
      </trkpt>
      <trkpt lat="46.34319" lon="5.83121">
        <ele>716</ele>
        <time>2021-10-17T09:31:19Z</time>
      </trkpt>
      <trkpt lat="46.34317" lon="5.83118">
        <ele>716</ele>
        <time>2021-10-17T09:31:20Z</time>
      </trkpt>
      <trkpt lat="46.34315" lon="5.83115">
        <ele>716.4</ele>
        <time>2021-10-17T09:31:21Z</time>
      </trkpt>
      <trkpt lat="46.34313" lon="5.83112">
        <ele>716.4</ele>
        <time>2021-10-17T09:31:22Z</time>
      </trkpt>
      <trkpt lat="46.34311" lon="5.83109">
        <ele>716.6</ele>
        <time>2021-10-17T09:31:23Z</time>
      </trkpt>
      <trkpt lat="46.34309" lon="5.83107">
        <ele>716.6</ele>
        <time>2021-10-17T09:31:24Z</time>
      </trkpt>
      <trkpt lat="46.34307" lon="5.83104">
        <ele>717</ele>
        <time>2021-10-17T09:31:25Z</time>
      </trkpt>
      <trkpt lat="46.34305" lon="5.83101">
        <ele>717.2</ele>
        <time>2021-10-17T09:31:26Z</time>
      </trkpt>
      <trkpt lat="46.34303" lon="5.83098">
        <ele>717.4</ele>
        <time>2021-10-17T09:31:27Z</time>
      </trkpt>
      <trkpt lat="46.34301" lon="5.83095">
        <ele>717.4</ele>
        <time>2021-10-17T09:31:28Z</time>
      </trkpt>
      <trkpt lat="46.34299" lon="5.83091">
        <ele>717.8</ele>
        <time>2021-10-17T09:31:29Z</time>
      </trkpt>
      <trkpt lat="46.34297" lon="5.83088">
        <ele>717.8</ele>
        <time>2021-10-17T09:31:30Z</time>
      </trkpt>
      <trkpt lat="46.34296" lon="5.83084">
        <ele>718.2</ele>
        <time>2021-10-17T09:31:31Z</time>
      </trkpt>
      <trkpt lat="46.34294" lon="5.83081">
        <ele>718.4</ele>
        <time>2021-10-17T09:31:32Z</time>
      </trkpt>
      <trkpt lat="46.34292" lon="5.83078">
        <ele>718.4</ele>
        <time>2021-10-17T09:31:33Z</time>
      </trkpt>
      <trkpt lat="46.3429" lon="5.83075">
        <ele>719</ele>
        <time>2021-10-17T09:31:34Z</time>
      </trkpt>
      <trkpt lat="46.34288" lon="5.83072">
        <ele>719.2</ele>
        <time>2021-10-17T09:31:35Z</time>
      </trkpt>
      <trkpt lat="46.34286" lon="5.83068">
        <ele>719.4</ele>
        <time>2021-10-17T09:31:36Z</time>
      </trkpt>
      <trkpt lat="46.34284" lon="5.83065">
        <ele>719.6</ele>
        <time>2021-10-17T09:31:37Z</time>
      </trkpt>
      <trkpt lat="46.34282" lon="5.83062">
        <ele>719.6</ele>
        <time>2021-10-17T09:31:38Z</time>
      </trkpt>
      <trkpt lat="46.3428" lon="5.83059">
        <ele>720</ele>
        <time>2021-10-17T09:31:39Z</time>
      </trkpt>
      <trkpt lat="46.34278" lon="5.83056">
        <ele>720</ele>
        <time>2021-10-17T09:31:40Z</time>
      </trkpt>
      <trkpt lat="46.34276" lon="5.83053">
        <ele>720.4</ele>
        <time>2021-10-17T09:31:41Z</time>
      </trkpt>
      <trkpt lat="46.34274" lon="5.8305">
        <ele>720.6</ele>
        <time>2021-10-17T09:31:42Z</time>
      </trkpt>
      <trkpt lat="46.34272" lon="5.83048">
        <ele>720.6</ele>
        <time>2021-10-17T09:31:43Z</time>
      </trkpt>
      <trkpt lat="46.3427" lon="5.83045">
        <ele>721</ele>
        <time>2021-10-17T09:31:44Z</time>
      </trkpt>
      <trkpt lat="46.34267" lon="5.83042">
        <ele>721.2</ele>
        <time>2021-10-17T09:31:45Z</time>
      </trkpt>
      <trkpt lat="46.34265" lon="5.83039">
        <ele>721.2</ele>
        <time>2021-10-17T09:31:46Z</time>
      </trkpt>
      <trkpt lat="46.34263" lon="5.83036">
        <ele>721.6</ele>
        <time>2021-10-17T09:31:47Z</time>
      </trkpt>
      <trkpt lat="46.34261" lon="5.83033">
        <ele>721.6</ele>
        <time>2021-10-17T09:31:48Z</time>
      </trkpt>
      <trkpt lat="46.34259" lon="5.8303">
        <ele>721.8</ele>
        <time>2021-10-17T09:31:49Z</time>
      </trkpt>
      <trkpt lat="46.34257" lon="5.83027">
        <ele>721.8</ele>
        <time>2021-10-17T09:31:50Z</time>
      </trkpt>
      <trkpt lat="46.34255" lon="5.83024">
        <ele>722.2</ele>
        <time>2021-10-17T09:31:51Z</time>
      </trkpt>
      <trkpt lat="46.34253" lon="5.83022">
        <ele>722.2</ele>
        <time>2021-10-17T09:31:52Z</time>
      </trkpt>
      <trkpt lat="46.34251" lon="5.83019">
        <ele>722.4</ele>
        <time>2021-10-17T09:31:53Z</time>
      </trkpt>
      <trkpt lat="46.34249" lon="5.83016">
        <ele>722.4</ele>
        <time>2021-10-17T09:31:54Z</time>
      </trkpt>
      <trkpt lat="46.34247" lon="5.83013">
        <ele>722.8</ele>
        <time>2021-10-17T09:31:55Z</time>
      </trkpt>
      <trkpt lat="46.34245" lon="5.8301">
        <ele>722.8</ele>
        <time>2021-10-17T09:31:56Z</time>
      </trkpt>
      <trkpt lat="46.34243" lon="5.83007">
        <ele>723.2</ele>
        <time>2021-10-17T09:31:57Z</time>
      </trkpt>
      <trkpt lat="46.3424" lon="5.83005">
        <ele>723.4</ele>
        <time>2021-10-17T09:31:58Z</time>
      </trkpt>
      <trkpt lat="46.34238" lon="5.83002">
        <ele>723.4</ele>
        <time>2021-10-17T09:31:59Z</time>
      </trkpt>
      <trkpt lat="46.34236" lon="5.82999">
        <ele>723.6</ele>
        <time>2021-10-17T09:32:00Z</time>
      </trkpt>
      <trkpt lat="46.34234" lon="5.82997">
        <ele>723.6</ele>
        <time>2021-10-17T09:32:01Z</time>
      </trkpt>
      <trkpt lat="46.34232" lon="5.82994">
        <ele>724</ele>
        <time>2021-10-17T09:32:02Z</time>
      </trkpt>
      <trkpt lat="46.3423" lon="5.82992">
        <ele>724</ele>
        <time>2021-10-17T09:32:03Z</time>
      </trkpt>
      <trkpt lat="46.34228" lon="5.82989">
        <ele>724.4</ele>
        <time>2021-10-17T09:32:04Z</time>
      </trkpt>
      <trkpt lat="46.34226" lon="5.82986">
        <ele>724.4</ele>
        <time>2021-10-17T09:32:05Z</time>
      </trkpt>
      <trkpt lat="46.34224" lon="5.82983">
        <ele>724.8</ele>
        <time>2021-10-17T09:32:06Z</time>
      </trkpt>
      <trkpt lat="46.34222" lon="5.82981">
        <ele>724.8</ele>
        <time>2021-10-17T09:32:07Z</time>
      </trkpt>
      <trkpt lat="46.3422" lon="5.82978">
        <ele>725</ele>
        <time>2021-10-17T09:32:08Z</time>
      </trkpt>
      <trkpt lat="46.34218" lon="5.82975">
        <ele>725</ele>
        <time>2021-10-17T09:32:09Z</time>
      </trkpt>
      <trkpt lat="46.34216" lon="5.82972">
        <ele>725.4</ele>
        <time>2021-10-17T09:32:10Z</time>
      </trkpt>
      <trkpt lat="46.34214" lon="5.82969">
        <ele>725.6</ele>
        <time>2021-10-17T09:32:11Z</time>
      </trkpt>
      <trkpt lat="46.34212" lon="5.82966">
        <ele>725.6</ele>
        <time>2021-10-17T09:32:12Z</time>
      </trkpt>
      <trkpt lat="46.3421" lon="5.82963">
        <ele>726</ele>
        <time>2021-10-17T09:32:13Z</time>
      </trkpt>
      <trkpt lat="46.34208" lon="5.8296">
        <ele>726</ele>
        <time>2021-10-17T09:32:14Z</time>
      </trkpt>
      <trkpt lat="46.34206" lon="5.82957">
        <ele>726.4</ele>
        <time>2021-10-17T09:32:15Z</time>
      </trkpt>
      <trkpt lat="46.34204" lon="5.82953">
        <ele>726.4</ele>
        <time>2021-10-17T09:32:16Z</time>
      </trkpt>
      <trkpt lat="46.34203" lon="5.8295">
        <ele>726.8</ele>
        <time>2021-10-17T09:32:17Z</time>
      </trkpt>
      <trkpt lat="46.34201" lon="5.82946">
        <ele>726.8</ele>
        <time>2021-10-17T09:32:18Z</time>
      </trkpt>
      <trkpt lat="46.34199" lon="5.82943">
        <ele>727.2</ele>
        <time>2021-10-17T09:32:19Z</time>
      </trkpt>
      <trkpt lat="46.34198" lon="5.82939">
        <ele>727.4</ele>
        <time>2021-10-17T09:32:20Z</time>
      </trkpt>
      <trkpt lat="46.34196" lon="5.82936">
        <ele>727.4</ele>
        <time>2021-10-17T09:32:21Z</time>
      </trkpt>
      <trkpt lat="46.34195" lon="5.82932">
        <ele>727.8</ele>
        <time>2021-10-17T09:32:22Z</time>
      </trkpt>
      <trkpt lat="46.34193" lon="5.82928">
        <ele>727.8</ele>
        <time>2021-10-17T09:32:23Z</time>
      </trkpt>
      <trkpt lat="46.34192" lon="5.82925">
        <ele>728.2</ele>
        <time>2021-10-17T09:32:24Z</time>
      </trkpt>
      <trkpt lat="46.3419" lon="5.82921">
        <ele>728.4</ele>
        <time>2021-10-17T09:32:25Z</time>
      </trkpt>
      <trkpt lat="46.34189" lon="5.82918">
        <ele>728.6</ele>
        <time>2021-10-17T09:32:26Z</time>
      </trkpt>
      <trkpt lat="46.34187" lon="5.82914">
        <ele>728.8</ele>
        <time>2021-10-17T09:32:27Z</time>
      </trkpt>
      <trkpt lat="46.34186" lon="5.8291">
        <ele>728.8</ele>
        <time>2021-10-17T09:32:28Z</time>
      </trkpt>
      <trkpt lat="46.34186" lon="5.82907">
        <ele>729.2</ele>
        <time>2021-10-17T09:32:29Z</time>
      </trkpt>
      <trkpt lat="46.34185" lon="5.82903">
        <ele>729.2</ele>
        <time>2021-10-17T09:32:30Z</time>
      </trkpt>
      <trkpt lat="46.34184" lon="5.82898">
        <ele>729.6</ele>
        <time>2021-10-17T09:32:31Z</time>
      </trkpt>
      <trkpt lat="46.34183" lon="5.82895">
        <ele>729.6</ele>
        <time>2021-10-17T09:32:32Z</time>
      </trkpt>
      <trkpt lat="46.34182" lon="5.82891">
        <ele>730</ele>
        <time>2021-10-17T09:32:33Z</time>
      </trkpt>
      <trkpt lat="46.34181" lon="5.82887">
        <ele>730.2</ele>
        <time>2021-10-17T09:32:34Z</time>
      </trkpt>
      <trkpt lat="46.34181" lon="5.82883">
        <ele>730.2</ele>
        <time>2021-10-17T09:32:35Z</time>
      </trkpt>
      <trkpt lat="46.3418" lon="5.82879">
        <ele>730.6</ele>
        <time>2021-10-17T09:32:36Z</time>
      </trkpt>
      <trkpt lat="46.34179" lon="5.82875">
        <ele>730.6</ele>
        <time>2021-10-17T09:32:37Z</time>
      </trkpt>
      <trkpt lat="46.34178" lon="5.82871">
        <ele>730.8</ele>
        <time>2021-10-17T09:32:38Z</time>
      </trkpt>
      <trkpt lat="46.34177" lon="5.82867">
        <ele>731</ele>
        <time>2021-10-17T09:32:39Z</time>
      </trkpt>
      <trkpt lat="46.34177" lon="5.82864">
        <ele>731.2</ele>
        <time>2021-10-17T09:32:40Z</time>
      </trkpt>
      <trkpt lat="46.34176" lon="5.8286">
        <ele>731.2</ele>
        <time>2021-10-17T09:32:41Z</time>
      </trkpt>
      <trkpt lat="46.34175" lon="5.82856">
        <ele>731.6</ele>
        <time>2021-10-17T09:32:42Z</time>
      </trkpt>
      <trkpt lat="46.34174" lon="5.82852">
        <ele>731.8</ele>
        <time>2021-10-17T09:32:43Z</time>
      </trkpt>
      <trkpt lat="46.34173" lon="5.82848">
        <ele>731.8</ele>
        <time>2021-10-17T09:32:44Z</time>
      </trkpt>
      <trkpt lat="46.34172" lon="5.82844">
        <ele>732</ele>
        <time>2021-10-17T09:32:45Z</time>
      </trkpt>
      <trkpt lat="46.34172" lon="5.8284">
        <ele>732</ele>
        <time>2021-10-17T09:32:46Z</time>
      </trkpt>
      <trkpt lat="46.3417" lon="5.82837">
        <ele>732.4</ele>
        <time>2021-10-17T09:32:47Z</time>
      </trkpt>
      <trkpt lat="46.34169" lon="5.82833">
        <ele>732.4</ele>
        <time>2021-10-17T09:32:48Z</time>
      </trkpt>
      <trkpt lat="46.34168" lon="5.82829">
        <ele>732.8</ele>
        <time>2021-10-17T09:32:49Z</time>
      </trkpt>
      <trkpt lat="46.34166" lon="5.82826">
        <ele>733</ele>
        <time>2021-10-17T09:32:50Z</time>
      </trkpt>
      <trkpt lat="46.34164" lon="5.82822">
        <ele>733.2</ele>
        <time>2021-10-17T09:32:51Z</time>
      </trkpt>
      <trkpt lat="46.34162" lon="5.82819">
        <ele>733.2</ele>
        <time>2021-10-17T09:32:52Z</time>
      </trkpt>
      <trkpt lat="46.3416" lon="5.82816">
        <ele>733.6</ele>
        <time>2021-10-17T09:32:53Z</time>
      </trkpt>
      <trkpt lat="46.34158" lon="5.82812">
        <ele>733.6</ele>
        <time>2021-10-17T09:32:54Z</time>
      </trkpt>
      <trkpt lat="46.34156" lon="5.82809">
        <ele>734</ele>
        <time>2021-10-17T09:32:55Z</time>
      </trkpt>
      <trkpt lat="46.34154" lon="5.82806">
        <ele>734</ele>
        <time>2021-10-17T09:32:56Z</time>
      </trkpt>
      <trkpt lat="46.34152" lon="5.82802">
        <ele>734.4</ele>
        <time>2021-10-17T09:32:57Z</time>
      </trkpt>
      <trkpt lat="46.3415" lon="5.82799">
        <ele>734.6</ele>
        <time>2021-10-17T09:32:58Z</time>
      </trkpt>
      <trkpt lat="46.34148" lon="5.82796">
        <ele>734.8</ele>
        <time>2021-10-17T09:32:59Z</time>
      </trkpt>
      <trkpt lat="46.34146" lon="5.82792">
        <ele>734.8</ele>
        <time>2021-10-17T09:33:00Z</time>
      </trkpt>
      <trkpt lat="46.34143" lon="5.8279">
        <ele>735</ele>
        <time>2021-10-17T09:33:01Z</time>
      </trkpt>
      <trkpt lat="46.34141" lon="5.82786">
        <ele>735.2</ele>
        <time>2021-10-17T09:33:02Z</time>
      </trkpt>
      <trkpt lat="46.34139" lon="5.82783">
        <ele>735.6</ele>
        <time>2021-10-17T09:33:03Z</time>
      </trkpt>
      <trkpt lat="46.34137" lon="5.8278">
        <ele>735.6</ele>
        <time>2021-10-17T09:33:04Z</time>
      </trkpt>
      <trkpt lat="46.34135" lon="5.82776">
        <ele>736</ele>
        <time>2021-10-17T09:33:05Z</time>
      </trkpt>
      <trkpt lat="46.34133" lon="5.82773">
        <ele>736</ele>
        <time>2021-10-17T09:33:06Z</time>
      </trkpt>
      <trkpt lat="46.34132" lon="5.82769">
        <ele>736.2</ele>
        <time>2021-10-17T09:33:07Z</time>
      </trkpt>
      <trkpt lat="46.3413" lon="5.82766">
        <ele>736.6</ele>
        <time>2021-10-17T09:33:08Z</time>
      </trkpt>
      <trkpt lat="46.34128" lon="5.82763">
        <ele>736.6</ele>
        <time>2021-10-17T09:33:09Z</time>
      </trkpt>
      <trkpt lat="46.34126" lon="5.8276">
        <ele>736.8</ele>
        <time>2021-10-17T09:33:10Z</time>
      </trkpt>
      <trkpt lat="46.34123" lon="5.82757">
        <ele>736.8</ele>
        <time>2021-10-17T09:33:11Z</time>
      </trkpt>
      <trkpt lat="46.34121" lon="5.82754">
        <ele>737.2</ele>
        <time>2021-10-17T09:33:12Z</time>
      </trkpt>
      <trkpt lat="46.34118" lon="5.82751">
        <ele>737.2</ele>
        <time>2021-10-17T09:33:13Z</time>
      </trkpt>
      <trkpt lat="46.34116" lon="5.82748">
        <ele>737.8</ele>
        <time>2021-10-17T09:33:14Z</time>
      </trkpt>
      <trkpt lat="46.34113" lon="5.82746">
        <ele>737.8</ele>
        <time>2021-10-17T09:33:15Z</time>
      </trkpt>
      <trkpt lat="46.34111" lon="5.82743">
        <ele>738.2</ele>
        <time>2021-10-17T09:33:16Z</time>
      </trkpt>
      <trkpt lat="46.34108" lon="5.82741">
        <ele>738.4</ele>
        <time>2021-10-17T09:33:17Z</time>
      </trkpt>
      <trkpt lat="46.34105" lon="5.82739">
        <ele>738.6</ele>
        <time>2021-10-17T09:33:18Z</time>
      </trkpt>
      <trkpt lat="46.34102" lon="5.82737">
        <ele>738.8</ele>
        <time>2021-10-17T09:33:19Z</time>
      </trkpt>
      <trkpt lat="46.34098" lon="5.82736">
        <ele>738.8</ele>
        <time>2021-10-17T09:33:20Z</time>
      </trkpt>
      <trkpt lat="46.34095" lon="5.82734">
        <ele>739.2</ele>
        <time>2021-10-17T09:33:21Z</time>
      </trkpt>
      <trkpt lat="46.34092" lon="5.82733">
        <ele>739.2</ele>
        <time>2021-10-17T09:33:22Z</time>
      </trkpt>
      <trkpt lat="46.34089" lon="5.82732">
        <ele>739.6</ele>
        <time>2021-10-17T09:33:23Z</time>
      </trkpt>
      <trkpt lat="46.34086" lon="5.82731">
        <ele>739.8</ele>
        <time>2021-10-17T09:33:24Z</time>
      </trkpt>
      <trkpt lat="46.34083" lon="5.8273">
        <ele>740</ele>
        <time>2021-10-17T09:33:25Z</time>
      </trkpt>
      <trkpt lat="46.34079" lon="5.82729">
        <ele>740.2</ele>
        <time>2021-10-17T09:33:26Z</time>
      </trkpt>
      <trkpt lat="46.34076" lon="5.82728">
        <ele>740.2</ele>
        <time>2021-10-17T09:33:27Z</time>
      </trkpt>
      <trkpt lat="46.34073" lon="5.82727">
        <ele>740.6</ele>
        <time>2021-10-17T09:33:28Z</time>
      </trkpt>
      <trkpt lat="46.34069" lon="5.82726">
        <ele>740.8</ele>
        <time>2021-10-17T09:33:29Z</time>
      </trkpt>
      <trkpt lat="46.34066" lon="5.82725">
        <ele>740.8</ele>
        <time>2021-10-17T09:33:30Z</time>
      </trkpt>
      <trkpt lat="46.34063" lon="5.82724">
        <ele>741.2</ele>
        <time>2021-10-17T09:33:31Z</time>
      </trkpt>
      <trkpt lat="46.34058" lon="5.82721">
        <ele>741.4</ele>
        <time>2021-10-17T09:33:32Z</time>
      </trkpt>
      <trkpt lat="46.34057" lon="5.8272">
        <ele>741.4</ele>
        <time>2021-10-17T09:33:33Z</time>
      </trkpt>
      <trkpt lat="46.34053" lon="5.82717">
        <ele>741.8</ele>
        <time>2021-10-17T09:33:34Z</time>
      </trkpt>
      <trkpt lat="46.3405" lon="5.82715">
        <ele>742.2</ele>
        <time>2021-10-17T09:33:35Z</time>
      </trkpt>
      <trkpt lat="46.34047" lon="5.82712">
        <ele>742.4</ele>
        <time>2021-10-17T09:33:36Z</time>
      </trkpt>
      <trkpt lat="46.34044" lon="5.8271">
        <ele>742.6</ele>
        <time>2021-10-17T09:33:37Z</time>
      </trkpt>
      <trkpt lat="46.34041" lon="5.82707">
        <ele>742.8</ele>
        <time>2021-10-17T09:33:38Z</time>
      </trkpt>
      <trkpt lat="46.34039" lon="5.82705">
        <ele>743</ele>
        <time>2021-10-17T09:33:39Z</time>
      </trkpt>
      <trkpt lat="46.34036" lon="5.82702">
        <ele>743.2</ele>
        <time>2021-10-17T09:33:40Z</time>
      </trkpt>
      <trkpt lat="46.34033" lon="5.827">
        <ele>743.2</ele>
        <time>2021-10-17T09:33:41Z</time>
      </trkpt>
      <trkpt lat="46.3403" lon="5.82697">
        <ele>743.6</ele>
        <time>2021-10-17T09:33:42Z</time>
      </trkpt>
      <trkpt lat="46.34027" lon="5.82695">
        <ele>743.8</ele>
        <time>2021-10-17T09:33:43Z</time>
      </trkpt>
      <trkpt lat="46.34024" lon="5.82692">
        <ele>743.8</ele>
        <time>2021-10-17T09:33:44Z</time>
      </trkpt>
      <trkpt lat="46.34021" lon="5.8269">
        <ele>744.2</ele>
        <time>2021-10-17T09:33:45Z</time>
      </trkpt>
      <trkpt lat="46.34018" lon="5.82687">
        <ele>744.6</ele>
        <time>2021-10-17T09:33:46Z</time>
      </trkpt>
      <trkpt lat="46.34016" lon="5.82685">
        <ele>744.8</ele>
        <time>2021-10-17T09:33:47Z</time>
      </trkpt>
      <trkpt lat="46.34013" lon="5.82682">
        <ele>745</ele>
        <time>2021-10-17T09:33:48Z</time>
      </trkpt>
      <trkpt lat="46.34011" lon="5.82679">
        <ele>745.2</ele>
        <time>2021-10-17T09:33:49Z</time>
      </trkpt>
      <trkpt lat="46.34008" lon="5.82676">
        <ele>745.4</ele>
        <time>2021-10-17T09:33:50Z</time>
      </trkpt>
      <trkpt lat="46.34006" lon="5.82674">
        <ele>745.8</ele>
        <time>2021-10-17T09:33:51Z</time>
      </trkpt>
      <trkpt lat="46.34002" lon="5.8267">
        <ele>746</ele>
        <time>2021-10-17T09:33:52Z</time>
      </trkpt>
      <trkpt lat="46.34001" lon="5.82669">
        <ele>746.2</ele>
        <time>2021-10-17T09:33:53Z</time>
      </trkpt>
      <trkpt lat="46.33998" lon="5.82666">
        <ele>746.2</ele>
        <time>2021-10-17T09:33:54Z</time>
      </trkpt>
      <trkpt lat="46.33996" lon="5.82663">
        <ele>746.6</ele>
        <time>2021-10-17T09:33:55Z</time>
      </trkpt>
      <trkpt lat="46.33993" lon="5.8266">
        <ele>746.8</ele>
        <time>2021-10-17T09:33:56Z</time>
      </trkpt>
      <trkpt lat="46.3399" lon="5.82657">
        <ele>746.8</ele>
        <time>2021-10-17T09:33:57Z</time>
      </trkpt>
      <trkpt lat="46.33988" lon="5.82654">
        <ele>747.2</ele>
        <time>2021-10-17T09:33:58Z</time>
      </trkpt>
      <trkpt lat="46.33985" lon="5.82652">
        <ele>747.4</ele>
        <time>2021-10-17T09:33:59Z</time>
      </trkpt>
      <trkpt lat="46.33983" lon="5.82649">
        <ele>747.4</ele>
        <time>2021-10-17T09:34:00Z</time>
      </trkpt>
      <trkpt lat="46.3398" lon="5.82646">
        <ele>747.6</ele>
        <time>2021-10-17T09:34:01Z</time>
      </trkpt>
      <trkpt lat="46.33978" lon="5.82644">
        <ele>747.6</ele>
        <time>2021-10-17T09:34:02Z</time>
      </trkpt>
      <trkpt lat="46.33974" lon="5.8264">
        <ele>748.2</ele>
        <time>2021-10-17T09:34:03Z</time>
      </trkpt>
      <trkpt lat="46.33973" lon="5.82639">
        <ele>748.4</ele>
        <time>2021-10-17T09:34:04Z</time>
      </trkpt>
      <trkpt lat="46.33969" lon="5.82634">
        <ele>748.4</ele>
        <time>2021-10-17T09:34:05Z</time>
      </trkpt>
      <trkpt lat="46.33968" lon="5.82633">
        <ele>748.6</ele>
        <time>2021-10-17T09:34:06Z</time>
      </trkpt>
      <trkpt lat="46.33965" lon="5.82629">
        <ele>748.6</ele>
        <time>2021-10-17T09:34:07Z</time>
      </trkpt>
      <trkpt lat="46.33963" lon="5.82627">
        <ele>749</ele>
        <time>2021-10-17T09:34:08Z</time>
      </trkpt>
      <trkpt lat="46.33961" lon="5.82625">
        <ele>749.2</ele>
        <time>2021-10-17T09:34:09Z</time>
      </trkpt>
      <trkpt lat="46.33958" lon="5.82622">
        <ele>749.2</ele>
        <time>2021-10-17T09:34:10Z</time>
      </trkpt>
      <trkpt lat="46.33956" lon="5.8262">
        <ele>749.4</ele>
        <time>2021-10-17T09:34:11Z</time>
      </trkpt>
      <trkpt lat="46.33954" lon="5.82617">
        <ele>749.8</ele>
        <time>2021-10-17T09:34:12Z</time>
      </trkpt>
      <trkpt lat="46.33951" lon="5.82614">
        <ele>750</ele>
        <time>2021-10-17T09:34:13Z</time>
      </trkpt>
      <trkpt lat="46.33949" lon="5.82612">
        <ele>750</ele>
        <time>2021-10-17T09:34:14Z</time>
      </trkpt>
      <trkpt lat="46.33946" lon="5.82609">
        <ele>750.4</ele>
        <time>2021-10-17T09:34:15Z</time>
      </trkpt>
      <trkpt lat="46.33943" lon="5.82606">
        <ele>750.6</ele>
        <time>2021-10-17T09:34:16Z</time>
      </trkpt>
      <trkpt lat="46.33941" lon="5.82604">
        <ele>750.8</ele>
        <time>2021-10-17T09:34:17Z</time>
      </trkpt>
      <trkpt lat="46.33938" lon="5.82601">
        <ele>751.2</ele>
        <time>2021-10-17T09:34:18Z</time>
      </trkpt>
      <trkpt lat="46.33936" lon="5.82598">
        <ele>751.4</ele>
        <time>2021-10-17T09:34:19Z</time>
      </trkpt>
      <trkpt lat="46.33933" lon="5.82595">
        <ele>751.6</ele>
        <time>2021-10-17T09:34:20Z</time>
      </trkpt>
      <trkpt lat="46.33929" lon="5.82591">
        <ele>751.6</ele>
        <time>2021-10-17T09:34:21Z</time>
      </trkpt>
      <trkpt lat="46.33928" lon="5.8259">
        <ele>752</ele>
        <time>2021-10-17T09:34:22Z</time>
      </trkpt>
      <trkpt lat="46.33926" lon="5.82587">
        <ele>752</ele>
        <time>2021-10-17T09:34:23Z</time>
      </trkpt>
      <trkpt lat="46.33923" lon="5.82585">
        <ele>752.4</ele>
        <time>2021-10-17T09:34:24Z</time>
      </trkpt>
      <trkpt lat="46.33919" lon="5.82582">
        <ele>752.4</ele>
        <time>2021-10-17T09:34:25Z</time>
      </trkpt>
      <trkpt lat="46.33918" lon="5.8258">
        <ele>752.6</ele>
        <time>2021-10-17T09:34:26Z</time>
      </trkpt>
      <trkpt lat="46.33916" lon="5.82577">
        <ele>753.2</ele>
        <time>2021-10-17T09:34:27Z</time>
      </trkpt>
      <trkpt lat="46.33914" lon="5.82574">
        <ele>753.4</ele>
        <time>2021-10-17T09:34:28Z</time>
      </trkpt>
      <trkpt lat="46.33911" lon="5.82571">
        <ele>753.6</ele>
        <time>2021-10-17T09:34:29Z</time>
      </trkpt>
      <trkpt lat="46.33909" lon="5.82568">
        <ele>753.6</ele>
        <time>2021-10-17T09:34:30Z</time>
      </trkpt>
      <trkpt lat="46.33905" lon="5.82564">
        <ele>754</ele>
        <time>2021-10-17T09:34:31Z</time>
      </trkpt>
      <trkpt lat="46.33904" lon="5.82563">
        <ele>754</ele>
        <time>2021-10-17T09:34:32Z</time>
      </trkpt>
      <trkpt lat="46.33902" lon="5.8256">
        <ele>754.4</ele>
        <time>2021-10-17T09:34:33Z</time>
      </trkpt>
      <trkpt lat="46.339" lon="5.82557">
        <ele>754.6</ele>
        <time>2021-10-17T09:34:34Z</time>
      </trkpt>
      <trkpt lat="46.33897" lon="5.82555">
        <ele>754.8</ele>
        <time>2021-10-17T09:34:35Z</time>
      </trkpt>
      <trkpt lat="46.33895" lon="5.82552">
        <ele>754.8</ele>
        <time>2021-10-17T09:34:36Z</time>
      </trkpt>
      <trkpt lat="46.33892" lon="5.82549">
        <ele>755</ele>
        <time>2021-10-17T09:34:37Z</time>
      </trkpt>
      <trkpt lat="46.33889" lon="5.82547">
        <ele>755</ele>
        <time>2021-10-17T09:34:38Z</time>
      </trkpt>
      <trkpt lat="46.33886" lon="5.82544">
        <ele>755.4</ele>
        <time>2021-10-17T09:34:39Z</time>
      </trkpt>
      <trkpt lat="46.33883" lon="5.82542">
        <ele>755.6</ele>
        <time>2021-10-17T09:34:40Z</time>
      </trkpt>
      <trkpt lat="46.33881" lon="5.82539">
        <ele>755.6</ele>
        <time>2021-10-17T09:34:41Z</time>
      </trkpt>
      <trkpt lat="46.33878" lon="5.82537">
        <ele>756</ele>
        <time>2021-10-17T09:34:42Z</time>
      </trkpt>
      <trkpt lat="46.33875" lon="5.82535">
        <ele>756</ele>
        <time>2021-10-17T09:34:43Z</time>
      </trkpt>
      <trkpt lat="46.33873" lon="5.82532">
        <ele>756.4</ele>
        <time>2021-10-17T09:34:44Z</time>
      </trkpt>
      <trkpt lat="46.3387" lon="5.8253">
        <ele>756.6</ele>
        <time>2021-10-17T09:34:45Z</time>
      </trkpt>
      <trkpt lat="46.33867" lon="5.82527">
        <ele>756.8</ele>
        <time>2021-10-17T09:34:46Z</time>
      </trkpt>
      <trkpt lat="46.33865" lon="5.82525">
        <ele>757</ele>
        <time>2021-10-17T09:34:47Z</time>
      </trkpt>
      <trkpt lat="46.33861" lon="5.82522">
        <ele>757</ele>
        <time>2021-10-17T09:34:48Z</time>
      </trkpt>
      <trkpt lat="46.3386" lon="5.82521">
        <ele>757.4</ele>
        <time>2021-10-17T09:34:49Z</time>
      </trkpt>
      <trkpt lat="46.33857" lon="5.82518">
        <ele>757.4</ele>
        <time>2021-10-17T09:34:50Z</time>
      </trkpt>
      <trkpt lat="46.33853" lon="5.82515">
        <ele>757.6</ele>
        <time>2021-10-17T09:34:51Z</time>
      </trkpt>
      <trkpt lat="46.33851" lon="5.82514">
        <ele>757.6</ele>
        <time>2021-10-17T09:34:52Z</time>
      </trkpt>
      <trkpt lat="46.33848" lon="5.8251">
        <ele>758</ele>
        <time>2021-10-17T09:34:53Z</time>
      </trkpt>
      <trkpt lat="46.33846" lon="5.82509">
        <ele>758.2</ele>
        <time>2021-10-17T09:34:54Z</time>
      </trkpt>
      <trkpt lat="46.33844" lon="5.82506">
        <ele>758.2</ele>
        <time>2021-10-17T09:34:55Z</time>
      </trkpt>
      <trkpt lat="46.33841" lon="5.82503">
        <ele>758.6</ele>
        <time>2021-10-17T09:34:56Z</time>
      </trkpt>
      <trkpt lat="46.33839" lon="5.825">
        <ele>758.6</ele>
        <time>2021-10-17T09:34:57Z</time>
      </trkpt>
      <trkpt lat="46.33836" lon="5.82497">
        <ele>758.8</ele>
        <time>2021-10-17T09:34:58Z</time>
      </trkpt>
      <trkpt lat="46.33833" lon="5.82494">
        <ele>759</ele>
        <time>2021-10-17T09:34:59Z</time>
      </trkpt>
      <trkpt lat="46.33831" lon="5.82491">
        <ele>759.2</ele>
        <time>2021-10-17T09:35:00Z</time>
      </trkpt>
      <trkpt lat="46.33829" lon="5.82488">
        <ele>759.4</ele>
        <time>2021-10-17T09:35:01Z</time>
      </trkpt>
      <trkpt lat="46.33826" lon="5.82485">
        <ele>759.6</ele>
        <time>2021-10-17T09:35:02Z</time>
      </trkpt>
      <trkpt lat="46.33824" lon="5.82481">
        <ele>759.8</ele>
        <time>2021-10-17T09:35:03Z</time>
      </trkpt>
      <trkpt lat="46.33821" lon="5.82478">
        <ele>759.8</ele>
        <time>2021-10-17T09:35:04Z</time>
      </trkpt>
      <trkpt lat="46.33819" lon="5.82475">
        <ele>760.2</ele>
        <time>2021-10-17T09:35:05Z</time>
      </trkpt>
      <trkpt lat="46.33817" lon="5.82472">
        <ele>760.2</ele>
        <time>2021-10-17T09:35:06Z</time>
      </trkpt>
      <trkpt lat="46.33814" lon="5.82468">
        <ele>760.6</ele>
        <time>2021-10-17T09:35:07Z</time>
      </trkpt>
      <trkpt lat="46.33812" lon="5.82465">
        <ele>760.6</ele>
        <time>2021-10-17T09:35:08Z</time>
      </trkpt>
      <trkpt lat="46.3381" lon="5.82461">
        <ele>761</ele>
        <time>2021-10-17T09:35:09Z</time>
      </trkpt>
      <trkpt lat="46.33807" lon="5.82458">
        <ele>761</ele>
        <time>2021-10-17T09:35:10Z</time>
      </trkpt>
      <trkpt lat="46.33805" lon="5.82454">
        <ele>761.4</ele>
        <time>2021-10-17T09:35:11Z</time>
      </trkpt>
      <trkpt lat="46.33804" lon="5.82451">
        <ele>761.6</ele>
        <time>2021-10-17T09:35:12Z</time>
      </trkpt>
      <trkpt lat="46.33802" lon="5.82447">
        <ele>761.8</ele>
        <time>2021-10-17T09:35:13Z</time>
      </trkpt>
      <trkpt lat="46.338" lon="5.82443">
        <ele>762.2</ele>
        <time>2021-10-17T09:35:14Z</time>
      </trkpt>
      <trkpt lat="46.33799" lon="5.82439">
        <ele>762.4</ele>
        <time>2021-10-17T09:35:15Z</time>
      </trkpt>
      <trkpt lat="46.33798" lon="5.82436">
        <ele>762.4</ele>
        <time>2021-10-17T09:35:16Z</time>
      </trkpt>
      <trkpt lat="46.33797" lon="5.82432">
        <ele>762.8</ele>
        <time>2021-10-17T09:35:17Z</time>
      </trkpt>
      <trkpt lat="46.33796" lon="5.82427">
        <ele>763</ele>
        <time>2021-10-17T09:35:18Z</time>
      </trkpt>
      <trkpt lat="46.33795" lon="5.82423">
        <ele>763</ele>
        <time>2021-10-17T09:35:19Z</time>
      </trkpt>
      <trkpt lat="46.33794" lon="5.82419">
        <ele>763.4</ele>
        <time>2021-10-17T09:35:20Z</time>
      </trkpt>
      <trkpt lat="46.33793" lon="5.82414">
        <ele>763.4</ele>
        <time>2021-10-17T09:35:21Z</time>
      </trkpt>
      <trkpt lat="46.33793" lon="5.8241">
        <ele>763.8</ele>
        <time>2021-10-17T09:35:22Z</time>
      </trkpt>
      <trkpt lat="46.33792" lon="5.82405">
        <ele>764</ele>
        <time>2021-10-17T09:35:23Z</time>
      </trkpt>
      <trkpt lat="46.33792" lon="5.82401">
        <ele>764</ele>
        <time>2021-10-17T09:35:24Z</time>
      </trkpt>
      <trkpt lat="46.33792" lon="5.82396">
        <ele>764.4</ele>
        <time>2021-10-17T09:35:25Z</time>
      </trkpt>
      <trkpt lat="46.33792" lon="5.82392">
        <ele>764.6</ele>
        <time>2021-10-17T09:35:26Z</time>
      </trkpt>
      <trkpt lat="46.33791" lon="5.82387">
        <ele>764.6</ele>
        <time>2021-10-17T09:35:27Z</time>
      </trkpt>
      <trkpt lat="46.33791" lon="5.82382">
        <ele>765</ele>
        <time>2021-10-17T09:35:28Z</time>
      </trkpt>
      <trkpt lat="46.33791" lon="5.82378">
        <ele>765.2</ele>
        <time>2021-10-17T09:35:29Z</time>
      </trkpt>
      <trkpt lat="46.3379" lon="5.82373">
        <ele>765.4</ele>
        <time>2021-10-17T09:35:30Z</time>
      </trkpt>
      <trkpt lat="46.33789" lon="5.82369">
        <ele>765.6</ele>
        <time>2021-10-17T09:35:31Z</time>
      </trkpt>
      <trkpt lat="46.33789" lon="5.82365">
        <ele>766</ele>
        <time>2021-10-17T09:35:32Z</time>
      </trkpt>
      <trkpt lat="46.33788" lon="5.8236">
        <ele>766.2</ele>
        <time>2021-10-17T09:35:33Z</time>
      </trkpt>
      <trkpt lat="46.33787" lon="5.82356">
        <ele>766.6</ele>
        <time>2021-10-17T09:35:34Z</time>
      </trkpt>
      <trkpt lat="46.33786" lon="5.82352">
        <ele>766.8</ele>
        <time>2021-10-17T09:35:35Z</time>
      </trkpt>
      <trkpt lat="46.33785" lon="5.82348">
        <ele>767</ele>
        <time>2021-10-17T09:35:36Z</time>
      </trkpt>
      <trkpt lat="46.33785" lon="5.82344">
        <ele>767.4</ele>
        <time>2021-10-17T09:35:37Z</time>
      </trkpt>
      <trkpt lat="46.33783" lon="5.8234">
        <ele>767.6</ele>
        <time>2021-10-17T09:35:38Z</time>
      </trkpt>
      <trkpt lat="46.33782" lon="5.82336">
        <ele>767.8</ele>
        <time>2021-10-17T09:35:39Z</time>
      </trkpt>
      <trkpt lat="46.33781" lon="5.82332">
        <ele>768</ele>
        <time>2021-10-17T09:35:40Z</time>
      </trkpt>
      <trkpt lat="46.3378" lon="5.82328">
        <ele>768</ele>
        <time>2021-10-17T09:35:41Z</time>
      </trkpt>
      <trkpt lat="46.33778" lon="5.82324">
        <ele>768.4</ele>
        <time>2021-10-17T09:35:42Z</time>
      </trkpt>
      <trkpt lat="46.33776" lon="5.8232">
        <ele>768.6</ele>
        <time>2021-10-17T09:35:43Z</time>
      </trkpt>
      <trkpt lat="46.33774" lon="5.82316">
        <ele>768.6</ele>
        <time>2021-10-17T09:35:44Z</time>
      </trkpt>
      <trkpt lat="46.33772" lon="5.82313">
        <ele>769</ele>
        <time>2021-10-17T09:35:45Z</time>
      </trkpt>
      <trkpt lat="46.3377" lon="5.8231">
        <ele>769.2</ele>
        <time>2021-10-17T09:35:46Z</time>
      </trkpt>
      <trkpt lat="46.33768" lon="5.82307">
        <ele>769.4</ele>
        <time>2021-10-17T09:35:47Z</time>
      </trkpt>
      <trkpt lat="46.33766" lon="5.82304">
        <ele>769.8</ele>
        <time>2021-10-17T09:35:48Z</time>
      </trkpt>
      <trkpt lat="46.33763" lon="5.82301">
        <ele>769.8</ele>
        <time>2021-10-17T09:35:49Z</time>
      </trkpt>
      <trkpt lat="46.33761" lon="5.82299">
        <ele>770.2</ele>
        <time>2021-10-17T09:35:50Z</time>
      </trkpt>
      <trkpt lat="46.33758" lon="5.82296">
        <ele>770.2</ele>
        <time>2021-10-17T09:35:51Z</time>
      </trkpt>
      <trkpt lat="46.33755" lon="5.82294">
        <ele>770.4</ele>
        <time>2021-10-17T09:35:52Z</time>
      </trkpt>
      <trkpt lat="46.33752" lon="5.82292">
        <ele>770.4</ele>
        <time>2021-10-17T09:35:53Z</time>
      </trkpt>
      <trkpt lat="46.3375" lon="5.8229">
        <ele>770.8</ele>
        <time>2021-10-17T09:35:54Z</time>
      </trkpt>
      <trkpt lat="46.33747" lon="5.82287">
        <ele>771</ele>
        <time>2021-10-17T09:35:55Z</time>
      </trkpt>
      <trkpt lat="46.33744" lon="5.82285">
        <ele>771.2</ele>
        <time>2021-10-17T09:35:56Z</time>
      </trkpt>
      <trkpt lat="46.33742" lon="5.82282">
        <ele>771.2</ele>
        <time>2021-10-17T09:35:57Z</time>
      </trkpt>
      <trkpt lat="46.3374" lon="5.82279">
        <ele>771.6</ele>
        <time>2021-10-17T09:35:58Z</time>
      </trkpt>
      <trkpt lat="46.33738" lon="5.82276">
        <ele>771.8</ele>
        <time>2021-10-17T09:35:59Z</time>
      </trkpt>
      <trkpt lat="46.33736" lon="5.82272">
        <ele>772.2</ele>
        <time>2021-10-17T09:36:00Z</time>
      </trkpt>
      <trkpt lat="46.33734" lon="5.82268">
        <ele>772.4</ele>
        <time>2021-10-17T09:36:01Z</time>
      </trkpt>
      <trkpt lat="46.33733" lon="5.82264">
        <ele>772.6</ele>
        <time>2021-10-17T09:36:02Z</time>
      </trkpt>
      <trkpt lat="46.33731" lon="5.8226">
        <ele>773</ele>
        <time>2021-10-17T09:36:03Z</time>
      </trkpt>
      <trkpt lat="46.33729" lon="5.82256">
        <ele>773.2</ele>
        <time>2021-10-17T09:36:04Z</time>
      </trkpt>
      <trkpt lat="46.33728" lon="5.82252">
        <ele>773.4</ele>
        <time>2021-10-17T09:36:05Z</time>
      </trkpt>
      <trkpt lat="46.33726" lon="5.82247">
        <ele>773.8</ele>
        <time>2021-10-17T09:36:06Z</time>
      </trkpt>
      <trkpt lat="46.33725" lon="5.82243">
        <ele>774</ele>
        <time>2021-10-17T09:36:07Z</time>
      </trkpt>
      <trkpt lat="46.33723" lon="5.82239">
        <ele>774</ele>
        <time>2021-10-17T09:36:08Z</time>
      </trkpt>
      <trkpt lat="46.33721" lon="5.82235">
        <ele>774.4</ele>
        <time>2021-10-17T09:36:09Z</time>
      </trkpt>
      <trkpt lat="46.33719" lon="5.82231">
        <ele>774.4</ele>
        <time>2021-10-17T09:36:10Z</time>
      </trkpt>
      <trkpt lat="46.33717" lon="5.82228">
        <ele>774.8</ele>
        <time>2021-10-17T09:36:11Z</time>
      </trkpt>
      <trkpt lat="46.33716" lon="5.82224">
        <ele>774.8</ele>
        <time>2021-10-17T09:36:12Z</time>
      </trkpt>
      <trkpt lat="46.33714" lon="5.8222">
        <ele>775.2</ele>
        <time>2021-10-17T09:36:13Z</time>
      </trkpt>
      <trkpt lat="46.33712" lon="5.82217">
        <ele>775.4</ele>
        <time>2021-10-17T09:36:14Z</time>
      </trkpt>
      <trkpt lat="46.33711" lon="5.82213">
        <ele>775.6</ele>
        <time>2021-10-17T09:36:15Z</time>
      </trkpt>
      <trkpt lat="46.33709" lon="5.8221">
        <ele>775.6</ele>
        <time>2021-10-17T09:36:16Z</time>
      </trkpt>
      <trkpt lat="46.33708" lon="5.82207">
        <ele>776</ele>
        <time>2021-10-17T09:36:17Z</time>
      </trkpt>
      <trkpt lat="46.33707" lon="5.82203">
        <ele>776</ele>
        <time>2021-10-17T09:36:18Z</time>
      </trkpt>
      <trkpt lat="46.33705" lon="5.822">
        <ele>776.4</ele>
        <time>2021-10-17T09:36:19Z</time>
      </trkpt>
      <trkpt lat="46.33704" lon="5.82196">
        <ele>776.6</ele>
        <time>2021-10-17T09:36:20Z</time>
      </trkpt>
      <trkpt lat="46.33703" lon="5.82193">
        <ele>776.6</ele>
        <time>2021-10-17T09:36:21Z</time>
      </trkpt>
      <trkpt lat="46.33701" lon="5.8219">
        <ele>777</ele>
        <time>2021-10-17T09:36:22Z</time>
      </trkpt>
      <trkpt lat="46.33699" lon="5.82187">
        <ele>777</ele>
        <time>2021-10-17T09:36:23Z</time>
      </trkpt>
      <trkpt lat="46.33698" lon="5.82184">
        <ele>777.2</ele>
        <time>2021-10-17T09:36:24Z</time>
      </trkpt>
      <trkpt lat="46.33695" lon="5.82181">
        <ele>777.4</ele>
        <time>2021-10-17T09:36:25Z</time>
      </trkpt>
      <trkpt lat="46.33694" lon="5.82178">
        <ele>777.4</ele>
        <time>2021-10-17T09:36:26Z</time>
      </trkpt>
      <trkpt lat="46.33692" lon="5.82175">
        <ele>777.6</ele>
        <time>2021-10-17T09:36:27Z</time>
      </trkpt>
      <trkpt lat="46.3369" lon="5.82171">
        <ele>777.6</ele>
        <time>2021-10-17T09:36:28Z</time>
      </trkpt>
      <trkpt lat="46.33688" lon="5.82168">
        <ele>778</ele>
        <time>2021-10-17T09:36:29Z</time>
      </trkpt>
      <trkpt lat="46.33686" lon="5.82165">
        <ele>778</ele>
        <time>2021-10-17T09:36:30Z</time>
      </trkpt>
      <trkpt lat="46.33683" lon="5.82163">
        <ele>778.2</ele>
        <time>2021-10-17T09:36:31Z</time>
      </trkpt>
      <trkpt lat="46.3368" lon="5.82161">
        <ele>778.2</ele>
        <time>2021-10-17T09:36:32Z</time>
      </trkpt>
      <trkpt lat="46.33678" lon="5.82159">
        <ele>778.6</ele>
        <time>2021-10-17T09:36:33Z</time>
      </trkpt>
      <trkpt lat="46.33675" lon="5.82156">
        <ele>778.6</ele>
        <time>2021-10-17T09:36:34Z</time>
      </trkpt>
      <trkpt lat="46.33673" lon="5.82154">
        <ele>778.8</ele>
        <time>2021-10-17T09:36:35Z</time>
      </trkpt>
      <trkpt lat="46.3367" lon="5.82152">
        <ele>778.8</ele>
        <time>2021-10-17T09:36:36Z</time>
      </trkpt>
      <trkpt lat="46.33667" lon="5.8215">
        <ele>779</ele>
        <time>2021-10-17T09:36:37Z</time>
      </trkpt>
      <trkpt lat="46.33664" lon="5.82148">
        <ele>779</ele>
        <time>2021-10-17T09:36:38Z</time>
      </trkpt>
      <trkpt lat="46.33661" lon="5.82146">
        <ele>779.4</ele>
        <time>2021-10-17T09:36:39Z</time>
      </trkpt>
      <trkpt lat="46.33658" lon="5.82144">
        <ele>779.4</ele>
        <time>2021-10-17T09:36:41Z</time>
      </trkpt>
      <trkpt lat="46.33655" lon="5.82143">
        <ele>779.8</ele>
        <time>2021-10-17T09:36:42Z</time>
      </trkpt>
      <trkpt lat="46.33652" lon="5.82141">
        <ele>780</ele>
        <time>2021-10-17T09:36:43Z</time>
      </trkpt>
      <trkpt lat="46.33649" lon="5.82138">
        <ele>780.2</ele>
        <time>2021-10-17T09:36:44Z</time>
      </trkpt>
      <trkpt lat="46.33646" lon="5.82136">
        <ele>780.4</ele>
        <time>2021-10-17T09:36:45Z</time>
      </trkpt>
      <trkpt lat="46.33643" lon="5.82134">
        <ele>780.6</ele>
        <time>2021-10-17T09:36:46Z</time>
      </trkpt>
      <trkpt lat="46.33641" lon="5.82132">
        <ele>780.8</ele>
        <time>2021-10-17T09:36:47Z</time>
      </trkpt>
      <trkpt lat="46.33638" lon="5.8213">
        <ele>781</ele>
        <time>2021-10-17T09:36:48Z</time>
      </trkpt>
      <trkpt lat="46.33635" lon="5.82127">
        <ele>781.4</ele>
        <time>2021-10-17T09:36:49Z</time>
      </trkpt>
      <trkpt lat="46.33633" lon="5.82124">
        <ele>781.4</ele>
        <time>2021-10-17T09:36:50Z</time>
      </trkpt>
      <trkpt lat="46.3363" lon="5.82121">
        <ele>781.8</ele>
        <time>2021-10-17T09:36:51Z</time>
      </trkpt>
      <trkpt lat="46.33628" lon="5.82118">
        <ele>782</ele>
        <time>2021-10-17T09:36:52Z</time>
      </trkpt>
      <trkpt lat="46.33624" lon="5.82112">
        <ele>782.4</ele>
        <time>2021-10-17T09:36:53Z</time>
      </trkpt>
      <trkpt lat="46.33622" lon="5.82109">
        <ele>782.4</ele>
        <time>2021-10-17T09:36:54Z</time>
      </trkpt>
      <trkpt lat="46.3362" lon="5.82105">
        <ele>782.6</ele>
        <time>2021-10-17T09:36:55Z</time>
      </trkpt>
      <trkpt lat="46.33617" lon="5.82103">
        <ele>782.6</ele>
        <time>2021-10-17T09:36:56Z</time>
      </trkpt>
      <trkpt lat="46.33615" lon="5.821">
        <ele>783</ele>
        <time>2021-10-17T09:36:57Z</time>
      </trkpt>
      <trkpt lat="46.33612" lon="5.82097">
        <ele>783.2</ele>
        <time>2021-10-17T09:36:58Z</time>
      </trkpt>
      <trkpt lat="46.3361" lon="5.82093">
        <ele>783.2</ele>
        <time>2021-10-17T09:36:59Z</time>
      </trkpt>
      <trkpt lat="46.33607" lon="5.8209">
        <ele>783.6</ele>
        <time>2021-10-17T09:37:00Z</time>
      </trkpt>
      <trkpt lat="46.33605" lon="5.82088">
        <ele>783.6</ele>
        <time>2021-10-17T09:37:01Z</time>
      </trkpt>
      <trkpt lat="46.33602" lon="5.82085">
        <ele>784</ele>
        <time>2021-10-17T09:37:02Z</time>
      </trkpt>
      <trkpt lat="46.336" lon="5.82083">
        <ele>784</ele>
        <time>2021-10-17T09:37:03Z</time>
      </trkpt>
      <trkpt lat="46.33597" lon="5.8208">
        <ele>784.4</ele>
        <time>2021-10-17T09:37:04Z</time>
      </trkpt>
      <trkpt lat="46.33594" lon="5.82078">
        <ele>784.6</ele>
        <time>2021-10-17T09:37:05Z</time>
      </trkpt>
      <trkpt lat="46.33591" lon="5.82075">
        <ele>784.8</ele>
        <time>2021-10-17T09:37:06Z</time>
      </trkpt>
      <trkpt lat="46.33588" lon="5.82073">
        <ele>784.8</ele>
        <time>2021-10-17T09:37:07Z</time>
      </trkpt>
      <trkpt lat="46.33585" lon="5.82071">
        <ele>785.2</ele>
        <time>2021-10-17T09:37:08Z</time>
      </trkpt>
      <trkpt lat="46.33582" lon="5.82069">
        <ele>785.4</ele>
        <time>2021-10-17T09:37:09Z</time>
      </trkpt>
      <trkpt lat="46.33579" lon="5.82067">
        <ele>785.4</ele>
        <time>2021-10-17T09:37:10Z</time>
      </trkpt>
      <trkpt lat="46.33576" lon="5.82066">
        <ele>785.8</ele>
        <time>2021-10-17T09:37:11Z</time>
      </trkpt>
      <trkpt lat="46.33573" lon="5.82064">
        <ele>785.8</ele>
        <time>2021-10-17T09:37:12Z</time>
      </trkpt>
      <trkpt lat="46.3357" lon="5.82062">
        <ele>786.2</ele>
        <time>2021-10-17T09:37:13Z</time>
      </trkpt>
      <trkpt lat="46.33567" lon="5.82061">
        <ele>786.2</ele>
        <time>2021-10-17T09:37:14Z</time>
      </trkpt>
      <trkpt lat="46.33564" lon="5.8206">
        <ele>786.4</ele>
        <time>2021-10-17T09:37:15Z</time>
      </trkpt>
      <trkpt lat="46.33561" lon="5.82058">
        <ele>786.4</ele>
        <time>2021-10-17T09:37:16Z</time>
      </trkpt>
      <trkpt lat="46.33558" lon="5.82057">
        <ele>786.8</ele>
        <time>2021-10-17T09:37:17Z</time>
      </trkpt>
      <trkpt lat="46.33554" lon="5.82056">
        <ele>786.8</ele>
        <time>2021-10-17T09:37:18Z</time>
      </trkpt>
      <trkpt lat="46.33551" lon="5.82055">
        <ele>787.2</ele>
        <time>2021-10-17T09:37:19Z</time>
      </trkpt>
      <trkpt lat="46.33548" lon="5.82053">
        <ele>787.2</ele>
        <time>2021-10-17T09:37:20Z</time>
      </trkpt>
      <trkpt lat="46.33542" lon="5.8205">
        <ele>787.6</ele>
        <time>2021-10-17T09:37:21Z</time>
      </trkpt>
      <trkpt lat="46.33539" lon="5.82049">
        <ele>787.8</ele>
        <time>2021-10-17T09:37:22Z</time>
      </trkpt>
      <trkpt lat="46.33536" lon="5.82047">
        <ele>787.8</ele>
        <time>2021-10-17T09:37:23Z</time>
      </trkpt>
      <trkpt lat="46.33533" lon="5.82045">
        <ele>788.2</ele>
        <time>2021-10-17T09:37:24Z</time>
      </trkpt>
      <trkpt lat="46.3353" lon="5.82043">
        <ele>788.2</ele>
        <time>2021-10-17T09:37:25Z</time>
      </trkpt>
      <trkpt lat="46.33527" lon="5.82042">
        <ele>788.6</ele>
        <time>2021-10-17T09:37:26Z</time>
      </trkpt>
      <trkpt lat="46.33524" lon="5.82041">
        <ele>788.8</ele>
        <time>2021-10-17T09:37:27Z</time>
      </trkpt>
      <trkpt lat="46.33521" lon="5.8204">
        <ele>788.8</ele>
        <time>2021-10-17T09:37:28Z</time>
      </trkpt>
      <trkpt lat="46.33518" lon="5.82039">
        <ele>789.2</ele>
        <time>2021-10-17T09:37:29Z</time>
      </trkpt>
      <trkpt lat="46.33516" lon="5.82038">
        <ele>789.4</ele>
        <time>2021-10-17T09:37:30Z</time>
      </trkpt>
      <trkpt lat="46.33513" lon="5.82037">
        <ele>789.8</ele>
        <time>2021-10-17T09:37:31Z</time>
      </trkpt>
      <trkpt lat="46.3351" lon="5.82036">
        <ele>790</ele>
        <time>2021-10-17T09:37:32Z</time>
      </trkpt>
      <trkpt lat="46.33508" lon="5.82035">
        <ele>790</ele>
        <time>2021-10-17T09:37:33Z</time>
      </trkpt>
      <trkpt lat="46.33505" lon="5.82034">
        <ele>790.4</ele>
        <time>2021-10-17T09:37:34Z</time>
      </trkpt>
      <trkpt lat="46.33502" lon="5.82033">
        <ele>790.6</ele>
        <time>2021-10-17T09:37:35Z</time>
      </trkpt>
      <trkpt lat="46.33499" lon="5.82033">
        <ele>790.6</ele>
        <time>2021-10-17T09:37:36Z</time>
      </trkpt>
      <trkpt lat="46.33496" lon="5.82033">
        <ele>790.8</ele>
        <time>2021-10-17T09:37:37Z</time>
      </trkpt>
      <trkpt lat="46.33493" lon="5.82033">
        <ele>790.8</ele>
        <time>2021-10-17T09:37:38Z</time>
      </trkpt>
      <trkpt lat="46.3349" lon="5.82033">
        <ele>791.2</ele>
        <time>2021-10-17T09:37:39Z</time>
      </trkpt>
      <trkpt lat="46.33487" lon="5.82032">
        <ele>791.2</ele>
        <time>2021-10-17T09:37:40Z</time>
      </trkpt>
      <trkpt lat="46.33484" lon="5.82032">
        <ele>791.6</ele>
        <time>2021-10-17T09:37:41Z</time>
      </trkpt>
      <trkpt lat="46.33481" lon="5.82032">
        <ele>791.8</ele>
        <time>2021-10-17T09:37:42Z</time>
      </trkpt>
      <trkpt lat="46.33478" lon="5.82032">
        <ele>791.8</ele>
        <time>2021-10-17T09:37:43Z</time>
      </trkpt>
      <trkpt lat="46.33475" lon="5.82032">
        <ele>792</ele>
        <time>2021-10-17T09:37:44Z</time>
      </trkpt>
      <trkpt lat="46.33472" lon="5.82032">
        <ele>792</ele>
        <time>2021-10-17T09:37:45Z</time>
      </trkpt>
      <trkpt lat="46.33469" lon="5.82032">
        <ele>792.6</ele>
        <time>2021-10-17T09:37:46Z</time>
      </trkpt>
      <trkpt lat="46.33466" lon="5.82032">
        <ele>792.8</ele>
        <time>2021-10-17T09:37:47Z</time>
      </trkpt>
      <trkpt lat="46.33463" lon="5.82032">
        <ele>793</ele>
        <time>2021-10-17T09:37:48Z</time>
      </trkpt>
      <trkpt lat="46.3346" lon="5.82032">
        <ele>793</ele>
        <time>2021-10-17T09:37:49Z</time>
      </trkpt>
      <trkpt lat="46.33457" lon="5.82033">
        <ele>793.4</ele>
        <time>2021-10-17T09:37:50Z</time>
      </trkpt>
      <trkpt lat="46.33454" lon="5.82033">
        <ele>793.4</ele>
        <time>2021-10-17T09:37:51Z</time>
      </trkpt>
      <trkpt lat="46.33451" lon="5.82033">
        <ele>793.6</ele>
        <time>2021-10-17T09:37:52Z</time>
      </trkpt>
      <trkpt lat="46.33448" lon="5.82033">
        <ele>793.6</ele>
        <time>2021-10-17T09:37:53Z</time>
      </trkpt>
      <trkpt lat="46.33445" lon="5.82033">
        <ele>794</ele>
        <time>2021-10-17T09:37:54Z</time>
      </trkpt>
      <trkpt lat="46.33443" lon="5.82034">
        <ele>794</ele>
        <time>2021-10-17T09:37:55Z</time>
      </trkpt>
      <trkpt lat="46.3344" lon="5.82034">
        <ele>794.4</ele>
        <time>2021-10-17T09:37:56Z</time>
      </trkpt>
      <trkpt lat="46.33437" lon="5.82035">
        <ele>794.4</ele>
        <time>2021-10-17T09:37:57Z</time>
      </trkpt>
      <trkpt lat="46.33434" lon="5.82036">
        <ele>794.6</ele>
        <time>2021-10-17T09:37:58Z</time>
      </trkpt>
      <trkpt lat="46.33431" lon="5.82037">
        <ele>794.6</ele>
        <time>2021-10-17T09:37:59Z</time>
      </trkpt>
      <trkpt lat="46.33428" lon="5.82037">
        <ele>795</ele>
        <time>2021-10-17T09:38:00Z</time>
      </trkpt>
      <trkpt lat="46.33425" lon="5.82037">
        <ele>795</ele>
        <time>2021-10-17T09:38:01Z</time>
      </trkpt>
      <trkpt lat="46.33422" lon="5.82036">
        <ele>795.4</ele>
        <time>2021-10-17T09:38:02Z</time>
      </trkpt>
      <trkpt lat="46.33419" lon="5.82035">
        <ele>795.4</ele>
        <time>2021-10-17T09:38:03Z</time>
      </trkpt>
      <trkpt lat="46.33416" lon="5.82034">
        <ele>795.8</ele>
        <time>2021-10-17T09:38:04Z</time>
      </trkpt>
      <trkpt lat="46.33413" lon="5.82033">
        <ele>796</ele>
        <time>2021-10-17T09:38:05Z</time>
      </trkpt>
      <trkpt lat="46.3341" lon="5.82032">
        <ele>796.2</ele>
        <time>2021-10-17T09:38:06Z</time>
      </trkpt>
      <trkpt lat="46.33407" lon="5.82029">
        <ele>796.4</ele>
        <time>2021-10-17T09:38:07Z</time>
      </trkpt>
      <trkpt lat="46.33404" lon="5.82026">
        <ele>796.6</ele>
        <time>2021-10-17T09:38:08Z</time>
      </trkpt>
      <trkpt lat="46.33401" lon="5.82023">
        <ele>796.8</ele>
        <time>2021-10-17T09:38:09Z</time>
      </trkpt>
      <trkpt lat="46.33398" lon="5.82021">
        <ele>797</ele>
        <time>2021-10-17T09:38:10Z</time>
      </trkpt>
      <trkpt lat="46.33395" lon="5.82019">
        <ele>797.4</ele>
        <time>2021-10-17T09:38:11Z</time>
      </trkpt>
      <trkpt lat="46.33393" lon="5.82017">
        <ele>797.4</ele>
        <time>2021-10-17T09:38:12Z</time>
      </trkpt>
      <trkpt lat="46.3339" lon="5.82015">
        <ele>797.6</ele>
        <time>2021-10-17T09:38:13Z</time>
      </trkpt>
      <trkpt lat="46.33387" lon="5.82013">
        <ele>798</ele>
        <time>2021-10-17T09:38:14Z</time>
      </trkpt>
      <trkpt lat="46.33384" lon="5.8201">
        <ele>798</ele>
        <time>2021-10-17T09:38:15Z</time>
      </trkpt>
      <trkpt lat="46.33382" lon="5.82008">
        <ele>798.2</ele>
        <time>2021-10-17T09:38:16Z</time>
      </trkpt>
      <trkpt lat="46.33379" lon="5.82007">
        <ele>798.6</ele>
        <time>2021-10-17T09:38:17Z</time>
      </trkpt>
      <trkpt lat="46.33376" lon="5.82005">
        <ele>798.8</ele>
        <time>2021-10-17T09:38:18Z</time>
      </trkpt>
      <trkpt lat="46.33374" lon="5.82004">
        <ele>798.8</ele>
        <time>2021-10-17T09:38:19Z</time>
      </trkpt>
      <trkpt lat="46.33371" lon="5.82003">
        <ele>799</ele>
        <time>2021-10-17T09:38:20Z</time>
      </trkpt>
      <trkpt lat="46.33368" lon="5.82001">
        <ele>799.2</ele>
        <time>2021-10-17T09:38:21Z</time>
      </trkpt>
      <trkpt lat="46.33366" lon="5.82">
        <ele>799.2</ele>
        <time>2021-10-17T09:38:22Z</time>
      </trkpt>
      <trkpt lat="46.33363" lon="5.81998">
        <ele>799.6</ele>
        <time>2021-10-17T09:38:23Z</time>
      </trkpt>
      <trkpt lat="46.3336" lon="5.81997">
        <ele>799.6</ele>
        <time>2021-10-17T09:38:24Z</time>
      </trkpt>
      <trkpt lat="46.33357" lon="5.81997">
        <ele>800</ele>
        <time>2021-10-17T09:38:25Z</time>
      </trkpt>
      <trkpt lat="46.33354" lon="5.81997">
        <ele>800.4</ele>
        <time>2021-10-17T09:38:26Z</time>
      </trkpt>
      <trkpt lat="46.33351" lon="5.81996">
        <ele>800.4</ele>
        <time>2021-10-17T09:38:27Z</time>
      </trkpt>
      <trkpt lat="46.33348" lon="5.81996">
        <ele>800.6</ele>
        <time>2021-10-17T09:38:28Z</time>
      </trkpt>
      <trkpt lat="46.33344" lon="5.81997">
        <ele>800.6</ele>
        <time>2021-10-17T09:38:29Z</time>
      </trkpt>
      <trkpt lat="46.33341" lon="5.81997">
        <ele>801.2</ele>
        <time>2021-10-17T09:38:30Z</time>
      </trkpt>
      <trkpt lat="46.33338" lon="5.81997">
        <ele>801.2</ele>
        <time>2021-10-17T09:38:31Z</time>
      </trkpt>
      <trkpt lat="46.33335" lon="5.81998">
        <ele>801.4</ele>
        <time>2021-10-17T09:38:32Z</time>
      </trkpt>
      <trkpt lat="46.33332" lon="5.81999">
        <ele>801.4</ele>
        <time>2021-10-17T09:38:33Z</time>
      </trkpt>
      <trkpt lat="46.33329" lon="5.82001">
        <ele>801.8</ele>
        <time>2021-10-17T09:38:34Z</time>
      </trkpt>
      <trkpt lat="46.33326" lon="5.82002">
        <ele>802</ele>
        <time>2021-10-17T09:38:35Z</time>
      </trkpt>
      <trkpt lat="46.33322" lon="5.82004">
        <ele>802.2</ele>
        <time>2021-10-17T09:38:36Z</time>
      </trkpt>
      <trkpt lat="46.3332" lon="5.82005">
        <ele>802.6</ele>
        <time>2021-10-17T09:38:37Z</time>
      </trkpt>
      <trkpt lat="46.33317" lon="5.82007">
        <ele>802.8</ele>
        <time>2021-10-17T09:38:38Z</time>
      </trkpt>
      <trkpt lat="46.33314" lon="5.82009">
        <ele>803</ele>
        <time>2021-10-17T09:38:39Z</time>
      </trkpt>
      <trkpt lat="46.33311" lon="5.82011">
        <ele>803.4</ele>
        <time>2021-10-17T09:38:40Z</time>
      </trkpt>
      <trkpt lat="46.33309" lon="5.82014">
        <ele>803.4</ele>
        <time>2021-10-17T09:38:41Z</time>
      </trkpt>
      <trkpt lat="46.33306" lon="5.82016">
        <ele>803.8</ele>
        <time>2021-10-17T09:38:42Z</time>
      </trkpt>
      <trkpt lat="46.33304" lon="5.82018">
        <ele>804</ele>
        <time>2021-10-17T09:38:43Z</time>
      </trkpt>
      <trkpt lat="46.33301" lon="5.8202">
        <ele>804</ele>
        <time>2021-10-17T09:38:44Z</time>
      </trkpt>
      <trkpt lat="46.33298" lon="5.82022">
        <ele>804.2</ele>
        <time>2021-10-17T09:38:45Z</time>
      </trkpt>
      <trkpt lat="46.33296" lon="5.82024">
        <ele>804.2</ele>
        <time>2021-10-17T09:38:46Z</time>
      </trkpt>
      <trkpt lat="46.33294" lon="5.82025">
        <ele>804.6</ele>
        <time>2021-10-17T09:38:47Z</time>
      </trkpt>
      <trkpt lat="46.33292" lon="5.82027">
        <ele>804.6</ele>
        <time>2021-10-17T09:38:48Z</time>
      </trkpt>
      <trkpt lat="46.33289" lon="5.82029">
        <ele>805</ele>
        <time>2021-10-17T09:38:49Z</time>
      </trkpt>
      <trkpt lat="46.33286" lon="5.82031">
        <ele>805</ele>
        <time>2021-10-17T09:38:50Z</time>
      </trkpt>
      <trkpt lat="46.33284" lon="5.82033">
        <ele>805.4</ele>
        <time>2021-10-17T09:38:51Z</time>
      </trkpt>
      <trkpt lat="46.33281" lon="5.82036">
        <ele>805.6</ele>
        <time>2021-10-17T09:38:52Z</time>
      </trkpt>
      <trkpt lat="46.33278" lon="5.82038">
        <ele>805.8</ele>
        <time>2021-10-17T09:38:53Z</time>
      </trkpt>
      <trkpt lat="46.33276" lon="5.8204">
        <ele>805.8</ele>
        <time>2021-10-17T09:38:54Z</time>
      </trkpt>
      <trkpt lat="46.33273" lon="5.82042">
        <ele>806.4</ele>
        <time>2021-10-17T09:38:55Z</time>
      </trkpt>
      <trkpt lat="46.3327" lon="5.82043">
        <ele>806.4</ele>
        <time>2021-10-17T09:38:56Z</time>
      </trkpt>
      <trkpt lat="46.33268" lon="5.82045">
        <ele>806.6</ele>
        <time>2021-10-17T09:38:57Z</time>
      </trkpt>
      <trkpt lat="46.33266" lon="5.82046">
        <ele>806.6</ele>
        <time>2021-10-17T09:38:58Z</time>
      </trkpt>
      <trkpt lat="46.33263" lon="5.82047">
        <ele>807</ele>
        <time>2021-10-17T09:38:59Z</time>
      </trkpt>
      <trkpt lat="46.3326" lon="5.82048">
        <ele>807</ele>
        <time>2021-10-17T09:39:00Z</time>
      </trkpt>
      <trkpt lat="46.33258" lon="5.82049">
        <ele>807.4</ele>
        <time>2021-10-17T09:39:01Z</time>
      </trkpt>
      <trkpt lat="46.33256" lon="5.82049">
        <ele>807.4</ele>
        <time>2021-10-17T09:39:02Z</time>
      </trkpt>
      <trkpt lat="46.33254" lon="5.82049">
        <ele>807.8</ele>
        <time>2021-10-17T09:39:03Z</time>
      </trkpt>
      <trkpt lat="46.33252" lon="5.8205">
        <ele>808</ele>
        <time>2021-10-17T09:39:04Z</time>
      </trkpt>
      <trkpt lat="46.33249" lon="5.8205">
        <ele>808.2</ele>
        <time>2021-10-17T09:39:05Z</time>
      </trkpt>
      <trkpt lat="46.33247" lon="5.82051">
        <ele>808.4</ele>
        <time>2021-10-17T09:39:06Z</time>
      </trkpt>
      <trkpt lat="46.33245" lon="5.82052">
        <ele>808.6</ele>
        <time>2021-10-17T09:39:07Z</time>
      </trkpt>
      <trkpt lat="46.33243" lon="5.82053">
        <ele>808.8</ele>
        <time>2021-10-17T09:39:08Z</time>
      </trkpt>
      <trkpt lat="46.3324" lon="5.82053">
        <ele>809.2</ele>
        <time>2021-10-17T09:39:09Z</time>
      </trkpt>
      <trkpt lat="46.33238" lon="5.82054">
        <ele>809.2</ele>
        <time>2021-10-17T09:39:10Z</time>
      </trkpt>
      <trkpt lat="46.33235" lon="5.82054">
        <ele>809.6</ele>
        <time>2021-10-17T09:39:11Z</time>
      </trkpt>
      <trkpt lat="46.33232" lon="5.82055">
        <ele>809.6</ele>
        <time>2021-10-17T09:39:12Z</time>
      </trkpt>
      <trkpt lat="46.33229" lon="5.82055">
        <ele>809.8</ele>
        <time>2021-10-17T09:39:13Z</time>
      </trkpt>
      <trkpt lat="46.33226" lon="5.82055">
        <ele>810</ele>
        <time>2021-10-17T09:39:14Z</time>
      </trkpt>
      <trkpt lat="46.33224" lon="5.82055">
        <ele>810</ele>
        <time>2021-10-17T09:39:15Z</time>
      </trkpt>
      <trkpt lat="46.33222" lon="5.82055">
        <ele>810.4</ele>
        <time>2021-10-17T09:39:16Z</time>
      </trkpt>
      <trkpt lat="46.33219" lon="5.82056">
        <ele>810.4</ele>
        <time>2021-10-17T09:39:17Z</time>
      </trkpt>
      <trkpt lat="46.33217" lon="5.82056">
        <ele>810.6</ele>
        <time>2021-10-17T09:39:18Z</time>
      </trkpt>
      <trkpt lat="46.33214" lon="5.82056">
        <ele>810.6</ele>
        <time>2021-10-17T09:39:19Z</time>
      </trkpt>
      <trkpt lat="46.33211" lon="5.82057">
        <ele>811</ele>
        <time>2021-10-17T09:39:20Z</time>
      </trkpt>
      <trkpt lat="46.33208" lon="5.82057">
        <ele>811</ele>
        <time>2021-10-17T09:39:21Z</time>
      </trkpt>
      <trkpt lat="46.33205" lon="5.82058">
        <ele>811.4</ele>
        <time>2021-10-17T09:39:22Z</time>
      </trkpt>
      <trkpt lat="46.33203" lon="5.82058">
        <ele>811.4</ele>
        <time>2021-10-17T09:39:23Z</time>
      </trkpt>
      <trkpt lat="46.33199" lon="5.82058">
        <ele>811.6</ele>
        <time>2021-10-17T09:39:24Z</time>
      </trkpt>
      <trkpt lat="46.33196" lon="5.82058">
        <ele>811.6</ele>
        <time>2021-10-17T09:39:25Z</time>
      </trkpt>
      <trkpt lat="46.33193" lon="5.82058">
        <ele>812</ele>
        <time>2021-10-17T09:39:26Z</time>
      </trkpt>
      <trkpt lat="46.3319" lon="5.82059">
        <ele>812.2</ele>
        <time>2021-10-17T09:39:27Z</time>
      </trkpt>
      <trkpt lat="46.33187" lon="5.82059">
        <ele>812.4</ele>
        <time>2021-10-17T09:39:28Z</time>
      </trkpt>
      <trkpt lat="46.33184" lon="5.82059">
        <ele>812.6</ele>
        <time>2021-10-17T09:39:29Z</time>
      </trkpt>
      <trkpt lat="46.33182" lon="5.82059">
        <ele>812.6</ele>
        <time>2021-10-17T09:39:30Z</time>
      </trkpt>
      <trkpt lat="46.33179" lon="5.82058">
        <ele>813</ele>
        <time>2021-10-17T09:39:31Z</time>
      </trkpt>
      <trkpt lat="46.33176" lon="5.82058">
        <ele>813.2</ele>
        <time>2021-10-17T09:39:32Z</time>
      </trkpt>
      <trkpt lat="46.33173" lon="5.82057">
        <ele>813.2</ele>
        <time>2021-10-17T09:39:33Z</time>
      </trkpt>
      <trkpt lat="46.33169" lon="5.82056">
        <ele>813.6</ele>
        <time>2021-10-17T09:39:34Z</time>
      </trkpt>
      <trkpt lat="46.33166" lon="5.82055">
        <ele>813.8</ele>
        <time>2021-10-17T09:39:35Z</time>
      </trkpt>
      <trkpt lat="46.33163" lon="5.82055">
        <ele>814</ele>
        <time>2021-10-17T09:39:36Z</time>
      </trkpt>
      <trkpt lat="46.3316" lon="5.82055">
        <ele>814.4</ele>
        <time>2021-10-17T09:39:37Z</time>
      </trkpt>
      <trkpt lat="46.33157" lon="5.82056">
        <ele>814.6</ele>
        <time>2021-10-17T09:39:38Z</time>
      </trkpt>
      <trkpt lat="46.33154" lon="5.82056">
        <ele>814.6</ele>
        <time>2021-10-17T09:39:39Z</time>
      </trkpt>
      <trkpt lat="46.33151" lon="5.82055">
        <ele>814.8</ele>
        <time>2021-10-17T09:39:40Z</time>
      </trkpt>
      <trkpt lat="46.33148" lon="5.82055">
        <ele>815.2</ele>
        <time>2021-10-17T09:39:41Z</time>
      </trkpt>
      <trkpt lat="46.33145" lon="5.82055">
        <ele>815.2</ele>
        <time>2021-10-17T09:39:42Z</time>
      </trkpt>
      <trkpt lat="46.33141" lon="5.82055">
        <ele>815.6</ele>
        <time>2021-10-17T09:39:43Z</time>
      </trkpt>
      <trkpt lat="46.33138" lon="5.82055">
        <ele>815.8</ele>
        <time>2021-10-17T09:39:44Z</time>
      </trkpt>
      <trkpt lat="46.33135" lon="5.82055">
        <ele>815.8</ele>
        <time>2021-10-17T09:39:45Z</time>
      </trkpt>
      <trkpt lat="46.33132" lon="5.82055">
        <ele>816.2</ele>
        <time>2021-10-17T09:39:46Z</time>
      </trkpt>
      <trkpt lat="46.33128" lon="5.82055">
        <ele>816.2</ele>
        <time>2021-10-17T09:39:47Z</time>
      </trkpt>
      <trkpt lat="46.33125" lon="5.82054">
        <ele>816.6</ele>
        <time>2021-10-17T09:39:48Z</time>
      </trkpt>
      <trkpt lat="46.33122" lon="5.82054">
        <ele>816.6</ele>
        <time>2021-10-17T09:39:49Z</time>
      </trkpt>
      <trkpt lat="46.33119" lon="5.82054">
        <ele>817</ele>
        <time>2021-10-17T09:39:50Z</time>
      </trkpt>
      <trkpt lat="46.33116" lon="5.82054">
        <ele>817</ele>
        <time>2021-10-17T09:39:51Z</time>
      </trkpt>
      <trkpt lat="46.33113" lon="5.82054">
        <ele>817.2</ele>
        <time>2021-10-17T09:39:52Z</time>
      </trkpt>
      <trkpt lat="46.3311" lon="5.82054">
        <ele>817.2</ele>
        <time>2021-10-17T09:39:53Z</time>
      </trkpt>
      <trkpt lat="46.33108" lon="5.82053">
        <ele>817.6</ele>
        <time>2021-10-17T09:39:54Z</time>
      </trkpt>
      <trkpt lat="46.33105" lon="5.82052">
        <ele>817.6</ele>
        <time>2021-10-17T09:39:55Z</time>
      </trkpt>
      <trkpt lat="46.33101" lon="5.82052">
        <ele>818</ele>
        <time>2021-10-17T09:39:56Z</time>
      </trkpt>
      <trkpt lat="46.33098" lon="5.82052">
        <ele>818</ele>
        <time>2021-10-17T09:39:57Z</time>
      </trkpt>
      <trkpt lat="46.33095" lon="5.82051">
        <ele>818.4</ele>
        <time>2021-10-17T09:39:58Z</time>
      </trkpt>
      <trkpt lat="46.33092" lon="5.82051">
        <ele>818.6</ele>
        <time>2021-10-17T09:39:59Z</time>
      </trkpt>
      <trkpt lat="46.33089" lon="5.82051">
        <ele>818.8</ele>
        <time>2021-10-17T09:40:00Z</time>
      </trkpt>
      <trkpt lat="46.33086" lon="5.8205">
        <ele>819</ele>
        <time>2021-10-17T09:40:01Z</time>
      </trkpt>
      <trkpt lat="46.33083" lon="5.8205">
        <ele>819.2</ele>
        <time>2021-10-17T09:40:02Z</time>
      </trkpt>
      <trkpt lat="46.3308" lon="5.82049">
        <ele>819.2</ele>
        <time>2021-10-17T09:40:03Z</time>
      </trkpt>
      <trkpt lat="46.33077" lon="5.82048">
        <ele>819.6</ele>
        <time>2021-10-17T09:40:04Z</time>
      </trkpt>
      <trkpt lat="46.33074" lon="5.82048">
        <ele>819.8</ele>
        <time>2021-10-17T09:40:05Z</time>
      </trkpt>
      <trkpt lat="46.3307" lon="5.82048">
        <ele>819.8</ele>
        <time>2021-10-17T09:40:06Z</time>
      </trkpt>
      <trkpt lat="46.33067" lon="5.82048">
        <ele>820.2</ele>
        <time>2021-10-17T09:40:07Z</time>
      </trkpt>
      <trkpt lat="46.33064" lon="5.82047">
        <ele>820.4</ele>
        <time>2021-10-17T09:40:08Z</time>
      </trkpt>
      <trkpt lat="46.3306" lon="5.82046">
        <ele>820.6</ele>
        <time>2021-10-17T09:40:09Z</time>
      </trkpt>
      <trkpt lat="46.33057" lon="5.82045">
        <ele>820.6</ele>
        <time>2021-10-17T09:40:10Z</time>
      </trkpt>
      <trkpt lat="46.33054" lon="5.82044">
        <ele>820.8</ele>
        <time>2021-10-17T09:40:11Z</time>
      </trkpt>
      <trkpt lat="46.33052" lon="5.82043">
        <ele>821</ele>
        <time>2021-10-17T09:40:12Z</time>
      </trkpt>
      <trkpt lat="46.33048" lon="5.82042">
        <ele>821</ele>
        <time>2021-10-17T09:40:13Z</time>
      </trkpt>
      <trkpt lat="46.33045" lon="5.82041">
        <ele>821.6</ele>
        <time>2021-10-17T09:40:14Z</time>
      </trkpt>
      <trkpt lat="46.33042" lon="5.8204">
        <ele>821.8</ele>
        <time>2021-10-17T09:40:15Z</time>
      </trkpt>
      <trkpt lat="46.33039" lon="5.8204">
        <ele>822</ele>
        <time>2021-10-17T09:40:16Z</time>
      </trkpt>
      <trkpt lat="46.33036" lon="5.82039">
        <ele>822.2</ele>
        <time>2021-10-17T09:40:17Z</time>
      </trkpt>
      <trkpt lat="46.33034" lon="5.82039">
        <ele>822.6</ele>
        <time>2021-10-17T09:40:18Z</time>
      </trkpt>
      <trkpt lat="46.33031" lon="5.82039">
        <ele>822.8</ele>
        <time>2021-10-17T09:40:19Z</time>
      </trkpt>
      <trkpt lat="46.33027" lon="5.82038">
        <ele>823</ele>
        <time>2021-10-17T09:40:20Z</time>
      </trkpt>
      <trkpt lat="46.33024" lon="5.82039">
        <ele>823.2</ele>
        <time>2021-10-17T09:40:21Z</time>
      </trkpt>
      <trkpt lat="46.3302" lon="5.82038">
        <ele>823.2</ele>
        <time>2021-10-17T09:40:22Z</time>
      </trkpt>
      <trkpt lat="46.33016" lon="5.82037">
        <ele>823.6</ele>
        <time>2021-10-17T09:40:23Z</time>
      </trkpt>
      <trkpt lat="46.33012" lon="5.82037">
        <ele>823.8</ele>
        <time>2021-10-17T09:40:24Z</time>
      </trkpt>
      <trkpt lat="46.33009" lon="5.82036">
        <ele>824</ele>
        <time>2021-10-17T09:40:25Z</time>
      </trkpt>
      <trkpt lat="46.33005" lon="5.82036">
        <ele>824</ele>
        <time>2021-10-17T09:40:26Z</time>
      </trkpt>
      <trkpt lat="46.33002" lon="5.82035">
        <ele>824.4</ele>
        <time>2021-10-17T09:40:27Z</time>
      </trkpt>
      <trkpt lat="46.32998" lon="5.82035">
        <ele>824.6</ele>
        <time>2021-10-17T09:40:28Z</time>
      </trkpt>
      <trkpt lat="46.32994" lon="5.82035">
        <ele>824.6</ele>
        <time>2021-10-17T09:40:29Z</time>
      </trkpt>
      <trkpt lat="46.32991" lon="5.82034">
        <ele>825</ele>
        <time>2021-10-17T09:40:30Z</time>
      </trkpt>
      <trkpt lat="46.32987" lon="5.82035">
        <ele>825.4</ele>
        <time>2021-10-17T09:40:31Z</time>
      </trkpt>
      <trkpt lat="46.32984" lon="5.82034">
        <ele>825.6</ele>
        <time>2021-10-17T09:40:32Z</time>
      </trkpt>
      <trkpt lat="46.32981" lon="5.82033">
        <ele>825.6</ele>
        <time>2021-10-17T09:40:33Z</time>
      </trkpt>
      <trkpt lat="46.32978" lon="5.82031">
        <ele>826</ele>
        <time>2021-10-17T09:40:34Z</time>
      </trkpt>
      <trkpt lat="46.32975" lon="5.8203">
        <ele>826.2</ele>
        <time>2021-10-17T09:40:35Z</time>
      </trkpt>
      <trkpt lat="46.32972" lon="5.82028">
        <ele>826.4</ele>
        <time>2021-10-17T09:40:36Z</time>
      </trkpt>
      <trkpt lat="46.32969" lon="5.82027">
        <ele>826.4</ele>
        <time>2021-10-17T09:40:37Z</time>
      </trkpt>
      <trkpt lat="46.32966" lon="5.82025">
        <ele>826.8</ele>
        <time>2021-10-17T09:40:38Z</time>
      </trkpt>
      <trkpt lat="46.32964" lon="5.82024">
        <ele>827</ele>
        <time>2021-10-17T09:40:39Z</time>
      </trkpt>
      <trkpt lat="46.32961" lon="5.82023">
        <ele>827</ele>
        <time>2021-10-17T09:40:40Z</time>
      </trkpt>
      <trkpt lat="46.32958" lon="5.82022">
        <ele>827.4</ele>
        <time>2021-10-17T09:40:41Z</time>
      </trkpt>
      <trkpt lat="46.32955" lon="5.82021">
        <ele>827.8</ele>
        <time>2021-10-17T09:40:42Z</time>
      </trkpt>
      <trkpt lat="46.32952" lon="5.82019">
        <ele>827.8</ele>
        <time>2021-10-17T09:40:43Z</time>
      </trkpt>
      <trkpt lat="46.32949" lon="5.82019">
        <ele>828.2</ele>
        <time>2021-10-17T09:40:44Z</time>
      </trkpt>
      <trkpt lat="46.32946" lon="5.82018">
        <ele>828.2</ele>
        <time>2021-10-17T09:40:45Z</time>
      </trkpt>
      <trkpt lat="46.32943" lon="5.82017">
        <ele>828.6</ele>
        <time>2021-10-17T09:40:46Z</time>
      </trkpt>
      <trkpt lat="46.3294" lon="5.82016">
        <ele>828.8</ele>
        <time>2021-10-17T09:40:47Z</time>
      </trkpt>
      <trkpt lat="46.32937" lon="5.82016">
        <ele>828.8</ele>
        <time>2021-10-17T09:40:48Z</time>
      </trkpt>
      <trkpt lat="46.32933" lon="5.82015">
        <ele>829.2</ele>
        <time>2021-10-17T09:40:49Z</time>
      </trkpt>
      <trkpt lat="46.3293" lon="5.82016">
        <ele>829.2</ele>
        <time>2021-10-17T09:40:50Z</time>
      </trkpt>
      <trkpt lat="46.32926" lon="5.82017">
        <ele>829.6</ele>
        <time>2021-10-17T09:40:51Z</time>
      </trkpt>
      <trkpt lat="46.32923" lon="5.82018">
        <ele>829.6</ele>
        <time>2021-10-17T09:40:52Z</time>
      </trkpt>
      <trkpt lat="46.3292" lon="5.8202">
        <ele>829.8</ele>
        <time>2021-10-17T09:40:53Z</time>
      </trkpt>
      <trkpt lat="46.32917" lon="5.8202">
        <ele>829.8</ele>
        <time>2021-10-17T09:40:54Z</time>
      </trkpt>
      <trkpt lat="46.32914" lon="5.8202">
        <ele>830.2</ele>
        <time>2021-10-17T09:40:55Z</time>
      </trkpt>
      <trkpt lat="46.32911" lon="5.8202">
        <ele>830.4</ele>
        <time>2021-10-17T09:40:56Z</time>
      </trkpt>
      <trkpt lat="46.32908" lon="5.8202">
        <ele>830.6</ele>
        <time>2021-10-17T09:40:57Z</time>
      </trkpt>
      <trkpt lat="46.32905" lon="5.8202">
        <ele>830.6</ele>
        <time>2021-10-17T09:40:58Z</time>
      </trkpt>
      <trkpt lat="46.32902" lon="5.8202">
        <ele>831</ele>
        <time>2021-10-17T09:40:59Z</time>
      </trkpt>
      <trkpt lat="46.329" lon="5.82019">
        <ele>831.2</ele>
        <time>2021-10-17T09:41:00Z</time>
      </trkpt>
      <trkpt lat="46.32897" lon="5.82018">
        <ele>831.2</ele>
        <time>2021-10-17T09:41:01Z</time>
      </trkpt>
      <trkpt lat="46.32894" lon="5.82017">
        <ele>831.6</ele>
        <time>2021-10-17T09:41:02Z</time>
      </trkpt>
      <trkpt lat="46.32891" lon="5.82016">
        <ele>831.8</ele>
        <time>2021-10-17T09:41:03Z</time>
      </trkpt>
      <trkpt lat="46.32888" lon="5.82016">
        <ele>831.8</ele>
        <time>2021-10-17T09:41:04Z</time>
      </trkpt>
      <trkpt lat="46.32885" lon="5.82014">
        <ele>832.2</ele>
        <time>2021-10-17T09:41:05Z</time>
      </trkpt>
      <trkpt lat="46.32882" lon="5.82013">
        <ele>832.2</ele>
        <time>2021-10-17T09:41:06Z</time>
      </trkpt>
      <trkpt lat="46.32879" lon="5.82012">
        <ele>832.6</ele>
        <time>2021-10-17T09:41:07Z</time>
      </trkpt>
      <trkpt lat="46.32876" lon="5.82011">
        <ele>832.8</ele>
        <time>2021-10-17T09:41:08Z</time>
      </trkpt>
      <trkpt lat="46.32873" lon="5.82011">
        <ele>833</ele>
        <time>2021-10-17T09:41:09Z</time>
      </trkpt>
      <trkpt lat="46.32869" lon="5.82011">
        <ele>833</ele>
        <time>2021-10-17T09:41:10Z</time>
      </trkpt>
      <trkpt lat="46.32866" lon="5.82011">
        <ele>833.4</ele>
        <time>2021-10-17T09:41:11Z</time>
      </trkpt>
      <trkpt lat="46.32862" lon="5.82008">
        <ele>833.4</ele>
        <time>2021-10-17T09:41:12Z</time>
      </trkpt>
      <trkpt lat="46.32858" lon="5.82006">
        <ele>833.8</ele>
        <time>2021-10-17T09:41:13Z</time>
      </trkpt>
      <trkpt lat="46.32855" lon="5.82003">
        <ele>834</ele>
        <time>2021-10-17T09:41:14Z</time>
      </trkpt>
      <trkpt lat="46.32852" lon="5.82">
        <ele>834.4</ele>
        <time>2021-10-17T09:41:15Z</time>
      </trkpt>
      <trkpt lat="46.32848" lon="5.81998">
        <ele>834.6</ele>
        <time>2021-10-17T09:41:16Z</time>
      </trkpt>
      <trkpt lat="46.32845" lon="5.81996">
        <ele>834.6</ele>
        <time>2021-10-17T09:41:17Z</time>
      </trkpt>
      <trkpt lat="46.32842" lon="5.81993">
        <ele>834.8</ele>
        <time>2021-10-17T09:41:18Z</time>
      </trkpt>
      <trkpt lat="46.32839" lon="5.81991">
        <ele>834.8</ele>
        <time>2021-10-17T09:41:19Z</time>
      </trkpt>
      <trkpt lat="46.32836" lon="5.81987">
        <ele>835.2</ele>
        <time>2021-10-17T09:41:20Z</time>
      </trkpt>
      <trkpt lat="46.32834" lon="5.81984">
        <ele>835.4</ele>
        <time>2021-10-17T09:41:21Z</time>
      </trkpt>
      <trkpt lat="46.32831" lon="5.81982">
        <ele>835.6</ele>
        <time>2021-10-17T09:41:22Z</time>
      </trkpt>
      <trkpt lat="46.32829" lon="5.81979">
        <ele>836</ele>
        <time>2021-10-17T09:41:23Z</time>
      </trkpt>
      <trkpt lat="46.32827" lon="5.81977">
        <ele>836</ele>
        <time>2021-10-17T09:41:24Z</time>
      </trkpt>
      <trkpt lat="46.32824" lon="5.81974">
        <ele>836.4</ele>
        <time>2021-10-17T09:41:25Z</time>
      </trkpt>
      <trkpt lat="46.32822" lon="5.81972">
        <ele>836.8</ele>
        <time>2021-10-17T09:41:26Z</time>
      </trkpt>
      <trkpt lat="46.32819" lon="5.8197">
        <ele>837.2</ele>
        <time>2021-10-17T09:41:27Z</time>
      </trkpt>
      <trkpt lat="46.32817" lon="5.81968">
        <ele>837.4</ele>
        <time>2021-10-17T09:41:28Z</time>
      </trkpt>
      <trkpt lat="46.32814" lon="5.81966">
        <ele>837.6</ele>
        <time>2021-10-17T09:41:29Z</time>
      </trkpt>
      <trkpt lat="46.32812" lon="5.81964">
        <ele>837.8</ele>
        <time>2021-10-17T09:41:30Z</time>
      </trkpt>
      <trkpt lat="46.32809" lon="5.81963">
        <ele>838</ele>
        <time>2021-10-17T09:41:31Z</time>
      </trkpt>
      <trkpt lat="46.32806" lon="5.81961">
        <ele>838.2</ele>
        <time>2021-10-17T09:41:32Z</time>
      </trkpt>
      <trkpt lat="46.32803" lon="5.8196">
        <ele>838.4</ele>
        <time>2021-10-17T09:41:33Z</time>
      </trkpt>
      <trkpt lat="46.32799" lon="5.81959">
        <ele>838.4</ele>
        <time>2021-10-17T09:41:34Z</time>
      </trkpt>
      <trkpt lat="46.32796" lon="5.81957">
        <ele>838.8</ele>
        <time>2021-10-17T09:41:35Z</time>
      </trkpt>
      <trkpt lat="46.32793" lon="5.81956">
        <ele>838.8</ele>
        <time>2021-10-17T09:41:36Z</time>
      </trkpt>
      <trkpt lat="46.32789" lon="5.81955">
        <ele>839.2</ele>
        <time>2021-10-17T09:41:37Z</time>
      </trkpt>
      <trkpt lat="46.32786" lon="5.81954">
        <ele>839.4</ele>
        <time>2021-10-17T09:41:38Z</time>
      </trkpt>
      <trkpt lat="46.32783" lon="5.81954">
        <ele>839.8</ele>
        <time>2021-10-17T09:41:39Z</time>
      </trkpt>
      <trkpt lat="46.3278" lon="5.81953">
        <ele>840</ele>
        <time>2021-10-17T09:41:40Z</time>
      </trkpt>
      <trkpt lat="46.32777" lon="5.81953">
        <ele>840</ele>
        <time>2021-10-17T09:41:41Z</time>
      </trkpt>
      <trkpt lat="46.32774" lon="5.81953">
        <ele>840.2</ele>
        <time>2021-10-17T09:41:42Z</time>
      </trkpt>
      <trkpt lat="46.32771" lon="5.81952">
        <ele>840.2</ele>
        <time>2021-10-17T09:41:43Z</time>
      </trkpt>
      <trkpt lat="46.32768" lon="5.81951">
        <ele>840.6</ele>
        <time>2021-10-17T09:41:44Z</time>
      </trkpt>
      <trkpt lat="46.32765" lon="5.81949">
        <ele>840.6</ele>
        <time>2021-10-17T09:41:45Z</time>
      </trkpt>
      <trkpt lat="46.32762" lon="5.81947">
        <ele>841</ele>
        <time>2021-10-17T09:41:46Z</time>
      </trkpt>
      <trkpt lat="46.32759" lon="5.81945">
        <ele>841</ele>
        <time>2021-10-17T09:41:47Z</time>
      </trkpt>
      <trkpt lat="46.32757" lon="5.81943">
        <ele>841.2</ele>
        <time>2021-10-17T09:41:48Z</time>
      </trkpt>
      <trkpt lat="46.32754" lon="5.8194">
        <ele>841.2</ele>
        <time>2021-10-17T09:41:49Z</time>
      </trkpt>
      <trkpt lat="46.32751" lon="5.81937">
        <ele>841.6</ele>
        <time>2021-10-17T09:41:50Z</time>
      </trkpt>
      <trkpt lat="46.32749" lon="5.81935">
        <ele>841.8</ele>
        <time>2021-10-17T09:41:51Z</time>
      </trkpt>
      <trkpt lat="46.32746" lon="5.81932">
        <ele>841.8</ele>
        <time>2021-10-17T09:41:52Z</time>
      </trkpt>
      <trkpt lat="46.32743" lon="5.8193">
        <ele>842.2</ele>
        <time>2021-10-17T09:41:53Z</time>
      </trkpt>
      <trkpt lat="46.32741" lon="5.81928">
        <ele>842.4</ele>
        <time>2021-10-17T09:41:54Z</time>
      </trkpt>
      <trkpt lat="46.32738" lon="5.81927">
        <ele>842.4</ele>
        <time>2021-10-17T09:41:56Z</time>
      </trkpt>
      <trkpt lat="46.32735" lon="5.81925">
        <ele>842.6</ele>
        <time>2021-10-17T09:41:57Z</time>
      </trkpt>
      <trkpt lat="46.32732" lon="5.81923">
        <ele>842.6</ele>
        <time>2021-10-17T09:41:58Z</time>
      </trkpt>
      <trkpt lat="46.3273" lon="5.81921">
        <ele>843</ele>
        <time>2021-10-17T09:41:59Z</time>
      </trkpt>
      <trkpt lat="46.32727" lon="5.81919">
        <ele>843</ele>
        <time>2021-10-17T09:42:00Z</time>
      </trkpt>
      <trkpt lat="46.32725" lon="5.81917">
        <ele>843.2</ele>
        <time>2021-10-17T09:42:01Z</time>
      </trkpt>
      <trkpt lat="46.32722" lon="5.81916">
        <ele>843.2</ele>
        <time>2021-10-17T09:42:02Z</time>
      </trkpt>
      <trkpt lat="46.3272" lon="5.81914">
        <ele>843.4</ele>
        <time>2021-10-17T09:42:03Z</time>
      </trkpt>
      <trkpt lat="46.32718" lon="5.81912">
        <ele>843.6</ele>
        <time>2021-10-17T09:42:04Z</time>
      </trkpt>
      <trkpt lat="46.32715" lon="5.8191">
        <ele>844</ele>
        <time>2021-10-17T09:42:05Z</time>
      </trkpt>
      <trkpt lat="46.32713" lon="5.81908">
        <ele>844.2</ele>
        <time>2021-10-17T09:42:06Z</time>
      </trkpt>
      <trkpt lat="46.3271" lon="5.81906">
        <ele>844.4</ele>
        <time>2021-10-17T09:42:07Z</time>
      </trkpt>
      <trkpt lat="46.32708" lon="5.81905">
        <ele>844.6</ele>
        <time>2021-10-17T09:42:08Z</time>
      </trkpt>
      <trkpt lat="46.32705" lon="5.81903">
        <ele>844.8</ele>
        <time>2021-10-17T09:42:09Z</time>
      </trkpt>
      <trkpt lat="46.32702" lon="5.81902">
        <ele>845.2</ele>
        <time>2021-10-17T09:42:10Z</time>
      </trkpt>
      <trkpt lat="46.32699" lon="5.81901">
        <ele>845.2</ele>
        <time>2021-10-17T09:42:11Z</time>
      </trkpt>
      <trkpt lat="46.32696" lon="5.819">
        <ele>845.4</ele>
        <time>2021-10-17T09:42:12Z</time>
      </trkpt>
      <trkpt lat="46.32693" lon="5.81899">
        <ele>845.4</ele>
        <time>2021-10-17T09:42:13Z</time>
      </trkpt>
      <trkpt lat="46.3269" lon="5.81899">
        <ele>845.8</ele>
        <time>2021-10-17T09:42:14Z</time>
      </trkpt>
      <trkpt lat="46.32687" lon="5.81899">
        <ele>845.8</ele>
        <time>2021-10-17T09:42:15Z</time>
      </trkpt>
      <trkpt lat="46.32684" lon="5.819">
        <ele>846.2</ele>
        <time>2021-10-17T09:42:16Z</time>
      </trkpt>
      <trkpt lat="46.32682" lon="5.81901">
        <ele>846.6</ele>
        <time>2021-10-17T09:42:17Z</time>
      </trkpt>
      <trkpt lat="46.32679" lon="5.81902">
        <ele>846.6</ele>
        <time>2021-10-17T09:42:18Z</time>
      </trkpt>
      <trkpt lat="46.32676" lon="5.81902">
        <ele>846.8</ele>
        <time>2021-10-17T09:42:19Z</time>
      </trkpt>
      <trkpt lat="46.32674" lon="5.81903">
        <ele>846.8</ele>
        <time>2021-10-17T09:42:20Z</time>
      </trkpt>
      <trkpt lat="46.32671" lon="5.81904">
        <ele>847</ele>
        <time>2021-10-17T09:42:21Z</time>
      </trkpt>
      <trkpt lat="46.32668" lon="5.81905">
        <ele>847.2</ele>
        <time>2021-10-17T09:42:22Z</time>
      </trkpt>
      <trkpt lat="46.32666" lon="5.81906">
        <ele>847.2</ele>
        <time>2021-10-17T09:42:23Z</time>
      </trkpt>
      <trkpt lat="46.32663" lon="5.81907">
        <ele>847.6</ele>
        <time>2021-10-17T09:42:24Z</time>
      </trkpt>
      <trkpt lat="46.3266" lon="5.81908">
        <ele>847.6</ele>
        <time>2021-10-17T09:42:25Z</time>
      </trkpt>
      <trkpt lat="46.32658" lon="5.81909">
        <ele>848</ele>
        <time>2021-10-17T09:42:26Z</time>
      </trkpt>
      <trkpt lat="46.32655" lon="5.8191">
        <ele>848</ele>
        <time>2021-10-17T09:42:27Z</time>
      </trkpt>
      <trkpt lat="46.32652" lon="5.8191">
        <ele>848.2</ele>
        <time>2021-10-17T09:42:28Z</time>
      </trkpt>
      <trkpt lat="46.32649" lon="5.8191">
        <ele>848.2</ele>
        <time>2021-10-17T09:42:29Z</time>
      </trkpt>
      <trkpt lat="46.32647" lon="5.8191">
        <ele>848.6</ele>
        <time>2021-10-17T09:42:30Z</time>
      </trkpt>
      <trkpt lat="46.32644" lon="5.8191">
        <ele>848.6</ele>
        <time>2021-10-17T09:42:31Z</time>
      </trkpt>
      <trkpt lat="46.32641" lon="5.8191">
        <ele>848.8</ele>
        <time>2021-10-17T09:42:32Z</time>
      </trkpt>
      <trkpt lat="46.32638" lon="5.81911">
        <ele>848.8</ele>
        <time>2021-10-17T09:42:33Z</time>
      </trkpt>
      <trkpt lat="46.32636" lon="5.81911">
        <ele>849.2</ele>
        <time>2021-10-17T09:42:34Z</time>
      </trkpt>
      <trkpt lat="46.32633" lon="5.81909">
        <ele>849.2</ele>
        <time>2021-10-17T09:42:35Z</time>
      </trkpt>
      <trkpt lat="46.32631" lon="5.81907">
        <ele>849.4</ele>
        <time>2021-10-17T09:42:36Z</time>
      </trkpt>
      <trkpt lat="46.32628" lon="5.81906">
        <ele>849.6</ele>
        <time>2021-10-17T09:42:37Z</time>
      </trkpt>
      <trkpt lat="46.32626" lon="5.81904">
        <ele>849.6</ele>
        <time>2021-10-17T09:42:38Z</time>
      </trkpt>
      <trkpt lat="46.32624" lon="5.81902">
        <ele>850</ele>
        <time>2021-10-17T09:42:39Z</time>
      </trkpt>
      <trkpt lat="46.32622" lon="5.81901">
        <ele>850</ele>
        <time>2021-10-17T09:42:40Z</time>
      </trkpt>
      <trkpt lat="46.32619" lon="5.81899">
        <ele>850.4</ele>
        <time>2021-10-17T09:42:41Z</time>
      </trkpt>
      <trkpt lat="46.32617" lon="5.81898">
        <ele>850.4</ele>
        <time>2021-10-17T09:42:42Z</time>
      </trkpt>
      <trkpt lat="46.32614" lon="5.81895">
        <ele>850.8</ele>
        <time>2021-10-17T09:42:43Z</time>
      </trkpt>
      <trkpt lat="46.32612" lon="5.81893">
        <ele>850.8</ele>
        <time>2021-10-17T09:42:44Z</time>
      </trkpt>
      <trkpt lat="46.3261" lon="5.81891">
        <ele>851</ele>
        <time>2021-10-17T09:42:45Z</time>
      </trkpt>
      <trkpt lat="46.32607" lon="5.8189">
        <ele>851</ele>
        <time>2021-10-17T09:42:46Z</time>
      </trkpt>
      <trkpt lat="46.32604" lon="5.81888">
        <ele>851.4</ele>
        <time>2021-10-17T09:42:47Z</time>
      </trkpt>
      <trkpt lat="46.32602" lon="5.81886">
        <ele>851.6</ele>
        <time>2021-10-17T09:42:48Z</time>
      </trkpt>
      <trkpt lat="46.32599" lon="5.81884">
        <ele>851.8</ele>
        <time>2021-10-17T09:42:49Z</time>
      </trkpt>
      <trkpt lat="46.32596" lon="5.81881">
        <ele>851.8</ele>
        <time>2021-10-17T09:42:50Z</time>
      </trkpt>
      <trkpt lat="46.32593" lon="5.81879">
        <ele>852</ele>
        <time>2021-10-17T09:42:51Z</time>
      </trkpt>
      <trkpt lat="46.3259" lon="5.81877">
        <ele>852</ele>
        <time>2021-10-17T09:42:52Z</time>
      </trkpt>
      <trkpt lat="46.32587" lon="5.81875">
        <ele>852.4</ele>
        <time>2021-10-17T09:42:53Z</time>
      </trkpt>
      <trkpt lat="46.32585" lon="5.81873">
        <ele>852.4</ele>
        <time>2021-10-17T09:42:54Z</time>
      </trkpt>
      <trkpt lat="46.32582" lon="5.81872">
        <ele>852.8</ele>
        <time>2021-10-17T09:42:55Z</time>
      </trkpt>
      <trkpt lat="46.32579" lon="5.8187">
        <ele>852.8</ele>
        <time>2021-10-17T09:42:56Z</time>
      </trkpt>
      <trkpt lat="46.32577" lon="5.81868">
        <ele>853.2</ele>
        <time>2021-10-17T09:42:57Z</time>
      </trkpt>
      <trkpt lat="46.32574" lon="5.81865">
        <ele>853.2</ele>
        <time>2021-10-17T09:42:58Z</time>
      </trkpt>
      <trkpt lat="46.32572" lon="5.81863">
        <ele>853.6</ele>
        <time>2021-10-17T09:42:59Z</time>
      </trkpt>
      <trkpt lat="46.32569" lon="5.81861">
        <ele>853.8</ele>
        <time>2021-10-17T09:43:00Z</time>
      </trkpt>
      <trkpt lat="46.32566" lon="5.81859">
        <ele>854</ele>
        <time>2021-10-17T09:43:01Z</time>
      </trkpt>
      <trkpt lat="46.32564" lon="5.81857">
        <ele>854</ele>
        <time>2021-10-17T09:43:02Z</time>
      </trkpt>
      <trkpt lat="46.32561" lon="5.81855">
        <ele>854.2</ele>
        <time>2021-10-17T09:43:03Z</time>
      </trkpt>
      <trkpt lat="46.32558" lon="5.81854">
        <ele>854.2</ele>
        <time>2021-10-17T09:43:04Z</time>
      </trkpt>
      <trkpt lat="46.32556" lon="5.81851">
        <ele>854.6</ele>
        <time>2021-10-17T09:43:05Z</time>
      </trkpt>
      <trkpt lat="46.32553" lon="5.81849">
        <ele>854.6</ele>
        <time>2021-10-17T09:43:06Z</time>
      </trkpt>
      <trkpt lat="46.3255" lon="5.81848">
        <ele>854.8</ele>
        <time>2021-10-17T09:43:07Z</time>
      </trkpt>
      <trkpt lat="46.32547" lon="5.81846">
        <ele>854.8</ele>
        <time>2021-10-17T09:43:08Z</time>
      </trkpt>
      <trkpt lat="46.32544" lon="5.81845">
        <ele>855.2</ele>
        <time>2021-10-17T09:43:09Z</time>
      </trkpt>
      <trkpt lat="46.32542" lon="5.81843">
        <ele>855.6</ele>
        <time>2021-10-17T09:43:10Z</time>
      </trkpt>
      <trkpt lat="46.32539" lon="5.81841">
        <ele>855.8</ele>
        <time>2021-10-17T09:43:11Z</time>
      </trkpt>
      <trkpt lat="46.32536" lon="5.8184">
        <ele>856</ele>
        <time>2021-10-17T09:43:12Z</time>
      </trkpt>
      <trkpt lat="46.32533" lon="5.81839">
        <ele>856</ele>
        <time>2021-10-17T09:43:13Z</time>
      </trkpt>
      <trkpt lat="46.32531" lon="5.81837">
        <ele>856.4</ele>
        <time>2021-10-17T09:43:14Z</time>
      </trkpt>
      <trkpt lat="46.32528" lon="5.81837">
        <ele>856.4</ele>
        <time>2021-10-17T09:43:15Z</time>
      </trkpt>
      <trkpt lat="46.32525" lon="5.81836">
        <ele>856.6</ele>
        <time>2021-10-17T09:43:16Z</time>
      </trkpt>
      <trkpt lat="46.32522" lon="5.81835">
        <ele>856.6</ele>
        <time>2021-10-17T09:43:17Z</time>
      </trkpt>
      <trkpt lat="46.32519" lon="5.81833">
        <ele>857</ele>
        <time>2021-10-17T09:43:18Z</time>
      </trkpt>
      <trkpt lat="46.32516" lon="5.81833">
        <ele>857.2</ele>
        <time>2021-10-17T09:43:19Z</time>
      </trkpt>
      <trkpt lat="46.32514" lon="5.81832">
        <ele>857.4</ele>
        <time>2021-10-17T09:43:20Z</time>
      </trkpt>
      <trkpt lat="46.32511" lon="5.81831">
        <ele>857.8</ele>
        <time>2021-10-17T09:43:21Z</time>
      </trkpt>
      <trkpt lat="46.32508" lon="5.8183">
        <ele>857.8</ele>
        <time>2021-10-17T09:43:22Z</time>
      </trkpt>
      <trkpt lat="46.32505" lon="5.8183">
        <ele>858</ele>
        <time>2021-10-17T09:43:23Z</time>
      </trkpt>
      <trkpt lat="46.32501" lon="5.8183">
        <ele>858</ele>
        <time>2021-10-17T09:43:24Z</time>
      </trkpt>
      <trkpt lat="46.32499" lon="5.8183">
        <ele>858.4</ele>
        <time>2021-10-17T09:43:25Z</time>
      </trkpt>
      <trkpt lat="46.32496" lon="5.81829">
        <ele>858.4</ele>
        <time>2021-10-17T09:43:26Z</time>
      </trkpt>
      <trkpt lat="46.32493" lon="5.81828">
        <ele>858.8</ele>
        <time>2021-10-17T09:43:27Z</time>
      </trkpt>
      <trkpt lat="46.32491" lon="5.81827">
        <ele>858.8</ele>
        <time>2021-10-17T09:43:28Z</time>
      </trkpt>
      <trkpt lat="46.32488" lon="5.81825">
        <ele>859.2</ele>
        <time>2021-10-17T09:43:29Z</time>
      </trkpt>
      <trkpt lat="46.32485" lon="5.81824">
        <ele>859.4</ele>
        <time>2021-10-17T09:43:30Z</time>
      </trkpt>
      <trkpt lat="46.32483" lon="5.81823">
        <ele>859.8</ele>
        <time>2021-10-17T09:43:31Z</time>
      </trkpt>
      <trkpt lat="46.3248" lon="5.81821">
        <ele>860</ele>
        <time>2021-10-17T09:43:32Z</time>
      </trkpt>
      <trkpt lat="46.32478" lon="5.81819">
        <ele>860.4</ele>
        <time>2021-10-17T09:43:33Z</time>
      </trkpt>
      <trkpt lat="46.32475" lon="5.81816">
        <ele>860.6</ele>
        <time>2021-10-17T09:43:34Z</time>
      </trkpt>
      <trkpt lat="46.32473" lon="5.81814">
        <ele>861</ele>
        <time>2021-10-17T09:43:35Z</time>
      </trkpt>
      <trkpt lat="46.3247" lon="5.81812">
        <ele>861.2</ele>
        <time>2021-10-17T09:43:36Z</time>
      </trkpt>
      <trkpt lat="46.32467" lon="5.8181">
        <ele>861.2</ele>
        <time>2021-10-17T09:43:37Z</time>
      </trkpt>
      <trkpt lat="46.32465" lon="5.81809">
        <ele>861.6</ele>
        <time>2021-10-17T09:43:38Z</time>
      </trkpt>
      <trkpt lat="46.32462" lon="5.81807">
        <ele>861.6</ele>
        <time>2021-10-17T09:43:39Z</time>
      </trkpt>
      <trkpt lat="46.32459" lon="5.81805">
        <ele>861.8</ele>
        <time>2021-10-17T09:43:40Z</time>
      </trkpt>
      <trkpt lat="46.32457" lon="5.81804">
        <ele>862.2</ele>
        <time>2021-10-17T09:43:41Z</time>
      </trkpt>
      <trkpt lat="46.32454" lon="5.81804">
        <ele>862.2</ele>
        <time>2021-10-17T09:43:42Z</time>
      </trkpt>
      <trkpt lat="46.32451" lon="5.81803">
        <ele>862.4</ele>
        <time>2021-10-17T09:43:43Z</time>
      </trkpt>
      <trkpt lat="46.32448" lon="5.81802">
        <ele>862.4</ele>
        <time>2021-10-17T09:43:44Z</time>
      </trkpt>
      <trkpt lat="46.32445" lon="5.81801">
        <ele>862.8</ele>
        <time>2021-10-17T09:43:45Z</time>
      </trkpt>
      <trkpt lat="46.32442" lon="5.818">
        <ele>863</ele>
        <time>2021-10-17T09:43:46Z</time>
      </trkpt>
      <trkpt lat="46.32439" lon="5.81799">
        <ele>863</ele>
        <time>2021-10-17T09:43:47Z</time>
      </trkpt>
      <trkpt lat="46.32435" lon="5.81798">
        <ele>863.4</ele>
        <time>2021-10-17T09:43:48Z</time>
      </trkpt>
      <trkpt lat="46.32432" lon="5.81797">
        <ele>863.4</ele>
        <time>2021-10-17T09:43:49Z</time>
      </trkpt>
      <trkpt lat="46.32429" lon="5.81795">
        <ele>863.6</ele>
        <time>2021-10-17T09:43:50Z</time>
      </trkpt>
      <trkpt lat="46.32426" lon="5.81793">
        <ele>863.6</ele>
        <time>2021-10-17T09:43:51Z</time>
      </trkpt>
      <trkpt lat="46.32423" lon="5.81792">
        <ele>864</ele>
        <time>2021-10-17T09:43:52Z</time>
      </trkpt>
      <trkpt lat="46.3242" lon="5.8179">
        <ele>864</ele>
        <time>2021-10-17T09:43:53Z</time>
      </trkpt>
      <trkpt lat="46.32417" lon="5.81788">
        <ele>864.4</ele>
        <time>2021-10-17T09:43:54Z</time>
      </trkpt>
      <trkpt lat="46.32414" lon="5.81787">
        <ele>864.4</ele>
        <time>2021-10-17T09:43:55Z</time>
      </trkpt>
      <trkpt lat="46.32411" lon="5.81785">
        <ele>864.6</ele>
        <time>2021-10-17T09:43:56Z</time>
      </trkpt>
      <trkpt lat="46.32408" lon="5.81784">
        <ele>864.6</ele>
        <time>2021-10-17T09:43:57Z</time>
      </trkpt>
      <trkpt lat="46.32405" lon="5.81782">
        <ele>865</ele>
        <time>2021-10-17T09:43:58Z</time>
      </trkpt>
      <trkpt lat="46.32402" lon="5.8178">
        <ele>865</ele>
        <time>2021-10-17T09:43:59Z</time>
      </trkpt>
      <trkpt lat="46.324" lon="5.81778">
        <ele>865.4</ele>
        <time>2021-10-17T09:44:00Z</time>
      </trkpt>
      <trkpt lat="46.32397" lon="5.81776">
        <ele>865.4</ele>
        <time>2021-10-17T09:44:01Z</time>
      </trkpt>
      <trkpt lat="46.32395" lon="5.81773">
        <ele>865.6</ele>
        <time>2021-10-17T09:44:02Z</time>
      </trkpt>
      <trkpt lat="46.32393" lon="5.81771">
        <ele>865.6</ele>
        <time>2021-10-17T09:44:03Z</time>
      </trkpt>
      <trkpt lat="46.3239" lon="5.81769">
        <ele>866</ele>
        <time>2021-10-17T09:44:04Z</time>
      </trkpt>
      <trkpt lat="46.32388" lon="5.81767">
        <ele>866</ele>
        <time>2021-10-17T09:44:05Z</time>
      </trkpt>
      <trkpt lat="46.32385" lon="5.81764">
        <ele>866.4</ele>
        <time>2021-10-17T09:44:06Z</time>
      </trkpt>
      <trkpt lat="46.32383" lon="5.81762">
        <ele>866.4</ele>
        <time>2021-10-17T09:44:07Z</time>
      </trkpt>
      <trkpt lat="46.32381" lon="5.8176">
        <ele>866.8</ele>
        <time>2021-10-17T09:44:08Z</time>
      </trkpt>
      <trkpt lat="46.32379" lon="5.81757">
        <ele>867</ele>
        <time>2021-10-17T09:44:09Z</time>
      </trkpt>
      <trkpt lat="46.32376" lon="5.81755">
        <ele>867</ele>
        <time>2021-10-17T09:44:10Z</time>
      </trkpt>
      <trkpt lat="46.32374" lon="5.81753">
        <ele>867.2</ele>
        <time>2021-10-17T09:44:11Z</time>
      </trkpt>
      <trkpt lat="46.32372" lon="5.81751">
        <ele>867.2</ele>
        <time>2021-10-17T09:44:12Z</time>
      </trkpt>
      <trkpt lat="46.32369" lon="5.81748">
        <ele>867.6</ele>
        <time>2021-10-17T09:44:13Z</time>
      </trkpt>
      <trkpt lat="46.32367" lon="5.81745">
        <ele>867.6</ele>
        <time>2021-10-17T09:44:14Z</time>
      </trkpt>
      <trkpt lat="46.32364" lon="5.81743">
        <ele>867.8</ele>
        <time>2021-10-17T09:44:15Z</time>
      </trkpt>
      <trkpt lat="46.32362" lon="5.8174">
        <ele>868</ele>
        <time>2021-10-17T09:44:16Z</time>
      </trkpt>
      <trkpt lat="46.32359" lon="5.81737">
        <ele>868.2</ele>
        <time>2021-10-17T09:44:17Z</time>
      </trkpt>
      <trkpt lat="46.32357" lon="5.81734">
        <ele>868.4</ele>
        <time>2021-10-17T09:44:18Z</time>
      </trkpt>
      <trkpt lat="46.32354" lon="5.81732">
        <ele>868.6</ele>
        <time>2021-10-17T09:44:19Z</time>
      </trkpt>
      <trkpt lat="46.32351" lon="5.8173">
        <ele>869</ele>
        <time>2021-10-17T09:44:20Z</time>
      </trkpt>
      <trkpt lat="46.32349" lon="5.81728">
        <ele>869.2</ele>
        <time>2021-10-17T09:44:21Z</time>
      </trkpt>
      <trkpt lat="46.32346" lon="5.81727">
        <ele>869.2</ele>
        <time>2021-10-17T09:44:22Z</time>
      </trkpt>
      <trkpt lat="46.32343" lon="5.81725">
        <ele>869.4</ele>
        <time>2021-10-17T09:44:23Z</time>
      </trkpt>
      <trkpt lat="46.3234" lon="5.81724">
        <ele>869.4</ele>
        <time>2021-10-17T09:44:24Z</time>
      </trkpt>
      <trkpt lat="46.32337" lon="5.81723">
        <ele>870</ele>
        <time>2021-10-17T09:44:25Z</time>
      </trkpt>
      <trkpt lat="46.32335" lon="5.81722">
        <ele>870</ele>
        <time>2021-10-17T09:44:26Z</time>
      </trkpt>
      <trkpt lat="46.3233" lon="5.81721">
        <ele>870.2</ele>
        <time>2021-10-17T09:44:27Z</time>
      </trkpt>
      <trkpt lat="46.32329" lon="5.81721">
        <ele>870.2</ele>
        <time>2021-10-17T09:44:28Z</time>
      </trkpt>
      <trkpt lat="46.32326" lon="5.8172">
        <ele>870.6</ele>
        <time>2021-10-17T09:44:29Z</time>
      </trkpt>
      <trkpt lat="46.32323" lon="5.81719">
        <ele>870.6</ele>
        <time>2021-10-17T09:44:30Z</time>
      </trkpt>
      <trkpt lat="46.3232" lon="5.81719">
        <ele>870.8</ele>
        <time>2021-10-17T09:44:31Z</time>
      </trkpt>
      <trkpt lat="46.32317" lon="5.81718">
        <ele>870.8</ele>
        <time>2021-10-17T09:44:32Z</time>
      </trkpt>
      <trkpt lat="46.32314" lon="5.81718">
        <ele>871.2</ele>
        <time>2021-10-17T09:44:33Z</time>
      </trkpt>
      <trkpt lat="46.32311" lon="5.81718">
        <ele>871.2</ele>
        <time>2021-10-17T09:44:34Z</time>
      </trkpt>
      <trkpt lat="46.32308" lon="5.81717">
        <ele>871.4</ele>
        <time>2021-10-17T09:44:35Z</time>
      </trkpt>
      <trkpt lat="46.32305" lon="5.81717">
        <ele>871.4</ele>
        <time>2021-10-17T09:44:36Z</time>
      </trkpt>
      <trkpt lat="46.32302" lon="5.81716">
        <ele>871.6</ele>
        <time>2021-10-17T09:44:37Z</time>
      </trkpt>
      <trkpt lat="46.32298" lon="5.81716">
        <ele>871.6</ele>
        <time>2021-10-17T09:44:38Z</time>
      </trkpt>
      <trkpt lat="46.32295" lon="5.81715">
        <ele>872</ele>
        <time>2021-10-17T09:44:39Z</time>
      </trkpt>
      <trkpt lat="46.32292" lon="5.81715">
        <ele>872.2</ele>
        <time>2021-10-17T09:44:40Z</time>
      </trkpt>
      <trkpt lat="46.32288" lon="5.81714">
        <ele>872.2</ele>
        <time>2021-10-17T09:44:41Z</time>
      </trkpt>
      <trkpt lat="46.32285" lon="5.81714">
        <ele>872.6</ele>
        <time>2021-10-17T09:44:42Z</time>
      </trkpt>
      <trkpt lat="46.32282" lon="5.81713">
        <ele>872.6</ele>
        <time>2021-10-17T09:44:43Z</time>
      </trkpt>
      <trkpt lat="46.32279" lon="5.81712">
        <ele>872.8</ele>
        <time>2021-10-17T09:44:44Z</time>
      </trkpt>
      <trkpt lat="46.32275" lon="5.81712">
        <ele>872.8</ele>
        <time>2021-10-17T09:44:45Z</time>
      </trkpt>
      <trkpt lat="46.32272" lon="5.81711">
        <ele>873</ele>
        <time>2021-10-17T09:44:46Z</time>
      </trkpt>
      <trkpt lat="46.32268" lon="5.81711">
        <ele>873</ele>
        <time>2021-10-17T09:44:47Z</time>
      </trkpt>
      <trkpt lat="46.32264" lon="5.81711">
        <ele>873.4</ele>
        <time>2021-10-17T09:44:48Z</time>
      </trkpt>
      <trkpt lat="46.32261" lon="5.81711">
        <ele>873.4</ele>
        <time>2021-10-17T09:44:49Z</time>
      </trkpt>
      <trkpt lat="46.32257" lon="5.81711">
        <ele>873.6</ele>
        <time>2021-10-17T09:44:50Z</time>
      </trkpt>
      <trkpt lat="46.32253" lon="5.81711">
        <ele>873.6</ele>
        <time>2021-10-17T09:44:51Z</time>
      </trkpt>
      <trkpt lat="46.32249" lon="5.81711">
        <ele>873.6</ele>
        <time>2021-10-17T09:44:52Z</time>
      </trkpt>
      <trkpt lat="46.32245" lon="5.8171">
        <ele>874</ele>
        <time>2021-10-17T09:44:53Z</time>
      </trkpt>
      <trkpt lat="46.32241" lon="5.81711">
        <ele>874</ele>
        <time>2021-10-17T09:44:54Z</time>
      </trkpt>
      <trkpt lat="46.32237" lon="5.81711">
        <ele>874</ele>
        <time>2021-10-17T09:44:55Z</time>
      </trkpt>
      <trkpt lat="46.32233" lon="5.81711">
        <ele>874.4</ele>
        <time>2021-10-17T09:44:56Z</time>
      </trkpt>
      <trkpt lat="46.32229" lon="5.81711">
        <ele>874.4</ele>
        <time>2021-10-17T09:44:57Z</time>
      </trkpt>
      <trkpt lat="46.32225" lon="5.81711">
        <ele>874.4</ele>
        <time>2021-10-17T09:44:58Z</time>
      </trkpt>
      <trkpt lat="46.3222" lon="5.81712">
        <ele>874.6</ele>
        <time>2021-10-17T09:44:59Z</time>
      </trkpt>
      <trkpt lat="46.32216" lon="5.81713">
        <ele>874.6</ele>
        <time>2021-10-17T09:45:00Z</time>
      </trkpt>
      <trkpt lat="46.32212" lon="5.81714">
        <ele>874.6</ele>
        <time>2021-10-17T09:45:01Z</time>
      </trkpt>
      <trkpt lat="46.32207" lon="5.81715">
        <ele>874.6</ele>
        <time>2021-10-17T09:45:02Z</time>
      </trkpt>
      <trkpt lat="46.32203" lon="5.81716">
        <ele>874.8</ele>
        <time>2021-10-17T09:45:03Z</time>
      </trkpt>
      <trkpt lat="46.32198" lon="5.81716">
        <ele>874.8</ele>
        <time>2021-10-17T09:45:04Z</time>
      </trkpt>
      <trkpt lat="46.32194" lon="5.81717">
        <ele>875</ele>
        <time>2021-10-17T09:45:05Z</time>
      </trkpt>
      <trkpt lat="46.32189" lon="5.81718">
        <ele>875</ele>
        <time>2021-10-17T09:45:06Z</time>
      </trkpt>
      <trkpt lat="46.32185" lon="5.81719">
        <ele>875.2</ele>
        <time>2021-10-17T09:45:07Z</time>
      </trkpt>
      <trkpt lat="46.3218" lon="5.8172">
        <ele>875.2</ele>
        <time>2021-10-17T09:45:08Z</time>
      </trkpt>
      <trkpt lat="46.32176" lon="5.81722">
        <ele>875.6</ele>
        <time>2021-10-17T09:45:09Z</time>
      </trkpt>
      <trkpt lat="46.32172" lon="5.81724">
        <ele>875.6</ele>
        <time>2021-10-17T09:45:10Z</time>
      </trkpt>
      <trkpt lat="46.32167" lon="5.81725">
        <ele>875.8</ele>
        <time>2021-10-17T09:45:11Z</time>
      </trkpt>
      <trkpt lat="46.32162" lon="5.81728">
        <ele>875.8</ele>
        <time>2021-10-17T09:45:12Z</time>
      </trkpt>
      <trkpt lat="46.32158" lon="5.8173">
        <ele>875.8</ele>
        <time>2021-10-17T09:45:13Z</time>
      </trkpt>
      <trkpt lat="46.32153" lon="5.81732">
        <ele>875.8</ele>
        <time>2021-10-17T09:45:14Z</time>
      </trkpt>
      <trkpt lat="46.32149" lon="5.81734">
        <ele>876.2</ele>
        <time>2021-10-17T09:45:15Z</time>
      </trkpt>
      <trkpt lat="46.32144" lon="5.81734">
        <ele>876.2</ele>
        <time>2021-10-17T09:45:16Z</time>
      </trkpt>
      <trkpt lat="46.32139" lon="5.81735">
        <ele>876.2</ele>
        <time>2021-10-17T09:45:17Z</time>
      </trkpt>
      <trkpt lat="46.32134" lon="5.81736">
        <ele>876.4</ele>
        <time>2021-10-17T09:45:18Z</time>
      </trkpt>
      <trkpt lat="46.3213" lon="5.81736">
        <ele>876.4</ele>
        <time>2021-10-17T09:45:19Z</time>
      </trkpt>
      <trkpt lat="46.32125" lon="5.81738">
        <ele>876.4</ele>
        <time>2021-10-17T09:45:20Z</time>
      </trkpt>
      <trkpt lat="46.3212" lon="5.81739">
        <ele>876.6</ele>
        <time>2021-10-17T09:45:21Z</time>
      </trkpt>
      <trkpt lat="46.32116" lon="5.81739">
        <ele>876.6</ele>
        <time>2021-10-17T09:45:22Z</time>
      </trkpt>
      <trkpt lat="46.32111" lon="5.81739">
        <ele>876.6</ele>
        <time>2021-10-17T09:45:23Z</time>
      </trkpt>
      <trkpt lat="46.32106" lon="5.81738">
        <ele>876.8</ele>
        <time>2021-10-17T09:45:24Z</time>
      </trkpt>
      <trkpt lat="46.32102" lon="5.81737">
        <ele>876.8</ele>
        <time>2021-10-17T09:45:25Z</time>
      </trkpt>
      <trkpt lat="46.32097" lon="5.81736">
        <ele>876.8</ele>
        <time>2021-10-17T09:45:26Z</time>
      </trkpt>
      <trkpt lat="46.32092" lon="5.81735">
        <ele>876.8</ele>
        <time>2021-10-17T09:45:27Z</time>
      </trkpt>
      <trkpt lat="46.32088" lon="5.81734">
        <ele>876.8</ele>
        <time>2021-10-17T09:45:28Z</time>
      </trkpt>
      <trkpt lat="46.32083" lon="5.81732">
        <ele>877</ele>
        <time>2021-10-17T09:45:29Z</time>
      </trkpt>
      <trkpt lat="46.32078" lon="5.8173">
        <ele>877</ele>
        <time>2021-10-17T09:45:30Z</time>
      </trkpt>
      <trkpt lat="46.32074" lon="5.81727">
        <ele>877</ele>
        <time>2021-10-17T09:45:31Z</time>
      </trkpt>
      <trkpt lat="46.32069" lon="5.81725">
        <ele>877.4</ele>
        <time>2021-10-17T09:45:32Z</time>
      </trkpt>
      <trkpt lat="46.32064" lon="5.81722">
        <ele>877.4</ele>
        <time>2021-10-17T09:45:33Z</time>
      </trkpt>
      <trkpt lat="46.3206" lon="5.8172">
        <ele>877.4</ele>
        <time>2021-10-17T09:45:34Z</time>
      </trkpt>
      <trkpt lat="46.32055" lon="5.81717">
        <ele>877.6</ele>
        <time>2021-10-17T09:45:35Z</time>
      </trkpt>
      <trkpt lat="46.3205" lon="5.81714">
        <ele>877.6</ele>
        <time>2021-10-17T09:45:36Z</time>
      </trkpt>
      <trkpt lat="46.32046" lon="5.81711">
        <ele>877.6</ele>
        <time>2021-10-17T09:45:37Z</time>
      </trkpt>
      <trkpt lat="46.32041" lon="5.81707">
        <ele>877.6</ele>
        <time>2021-10-17T09:45:38Z</time>
      </trkpt>
      <trkpt lat="46.32037" lon="5.81704">
        <ele>877.6</ele>
        <time>2021-10-17T09:45:39Z</time>
      </trkpt>
      <trkpt lat="46.32032" lon="5.81701">
        <ele>877.8</ele>
        <time>2021-10-17T09:45:40Z</time>
      </trkpt>
      <trkpt lat="46.32028" lon="5.81698">
        <ele>877.8</ele>
        <time>2021-10-17T09:45:41Z</time>
      </trkpt>
      <trkpt lat="46.32023" lon="5.81695">
        <ele>877.8</ele>
        <time>2021-10-17T09:45:42Z</time>
      </trkpt>
      <trkpt lat="46.32019" lon="5.81691">
        <ele>878</ele>
        <time>2021-10-17T09:45:43Z</time>
      </trkpt>
      <trkpt lat="46.32014" lon="5.81688">
        <ele>878</ele>
        <time>2021-10-17T09:45:44Z</time>
      </trkpt>
      <trkpt lat="46.3201" lon="5.81685">
        <ele>878</ele>
        <time>2021-10-17T09:45:45Z</time>
      </trkpt>
      <trkpt lat="46.32005" lon="5.81681">
        <ele>878</ele>
        <time>2021-10-17T09:45:46Z</time>
      </trkpt>
      <trkpt lat="46.32001" lon="5.81677">
        <ele>878.2</ele>
        <time>2021-10-17T09:45:47Z</time>
      </trkpt>
      <trkpt lat="46.31997" lon="5.81674">
        <ele>878.2</ele>
        <time>2021-10-17T09:45:48Z</time>
      </trkpt>
      <trkpt lat="46.31992" lon="5.8167">
        <ele>878.2</ele>
        <time>2021-10-17T09:45:49Z</time>
      </trkpt>
      <trkpt lat="46.31988" lon="5.81666">
        <ele>878.6</ele>
        <time>2021-10-17T09:45:50Z</time>
      </trkpt>
      <trkpt lat="46.31984" lon="5.81662">
        <ele>878.6</ele>
        <time>2021-10-17T09:45:51Z</time>
      </trkpt>
      <trkpt lat="46.31979" lon="5.81658">
        <ele>878.6</ele>
        <time>2021-10-17T09:45:52Z</time>
      </trkpt>
      <trkpt lat="46.31974" lon="5.81654">
        <ele>878.6</ele>
        <time>2021-10-17T09:45:53Z</time>
      </trkpt>
      <trkpt lat="46.31969" lon="5.81651">
        <ele>878.8</ele>
        <time>2021-10-17T09:45:54Z</time>
      </trkpt>
      <trkpt lat="46.31964" lon="5.81648">
        <ele>878.8</ele>
        <time>2021-10-17T09:45:55Z</time>
      </trkpt>
      <trkpt lat="46.31959" lon="5.81645">
        <ele>878.8</ele>
        <time>2021-10-17T09:45:56Z</time>
      </trkpt>
      <trkpt lat="46.31953" lon="5.81643">
        <ele>878.8</ele>
        <time>2021-10-17T09:45:57Z</time>
      </trkpt>
      <trkpt lat="46.31948" lon="5.8164">
        <ele>878.8</ele>
        <time>2021-10-17T09:45:58Z</time>
      </trkpt>
      <trkpt lat="46.31943" lon="5.81638">
        <ele>879</ele>
        <time>2021-10-17T09:45:59Z</time>
      </trkpt>
      <trkpt lat="46.31937" lon="5.81637">
        <ele>879</ele>
        <time>2021-10-17T09:46:00Z</time>
      </trkpt>
      <trkpt lat="46.31932" lon="5.81636">
        <ele>879</ele>
        <time>2021-10-17T09:46:01Z</time>
      </trkpt>
      <trkpt lat="46.31927" lon="5.81635">
        <ele>879</ele>
        <time>2021-10-17T09:46:02Z</time>
      </trkpt>
      <trkpt lat="46.31922" lon="5.81634">
        <ele>879.2</ele>
        <time>2021-10-17T09:46:03Z</time>
      </trkpt>
      <trkpt lat="46.31916" lon="5.81634">
        <ele>879.2</ele>
        <time>2021-10-17T09:46:04Z</time>
      </trkpt>
      <trkpt lat="46.31911" lon="5.81633">
        <ele>879.2</ele>
        <time>2021-10-17T09:46:05Z</time>
      </trkpt>
      <trkpt lat="46.31905" lon="5.81632">
        <ele>879.2</ele>
        <time>2021-10-17T09:46:06Z</time>
      </trkpt>
      <trkpt lat="46.31899" lon="5.81631">
        <ele>879.2</ele>
        <time>2021-10-17T09:46:07Z</time>
      </trkpt>
      <trkpt lat="46.31893" lon="5.81629">
        <ele>879.2</ele>
        <time>2021-10-17T09:46:08Z</time>
      </trkpt>
      <trkpt lat="46.31887" lon="5.81628">
        <ele>879.2</ele>
        <time>2021-10-17T09:46:09Z</time>
      </trkpt>
      <trkpt lat="46.31882" lon="5.81626">
        <ele>879.2</ele>
        <time>2021-10-17T09:46:10Z</time>
      </trkpt>
      <trkpt lat="46.31876" lon="5.81624">
        <ele>879.2</ele>
        <time>2021-10-17T09:46:11Z</time>
      </trkpt>
      <trkpt lat="46.3187" lon="5.81622">
        <ele>879.2</ele>
        <time>2021-10-17T09:46:12Z</time>
      </trkpt>
      <trkpt lat="46.31864" lon="5.8162">
        <ele>879.2</ele>
        <time>2021-10-17T09:46:13Z</time>
      </trkpt>
      <trkpt lat="46.31858" lon="5.81619">
        <ele>879.2</ele>
        <time>2021-10-17T09:46:14Z</time>
      </trkpt>
      <trkpt lat="46.31852" lon="5.81617">
        <ele>879.2</ele>
        <time>2021-10-17T09:46:15Z</time>
      </trkpt>
      <trkpt lat="46.31845" lon="5.81615">
        <ele>879.2</ele>
        <time>2021-10-17T09:46:16Z</time>
      </trkpt>
      <trkpt lat="46.31839" lon="5.81613">
        <ele>879.4</ele>
        <time>2021-10-17T09:46:17Z</time>
      </trkpt>
      <trkpt lat="46.31833" lon="5.81612">
        <ele>879.4</ele>
        <time>2021-10-17T09:46:18Z</time>
      </trkpt>
      <trkpt lat="46.31827" lon="5.8161">
        <ele>879.4</ele>
        <time>2021-10-17T09:46:19Z</time>
      </trkpt>
      <trkpt lat="46.31821" lon="5.81608">
        <ele>879.4</ele>
        <time>2021-10-17T09:46:20Z</time>
      </trkpt>
      <trkpt lat="46.31815" lon="5.81607">
        <ele>879.4</ele>
        <time>2021-10-17T09:46:21Z</time>
      </trkpt>
      <trkpt lat="46.31803" lon="5.81605">
        <ele>879.4</ele>
        <time>2021-10-17T09:46:22Z</time>
      </trkpt>
      <trkpt lat="46.31796" lon="5.81604">
        <ele>879.4</ele>
        <time>2021-10-17T09:46:23Z</time>
      </trkpt>
      <trkpt lat="46.3179" lon="5.81604">
        <ele>879.4</ele>
        <time>2021-10-17T09:46:24Z</time>
      </trkpt>
      <trkpt lat="46.31784" lon="5.81604">
        <ele>879.4</ele>
        <time>2021-10-17T09:46:25Z</time>
      </trkpt>
      <trkpt lat="46.31778" lon="5.81605">
        <ele>879.4</ele>
        <time>2021-10-17T09:46:26Z</time>
      </trkpt>
      <trkpt lat="46.31773" lon="5.81605">
        <ele>879.4</ele>
        <time>2021-10-17T09:46:27Z</time>
      </trkpt>
      <trkpt lat="46.31767" lon="5.81606">
        <ele>879.4</ele>
        <time>2021-10-17T09:46:28Z</time>
      </trkpt>
      <trkpt lat="46.31762" lon="5.81606">
        <ele>879.4</ele>
        <time>2021-10-17T09:46:29Z</time>
      </trkpt>
      <trkpt lat="46.31756" lon="5.81606">
        <ele>879.4</ele>
        <time>2021-10-17T09:46:30Z</time>
      </trkpt>
      <trkpt lat="46.3175" lon="5.81607">
        <ele>879.4</ele>
        <time>2021-10-17T09:46:31Z</time>
      </trkpt>
      <trkpt lat="46.31744" lon="5.81608">
        <ele>879.4</ele>
        <time>2021-10-17T09:46:32Z</time>
      </trkpt>
      <trkpt lat="46.31739" lon="5.81608">
        <ele>879.4</ele>
        <time>2021-10-17T09:46:33Z</time>
      </trkpt>
      <trkpt lat="46.31732" lon="5.81609">
        <ele>879.4</ele>
        <time>2021-10-17T09:46:34Z</time>
      </trkpt>
      <trkpt lat="46.31726" lon="5.8161">
        <ele>879.4</ele>
        <time>2021-10-17T09:46:35Z</time>
      </trkpt>
      <trkpt lat="46.3172" lon="5.81611">
        <ele>879.4</ele>
        <time>2021-10-17T09:46:36Z</time>
      </trkpt>
      <trkpt lat="46.31714" lon="5.81611">
        <ele>879.6</ele>
        <time>2021-10-17T09:46:37Z</time>
      </trkpt>
      <trkpt lat="46.31708" lon="5.81612">
        <ele>879.6</ele>
        <time>2021-10-17T09:46:38Z</time>
      </trkpt>
      <trkpt lat="46.31701" lon="5.81611">
        <ele>879.6</ele>
        <time>2021-10-17T09:46:39Z</time>
      </trkpt>
      <trkpt lat="46.31695" lon="5.81611">
        <ele>879.6</ele>
        <time>2021-10-17T09:46:40Z</time>
      </trkpt>
      <trkpt lat="46.31689" lon="5.81611">
        <ele>879.6</ele>
        <time>2021-10-17T09:46:41Z</time>
      </trkpt>
      <trkpt lat="46.31683" lon="5.8161">
        <ele>879.6</ele>
        <time>2021-10-17T09:46:42Z</time>
      </trkpt>
      <trkpt lat="46.31676" lon="5.81607">
        <ele>879.6</ele>
        <time>2021-10-17T09:46:43Z</time>
      </trkpt>
      <trkpt lat="46.3167" lon="5.81603">
        <ele>879.6</ele>
        <time>2021-10-17T09:46:44Z</time>
      </trkpt>
      <trkpt lat="46.31665" lon="5.81597">
        <ele>879.6</ele>
        <time>2021-10-17T09:46:45Z</time>
      </trkpt>
      <trkpt lat="46.3166" lon="5.81591">
        <ele>879.6</ele>
        <time>2021-10-17T09:46:46Z</time>
      </trkpt>
      <trkpt lat="46.31655" lon="5.81584">
        <ele>879.6</ele>
        <time>2021-10-17T09:46:47Z</time>
      </trkpt>
      <trkpt lat="46.31651" lon="5.81577">
        <ele>879.6</ele>
        <time>2021-10-17T09:46:48Z</time>
      </trkpt>
      <trkpt lat="46.31647" lon="5.81569">
        <ele>879.6</ele>
        <time>2021-10-17T09:46:49Z</time>
      </trkpt>
      <trkpt lat="46.31642" lon="5.81562">
        <ele>879.6</ele>
        <time>2021-10-17T09:46:50Z</time>
      </trkpt>
      <trkpt lat="46.31637" lon="5.81555">
        <ele>879.4</ele>
        <time>2021-10-17T09:46:51Z</time>
      </trkpt>
      <trkpt lat="46.31632" lon="5.81549">
        <ele>879.4</ele>
        <time>2021-10-17T09:46:52Z</time>
      </trkpt>
      <trkpt lat="46.31625" lon="5.81545">
        <ele>879.4</ele>
        <time>2021-10-17T09:46:53Z</time>
      </trkpt>
      <trkpt lat="46.31619" lon="5.81542">
        <ele>879.4</ele>
        <time>2021-10-17T09:46:54Z</time>
      </trkpt>
      <trkpt lat="46.31612" lon="5.81541">
        <ele>879.4</ele>
        <time>2021-10-17T09:46:55Z</time>
      </trkpt>
      <trkpt lat="46.31606" lon="5.8154">
        <ele>879.4</ele>
        <time>2021-10-17T09:46:56Z</time>
      </trkpt>
      <trkpt lat="46.31599" lon="5.81541">
        <ele>879.4</ele>
        <time>2021-10-17T09:46:57Z</time>
      </trkpt>
      <trkpt lat="46.31594" lon="5.81543">
        <ele>879.4</ele>
        <time>2021-10-17T09:46:58Z</time>
      </trkpt>
      <trkpt lat="46.31588" lon="5.81544">
        <ele>879.6</ele>
        <time>2021-10-17T09:46:59Z</time>
      </trkpt>
      <trkpt lat="46.31582" lon="5.81545">
        <ele>879.6</ele>
        <time>2021-10-17T09:47:00Z</time>
      </trkpt>
      <trkpt lat="46.31577" lon="5.81546">
        <ele>880</ele>
        <time>2021-10-17T09:47:01Z</time>
      </trkpt>
      <trkpt lat="46.31572" lon="5.81546">
        <ele>880</ele>
        <time>2021-10-17T09:47:02Z</time>
      </trkpt>
      <trkpt lat="46.31567" lon="5.81546">
        <ele>880.4</ele>
        <time>2021-10-17T09:47:03Z</time>
      </trkpt>
      <trkpt lat="46.31562" lon="5.81546">
        <ele>880.4</ele>
        <time>2021-10-17T09:47:04Z</time>
      </trkpt>
      <trkpt lat="46.31558" lon="5.81545">
        <ele>880.8</ele>
        <time>2021-10-17T09:47:05Z</time>
      </trkpt>
      <trkpt lat="46.31554" lon="5.81543">
        <ele>881.2</ele>
        <time>2021-10-17T09:47:06Z</time>
      </trkpt>
      <trkpt lat="46.3155" lon="5.81541">
        <ele>881.4</ele>
        <time>2021-10-17T09:47:07Z</time>
      </trkpt>
      <trkpt lat="46.31547" lon="5.81539">
        <ele>881.4</ele>
        <time>2021-10-17T09:47:08Z</time>
      </trkpt>
      <trkpt lat="46.31544" lon="5.81537">
        <ele>881.8</ele>
        <time>2021-10-17T09:47:09Z</time>
      </trkpt>
      <trkpt lat="46.3154" lon="5.81535">
        <ele>882</ele>
        <time>2021-10-17T09:47:10Z</time>
      </trkpt>
      <trkpt lat="46.31537" lon="5.81532">
        <ele>882.2</ele>
        <time>2021-10-17T09:47:11Z</time>
      </trkpt>
      <trkpt lat="46.31534" lon="5.8153">
        <ele>882.2</ele>
        <time>2021-10-17T09:47:12Z</time>
      </trkpt>
      <trkpt lat="46.31531" lon="5.81527">
        <ele>882.6</ele>
        <time>2021-10-17T09:47:13Z</time>
      </trkpt>
      <trkpt lat="46.31528" lon="5.81525">
        <ele>882.6</ele>
        <time>2021-10-17T09:47:14Z</time>
      </trkpt>
      <trkpt lat="46.31525" lon="5.81523">
        <ele>882.8</ele>
        <time>2021-10-17T09:47:15Z</time>
      </trkpt>
      <trkpt lat="46.31522" lon="5.81521">
        <ele>882.8</ele>
        <time>2021-10-17T09:47:16Z</time>
      </trkpt>
      <trkpt lat="46.31518" lon="5.8152">
        <ele>883.2</ele>
        <time>2021-10-17T09:47:17Z</time>
      </trkpt>
      <trkpt lat="46.31515" lon="5.81519">
        <ele>883.2</ele>
        <time>2021-10-17T09:47:18Z</time>
      </trkpt>
      <trkpt lat="46.31512" lon="5.81518">
        <ele>883.6</ele>
        <time>2021-10-17T09:47:19Z</time>
      </trkpt>
      <trkpt lat="46.31508" lon="5.81517">
        <ele>883.8</ele>
        <time>2021-10-17T09:47:20Z</time>
      </trkpt>
      <trkpt lat="46.31505" lon="5.81516">
        <ele>883.8</ele>
        <time>2021-10-17T09:47:21Z</time>
      </trkpt>
      <trkpt lat="46.31501" lon="5.81515">
        <ele>884.2</ele>
        <time>2021-10-17T09:47:22Z</time>
      </trkpt>
      <trkpt lat="46.31498" lon="5.81514">
        <ele>884.2</ele>
        <time>2021-10-17T09:47:23Z</time>
      </trkpt>
      <trkpt lat="46.31494" lon="5.81514">
        <ele>884.6</ele>
        <time>2021-10-17T09:47:24Z</time>
      </trkpt>
      <trkpt lat="46.3149" lon="5.81514">
        <ele>884.6</ele>
        <time>2021-10-17T09:47:25Z</time>
      </trkpt>
      <trkpt lat="46.31487" lon="5.81513">
        <ele>884.8</ele>
        <time>2021-10-17T09:47:26Z</time>
      </trkpt>
      <trkpt lat="46.31483" lon="5.81513">
        <ele>885.2</ele>
        <time>2021-10-17T09:47:27Z</time>
      </trkpt>
      <trkpt lat="46.3148" lon="5.81514">
        <ele>885.2</ele>
        <time>2021-10-17T09:47:28Z</time>
      </trkpt>
      <trkpt lat="46.31476" lon="5.81514">
        <ele>885.6</ele>
        <time>2021-10-17T09:47:29Z</time>
      </trkpt>
      <trkpt lat="46.31473" lon="5.81514">
        <ele>885.6</ele>
        <time>2021-10-17T09:47:30Z</time>
      </trkpt>
      <trkpt lat="46.31469" lon="5.81514">
        <ele>885.8</ele>
        <time>2021-10-17T09:47:31Z</time>
      </trkpt>
      <trkpt lat="46.31466" lon="5.81514">
        <ele>886</ele>
        <time>2021-10-17T09:47:32Z</time>
      </trkpt>
      <trkpt lat="46.31463" lon="5.81513">
        <ele>886.4</ele>
        <time>2021-10-17T09:47:33Z</time>
      </trkpt>
      <trkpt lat="46.31459" lon="5.81512">
        <ele>886.6</ele>
        <time>2021-10-17T09:47:34Z</time>
      </trkpt>
      <trkpt lat="46.31456" lon="5.81512">
        <ele>886.6</ele>
        <time>2021-10-17T09:47:35Z</time>
      </trkpt>
      <trkpt lat="46.31452" lon="5.81512">
        <ele>887</ele>
        <time>2021-10-17T09:47:36Z</time>
      </trkpt>
      <trkpt lat="46.31449" lon="5.81512">
        <ele>887.2</ele>
        <time>2021-10-17T09:47:37Z</time>
      </trkpt>
      <trkpt lat="46.31445" lon="5.81512">
        <ele>887.4</ele>
        <time>2021-10-17T09:47:38Z</time>
      </trkpt>
      <trkpt lat="46.31442" lon="5.81513">
        <ele>887.6</ele>
        <time>2021-10-17T09:47:39Z</time>
      </trkpt>
      <trkpt lat="46.31438" lon="5.81514">
        <ele>888</ele>
        <time>2021-10-17T09:47:40Z</time>
      </trkpt>
      <trkpt lat="46.31435" lon="5.81514">
        <ele>888.2</ele>
        <time>2021-10-17T09:47:41Z</time>
      </trkpt>
      <trkpt lat="46.31432" lon="5.81515">
        <ele>888.4</ele>
        <time>2021-10-17T09:47:42Z</time>
      </trkpt>
      <trkpt lat="46.31429" lon="5.81517">
        <ele>888.4</ele>
        <time>2021-10-17T09:47:43Z</time>
      </trkpt>
      <trkpt lat="46.31425" lon="5.81518">
        <ele>888.8</ele>
        <time>2021-10-17T09:47:44Z</time>
      </trkpt>
      <trkpt lat="46.31422" lon="5.81519">
        <ele>888.8</ele>
        <time>2021-10-17T09:47:45Z</time>
      </trkpt>
      <trkpt lat="46.31419" lon="5.8152">
        <ele>889.2</ele>
        <time>2021-10-17T09:47:46Z</time>
      </trkpt>
      <trkpt lat="46.31415" lon="5.81522">
        <ele>889.2</ele>
        <time>2021-10-17T09:47:47Z</time>
      </trkpt>
      <trkpt lat="46.31412" lon="5.81524">
        <ele>889.6</ele>
        <time>2021-10-17T09:47:48Z</time>
      </trkpt>
      <trkpt lat="46.31409" lon="5.81525">
        <ele>889.6</ele>
        <time>2021-10-17T09:47:49Z</time>
      </trkpt>
      <trkpt lat="46.31406" lon="5.81526">
        <ele>889.8</ele>
        <time>2021-10-17T09:47:50Z</time>
      </trkpt>
      <trkpt lat="46.31402" lon="5.81527">
        <ele>890</ele>
        <time>2021-10-17T09:47:51Z</time>
      </trkpt>
      <trkpt lat="46.31399" lon="5.81528">
        <ele>890</ele>
        <time>2021-10-17T09:47:52Z</time>
      </trkpt>
      <trkpt lat="46.31396" lon="5.81529">
        <ele>890.4</ele>
        <time>2021-10-17T09:47:53Z</time>
      </trkpt>
      <trkpt lat="46.31393" lon="5.8153">
        <ele>890.4</ele>
        <time>2021-10-17T09:47:54Z</time>
      </trkpt>
      <trkpt lat="46.31389" lon="5.81531">
        <ele>890.6</ele>
        <time>2021-10-17T09:47:55Z</time>
      </trkpt>
      <trkpt lat="46.31386" lon="5.81532">
        <ele>890.6</ele>
        <time>2021-10-17T09:47:56Z</time>
      </trkpt>
      <trkpt lat="46.31383" lon="5.81533">
        <ele>891</ele>
        <time>2021-10-17T09:47:57Z</time>
      </trkpt>
      <trkpt lat="46.3138" lon="5.81533">
        <ele>891.2</ele>
        <time>2021-10-17T09:47:58Z</time>
      </trkpt>
      <trkpt lat="46.31377" lon="5.81534">
        <ele>891.2</ele>
        <time>2021-10-17T09:47:59Z</time>
      </trkpt>
      <trkpt lat="46.31374" lon="5.81534">
        <ele>891.4</ele>
        <time>2021-10-17T09:48:00Z</time>
      </trkpt>
      <trkpt lat="46.31372" lon="5.81534">
        <ele>891.4</ele>
        <time>2021-10-17T09:48:01Z</time>
      </trkpt>
      <trkpt lat="46.31369" lon="5.81535">
        <ele>891.4</ele>
        <time>2021-10-17T09:48:02Z</time>
      </trkpt>
      <trkpt lat="46.31366" lon="5.81536">
        <ele>891.8</ele>
        <time>2021-10-17T09:48:03Z</time>
      </trkpt>
      <trkpt lat="46.31364" lon="5.81537">
        <ele>891.8</ele>
        <time>2021-10-17T09:48:04Z</time>
      </trkpt>
      <trkpt lat="46.31361" lon="5.81537">
        <ele>892.2</ele>
        <time>2021-10-17T09:48:05Z</time>
      </trkpt>
      <trkpt lat="46.31358" lon="5.81537">
        <ele>892.2</ele>
        <time>2021-10-17T09:48:06Z</time>
      </trkpt>
      <trkpt lat="46.31355" lon="5.81537">
        <ele>892.6</ele>
        <time>2021-10-17T09:48:07Z</time>
      </trkpt>
      <trkpt lat="46.31352" lon="5.81537">
        <ele>892.8</ele>
        <time>2021-10-17T09:48:08Z</time>
      </trkpt>
      <trkpt lat="46.31349" lon="5.81538">
        <ele>892.8</ele>
        <time>2021-10-17T09:48:09Z</time>
      </trkpt>
      <trkpt lat="46.31346" lon="5.81538">
        <ele>893.2</ele>
        <time>2021-10-17T09:48:10Z</time>
      </trkpt>
      <trkpt lat="46.31344" lon="5.81538">
        <ele>893.4</ele>
        <time>2021-10-17T09:48:11Z</time>
      </trkpt>
      <trkpt lat="46.31341" lon="5.81538">
        <ele>893.4</ele>
        <time>2021-10-17T09:48:12Z</time>
      </trkpt>
      <trkpt lat="46.31338" lon="5.81539">
        <ele>893.6</ele>
        <time>2021-10-17T09:48:13Z</time>
      </trkpt>
      <trkpt lat="46.31335" lon="5.81539">
        <ele>893.8</ele>
        <time>2021-10-17T09:48:14Z</time>
      </trkpt>
      <trkpt lat="46.31333" lon="5.8154">
        <ele>893.8</ele>
        <time>2021-10-17T09:48:15Z</time>
      </trkpt>
      <trkpt lat="46.3133" lon="5.8154">
        <ele>894</ele>
        <time>2021-10-17T09:48:16Z</time>
      </trkpt>
      <trkpt lat="46.31327" lon="5.81541">
        <ele>894</ele>
        <time>2021-10-17T09:48:17Z</time>
      </trkpt>
      <trkpt lat="46.31324" lon="5.81541">
        <ele>894.4</ele>
        <time>2021-10-17T09:48:18Z</time>
      </trkpt>
      <trkpt lat="46.31321" lon="5.81542">
        <ele>894.6</ele>
        <time>2021-10-17T09:48:19Z</time>
      </trkpt>
      <trkpt lat="46.31319" lon="5.81543">
        <ele>894.6</ele>
        <time>2021-10-17T09:48:20Z</time>
      </trkpt>
      <trkpt lat="46.31316" lon="5.81543">
        <ele>894.8</ele>
        <time>2021-10-17T09:48:21Z</time>
      </trkpt>
      <trkpt lat="46.31313" lon="5.81544">
        <ele>894.8</ele>
        <time>2021-10-17T09:48:22Z</time>
      </trkpt>
      <trkpt lat="46.3131" lon="5.81546">
        <ele>895.2</ele>
        <time>2021-10-17T09:48:23Z</time>
      </trkpt>
      <trkpt lat="46.31308" lon="5.81547">
        <ele>895.2</ele>
        <time>2021-10-17T09:48:24Z</time>
      </trkpt>
      <trkpt lat="46.31305" lon="5.81549">
        <ele>895.4</ele>
        <time>2021-10-17T09:48:25Z</time>
      </trkpt>
      <trkpt lat="46.31303" lon="5.81551">
        <ele>895.4</ele>
        <time>2021-10-17T09:48:26Z</time>
      </trkpt>
      <trkpt lat="46.31301" lon="5.81554">
        <ele>895.8</ele>
        <time>2021-10-17T09:48:27Z</time>
      </trkpt>
      <trkpt lat="46.31299" lon="5.81555">
        <ele>895.8</ele>
        <time>2021-10-17T09:48:28Z</time>
      </trkpt>
      <trkpt lat="46.31297" lon="5.81558">
        <ele>896</ele>
        <time>2021-10-17T09:48:29Z</time>
      </trkpt>
      <trkpt lat="46.31295" lon="5.8156">
        <ele>896</ele>
        <time>2021-10-17T09:48:30Z</time>
      </trkpt>
      <trkpt lat="46.31293" lon="5.81563">
        <ele>896.4</ele>
        <time>2021-10-17T09:48:31Z</time>
      </trkpt>
      <trkpt lat="46.31291" lon="5.81566">
        <ele>896.4</ele>
        <time>2021-10-17T09:48:32Z</time>
      </trkpt>
      <trkpt lat="46.31289" lon="5.81569">
        <ele>896.4</ele>
        <time>2021-10-17T09:48:33Z</time>
      </trkpt>
      <trkpt lat="46.31287" lon="5.81571">
        <ele>896.6</ele>
        <time>2021-10-17T09:48:34Z</time>
      </trkpt>
      <trkpt lat="46.31285" lon="5.81574">
        <ele>896.6</ele>
        <time>2021-10-17T09:48:35Z</time>
      </trkpt>
      <trkpt lat="46.31284" lon="5.81577">
        <ele>897</ele>
        <time>2021-10-17T09:48:36Z</time>
      </trkpt>
      <trkpt lat="46.31282" lon="5.81579">
        <ele>897</ele>
        <time>2021-10-17T09:48:37Z</time>
      </trkpt>
      <trkpt lat="46.3128" lon="5.81583">
        <ele>897.2</ele>
        <time>2021-10-17T09:48:38Z</time>
      </trkpt>
      <trkpt lat="46.31278" lon="5.81586">
        <ele>897.2</ele>
        <time>2021-10-17T09:48:39Z</time>
      </trkpt>
      <trkpt lat="46.31276" lon="5.81589">
        <ele>897.6</ele>
        <time>2021-10-17T09:48:40Z</time>
      </trkpt>
      <trkpt lat="46.31274" lon="5.81592">
        <ele>897.8</ele>
        <time>2021-10-17T09:48:41Z</time>
      </trkpt>
      <trkpt lat="46.31272" lon="5.81595">
        <ele>897.8</ele>
        <time>2021-10-17T09:48:42Z</time>
      </trkpt>
      <trkpt lat="46.3127" lon="5.81599">
        <ele>898</ele>
        <time>2021-10-17T09:48:43Z</time>
      </trkpt>
      <trkpt lat="46.31268" lon="5.81602">
        <ele>898</ele>
        <time>2021-10-17T09:48:44Z</time>
      </trkpt>
      <trkpt lat="46.31265" lon="5.81605">
        <ele>898.4</ele>
        <time>2021-10-17T09:48:45Z</time>
      </trkpt>
      <trkpt lat="46.31262" lon="5.81609">
        <ele>898.4</ele>
        <time>2021-10-17T09:48:46Z</time>
      </trkpt>
      <trkpt lat="46.31259" lon="5.81612">
        <ele>898.8</ele>
        <time>2021-10-17T09:48:47Z</time>
      </trkpt>
      <trkpt lat="46.31256" lon="5.81614">
        <ele>898.8</ele>
        <time>2021-10-17T09:48:48Z</time>
      </trkpt>
      <trkpt lat="46.31252" lon="5.81616">
        <ele>899.2</ele>
        <time>2021-10-17T09:48:49Z</time>
      </trkpt>
      <trkpt lat="46.31249" lon="5.81618">
        <ele>899.2</ele>
        <time>2021-10-17T09:48:50Z</time>
      </trkpt>
      <trkpt lat="46.31246" lon="5.8162">
        <ele>899.4</ele>
        <time>2021-10-17T09:48:51Z</time>
      </trkpt>
      <trkpt lat="46.31243" lon="5.81621">
        <ele>899.8</ele>
        <time>2021-10-17T09:48:52Z</time>
      </trkpt>
      <trkpt lat="46.3124" lon="5.81623">
        <ele>899.8</ele>
        <time>2021-10-17T09:48:53Z</time>
      </trkpt>
      <trkpt lat="46.31237" lon="5.81625">
        <ele>900</ele>
        <time>2021-10-17T09:48:54Z</time>
      </trkpt>
      <trkpt lat="46.31233" lon="5.81627">
        <ele>900.2</ele>
        <time>2021-10-17T09:48:55Z</time>
      </trkpt>
      <trkpt lat="46.3123" lon="5.8163">
        <ele>900.4</ele>
        <time>2021-10-17T09:48:56Z</time>
      </trkpt>
      <trkpt lat="46.31227" lon="5.81632">
        <ele>900.4</ele>
        <time>2021-10-17T09:48:57Z</time>
      </trkpt>
      <trkpt lat="46.31224" lon="5.81635">
        <ele>900.8</ele>
        <time>2021-10-17T09:48:58Z</time>
      </trkpt>
      <trkpt lat="46.31221" lon="5.81637">
        <ele>900.8</ele>
        <time>2021-10-17T09:48:59Z</time>
      </trkpt>
      <trkpt lat="46.31218" lon="5.81639">
        <ele>901</ele>
        <time>2021-10-17T09:49:00Z</time>
      </trkpt>
      <trkpt lat="46.31214" lon="5.81641">
        <ele>901</ele>
        <time>2021-10-17T09:49:01Z</time>
      </trkpt>
      <trkpt lat="46.31211" lon="5.81643">
        <ele>901.4</ele>
        <time>2021-10-17T09:49:02Z</time>
      </trkpt>
      <trkpt lat="46.31208" lon="5.81644">
        <ele>901.4</ele>
        <time>2021-10-17T09:49:03Z</time>
      </trkpt>
      <trkpt lat="46.31204" lon="5.81646">
        <ele>901.6</ele>
        <time>2021-10-17T09:49:04Z</time>
      </trkpt>
      <trkpt lat="46.31201" lon="5.81647">
        <ele>901.8</ele>
        <time>2021-10-17T09:49:05Z</time>
      </trkpt>
      <trkpt lat="46.31198" lon="5.81648">
        <ele>901.8</ele>
        <time>2021-10-17T09:49:06Z</time>
      </trkpt>
      <trkpt lat="46.31195" lon="5.81649">
        <ele>902.2</ele>
        <time>2021-10-17T09:49:07Z</time>
      </trkpt>
      <trkpt lat="46.31192" lon="5.81649">
        <ele>902.2</ele>
        <time>2021-10-17T09:49:08Z</time>
      </trkpt>
      <trkpt lat="46.31189" lon="5.8165">
        <ele>902.6</ele>
        <time>2021-10-17T09:49:09Z</time>
      </trkpt>
      <trkpt lat="46.31186" lon="5.81651">
        <ele>902.6</ele>
        <time>2021-10-17T09:49:10Z</time>
      </trkpt>
      <trkpt lat="46.31183" lon="5.81652">
        <ele>902.8</ele>
        <time>2021-10-17T09:49:11Z</time>
      </trkpt>
      <trkpt lat="46.31179" lon="5.81653">
        <ele>902.8</ele>
        <time>2021-10-17T09:49:12Z</time>
      </trkpt>
      <trkpt lat="46.31177" lon="5.81653">
        <ele>903.2</ele>
        <time>2021-10-17T09:49:13Z</time>
      </trkpt>
      <trkpt lat="46.31174" lon="5.81654">
        <ele>903.4</ele>
        <time>2021-10-17T09:49:14Z</time>
      </trkpt>
      <trkpt lat="46.31171" lon="5.81654">
        <ele>903.6</ele>
        <time>2021-10-17T09:49:15Z</time>
      </trkpt>
      <trkpt lat="46.31168" lon="5.81654">
        <ele>903.8</ele>
        <time>2021-10-17T09:49:16Z</time>
      </trkpt>
      <trkpt lat="46.31165" lon="5.81654">
        <ele>904</ele>
        <time>2021-10-17T09:49:17Z</time>
      </trkpt>
      <trkpt lat="46.31162" lon="5.81655">
        <ele>904.4</ele>
        <time>2021-10-17T09:49:18Z</time>
      </trkpt>
      <trkpt lat="46.31159" lon="5.81655">
        <ele>904.4</ele>
        <time>2021-10-17T09:49:19Z</time>
      </trkpt>
      <trkpt lat="46.31156" lon="5.81656">
        <ele>904.6</ele>
        <time>2021-10-17T09:49:20Z</time>
      </trkpt>
      <trkpt lat="46.31153" lon="5.81656">
        <ele>904.6</ele>
        <time>2021-10-17T09:49:21Z</time>
      </trkpt>
      <trkpt lat="46.3115" lon="5.81656">
        <ele>905</ele>
        <time>2021-10-17T09:49:22Z</time>
      </trkpt>
      <trkpt lat="46.31147" lon="5.81655">
        <ele>905</ele>
        <time>2021-10-17T09:49:23Z</time>
      </trkpt>
      <trkpt lat="46.31144" lon="5.81655">
        <ele>905.4</ele>
        <time>2021-10-17T09:49:24Z</time>
      </trkpt>
      <trkpt lat="46.31144" lon="5.81655">
        <ele>905.4</ele>
        <time>2021-10-17T09:49:25Z</time>
      </trkpt>
      <trkpt lat="46.31141" lon="5.81654">
        <ele>905.6</ele>
        <time>2021-10-17T09:49:26Z</time>
      </trkpt>
      <trkpt lat="46.31138" lon="5.81656">
        <ele>905.6</ele>
        <time>2021-10-17T09:49:27Z</time>
      </trkpt>
      <trkpt lat="46.31135" lon="5.81656">
        <ele>906</ele>
        <time>2021-10-17T09:49:28Z</time>
      </trkpt>
      <trkpt lat="46.31132" lon="5.81655">
        <ele>906</ele>
        <time>2021-10-17T09:49:29Z</time>
      </trkpt>
      <trkpt lat="46.31129" lon="5.81656">
        <ele>906.2</ele>
        <time>2021-10-17T09:49:30Z</time>
      </trkpt>
      <trkpt lat="46.31126" lon="5.81655">
        <ele>906.2</ele>
        <time>2021-10-17T09:49:31Z</time>
      </trkpt>
      <trkpt lat="46.31123" lon="5.81654">
        <ele>906.6</ele>
        <time>2021-10-17T09:49:32Z</time>
      </trkpt>
      <trkpt lat="46.3112" lon="5.81653">
        <ele>906.6</ele>
        <time>2021-10-17T09:49:33Z</time>
      </trkpt>
      <trkpt lat="46.31118" lon="5.81652">
        <ele>906.8</ele>
        <time>2021-10-17T09:49:34Z</time>
      </trkpt>
      <trkpt lat="46.31115" lon="5.81651">
        <ele>907</ele>
        <time>2021-10-17T09:49:35Z</time>
      </trkpt>
      <trkpt lat="46.31112" lon="5.81649">
        <ele>907</ele>
        <time>2021-10-17T09:49:36Z</time>
      </trkpt>
      <trkpt lat="46.31109" lon="5.81648">
        <ele>907.4</ele>
        <time>2021-10-17T09:49:37Z</time>
      </trkpt>
      <trkpt lat="46.31106" lon="5.81647">
        <ele>907.4</ele>
        <time>2021-10-17T09:49:38Z</time>
      </trkpt>
      <trkpt lat="46.31103" lon="5.81645">
        <ele>907.8</ele>
        <time>2021-10-17T09:49:39Z</time>
      </trkpt>
      <trkpt lat="46.31101" lon="5.81644">
        <ele>908</ele>
        <time>2021-10-17T09:49:40Z</time>
      </trkpt>
      <trkpt lat="46.31098" lon="5.81642">
        <ele>908.2</ele>
        <time>2021-10-17T09:49:41Z</time>
      </trkpt>
      <trkpt lat="46.31096" lon="5.81639">
        <ele>908.2</ele>
        <time>2021-10-17T09:49:42Z</time>
      </trkpt>
      <trkpt lat="46.31093" lon="5.81637">
        <ele>908.6</ele>
        <time>2021-10-17T09:49:43Z</time>
      </trkpt>
      <trkpt lat="46.31091" lon="5.81634">
        <ele>908.6</ele>
        <time>2021-10-17T09:49:44Z</time>
      </trkpt>
      <trkpt lat="46.31089" lon="5.81631">
        <ele>909</ele>
        <time>2021-10-17T09:49:45Z</time>
      </trkpt>
      <trkpt lat="46.31086" lon="5.81628">
        <ele>909</ele>
        <time>2021-10-17T09:49:46Z</time>
      </trkpt>
      <trkpt lat="46.31084" lon="5.81626">
        <ele>909.2</ele>
        <time>2021-10-17T09:49:47Z</time>
      </trkpt>
      <trkpt lat="46.31082" lon="5.81623">
        <ele>909.2</ele>
        <time>2021-10-17T09:49:48Z</time>
      </trkpt>
      <trkpt lat="46.31079" lon="5.81621">
        <ele>909.6</ele>
        <time>2021-10-17T09:49:49Z</time>
      </trkpt>
      <trkpt lat="46.31077" lon="5.81618">
        <ele>909.8</ele>
        <time>2021-10-17T09:49:50Z</time>
      </trkpt>
      <trkpt lat="46.31075" lon="5.81615">
        <ele>909.8</ele>
        <time>2021-10-17T09:49:51Z</time>
      </trkpt>
      <trkpt lat="46.31073" lon="5.81612">
        <ele>910.2</ele>
        <time>2021-10-17T09:49:52Z</time>
      </trkpt>
      <trkpt lat="46.3107" lon="5.8161">
        <ele>910.2</ele>
        <time>2021-10-17T09:49:53Z</time>
      </trkpt>
      <trkpt lat="46.31068" lon="5.81607">
        <ele>910.4</ele>
        <time>2021-10-17T09:49:54Z</time>
      </trkpt>
      <trkpt lat="46.31065" lon="5.81605">
        <ele>910.4</ele>
        <time>2021-10-17T09:49:55Z</time>
      </trkpt>
      <trkpt lat="46.31063" lon="5.81602">
        <ele>910.8</ele>
        <time>2021-10-17T09:49:56Z</time>
      </trkpt>
      <trkpt lat="46.31061" lon="5.816">
        <ele>910.8</ele>
        <time>2021-10-17T09:49:57Z</time>
      </trkpt>
      <trkpt lat="46.31058" lon="5.81597">
        <ele>911.2</ele>
        <time>2021-10-17T09:49:58Z</time>
      </trkpt>
      <trkpt lat="46.31056" lon="5.81595">
        <ele>911.2</ele>
        <time>2021-10-17T09:49:59Z</time>
      </trkpt>
      <trkpt lat="46.31054" lon="5.81592">
        <ele>911.4</ele>
        <time>2021-10-17T09:50:00Z</time>
      </trkpt>
      <trkpt lat="46.31052" lon="5.81589">
        <ele>911.4</ele>
        <time>2021-10-17T09:50:01Z</time>
      </trkpt>
      <trkpt lat="46.31049" lon="5.81586">
        <ele>911.8</ele>
        <time>2021-10-17T09:50:02Z</time>
      </trkpt>
      <trkpt lat="46.31047" lon="5.81583">
        <ele>911.8</ele>
        <time>2021-10-17T09:50:03Z</time>
      </trkpt>
      <trkpt lat="46.31044" lon="5.8158">
        <ele>912.2</ele>
        <time>2021-10-17T09:50:04Z</time>
      </trkpt>
      <trkpt lat="46.31041" lon="5.81577">
        <ele>912.4</ele>
        <time>2021-10-17T09:50:05Z</time>
      </trkpt>
      <trkpt lat="46.31039" lon="5.81574">
        <ele>912.4</ele>
        <time>2021-10-17T09:50:06Z</time>
      </trkpt>
      <trkpt lat="46.31036" lon="5.81571">
        <ele>912.8</ele>
        <time>2021-10-17T09:50:07Z</time>
      </trkpt>
      <trkpt lat="46.31034" lon="5.81569">
        <ele>913</ele>
        <time>2021-10-17T09:50:08Z</time>
      </trkpt>
      <trkpt lat="46.31031" lon="5.81566">
        <ele>913</ele>
        <time>2021-10-17T09:50:09Z</time>
      </trkpt>
      <trkpt lat="46.31029" lon="5.81563">
        <ele>913.2</ele>
        <time>2021-10-17T09:50:10Z</time>
      </trkpt>
      <trkpt lat="46.31026" lon="5.8156">
        <ele>913.2</ele>
        <time>2021-10-17T09:50:11Z</time>
      </trkpt>
      <trkpt lat="46.31023" lon="5.81557">
        <ele>913.6</ele>
        <time>2021-10-17T09:50:12Z</time>
      </trkpt>
      <trkpt lat="46.31021" lon="5.81554">
        <ele>913.6</ele>
        <time>2021-10-17T09:50:13Z</time>
      </trkpt>
      <trkpt lat="46.31018" lon="5.81552">
        <ele>914</ele>
        <time>2021-10-17T09:50:14Z</time>
      </trkpt>
      <trkpt lat="46.31015" lon="5.8155">
        <ele>914.2</ele>
        <time>2021-10-17T09:50:15Z</time>
      </trkpt>
      <trkpt lat="46.31012" lon="5.81548">
        <ele>914.4</ele>
        <time>2021-10-17T09:50:16Z</time>
      </trkpt>
      <trkpt lat="46.31009" lon="5.81546">
        <ele>914.6</ele>
        <time>2021-10-17T09:50:17Z</time>
      </trkpt>
      <trkpt lat="46.31006" lon="5.81545">
        <ele>914.6</ele>
        <time>2021-10-17T09:50:18Z</time>
      </trkpt>
      <trkpt lat="46.31003" lon="5.81543">
        <ele>915</ele>
        <time>2021-10-17T09:50:19Z</time>
      </trkpt>
      <trkpt lat="46.31" lon="5.81541">
        <ele>915</ele>
        <time>2021-10-17T09:50:20Z</time>
      </trkpt>
      <trkpt lat="46.30996" lon="5.8154">
        <ele>915.4</ele>
        <time>2021-10-17T09:50:21Z</time>
      </trkpt>
      <trkpt lat="46.30993" lon="5.81538">
        <ele>915.4</ele>
        <time>2021-10-17T09:50:22Z</time>
      </trkpt>
      <trkpt lat="46.3099" lon="5.81536">
        <ele>915.6</ele>
        <time>2021-10-17T09:50:23Z</time>
      </trkpt>
      <trkpt lat="46.30987" lon="5.81534">
        <ele>915.6</ele>
        <time>2021-10-17T09:50:24Z</time>
      </trkpt>
      <trkpt lat="46.30984" lon="5.81532">
        <ele>915.8</ele>
        <time>2021-10-17T09:50:25Z</time>
      </trkpt>
      <trkpt lat="46.30981" lon="5.8153">
        <ele>915.8</ele>
        <time>2021-10-17T09:50:26Z</time>
      </trkpt>
      <trkpt lat="46.30978" lon="5.81528">
        <ele>916.2</ele>
        <time>2021-10-17T09:50:27Z</time>
      </trkpt>
      <trkpt lat="46.30975" lon="5.81526">
        <ele>916.2</ele>
        <time>2021-10-17T09:50:28Z</time>
      </trkpt>
      <trkpt lat="46.30972" lon="5.81524">
        <ele>916.4</ele>
        <time>2021-10-17T09:50:29Z</time>
      </trkpt>
      <trkpt lat="46.30969" lon="5.81522">
        <ele>916.4</ele>
        <time>2021-10-17T09:50:30Z</time>
      </trkpt>
      <trkpt lat="46.30966" lon="5.8152">
        <ele>916.8</ele>
        <time>2021-10-17T09:50:31Z</time>
      </trkpt>
      <trkpt lat="46.30963" lon="5.81517">
        <ele>916.8</ele>
        <time>2021-10-17T09:50:32Z</time>
      </trkpt>
      <trkpt lat="46.3096" lon="5.81515">
        <ele>917.2</ele>
        <time>2021-10-17T09:50:33Z</time>
      </trkpt>
      <trkpt lat="46.30957" lon="5.81513">
        <ele>917.4</ele>
        <time>2021-10-17T09:50:34Z</time>
      </trkpt>
      <trkpt lat="46.30955" lon="5.81511">
        <ele>917.6</ele>
        <time>2021-10-17T09:50:35Z</time>
      </trkpt>
      <trkpt lat="46.30952" lon="5.81509">
        <ele>917.6</ele>
        <time>2021-10-17T09:50:36Z</time>
      </trkpt>
      <trkpt lat="46.30949" lon="5.81507">
        <ele>918</ele>
        <time>2021-10-17T09:50:37Z</time>
      </trkpt>
      <trkpt lat="46.30946" lon="5.81504">
        <ele>918</ele>
        <time>2021-10-17T09:50:38Z</time>
      </trkpt>
      <trkpt lat="46.30944" lon="5.81502">
        <ele>918.4</ele>
        <time>2021-10-17T09:50:39Z</time>
      </trkpt>
      <trkpt lat="46.30941" lon="5.815">
        <ele>918.4</ele>
        <time>2021-10-17T09:50:40Z</time>
      </trkpt>
      <trkpt lat="46.30938" lon="5.81498">
        <ele>918.6</ele>
        <time>2021-10-17T09:50:41Z</time>
      </trkpt>
      <trkpt lat="46.30936" lon="5.81496">
        <ele>918.6</ele>
        <time>2021-10-17T09:50:42Z</time>
      </trkpt>
      <trkpt lat="46.30933" lon="5.81493">
        <ele>919</ele>
        <time>2021-10-17T09:50:43Z</time>
      </trkpt>
      <trkpt lat="46.30931" lon="5.81491">
        <ele>919</ele>
        <time>2021-10-17T09:50:44Z</time>
      </trkpt>
      <trkpt lat="46.30928" lon="5.81488">
        <ele>919.2</ele>
        <time>2021-10-17T09:50:45Z</time>
      </trkpt>
      <trkpt lat="46.30926" lon="5.81486">
        <ele>919.2</ele>
        <time>2021-10-17T09:50:46Z</time>
      </trkpt>
      <trkpt lat="46.30923" lon="5.81484">
        <ele>919.6</ele>
        <time>2021-10-17T09:50:47Z</time>
      </trkpt>
      <trkpt lat="46.3092" lon="5.81482">
        <ele>919.6</ele>
        <time>2021-10-17T09:50:48Z</time>
      </trkpt>
      <trkpt lat="46.30917" lon="5.8148">
        <ele>920</ele>
        <time>2021-10-17T09:50:49Z</time>
      </trkpt>
      <trkpt lat="46.30914" lon="5.81478">
        <ele>920</ele>
        <time>2021-10-17T09:50:50Z</time>
      </trkpt>
      <trkpt lat="46.30912" lon="5.81475">
        <ele>920.4</ele>
        <time>2021-10-17T09:50:51Z</time>
      </trkpt>
      <trkpt lat="46.30909" lon="5.81473">
        <ele>920.4</ele>
        <time>2021-10-17T09:50:52Z</time>
      </trkpt>
      <trkpt lat="46.30907" lon="5.81471">
        <ele>920.8</ele>
        <time>2021-10-17T09:50:53Z</time>
      </trkpt>
      <trkpt lat="46.30904" lon="5.81468">
        <ele>920.8</ele>
        <time>2021-10-17T09:50:54Z</time>
      </trkpt>
      <trkpt lat="46.30901" lon="5.81466">
        <ele>921.2</ele>
        <time>2021-10-17T09:50:55Z</time>
      </trkpt>
      <trkpt lat="46.30899" lon="5.81464">
        <ele>921.2</ele>
        <time>2021-10-17T09:50:56Z</time>
      </trkpt>
      <trkpt lat="46.30896" lon="5.81461">
        <ele>921.6</ele>
        <time>2021-10-17T09:50:57Z</time>
      </trkpt>
      <trkpt lat="46.30894" lon="5.81459">
        <ele>921.8</ele>
        <time>2021-10-17T09:50:58Z</time>
      </trkpt>
      <trkpt lat="46.30892" lon="5.81456">
        <ele>921.8</ele>
        <time>2021-10-17T09:50:59Z</time>
      </trkpt>
      <trkpt lat="46.30889" lon="5.81453">
        <ele>922.2</ele>
        <time>2021-10-17T09:51:00Z</time>
      </trkpt>
      <trkpt lat="46.30887" lon="5.8145">
        <ele>922.2</ele>
        <time>2021-10-17T09:51:01Z</time>
      </trkpt>
      <trkpt lat="46.30885" lon="5.81447">
        <ele>922.4</ele>
        <time>2021-10-17T09:51:02Z</time>
      </trkpt>
      <trkpt lat="46.30882" lon="5.81445">
        <ele>922.4</ele>
        <time>2021-10-17T09:51:03Z</time>
      </trkpt>
      <trkpt lat="46.30879" lon="5.81442">
        <ele>922.8</ele>
        <time>2021-10-17T09:51:04Z</time>
      </trkpt>
      <trkpt lat="46.30877" lon="5.8144">
        <ele>922.8</ele>
        <time>2021-10-17T09:51:05Z</time>
      </trkpt>
      <trkpt lat="46.30875" lon="5.81437">
        <ele>923.2</ele>
        <time>2021-10-17T09:51:06Z</time>
      </trkpt>
      <trkpt lat="46.30872" lon="5.81435">
        <ele>923.2</ele>
        <time>2021-10-17T09:51:07Z</time>
      </trkpt>
      <trkpt lat="46.30869" lon="5.81433">
        <ele>923.6</ele>
        <time>2021-10-17T09:51:08Z</time>
      </trkpt>
      <trkpt lat="46.30867" lon="5.8143">
        <ele>923.6</ele>
        <time>2021-10-17T09:51:09Z</time>
      </trkpt>
      <trkpt lat="46.30865" lon="5.81427">
        <ele>924</ele>
        <time>2021-10-17T09:51:10Z</time>
      </trkpt>
      <trkpt lat="46.30862" lon="5.81426">
        <ele>924</ele>
        <time>2021-10-17T09:51:11Z</time>
      </trkpt>
      <trkpt lat="46.3086" lon="5.81423">
        <ele>924.4</ele>
        <time>2021-10-17T09:51:12Z</time>
      </trkpt>
      <trkpt lat="46.30857" lon="5.81421">
        <ele>924.4</ele>
        <time>2021-10-17T09:51:13Z</time>
      </trkpt>
      <trkpt lat="46.30854" lon="5.81419">
        <ele>924.8</ele>
        <time>2021-10-17T09:51:14Z</time>
      </trkpt>
      <trkpt lat="46.30852" lon="5.81417">
        <ele>924.8</ele>
        <time>2021-10-17T09:51:15Z</time>
      </trkpt>
      <trkpt lat="46.30849" lon="5.81414">
        <ele>925.2</ele>
        <time>2021-10-17T09:51:16Z</time>
      </trkpt>
      <trkpt lat="46.30847" lon="5.81412">
        <ele>925.2</ele>
        <time>2021-10-17T09:51:17Z</time>
      </trkpt>
      <trkpt lat="46.30844" lon="5.8141">
        <ele>925.4</ele>
        <time>2021-10-17T09:51:18Z</time>
      </trkpt>
      <trkpt lat="46.30841" lon="5.81408">
        <ele>925.4</ele>
        <time>2021-10-17T09:51:19Z</time>
      </trkpt>
      <trkpt lat="46.30839" lon="5.81406">
        <ele>925.8</ele>
        <time>2021-10-17T09:51:20Z</time>
      </trkpt>
      <trkpt lat="46.30836" lon="5.81403">
        <ele>925.8</ele>
        <time>2021-10-17T09:51:21Z</time>
      </trkpt>
      <trkpt lat="46.30833" lon="5.81401">
        <ele>926.2</ele>
        <time>2021-10-17T09:51:22Z</time>
      </trkpt>
      <trkpt lat="46.3083" lon="5.81398">
        <ele>926.2</ele>
        <time>2021-10-17T09:51:23Z</time>
      </trkpt>
      <trkpt lat="46.30828" lon="5.81396">
        <ele>926.6</ele>
        <time>2021-10-17T09:51:24Z</time>
      </trkpt>
      <trkpt lat="46.30825" lon="5.81394">
        <ele>926.6</ele>
        <time>2021-10-17T09:51:25Z</time>
      </trkpt>
      <trkpt lat="46.30822" lon="5.81392">
        <ele>926.8</ele>
        <time>2021-10-17T09:51:26Z</time>
      </trkpt>
      <trkpt lat="46.3082" lon="5.8139">
        <ele>927</ele>
        <time>2021-10-17T09:51:27Z</time>
      </trkpt>
      <trkpt lat="46.30817" lon="5.81387">
        <ele>927</ele>
        <time>2021-10-17T09:51:28Z</time>
      </trkpt>
      <trkpt lat="46.30815" lon="5.81385">
        <ele>927.4</ele>
        <time>2021-10-17T09:51:29Z</time>
      </trkpt>
      <trkpt lat="46.30813" lon="5.81382">
        <ele>927.4</ele>
        <time>2021-10-17T09:51:30Z</time>
      </trkpt>
      <trkpt lat="46.30811" lon="5.8138">
        <ele>927.8</ele>
        <time>2021-10-17T09:51:31Z</time>
      </trkpt>
      <trkpt lat="46.30809" lon="5.81378">
        <ele>927.8</ele>
        <time>2021-10-17T09:51:32Z</time>
      </trkpt>
      <trkpt lat="46.30807" lon="5.81376">
        <ele>928.2</ele>
        <time>2021-10-17T09:51:33Z</time>
      </trkpt>
      <trkpt lat="46.30805" lon="5.81374">
        <ele>928.2</ele>
        <time>2021-10-17T09:51:34Z</time>
      </trkpt>
      <trkpt lat="46.30803" lon="5.81372">
        <ele>928.4</ele>
        <time>2021-10-17T09:51:35Z</time>
      </trkpt>
      <trkpt lat="46.30801" lon="5.81369">
        <ele>928.4</ele>
        <time>2021-10-17T09:51:36Z</time>
      </trkpt>
      <trkpt lat="46.30799" lon="5.81367">
        <ele>929</ele>
        <time>2021-10-17T09:51:37Z</time>
      </trkpt>
      <trkpt lat="46.30798" lon="5.81365">
        <ele>929.2</ele>
        <time>2021-10-17T09:51:38Z</time>
      </trkpt>
      <trkpt lat="46.30796" lon="5.81361">
        <ele>929.2</ele>
        <time>2021-10-17T09:51:39Z</time>
      </trkpt>
      <trkpt lat="46.30794" lon="5.81357">
        <ele>929.4</ele>
        <time>2021-10-17T09:51:40Z</time>
      </trkpt>
      <trkpt lat="46.30793" lon="5.81354">
        <ele>929.4</ele>
        <time>2021-10-17T09:51:41Z</time>
      </trkpt>
      <trkpt lat="46.30791" lon="5.8135">
        <ele>929.8</ele>
        <time>2021-10-17T09:51:42Z</time>
      </trkpt>
      <trkpt lat="46.30789" lon="5.81347">
        <ele>929.8</ele>
        <time>2021-10-17T09:51:43Z</time>
      </trkpt>
      <trkpt lat="46.30788" lon="5.81343">
        <ele>930.2</ele>
        <time>2021-10-17T09:51:44Z</time>
      </trkpt>
      <trkpt lat="46.30786" lon="5.8134">
        <ele>930.2</ele>
        <time>2021-10-17T09:51:45Z</time>
      </trkpt>
      <trkpt lat="46.30784" lon="5.81336">
        <ele>930.4</ele>
        <time>2021-10-17T09:51:46Z</time>
      </trkpt>
      <trkpt lat="46.30783" lon="5.81332">
        <ele>930.4</ele>
        <time>2021-10-17T09:51:47Z</time>
      </trkpt>
      <trkpt lat="46.3078" lon="5.8133">
        <ele>930.6</ele>
        <time>2021-10-17T09:51:48Z</time>
      </trkpt>
      <trkpt lat="46.30778" lon="5.81327">
        <ele>930.8</ele>
        <time>2021-10-17T09:51:49Z</time>
      </trkpt>
      <trkpt lat="46.30776" lon="5.81324">
        <ele>930.8</ele>
        <time>2021-10-17T09:51:50Z</time>
      </trkpt>
      <trkpt lat="46.30773" lon="5.81322">
        <ele>931.2</ele>
        <time>2021-10-17T09:51:51Z</time>
      </trkpt>
      <trkpt lat="46.30771" lon="5.81319">
        <ele>931.2</ele>
        <time>2021-10-17T09:51:52Z</time>
      </trkpt>
      <trkpt lat="46.30768" lon="5.81317">
        <ele>931.6</ele>
        <time>2021-10-17T09:51:53Z</time>
      </trkpt>
      <trkpt lat="46.30765" lon="5.81315">
        <ele>931.8</ele>
        <time>2021-10-17T09:51:54Z</time>
      </trkpt>
      <trkpt lat="46.30762" lon="5.81313">
        <ele>931.8</ele>
        <time>2021-10-17T09:51:55Z</time>
      </trkpt>
      <trkpt lat="46.30759" lon="5.81311">
        <ele>932.2</ele>
        <time>2021-10-17T09:51:56Z</time>
      </trkpt>
      <trkpt lat="46.30757" lon="5.8131">
        <ele>932.2</ele>
        <time>2021-10-17T09:51:57Z</time>
      </trkpt>
      <trkpt lat="46.30754" lon="5.81308">
        <ele>932.6</ele>
        <time>2021-10-17T09:51:58Z</time>
      </trkpt>
      <trkpt lat="46.30751" lon="5.81307">
        <ele>932.8</ele>
        <time>2021-10-17T09:51:59Z</time>
      </trkpt>
      <trkpt lat="46.30747" lon="5.81306">
        <ele>932.8</ele>
        <time>2021-10-17T09:52:00Z</time>
      </trkpt>
      <trkpt lat="46.30743" lon="5.81304">
        <ele>933.2</ele>
        <time>2021-10-17T09:52:01Z</time>
      </trkpt>
      <trkpt lat="46.3074" lon="5.81303">
        <ele>933.4</ele>
        <time>2021-10-17T09:52:02Z</time>
      </trkpt>
      <trkpt lat="46.30737" lon="5.81302">
        <ele>933.4</ele>
        <time>2021-10-17T09:52:03Z</time>
      </trkpt>
      <trkpt lat="46.30734" lon="5.813">
        <ele>933.6</ele>
        <time>2021-10-17T09:52:04Z</time>
      </trkpt>
      <trkpt lat="46.3073" lon="5.81299">
        <ele>933.6</ele>
        <time>2021-10-17T09:52:05Z</time>
      </trkpt>
      <trkpt lat="46.30727" lon="5.81298">
        <ele>934</ele>
        <time>2021-10-17T09:52:06Z</time>
      </trkpt>
      <trkpt lat="46.30723" lon="5.81297">
        <ele>934</ele>
        <time>2021-10-17T09:52:07Z</time>
      </trkpt>
      <trkpt lat="46.3072" lon="5.81296">
        <ele>934.2</ele>
        <time>2021-10-17T09:52:08Z</time>
      </trkpt>
      <trkpt lat="46.30716" lon="5.81295">
        <ele>934.2</ele>
        <time>2021-10-17T09:52:09Z</time>
      </trkpt>
      <trkpt lat="46.30713" lon="5.81295">
        <ele>934.6</ele>
        <time>2021-10-17T09:52:10Z</time>
      </trkpt>
      <trkpt lat="46.3071" lon="5.81294">
        <ele>934.6</ele>
        <time>2021-10-17T09:52:11Z</time>
      </trkpt>
      <trkpt lat="46.30708" lon="5.81293">
        <ele>935</ele>
        <time>2021-10-17T09:52:12Z</time>
      </trkpt>
      <trkpt lat="46.30705" lon="5.81292">
        <ele>935.2</ele>
        <time>2021-10-17T09:52:13Z</time>
      </trkpt>
      <trkpt lat="46.30702" lon="5.81291">
        <ele>935.4</ele>
        <time>2021-10-17T09:52:14Z</time>
      </trkpt>
      <trkpt lat="46.307" lon="5.8129">
        <ele>935.6</ele>
        <time>2021-10-17T09:52:15Z</time>
      </trkpt>
      <trkpt lat="46.30697" lon="5.81289">
        <ele>935.6</ele>
        <time>2021-10-17T09:52:16Z</time>
      </trkpt>
      <trkpt lat="46.30694" lon="5.81289">
        <ele>935.8</ele>
        <time>2021-10-17T09:52:17Z</time>
      </trkpt>
      <trkpt lat="46.30691" lon="5.81288">
        <ele>935.8</ele>
        <time>2021-10-17T09:52:18Z</time>
      </trkpt>
      <trkpt lat="46.30688" lon="5.81287">
        <ele>936.2</ele>
        <time>2021-10-17T09:52:19Z</time>
      </trkpt>
      <trkpt lat="46.30684" lon="5.81286">
        <ele>936.2</ele>
        <time>2021-10-17T09:52:20Z</time>
      </trkpt>
      <trkpt lat="46.30681" lon="5.81285">
        <ele>936.4</ele>
        <time>2021-10-17T09:52:21Z</time>
      </trkpt>
      <trkpt lat="46.30677" lon="5.81284">
        <ele>936.4</ele>
        <time>2021-10-17T09:52:22Z</time>
      </trkpt>
      <trkpt lat="46.30674" lon="5.81283">
        <ele>936.8</ele>
        <time>2021-10-17T09:52:23Z</time>
      </trkpt>
      <trkpt lat="46.30671" lon="5.81282">
        <ele>936.8</ele>
        <time>2021-10-17T09:52:24Z</time>
      </trkpt>
      <trkpt lat="46.30668" lon="5.8128">
        <ele>937</ele>
        <time>2021-10-17T09:52:25Z</time>
      </trkpt>
      <trkpt lat="46.30665" lon="5.8128">
        <ele>937.2</ele>
        <time>2021-10-17T09:52:26Z</time>
      </trkpt>
      <trkpt lat="46.30662" lon="5.81279">
        <ele>937.4</ele>
        <time>2021-10-17T09:52:27Z</time>
      </trkpt>
      <trkpt lat="46.30659" lon="5.81278">
        <ele>937.4</ele>
        <time>2021-10-17T09:52:28Z</time>
      </trkpt>
      <trkpt lat="46.30655" lon="5.81277">
        <ele>937.8</ele>
        <time>2021-10-17T09:52:29Z</time>
      </trkpt>
      <trkpt lat="46.30652" lon="5.81276">
        <ele>937.8</ele>
        <time>2021-10-17T09:52:30Z</time>
      </trkpt>
      <trkpt lat="46.30649" lon="5.81275">
        <ele>938.2</ele>
        <time>2021-10-17T09:52:31Z</time>
      </trkpt>
      <trkpt lat="46.30645" lon="5.81274">
        <ele>938.4</ele>
        <time>2021-10-17T09:52:32Z</time>
      </trkpt>
      <trkpt lat="46.30642" lon="5.81273">
        <ele>938.4</ele>
        <time>2021-10-17T09:52:33Z</time>
      </trkpt>
      <trkpt lat="46.30639" lon="5.81272">
        <ele>938.8</ele>
        <time>2021-10-17T09:52:34Z</time>
      </trkpt>
      <trkpt lat="46.30635" lon="5.81272">
        <ele>938.8</ele>
        <time>2021-10-17T09:52:35Z</time>
      </trkpt>
      <trkpt lat="46.30632" lon="5.81271">
        <ele>939.2</ele>
        <time>2021-10-17T09:52:36Z</time>
      </trkpt>
      <trkpt lat="46.30628" lon="5.81271">
        <ele>939.2</ele>
        <time>2021-10-17T09:52:37Z</time>
      </trkpt>
      <trkpt lat="46.30625" lon="5.8127">
        <ele>939.4</ele>
        <time>2021-10-17T09:52:38Z</time>
      </trkpt>
      <trkpt lat="46.30621" lon="5.81269">
        <ele>939.4</ele>
        <time>2021-10-17T09:52:39Z</time>
      </trkpt>
      <trkpt lat="46.30618" lon="5.81268">
        <ele>939.8</ele>
        <time>2021-10-17T09:52:40Z</time>
      </trkpt>
      <trkpt lat="46.30615" lon="5.81266">
        <ele>939.8</ele>
        <time>2021-10-17T09:52:41Z</time>
      </trkpt>
      <trkpt lat="46.30612" lon="5.81265">
        <ele>940.2</ele>
        <time>2021-10-17T09:52:42Z</time>
      </trkpt>
      <trkpt lat="46.30609" lon="5.81263">
        <ele>940.2</ele>
        <time>2021-10-17T09:52:43Z</time>
      </trkpt>
      <trkpt lat="46.30606" lon="5.81262">
        <ele>940.4</ele>
        <time>2021-10-17T09:52:44Z</time>
      </trkpt>
      <trkpt lat="46.30604" lon="5.81262">
        <ele>940.4</ele>
        <time>2021-10-17T09:52:45Z</time>
      </trkpt>
      <trkpt lat="46.30601" lon="5.81261">
        <ele>940.8</ele>
        <time>2021-10-17T09:52:46Z</time>
      </trkpt>
      <trkpt lat="46.30597" lon="5.8126">
        <ele>940.8</ele>
        <time>2021-10-17T09:52:47Z</time>
      </trkpt>
      <trkpt lat="46.30595" lon="5.81259">
        <ele>941.2</ele>
        <time>2021-10-17T09:52:48Z</time>
      </trkpt>
      <trkpt lat="46.30592" lon="5.81258">
        <ele>941.2</ele>
        <time>2021-10-17T09:52:49Z</time>
      </trkpt>
      <trkpt lat="46.30589" lon="5.81258">
        <ele>941.4</ele>
        <time>2021-10-17T09:52:50Z</time>
      </trkpt>
      <trkpt lat="46.30587" lon="5.81258">
        <ele>941.4</ele>
        <time>2021-10-17T09:52:51Z</time>
      </trkpt>
      <trkpt lat="46.30584" lon="5.81257">
        <ele>941.8</ele>
        <time>2021-10-17T09:52:52Z</time>
      </trkpt>
      <trkpt lat="46.30581" lon="5.81257">
        <ele>941.8</ele>
        <time>2021-10-17T09:52:53Z</time>
      </trkpt>
      <trkpt lat="46.30578" lon="5.81257">
        <ele>942.2</ele>
        <time>2021-10-17T09:52:54Z</time>
      </trkpt>
      <trkpt lat="46.30575" lon="5.81256">
        <ele>942.4</ele>
        <time>2021-10-17T09:52:55Z</time>
      </trkpt>
      <trkpt lat="46.30572" lon="5.81255">
        <ele>942.4</ele>
        <time>2021-10-17T09:52:56Z</time>
      </trkpt>
      <trkpt lat="46.30569" lon="5.81255">
        <ele>942.8</ele>
        <time>2021-10-17T09:52:57Z</time>
      </trkpt>
      <trkpt lat="46.30566" lon="5.81254">
        <ele>943</ele>
        <time>2021-10-17T09:52:58Z</time>
      </trkpt>
      <trkpt lat="46.30563" lon="5.81253">
        <ele>943</ele>
        <time>2021-10-17T09:52:59Z</time>
      </trkpt>
      <trkpt lat="46.30561" lon="5.81253">
        <ele>943.2</ele>
        <time>2021-10-17T09:53:00Z</time>
      </trkpt>
      <trkpt lat="46.30558" lon="5.81253">
        <ele>943.2</ele>
        <time>2021-10-17T09:53:01Z</time>
      </trkpt>
      <trkpt lat="46.30555" lon="5.81252">
        <ele>943.6</ele>
        <time>2021-10-17T09:53:02Z</time>
      </trkpt>
      <trkpt lat="46.30552" lon="5.81251">
        <ele>943.8</ele>
        <time>2021-10-17T09:53:03Z</time>
      </trkpt>
      <trkpt lat="46.30549" lon="5.8125">
        <ele>943.8</ele>
        <time>2021-10-17T09:53:04Z</time>
      </trkpt>
      <trkpt lat="46.30546" lon="5.8125">
        <ele>944</ele>
        <time>2021-10-17T09:53:05Z</time>
      </trkpt>
      <trkpt lat="46.30543" lon="5.81249">
        <ele>944</ele>
        <time>2021-10-17T09:53:06Z</time>
      </trkpt>
      <trkpt lat="46.30539" lon="5.81249">
        <ele>944.4</ele>
        <time>2021-10-17T09:53:07Z</time>
      </trkpt>
      <trkpt lat="46.30536" lon="5.81249">
        <ele>944.4</ele>
        <time>2021-10-17T09:53:08Z</time>
      </trkpt>
      <trkpt lat="46.30533" lon="5.81249">
        <ele>944.6</ele>
        <time>2021-10-17T09:53:09Z</time>
      </trkpt>
      <trkpt lat="46.30529" lon="5.81248">
        <ele>944.6</ele>
        <time>2021-10-17T09:53:10Z</time>
      </trkpt>
      <trkpt lat="46.30526" lon="5.81247">
        <ele>945</ele>
        <time>2021-10-17T09:53:11Z</time>
      </trkpt>
      <trkpt lat="46.30523" lon="5.81246">
        <ele>945</ele>
        <time>2021-10-17T09:53:12Z</time>
      </trkpt>
      <trkpt lat="46.30519" lon="5.81246">
        <ele>945.2</ele>
        <time>2021-10-17T09:53:13Z</time>
      </trkpt>
      <trkpt lat="46.30516" lon="5.81244">
        <ele>945.2</ele>
        <time>2021-10-17T09:53:14Z</time>
      </trkpt>
      <trkpt lat="46.30513" lon="5.81242">
        <ele>945.6</ele>
        <time>2021-10-17T09:53:15Z</time>
      </trkpt>
      <trkpt lat="46.30509" lon="5.8124">
        <ele>945.6</ele>
        <time>2021-10-17T09:53:16Z</time>
      </trkpt>
      <trkpt lat="46.30506" lon="5.81239">
        <ele>945.8</ele>
        <time>2021-10-17T09:53:17Z</time>
      </trkpt>
      <trkpt lat="46.30503" lon="5.81238">
        <ele>945.8</ele>
        <time>2021-10-17T09:53:18Z</time>
      </trkpt>
      <trkpt lat="46.305" lon="5.81237">
        <ele>946.2</ele>
        <time>2021-10-17T09:53:19Z</time>
      </trkpt>
      <trkpt lat="46.30496" lon="5.81236">
        <ele>946.4</ele>
        <time>2021-10-17T09:53:20Z</time>
      </trkpt>
      <trkpt lat="46.30493" lon="5.81235">
        <ele>946.6</ele>
        <time>2021-10-17T09:53:21Z</time>
      </trkpt>
      <trkpt lat="46.3049" lon="5.81233">
        <ele>946.8</ele>
        <time>2021-10-17T09:53:22Z</time>
      </trkpt>
      <trkpt lat="46.30487" lon="5.81231">
        <ele>947</ele>
        <time>2021-10-17T09:53:23Z</time>
      </trkpt>
      <trkpt lat="46.30484" lon="5.8123">
        <ele>947</ele>
        <time>2021-10-17T09:53:24Z</time>
      </trkpt>
      <trkpt lat="46.30481" lon="5.81228">
        <ele>947.4</ele>
        <time>2021-10-17T09:53:25Z</time>
      </trkpt>
      <trkpt lat="46.30477" lon="5.81227">
        <ele>947.4</ele>
        <time>2021-10-17T09:53:26Z</time>
      </trkpt>
      <trkpt lat="46.30474" lon="5.81225">
        <ele>947.6</ele>
        <time>2021-10-17T09:53:27Z</time>
      </trkpt>
      <trkpt lat="46.30471" lon="5.81223">
        <ele>947.6</ele>
        <time>2021-10-17T09:53:28Z</time>
      </trkpt>
      <trkpt lat="46.30469" lon="5.81222">
        <ele>948</ele>
        <time>2021-10-17T09:53:29Z</time>
      </trkpt>
      <trkpt lat="46.30466" lon="5.81221">
        <ele>948</ele>
        <time>2021-10-17T09:53:30Z</time>
      </trkpt>
      <trkpt lat="46.30462" lon="5.81219">
        <ele>948.2</ele>
        <time>2021-10-17T09:53:31Z</time>
      </trkpt>
      <trkpt lat="46.30459" lon="5.81218">
        <ele>948.6</ele>
        <time>2021-10-17T09:53:32Z</time>
      </trkpt>
      <trkpt lat="46.30456" lon="5.81217">
        <ele>948.6</ele>
        <time>2021-10-17T09:53:33Z</time>
      </trkpt>
      <trkpt lat="46.30453" lon="5.81216">
        <ele>948.8</ele>
        <time>2021-10-17T09:53:34Z</time>
      </trkpt>
      <trkpt lat="46.3045" lon="5.81216">
        <ele>949</ele>
        <time>2021-10-17T09:53:35Z</time>
      </trkpt>
      <trkpt lat="46.30447" lon="5.81214">
        <ele>949</ele>
        <time>2021-10-17T09:53:36Z</time>
      </trkpt>
      <trkpt lat="46.30443" lon="5.81212">
        <ele>949.4</ele>
        <time>2021-10-17T09:53:37Z</time>
      </trkpt>
      <trkpt lat="46.3044" lon="5.81211">
        <ele>949.4</ele>
        <time>2021-10-17T09:53:38Z</time>
      </trkpt>
      <trkpt lat="46.30437" lon="5.8121">
        <ele>949.8</ele>
        <time>2021-10-17T09:53:39Z</time>
      </trkpt>
      <trkpt lat="46.30433" lon="5.81209">
        <ele>950</ele>
        <time>2021-10-17T09:53:40Z</time>
      </trkpt>
      <trkpt lat="46.3043" lon="5.81208">
        <ele>950.2</ele>
        <time>2021-10-17T09:53:41Z</time>
      </trkpt>
      <trkpt lat="46.30426" lon="5.81206">
        <ele>950.2</ele>
        <time>2021-10-17T09:53:42Z</time>
      </trkpt>
      <trkpt lat="46.30423" lon="5.81204">
        <ele>950.6</ele>
        <time>2021-10-17T09:53:43Z</time>
      </trkpt>
      <trkpt lat="46.3042" lon="5.81204">
        <ele>950.6</ele>
        <time>2021-10-17T09:53:44Z</time>
      </trkpt>
      <trkpt lat="46.30416" lon="5.81203">
        <ele>950.8</ele>
        <time>2021-10-17T09:53:45Z</time>
      </trkpt>
      <trkpt lat="46.30413" lon="5.81203">
        <ele>950.8</ele>
        <time>2021-10-17T09:53:46Z</time>
      </trkpt>
      <trkpt lat="46.30409" lon="5.81203">
        <ele>951.2</ele>
        <time>2021-10-17T09:53:47Z</time>
      </trkpt>
      <trkpt lat="46.30406" lon="5.81203">
        <ele>951.2</ele>
        <time>2021-10-17T09:53:48Z</time>
      </trkpt>
      <trkpt lat="46.30402" lon="5.81203">
        <ele>951.4</ele>
        <time>2021-10-17T09:53:49Z</time>
      </trkpt>
      <trkpt lat="46.30399" lon="5.81204">
        <ele>951.4</ele>
        <time>2021-10-17T09:53:50Z</time>
      </trkpt>
      <trkpt lat="46.30395" lon="5.81205">
        <ele>951.8</ele>
        <time>2021-10-17T09:53:51Z</time>
      </trkpt>
      <trkpt lat="46.30392" lon="5.81206">
        <ele>951.8</ele>
        <time>2021-10-17T09:53:52Z</time>
      </trkpt>
      <trkpt lat="46.30389" lon="5.81208">
        <ele>952</ele>
        <time>2021-10-17T09:53:53Z</time>
      </trkpt>
      <trkpt lat="46.30386" lon="5.81209">
        <ele>952</ele>
        <time>2021-10-17T09:53:54Z</time>
      </trkpt>
      <trkpt lat="46.30383" lon="5.8121">
        <ele>952.4</ele>
        <time>2021-10-17T09:53:55Z</time>
      </trkpt>
      <trkpt lat="46.3038" lon="5.81212">
        <ele>952.6</ele>
        <time>2021-10-17T09:53:56Z</time>
      </trkpt>
      <trkpt lat="46.30376" lon="5.81214">
        <ele>952.8</ele>
        <time>2021-10-17T09:53:57Z</time>
      </trkpt>
      <trkpt lat="46.30373" lon="5.81215">
        <ele>953</ele>
        <time>2021-10-17T09:53:58Z</time>
      </trkpt>
      <trkpt lat="46.3037" lon="5.81215">
        <ele>953.4</ele>
        <time>2021-10-17T09:53:59Z</time>
      </trkpt>
      <trkpt lat="46.30367" lon="5.81215">
        <ele>953.6</ele>
        <time>2021-10-17T09:54:00Z</time>
      </trkpt>
      <trkpt lat="46.30363" lon="5.81216">
        <ele>953.8</ele>
        <time>2021-10-17T09:54:01Z</time>
      </trkpt>
      <trkpt lat="46.3036" lon="5.81215">
        <ele>953.8</ele>
        <time>2021-10-17T09:54:02Z</time>
      </trkpt>
      <trkpt lat="46.30357" lon="5.81214">
        <ele>954.2</ele>
        <time>2021-10-17T09:54:03Z</time>
      </trkpt>
      <trkpt lat="46.30354" lon="5.81214">
        <ele>954.4</ele>
        <time>2021-10-17T09:54:04Z</time>
      </trkpt>
      <trkpt lat="46.3035" lon="5.81214">
        <ele>954.4</ele>
        <time>2021-10-17T09:54:05Z</time>
      </trkpt>
      <trkpt lat="46.30347" lon="5.81212">
        <ele>954.8</ele>
        <time>2021-10-17T09:54:06Z</time>
      </trkpt>
      <trkpt lat="46.30344" lon="5.81209">
        <ele>955</ele>
        <time>2021-10-17T09:54:07Z</time>
      </trkpt>
      <trkpt lat="46.30341" lon="5.81207">
        <ele>955</ele>
        <time>2021-10-17T09:54:08Z</time>
      </trkpt>
      <trkpt lat="46.30338" lon="5.81205">
        <ele>955.2</ele>
        <time>2021-10-17T09:54:09Z</time>
      </trkpt>
      <trkpt lat="46.30335" lon="5.81202">
        <ele>955.2</ele>
        <time>2021-10-17T09:54:10Z</time>
      </trkpt>
      <trkpt lat="46.30333" lon="5.81199">
        <ele>955.8</ele>
        <time>2021-10-17T09:54:11Z</time>
      </trkpt>
      <trkpt lat="46.3033" lon="5.81197">
        <ele>956</ele>
        <time>2021-10-17T09:54:12Z</time>
      </trkpt>
      <trkpt lat="46.30328" lon="5.81194">
        <ele>956</ele>
        <time>2021-10-17T09:54:13Z</time>
      </trkpt>
      <trkpt lat="46.30325" lon="5.81191">
        <ele>956.2</ele>
        <time>2021-10-17T09:54:14Z</time>
      </trkpt>
      <trkpt lat="46.30322" lon="5.81188">
        <ele>956.2</ele>
        <time>2021-10-17T09:54:15Z</time>
      </trkpt>
      <trkpt lat="46.3032" lon="5.81186">
        <ele>956.6</ele>
        <time>2021-10-17T09:54:16Z</time>
      </trkpt>
      <trkpt lat="46.30317" lon="5.81184">
        <ele>956.6</ele>
        <time>2021-10-17T09:54:17Z</time>
      </trkpt>
      <trkpt lat="46.30313" lon="5.81182">
        <ele>956.8</ele>
        <time>2021-10-17T09:54:18Z</time>
      </trkpt>
      <trkpt lat="46.30311" lon="5.81181">
        <ele>956.8</ele>
        <time>2021-10-17T09:54:19Z</time>
      </trkpt>
      <trkpt lat="46.30308" lon="5.8118">
        <ele>957.2</ele>
        <time>2021-10-17T09:54:20Z</time>
      </trkpt>
      <trkpt lat="46.30305" lon="5.8118">
        <ele>957.2</ele>
        <time>2021-10-17T09:54:21Z</time>
      </trkpt>
      <trkpt lat="46.30302" lon="5.81179">
        <ele>957.4</ele>
        <time>2021-10-17T09:54:22Z</time>
      </trkpt>
      <trkpt lat="46.30299" lon="5.81178">
        <ele>957.4</ele>
        <time>2021-10-17T09:54:23Z</time>
      </trkpt>
      <trkpt lat="46.30296" lon="5.81178">
        <ele>957.6</ele>
        <time>2021-10-17T09:54:24Z</time>
      </trkpt>
      <trkpt lat="46.30293" lon="5.81177">
        <ele>957.6</ele>
        <time>2021-10-17T09:54:25Z</time>
      </trkpt>
      <trkpt lat="46.3029" lon="5.81177">
        <ele>958</ele>
        <time>2021-10-17T09:54:26Z</time>
      </trkpt>
      <trkpt lat="46.30287" lon="5.81177">
        <ele>958</ele>
        <time>2021-10-17T09:54:27Z</time>
      </trkpt>
      <trkpt lat="46.30284" lon="5.81176">
        <ele>958.2</ele>
        <time>2021-10-17T09:54:28Z</time>
      </trkpt>
      <trkpt lat="46.30281" lon="5.81174">
        <ele>958.2</ele>
        <time>2021-10-17T09:54:29Z</time>
      </trkpt>
      <trkpt lat="46.30278" lon="5.81172">
        <ele>958.6</ele>
        <time>2021-10-17T09:54:30Z</time>
      </trkpt>
      <trkpt lat="46.30276" lon="5.8117">
        <ele>958.8</ele>
        <time>2021-10-17T09:54:31Z</time>
      </trkpt>
      <trkpt lat="46.30273" lon="5.81168">
        <ele>958.8</ele>
        <time>2021-10-17T09:54:32Z</time>
      </trkpt>
      <trkpt lat="46.3027" lon="5.81166">
        <ele>959.2</ele>
        <time>2021-10-17T09:54:33Z</time>
      </trkpt>
      <trkpt lat="46.30267" lon="5.81164">
        <ele>959.2</ele>
        <time>2021-10-17T09:54:34Z</time>
      </trkpt>
      <trkpt lat="46.30264" lon="5.81162">
        <ele>959.4</ele>
        <time>2021-10-17T09:54:35Z</time>
      </trkpt>
      <trkpt lat="46.30262" lon="5.81161">
        <ele>959.4</ele>
        <time>2021-10-17T09:54:36Z</time>
      </trkpt>
      <trkpt lat="46.30259" lon="5.81159">
        <ele>959.8</ele>
        <time>2021-10-17T09:54:37Z</time>
      </trkpt>
      <trkpt lat="46.30256" lon="5.81156">
        <ele>959.8</ele>
        <time>2021-10-17T09:54:38Z</time>
      </trkpt>
      <trkpt lat="46.30253" lon="5.81153">
        <ele>960</ele>
        <time>2021-10-17T09:54:39Z</time>
      </trkpt>
      <trkpt lat="46.3025" lon="5.8115">
        <ele>960</ele>
        <time>2021-10-17T09:54:40Z</time>
      </trkpt>
      <trkpt lat="46.30248" lon="5.81147">
        <ele>960.4</ele>
        <time>2021-10-17T09:54:41Z</time>
      </trkpt>
      <trkpt lat="46.30245" lon="5.81144">
        <ele>960.4</ele>
        <time>2021-10-17T09:54:42Z</time>
      </trkpt>
      <trkpt lat="46.30242" lon="5.81141">
        <ele>960.6</ele>
        <time>2021-10-17T09:54:43Z</time>
      </trkpt>
      <trkpt lat="46.30239" lon="5.81138">
        <ele>960.6</ele>
        <time>2021-10-17T09:54:44Z</time>
      </trkpt>
      <trkpt lat="46.30237" lon="5.81135">
        <ele>961</ele>
        <time>2021-10-17T09:54:45Z</time>
      </trkpt>
      <trkpt lat="46.30234" lon="5.81133">
        <ele>961</ele>
        <time>2021-10-17T09:54:46Z</time>
      </trkpt>
      <trkpt lat="46.30231" lon="5.8113">
        <ele>961.2</ele>
        <time>2021-10-17T09:54:47Z</time>
      </trkpt>
      <trkpt lat="46.30229" lon="5.81127">
        <ele>961.2</ele>
        <time>2021-10-17T09:54:48Z</time>
      </trkpt>
      <trkpt lat="46.30226" lon="5.81124">
        <ele>961.8</ele>
        <time>2021-10-17T09:54:49Z</time>
      </trkpt>
      <trkpt lat="46.30224" lon="5.81121">
        <ele>962</ele>
        <time>2021-10-17T09:54:50Z</time>
      </trkpt>
      <trkpt lat="46.30221" lon="5.81118">
        <ele>962</ele>
        <time>2021-10-17T09:54:51Z</time>
      </trkpt>
      <trkpt lat="46.30219" lon="5.81116">
        <ele>962.4</ele>
        <time>2021-10-17T09:54:52Z</time>
      </trkpt>
      <trkpt lat="46.30216" lon="5.81113">
        <ele>962.6</ele>
        <time>2021-10-17T09:54:53Z</time>
      </trkpt>
      <trkpt lat="46.30213" lon="5.81111">
        <ele>962.8</ele>
        <time>2021-10-17T09:54:54Z</time>
      </trkpt>
      <trkpt lat="46.30211" lon="5.81108">
        <ele>963.2</ele>
        <time>2021-10-17T09:54:55Z</time>
      </trkpt>
      <trkpt lat="46.30209" lon="5.81106">
        <ele>963.2</ele>
        <time>2021-10-17T09:54:56Z</time>
      </trkpt>
      <trkpt lat="46.30206" lon="5.81104">
        <ele>963.4</ele>
        <time>2021-10-17T09:54:57Z</time>
      </trkpt>
      <trkpt lat="46.30203" lon="5.81101">
        <ele>963.6</ele>
        <time>2021-10-17T09:54:58Z</time>
      </trkpt>
      <trkpt lat="46.30201" lon="5.81098">
        <ele>963.8</ele>
        <time>2021-10-17T09:54:59Z</time>
      </trkpt>
      <trkpt lat="46.30198" lon="5.81095">
        <ele>964</ele>
        <time>2021-10-17T09:55:00Z</time>
      </trkpt>
      <trkpt lat="46.30196" lon="5.81092">
        <ele>964.2</ele>
        <time>2021-10-17T09:55:01Z</time>
      </trkpt>
      <trkpt lat="46.30194" lon="5.81089">
        <ele>964.4</ele>
        <time>2021-10-17T09:55:02Z</time>
      </trkpt>
      <trkpt lat="46.30191" lon="5.81086">
        <ele>964.4</ele>
        <time>2021-10-17T09:55:03Z</time>
      </trkpt>
      <trkpt lat="46.30189" lon="5.81084">
        <ele>964.8</ele>
        <time>2021-10-17T09:55:04Z</time>
      </trkpt>
      <trkpt lat="46.30186" lon="5.81081">
        <ele>965</ele>
        <time>2021-10-17T09:55:05Z</time>
      </trkpt>
      <trkpt lat="46.30183" lon="5.81079">
        <ele>965</ele>
        <time>2021-10-17T09:55:06Z</time>
      </trkpt>
      <trkpt lat="46.30181" lon="5.81076">
        <ele>965.4</ele>
        <time>2021-10-17T09:55:07Z</time>
      </trkpt>
      <trkpt lat="46.30178" lon="5.81074">
        <ele>965.8</ele>
        <time>2021-10-17T09:55:08Z</time>
      </trkpt>
      <trkpt lat="46.30175" lon="5.81072">
        <ele>966</ele>
        <time>2021-10-17T09:55:09Z</time>
      </trkpt>
      <trkpt lat="46.30173" lon="5.81069">
        <ele>966.2</ele>
        <time>2021-10-17T09:55:10Z</time>
      </trkpt>
      <trkpt lat="46.3017" lon="5.81067">
        <ele>966.4</ele>
        <time>2021-10-17T09:55:11Z</time>
      </trkpt>
      <trkpt lat="46.30167" lon="5.81065">
        <ele>966.8</ele>
        <time>2021-10-17T09:55:12Z</time>
      </trkpt>
      <trkpt lat="46.30164" lon="5.81062">
        <ele>966.8</ele>
        <time>2021-10-17T09:55:13Z</time>
      </trkpt>
      <trkpt lat="46.30161" lon="5.8106">
        <ele>967</ele>
        <time>2021-10-17T09:55:14Z</time>
      </trkpt>
      <trkpt lat="46.30159" lon="5.81058">
        <ele>967.4</ele>
        <time>2021-10-17T09:55:15Z</time>
      </trkpt>
      <trkpt lat="46.30156" lon="5.81056">
        <ele>967.6</ele>
        <time>2021-10-17T09:55:16Z</time>
      </trkpt>
      <trkpt lat="46.30154" lon="5.81054">
        <ele>967.6</ele>
        <time>2021-10-17T09:55:17Z</time>
      </trkpt>
      <trkpt lat="46.30151" lon="5.81051">
        <ele>967.8</ele>
        <time>2021-10-17T09:55:18Z</time>
      </trkpt>
      <trkpt lat="46.30149" lon="5.81049">
        <ele>968.2</ele>
        <time>2021-10-17T09:55:19Z</time>
      </trkpt>
      <trkpt lat="46.30146" lon="5.81047">
        <ele>968.4</ele>
        <time>2021-10-17T09:55:20Z</time>
      </trkpt>
      <trkpt lat="46.30143" lon="5.81045">
        <ele>968.4</ele>
        <time>2021-10-17T09:55:21Z</time>
      </trkpt>
      <trkpt lat="46.30141" lon="5.81043">
        <ele>968.8</ele>
        <time>2021-10-17T09:55:22Z</time>
      </trkpt>
      <trkpt lat="46.30138" lon="5.81041">
        <ele>969</ele>
        <time>2021-10-17T09:55:23Z</time>
      </trkpt>
      <trkpt lat="46.30136" lon="5.81038">
        <ele>969</ele>
        <time>2021-10-17T09:55:24Z</time>
      </trkpt>
      <trkpt lat="46.30134" lon="5.81035">
        <ele>969.2</ele>
        <time>2021-10-17T09:55:25Z</time>
      </trkpt>
      <trkpt lat="46.30132" lon="5.81032">
        <ele>969.6</ele>
        <time>2021-10-17T09:55:26Z</time>
      </trkpt>
      <trkpt lat="46.30131" lon="5.81029">
        <ele>969.6</ele>
        <time>2021-10-17T09:55:27Z</time>
      </trkpt>
      <trkpt lat="46.30129" lon="5.81025">
        <ele>969.8</ele>
        <time>2021-10-17T09:55:28Z</time>
      </trkpt>
      <trkpt lat="46.30128" lon="5.81022">
        <ele>969.8</ele>
        <time>2021-10-17T09:55:29Z</time>
      </trkpt>
      <trkpt lat="46.30127" lon="5.81018">
        <ele>970</ele>
        <time>2021-10-17T09:55:30Z</time>
      </trkpt>
      <trkpt lat="46.30126" lon="5.81015">
        <ele>970</ele>
        <time>2021-10-17T09:55:31Z</time>
      </trkpt>
      <trkpt lat="46.30124" lon="5.81012">
        <ele>970.4</ele>
        <time>2021-10-17T09:55:32Z</time>
      </trkpt>
      <trkpt lat="46.30123" lon="5.81009">
        <ele>970.6</ele>
        <time>2021-10-17T09:55:33Z</time>
      </trkpt>
      <trkpt lat="46.30122" lon="5.81005">
        <ele>970.8</ele>
        <time>2021-10-17T09:55:34Z</time>
      </trkpt>
      <trkpt lat="46.30121" lon="5.81001">
        <ele>971</ele>
        <time>2021-10-17T09:55:35Z</time>
      </trkpt>
      <trkpt lat="46.3012" lon="5.80997">
        <ele>971.2</ele>
        <time>2021-10-17T09:55:36Z</time>
      </trkpt>
      <trkpt lat="46.30119" lon="5.80993">
        <ele>971.6</ele>
        <time>2021-10-17T09:55:37Z</time>
      </trkpt>
      <trkpt lat="46.30118" lon="5.80989">
        <ele>971.8</ele>
        <time>2021-10-17T09:55:38Z</time>
      </trkpt>
      <trkpt lat="46.30116" lon="5.80985">
        <ele>972</ele>
        <time>2021-10-17T09:55:39Z</time>
      </trkpt>
      <trkpt lat="46.30115" lon="5.80981">
        <ele>972.4</ele>
        <time>2021-10-17T09:55:40Z</time>
      </trkpt>
      <trkpt lat="46.30114" lon="5.80977">
        <ele>972.6</ele>
        <time>2021-10-17T09:55:41Z</time>
      </trkpt>
      <trkpt lat="46.30113" lon="5.80973">
        <ele>973</ele>
        <time>2021-10-17T09:55:42Z</time>
      </trkpt>
      <trkpt lat="46.30112" lon="5.80969">
        <ele>973.2</ele>
        <time>2021-10-17T09:55:43Z</time>
      </trkpt>
      <trkpt lat="46.30111" lon="5.80966">
        <ele>973.4</ele>
        <time>2021-10-17T09:55:44Z</time>
      </trkpt>
      <trkpt lat="46.3011" lon="5.80963">
        <ele>973.6</ele>
        <time>2021-10-17T09:55:45Z</time>
      </trkpt>
      <trkpt lat="46.30109" lon="5.80959">
        <ele>973.6</ele>
        <time>2021-10-17T09:55:46Z</time>
      </trkpt>
      <trkpt lat="46.30108" lon="5.80956">
        <ele>974</ele>
        <time>2021-10-17T09:55:47Z</time>
      </trkpt>
      <trkpt lat="46.30107" lon="5.80952">
        <ele>974</ele>
        <time>2021-10-17T09:55:48Z</time>
      </trkpt>
      <trkpt lat="46.30106" lon="5.80949">
        <ele>974.4</ele>
        <time>2021-10-17T09:55:49Z</time>
      </trkpt>
      <trkpt lat="46.30105" lon="5.80945">
        <ele>974.4</ele>
        <time>2021-10-17T09:55:50Z</time>
      </trkpt>
      <trkpt lat="46.30105" lon="5.80942">
        <ele>974.8</ele>
        <time>2021-10-17T09:55:51Z</time>
      </trkpt>
      <trkpt lat="46.30104" lon="5.80938">
        <ele>975</ele>
        <time>2021-10-17T09:55:52Z</time>
      </trkpt>
      <trkpt lat="46.30102" lon="5.80934">
        <ele>975</ele>
        <time>2021-10-17T09:55:53Z</time>
      </trkpt>
      <trkpt lat="46.30101" lon="5.80931">
        <ele>975.4</ele>
        <time>2021-10-17T09:55:54Z</time>
      </trkpt>
      <trkpt lat="46.301" lon="5.80927">
        <ele>975.6</ele>
        <time>2021-10-17T09:55:55Z</time>
      </trkpt>
      <trkpt lat="46.30099" lon="5.80924">
        <ele>975.8</ele>
        <time>2021-10-17T09:55:56Z</time>
      </trkpt>
      <trkpt lat="46.30098" lon="5.8092">
        <ele>976</ele>
        <time>2021-10-17T09:55:57Z</time>
      </trkpt>
      <trkpt lat="46.30097" lon="5.80917">
        <ele>976.4</ele>
        <time>2021-10-17T09:55:58Z</time>
      </trkpt>
      <trkpt lat="46.30095" lon="5.80915">
        <ele>976.6</ele>
        <time>2021-10-17T09:55:59Z</time>
      </trkpt>
      <trkpt lat="46.30094" lon="5.80912">
        <ele>976.8</ele>
        <time>2021-10-17T09:56:00Z</time>
      </trkpt>
      <trkpt lat="46.30092" lon="5.80909">
        <ele>976.8</ele>
        <time>2021-10-17T09:56:01Z</time>
      </trkpt>
      <trkpt lat="46.3009" lon="5.80907">
        <ele>977.2</ele>
        <time>2021-10-17T09:56:02Z</time>
      </trkpt>
      <trkpt lat="46.30088" lon="5.80904">
        <ele>977.4</ele>
        <time>2021-10-17T09:56:03Z</time>
      </trkpt>
      <trkpt lat="46.30086" lon="5.80902">
        <ele>977.4</ele>
        <time>2021-10-17T09:56:04Z</time>
      </trkpt>
      <trkpt lat="46.30085" lon="5.80899">
        <ele>977.8</ele>
        <time>2021-10-17T09:56:05Z</time>
      </trkpt>
      <trkpt lat="46.30083" lon="5.80896">
        <ele>977.8</ele>
        <time>2021-10-17T09:56:06Z</time>
      </trkpt>
      <trkpt lat="46.30081" lon="5.80894">
        <ele>978.2</ele>
        <time>2021-10-17T09:56:07Z</time>
      </trkpt>
      <trkpt lat="46.30079" lon="5.80892">
        <ele>978.4</ele>
        <time>2021-10-17T09:56:08Z</time>
      </trkpt>
      <trkpt lat="46.30076" lon="5.80891">
        <ele>978.4</ele>
        <time>2021-10-17T09:56:09Z</time>
      </trkpt>
      <trkpt lat="46.30074" lon="5.8089">
        <ele>978.8</ele>
        <time>2021-10-17T09:56:10Z</time>
      </trkpt>
      <trkpt lat="46.30073" lon="5.80888">
        <ele>978.8</ele>
        <time>2021-10-17T09:56:11Z</time>
      </trkpt>
      <trkpt lat="46.3007" lon="5.80886">
        <ele>979.2</ele>
        <time>2021-10-17T09:56:12Z</time>
      </trkpt>
      <trkpt lat="46.30068" lon="5.80884">
        <ele>979.2</ele>
        <time>2021-10-17T09:56:13Z</time>
      </trkpt>
      <trkpt lat="46.30066" lon="5.80883">
        <ele>979.6</ele>
        <time>2021-10-17T09:56:14Z</time>
      </trkpt>
      <trkpt lat="46.30064" lon="5.80881">
        <ele>979.8</ele>
        <time>2021-10-17T09:56:15Z</time>
      </trkpt>
      <trkpt lat="46.30061" lon="5.8088">
        <ele>979.8</ele>
        <time>2021-10-17T09:56:16Z</time>
      </trkpt>
      <trkpt lat="46.30059" lon="5.80879">
        <ele>980.2</ele>
        <time>2021-10-17T09:56:17Z</time>
      </trkpt>
      <trkpt lat="46.30056" lon="5.80878">
        <ele>980.2</ele>
        <time>2021-10-17T09:56:18Z</time>
      </trkpt>
      <trkpt lat="46.30054" lon="5.80877">
        <ele>980.6</ele>
        <time>2021-10-17T09:56:19Z</time>
      </trkpt>
      <trkpt lat="46.30052" lon="5.80876">
        <ele>980.6</ele>
        <time>2021-10-17T09:56:20Z</time>
      </trkpt>
      <trkpt lat="46.3005" lon="5.80875">
        <ele>980.8</ele>
        <time>2021-10-17T09:56:21Z</time>
      </trkpt>
      <trkpt lat="46.30048" lon="5.80873">
        <ele>980.8</ele>
        <time>2021-10-17T09:56:22Z</time>
      </trkpt>
      <trkpt lat="46.30045" lon="5.80872">
        <ele>981.2</ele>
        <time>2021-10-17T09:56:23Z</time>
      </trkpt>
      <trkpt lat="46.30043" lon="5.80871">
        <ele>981.2</ele>
        <time>2021-10-17T09:56:24Z</time>
      </trkpt>
      <trkpt lat="46.30041" lon="5.8087">
        <ele>981.4</ele>
        <time>2021-10-17T09:56:25Z</time>
      </trkpt>
      <trkpt lat="46.30039" lon="5.8087">
        <ele>981.8</ele>
        <time>2021-10-17T09:56:26Z</time>
      </trkpt>
      <trkpt lat="46.30037" lon="5.80869">
        <ele>982</ele>
        <time>2021-10-17T09:56:27Z</time>
      </trkpt>
      <trkpt lat="46.30035" lon="5.80868">
        <ele>982.2</ele>
        <time>2021-10-17T09:56:28Z</time>
      </trkpt>
      <trkpt lat="46.30033" lon="5.80867">
        <ele>982.2</ele>
        <time>2021-10-17T09:56:29Z</time>
      </trkpt>
      <trkpt lat="46.30031" lon="5.80867">
        <ele>982.6</ele>
        <time>2021-10-17T09:56:30Z</time>
      </trkpt>
      <trkpt lat="46.30029" lon="5.80866">
        <ele>982.6</ele>
        <time>2021-10-17T09:56:31Z</time>
      </trkpt>
      <trkpt lat="46.30027" lon="5.80866">
        <ele>983</ele>
        <time>2021-10-17T09:56:32Z</time>
      </trkpt>
      <trkpt lat="46.30024" lon="5.80866">
        <ele>983.2</ele>
        <time>2021-10-17T09:56:33Z</time>
      </trkpt>
      <trkpt lat="46.30022" lon="5.80866">
        <ele>983.2</ele>
        <time>2021-10-17T09:56:34Z</time>
      </trkpt>
      <trkpt lat="46.30019" lon="5.80865">
        <ele>983.6</ele>
        <time>2021-10-17T09:56:35Z</time>
      </trkpt>
      <trkpt lat="46.30017" lon="5.80865">
        <ele>983.6</ele>
        <time>2021-10-17T09:56:36Z</time>
      </trkpt>
      <trkpt lat="46.30015" lon="5.80864">
        <ele>983.8</ele>
        <time>2021-10-17T09:56:37Z</time>
      </trkpt>
      <trkpt lat="46.30012" lon="5.80864">
        <ele>983.8</ele>
        <time>2021-10-17T09:56:38Z</time>
      </trkpt>
      <trkpt lat="46.3001" lon="5.80863">
        <ele>984</ele>
        <time>2021-10-17T09:56:39Z</time>
      </trkpt>
      <trkpt lat="46.30008" lon="5.80862">
        <ele>984</ele>
        <time>2021-10-17T09:56:40Z</time>
      </trkpt>
      <trkpt lat="46.30006" lon="5.80862">
        <ele>984.4</ele>
        <time>2021-10-17T09:56:41Z</time>
      </trkpt>
      <trkpt lat="46.30004" lon="5.80861">
        <ele>984.4</ele>
        <time>2021-10-17T09:56:42Z</time>
      </trkpt>
      <trkpt lat="46.30002" lon="5.8086">
        <ele>984.8</ele>
        <time>2021-10-17T09:56:43Z</time>
      </trkpt>
      <trkpt lat="46.29999" lon="5.8086">
        <ele>984.8</ele>
        <time>2021-10-17T09:56:44Z</time>
      </trkpt>
      <trkpt lat="46.29997" lon="5.8086">
        <ele>984.8</ele>
        <time>2021-10-17T09:56:45Z</time>
      </trkpt>
      <trkpt lat="46.29995" lon="5.80859">
        <ele>985</ele>
        <time>2021-10-17T09:56:46Z</time>
      </trkpt>
      <trkpt lat="46.29992" lon="5.80859">
        <ele>985</ele>
        <time>2021-10-17T09:56:47Z</time>
      </trkpt>
      <trkpt lat="46.2999" lon="5.80858">
        <ele>985.4</ele>
        <time>2021-10-17T09:56:48Z</time>
      </trkpt>
      <trkpt lat="46.29987" lon="5.80857">
        <ele>985.6</ele>
        <time>2021-10-17T09:56:49Z</time>
      </trkpt>
      <trkpt lat="46.29985" lon="5.80857">
        <ele>985.6</ele>
        <time>2021-10-17T09:56:50Z</time>
      </trkpt>
      <trkpt lat="46.29982" lon="5.80856">
        <ele>986</ele>
        <time>2021-10-17T09:56:51Z</time>
      </trkpt>
      <trkpt lat="46.2998" lon="5.80855">
        <ele>986</ele>
        <time>2021-10-17T09:56:52Z</time>
      </trkpt>
      <trkpt lat="46.29978" lon="5.80854">
        <ele>986.2</ele>
        <time>2021-10-17T09:56:53Z</time>
      </trkpt>
      <trkpt lat="46.29976" lon="5.80853">
        <ele>986.2</ele>
        <time>2021-10-17T09:56:54Z</time>
      </trkpt>
      <trkpt lat="46.29973" lon="5.80853">
        <ele>986.6</ele>
        <time>2021-10-17T09:56:55Z</time>
      </trkpt>
      <trkpt lat="46.29971" lon="5.80851">
        <ele>986.6</ele>
        <time>2021-10-17T09:56:56Z</time>
      </trkpt>
      <trkpt lat="46.29968" lon="5.8085">
        <ele>986.8</ele>
        <time>2021-10-17T09:56:57Z</time>
      </trkpt>
      <trkpt lat="46.29965" lon="5.80849">
        <ele>986.8</ele>
        <time>2021-10-17T09:56:58Z</time>
      </trkpt>
      <trkpt lat="46.29962" lon="5.80848">
        <ele>987</ele>
        <time>2021-10-17T09:56:59Z</time>
      </trkpt>
      <trkpt lat="46.29959" lon="5.80847">
        <ele>987</ele>
        <time>2021-10-17T09:57:00Z</time>
      </trkpt>
      <trkpt lat="46.29957" lon="5.80845">
        <ele>987</ele>
        <time>2021-10-17T09:57:01Z</time>
      </trkpt>
      <trkpt lat="46.29954" lon="5.80844">
        <ele>987.4</ele>
        <time>2021-10-17T09:57:02Z</time>
      </trkpt>
      <trkpt lat="46.29951" lon="5.80844">
        <ele>987.4</ele>
        <time>2021-10-17T09:57:03Z</time>
      </trkpt>
      <trkpt lat="46.29948" lon="5.80843">
        <ele>987.6</ele>
        <time>2021-10-17T09:57:04Z</time>
      </trkpt>
      <trkpt lat="46.29945" lon="5.80842">
        <ele>987.6</ele>
        <time>2021-10-17T09:57:05Z</time>
      </trkpt>
      <trkpt lat="46.29942" lon="5.80842">
        <ele>987.8</ele>
        <time>2021-10-17T09:57:06Z</time>
      </trkpt>
      <trkpt lat="46.29939" lon="5.80841">
        <ele>987.8</ele>
        <time>2021-10-17T09:57:07Z</time>
      </trkpt>
      <trkpt lat="46.29936" lon="5.80839">
        <ele>988</ele>
        <time>2021-10-17T09:57:08Z</time>
      </trkpt>
      <trkpt lat="46.29934" lon="5.80838">
        <ele>988</ele>
        <time>2021-10-17T09:57:09Z</time>
      </trkpt>
      <trkpt lat="46.2993" lon="5.80836">
        <ele>988</ele>
        <time>2021-10-17T09:57:10Z</time>
      </trkpt>
      <trkpt lat="46.29927" lon="5.80835">
        <ele>988.4</ele>
        <time>2021-10-17T09:57:11Z</time>
      </trkpt>
      <trkpt lat="46.29924" lon="5.80834">
        <ele>988.4</ele>
        <time>2021-10-17T09:57:12Z</time>
      </trkpt>
      <trkpt lat="46.2992" lon="5.80832">
        <ele>988.4</ele>
        <time>2021-10-17T09:57:13Z</time>
      </trkpt>
      <trkpt lat="46.29917" lon="5.8083">
        <ele>988.6</ele>
        <time>2021-10-17T09:57:14Z</time>
      </trkpt>
      <trkpt lat="46.29914" lon="5.80827">
        <ele>988.6</ele>
        <time>2021-10-17T09:57:15Z</time>
      </trkpt>
      <trkpt lat="46.29912" lon="5.80825">
        <ele>988.6</ele>
        <time>2021-10-17T09:57:16Z</time>
      </trkpt>
      <trkpt lat="46.29909" lon="5.80822">
        <ele>989</ele>
        <time>2021-10-17T09:57:17Z</time>
      </trkpt>
      <trkpt lat="46.29906" lon="5.80819">
        <ele>989</ele>
        <time>2021-10-17T09:57:18Z</time>
      </trkpt>
      <trkpt lat="46.29904" lon="5.80816">
        <ele>989.2</ele>
        <time>2021-10-17T09:57:19Z</time>
      </trkpt>
      <trkpt lat="46.29901" lon="5.80814">
        <ele>989.2</ele>
        <time>2021-10-17T09:57:20Z</time>
      </trkpt>
      <trkpt lat="46.29898" lon="5.80811">
        <ele>989.4</ele>
        <time>2021-10-17T09:57:21Z</time>
      </trkpt>
      <trkpt lat="46.29896" lon="5.80808">
        <ele>989.4</ele>
        <time>2021-10-17T09:57:22Z</time>
      </trkpt>
      <trkpt lat="46.29893" lon="5.80805">
        <ele>989.6</ele>
        <time>2021-10-17T09:57:23Z</time>
      </trkpt>
      <trkpt lat="46.29891" lon="5.80803">
        <ele>989.8</ele>
        <time>2021-10-17T09:57:24Z</time>
      </trkpt>
      <trkpt lat="46.29888" lon="5.808">
        <ele>989.8</ele>
        <time>2021-10-17T09:57:25Z</time>
      </trkpt>
      <trkpt lat="46.29886" lon="5.80797">
        <ele>990.2</ele>
        <time>2021-10-17T09:57:26Z</time>
      </trkpt>
      <trkpt lat="46.29883" lon="5.80794">
        <ele>990.2</ele>
        <time>2021-10-17T09:57:27Z</time>
      </trkpt>
      <trkpt lat="46.29881" lon="5.80791">
        <ele>990.4</ele>
        <time>2021-10-17T09:57:28Z</time>
      </trkpt>
      <trkpt lat="46.29879" lon="5.80787">
        <ele>990.4</ele>
        <time>2021-10-17T09:57:29Z</time>
      </trkpt>
      <trkpt lat="46.29876" lon="5.80785">
        <ele>990.8</ele>
        <time>2021-10-17T09:57:30Z</time>
      </trkpt>
      <trkpt lat="46.29873" lon="5.80782">
        <ele>990.8</ele>
        <time>2021-10-17T09:57:31Z</time>
      </trkpt>
      <trkpt lat="46.29871" lon="5.80778">
        <ele>991</ele>
        <time>2021-10-17T09:57:32Z</time>
      </trkpt>
      <trkpt lat="46.29867" lon="5.80776">
        <ele>991</ele>
        <time>2021-10-17T09:57:33Z</time>
      </trkpt>
      <trkpt lat="46.29864" lon="5.80773">
        <ele>991</ele>
        <time>2021-10-17T09:57:34Z</time>
      </trkpt>
      <trkpt lat="46.29861" lon="5.80771">
        <ele>991</ele>
        <time>2021-10-17T09:57:35Z</time>
      </trkpt>
      <trkpt lat="46.29857" lon="5.80768">
        <ele>991.2</ele>
        <time>2021-10-17T09:57:36Z</time>
      </trkpt>
      <trkpt lat="46.29855" lon="5.80765">
        <ele>991.2</ele>
        <time>2021-10-17T09:57:37Z</time>
      </trkpt>
      <trkpt lat="46.29852" lon="5.80762">
        <ele>991.4</ele>
        <time>2021-10-17T09:57:38Z</time>
      </trkpt>
      <trkpt lat="46.29849" lon="5.80758">
        <ele>991.4</ele>
        <time>2021-10-17T09:57:39Z</time>
      </trkpt>
      <trkpt lat="46.29846" lon="5.80756">
        <ele>991.6</ele>
        <time>2021-10-17T09:57:40Z</time>
      </trkpt>
      <trkpt lat="46.29844" lon="5.80753">
        <ele>991.6</ele>
        <time>2021-10-17T09:57:41Z</time>
      </trkpt>
      <trkpt lat="46.29841" lon="5.80749">
        <ele>992</ele>
        <time>2021-10-17T09:57:42Z</time>
      </trkpt>
      <trkpt lat="46.29839" lon="5.80747">
        <ele>992</ele>
        <time>2021-10-17T09:57:43Z</time>
      </trkpt>
      <trkpt lat="46.29836" lon="5.80744">
        <ele>992.2</ele>
        <time>2021-10-17T09:57:44Z</time>
      </trkpt>
      <trkpt lat="46.29833" lon="5.80741">
        <ele>992.2</ele>
        <time>2021-10-17T09:57:45Z</time>
      </trkpt>
      <trkpt lat="46.29831" lon="5.80738">
        <ele>992.4</ele>
        <time>2021-10-17T09:57:46Z</time>
      </trkpt>
      <trkpt lat="46.29828" lon="5.80735">
        <ele>992.4</ele>
        <time>2021-10-17T09:57:47Z</time>
      </trkpt>
      <trkpt lat="46.29825" lon="5.80732">
        <ele>992.6</ele>
        <time>2021-10-17T09:57:48Z</time>
      </trkpt>
      <trkpt lat="46.29823" lon="5.80729">
        <ele>992.6</ele>
        <time>2021-10-17T09:57:49Z</time>
      </trkpt>
      <trkpt lat="46.29821" lon="5.80725">
        <ele>993</ele>
        <time>2021-10-17T09:57:50Z</time>
      </trkpt>
      <trkpt lat="46.29818" lon="5.80722">
        <ele>993</ele>
        <time>2021-10-17T09:57:51Z</time>
      </trkpt>
      <trkpt lat="46.29815" lon="5.80719">
        <ele>993.2</ele>
        <time>2021-10-17T09:57:52Z</time>
      </trkpt>
      <trkpt lat="46.29813" lon="5.80716">
        <ele>993.2</ele>
        <time>2021-10-17T09:57:53Z</time>
      </trkpt>
      <trkpt lat="46.2981" lon="5.80713">
        <ele>993.6</ele>
        <time>2021-10-17T09:57:54Z</time>
      </trkpt>
      <trkpt lat="46.29808" lon="5.8071">
        <ele>993.6</ele>
        <time>2021-10-17T09:57:55Z</time>
      </trkpt>
      <trkpt lat="46.29806" lon="5.80707">
        <ele>993.8</ele>
        <time>2021-10-17T09:57:56Z</time>
      </trkpt>
      <trkpt lat="46.29803" lon="5.80704">
        <ele>993.8</ele>
        <time>2021-10-17T09:57:57Z</time>
      </trkpt>
      <trkpt lat="46.29801" lon="5.80701">
        <ele>994.2</ele>
        <time>2021-10-17T09:57:58Z</time>
      </trkpt>
      <trkpt lat="46.29799" lon="5.80698">
        <ele>994.2</ele>
        <time>2021-10-17T09:57:59Z</time>
      </trkpt>
      <trkpt lat="46.29796" lon="5.80695">
        <ele>994.2</ele>
        <time>2021-10-17T09:58:00Z</time>
      </trkpt>
      <trkpt lat="46.29794" lon="5.80692">
        <ele>994.6</ele>
        <time>2021-10-17T09:58:01Z</time>
      </trkpt>
      <trkpt lat="46.29791" lon="5.8069">
        <ele>994.6</ele>
        <time>2021-10-17T09:58:02Z</time>
      </trkpt>
      <trkpt lat="46.29789" lon="5.80687">
        <ele>995</ele>
        <time>2021-10-17T09:58:03Z</time>
      </trkpt>
      <trkpt lat="46.29786" lon="5.80684">
        <ele>995.2</ele>
        <time>2021-10-17T09:58:04Z</time>
      </trkpt>
      <trkpt lat="46.29784" lon="5.80681">
        <ele>995.2</ele>
        <time>2021-10-17T09:58:05Z</time>
      </trkpt>
      <trkpt lat="46.29782" lon="5.80678">
        <ele>995.6</ele>
        <time>2021-10-17T09:58:06Z</time>
      </trkpt>
      <trkpt lat="46.2978" lon="5.80675">
        <ele>995.6</ele>
        <time>2021-10-17T09:58:07Z</time>
      </trkpt>
      <trkpt lat="46.29778" lon="5.80672">
        <ele>995.8</ele>
        <time>2021-10-17T09:58:08Z</time>
      </trkpt>
      <trkpt lat="46.29775" lon="5.80669">
        <ele>995.8</ele>
        <time>2021-10-17T09:58:09Z</time>
      </trkpt>
      <trkpt lat="46.29773" lon="5.80666">
        <ele>996.2</ele>
        <time>2021-10-17T09:58:10Z</time>
      </trkpt>
      <trkpt lat="46.2977" lon="5.80664">
        <ele>996.4</ele>
        <time>2021-10-17T09:58:11Z</time>
      </trkpt>
      <trkpt lat="46.29768" lon="5.80661">
        <ele>996.4</ele>
        <time>2021-10-17T09:58:12Z</time>
      </trkpt>
      <trkpt lat="46.29766" lon="5.80658">
        <ele>996.8</ele>
        <time>2021-10-17T09:58:13Z</time>
      </trkpt>
      <trkpt lat="46.29763" lon="5.80656">
        <ele>996.8</ele>
        <time>2021-10-17T09:58:14Z</time>
      </trkpt>
      <trkpt lat="46.29761" lon="5.80653">
        <ele>997</ele>
        <time>2021-10-17T09:58:15Z</time>
      </trkpt>
      <trkpt lat="46.29758" lon="5.80651">
        <ele>997.2</ele>
        <time>2021-10-17T09:58:16Z</time>
      </trkpt>
      <trkpt lat="46.29756" lon="5.80649">
        <ele>997.2</ele>
        <time>2021-10-17T09:58:17Z</time>
      </trkpt>
      <trkpt lat="46.29753" lon="5.80647">
        <ele>997.6</ele>
        <time>2021-10-17T09:58:18Z</time>
      </trkpt>
      <trkpt lat="46.29751" lon="5.80645">
        <ele>997.6</ele>
        <time>2021-10-17T09:58:19Z</time>
      </trkpt>
      <trkpt lat="46.29748" lon="5.80642">
        <ele>998</ele>
        <time>2021-10-17T09:58:20Z</time>
      </trkpt>
      <trkpt lat="46.29745" lon="5.8064">
        <ele>998</ele>
        <time>2021-10-17T09:58:21Z</time>
      </trkpt>
      <trkpt lat="46.29742" lon="5.80639">
        <ele>998.4</ele>
        <time>2021-10-17T09:58:22Z</time>
      </trkpt>
      <trkpt lat="46.29739" lon="5.80637">
        <ele>998.6</ele>
        <time>2021-10-17T09:58:23Z</time>
      </trkpt>
      <trkpt lat="46.29736" lon="5.80636">
        <ele>998.6</ele>
        <time>2021-10-17T09:58:24Z</time>
      </trkpt>
      <trkpt lat="46.29733" lon="5.80634">
        <ele>998.8</ele>
        <time>2021-10-17T09:58:25Z</time>
      </trkpt>
      <trkpt lat="46.29731" lon="5.80633">
        <ele>998.8</ele>
        <time>2021-10-17T09:58:26Z</time>
      </trkpt>
      <trkpt lat="46.29728" lon="5.80631">
        <ele>998.8</ele>
        <time>2021-10-17T09:58:27Z</time>
      </trkpt>
      <trkpt lat="46.29725" lon="5.80629">
        <ele>999</ele>
        <time>2021-10-17T09:58:28Z</time>
      </trkpt>
      <trkpt lat="46.29723" lon="5.80628">
        <ele>999.4</ele>
        <time>2021-10-17T09:58:29Z</time>
      </trkpt>
      <trkpt lat="46.2972" lon="5.80627">
        <ele>999.6</ele>
        <time>2021-10-17T09:58:30Z</time>
      </trkpt>
      <trkpt lat="46.29717" lon="5.80626">
        <ele>999.6</ele>
        <time>2021-10-17T09:58:31Z</time>
      </trkpt>
      <trkpt lat="46.29714" lon="5.80625">
        <ele>999.8</ele>
        <time>2021-10-17T09:58:32Z</time>
      </trkpt>
      <trkpt lat="46.29711" lon="5.80623">
        <ele>999.8</ele>
        <time>2021-10-17T09:58:33Z</time>
      </trkpt>
      <trkpt lat="46.29708" lon="5.80622">
        <ele>1000.2</ele>
        <time>2021-10-17T09:58:34Z</time>
      </trkpt>
      <trkpt lat="46.29705" lon="5.80621">
        <ele>1000.2</ele>
        <time>2021-10-17T09:58:35Z</time>
      </trkpt>
      <trkpt lat="46.29702" lon="5.8062">
        <ele>1000.4</ele>
        <time>2021-10-17T09:58:36Z</time>
      </trkpt>
      <trkpt lat="46.29699" lon="5.80619">
        <ele>1000.4</ele>
        <time>2021-10-17T09:58:37Z</time>
      </trkpt>
      <trkpt lat="46.29697" lon="5.80618">
        <ele>1000.8</ele>
        <time>2021-10-17T09:58:38Z</time>
      </trkpt>
      <trkpt lat="46.29694" lon="5.80617">
        <ele>1001</ele>
        <time>2021-10-17T09:58:39Z</time>
      </trkpt>
      <trkpt lat="46.29691" lon="5.80616">
        <ele>1001</ele>
        <time>2021-10-17T09:58:40Z</time>
      </trkpt>
      <trkpt lat="46.29688" lon="5.80614">
        <ele>1001.4</ele>
        <time>2021-10-17T09:58:41Z</time>
      </trkpt>
      <trkpt lat="46.29686" lon="5.80613">
        <ele>1001.4</ele>
        <time>2021-10-17T09:58:42Z</time>
      </trkpt>
      <trkpt lat="46.29683" lon="5.80612">
        <ele>1001.8</ele>
        <time>2021-10-17T09:58:43Z</time>
      </trkpt>
      <trkpt lat="46.2968" lon="5.80611">
        <ele>1001.8</ele>
        <time>2021-10-17T09:58:44Z</time>
      </trkpt>
      <trkpt lat="46.29677" lon="5.8061">
        <ele>1002</ele>
        <time>2021-10-17T09:58:45Z</time>
      </trkpt>
      <trkpt lat="46.29675" lon="5.80608">
        <ele>1002</ele>
        <time>2021-10-17T09:58:46Z</time>
      </trkpt>
      <trkpt lat="46.29672" lon="5.80608">
        <ele>1002.2</ele>
        <time>2021-10-17T09:58:47Z</time>
      </trkpt>
      <trkpt lat="46.29669" lon="5.80607">
        <ele>1002.2</ele>
        <time>2021-10-17T09:58:48Z</time>
      </trkpt>
      <trkpt lat="46.29666" lon="5.80606">
        <ele>1002.6</ele>
        <time>2021-10-17T09:58:49Z</time>
      </trkpt>
      <trkpt lat="46.29663" lon="5.80605">
        <ele>1002.6</ele>
        <time>2021-10-17T09:58:50Z</time>
      </trkpt>
      <trkpt lat="46.2966" lon="5.80605">
        <ele>1002.8</ele>
        <time>2021-10-17T09:58:51Z</time>
      </trkpt>
      <trkpt lat="46.29657" lon="5.80604">
        <ele>1002.8</ele>
        <time>2021-10-17T09:58:52Z</time>
      </trkpt>
      <trkpt lat="46.29654" lon="5.80603">
        <ele>1003</ele>
        <time>2021-10-17T09:58:53Z</time>
      </trkpt>
      <trkpt lat="46.29652" lon="5.80602">
        <ele>1003</ele>
        <time>2021-10-17T09:58:54Z</time>
      </trkpt>
      <trkpt lat="46.29649" lon="5.80602">
        <ele>1003.4</ele>
        <time>2021-10-17T09:58:55Z</time>
      </trkpt>
      <trkpt lat="46.29646" lon="5.80601">
        <ele>1003.4</ele>
        <time>2021-10-17T09:58:56Z</time>
      </trkpt>
      <trkpt lat="46.29643" lon="5.80599">
        <ele>1003.6</ele>
        <time>2021-10-17T09:58:57Z</time>
      </trkpt>
      <trkpt lat="46.29641" lon="5.80598">
        <ele>1003.8</ele>
        <time>2021-10-17T09:58:58Z</time>
      </trkpt>
      <trkpt lat="46.29638" lon="5.80597">
        <ele>1003.8</ele>
        <time>2021-10-17T09:58:59Z</time>
      </trkpt>
      <trkpt lat="46.29635" lon="5.80597">
        <ele>1003.8</ele>
        <time>2021-10-17T09:59:00Z</time>
      </trkpt>
      <trkpt lat="46.29632" lon="5.80597">
        <ele>1004.2</ele>
        <time>2021-10-17T09:59:01Z</time>
      </trkpt>
      <trkpt lat="46.29629" lon="5.80596">
        <ele>1004.2</ele>
        <time>2021-10-17T09:59:02Z</time>
      </trkpt>
      <trkpt lat="46.29626" lon="5.80595">
        <ele>1004.6</ele>
        <time>2021-10-17T09:59:03Z</time>
      </trkpt>
      <trkpt lat="46.29623" lon="5.80594">
        <ele>1004.6</ele>
        <time>2021-10-17T09:59:04Z</time>
      </trkpt>
      <trkpt lat="46.2962" lon="5.80593">
        <ele>1005</ele>
        <time>2021-10-17T09:59:05Z</time>
      </trkpt>
      <trkpt lat="46.29618" lon="5.80592">
        <ele>1005.2</ele>
        <time>2021-10-17T09:59:06Z</time>
      </trkpt>
      <trkpt lat="46.29615" lon="5.80591">
        <ele>1005.2</ele>
        <time>2021-10-17T09:59:07Z</time>
      </trkpt>
      <trkpt lat="46.29612" lon="5.8059">
        <ele>1005.2</ele>
        <time>2021-10-17T09:59:08Z</time>
      </trkpt>
      <trkpt lat="46.29609" lon="5.80589">
        <ele>1005.6</ele>
        <time>2021-10-17T09:59:09Z</time>
      </trkpt>
      <trkpt lat="46.29607" lon="5.80588">
        <ele>1005.6</ele>
        <time>2021-10-17T09:59:10Z</time>
      </trkpt>
      <trkpt lat="46.29604" lon="5.80588">
        <ele>1006</ele>
        <time>2021-10-17T09:59:11Z</time>
      </trkpt>
      <trkpt lat="46.29601" lon="5.80587">
        <ele>1006</ele>
        <time>2021-10-17T09:59:12Z</time>
      </trkpt>
      <trkpt lat="46.29599" lon="5.80586">
        <ele>1006.2</ele>
        <time>2021-10-17T09:59:13Z</time>
      </trkpt>
      <trkpt lat="46.29596" lon="5.80584">
        <ele>1006.2</ele>
        <time>2021-10-17T09:59:14Z</time>
      </trkpt>
      <trkpt lat="46.29594" lon="5.80584">
        <ele>1006.6</ele>
        <time>2021-10-17T09:59:15Z</time>
      </trkpt>
      <trkpt lat="46.29591" lon="5.80583">
        <ele>1006.6</ele>
        <time>2021-10-17T09:59:16Z</time>
      </trkpt>
      <trkpt lat="46.29588" lon="5.80582">
        <ele>1007</ele>
        <time>2021-10-17T09:59:17Z</time>
      </trkpt>
      <trkpt lat="46.29586" lon="5.80582">
        <ele>1007</ele>
        <time>2021-10-17T09:59:18Z</time>
      </trkpt>
      <trkpt lat="46.29583" lon="5.80581">
        <ele>1007.2</ele>
        <time>2021-10-17T09:59:19Z</time>
      </trkpt>
      <trkpt lat="46.2958" lon="5.80581">
        <ele>1007.2</ele>
        <time>2021-10-17T09:59:20Z</time>
      </trkpt>
      <trkpt lat="46.29577" lon="5.8058">
        <ele>1007.6</ele>
        <time>2021-10-17T09:59:21Z</time>
      </trkpt>
      <trkpt lat="46.29574" lon="5.8058">
        <ele>1007.6</ele>
        <time>2021-10-17T09:59:22Z</time>
      </trkpt>
      <trkpt lat="46.29572" lon="5.80579">
        <ele>1007.6</ele>
        <time>2021-10-17T09:59:23Z</time>
      </trkpt>
      <trkpt lat="46.29569" lon="5.80579">
        <ele>1008</ele>
        <time>2021-10-17T09:59:24Z</time>
      </trkpt>
      <trkpt lat="46.29566" lon="5.80578">
        <ele>1008</ele>
        <time>2021-10-17T09:59:25Z</time>
      </trkpt>
      <trkpt lat="46.29563" lon="5.80578">
        <ele>1008.2</ele>
        <time>2021-10-17T09:59:26Z</time>
      </trkpt>
      <trkpt lat="46.2956" lon="5.80577">
        <ele>1008.2</ele>
        <time>2021-10-17T09:59:27Z</time>
      </trkpt>
      <trkpt lat="46.29557" lon="5.80576">
        <ele>1008.4</ele>
        <time>2021-10-17T09:59:28Z</time>
      </trkpt>
      <trkpt lat="46.29554" lon="5.80575">
        <ele>1008.6</ele>
        <time>2021-10-17T09:59:29Z</time>
      </trkpt>
      <trkpt lat="46.29551" lon="5.80574">
        <ele>1009</ele>
        <time>2021-10-17T09:59:30Z</time>
      </trkpt>
      <trkpt lat="46.29548" lon="5.80573">
        <ele>1009</ele>
        <time>2021-10-17T09:59:31Z</time>
      </trkpt>
      <trkpt lat="46.29545" lon="5.80572">
        <ele>1009.2</ele>
        <time>2021-10-17T09:59:32Z</time>
      </trkpt>
      <trkpt lat="46.29542" lon="5.8057">
        <ele>1009.2</ele>
        <time>2021-10-17T09:59:33Z</time>
      </trkpt>
      <trkpt lat="46.29539" lon="5.80569">
        <ele>1009.6</ele>
        <time>2021-10-17T09:59:34Z</time>
      </trkpt>
      <trkpt lat="46.29536" lon="5.80567">
        <ele>1009.6</ele>
        <time>2021-10-17T09:59:35Z</time>
      </trkpt>
      <trkpt lat="46.29533" lon="5.80566">
        <ele>1009.8</ele>
        <time>2021-10-17T09:59:36Z</time>
      </trkpt>
      <trkpt lat="46.2953" lon="5.80565">
        <ele>1009.8</ele>
        <time>2021-10-17T09:59:37Z</time>
      </trkpt>
      <trkpt lat="46.29527" lon="5.80563">
        <ele>1010</ele>
        <time>2021-10-17T09:59:38Z</time>
      </trkpt>
      <trkpt lat="46.29524" lon="5.80561">
        <ele>1010</ele>
        <time>2021-10-17T09:59:39Z</time>
      </trkpt>
      <trkpt lat="46.29521" lon="5.80559">
        <ele>1010.2</ele>
        <time>2021-10-17T09:59:40Z</time>
      </trkpt>
      <trkpt lat="46.29518" lon="5.80556">
        <ele>1010.2</ele>
        <time>2021-10-17T09:59:41Z</time>
      </trkpt>
      <trkpt lat="46.29515" lon="5.80553">
        <ele>1010.6</ele>
        <time>2021-10-17T09:59:42Z</time>
      </trkpt>
      <trkpt lat="46.29512" lon="5.80551">
        <ele>1010.6</ele>
        <time>2021-10-17T09:59:43Z</time>
      </trkpt>
      <trkpt lat="46.2951" lon="5.80548">
        <ele>1010.8</ele>
        <time>2021-10-17T09:59:44Z</time>
      </trkpt>
      <trkpt lat="46.29507" lon="5.80545">
        <ele>1011.2</ele>
        <time>2021-10-17T09:59:45Z</time>
      </trkpt>
      <trkpt lat="46.29505" lon="5.80542">
        <ele>1011.4</ele>
        <time>2021-10-17T09:59:46Z</time>
      </trkpt>
      <trkpt lat="46.29503" lon="5.80538">
        <ele>1011.6</ele>
        <time>2021-10-17T09:59:47Z</time>
      </trkpt>
      <trkpt lat="46.29502" lon="5.80534">
        <ele>1011.6</ele>
        <time>2021-10-17T09:59:48Z</time>
      </trkpt>
      <trkpt lat="46.295" lon="5.80531">
        <ele>1012</ele>
        <time>2021-10-17T09:59:49Z</time>
      </trkpt>
      <trkpt lat="46.29498" lon="5.80527">
        <ele>1012.4</ele>
        <time>2021-10-17T09:59:50Z</time>
      </trkpt>
      <trkpt lat="46.29497" lon="5.80524">
        <ele>1012.4</ele>
        <time>2021-10-17T09:59:51Z</time>
      </trkpt>
      <trkpt lat="46.29495" lon="5.8052">
        <ele>1012.6</ele>
        <time>2021-10-17T09:59:52Z</time>
      </trkpt>
      <trkpt lat="46.29493" lon="5.80516">
        <ele>1012.6</ele>
        <time>2021-10-17T09:59:53Z</time>
      </trkpt>
      <trkpt lat="46.29491" lon="5.80513">
        <ele>1013</ele>
        <time>2021-10-17T09:59:54Z</time>
      </trkpt>
      <trkpt lat="46.29489" lon="5.80509">
        <ele>1013</ele>
        <time>2021-10-17T09:59:55Z</time>
      </trkpt>
      <trkpt lat="46.29488" lon="5.80505">
        <ele>1013</ele>
        <time>2021-10-17T09:59:56Z</time>
      </trkpt>
      <trkpt lat="46.29486" lon="5.80501">
        <ele>1013.2</ele>
        <time>2021-10-17T09:59:57Z</time>
      </trkpt>
      <trkpt lat="46.29484" lon="5.80497">
        <ele>1013.2</ele>
        <time>2021-10-17T09:59:58Z</time>
      </trkpt>
      <trkpt lat="46.29482" lon="5.80492">
        <ele>1013.2</ele>
        <time>2021-10-17T09:59:59Z</time>
      </trkpt>
      <trkpt lat="46.2948" lon="5.80488">
        <ele>1013.2</ele>
        <time>2021-10-17T10:00:00Z</time>
      </trkpt>
      <trkpt lat="46.29477" lon="5.80484">
        <ele>1013.6</ele>
        <time>2021-10-17T10:00:01Z</time>
      </trkpt>
      <trkpt lat="46.29475" lon="5.8048">
        <ele>1013.6</ele>
        <time>2021-10-17T10:00:02Z</time>
      </trkpt>
      <trkpt lat="46.29473" lon="5.80476">
        <ele>1013.8</ele>
        <time>2021-10-17T10:00:03Z</time>
      </trkpt>
      <trkpt lat="46.2947" lon="5.80472">
        <ele>1013.8</ele>
        <time>2021-10-17T10:00:04Z</time>
      </trkpt>
      <trkpt lat="46.29468" lon="5.80468">
        <ele>1013.8</ele>
        <time>2021-10-17T10:00:05Z</time>
      </trkpt>
      <trkpt lat="46.29465" lon="5.80464">
        <ele>1014</ele>
        <time>2021-10-17T10:00:06Z</time>
      </trkpt>
      <trkpt lat="46.29463" lon="5.8046">
        <ele>1014</ele>
        <time>2021-10-17T10:00:07Z</time>
      </trkpt>
      <trkpt lat="46.2946" lon="5.80457">
        <ele>1014</ele>
        <time>2021-10-17T10:00:08Z</time>
      </trkpt>
      <trkpt lat="46.29458" lon="5.80453">
        <ele>1014.4</ele>
        <time>2021-10-17T10:00:09Z</time>
      </trkpt>
      <trkpt lat="46.29455" lon="5.8045">
        <ele>1014.4</ele>
        <time>2021-10-17T10:00:10Z</time>
      </trkpt>
      <trkpt lat="46.29452" lon="5.80447">
        <ele>1014.6</ele>
        <time>2021-10-17T10:00:11Z</time>
      </trkpt>
      <trkpt lat="46.2945" lon="5.80444">
        <ele>1014.6</ele>
        <time>2021-10-17T10:00:12Z</time>
      </trkpt>
      <trkpt lat="46.29447" lon="5.80442">
        <ele>1015</ele>
        <time>2021-10-17T10:00:13Z</time>
      </trkpt>
      <trkpt lat="46.29445" lon="5.80439">
        <ele>1015</ele>
        <time>2021-10-17T10:00:14Z</time>
      </trkpt>
      <trkpt lat="46.29442" lon="5.80436">
        <ele>1015.2</ele>
        <time>2021-10-17T10:00:15Z</time>
      </trkpt>
      <trkpt lat="46.2944" lon="5.80434">
        <ele>1015.2</ele>
        <time>2021-10-17T10:00:16Z</time>
      </trkpt>
      <trkpt lat="46.29437" lon="5.80431">
        <ele>1015.6</ele>
        <time>2021-10-17T10:00:17Z</time>
      </trkpt>
      <trkpt lat="46.29435" lon="5.80429">
        <ele>1015.6</ele>
        <time>2021-10-17T10:00:18Z</time>
      </trkpt>
      <trkpt lat="46.29432" lon="5.80426">
        <ele>1015.8</ele>
        <time>2021-10-17T10:00:19Z</time>
      </trkpt>
      <trkpt lat="46.2943" lon="5.80424">
        <ele>1015.8</ele>
        <time>2021-10-17T10:00:20Z</time>
      </trkpt>
      <trkpt lat="46.29428" lon="5.80421">
        <ele>1015.8</ele>
        <time>2021-10-17T10:00:21Z</time>
      </trkpt>
      <trkpt lat="46.29425" lon="5.80418">
        <ele>1016</ele>
        <time>2021-10-17T10:00:22Z</time>
      </trkpt>
      <trkpt lat="46.29422" lon="5.80415">
        <ele>1016</ele>
        <time>2021-10-17T10:00:23Z</time>
      </trkpt>
      <trkpt lat="46.2942" lon="5.80412">
        <ele>1016.4</ele>
        <time>2021-10-17T10:00:24Z</time>
      </trkpt>
      <trkpt lat="46.29417" lon="5.80409">
        <ele>1016.4</ele>
        <time>2021-10-17T10:00:25Z</time>
      </trkpt>
      <trkpt lat="46.29415" lon="5.80407">
        <ele>1016.6</ele>
        <time>2021-10-17T10:00:26Z</time>
      </trkpt>
      <trkpt lat="46.2941" lon="5.80402">
        <ele>1016.6</ele>
        <time>2021-10-17T10:00:27Z</time>
      </trkpt>
      <trkpt lat="46.29408" lon="5.80399">
        <ele>1017</ele>
        <time>2021-10-17T10:00:28Z</time>
      </trkpt>
      <trkpt lat="46.29405" lon="5.80397">
        <ele>1017</ele>
        <time>2021-10-17T10:00:29Z</time>
      </trkpt>
      <trkpt lat="46.29402" lon="5.80394">
        <ele>1017.4</ele>
        <time>2021-10-17T10:00:30Z</time>
      </trkpt>
      <trkpt lat="46.294" lon="5.80391">
        <ele>1017.4</ele>
        <time>2021-10-17T10:00:31Z</time>
      </trkpt>
      <trkpt lat="46.29398" lon="5.80389">
        <ele>1017.4</ele>
        <time>2021-10-17T10:00:32Z</time>
      </trkpt>
      <trkpt lat="46.29395" lon="5.80386">
        <ele>1017.8</ele>
        <time>2021-10-17T10:00:33Z</time>
      </trkpt>
      <trkpt lat="46.29393" lon="5.80384">
        <ele>1017.8</ele>
        <time>2021-10-17T10:00:34Z</time>
      </trkpt>
      <trkpt lat="46.29391" lon="5.80381">
        <ele>1018</ele>
        <time>2021-10-17T10:00:35Z</time>
      </trkpt>
      <trkpt lat="46.29388" lon="5.80378">
        <ele>1018</ele>
        <time>2021-10-17T10:00:36Z</time>
      </trkpt>
      <trkpt lat="46.29386" lon="5.80375">
        <ele>1018.2</ele>
        <time>2021-10-17T10:00:37Z</time>
      </trkpt>
      <trkpt lat="46.29383" lon="5.80373">
        <ele>1018.2</ele>
        <time>2021-10-17T10:00:38Z</time>
      </trkpt>
      <trkpt lat="46.29381" lon="5.8037">
        <ele>1018.6</ele>
        <time>2021-10-17T10:00:39Z</time>
      </trkpt>
      <trkpt lat="46.29378" lon="5.80367">
        <ele>1018.6</ele>
        <time>2021-10-17T10:00:40Z</time>
      </trkpt>
      <trkpt lat="46.29376" lon="5.80364">
        <ele>1019</ele>
        <time>2021-10-17T10:00:41Z</time>
      </trkpt>
      <trkpt lat="46.29373" lon="5.80361">
        <ele>1019</ele>
        <time>2021-10-17T10:00:42Z</time>
      </trkpt>
      <trkpt lat="46.29371" lon="5.80358">
        <ele>1019.2</ele>
        <time>2021-10-17T10:00:43Z</time>
      </trkpt>
      <trkpt lat="46.29368" lon="5.80355">
        <ele>1019.2</ele>
        <time>2021-10-17T10:00:44Z</time>
      </trkpt>
      <trkpt lat="46.29366" lon="5.80352">
        <ele>1019.6</ele>
        <time>2021-10-17T10:00:45Z</time>
      </trkpt>
      <trkpt lat="46.29363" lon="5.8035">
        <ele>1019.6</ele>
        <time>2021-10-17T10:00:46Z</time>
      </trkpt>
      <trkpt lat="46.29361" lon="5.80347">
        <ele>1019.8</ele>
        <time>2021-10-17T10:00:47Z</time>
      </trkpt>
      <trkpt lat="46.29358" lon="5.80344">
        <ele>1019.8</ele>
        <time>2021-10-17T10:00:48Z</time>
      </trkpt>
      <trkpt lat="46.29356" lon="5.80342">
        <ele>1019.8</ele>
        <time>2021-10-17T10:00:49Z</time>
      </trkpt>
      <trkpt lat="46.29353" lon="5.80339">
        <ele>1020.2</ele>
        <time>2021-10-17T10:00:50Z</time>
      </trkpt>
      <trkpt lat="46.2935" lon="5.80337">
        <ele>1020.4</ele>
        <time>2021-10-17T10:00:51Z</time>
      </trkpt>
      <trkpt lat="46.29347" lon="5.80335">
        <ele>1020.6</ele>
        <time>2021-10-17T10:00:52Z</time>
      </trkpt>
      <trkpt lat="46.29344" lon="5.80332">
        <ele>1020.6</ele>
        <time>2021-10-17T10:00:53Z</time>
      </trkpt>
      <trkpt lat="46.29341" lon="5.80331">
        <ele>1021</ele>
        <time>2021-10-17T10:00:54Z</time>
      </trkpt>
      <trkpt lat="46.29338" lon="5.80329">
        <ele>1021</ele>
        <time>2021-10-17T10:00:55Z</time>
      </trkpt>
      <trkpt lat="46.29335" lon="5.80327">
        <ele>1021.2</ele>
        <time>2021-10-17T10:00:56Z</time>
      </trkpt>
      <trkpt lat="46.29332" lon="5.80325">
        <ele>1021.2</ele>
        <time>2021-10-17T10:00:57Z</time>
      </trkpt>
      <trkpt lat="46.29328" lon="5.80323">
        <ele>1021.6</ele>
        <time>2021-10-17T10:00:58Z</time>
      </trkpt>
      <trkpt lat="46.29325" lon="5.80321">
        <ele>1021.8</ele>
        <time>2021-10-17T10:00:59Z</time>
      </trkpt>
      <trkpt lat="46.29322" lon="5.8032">
        <ele>1021.8</ele>
        <time>2021-10-17T10:01:00Z</time>
      </trkpt>
      <trkpt lat="46.29319" lon="5.80318">
        <ele>1022.2</ele>
        <time>2021-10-17T10:01:01Z</time>
      </trkpt>
      <trkpt lat="46.29316" lon="5.80316">
        <ele>1022.2</ele>
        <time>2021-10-17T10:01:02Z</time>
      </trkpt>
      <trkpt lat="46.29314" lon="5.80314">
        <ele>1022.4</ele>
        <time>2021-10-17T10:01:03Z</time>
      </trkpt>
      <trkpt lat="46.29311" lon="5.80312">
        <ele>1022.4</ele>
        <time>2021-10-17T10:01:04Z</time>
      </trkpt>
      <trkpt lat="46.29308" lon="5.8031">
        <ele>1022.8</ele>
        <time>2021-10-17T10:01:05Z</time>
      </trkpt>
      <trkpt lat="46.29305" lon="5.80309">
        <ele>1023</ele>
        <time>2021-10-17T10:01:06Z</time>
      </trkpt>
      <trkpt lat="46.29302" lon="5.80307">
        <ele>1023.2</ele>
        <time>2021-10-17T10:01:07Z</time>
      </trkpt>
      <trkpt lat="46.29299" lon="5.80305">
        <ele>1023.2</ele>
        <time>2021-10-17T10:01:08Z</time>
      </trkpt>
      <trkpt lat="46.29296" lon="5.80304">
        <ele>1023.2</ele>
        <time>2021-10-17T10:01:09Z</time>
      </trkpt>
      <trkpt lat="46.29294" lon="5.80302">
        <ele>1023.6</ele>
        <time>2021-10-17T10:01:10Z</time>
      </trkpt>
      <trkpt lat="46.29291" lon="5.803">
        <ele>1023.6</ele>
        <time>2021-10-17T10:01:11Z</time>
      </trkpt>
      <trkpt lat="46.29288" lon="5.80298">
        <ele>1023.8</ele>
        <time>2021-10-17T10:01:12Z</time>
      </trkpt>
      <trkpt lat="46.29285" lon="5.80297">
        <ele>1023.8</ele>
        <time>2021-10-17T10:01:13Z</time>
      </trkpt>
      <trkpt lat="46.29282" lon="5.80295">
        <ele>1024.2</ele>
        <time>2021-10-17T10:01:14Z</time>
      </trkpt>
      <trkpt lat="46.29279" lon="5.80293">
        <ele>1024.2</ele>
        <time>2021-10-17T10:01:15Z</time>
      </trkpt>
      <trkpt lat="46.29276" lon="5.80291">
        <ele>1024.2</ele>
        <time>2021-10-17T10:01:16Z</time>
      </trkpt>
      <trkpt lat="46.29273" lon="5.80289">
        <ele>1024.4</ele>
        <time>2021-10-17T10:01:17Z</time>
      </trkpt>
      <trkpt lat="46.2927" lon="5.80287">
        <ele>1024.6</ele>
        <time>2021-10-17T10:01:18Z</time>
      </trkpt>
      <trkpt lat="46.29267" lon="5.80285">
        <ele>1024.6</ele>
        <time>2021-10-17T10:01:19Z</time>
      </trkpt>
      <trkpt lat="46.29264" lon="5.80283">
        <ele>1025.2</ele>
        <time>2021-10-17T10:01:20Z</time>
      </trkpt>
      <trkpt lat="46.29261" lon="5.80282">
        <ele>1025.2</ele>
        <time>2021-10-17T10:01:21Z</time>
      </trkpt>
      <trkpt lat="46.29258" lon="5.8028">
        <ele>1025.4</ele>
        <time>2021-10-17T10:01:22Z</time>
      </trkpt>
      <trkpt lat="46.29255" lon="5.80278">
        <ele>1025.6</ele>
        <time>2021-10-17T10:01:23Z</time>
      </trkpt>
      <trkpt lat="46.29252" lon="5.80277">
        <ele>1025.6</ele>
        <time>2021-10-17T10:01:24Z</time>
      </trkpt>
      <trkpt lat="46.2925" lon="5.80275">
        <ele>1026</ele>
        <time>2021-10-17T10:01:25Z</time>
      </trkpt>
      <trkpt lat="46.29247" lon="5.80273">
        <ele>1026</ele>
        <time>2021-10-17T10:01:26Z</time>
      </trkpt>
      <trkpt lat="46.29244" lon="5.80272">
        <ele>1026.2</ele>
        <time>2021-10-17T10:01:27Z</time>
      </trkpt>
      <trkpt lat="46.29241" lon="5.8027">
        <ele>1026.2</ele>
        <time>2021-10-17T10:01:28Z</time>
      </trkpt>
      <trkpt lat="46.29238" lon="5.80268">
        <ele>1026.6</ele>
        <time>2021-10-17T10:01:29Z</time>
      </trkpt>
      <trkpt lat="46.29236" lon="5.80267">
        <ele>1026.6</ele>
        <time>2021-10-17T10:01:30Z</time>
      </trkpt>
      <trkpt lat="46.29233" lon="5.80265">
        <ele>1026.8</ele>
        <time>2021-10-17T10:01:31Z</time>
      </trkpt>
      <trkpt lat="46.2923" lon="5.80264">
        <ele>1026.8</ele>
        <time>2021-10-17T10:01:32Z</time>
      </trkpt>
      <trkpt lat="46.29228" lon="5.80262">
        <ele>1027.2</ele>
        <time>2021-10-17T10:01:33Z</time>
      </trkpt>
      <trkpt lat="46.29225" lon="5.80261">
        <ele>1027.4</ele>
        <time>2021-10-17T10:01:34Z</time>
      </trkpt>
      <trkpt lat="46.29222" lon="5.80259">
        <ele>1027.6</ele>
        <time>2021-10-17T10:01:35Z</time>
      </trkpt>
      <trkpt lat="46.29219" lon="5.80258">
        <ele>1027.6</ele>
        <time>2021-10-17T10:01:36Z</time>
      </trkpt>
      <trkpt lat="46.29216" lon="5.80256">
        <ele>1027.8</ele>
        <time>2021-10-17T10:01:37Z</time>
      </trkpt>
      <trkpt lat="46.29213" lon="5.80254">
        <ele>1027.8</ele>
        <time>2021-10-17T10:01:38Z</time>
      </trkpt>
      <trkpt lat="46.2921" lon="5.80252">
        <ele>1028.2</ele>
        <time>2021-10-17T10:01:39Z</time>
      </trkpt>
      <trkpt lat="46.29206" lon="5.8025">
        <ele>1028.2</ele>
        <time>2021-10-17T10:01:40Z</time>
      </trkpt>
      <trkpt lat="46.29203" lon="5.80248">
        <ele>1028.4</ele>
        <time>2021-10-17T10:01:41Z</time>
      </trkpt>
      <trkpt lat="46.292" lon="5.80247">
        <ele>1028.6</ele>
        <time>2021-10-17T10:01:42Z</time>
      </trkpt>
      <trkpt lat="46.29196" lon="5.80245">
        <ele>1028.6</ele>
        <time>2021-10-17T10:01:43Z</time>
      </trkpt>
      <trkpt lat="46.29193" lon="5.80243">
        <ele>1028.8</ele>
        <time>2021-10-17T10:01:44Z</time>
      </trkpt>
      <trkpt lat="46.2919" lon="5.80241">
        <ele>1028.8</ele>
        <time>2021-10-17T10:01:45Z</time>
      </trkpt>
      <trkpt lat="46.29186" lon="5.80239">
        <ele>1029</ele>
        <time>2021-10-17T10:01:46Z</time>
      </trkpt>
      <trkpt lat="46.29183" lon="5.80237">
        <ele>1029</ele>
        <time>2021-10-17T10:01:47Z</time>
      </trkpt>
      <trkpt lat="46.2918" lon="5.80234">
        <ele>1029.4</ele>
        <time>2021-10-17T10:01:48Z</time>
      </trkpt>
      <trkpt lat="46.29177" lon="5.80232">
        <ele>1029.4</ele>
        <time>2021-10-17T10:01:49Z</time>
      </trkpt>
      <trkpt lat="46.29174" lon="5.80229">
        <ele>1029.6</ele>
        <time>2021-10-17T10:01:50Z</time>
      </trkpt>
      <trkpt lat="46.29171" lon="5.80227">
        <ele>1029.6</ele>
        <time>2021-10-17T10:01:51Z</time>
      </trkpt>
      <trkpt lat="46.29167" lon="5.80225">
        <ele>1030</ele>
        <time>2021-10-17T10:01:52Z</time>
      </trkpt>
      <trkpt lat="46.29164" lon="5.80222">
        <ele>1030</ele>
        <time>2021-10-17T10:01:53Z</time>
      </trkpt>
      <trkpt lat="46.29161" lon="5.80219">
        <ele>1030.2</ele>
        <time>2021-10-17T10:01:54Z</time>
      </trkpt>
      <trkpt lat="46.29158" lon="5.80217">
        <ele>1030.2</ele>
        <time>2021-10-17T10:01:55Z</time>
      </trkpt>
      <trkpt lat="46.29155" lon="5.80214">
        <ele>1030.6</ele>
        <time>2021-10-17T10:01:56Z</time>
      </trkpt>
      <trkpt lat="46.29152" lon="5.80211">
        <ele>1030.6</ele>
        <time>2021-10-17T10:01:57Z</time>
      </trkpt>
      <trkpt lat="46.29148" lon="5.80209">
        <ele>1030.8</ele>
        <time>2021-10-17T10:01:58Z</time>
      </trkpt>
      <trkpt lat="46.29145" lon="5.80206">
        <ele>1030.8</ele>
        <time>2021-10-17T10:01:59Z</time>
      </trkpt>
      <trkpt lat="46.29142" lon="5.80203">
        <ele>1031</ele>
        <time>2021-10-17T10:02:00Z</time>
      </trkpt>
      <trkpt lat="46.29139" lon="5.802">
        <ele>1031</ele>
        <time>2021-10-17T10:02:01Z</time>
      </trkpt>
      <trkpt lat="46.29136" lon="5.80197">
        <ele>1031.2</ele>
        <time>2021-10-17T10:02:02Z</time>
      </trkpt>
      <trkpt lat="46.29133" lon="5.80195">
        <ele>1031.2</ele>
        <time>2021-10-17T10:02:03Z</time>
      </trkpt>
      <trkpt lat="46.29129" lon="5.80192">
        <ele>1031.2</ele>
        <time>2021-10-17T10:02:04Z</time>
      </trkpt>
      <trkpt lat="46.29126" lon="5.80189">
        <ele>1031.4</ele>
        <time>2021-10-17T10:02:05Z</time>
      </trkpt>
      <trkpt lat="46.29123" lon="5.80186">
        <ele>1031.8</ele>
        <time>2021-10-17T10:02:06Z</time>
      </trkpt>
      <trkpt lat="46.2912" lon="5.80183">
        <ele>1031.8</ele>
        <time>2021-10-17T10:02:07Z</time>
      </trkpt>
      <trkpt lat="46.29117" lon="5.8018">
        <ele>1032</ele>
        <time>2021-10-17T10:02:08Z</time>
      </trkpt>
      <trkpt lat="46.29114" lon="5.80177">
        <ele>1032</ele>
        <time>2021-10-17T10:02:09Z</time>
      </trkpt>
      <trkpt lat="46.29111" lon="5.80174">
        <ele>1032.2</ele>
        <time>2021-10-17T10:02:10Z</time>
      </trkpt>
      <trkpt lat="46.29108" lon="5.80171">
        <ele>1032.2</ele>
        <time>2021-10-17T10:02:11Z</time>
      </trkpt>
      <trkpt lat="46.29105" lon="5.80169">
        <ele>1032.6</ele>
        <time>2021-10-17T10:02:12Z</time>
      </trkpt>
      <trkpt lat="46.29102" lon="5.80166">
        <ele>1032.6</ele>
        <time>2021-10-17T10:02:13Z</time>
      </trkpt>
      <trkpt lat="46.29099" lon="5.80163">
        <ele>1032.8</ele>
        <time>2021-10-17T10:02:14Z</time>
      </trkpt>
      <trkpt lat="46.29096" lon="5.8016">
        <ele>1032.8</ele>
        <time>2021-10-17T10:02:15Z</time>
      </trkpt>
      <trkpt lat="46.29093" lon="5.80158">
        <ele>1033</ele>
        <time>2021-10-17T10:02:16Z</time>
      </trkpt>
      <trkpt lat="46.2909" lon="5.80155">
        <ele>1033</ele>
        <time>2021-10-17T10:02:17Z</time>
      </trkpt>
      <trkpt lat="46.29087" lon="5.80152">
        <ele>1033.4</ele>
        <time>2021-10-17T10:02:18Z</time>
      </trkpt>
      <trkpt lat="46.29083" lon="5.80148">
        <ele>1033.4</ele>
        <time>2021-10-17T10:02:19Z</time>
      </trkpt>
      <trkpt lat="46.2908" lon="5.80145">
        <ele>1033.4</ele>
        <time>2021-10-17T10:02:20Z</time>
      </trkpt>
      <trkpt lat="46.29077" lon="5.80142">
        <ele>1033.6</ele>
        <time>2021-10-17T10:02:21Z</time>
      </trkpt>
      <trkpt lat="46.29073" lon="5.80138">
        <ele>1033.6</ele>
        <time>2021-10-17T10:02:22Z</time>
      </trkpt>
      <trkpt lat="46.2907" lon="5.80135">
        <ele>1033.8</ele>
        <time>2021-10-17T10:02:23Z</time>
      </trkpt>
      <trkpt lat="46.29067" lon="5.80132">
        <ele>1033.8</ele>
        <time>2021-10-17T10:02:24Z</time>
      </trkpt>
      <trkpt lat="46.29063" lon="5.80129">
        <ele>1034</ele>
        <time>2021-10-17T10:02:25Z</time>
      </trkpt>
      <trkpt lat="46.2906" lon="5.80126">
        <ele>1034</ele>
        <time>2021-10-17T10:02:26Z</time>
      </trkpt>
      <trkpt lat="46.29057" lon="5.80123">
        <ele>1034</ele>
        <time>2021-10-17T10:02:27Z</time>
      </trkpt>
      <trkpt lat="46.29053" lon="5.8012">
        <ele>1034.4</ele>
        <time>2021-10-17T10:02:28Z</time>
      </trkpt>
      <trkpt lat="46.2905" lon="5.80117">
        <ele>1034.4</ele>
        <time>2021-10-17T10:02:29Z</time>
      </trkpt>
      <trkpt lat="46.29047" lon="5.80114">
        <ele>1034.6</ele>
        <time>2021-10-17T10:02:30Z</time>
      </trkpt>
      <trkpt lat="46.29044" lon="5.80112">
        <ele>1034.6</ele>
        <time>2021-10-17T10:02:31Z</time>
      </trkpt>
      <trkpt lat="46.29041" lon="5.80109">
        <ele>1034.6</ele>
        <time>2021-10-17T10:02:32Z</time>
      </trkpt>
      <trkpt lat="46.29038" lon="5.80106">
        <ele>1035</ele>
        <time>2021-10-17T10:02:33Z</time>
      </trkpt>
      <trkpt lat="46.29035" lon="5.80103">
        <ele>1035</ele>
        <time>2021-10-17T10:02:34Z</time>
      </trkpt>
      <trkpt lat="46.29032" lon="5.80101">
        <ele>1035.2</ele>
        <time>2021-10-17T10:02:35Z</time>
      </trkpt>
      <trkpt lat="46.29029" lon="5.80098">
        <ele>1035.2</ele>
        <time>2021-10-17T10:02:36Z</time>
      </trkpt>
      <trkpt lat="46.29027" lon="5.80095">
        <ele>1035.4</ele>
        <time>2021-10-17T10:02:37Z</time>
      </trkpt>
      <trkpt lat="46.29024" lon="5.80093">
        <ele>1035.4</ele>
        <time>2021-10-17T10:02:38Z</time>
      </trkpt>
      <trkpt lat="46.29021" lon="5.8009">
        <ele>1035.6</ele>
        <time>2021-10-17T10:02:39Z</time>
      </trkpt>
      <trkpt lat="46.29018" lon="5.80087">
        <ele>1035.6</ele>
        <time>2021-10-17T10:02:40Z</time>
      </trkpt>
      <trkpt lat="46.29015" lon="5.80084">
        <ele>1035.8</ele>
        <time>2021-10-17T10:02:41Z</time>
      </trkpt>
      <trkpt lat="46.29012" lon="5.80082">
        <ele>1036.2</ele>
        <time>2021-10-17T10:02:42Z</time>
      </trkpt>
      <trkpt lat="46.29009" lon="5.80079">
        <ele>1036.2</ele>
        <time>2021-10-17T10:02:43Z</time>
      </trkpt>
      <trkpt lat="46.29006" lon="5.80076">
        <ele>1036.2</ele>
        <time>2021-10-17T10:02:44Z</time>
      </trkpt>
      <trkpt lat="46.29003" lon="5.80073">
        <ele>1036.4</ele>
        <time>2021-10-17T10:02:45Z</time>
      </trkpt>
      <trkpt lat="46.29" lon="5.80071">
        <ele>1036.4</ele>
        <time>2021-10-17T10:02:46Z</time>
      </trkpt>
      <trkpt lat="46.28997" lon="5.80068">
        <ele>1036.4</ele>
        <time>2021-10-17T10:02:47Z</time>
      </trkpt>
      <trkpt lat="46.28994" lon="5.80065">
        <ele>1036.6</ele>
        <time>2021-10-17T10:02:48Z</time>
      </trkpt>
      <trkpt lat="46.28992" lon="5.80063">
        <ele>1036.6</ele>
        <time>2021-10-17T10:02:49Z</time>
      </trkpt>
      <trkpt lat="46.28989" lon="5.8006">
        <ele>1037</ele>
        <time>2021-10-17T10:02:50Z</time>
      </trkpt>
      <trkpt lat="46.28986" lon="5.80058">
        <ele>1037</ele>
        <time>2021-10-17T10:02:51Z</time>
      </trkpt>
      <trkpt lat="46.28983" lon="5.80055">
        <ele>1037.2</ele>
        <time>2021-10-17T10:02:52Z</time>
      </trkpt>
      <trkpt lat="46.28981" lon="5.80053">
        <ele>1037.2</ele>
        <time>2021-10-17T10:02:53Z</time>
      </trkpt>
      <trkpt lat="46.28978" lon="5.8005">
        <ele>1037.2</ele>
        <time>2021-10-17T10:02:54Z</time>
      </trkpt>
      <trkpt lat="46.28975" lon="5.80048">
        <ele>1037.4</ele>
        <time>2021-10-17T10:02:55Z</time>
      </trkpt>
      <trkpt lat="46.28972" lon="5.80045">
        <ele>1037.4</ele>
        <time>2021-10-17T10:02:56Z</time>
      </trkpt>
      <trkpt lat="46.28969" lon="5.80043">
        <ele>1037.8</ele>
        <time>2021-10-17T10:02:57Z</time>
      </trkpt>
      <trkpt lat="46.28966" lon="5.8004">
        <ele>1037.8</ele>
        <time>2021-10-17T10:02:58Z</time>
      </trkpt>
      <trkpt lat="46.28963" lon="5.80037">
        <ele>1038</ele>
        <time>2021-10-17T10:02:59Z</time>
      </trkpt>
      <trkpt lat="46.2896" lon="5.80035">
        <ele>1038</ele>
        <time>2021-10-17T10:03:00Z</time>
      </trkpt>
      <trkpt lat="46.28957" lon="5.80032">
        <ele>1038</ele>
        <time>2021-10-17T10:03:01Z</time>
      </trkpt>
      <trkpt lat="46.28954" lon="5.80029">
        <ele>1038.4</ele>
        <time>2021-10-17T10:03:02Z</time>
      </trkpt>
      <trkpt lat="46.28951" lon="5.80027">
        <ele>1038.4</ele>
        <time>2021-10-17T10:03:03Z</time>
      </trkpt>
      <trkpt lat="46.28948" lon="5.80025">
        <ele>1038.6</ele>
        <time>2021-10-17T10:03:04Z</time>
      </trkpt>
      <trkpt lat="46.28945" lon="5.80023">
        <ele>1038.6</ele>
        <time>2021-10-17T10:03:05Z</time>
      </trkpt>
      <trkpt lat="46.28942" lon="5.80021">
        <ele>1038.8</ele>
        <time>2021-10-17T10:03:06Z</time>
      </trkpt>
      <trkpt lat="46.28939" lon="5.80018">
        <ele>1038.8</ele>
        <time>2021-10-17T10:03:07Z</time>
      </trkpt>
      <trkpt lat="46.28936" lon="5.80016">
        <ele>1039</ele>
        <time>2021-10-17T10:03:08Z</time>
      </trkpt>
      <trkpt lat="46.28933" lon="5.80013">
        <ele>1039</ele>
        <time>2021-10-17T10:03:09Z</time>
      </trkpt>
      <trkpt lat="46.2893" lon="5.80011">
        <ele>1039.4</ele>
        <time>2021-10-17T10:03:10Z</time>
      </trkpt>
      <trkpt lat="46.28927" lon="5.80009">
        <ele>1039.4</ele>
        <time>2021-10-17T10:03:11Z</time>
      </trkpt>
      <trkpt lat="46.28924" lon="5.80006">
        <ele>1039.6</ele>
        <time>2021-10-17T10:03:12Z</time>
      </trkpt>
      <trkpt lat="46.28922" lon="5.80004">
        <ele>1039.6</ele>
        <time>2021-10-17T10:03:13Z</time>
      </trkpt>
      <trkpt lat="46.28919" lon="5.80002">
        <ele>1040</ele>
        <time>2021-10-17T10:03:14Z</time>
      </trkpt>
      <trkpt lat="46.28916" lon="5.79999">
        <ele>1040</ele>
        <time>2021-10-17T10:03:15Z</time>
      </trkpt>
      <trkpt lat="46.28913" lon="5.79997">
        <ele>1040.4</ele>
        <time>2021-10-17T10:03:16Z</time>
      </trkpt>
      <trkpt lat="46.2891" lon="5.79995">
        <ele>1040.4</ele>
        <time>2021-10-17T10:03:17Z</time>
      </trkpt>
      <trkpt lat="46.28907" lon="5.79992">
        <ele>1040.6</ele>
        <time>2021-10-17T10:03:18Z</time>
      </trkpt>
      <trkpt lat="46.28904" lon="5.7999">
        <ele>1040.6</ele>
        <time>2021-10-17T10:03:19Z</time>
      </trkpt>
      <trkpt lat="46.28901" lon="5.79987">
        <ele>1040.8</ele>
        <time>2021-10-17T10:03:20Z</time>
      </trkpt>
      <trkpt lat="46.28898" lon="5.79984">
        <ele>1040.8</ele>
        <time>2021-10-17T10:03:21Z</time>
      </trkpt>
      <trkpt lat="46.28895" lon="5.79982">
        <ele>1040.8</ele>
        <time>2021-10-17T10:03:22Z</time>
      </trkpt>
      <trkpt lat="46.28892" lon="5.79979">
        <ele>1040.8</ele>
        <time>2021-10-17T10:03:23Z</time>
      </trkpt>
      <trkpt lat="46.2889" lon="5.79977">
        <ele>1041</ele>
        <time>2021-10-17T10:03:24Z</time>
      </trkpt>
      <trkpt lat="46.28887" lon="5.79974">
        <ele>1041</ele>
        <time>2021-10-17T10:03:25Z</time>
      </trkpt>
      <trkpt lat="46.28884" lon="5.79972">
        <ele>1041.4</ele>
        <time>2021-10-17T10:03:26Z</time>
      </trkpt>
      <trkpt lat="46.28881" lon="5.7997">
        <ele>1041.4</ele>
        <time>2021-10-17T10:03:27Z</time>
      </trkpt>
      <trkpt lat="46.28878" lon="5.79968">
        <ele>1041.8</ele>
        <time>2021-10-17T10:03:28Z</time>
      </trkpt>
      <trkpt lat="46.28876" lon="5.79965">
        <ele>1041.8</ele>
        <time>2021-10-17T10:03:29Z</time>
      </trkpt>
      <trkpt lat="46.28873" lon="5.79962">
        <ele>1041.8</ele>
        <time>2021-10-17T10:03:30Z</time>
      </trkpt>
      <trkpt lat="46.28871" lon="5.79959">
        <ele>1042</ele>
        <time>2021-10-17T10:03:31Z</time>
      </trkpt>
      <trkpt lat="46.28868" lon="5.79956">
        <ele>1042</ele>
        <time>2021-10-17T10:03:32Z</time>
      </trkpt>
      <trkpt lat="46.28865" lon="5.79953">
        <ele>1042.2</ele>
        <time>2021-10-17T10:03:33Z</time>
      </trkpt>
      <trkpt lat="46.28863" lon="5.79951">
        <ele>1042.2</ele>
        <time>2021-10-17T10:03:34Z</time>
      </trkpt>
      <trkpt lat="46.2886" lon="5.79947">
        <ele>1042.4</ele>
        <time>2021-10-17T10:03:35Z</time>
      </trkpt>
      <trkpt lat="46.28858" lon="5.79944">
        <ele>1042.4</ele>
        <time>2021-10-17T10:03:36Z</time>
      </trkpt>
      <trkpt lat="46.28856" lon="5.79941">
        <ele>1042.6</ele>
        <time>2021-10-17T10:03:37Z</time>
      </trkpt>
      <trkpt lat="46.28854" lon="5.79938">
        <ele>1042.6</ele>
        <time>2021-10-17T10:03:38Z</time>
      </trkpt>
      <trkpt lat="46.28852" lon="5.79934">
        <ele>1042.6</ele>
        <time>2021-10-17T10:03:39Z</time>
      </trkpt>
      <trkpt lat="46.2885" lon="5.79931">
        <ele>1042.6</ele>
        <time>2021-10-17T10:03:40Z</time>
      </trkpt>
      <trkpt lat="46.28849" lon="5.79928">
        <ele>1042.6</ele>
        <time>2021-10-17T10:03:41Z</time>
      </trkpt>
      <trkpt lat="46.28847" lon="5.79925">
        <ele>1042.6</ele>
        <time>2021-10-17T10:03:42Z</time>
      </trkpt>
      <trkpt lat="46.28846" lon="5.79923">
        <ele>1042.6</ele>
        <time>2021-10-17T10:03:43Z</time>
      </trkpt>
      <trkpt lat="46.28846" lon="5.79922">
        <ele>1042.6</ele>
        <time>2021-10-17T10:03:44Z</time>
      </trkpt>
      <trkpt lat="46.28841" lon="5.79915">
        <ele>1043</ele>
        <time>2021-10-17T10:10:25Z</time>
      </trkpt>
      <trkpt lat="46.2884" lon="5.79913">
        <ele>1043</ele>
        <time>2021-10-17T10:10:26Z</time>
      </trkpt>
      <trkpt lat="46.28838" lon="5.7991">
        <ele>1043.2</ele>
        <time>2021-10-17T10:10:27Z</time>
      </trkpt>
      <trkpt lat="46.28837" lon="5.79907">
        <ele>1043.2</ele>
        <time>2021-10-17T10:10:28Z</time>
      </trkpt>
      <trkpt lat="46.28836" lon="5.79903">
        <ele>1043.2</ele>
        <time>2021-10-17T10:10:29Z</time>
      </trkpt>
      <trkpt lat="46.28834" lon="5.799">
        <ele>1043.2</ele>
        <time>2021-10-17T10:10:30Z</time>
      </trkpt>
      <trkpt lat="46.28832" lon="5.79896">
        <ele>1043.2</ele>
        <time>2021-10-17T10:10:31Z</time>
      </trkpt>
      <trkpt lat="46.28831" lon="5.79891">
        <ele>1043.2</ele>
        <time>2021-10-17T10:10:32Z</time>
      </trkpt>
      <trkpt lat="46.28829" lon="5.79886">
        <ele>1043</ele>
        <time>2021-10-17T10:10:33Z</time>
      </trkpt>
      <trkpt lat="46.28827" lon="5.79881">
        <ele>1042.8</ele>
        <time>2021-10-17T10:10:34Z</time>
      </trkpt>
      <trkpt lat="46.28826" lon="5.79875">
        <ele>1042.8</ele>
        <time>2021-10-17T10:10:35Z</time>
      </trkpt>
      <trkpt lat="46.28824" lon="5.79869">
        <ele>1042.6</ele>
        <time>2021-10-17T10:10:36Z</time>
      </trkpt>
      <trkpt lat="46.28823" lon="5.79862">
        <ele>1042.6</ele>
        <time>2021-10-17T10:10:37Z</time>
      </trkpt>
      <trkpt lat="46.28821" lon="5.79855">
        <ele>1042.2</ele>
        <time>2021-10-17T10:10:38Z</time>
      </trkpt>
      <trkpt lat="46.2882" lon="5.79847">
        <ele>1042</ele>
        <time>2021-10-17T10:10:39Z</time>
      </trkpt>
      <trkpt lat="46.28818" lon="5.79838">
        <ele>1041.8</ele>
        <time>2021-10-17T10:10:40Z</time>
      </trkpt>
      <trkpt lat="46.28817" lon="5.79828">
        <ele>1041.4</ele>
        <time>2021-10-17T10:10:41Z</time>
      </trkpt>
      <trkpt lat="46.28817" lon="5.79818">
        <ele>1041.2</ele>
        <time>2021-10-17T10:10:42Z</time>
      </trkpt>
      <trkpt lat="46.28816" lon="5.79808">
        <ele>1040.8</ele>
        <time>2021-10-17T10:10:43Z</time>
      </trkpt>
      <trkpt lat="46.28815" lon="5.79797">
        <ele>1040.6</ele>
        <time>2021-10-17T10:10:44Z</time>
      </trkpt>
      <trkpt lat="46.28815" lon="5.79786">
        <ele>1040.2</ele>
        <time>2021-10-17T10:10:45Z</time>
      </trkpt>
      <trkpt lat="46.28815" lon="5.79775">
        <ele>1039.8</ele>
        <time>2021-10-17T10:10:46Z</time>
      </trkpt>
      <trkpt lat="46.28815" lon="5.79763">
        <ele>1039.4</ele>
        <time>2021-10-17T10:10:47Z</time>
      </trkpt>
      <trkpt lat="46.28815" lon="5.79751">
        <ele>1039</ele>
        <time>2021-10-17T10:10:48Z</time>
      </trkpt>
      <trkpt lat="46.28815" lon="5.79739">
        <ele>1038.6</ele>
        <time>2021-10-17T10:10:49Z</time>
      </trkpt>
      <trkpt lat="46.28815" lon="5.79726">
        <ele>1038.2</ele>
        <time>2021-10-17T10:10:50Z</time>
      </trkpt>
      <trkpt lat="46.28815" lon="5.79713">
        <ele>1037.6</ele>
        <time>2021-10-17T10:10:51Z</time>
      </trkpt>
      <trkpt lat="46.28814" lon="5.79699">
        <ele>1037.2</ele>
        <time>2021-10-17T10:10:52Z</time>
      </trkpt>
      <trkpt lat="46.28813" lon="5.79686">
        <ele>1037</ele>
        <time>2021-10-17T10:10:53Z</time>
      </trkpt>
      <trkpt lat="46.28812" lon="5.79672">
        <ele>1036.4</ele>
        <time>2021-10-17T10:10:54Z</time>
      </trkpt>
      <trkpt lat="46.2881" lon="5.79658">
        <ele>1035.8</ele>
        <time>2021-10-17T10:10:55Z</time>
      </trkpt>
      <trkpt lat="46.28808" lon="5.79643">
        <ele>1035.4</ele>
        <time>2021-10-17T10:10:56Z</time>
      </trkpt>
      <trkpt lat="46.28806" lon="5.79629">
        <ele>1034.8</ele>
        <time>2021-10-17T10:10:57Z</time>
      </trkpt>
      <trkpt lat="46.28804" lon="5.79615">
        <ele>1034.4</ele>
        <time>2021-10-17T10:10:58Z</time>
      </trkpt>
      <trkpt lat="46.28802" lon="5.79601">
        <ele>1033.8</ele>
        <time>2021-10-17T10:10:59Z</time>
      </trkpt>
      <trkpt lat="46.28798" lon="5.79587">
        <ele>1033.2</ele>
        <time>2021-10-17T10:11:00Z</time>
      </trkpt>
      <trkpt lat="46.28796" lon="5.79571">
        <ele>1032.6</ele>
        <time>2021-10-17T10:11:01Z</time>
      </trkpt>
      <trkpt lat="46.28793" lon="5.79556">
        <ele>1032</ele>
        <time>2021-10-17T10:11:02Z</time>
      </trkpt>
      <trkpt lat="46.28789" lon="5.79541">
        <ele>1031.4</ele>
        <time>2021-10-17T10:11:03Z</time>
      </trkpt>
      <trkpt lat="46.28785" lon="5.79525">
        <ele>1030.8</ele>
        <time>2021-10-17T10:11:04Z</time>
      </trkpt>
      <trkpt lat="46.28781" lon="5.7951">
        <ele>1030.2</ele>
        <time>2021-10-17T10:11:05Z</time>
      </trkpt>
      <trkpt lat="46.28775" lon="5.79496">
        <ele>1029.6</ele>
        <time>2021-10-17T10:11:06Z</time>
      </trkpt>
      <trkpt lat="46.2877" lon="5.79482">
        <ele>1029</ele>
        <time>2021-10-17T10:11:07Z</time>
      </trkpt>
      <trkpt lat="46.28763" lon="5.79468">
        <ele>1028.4</ele>
        <time>2021-10-17T10:11:08Z</time>
      </trkpt>
      <trkpt lat="46.28758" lon="5.79454">
        <ele>1027.6</ele>
        <time>2021-10-17T10:11:09Z</time>
      </trkpt>
      <trkpt lat="46.28753" lon="5.7944">
        <ele>1027</ele>
        <time>2021-10-17T10:11:10Z</time>
      </trkpt>
      <trkpt lat="46.28747" lon="5.79425">
        <ele>1026.4</ele>
        <time>2021-10-17T10:11:11Z</time>
      </trkpt>
      <trkpt lat="46.28741" lon="5.79411">
        <ele>1025.8</ele>
        <time>2021-10-17T10:11:12Z</time>
      </trkpt>
      <trkpt lat="46.28735" lon="5.79397">
        <ele>1025</ele>
        <time>2021-10-17T10:11:13Z</time>
      </trkpt>
      <trkpt lat="46.28728" lon="5.79383">
        <ele>1024.2</ele>
        <time>2021-10-17T10:11:14Z</time>
      </trkpt>
      <trkpt lat="46.28721" lon="5.79369">
        <ele>1023.6</ele>
        <time>2021-10-17T10:11:15Z</time>
      </trkpt>
      <trkpt lat="46.28713" lon="5.79357">
        <ele>1023</ele>
        <time>2021-10-17T10:11:16Z</time>
      </trkpt>
      <trkpt lat="46.28705" lon="5.79344">
        <ele>1022.6</ele>
        <time>2021-10-17T10:11:17Z</time>
      </trkpt>
      <trkpt lat="46.28697" lon="5.79335">
        <ele>1021.8</ele>
        <time>2021-10-17T10:11:18Z</time>
      </trkpt>
      <trkpt lat="46.28687" lon="5.79326">
        <ele>1021.2</ele>
        <time>2021-10-17T10:11:19Z</time>
      </trkpt>
      <trkpt lat="46.28676" lon="5.79317">
        <ele>1020.6</ele>
        <time>2021-10-17T10:11:20Z</time>
      </trkpt>
      <trkpt lat="46.28667" lon="5.79306">
        <ele>1019.8</ele>
        <time>2021-10-17T10:11:21Z</time>
      </trkpt>
      <trkpt lat="46.28658" lon="5.79294">
        <ele>1019</ele>
        <time>2021-10-17T10:11:22Z</time>
      </trkpt>
      <trkpt lat="46.28649" lon="5.79284">
        <ele>1018.2</ele>
        <time>2021-10-17T10:11:23Z</time>
      </trkpt>
      <trkpt lat="46.2864" lon="5.79273">
        <ele>1017.4</ele>
        <time>2021-10-17T10:11:24Z</time>
      </trkpt>
      <trkpt lat="46.28631" lon="5.79262">
        <ele>1016.6</ele>
        <time>2021-10-17T10:11:25Z</time>
      </trkpt>
      <trkpt lat="46.28622" lon="5.79252">
        <ele>1015.8</ele>
        <time>2021-10-17T10:11:26Z</time>
      </trkpt>
      <trkpt lat="46.28612" lon="5.79243">
        <ele>1015</ele>
        <time>2021-10-17T10:11:27Z</time>
      </trkpt>
      <trkpt lat="46.28602" lon="5.79235">
        <ele>1014.2</ele>
        <time>2021-10-17T10:11:28Z</time>
      </trkpt>
      <trkpt lat="46.28591" lon="5.79227">
        <ele>1013.2</ele>
        <time>2021-10-17T10:11:29Z</time>
      </trkpt>
      <trkpt lat="46.28579" lon="5.7922">
        <ele>1012.6</ele>
        <time>2021-10-17T10:11:30Z</time>
      </trkpt>
      <trkpt lat="46.28568" lon="5.79216">
        <ele>1011.8</ele>
        <time>2021-10-17T10:11:31Z</time>
      </trkpt>
      <trkpt lat="46.28555" lon="5.79214">
        <ele>1011</ele>
        <time>2021-10-17T10:11:32Z</time>
      </trkpt>
      <trkpt lat="46.28542" lon="5.79213">
        <ele>1010.4</ele>
        <time>2021-10-17T10:11:33Z</time>
      </trkpt>
      <trkpt lat="46.2853" lon="5.79212">
        <ele>1009.6</ele>
        <time>2021-10-17T10:11:34Z</time>
      </trkpt>
      <trkpt lat="46.28517" lon="5.79211">
        <ele>1008.6</ele>
        <time>2021-10-17T10:11:35Z</time>
      </trkpt>
      <trkpt lat="46.28504" lon="5.7921">
        <ele>1007.8</ele>
        <time>2021-10-17T10:11:36Z</time>
      </trkpt>
      <trkpt lat="46.28491" lon="5.79209">
        <ele>1006.8</ele>
        <time>2021-10-17T10:11:37Z</time>
      </trkpt>
      <trkpt lat="46.28478" lon="5.79207">
        <ele>1005.6</ele>
        <time>2021-10-17T10:11:38Z</time>
      </trkpt>
      <trkpt lat="46.28467" lon="5.79206">
        <ele>1004.8</ele>
        <time>2021-10-17T10:11:39Z</time>
      </trkpt>
      <trkpt lat="46.28454" lon="5.79203">
        <ele>1004.2</ele>
        <time>2021-10-17T10:11:40Z</time>
      </trkpt>
      <trkpt lat="46.28441" lon="5.79202">
        <ele>1003.6</ele>
        <time>2021-10-17T10:11:41Z</time>
      </trkpt>
      <trkpt lat="46.28429" lon="5.79199">
        <ele>1003</ele>
        <time>2021-10-17T10:11:42Z</time>
      </trkpt>
      <trkpt lat="46.28416" lon="5.79198">
        <ele>1002.2</ele>
        <time>2021-10-17T10:11:43Z</time>
      </trkpt>
      <trkpt lat="46.28404" lon="5.79196">
        <ele>1001.6</ele>
        <time>2021-10-17T10:11:44Z</time>
      </trkpt>
      <trkpt lat="46.28392" lon="5.79194">
        <ele>1001</ele>
        <time>2021-10-17T10:11:45Z</time>
      </trkpt>
      <trkpt lat="46.28379" lon="5.79193">
        <ele>1000.4</ele>
        <time>2021-10-17T10:11:46Z</time>
      </trkpt>
      <trkpt lat="46.28368" lon="5.79191">
        <ele>999.8</ele>
        <time>2021-10-17T10:11:47Z</time>
      </trkpt>
      <trkpt lat="46.28356" lon="5.79189">
        <ele>999</ele>
        <time>2021-10-17T10:11:48Z</time>
      </trkpt>
      <trkpt lat="46.28345" lon="5.79186">
        <ele>998.6</ele>
        <time>2021-10-17T10:11:49Z</time>
      </trkpt>
      <trkpt lat="46.28334" lon="5.79183">
        <ele>998.2</ele>
        <time>2021-10-17T10:11:50Z</time>
      </trkpt>
      <trkpt lat="46.28323" lon="5.7918">
        <ele>997.6</ele>
        <time>2021-10-17T10:11:51Z</time>
      </trkpt>
      <trkpt lat="46.28312" lon="5.79176">
        <ele>997.2</ele>
        <time>2021-10-17T10:11:52Z</time>
      </trkpt>
      <trkpt lat="46.28301" lon="5.79173">
        <ele>996.6</ele>
        <time>2021-10-17T10:11:53Z</time>
      </trkpt>
      <trkpt lat="46.2829" lon="5.7917">
        <ele>996.2</ele>
        <time>2021-10-17T10:11:54Z</time>
      </trkpt>
      <trkpt lat="46.28281" lon="5.79167">
        <ele>995.8</ele>
        <time>2021-10-17T10:11:55Z</time>
      </trkpt>
      <trkpt lat="46.28272" lon="5.79164">
        <ele>995.2</ele>
        <time>2021-10-17T10:11:56Z</time>
      </trkpt>
      <trkpt lat="46.28263" lon="5.7916">
        <ele>994.8</ele>
        <time>2021-10-17T10:11:57Z</time>
      </trkpt>
      <trkpt lat="46.28254" lon="5.79158">
        <ele>994.4</ele>
        <time>2021-10-17T10:11:58Z</time>
      </trkpt>
      <trkpt lat="46.28246" lon="5.79155">
        <ele>994</ele>
        <time>2021-10-17T10:11:59Z</time>
      </trkpt>
      <trkpt lat="46.28238" lon="5.79153">
        <ele>993.8</ele>
        <time>2021-10-17T10:12:00Z</time>
      </trkpt>
      <trkpt lat="46.2823" lon="5.7915">
        <ele>993.4</ele>
        <time>2021-10-17T10:12:01Z</time>
      </trkpt>
      <trkpt lat="46.28224" lon="5.79148">
        <ele>993</ele>
        <time>2021-10-17T10:12:02Z</time>
      </trkpt>
      <trkpt lat="46.28219" lon="5.79146">
        <ele>992.8</ele>
        <time>2021-10-17T10:12:03Z</time>
      </trkpt>
      <trkpt lat="46.28214" lon="5.79145">
        <ele>992.6</ele>
        <time>2021-10-17T10:12:04Z</time>
      </trkpt>
      <trkpt lat="46.2821" lon="5.79143">
        <ele>992.2</ele>
        <time>2021-10-17T10:12:05Z</time>
      </trkpt>
      <trkpt lat="46.28206" lon="5.79142">
        <ele>992</ele>
        <time>2021-10-17T10:12:06Z</time>
      </trkpt>
      <trkpt lat="46.28203" lon="5.7914">
        <ele>992</ele>
        <time>2021-10-17T10:12:07Z</time>
      </trkpt>
      <trkpt lat="46.28199" lon="5.79139">
        <ele>991.6</ele>
        <time>2021-10-17T10:12:08Z</time>
      </trkpt>
      <trkpt lat="46.28196" lon="5.79138">
        <ele>991.6</ele>
        <time>2021-10-17T10:12:09Z</time>
      </trkpt>
      <trkpt lat="46.28193" lon="5.79138">
        <ele>991.4</ele>
        <time>2021-10-17T10:12:10Z</time>
      </trkpt>
      <trkpt lat="46.2819" lon="5.7914">
        <ele>991.4</ele>
        <time>2021-10-17T10:12:11Z</time>
      </trkpt>
      <trkpt lat="46.28188" lon="5.79144">
        <ele>991.4</ele>
        <time>2021-10-17T10:12:12Z</time>
      </trkpt>
      <trkpt lat="46.28187" lon="5.79148">
        <ele>991.4</ele>
        <time>2021-10-17T10:12:13Z</time>
      </trkpt>
      <trkpt lat="46.28187" lon="5.79154">
        <ele>991.2</ele>
        <time>2021-10-17T10:12:14Z</time>
      </trkpt>
      <trkpt lat="46.28187" lon="5.7916">
        <ele>991.2</ele>
        <time>2021-10-17T10:12:15Z</time>
      </trkpt>
      <trkpt lat="46.28186" lon="5.79166">
        <ele>991.2</ele>
        <time>2021-10-17T10:12:16Z</time>
      </trkpt>
      <trkpt lat="46.28185" lon="5.79173">
        <ele>991.2</ele>
        <time>2021-10-17T10:12:17Z</time>
      </trkpt>
      <trkpt lat="46.28182" lon="5.79179">
        <ele>990.8</ele>
        <time>2021-10-17T10:12:18Z</time>
      </trkpt>
      <trkpt lat="46.28179" lon="5.79185">
        <ele>990.6</ele>
        <time>2021-10-17T10:12:19Z</time>
      </trkpt>
      <trkpt lat="46.28175" lon="5.79191">
        <ele>990.6</ele>
        <time>2021-10-17T10:12:20Z</time>
      </trkpt>
      <trkpt lat="46.28171" lon="5.79197">
        <ele>990.2</ele>
        <time>2021-10-17T10:12:21Z</time>
      </trkpt>
      <trkpt lat="46.28166" lon="5.79203">
        <ele>990</ele>
        <time>2021-10-17T10:12:22Z</time>
      </trkpt>
      <trkpt lat="46.28161" lon="5.79208">
        <ele>989.8</ele>
        <time>2021-10-17T10:12:23Z</time>
      </trkpt>
      <trkpt lat="46.28155" lon="5.79213">
        <ele>989.4</ele>
        <time>2021-10-17T10:12:24Z</time>
      </trkpt>
      <trkpt lat="46.28149" lon="5.79217">
        <ele>989.4</ele>
        <time>2021-10-17T10:12:25Z</time>
      </trkpt>
      <trkpt lat="46.28142" lon="5.79219">
        <ele>989</ele>
        <time>2021-10-17T10:12:26Z</time>
      </trkpt>
      <trkpt lat="46.28134" lon="5.79222">
        <ele>988.6</ele>
        <time>2021-10-17T10:12:27Z</time>
      </trkpt>
      <trkpt lat="46.28126" lon="5.79223">
        <ele>988.2</ele>
        <time>2021-10-17T10:12:28Z</time>
      </trkpt>
      <trkpt lat="46.28119" lon="5.79224">
        <ele>987.8</ele>
        <time>2021-10-17T10:12:29Z</time>
      </trkpt>
      <trkpt lat="46.28111" lon="5.79224">
        <ele>987.4</ele>
        <time>2021-10-17T10:12:30Z</time>
      </trkpt>
      <trkpt lat="46.28103" lon="5.79225">
        <ele>987</ele>
        <time>2021-10-17T10:12:31Z</time>
      </trkpt>
      <trkpt lat="46.28094" lon="5.79226">
        <ele>986.6</ele>
        <time>2021-10-17T10:12:32Z</time>
      </trkpt>
      <trkpt lat="46.28086" lon="5.79227">
        <ele>986.2</ele>
        <time>2021-10-17T10:12:33Z</time>
      </trkpt>
      <trkpt lat="46.28079" lon="5.79228">
        <ele>986</ele>
        <time>2021-10-17T10:12:34Z</time>
      </trkpt>
      <trkpt lat="46.28071" lon="5.79229">
        <ele>985.6</ele>
        <time>2021-10-17T10:12:35Z</time>
      </trkpt>
      <trkpt lat="46.28063" lon="5.79231">
        <ele>985.4</ele>
        <time>2021-10-17T10:12:36Z</time>
      </trkpt>
      <trkpt lat="46.28055" lon="5.79233">
        <ele>985.4</ele>
        <time>2021-10-17T10:12:37Z</time>
      </trkpt>
      <trkpt lat="46.28048" lon="5.79236">
        <ele>985.2</ele>
        <time>2021-10-17T10:12:38Z</time>
      </trkpt>
      <trkpt lat="46.28041" lon="5.79238">
        <ele>985.2</ele>
        <time>2021-10-17T10:12:39Z</time>
      </trkpt>
      <trkpt lat="46.28034" lon="5.79242">
        <ele>985.2</ele>
        <time>2021-10-17T10:12:40Z</time>
      </trkpt>
      <trkpt lat="46.28027" lon="5.79245">
        <ele>985.2</ele>
        <time>2021-10-17T10:12:41Z</time>
      </trkpt>
      <trkpt lat="46.28021" lon="5.79248">
        <ele>985.2</ele>
        <time>2021-10-17T10:12:42Z</time>
      </trkpt>
      <trkpt lat="46.28014" lon="5.79251">
        <ele>985.2</ele>
        <time>2021-10-17T10:12:43Z</time>
      </trkpt>
      <trkpt lat="46.28009" lon="5.79255">
        <ele>985.2</ele>
        <time>2021-10-17T10:12:44Z</time>
      </trkpt>
      <trkpt lat="46.28003" lon="5.79258">
        <ele>985.2</ele>
        <time>2021-10-17T10:12:45Z</time>
      </trkpt>
      <trkpt lat="46.27998" lon="5.7926">
        <ele>985.4</ele>
        <time>2021-10-17T10:12:46Z</time>
      </trkpt>
      <trkpt lat="46.27993" lon="5.79263">
        <ele>985.4</ele>
        <time>2021-10-17T10:12:47Z</time>
      </trkpt>
      <trkpt lat="46.27988" lon="5.79266">
        <ele>985.6</ele>
        <time>2021-10-17T10:12:48Z</time>
      </trkpt>
      <trkpt lat="46.27983" lon="5.79268">
        <ele>985.6</ele>
        <time>2021-10-17T10:12:49Z</time>
      </trkpt>
      <trkpt lat="46.27978" lon="5.7927">
        <ele>986</ele>
        <time>2021-10-17T10:12:50Z</time>
      </trkpt>
      <trkpt lat="46.27973" lon="5.79272">
        <ele>986</ele>
        <time>2021-10-17T10:12:51Z</time>
      </trkpt>
      <trkpt lat="46.27969" lon="5.79275">
        <ele>986.2</ele>
        <time>2021-10-17T10:12:52Z</time>
      </trkpt>
      <trkpt lat="46.27965" lon="5.79277">
        <ele>986.4</ele>
        <time>2021-10-17T10:12:53Z</time>
      </trkpt>
      <trkpt lat="46.27961" lon="5.79279">
        <ele>986.4</ele>
        <time>2021-10-17T10:12:54Z</time>
      </trkpt>
      <trkpt lat="46.27957" lon="5.79281">
        <ele>986.8</ele>
        <time>2021-10-17T10:12:55Z</time>
      </trkpt>
      <trkpt lat="46.27954" lon="5.79283">
        <ele>986.8</ele>
        <time>2021-10-17T10:12:56Z</time>
      </trkpt>
      <trkpt lat="46.2795" lon="5.79286">
        <ele>987.2</ele>
        <time>2021-10-17T10:12:57Z</time>
      </trkpt>
      <trkpt lat="46.27946" lon="5.79288">
        <ele>987.2</ele>
        <time>2021-10-17T10:12:58Z</time>
      </trkpt>
      <trkpt lat="46.27942" lon="5.7929">
        <ele>987.4</ele>
        <time>2021-10-17T10:12:59Z</time>
      </trkpt>
      <trkpt lat="46.27939" lon="5.79293">
        <ele>987.4</ele>
        <time>2021-10-17T10:13:00Z</time>
      </trkpt>
      <trkpt lat="46.27935" lon="5.79295">
        <ele>987.8</ele>
        <time>2021-10-17T10:13:01Z</time>
      </trkpt>
      <trkpt lat="46.27932" lon="5.79298">
        <ele>987.8</ele>
        <time>2021-10-17T10:13:02Z</time>
      </trkpt>
      <trkpt lat="46.27929" lon="5.79302">
        <ele>988</ele>
        <time>2021-10-17T10:13:03Z</time>
      </trkpt>
      <trkpt lat="46.27926" lon="5.79306">
        <ele>988</ele>
        <time>2021-10-17T10:13:04Z</time>
      </trkpt>
      <trkpt lat="46.27923" lon="5.7931">
        <ele>988.4</ele>
        <time>2021-10-17T10:13:05Z</time>
      </trkpt>
      <trkpt lat="46.2792" lon="5.79314">
        <ele>988.4</ele>
        <time>2021-10-17T10:13:06Z</time>
      </trkpt>
      <trkpt lat="46.27918" lon="5.79318">
        <ele>988.6</ele>
        <time>2021-10-17T10:13:07Z</time>
      </trkpt>
      <trkpt lat="46.27916" lon="5.79323">
        <ele>988.6</ele>
        <time>2021-10-17T10:13:08Z</time>
      </trkpt>
      <trkpt lat="46.27914" lon="5.79328">
        <ele>988.8</ele>
        <time>2021-10-17T10:13:09Z</time>
      </trkpt>
      <trkpt lat="46.27912" lon="5.79333">
        <ele>988.8</ele>
        <time>2021-10-17T10:13:10Z</time>
      </trkpt>
      <trkpt lat="46.2791" lon="5.79339">
        <ele>989</ele>
        <time>2021-10-17T10:13:11Z</time>
      </trkpt>
      <trkpt lat="46.27908" lon="5.79344">
        <ele>989</ele>
        <time>2021-10-17T10:13:12Z</time>
      </trkpt>
      <trkpt lat="46.27906" lon="5.79349">
        <ele>989</ele>
        <time>2021-10-17T10:13:13Z</time>
      </trkpt>
      <trkpt lat="46.27904" lon="5.79355">
        <ele>989.2</ele>
        <time>2021-10-17T10:13:14Z</time>
      </trkpt>
      <trkpt lat="46.27903" lon="5.79361">
        <ele>989.2</ele>
        <time>2021-10-17T10:13:15Z</time>
      </trkpt>
      <trkpt lat="46.27902" lon="5.79366">
        <ele>989.6</ele>
        <time>2021-10-17T10:13:16Z</time>
      </trkpt>
      <trkpt lat="46.27901" lon="5.79373">
        <ele>989.6</ele>
        <time>2021-10-17T10:13:17Z</time>
      </trkpt>
      <trkpt lat="46.279" lon="5.79379">
        <ele>989.6</ele>
        <time>2021-10-17T10:13:18Z</time>
      </trkpt>
      <trkpt lat="46.27899" lon="5.79385">
        <ele>989.8</ele>
        <time>2021-10-17T10:13:19Z</time>
      </trkpt>
      <trkpt lat="46.27899" lon="5.79392">
        <ele>989.8</ele>
        <time>2021-10-17T10:13:20Z</time>
      </trkpt>
      <trkpt lat="46.27899" lon="5.79398">
        <ele>989.8</ele>
        <time>2021-10-17T10:13:21Z</time>
      </trkpt>
      <trkpt lat="46.27899" lon="5.79405">
        <ele>989.8</ele>
        <time>2021-10-17T10:13:22Z</time>
      </trkpt>
      <trkpt lat="46.279" lon="5.79411">
        <ele>990</ele>
        <time>2021-10-17T10:13:23Z</time>
      </trkpt>
      <trkpt lat="46.279" lon="5.79418">
        <ele>990</ele>
        <time>2021-10-17T10:13:24Z</time>
      </trkpt>
      <trkpt lat="46.27901" lon="5.79425">
        <ele>990</ele>
        <time>2021-10-17T10:13:25Z</time>
      </trkpt>
      <trkpt lat="46.27903" lon="5.79432">
        <ele>990</ele>
        <time>2021-10-17T10:13:26Z</time>
      </trkpt>
      <trkpt lat="46.27905" lon="5.79439">
        <ele>990</ele>
        <time>2021-10-17T10:13:27Z</time>
      </trkpt>
      <trkpt lat="46.27907" lon="5.79445">
        <ele>990</ele>
        <time>2021-10-17T10:13:28Z</time>
      </trkpt>
      <trkpt lat="46.2791" lon="5.79452">
        <ele>990</ele>
        <time>2021-10-17T10:13:29Z</time>
      </trkpt>
      <trkpt lat="46.27913" lon="5.79458">
        <ele>990</ele>
        <time>2021-10-17T10:13:30Z</time>
      </trkpt>
      <trkpt lat="46.27916" lon="5.79464">
        <ele>990</ele>
        <time>2021-10-17T10:13:31Z</time>
      </trkpt>
      <trkpt lat="46.27919" lon="5.79471">
        <ele>990</ele>
        <time>2021-10-17T10:13:32Z</time>
      </trkpt>
      <trkpt lat="46.27922" lon="5.79477">
        <ele>990</ele>
        <time>2021-10-17T10:13:33Z</time>
      </trkpt>
      <trkpt lat="46.27925" lon="5.79483">
        <ele>990</ele>
        <time>2021-10-17T10:13:34Z</time>
      </trkpt>
      <trkpt lat="46.27928" lon="5.7949">
        <ele>990</ele>
        <time>2021-10-17T10:13:35Z</time>
      </trkpt>
      <trkpt lat="46.27931" lon="5.79496">
        <ele>989.8</ele>
        <time>2021-10-17T10:13:36Z</time>
      </trkpt>
      <trkpt lat="46.27933" lon="5.79503">
        <ele>989.8</ele>
        <time>2021-10-17T10:13:37Z</time>
      </trkpt>
      <trkpt lat="46.27935" lon="5.7951">
        <ele>989.8</ele>
        <time>2021-10-17T10:13:38Z</time>
      </trkpt>
      <trkpt lat="46.27937" lon="5.79517">
        <ele>989.8</ele>
        <time>2021-10-17T10:13:39Z</time>
      </trkpt>
      <trkpt lat="46.27937" lon="5.79525">
        <ele>989.8</ele>
        <time>2021-10-17T10:13:40Z</time>
      </trkpt>
      <trkpt lat="46.27937" lon="5.79532">
        <ele>989.8</ele>
        <time>2021-10-17T10:13:41Z</time>
      </trkpt>
      <trkpt lat="46.27936" lon="5.7954">
        <ele>989.8</ele>
        <time>2021-10-17T10:13:42Z</time>
      </trkpt>
      <trkpt lat="46.27934" lon="5.79547">
        <ele>989.8</ele>
        <time>2021-10-17T10:13:43Z</time>
      </trkpt>
      <trkpt lat="46.27933" lon="5.79554">
        <ele>990</ele>
        <time>2021-10-17T10:13:44Z</time>
      </trkpt>
      <trkpt lat="46.2793" lon="5.79562">
        <ele>990</ele>
        <time>2021-10-17T10:13:45Z</time>
      </trkpt>
      <trkpt lat="46.27928" lon="5.79569">
        <ele>990</ele>
        <time>2021-10-17T10:13:46Z</time>
      </trkpt>
      <trkpt lat="46.27925" lon="5.79575">
        <ele>990</ele>
        <time>2021-10-17T10:13:47Z</time>
      </trkpt>
      <trkpt lat="46.27921" lon="5.79581">
        <ele>990</ele>
        <time>2021-10-17T10:13:48Z</time>
      </trkpt>
      <trkpt lat="46.27917" lon="5.79587">
        <ele>990</ele>
        <time>2021-10-17T10:13:49Z</time>
      </trkpt>
      <trkpt lat="46.27913" lon="5.79592">
        <ele>990</ele>
        <time>2021-10-17T10:13:50Z</time>
      </trkpt>
      <trkpt lat="46.27909" lon="5.79596">
        <ele>990</ele>
        <time>2021-10-17T10:13:51Z</time>
      </trkpt>
      <trkpt lat="46.27905" lon="5.79599">
        <ele>990.4</ele>
        <time>2021-10-17T10:13:52Z</time>
      </trkpt>
      <trkpt lat="46.279" lon="5.79601">
        <ele>990.4</ele>
        <time>2021-10-17T10:13:53Z</time>
      </trkpt>
      <trkpt lat="46.27896" lon="5.79603">
        <ele>990.4</ele>
        <time>2021-10-17T10:13:54Z</time>
      </trkpt>
      <trkpt lat="46.27893" lon="5.79605">
        <ele>990.8</ele>
        <time>2021-10-17T10:13:55Z</time>
      </trkpt>
      <trkpt lat="46.27889" lon="5.79607">
        <ele>991</ele>
        <time>2021-10-17T10:13:56Z</time>
      </trkpt>
      <trkpt lat="46.27886" lon="5.79608">
        <ele>991.2</ele>
        <time>2021-10-17T10:13:57Z</time>
      </trkpt>
      <trkpt lat="46.27882" lon="5.79609">
        <ele>991.4</ele>
        <time>2021-10-17T10:13:58Z</time>
      </trkpt>
      <trkpt lat="46.27879" lon="5.79611">
        <ele>991.8</ele>
        <time>2021-10-17T10:13:59Z</time>
      </trkpt>
      <trkpt lat="46.27875" lon="5.79612">
        <ele>991.8</ele>
        <time>2021-10-17T10:14:00Z</time>
      </trkpt>
      <trkpt lat="46.27872" lon="5.79613">
        <ele>992</ele>
        <time>2021-10-17T10:14:01Z</time>
      </trkpt>
      <trkpt lat="46.27868" lon="5.79614">
        <ele>992</ele>
        <time>2021-10-17T10:14:02Z</time>
      </trkpt>
      <trkpt lat="46.27864" lon="5.79616">
        <ele>992.4</ele>
        <time>2021-10-17T10:14:03Z</time>
      </trkpt>
      <trkpt lat="46.27861" lon="5.79617">
        <ele>992.6</ele>
        <time>2021-10-17T10:14:04Z</time>
      </trkpt>
      <trkpt lat="46.27857" lon="5.79619">
        <ele>993</ele>
        <time>2021-10-17T10:14:05Z</time>
      </trkpt>
      <trkpt lat="46.27854" lon="5.79621">
        <ele>993.2</ele>
        <time>2021-10-17T10:14:06Z</time>
      </trkpt>
      <trkpt lat="46.27851" lon="5.79622">
        <ele>993.6</ele>
        <time>2021-10-17T10:14:07Z</time>
      </trkpt>
      <trkpt lat="46.27847" lon="5.79623">
        <ele>993.8</ele>
        <time>2021-10-17T10:14:08Z</time>
      </trkpt>
      <trkpt lat="46.27844" lon="5.79624">
        <ele>993.8</ele>
        <time>2021-10-17T10:14:09Z</time>
      </trkpt>
      <trkpt lat="46.27841" lon="5.79625">
        <ele>994.2</ele>
        <time>2021-10-17T10:14:10Z</time>
      </trkpt>
      <trkpt lat="46.27837" lon="5.79626">
        <ele>994.2</ele>
        <time>2021-10-17T10:14:11Z</time>
      </trkpt>
      <trkpt lat="46.27834" lon="5.79627">
        <ele>994.6</ele>
        <time>2021-10-17T10:14:12Z</time>
      </trkpt>
      <trkpt lat="46.27831" lon="5.79628">
        <ele>994.8</ele>
        <time>2021-10-17T10:14:13Z</time>
      </trkpt>
      <trkpt lat="46.27828" lon="5.7963">
        <ele>995</ele>
        <time>2021-10-17T10:14:14Z</time>
      </trkpt>
      <trkpt lat="46.27825" lon="5.79631">
        <ele>995.4</ele>
        <time>2021-10-17T10:14:15Z</time>
      </trkpt>
      <trkpt lat="46.27822" lon="5.79632">
        <ele>995.6</ele>
        <time>2021-10-17T10:14:16Z</time>
      </trkpt>
      <trkpt lat="46.27819" lon="5.79633">
        <ele>995.6</ele>
        <time>2021-10-17T10:14:17Z</time>
      </trkpt>
      <trkpt lat="46.27816" lon="5.79634">
        <ele>996</ele>
        <time>2021-10-17T10:14:18Z</time>
      </trkpt>
      <trkpt lat="46.27812" lon="5.79635">
        <ele>996</ele>
        <time>2021-10-17T10:14:19Z</time>
      </trkpt>
      <trkpt lat="46.27809" lon="5.79637">
        <ele>996.4</ele>
        <time>2021-10-17T10:14:20Z</time>
      </trkpt>
      <trkpt lat="46.27806" lon="5.79638">
        <ele>996.4</ele>
        <time>2021-10-17T10:14:21Z</time>
      </trkpt>
      <trkpt lat="46.27803" lon="5.79639">
        <ele>996.8</ele>
        <time>2021-10-17T10:14:22Z</time>
      </trkpt>
      <trkpt lat="46.27799" lon="5.7964">
        <ele>996.8</ele>
        <time>2021-10-17T10:14:23Z</time>
      </trkpt>
      <trkpt lat="46.27796" lon="5.79641">
        <ele>997.2</ele>
        <time>2021-10-17T10:14:24Z</time>
      </trkpt>
      <trkpt lat="46.27793" lon="5.79641">
        <ele>997.2</ele>
        <time>2021-10-17T10:14:25Z</time>
      </trkpt>
      <trkpt lat="46.2779" lon="5.79641">
        <ele>997.6</ele>
        <time>2021-10-17T10:14:26Z</time>
      </trkpt>
      <trkpt lat="46.27786" lon="5.79642">
        <ele>997.6</ele>
        <time>2021-10-17T10:14:27Z</time>
      </trkpt>
      <trkpt lat="46.27783" lon="5.79642">
        <ele>998</ele>
        <time>2021-10-17T10:14:28Z</time>
      </trkpt>
      <trkpt lat="46.2778" lon="5.79642">
        <ele>998.2</ele>
        <time>2021-10-17T10:14:29Z</time>
      </trkpt>
      <trkpt lat="46.27776" lon="5.79642">
        <ele>998.2</ele>
        <time>2021-10-17T10:14:30Z</time>
      </trkpt>
      <trkpt lat="46.27773" lon="5.79642">
        <ele>998.6</ele>
        <time>2021-10-17T10:14:31Z</time>
      </trkpt>
      <trkpt lat="46.2777" lon="5.79642">
        <ele>998.8</ele>
        <time>2021-10-17T10:14:32Z</time>
      </trkpt>
      <trkpt lat="46.27766" lon="5.79642">
        <ele>998.8</ele>
        <time>2021-10-17T10:14:33Z</time>
      </trkpt>
      <trkpt lat="46.27763" lon="5.79641">
        <ele>999.2</ele>
        <time>2021-10-17T10:14:34Z</time>
      </trkpt>
      <trkpt lat="46.2776" lon="5.79641">
        <ele>999.4</ele>
        <time>2021-10-17T10:14:35Z</time>
      </trkpt>
      <trkpt lat="46.27757" lon="5.7964">
        <ele>999.6</ele>
        <time>2021-10-17T10:14:36Z</time>
      </trkpt>
      <trkpt lat="46.27754" lon="5.79639">
        <ele>999.6</ele>
        <time>2021-10-17T10:14:37Z</time>
      </trkpt>
      <trkpt lat="46.27751" lon="5.79639">
        <ele>1000.2</ele>
        <time>2021-10-17T10:14:38Z</time>
      </trkpt>
      <trkpt lat="46.27747" lon="5.79638">
        <ele>1000.2</ele>
        <time>2021-10-17T10:14:39Z</time>
      </trkpt>
      <trkpt lat="46.27744" lon="5.79638">
        <ele>1000.6</ele>
        <time>2021-10-17T10:14:40Z</time>
      </trkpt>
      <trkpt lat="46.27741" lon="5.79638">
        <ele>1000.8</ele>
        <time>2021-10-17T10:14:41Z</time>
      </trkpt>
      <trkpt lat="46.27738" lon="5.79638">
        <ele>1001</ele>
        <time>2021-10-17T10:14:42Z</time>
      </trkpt>
      <trkpt lat="46.27735" lon="5.79637">
        <ele>1001</ele>
        <time>2021-10-17T10:14:43Z</time>
      </trkpt>
      <trkpt lat="46.27732" lon="5.79636">
        <ele>1001.4</ele>
        <time>2021-10-17T10:14:44Z</time>
      </trkpt>
      <trkpt lat="46.2773" lon="5.79635">
        <ele>1001.8</ele>
        <time>2021-10-17T10:14:45Z</time>
      </trkpt>
      <trkpt lat="46.27727" lon="5.79633">
        <ele>1002</ele>
        <time>2021-10-17T10:14:46Z</time>
      </trkpt>
      <trkpt lat="46.27724" lon="5.79632">
        <ele>1002.2</ele>
        <time>2021-10-17T10:14:47Z</time>
      </trkpt>
      <trkpt lat="46.27721" lon="5.79631">
        <ele>1002.4</ele>
        <time>2021-10-17T10:14:48Z</time>
      </trkpt>
      <trkpt lat="46.27718" lon="5.7963">
        <ele>1002.8</ele>
        <time>2021-10-17T10:14:49Z</time>
      </trkpt>
      <trkpt lat="46.27715" lon="5.79629">
        <ele>1003</ele>
        <time>2021-10-17T10:14:50Z</time>
      </trkpt>
      <trkpt lat="46.27712" lon="5.79628">
        <ele>1003.2</ele>
        <time>2021-10-17T10:14:51Z</time>
      </trkpt>
      <trkpt lat="46.27709" lon="5.79627">
        <ele>1003.6</ele>
        <time>2021-10-17T10:14:52Z</time>
      </trkpt>
      <trkpt lat="46.27706" lon="5.79626">
        <ele>1003.8</ele>
        <time>2021-10-17T10:14:53Z</time>
      </trkpt>
      <trkpt lat="46.27703" lon="5.79626">
        <ele>1004.2</ele>
        <time>2021-10-17T10:14:54Z</time>
      </trkpt>
      <trkpt lat="46.277" lon="5.79626">
        <ele>1004.4</ele>
        <time>2021-10-17T10:14:55Z</time>
      </trkpt>
      <trkpt lat="46.27697" lon="5.79626">
        <ele>1004.6</ele>
        <time>2021-10-17T10:14:56Z</time>
      </trkpt>
      <trkpt lat="46.27694" lon="5.79626">
        <ele>1004.8</ele>
        <time>2021-10-17T10:14:57Z</time>
      </trkpt>
      <trkpt lat="46.2769" lon="5.79627">
        <ele>1005.2</ele>
        <time>2021-10-17T10:14:58Z</time>
      </trkpt>
      <trkpt lat="46.27687" lon="5.79627">
        <ele>1005.4</ele>
        <time>2021-10-17T10:14:59Z</time>
      </trkpt>
      <trkpt lat="46.27684" lon="5.79627">
        <ele>1005.4</ele>
        <time>2021-10-17T10:15:00Z</time>
      </trkpt>
      <trkpt lat="46.2768" lon="5.79627">
        <ele>1005.8</ele>
        <time>2021-10-17T10:15:01Z</time>
      </trkpt>
      <trkpt lat="46.27677" lon="5.79626">
        <ele>1006</ele>
        <time>2021-10-17T10:15:02Z</time>
      </trkpt>
      <trkpt lat="46.27674" lon="5.79625">
        <ele>1006.2</ele>
        <time>2021-10-17T10:15:03Z</time>
      </trkpt>
      <trkpt lat="46.27671" lon="5.79624">
        <ele>1006.4</ele>
        <time>2021-10-17T10:15:04Z</time>
      </trkpt>
      <trkpt lat="46.27668" lon="5.79622">
        <ele>1006.4</ele>
        <time>2021-10-17T10:15:05Z</time>
      </trkpt>
      <trkpt lat="46.27665" lon="5.79621">
        <ele>1006.8</ele>
        <time>2021-10-17T10:15:06Z</time>
      </trkpt>
      <trkpt lat="46.27662" lon="5.79619">
        <ele>1006.8</ele>
        <time>2021-10-17T10:15:07Z</time>
      </trkpt>
      <trkpt lat="46.2766" lon="5.79618">
        <ele>1007.4</ele>
        <time>2021-10-17T10:15:08Z</time>
      </trkpt>
      <trkpt lat="46.27657" lon="5.79617">
        <ele>1007.4</ele>
        <time>2021-10-17T10:15:09Z</time>
      </trkpt>
      <trkpt lat="46.27654" lon="5.79616">
        <ele>1007.8</ele>
        <time>2021-10-17T10:15:10Z</time>
      </trkpt>
      <trkpt lat="46.27652" lon="5.79615">
        <ele>1008.2</ele>
        <time>2021-10-17T10:15:11Z</time>
      </trkpt>
      <trkpt lat="46.27649" lon="5.79613">
        <ele>1008.4</ele>
        <time>2021-10-17T10:15:12Z</time>
      </trkpt>
      <trkpt lat="46.27646" lon="5.79612">
        <ele>1008.8</ele>
        <time>2021-10-17T10:15:13Z</time>
      </trkpt>
      <trkpt lat="46.27644" lon="5.79611">
        <ele>1009.2</ele>
        <time>2021-10-17T10:15:14Z</time>
      </trkpt>
      <trkpt lat="46.27641" lon="5.79611">
        <ele>1009.4</ele>
        <time>2021-10-17T10:15:15Z</time>
      </trkpt>
      <trkpt lat="46.27638" lon="5.79611">
        <ele>1009.6</ele>
        <time>2021-10-17T10:15:16Z</time>
      </trkpt>
      <trkpt lat="46.27635" lon="5.79611">
        <ele>1009.6</ele>
        <time>2021-10-17T10:15:17Z</time>
      </trkpt>
      <trkpt lat="46.27633" lon="5.7961">
        <ele>1010</ele>
        <time>2021-10-17T10:15:18Z</time>
      </trkpt>
      <trkpt lat="46.2763" lon="5.7961">
        <ele>1010</ele>
        <time>2021-10-17T10:15:19Z</time>
      </trkpt>
      <trkpt lat="46.27627" lon="5.79611">
        <ele>1010.2</ele>
        <time>2021-10-17T10:15:20Z</time>
      </trkpt>
      <trkpt lat="46.27624" lon="5.79612">
        <ele>1010.2</ele>
        <time>2021-10-17T10:15:21Z</time>
      </trkpt>
      <trkpt lat="46.27622" lon="5.79613">
        <ele>1010.6</ele>
        <time>2021-10-17T10:15:22Z</time>
      </trkpt>
      <trkpt lat="46.27619" lon="5.79614">
        <ele>1010.6</ele>
        <time>2021-10-17T10:15:23Z</time>
      </trkpt>
      <trkpt lat="46.27616" lon="5.79615">
        <ele>1011</ele>
        <time>2021-10-17T10:15:24Z</time>
      </trkpt>
      <trkpt lat="46.27613" lon="5.79615">
        <ele>1011.2</ele>
        <time>2021-10-17T10:15:25Z</time>
      </trkpt>
      <trkpt lat="46.27611" lon="5.79616">
        <ele>1011.2</ele>
        <time>2021-10-17T10:15:26Z</time>
      </trkpt>
      <trkpt lat="46.27608" lon="5.79617">
        <ele>1011.6</ele>
        <time>2021-10-17T10:15:27Z</time>
      </trkpt>
      <trkpt lat="46.27606" lon="5.79619">
        <ele>1011.6</ele>
        <time>2021-10-17T10:15:28Z</time>
      </trkpt>
      <trkpt lat="46.27603" lon="5.79619">
        <ele>1012</ele>
        <time>2021-10-17T10:15:29Z</time>
      </trkpt>
      <trkpt lat="46.27601" lon="5.7962">
        <ele>1012.2</ele>
        <time>2021-10-17T10:15:30Z</time>
      </trkpt>
      <trkpt lat="46.27599" lon="5.79622">
        <ele>1012.2</ele>
        <time>2021-10-17T10:15:31Z</time>
      </trkpt>
      <trkpt lat="46.27597" lon="5.79623">
        <ele>1012.6</ele>
        <time>2021-10-17T10:15:32Z</time>
      </trkpt>
      <trkpt lat="46.27594" lon="5.79624">
        <ele>1012.6</ele>
        <time>2021-10-17T10:15:33Z</time>
      </trkpt>
      <trkpt lat="46.27592" lon="5.79625">
        <ele>1012.6</ele>
        <time>2021-10-17T10:15:34Z</time>
      </trkpt>
      <trkpt lat="46.2759" lon="5.79626">
        <ele>1012.8</ele>
        <time>2021-10-17T10:15:35Z</time>
      </trkpt>
      <trkpt lat="46.27588" lon="5.79627">
        <ele>1012.8</ele>
        <time>2021-10-17T10:15:36Z</time>
      </trkpt>
      <trkpt lat="46.27585" lon="5.79629">
        <ele>1013.2</ele>
        <time>2021-10-17T10:15:37Z</time>
      </trkpt>
      <trkpt lat="46.27583" lon="5.79629">
        <ele>1013.2</ele>
        <time>2021-10-17T10:15:38Z</time>
      </trkpt>
      <trkpt lat="46.27581" lon="5.79631">
        <ele>1013.6</ele>
        <time>2021-10-17T10:15:39Z</time>
      </trkpt>
      <trkpt lat="46.27579" lon="5.79632">
        <ele>1013.6</ele>
        <time>2021-10-17T10:15:40Z</time>
      </trkpt>
      <trkpt lat="46.27576" lon="5.79633">
        <ele>1013.8</ele>
        <time>2021-10-17T10:15:41Z</time>
      </trkpt>
      <trkpt lat="46.27574" lon="5.79635">
        <ele>1013.8</ele>
        <time>2021-10-17T10:15:42Z</time>
      </trkpt>
      <trkpt lat="46.27572" lon="5.79636">
        <ele>1014.2</ele>
        <time>2021-10-17T10:15:43Z</time>
      </trkpt>
      <trkpt lat="46.2757" lon="5.79637">
        <ele>1014.4</ele>
        <time>2021-10-17T10:15:44Z</time>
      </trkpt>
      <trkpt lat="46.27567" lon="5.79638">
        <ele>1014.6</ele>
        <time>2021-10-17T10:15:45Z</time>
      </trkpt>
      <trkpt lat="46.27565" lon="5.79639">
        <ele>1014.6</ele>
        <time>2021-10-17T10:15:46Z</time>
      </trkpt>
      <trkpt lat="46.27563" lon="5.79641">
        <ele>1015</ele>
        <time>2021-10-17T10:15:47Z</time>
      </trkpt>
      <trkpt lat="46.2756" lon="5.79643">
        <ele>1015</ele>
        <time>2021-10-17T10:15:48Z</time>
      </trkpt>
      <trkpt lat="46.27558" lon="5.79644">
        <ele>1015.4</ele>
        <time>2021-10-17T10:15:49Z</time>
      </trkpt>
      <trkpt lat="46.27556" lon="5.79646">
        <ele>1015.4</ele>
        <time>2021-10-17T10:15:50Z</time>
      </trkpt>
      <trkpt lat="46.27553" lon="5.79648">
        <ele>1015.6</ele>
        <time>2021-10-17T10:15:51Z</time>
      </trkpt>
      <trkpt lat="46.27551" lon="5.79649">
        <ele>1015.6</ele>
        <time>2021-10-17T10:15:52Z</time>
      </trkpt>
      <trkpt lat="46.27549" lon="5.79651">
        <ele>1016</ele>
        <time>2021-10-17T10:15:53Z</time>
      </trkpt>
      <trkpt lat="46.27547" lon="5.79654">
        <ele>1016.2</ele>
        <time>2021-10-17T10:15:54Z</time>
      </trkpt>
      <trkpt lat="46.27545" lon="5.79656">
        <ele>1016.2</ele>
        <time>2021-10-17T10:15:55Z</time>
      </trkpt>
      <trkpt lat="46.27543" lon="5.79658">
        <ele>1016.4</ele>
        <time>2021-10-17T10:15:56Z</time>
      </trkpt>
      <trkpt lat="46.27541" lon="5.79661">
        <ele>1016.4</ele>
        <time>2021-10-17T10:15:57Z</time>
      </trkpt>
      <trkpt lat="46.2754" lon="5.79664">
        <ele>1016.8</ele>
        <time>2021-10-17T10:15:58Z</time>
      </trkpt>
      <trkpt lat="46.27539" lon="5.79667">
        <ele>1017.2</ele>
        <time>2021-10-17T10:15:59Z</time>
      </trkpt>
      <trkpt lat="46.27538" lon="5.79671">
        <ele>1017.4</ele>
        <time>2021-10-17T10:16:00Z</time>
      </trkpt>
      <trkpt lat="46.27537" lon="5.79674">
        <ele>1017.6</ele>
        <time>2021-10-17T10:16:01Z</time>
      </trkpt>
      <trkpt lat="46.27536" lon="5.79678">
        <ele>1018</ele>
        <time>2021-10-17T10:16:02Z</time>
      </trkpt>
      <trkpt lat="46.27536" lon="5.79681">
        <ele>1018.2</ele>
        <time>2021-10-17T10:16:03Z</time>
      </trkpt>
      <trkpt lat="46.27536" lon="5.79684">
        <ele>1018.4</ele>
        <time>2021-10-17T10:16:04Z</time>
      </trkpt>
      <trkpt lat="46.27536" lon="5.79688">
        <ele>1018.6</ele>
        <time>2021-10-17T10:16:05Z</time>
      </trkpt>
      <trkpt lat="46.27536" lon="5.79691">
        <ele>1018.8</ele>
        <time>2021-10-17T10:16:06Z</time>
      </trkpt>
      <trkpt lat="46.27536" lon="5.79694">
        <ele>1019</ele>
        <time>2021-10-17T10:16:07Z</time>
      </trkpt>
      <trkpt lat="46.27536" lon="5.79698">
        <ele>1019</ele>
        <time>2021-10-17T10:16:08Z</time>
      </trkpt>
      <trkpt lat="46.27536" lon="5.79701">
        <ele>1019.4</ele>
        <time>2021-10-17T10:16:09Z</time>
      </trkpt>
      <trkpt lat="46.27537" lon="5.79704">
        <ele>1019.4</ele>
        <time>2021-10-17T10:16:10Z</time>
      </trkpt>
      <trkpt lat="46.27537" lon="5.79708">
        <ele>1019.8</ele>
        <time>2021-10-17T10:16:11Z</time>
      </trkpt>
      <trkpt lat="46.27537" lon="5.79711">
        <ele>1020</ele>
        <time>2021-10-17T10:16:12Z</time>
      </trkpt>
      <trkpt lat="46.27537" lon="5.79715">
        <ele>1020</ele>
        <time>2021-10-17T10:16:13Z</time>
      </trkpt>
      <trkpt lat="46.27538" lon="5.79718">
        <ele>1020.4</ele>
        <time>2021-10-17T10:16:14Z</time>
      </trkpt>
      <trkpt lat="46.27538" lon="5.79722">
        <ele>1020.4</ele>
        <time>2021-10-17T10:16:15Z</time>
      </trkpt>
      <trkpt lat="46.27538" lon="5.79725">
        <ele>1020.6</ele>
        <time>2021-10-17T10:16:16Z</time>
      </trkpt>
      <trkpt lat="46.27538" lon="5.79728">
        <ele>1020.6</ele>
        <time>2021-10-17T10:16:17Z</time>
      </trkpt>
      <trkpt lat="46.27537" lon="5.79732">
        <ele>1021</ele>
        <time>2021-10-17T10:16:18Z</time>
      </trkpt>
      <trkpt lat="46.27537" lon="5.79735">
        <ele>1021.2</ele>
        <time>2021-10-17T10:16:19Z</time>
      </trkpt>
      <trkpt lat="46.27536" lon="5.79739">
        <ele>1021.6</ele>
        <time>2021-10-17T10:16:20Z</time>
      </trkpt>
      <trkpt lat="46.27535" lon="5.79742">
        <ele>1021.8</ele>
        <time>2021-10-17T10:16:21Z</time>
      </trkpt>
      <trkpt lat="46.27535" lon="5.79746">
        <ele>1022</ele>
        <time>2021-10-17T10:16:22Z</time>
      </trkpt>
      <trkpt lat="46.27533" lon="5.79749">
        <ele>1022.2</ele>
        <time>2021-10-17T10:16:23Z</time>
      </trkpt>
      <trkpt lat="46.27532" lon="5.79752">
        <ele>1022.2</ele>
        <time>2021-10-17T10:16:24Z</time>
      </trkpt>
      <trkpt lat="46.27531" lon="5.79755">
        <ele>1022.4</ele>
        <time>2021-10-17T10:16:25Z</time>
      </trkpt>
      <trkpt lat="46.2753" lon="5.79758">
        <ele>1022.4</ele>
        <time>2021-10-17T10:16:26Z</time>
      </trkpt>
      <trkpt lat="46.27528" lon="5.7976">
        <ele>1022.8</ele>
        <time>2021-10-17T10:16:27Z</time>
      </trkpt>
      <trkpt lat="46.27527" lon="5.79763">
        <ele>1022.8</ele>
        <time>2021-10-17T10:16:28Z</time>
      </trkpt>
      <trkpt lat="46.27525" lon="5.79765">
        <ele>1023.2</ele>
        <time>2021-10-17T10:16:29Z</time>
      </trkpt>
      <trkpt lat="46.27523" lon="5.79767">
        <ele>1023.2</ele>
        <time>2021-10-17T10:16:30Z</time>
      </trkpt>
      <trkpt lat="46.27521" lon="5.79769">
        <ele>1023.6</ele>
        <time>2021-10-17T10:16:31Z</time>
      </trkpt>
      <trkpt lat="46.27519" lon="5.79771">
        <ele>1023.8</ele>
        <time>2021-10-17T10:16:32Z</time>
      </trkpt>
      <trkpt lat="46.27517" lon="5.79773">
        <ele>1023.8</ele>
        <time>2021-10-17T10:16:33Z</time>
      </trkpt>
      <trkpt lat="46.27515" lon="5.79775">
        <ele>1024.2</ele>
        <time>2021-10-17T10:16:34Z</time>
      </trkpt>
      <trkpt lat="46.27512" lon="5.79776">
        <ele>1024.6</ele>
        <time>2021-10-17T10:16:35Z</time>
      </trkpt>
      <trkpt lat="46.2751" lon="5.79778">
        <ele>1024.8</ele>
        <time>2021-10-17T10:16:36Z</time>
      </trkpt>
      <trkpt lat="46.27508" lon="5.79781">
        <ele>1024.8</ele>
        <time>2021-10-17T10:16:37Z</time>
      </trkpt>
      <trkpt lat="46.27507" lon="5.79783">
        <ele>1025.2</ele>
        <time>2021-10-17T10:16:38Z</time>
      </trkpt>
      <trkpt lat="46.27504" lon="5.79785">
        <ele>1025.4</ele>
        <time>2021-10-17T10:16:39Z</time>
      </trkpt>
      <trkpt lat="46.27502" lon="5.79787">
        <ele>1025.4</ele>
        <time>2021-10-17T10:16:40Z</time>
      </trkpt>
      <trkpt lat="46.275" lon="5.79789">
        <ele>1025.6</ele>
        <time>2021-10-17T10:16:41Z</time>
      </trkpt>
      <trkpt lat="46.27498" lon="5.79791">
        <ele>1025.6</ele>
        <time>2021-10-17T10:16:42Z</time>
      </trkpt>
      <trkpt lat="46.27496" lon="5.79793">
        <ele>1026</ele>
        <time>2021-10-17T10:16:43Z</time>
      </trkpt>
      <trkpt lat="46.27493" lon="5.79794">
        <ele>1026</ele>
        <time>2021-10-17T10:16:44Z</time>
      </trkpt>
      <trkpt lat="46.27491" lon="5.79797">
        <ele>1026.4</ele>
        <time>2021-10-17T10:16:45Z</time>
      </trkpt>
      <trkpt lat="46.27488" lon="5.79799">
        <ele>1026.6</ele>
        <time>2021-10-17T10:16:46Z</time>
      </trkpt>
      <trkpt lat="46.27486" lon="5.79801">
        <ele>1026.6</ele>
        <time>2021-10-17T10:16:47Z</time>
      </trkpt>
      <trkpt lat="46.27483" lon="5.79803">
        <ele>1027</ele>
        <time>2021-10-17T10:16:48Z</time>
      </trkpt>
      <trkpt lat="46.27481" lon="5.79804">
        <ele>1027.2</ele>
        <time>2021-10-17T10:16:49Z</time>
      </trkpt>
      <trkpt lat="46.27478" lon="5.79806">
        <ele>1027.4</ele>
        <time>2021-10-17T10:16:50Z</time>
      </trkpt>
      <trkpt lat="46.27476" lon="5.79807">
        <ele>1027.4</ele>
        <time>2021-10-17T10:16:51Z</time>
      </trkpt>
      <trkpt lat="46.27473" lon="5.79809">
        <ele>1027.6</ele>
        <time>2021-10-17T10:16:52Z</time>
      </trkpt>
      <trkpt lat="46.27471" lon="5.7981">
        <ele>1027.8</ele>
        <time>2021-10-17T10:16:53Z</time>
      </trkpt>
      <trkpt lat="46.27468" lon="5.79811">
        <ele>1028</ele>
        <time>2021-10-17T10:16:54Z</time>
      </trkpt>
      <trkpt lat="46.27465" lon="5.79813">
        <ele>1028</ele>
        <time>2021-10-17T10:16:55Z</time>
      </trkpt>
      <trkpt lat="46.27463" lon="5.79814">
        <ele>1028.4</ele>
        <time>2021-10-17T10:16:56Z</time>
      </trkpt>
      <trkpt lat="46.27461" lon="5.79815">
        <ele>1028.6</ele>
        <time>2021-10-17T10:16:57Z</time>
      </trkpt>
      <trkpt lat="46.27458" lon="5.79816">
        <ele>1028.6</ele>
        <time>2021-10-17T10:16:58Z</time>
      </trkpt>
      <trkpt lat="46.27456" lon="5.79816">
        <ele>1029</ele>
        <time>2021-10-17T10:16:59Z</time>
      </trkpt>
      <trkpt lat="46.27453" lon="5.79817">
        <ele>1029</ele>
        <time>2021-10-17T10:17:00Z</time>
      </trkpt>
      <trkpt lat="46.27451" lon="5.79818">
        <ele>1029.4</ele>
        <time>2021-10-17T10:17:01Z</time>
      </trkpt>
      <trkpt lat="46.27449" lon="5.79818">
        <ele>1029.4</ele>
        <time>2021-10-17T10:17:02Z</time>
      </trkpt>
      <trkpt lat="46.27446" lon="5.79819">
        <ele>1029.8</ele>
        <time>2021-10-17T10:17:03Z</time>
      </trkpt>
      <trkpt lat="46.27444" lon="5.79819">
        <ele>1029.8</ele>
        <time>2021-10-17T10:17:04Z</time>
      </trkpt>
      <trkpt lat="46.27441" lon="5.79819">
        <ele>1030</ele>
        <time>2021-10-17T10:17:05Z</time>
      </trkpt>
      <trkpt lat="46.27439" lon="5.7982">
        <ele>1030</ele>
        <time>2021-10-17T10:17:06Z</time>
      </trkpt>
      <trkpt lat="46.27436" lon="5.7982">
        <ele>1030.4</ele>
        <time>2021-10-17T10:17:07Z</time>
      </trkpt>
      <trkpt lat="46.27434" lon="5.79822">
        <ele>1030.4</ele>
        <time>2021-10-17T10:17:08Z</time>
      </trkpt>
      <trkpt lat="46.27431" lon="5.79823">
        <ele>1030.8</ele>
        <time>2021-10-17T10:17:09Z</time>
      </trkpt>
      <trkpt lat="46.27428" lon="5.79824">
        <ele>1031</ele>
        <time>2021-10-17T10:17:10Z</time>
      </trkpt>
      <trkpt lat="46.27425" lon="5.79825">
        <ele>1031.2</ele>
        <time>2021-10-17T10:17:11Z</time>
      </trkpt>
      <trkpt lat="46.27423" lon="5.79826">
        <ele>1031.2</ele>
        <time>2021-10-17T10:17:12Z</time>
      </trkpt>
      <trkpt lat="46.2742" lon="5.79826">
        <ele>1031.6</ele>
        <time>2021-10-17T10:17:13Z</time>
      </trkpt>
      <trkpt lat="46.27418" lon="5.79827">
        <ele>1031.6</ele>
        <time>2021-10-17T10:17:14Z</time>
      </trkpt>
      <trkpt lat="46.27415" lon="5.79829">
        <ele>1032</ele>
        <time>2021-10-17T10:17:15Z</time>
      </trkpt>
      <trkpt lat="46.27412" lon="5.79829">
        <ele>1032.2</ele>
        <time>2021-10-17T10:17:16Z</time>
      </trkpt>
      <trkpt lat="46.2741" lon="5.7983">
        <ele>1032.4</ele>
        <time>2021-10-17T10:17:17Z</time>
      </trkpt>
      <trkpt lat="46.27408" lon="5.79831">
        <ele>1032.4</ele>
        <time>2021-10-17T10:17:18Z</time>
      </trkpt>
      <trkpt lat="46.27405" lon="5.79831">
        <ele>1032.8</ele>
        <time>2021-10-17T10:17:19Z</time>
      </trkpt>
      <trkpt lat="46.27403" lon="5.79831">
        <ele>1033</ele>
        <time>2021-10-17T10:17:20Z</time>
      </trkpt>
      <trkpt lat="46.274" lon="5.7983">
        <ele>1033.2</ele>
        <time>2021-10-17T10:17:21Z</time>
      </trkpt>
      <trkpt lat="46.27398" lon="5.79829">
        <ele>1033.2</ele>
        <time>2021-10-17T10:17:22Z</time>
      </trkpt>
      <trkpt lat="46.27395" lon="5.79829">
        <ele>1033.6</ele>
        <time>2021-10-17T10:17:23Z</time>
      </trkpt>
      <trkpt lat="46.27392" lon="5.79829">
        <ele>1033.6</ele>
        <time>2021-10-17T10:17:24Z</time>
      </trkpt>
      <trkpt lat="46.2739" lon="5.79828">
        <ele>1033.8</ele>
        <time>2021-10-17T10:17:25Z</time>
      </trkpt>
      <trkpt lat="46.27387" lon="5.79828">
        <ele>1034.2</ele>
        <time>2021-10-17T10:17:26Z</time>
      </trkpt>
      <trkpt lat="46.27385" lon="5.79829">
        <ele>1034.2</ele>
        <time>2021-10-17T10:17:27Z</time>
      </trkpt>
      <trkpt lat="46.27382" lon="5.7983">
        <ele>1034.4</ele>
        <time>2021-10-17T10:17:28Z</time>
      </trkpt>
      <trkpt lat="46.2738" lon="5.79831">
        <ele>1034.8</ele>
        <time>2021-10-17T10:17:29Z</time>
      </trkpt>
      <trkpt lat="46.27378" lon="5.79832">
        <ele>1034.8</ele>
        <time>2021-10-17T10:17:30Z</time>
      </trkpt>
      <trkpt lat="46.27376" lon="5.79833">
        <ele>1035.2</ele>
        <time>2021-10-17T10:17:31Z</time>
      </trkpt>
      <trkpt lat="46.27374" lon="5.79835">
        <ele>1035.4</ele>
        <time>2021-10-17T10:17:32Z</time>
      </trkpt>
      <trkpt lat="46.27372" lon="5.79837">
        <ele>1035.6</ele>
        <time>2021-10-17T10:17:33Z</time>
      </trkpt>
      <trkpt lat="46.2737" lon="5.79839">
        <ele>1035.6</ele>
        <time>2021-10-17T10:17:34Z</time>
      </trkpt>
      <trkpt lat="46.27368" lon="5.79841">
        <ele>1036</ele>
        <time>2021-10-17T10:17:35Z</time>
      </trkpt>
      <trkpt lat="46.27366" lon="5.79843">
        <ele>1036</ele>
        <time>2021-10-17T10:17:36Z</time>
      </trkpt>
      <trkpt lat="46.27364" lon="5.79845">
        <ele>1036.2</ele>
        <time>2021-10-17T10:17:37Z</time>
      </trkpt>
      <trkpt lat="46.27363" lon="5.79848">
        <ele>1036.2</ele>
        <time>2021-10-17T10:17:38Z</time>
      </trkpt>
      <trkpt lat="46.27361" lon="5.7985">
        <ele>1036.6</ele>
        <time>2021-10-17T10:17:39Z</time>
      </trkpt>
      <trkpt lat="46.2736" lon="5.79853">
        <ele>1036.8</ele>
        <time>2021-10-17T10:17:40Z</time>
      </trkpt>
      <trkpt lat="46.27358" lon="5.79855">
        <ele>1037.2</ele>
        <time>2021-10-17T10:17:41Z</time>
      </trkpt>
      <trkpt lat="46.27357" lon="5.79857">
        <ele>1037.4</ele>
        <time>2021-10-17T10:17:42Z</time>
      </trkpt>
      <trkpt lat="46.27355" lon="5.79859">
        <ele>1037.4</ele>
        <time>2021-10-17T10:17:43Z</time>
      </trkpt>
      <trkpt lat="46.27354" lon="5.79861">
        <ele>1037.8</ele>
        <time>2021-10-17T10:17:44Z</time>
      </trkpt>
      <trkpt lat="46.27352" lon="5.79864">
        <ele>1038</ele>
        <time>2021-10-17T10:17:45Z</time>
      </trkpt>
      <trkpt lat="46.2735" lon="5.79867">
        <ele>1038.2</ele>
        <time>2021-10-17T10:17:46Z</time>
      </trkpt>
      <trkpt lat="46.27348" lon="5.7987">
        <ele>1038.6</ele>
        <time>2021-10-17T10:17:47Z</time>
      </trkpt>
      <trkpt lat="46.27347" lon="5.79873">
        <ele>1038.8</ele>
        <time>2021-10-17T10:17:48Z</time>
      </trkpt>
      <trkpt lat="46.27345" lon="5.79876">
        <ele>1038.8</ele>
        <time>2021-10-17T10:17:49Z</time>
      </trkpt>
      <trkpt lat="46.27344" lon="5.7988">
        <ele>1039</ele>
        <time>2021-10-17T10:17:50Z</time>
      </trkpt>
      <trkpt lat="46.27343" lon="5.79883">
        <ele>1039.2</ele>
        <time>2021-10-17T10:17:51Z</time>
      </trkpt>
      <trkpt lat="46.27342" lon="5.79886">
        <ele>1039.2</ele>
        <time>2021-10-17T10:17:52Z</time>
      </trkpt>
      <trkpt lat="46.27341" lon="5.79889">
        <ele>1039.6</ele>
        <time>2021-10-17T10:17:53Z</time>
      </trkpt>
      <trkpt lat="46.2734" lon="5.79893">
        <ele>1039.8</ele>
        <time>2021-10-17T10:17:54Z</time>
      </trkpt>
      <trkpt lat="46.27339" lon="5.79897">
        <ele>1039.8</ele>
        <time>2021-10-17T10:17:55Z</time>
      </trkpt>
      <trkpt lat="46.27338" lon="5.799">
        <ele>1040.2</ele>
        <time>2021-10-17T10:17:56Z</time>
      </trkpt>
      <trkpt lat="46.27338" lon="5.79904">
        <ele>1040.2</ele>
        <time>2021-10-17T10:17:57Z</time>
      </trkpt>
      <trkpt lat="46.27337" lon="5.79908">
        <ele>1040.6</ele>
        <time>2021-10-17T10:17:58Z</time>
      </trkpt>
      <trkpt lat="46.27336" lon="5.79911">
        <ele>1040.6</ele>
        <time>2021-10-17T10:17:59Z</time>
      </trkpt>
      <trkpt lat="46.27336" lon="5.79915">
        <ele>1040.8</ele>
        <time>2021-10-17T10:18:00Z</time>
      </trkpt>
      <trkpt lat="46.27335" lon="5.79918">
        <ele>1040.8</ele>
        <time>2021-10-17T10:18:01Z</time>
      </trkpt>
      <trkpt lat="46.27335" lon="5.79922">
        <ele>1041.2</ele>
        <time>2021-10-17T10:18:02Z</time>
      </trkpt>
      <trkpt lat="46.27335" lon="5.79925">
        <ele>1041.2</ele>
        <time>2021-10-17T10:18:03Z</time>
      </trkpt>
      <trkpt lat="46.27334" lon="5.79929">
        <ele>1041.6</ele>
        <time>2021-10-17T10:18:04Z</time>
      </trkpt>
      <trkpt lat="46.27334" lon="5.79932">
        <ele>1041.8</ele>
        <time>2021-10-17T10:18:05Z</time>
      </trkpt>
      <trkpt lat="46.27333" lon="5.79936">
        <ele>1042</ele>
        <time>2021-10-17T10:18:06Z</time>
      </trkpt>
      <trkpt lat="46.27332" lon="5.79939">
        <ele>1042.2</ele>
        <time>2021-10-17T10:18:07Z</time>
      </trkpt>
      <trkpt lat="46.27332" lon="5.79943">
        <ele>1042.6</ele>
        <time>2021-10-17T10:18:08Z</time>
      </trkpt>
      <trkpt lat="46.27332" lon="5.79946">
        <ele>1042.8</ele>
        <time>2021-10-17T10:18:09Z</time>
      </trkpt>
      <trkpt lat="46.27331" lon="5.79949">
        <ele>1043</ele>
        <time>2021-10-17T10:18:10Z</time>
      </trkpt>
      <trkpt lat="46.27331" lon="5.79953">
        <ele>1043</ele>
        <time>2021-10-17T10:18:11Z</time>
      </trkpt>
      <trkpt lat="46.27331" lon="5.79956">
        <ele>1043.4</ele>
        <time>2021-10-17T10:18:12Z</time>
      </trkpt>
      <trkpt lat="46.27331" lon="5.7996">
        <ele>1043.6</ele>
        <time>2021-10-17T10:18:13Z</time>
      </trkpt>
      <trkpt lat="46.27331" lon="5.79964">
        <ele>1043.6</ele>
        <time>2021-10-17T10:18:14Z</time>
      </trkpt>
      <trkpt lat="46.2733" lon="5.79968">
        <ele>1044</ele>
        <time>2021-10-17T10:18:15Z</time>
      </trkpt>
      <trkpt lat="46.2733" lon="5.79971">
        <ele>1044.2</ele>
        <time>2021-10-17T10:18:16Z</time>
      </trkpt>
      <trkpt lat="46.27331" lon="5.79975">
        <ele>1044.2</ele>
        <time>2021-10-17T10:18:17Z</time>
      </trkpt>
      <trkpt lat="46.2733" lon="5.79978">
        <ele>1044.6</ele>
        <time>2021-10-17T10:18:18Z</time>
      </trkpt>
      <trkpt lat="46.2733" lon="5.79982">
        <ele>1044.6</ele>
        <time>2021-10-17T10:18:19Z</time>
      </trkpt>
      <trkpt lat="46.2733" lon="5.79986">
        <ele>1045</ele>
        <time>2021-10-17T10:18:20Z</time>
      </trkpt>
      <trkpt lat="46.27331" lon="5.79989">
        <ele>1045.2</ele>
        <time>2021-10-17T10:18:21Z</time>
      </trkpt>
      <trkpt lat="46.27331" lon="5.79993">
        <ele>1045.2</ele>
        <time>2021-10-17T10:18:22Z</time>
      </trkpt>
      <trkpt lat="46.27331" lon="5.79996">
        <ele>1045.6</ele>
        <time>2021-10-17T10:18:23Z</time>
      </trkpt>
      <trkpt lat="46.27331" lon="5.8">
        <ele>1045.8</ele>
        <time>2021-10-17T10:18:24Z</time>
      </trkpt>
      <trkpt lat="46.27331" lon="5.80003">
        <ele>1046</ele>
        <time>2021-10-17T10:18:25Z</time>
      </trkpt>
      <trkpt lat="46.27331" lon="5.80006">
        <ele>1046</ele>
        <time>2021-10-17T10:18:26Z</time>
      </trkpt>
      <trkpt lat="46.27331" lon="5.80009">
        <ele>1046.4</ele>
        <time>2021-10-17T10:18:27Z</time>
      </trkpt>
      <trkpt lat="46.27331" lon="5.80013">
        <ele>1046.6</ele>
        <time>2021-10-17T10:18:28Z</time>
      </trkpt>
      <trkpt lat="46.2733" lon="5.80016">
        <ele>1046.6</ele>
        <time>2021-10-17T10:18:29Z</time>
      </trkpt>
      <trkpt lat="46.2733" lon="5.80019">
        <ele>1047</ele>
        <time>2021-10-17T10:18:30Z</time>
      </trkpt>
      <trkpt lat="46.2733" lon="5.80022">
        <ele>1047.2</ele>
        <time>2021-10-17T10:18:31Z</time>
      </trkpt>
      <trkpt lat="46.2733" lon="5.80026">
        <ele>1047.2</ele>
        <time>2021-10-17T10:18:32Z</time>
      </trkpt>
      <trkpt lat="46.2733" lon="5.80029">
        <ele>1047.6</ele>
        <time>2021-10-17T10:18:33Z</time>
      </trkpt>
      <trkpt lat="46.2733" lon="5.80033">
        <ele>1047.8</ele>
        <time>2021-10-17T10:18:34Z</time>
      </trkpt>
      <trkpt lat="46.27329" lon="5.80036">
        <ele>1047.8</ele>
        <time>2021-10-17T10:18:35Z</time>
      </trkpt>
      <trkpt lat="46.27329" lon="5.8004">
        <ele>1048.2</ele>
        <time>2021-10-17T10:18:36Z</time>
      </trkpt>
      <trkpt lat="46.27329" lon="5.80043">
        <ele>1048.2</ele>
        <time>2021-10-17T10:18:37Z</time>
      </trkpt>
      <trkpt lat="46.27328" lon="5.80047">
        <ele>1048.6</ele>
        <time>2021-10-17T10:18:38Z</time>
      </trkpt>
      <trkpt lat="46.27328" lon="5.8005">
        <ele>1048.8</ele>
        <time>2021-10-17T10:18:39Z</time>
      </trkpt>
      <trkpt lat="46.27328" lon="5.80053">
        <ele>1049.2</ele>
        <time>2021-10-17T10:18:40Z</time>
      </trkpt>
      <trkpt lat="46.27328" lon="5.80057">
        <ele>1049.4</ele>
        <time>2021-10-17T10:18:41Z</time>
      </trkpt>
      <trkpt lat="46.27328" lon="5.8006">
        <ele>1049.6</ele>
        <time>2021-10-17T10:18:42Z</time>
      </trkpt>
      <trkpt lat="46.27327" lon="5.80064">
        <ele>1049.8</ele>
        <time>2021-10-17T10:18:43Z</time>
      </trkpt>
      <trkpt lat="46.27326" lon="5.80068">
        <ele>1050</ele>
        <time>2021-10-17T10:18:44Z</time>
      </trkpt>
      <trkpt lat="46.27325" lon="5.80072">
        <ele>1050.2</ele>
        <time>2021-10-17T10:18:45Z</time>
      </trkpt>
      <trkpt lat="46.27324" lon="5.80075">
        <ele>1050.6</ele>
        <time>2021-10-17T10:18:46Z</time>
      </trkpt>
      <trkpt lat="46.27323" lon="5.80079">
        <ele>1050.8</ele>
        <time>2021-10-17T10:18:47Z</time>
      </trkpt>
      <trkpt lat="46.27322" lon="5.80082">
        <ele>1050.8</ele>
        <time>2021-10-17T10:18:48Z</time>
      </trkpt>
      <trkpt lat="46.27322" lon="5.80086">
        <ele>1051.2</ele>
        <time>2021-10-17T10:18:49Z</time>
      </trkpt>
      <trkpt lat="46.27321" lon="5.80089">
        <ele>1051.4</ele>
        <time>2021-10-17T10:18:50Z</time>
      </trkpt>
      <trkpt lat="46.2732" lon="5.80092">
        <ele>1051.6</ele>
        <time>2021-10-17T10:18:51Z</time>
      </trkpt>
      <trkpt lat="46.27319" lon="5.80096">
        <ele>1051.6</ele>
        <time>2021-10-17T10:18:52Z</time>
      </trkpt>
      <trkpt lat="46.27318" lon="5.801">
        <ele>1052.2</ele>
        <time>2021-10-17T10:18:53Z</time>
      </trkpt>
      <trkpt lat="46.27317" lon="5.80103">
        <ele>1052.4</ele>
        <time>2021-10-17T10:18:54Z</time>
      </trkpt>
      <trkpt lat="46.27316" lon="5.80107">
        <ele>1052.6</ele>
        <time>2021-10-17T10:18:55Z</time>
      </trkpt>
      <trkpt lat="46.27315" lon="5.8011">
        <ele>1052.6</ele>
        <time>2021-10-17T10:18:56Z</time>
      </trkpt>
      <trkpt lat="46.27314" lon="5.80113">
        <ele>1053</ele>
        <time>2021-10-17T10:18:57Z</time>
      </trkpt>
      <trkpt lat="46.27313" lon="5.80117">
        <ele>1053.2</ele>
        <time>2021-10-17T10:18:58Z</time>
      </trkpt>
      <trkpt lat="46.27312" lon="5.80121">
        <ele>1053.6</ele>
        <time>2021-10-17T10:18:59Z</time>
      </trkpt>
      <trkpt lat="46.27312" lon="5.80124">
        <ele>1053.8</ele>
        <time>2021-10-17T10:19:00Z</time>
      </trkpt>
      <trkpt lat="46.27311" lon="5.80128">
        <ele>1053.8</ele>
        <time>2021-10-17T10:19:01Z</time>
      </trkpt>
      <trkpt lat="46.27309" lon="5.80132">
        <ele>1054.2</ele>
        <time>2021-10-17T10:19:02Z</time>
      </trkpt>
      <trkpt lat="46.27308" lon="5.80135">
        <ele>1054.2</ele>
        <time>2021-10-17T10:19:03Z</time>
      </trkpt>
      <trkpt lat="46.27307" lon="5.80139">
        <ele>1054.6</ele>
        <time>2021-10-17T10:19:04Z</time>
      </trkpt>
      <trkpt lat="46.27306" lon="5.80142">
        <ele>1054.6</ele>
        <time>2021-10-17T10:19:05Z</time>
      </trkpt>
      <trkpt lat="46.27305" lon="5.80146">
        <ele>1054.8</ele>
        <time>2021-10-17T10:19:06Z</time>
      </trkpt>
      <trkpt lat="46.27305" lon="5.80149">
        <ele>1054.8</ele>
        <time>2021-10-17T10:19:07Z</time>
      </trkpt>
      <trkpt lat="46.27304" lon="5.80153">
        <ele>1055.2</ele>
        <time>2021-10-17T10:19:08Z</time>
      </trkpt>
      <trkpt lat="46.27303" lon="5.80156">
        <ele>1055.4</ele>
        <time>2021-10-17T10:19:09Z</time>
      </trkpt>
      <trkpt lat="46.27302" lon="5.8016">
        <ele>1055.4</ele>
        <time>2021-10-17T10:19:10Z</time>
      </trkpt>
      <trkpt lat="46.27301" lon="5.80164">
        <ele>1055.8</ele>
        <time>2021-10-17T10:19:11Z</time>
      </trkpt>
      <trkpt lat="46.273" lon="5.80167">
        <ele>1056.2</ele>
        <time>2021-10-17T10:19:12Z</time>
      </trkpt>
      <trkpt lat="46.27299" lon="5.8017">
        <ele>1056.4</ele>
        <time>2021-10-17T10:19:13Z</time>
      </trkpt>
      <trkpt lat="46.27298" lon="5.80174">
        <ele>1056.6</ele>
        <time>2021-10-17T10:19:14Z</time>
      </trkpt>
      <trkpt lat="46.27297" lon="5.80177">
        <ele>1056.8</ele>
        <time>2021-10-17T10:19:15Z</time>
      </trkpt>
      <trkpt lat="46.27296" lon="5.8018">
        <ele>1057</ele>
        <time>2021-10-17T10:19:16Z</time>
      </trkpt>
      <trkpt lat="46.27295" lon="5.80184">
        <ele>1057.4</ele>
        <time>2021-10-17T10:19:17Z</time>
      </trkpt>
      <trkpt lat="46.27294" lon="5.80187">
        <ele>1057.6</ele>
        <time>2021-10-17T10:19:18Z</time>
      </trkpt>
      <trkpt lat="46.27293" lon="5.8019">
        <ele>1057.6</ele>
        <time>2021-10-17T10:19:19Z</time>
      </trkpt>
      <trkpt lat="46.27293" lon="5.80193">
        <ele>1058</ele>
        <time>2021-10-17T10:19:20Z</time>
      </trkpt>
      <trkpt lat="46.27292" lon="5.80197">
        <ele>1058.4</ele>
        <time>2021-10-17T10:19:21Z</time>
      </trkpt>
      <trkpt lat="46.27291" lon="5.802">
        <ele>1058.6</ele>
        <time>2021-10-17T10:19:22Z</time>
      </trkpt>
      <trkpt lat="46.27291" lon="5.80203">
        <ele>1058.6</ele>
        <time>2021-10-17T10:19:23Z</time>
      </trkpt>
      <trkpt lat="46.2729" lon="5.80206">
        <ele>1059</ele>
        <time>2021-10-17T10:19:24Z</time>
      </trkpt>
      <trkpt lat="46.27289" lon="5.8021">
        <ele>1059.2</ele>
        <time>2021-10-17T10:19:25Z</time>
      </trkpt>
      <trkpt lat="46.27288" lon="5.80213">
        <ele>1059.4</ele>
        <time>2021-10-17T10:19:26Z</time>
      </trkpt>
      <trkpt lat="46.27287" lon="5.80216">
        <ele>1059.6</ele>
        <time>2021-10-17T10:19:27Z</time>
      </trkpt>
      <trkpt lat="46.27286" lon="5.8022">
        <ele>1059.8</ele>
        <time>2021-10-17T10:19:28Z</time>
      </trkpt>
      <trkpt lat="46.27285" lon="5.80223">
        <ele>1060.2</ele>
        <time>2021-10-17T10:19:29Z</time>
      </trkpt>
      <trkpt lat="46.27285" lon="5.80226">
        <ele>1060.4</ele>
        <time>2021-10-17T10:19:30Z</time>
      </trkpt>
      <trkpt lat="46.27284" lon="5.8023">
        <ele>1060.4</ele>
        <time>2021-10-17T10:19:31Z</time>
      </trkpt>
      <trkpt lat="46.27283" lon="5.80233">
        <ele>1060.8</ele>
        <time>2021-10-17T10:19:32Z</time>
      </trkpt>
      <trkpt lat="46.27282" lon="5.80236">
        <ele>1060.8</ele>
        <time>2021-10-17T10:19:33Z</time>
      </trkpt>
      <trkpt lat="46.27282" lon="5.8024">
        <ele>1061.2</ele>
        <time>2021-10-17T10:19:34Z</time>
      </trkpt>
      <trkpt lat="46.27281" lon="5.80243">
        <ele>1061.4</ele>
        <time>2021-10-17T10:19:35Z</time>
      </trkpt>
      <trkpt lat="46.2728" lon="5.80246">
        <ele>1061.8</ele>
        <time>2021-10-17T10:19:36Z</time>
      </trkpt>
      <trkpt lat="46.2728" lon="5.80249">
        <ele>1062</ele>
        <time>2021-10-17T10:19:37Z</time>
      </trkpt>
      <trkpt lat="46.27279" lon="5.80252">
        <ele>1062.2</ele>
        <time>2021-10-17T10:19:38Z</time>
      </trkpt>
      <trkpt lat="46.27278" lon="5.80255">
        <ele>1062.2</ele>
        <time>2021-10-17T10:19:39Z</time>
      </trkpt>
      <trkpt lat="46.27277" lon="5.80258">
        <ele>1062.6</ele>
        <time>2021-10-17T10:19:40Z</time>
      </trkpt>
      <trkpt lat="46.27276" lon="5.80262">
        <ele>1062.8</ele>
        <time>2021-10-17T10:19:41Z</time>
      </trkpt>
      <trkpt lat="46.27275" lon="5.80265">
        <ele>1063</ele>
        <time>2021-10-17T10:19:42Z</time>
      </trkpt>
      <trkpt lat="46.27275" lon="5.80269">
        <ele>1063</ele>
        <time>2021-10-17T10:19:43Z</time>
      </trkpt>
      <trkpt lat="46.27274" lon="5.80272">
        <ele>1063.4</ele>
        <time>2021-10-17T10:19:44Z</time>
      </trkpt>
      <trkpt lat="46.27273" lon="5.80275">
        <ele>1063.4</ele>
        <time>2021-10-17T10:19:45Z</time>
      </trkpt>
      <trkpt lat="46.27273" lon="5.80279">
        <ele>1063.6</ele>
        <time>2021-10-17T10:19:46Z</time>
      </trkpt>
      <trkpt lat="46.27272" lon="5.80282">
        <ele>1063.6</ele>
        <time>2021-10-17T10:19:47Z</time>
      </trkpt>
      <trkpt lat="46.27272" lon="5.80285">
        <ele>1064</ele>
        <time>2021-10-17T10:19:48Z</time>
      </trkpt>
      <trkpt lat="46.27271" lon="5.80289">
        <ele>1064</ele>
        <time>2021-10-17T10:19:49Z</time>
      </trkpt>
      <trkpt lat="46.2727" lon="5.80292">
        <ele>1064.4</ele>
        <time>2021-10-17T10:19:50Z</time>
      </trkpt>
      <trkpt lat="46.27269" lon="5.80295">
        <ele>1064.4</ele>
        <time>2021-10-17T10:19:51Z</time>
      </trkpt>
      <trkpt lat="46.27268" lon="5.80298">
        <ele>1064.6</ele>
        <time>2021-10-17T10:19:52Z</time>
      </trkpt>
      <trkpt lat="46.27267" lon="5.80301">
        <ele>1064.8</ele>
        <time>2021-10-17T10:19:53Z</time>
      </trkpt>
      <trkpt lat="46.27267" lon="5.80304">
        <ele>1064.8</ele>
        <time>2021-10-17T10:19:54Z</time>
      </trkpt>
      <trkpt lat="46.27266" lon="5.80307">
        <ele>1065.2</ele>
        <time>2021-10-17T10:19:55Z</time>
      </trkpt>
      <trkpt lat="46.27264" lon="5.80311">
        <ele>1065.4</ele>
        <time>2021-10-17T10:19:56Z</time>
      </trkpt>
      <trkpt lat="46.27262" lon="5.80314">
        <ele>1065.6</ele>
        <time>2021-10-17T10:19:57Z</time>
      </trkpt>
      <trkpt lat="46.2726" lon="5.80317">
        <ele>1065.6</ele>
        <time>2021-10-17T10:19:58Z</time>
      </trkpt>
      <trkpt lat="46.27258" lon="5.8032">
        <ele>1066</ele>
        <time>2021-10-17T10:19:59Z</time>
      </trkpt>
      <trkpt lat="46.27256" lon="5.80323">
        <ele>1066</ele>
        <time>2021-10-17T10:20:00Z</time>
      </trkpt>
      <trkpt lat="46.27253" lon="5.80325">
        <ele>1066.4</ele>
        <time>2021-10-17T10:20:01Z</time>
      </trkpt>
      <trkpt lat="46.27251" lon="5.80327">
        <ele>1066.6</ele>
        <time>2021-10-17T10:20:02Z</time>
      </trkpt>
      <trkpt lat="46.27249" lon="5.80329">
        <ele>1066.6</ele>
        <time>2021-10-17T10:20:03Z</time>
      </trkpt>
      <trkpt lat="46.27247" lon="5.80331">
        <ele>1066.8</ele>
        <time>2021-10-17T10:20:04Z</time>
      </trkpt>
      <trkpt lat="46.27245" lon="5.80333">
        <ele>1066.8</ele>
        <time>2021-10-17T10:20:05Z</time>
      </trkpt>
      <trkpt lat="46.27243" lon="5.80335">
        <ele>1067.2</ele>
        <time>2021-10-17T10:20:06Z</time>
      </trkpt>
      <trkpt lat="46.27241" lon="5.80336">
        <ele>1067.2</ele>
        <time>2021-10-17T10:20:07Z</time>
      </trkpt>
      <trkpt lat="46.27239" lon="5.80338">
        <ele>1067.4</ele>
        <time>2021-10-17T10:20:08Z</time>
      </trkpt>
      <trkpt lat="46.27237" lon="5.8034">
        <ele>1067.4</ele>
        <time>2021-10-17T10:20:09Z</time>
      </trkpt>
      <trkpt lat="46.27235" lon="5.80342">
        <ele>1067.8</ele>
        <time>2021-10-17T10:20:10Z</time>
      </trkpt>
      <trkpt lat="46.27233" lon="5.80343">
        <ele>1067.8</ele>
        <time>2021-10-17T10:20:11Z</time>
      </trkpt>
      <trkpt lat="46.2723" lon="5.80343">
        <ele>1068.2</ele>
        <time>2021-10-17T10:20:12Z</time>
      </trkpt>
      <trkpt lat="46.27228" lon="5.80345">
        <ele>1068.2</ele>
        <time>2021-10-17T10:20:13Z</time>
      </trkpt>
      <trkpt lat="46.27226" lon="5.80345">
        <ele>1068.4</ele>
        <time>2021-10-17T10:20:14Z</time>
      </trkpt>
      <trkpt lat="46.27224" lon="5.80346">
        <ele>1068.4</ele>
        <time>2021-10-17T10:20:15Z</time>
      </trkpt>
      <trkpt lat="46.27221" lon="5.80347">
        <ele>1068.8</ele>
        <time>2021-10-17T10:20:16Z</time>
      </trkpt>
      <trkpt lat="46.27219" lon="5.80348">
        <ele>1068.8</ele>
        <time>2021-10-17T10:20:17Z</time>
      </trkpt>
      <trkpt lat="46.27216" lon="5.80349">
        <ele>1069</ele>
        <time>2021-10-17T10:20:18Z</time>
      </trkpt>
      <trkpt lat="46.27214" lon="5.8035">
        <ele>1069</ele>
        <time>2021-10-17T10:20:19Z</time>
      </trkpt>
      <trkpt lat="46.27212" lon="5.80351">
        <ele>1069.4</ele>
        <time>2021-10-17T10:20:20Z</time>
      </trkpt>
      <trkpt lat="46.27209" lon="5.80352">
        <ele>1069.6</ele>
        <time>2021-10-17T10:20:21Z</time>
      </trkpt>
      <trkpt lat="46.27206" lon="5.80353">
        <ele>1069.8</ele>
        <time>2021-10-17T10:20:22Z</time>
      </trkpt>
      <trkpt lat="46.27203" lon="5.80353">
        <ele>1069.8</ele>
        <time>2021-10-17T10:20:23Z</time>
      </trkpt>
      <trkpt lat="46.27201" lon="5.80354">
        <ele>1070.2</ele>
        <time>2021-10-17T10:20:24Z</time>
      </trkpt>
      <trkpt lat="46.27198" lon="5.80356">
        <ele>1070.2</ele>
        <time>2021-10-17T10:20:25Z</time>
      </trkpt>
      <trkpt lat="46.27195" lon="5.80357">
        <ele>1070.6</ele>
        <time>2021-10-17T10:20:26Z</time>
      </trkpt>
      <trkpt lat="46.27192" lon="5.80358">
        <ele>1070.6</ele>
        <time>2021-10-17T10:20:27Z</time>
      </trkpt>
      <trkpt lat="46.2719" lon="5.80359">
        <ele>1070.8</ele>
        <time>2021-10-17T10:20:28Z</time>
      </trkpt>
      <trkpt lat="46.27187" lon="5.8036">
        <ele>1070.8</ele>
        <time>2021-10-17T10:20:29Z</time>
      </trkpt>
      <trkpt lat="46.27184" lon="5.80362">
        <ele>1071.2</ele>
        <time>2021-10-17T10:20:30Z</time>
      </trkpt>
      <trkpt lat="46.27181" lon="5.80363">
        <ele>1071.2</ele>
        <time>2021-10-17T10:20:31Z</time>
      </trkpt>
      <trkpt lat="46.27179" lon="5.80365">
        <ele>1071.6</ele>
        <time>2021-10-17T10:20:32Z</time>
      </trkpt>
      <trkpt lat="46.27176" lon="5.80367">
        <ele>1071.6</ele>
        <time>2021-10-17T10:20:33Z</time>
      </trkpt>
      <trkpt lat="46.27174" lon="5.80369">
        <ele>1071.8</ele>
        <time>2021-10-17T10:20:34Z</time>
      </trkpt>
      <trkpt lat="46.27171" lon="5.80371">
        <ele>1071.8</ele>
        <time>2021-10-17T10:20:35Z</time>
      </trkpt>
      <trkpt lat="46.27169" lon="5.80373">
        <ele>1072</ele>
        <time>2021-10-17T10:20:36Z</time>
      </trkpt>
      <trkpt lat="46.27166" lon="5.80375">
        <ele>1072</ele>
        <time>2021-10-17T10:20:37Z</time>
      </trkpt>
      <trkpt lat="46.27164" lon="5.80377">
        <ele>1072.4</ele>
        <time>2021-10-17T10:20:38Z</time>
      </trkpt>
      <trkpt lat="46.27161" lon="5.80378">
        <ele>1072.6</ele>
        <time>2021-10-17T10:20:39Z</time>
      </trkpt>
      <trkpt lat="46.27159" lon="5.8038">
        <ele>1072.6</ele>
        <time>2021-10-17T10:20:40Z</time>
      </trkpt>
      <trkpt lat="46.27156" lon="5.80382">
        <ele>1072.8</ele>
        <time>2021-10-17T10:20:41Z</time>
      </trkpt>
      <trkpt lat="46.27154" lon="5.80384">
        <ele>1072.8</ele>
        <time>2021-10-17T10:20:42Z</time>
      </trkpt>
      <trkpt lat="46.27152" lon="5.80386">
        <ele>1073.2</ele>
        <time>2021-10-17T10:20:43Z</time>
      </trkpt>
      <trkpt lat="46.2715" lon="5.80387">
        <ele>1073.2</ele>
        <time>2021-10-17T10:20:44Z</time>
      </trkpt>
      <trkpt lat="46.27147" lon="5.80389">
        <ele>1073.6</ele>
        <time>2021-10-17T10:20:45Z</time>
      </trkpt>
      <trkpt lat="46.27145" lon="5.80391">
        <ele>1073.8</ele>
        <time>2021-10-17T10:20:46Z</time>
      </trkpt>
      <trkpt lat="46.27143" lon="5.80393">
        <ele>1073.8</ele>
        <time>2021-10-17T10:20:47Z</time>
      </trkpt>
      <trkpt lat="46.2714" lon="5.80395">
        <ele>1074.2</ele>
        <time>2021-10-17T10:20:48Z</time>
      </trkpt>
      <trkpt lat="46.27138" lon="5.80397">
        <ele>1074.2</ele>
        <time>2021-10-17T10:20:49Z</time>
      </trkpt>
      <trkpt lat="46.27136" lon="5.80399">
        <ele>1074.4</ele>
        <time>2021-10-17T10:20:50Z</time>
      </trkpt>
      <trkpt lat="46.27134" lon="5.80401">
        <ele>1074.4</ele>
        <time>2021-10-17T10:20:51Z</time>
      </trkpt>
      <trkpt lat="46.27132" lon="5.80402">
        <ele>1074.8</ele>
        <time>2021-10-17T10:20:52Z</time>
      </trkpt>
      <trkpt lat="46.2713" lon="5.80404">
        <ele>1074.8</ele>
        <time>2021-10-17T10:20:53Z</time>
      </trkpt>
      <trkpt lat="46.27128" lon="5.80406">
        <ele>1075.2</ele>
        <time>2021-10-17T10:20:54Z</time>
      </trkpt>
      <trkpt lat="46.27125" lon="5.80407">
        <ele>1075.2</ele>
        <time>2021-10-17T10:20:55Z</time>
      </trkpt>
      <trkpt lat="46.27123" lon="5.80409">
        <ele>1075.6</ele>
        <time>2021-10-17T10:20:56Z</time>
      </trkpt>
      <trkpt lat="46.27121" lon="5.8041">
        <ele>1075.8</ele>
        <time>2021-10-17T10:20:57Z</time>
      </trkpt>
      <trkpt lat="46.27118" lon="5.80411">
        <ele>1076</ele>
        <time>2021-10-17T10:20:58Z</time>
      </trkpt>
      <trkpt lat="46.27116" lon="5.80411">
        <ele>1076.4</ele>
        <time>2021-10-17T10:20:59Z</time>
      </trkpt>
      <trkpt lat="46.27114" lon="5.80412">
        <ele>1076.6</ele>
        <time>2021-10-17T10:21:00Z</time>
      </trkpt>
      <trkpt lat="46.27111" lon="5.80413">
        <ele>1076.8</ele>
        <time>2021-10-17T10:21:01Z</time>
      </trkpt>
      <trkpt lat="46.27109" lon="5.80414">
        <ele>1077</ele>
        <time>2021-10-17T10:21:02Z</time>
      </trkpt>
      <trkpt lat="46.27106" lon="5.80415">
        <ele>1077.2</ele>
        <time>2021-10-17T10:21:03Z</time>
      </trkpt>
      <trkpt lat="46.27104" lon="5.80415">
        <ele>1077.6</ele>
        <time>2021-10-17T10:21:04Z</time>
      </trkpt>
      <trkpt lat="46.27102" lon="5.80415">
        <ele>1077.6</ele>
        <time>2021-10-17T10:21:05Z</time>
      </trkpt>
      <trkpt lat="46.27099" lon="5.80415">
        <ele>1077.8</ele>
        <time>2021-10-17T10:21:06Z</time>
      </trkpt>
      <trkpt lat="46.27096" lon="5.80415">
        <ele>1077.8</ele>
        <time>2021-10-17T10:21:07Z</time>
      </trkpt>
      <trkpt lat="46.27094" lon="5.80415">
        <ele>1078.4</ele>
        <time>2021-10-17T10:21:08Z</time>
      </trkpt>
      <trkpt lat="46.27091" lon="5.80416">
        <ele>1078.4</ele>
        <time>2021-10-17T10:21:09Z</time>
      </trkpt>
      <trkpt lat="46.27089" lon="5.80416">
        <ele>1078.8</ele>
        <time>2021-10-17T10:21:10Z</time>
      </trkpt>
      <trkpt lat="46.27086" lon="5.80416">
        <ele>1079</ele>
        <time>2021-10-17T10:21:11Z</time>
      </trkpt>
      <trkpt lat="46.27084" lon="5.80416">
        <ele>1079.2</ele>
        <time>2021-10-17T10:21:12Z</time>
      </trkpt>
      <trkpt lat="46.27082" lon="5.80417">
        <ele>1079.4</ele>
        <time>2021-10-17T10:21:13Z</time>
      </trkpt>
      <trkpt lat="46.27079" lon="5.80417">
        <ele>1079.6</ele>
        <time>2021-10-17T10:21:14Z</time>
      </trkpt>
      <trkpt lat="46.27077" lon="5.80416">
        <ele>1079.6</ele>
        <time>2021-10-17T10:21:15Z</time>
      </trkpt>
      <trkpt lat="46.27075" lon="5.80416">
        <ele>1080</ele>
        <time>2021-10-17T10:21:16Z</time>
      </trkpt>
      <trkpt lat="46.27072" lon="5.80416">
        <ele>1080</ele>
        <time>2021-10-17T10:21:17Z</time>
      </trkpt>
      <trkpt lat="46.2707" lon="5.80416">
        <ele>1080.4</ele>
        <time>2021-10-17T10:21:18Z</time>
      </trkpt>
      <trkpt lat="46.27068" lon="5.80416">
        <ele>1080.8</ele>
        <time>2021-10-17T10:21:19Z</time>
      </trkpt>
      <trkpt lat="46.27065" lon="5.80416">
        <ele>1080.8</ele>
        <time>2021-10-17T10:21:20Z</time>
      </trkpt>
      <trkpt lat="46.27063" lon="5.80416">
        <ele>1080.8</ele>
        <time>2021-10-17T10:21:21Z</time>
      </trkpt>
      <trkpt lat="46.27061" lon="5.80417">
        <ele>1081</ele>
        <time>2021-10-17T10:21:22Z</time>
      </trkpt>
      <trkpt lat="46.27058" lon="5.80417">
        <ele>1081</ele>
        <time>2021-10-17T10:21:23Z</time>
      </trkpt>
      <trkpt lat="46.27056" lon="5.80418">
        <ele>1081.4</ele>
        <time>2021-10-17T10:21:24Z</time>
      </trkpt>
      <trkpt lat="46.27054" lon="5.80419">
        <ele>1081.6</ele>
        <time>2021-10-17T10:21:25Z</time>
      </trkpt>
      <trkpt lat="46.27051" lon="5.80419">
        <ele>1081.8</ele>
        <time>2021-10-17T10:21:26Z</time>
      </trkpt>
      <trkpt lat="46.27049" lon="5.8042">
        <ele>1081.8</ele>
        <time>2021-10-17T10:21:27Z</time>
      </trkpt>
      <trkpt lat="46.27047" lon="5.80421">
        <ele>1082.2</ele>
        <time>2021-10-17T10:21:28Z</time>
      </trkpt>
      <trkpt lat="46.27045" lon="5.80423">
        <ele>1082.4</ele>
        <time>2021-10-17T10:21:29Z</time>
      </trkpt>
      <trkpt lat="46.27043" lon="5.80424">
        <ele>1082.6</ele>
        <time>2021-10-17T10:21:30Z</time>
      </trkpt>
      <trkpt lat="46.27041" lon="5.80426">
        <ele>1082.6</ele>
        <time>2021-10-17T10:21:31Z</time>
      </trkpt>
      <trkpt lat="46.27039" lon="5.80428">
        <ele>1083</ele>
        <time>2021-10-17T10:21:32Z</time>
      </trkpt>
      <trkpt lat="46.27037" lon="5.8043">
        <ele>1083</ele>
        <time>2021-10-17T10:21:33Z</time>
      </trkpt>
      <trkpt lat="46.27036" lon="5.80432">
        <ele>1083.2</ele>
        <time>2021-10-17T10:21:34Z</time>
      </trkpt>
      <trkpt lat="46.27034" lon="5.80434">
        <ele>1083.2</ele>
        <time>2021-10-17T10:21:35Z</time>
      </trkpt>
      <trkpt lat="46.27032" lon="5.80436">
        <ele>1083.6</ele>
        <time>2021-10-17T10:21:36Z</time>
      </trkpt>
      <trkpt lat="46.2703" lon="5.80437">
        <ele>1083.6</ele>
        <time>2021-10-17T10:21:37Z</time>
      </trkpt>
      <trkpt lat="46.27028" lon="5.80439">
        <ele>1084</ele>
        <time>2021-10-17T10:21:38Z</time>
      </trkpt>
      <trkpt lat="46.27026" lon="5.80441">
        <ele>1084.4</ele>
        <time>2021-10-17T10:21:39Z</time>
      </trkpt>
      <trkpt lat="46.27024" lon="5.80442">
        <ele>1084.4</ele>
        <time>2021-10-17T10:21:40Z</time>
      </trkpt>
      <trkpt lat="46.27022" lon="5.80444">
        <ele>1084.6</ele>
        <time>2021-10-17T10:21:41Z</time>
      </trkpt>
      <trkpt lat="46.2702" lon="5.80446">
        <ele>1084.6</ele>
        <time>2021-10-17T10:21:42Z</time>
      </trkpt>
      <trkpt lat="46.27018" lon="5.80447">
        <ele>1084.8</ele>
        <time>2021-10-17T10:21:43Z</time>
      </trkpt>
      <trkpt lat="46.27015" lon="5.80449">
        <ele>1084.8</ele>
        <time>2021-10-17T10:21:44Z</time>
      </trkpt>
      <trkpt lat="46.27013" lon="5.8045">
        <ele>1085.2</ele>
        <time>2021-10-17T10:21:45Z</time>
      </trkpt>
      <trkpt lat="46.27011" lon="5.80451">
        <ele>1085.2</ele>
        <time>2021-10-17T10:21:46Z</time>
      </trkpt>
      <trkpt lat="46.27008" lon="5.80452">
        <ele>1085.6</ele>
        <time>2021-10-17T10:21:47Z</time>
      </trkpt>
      <trkpt lat="46.27006" lon="5.80453">
        <ele>1085.8</ele>
        <time>2021-10-17T10:21:48Z</time>
      </trkpt>
      <trkpt lat="46.27004" lon="5.80455">
        <ele>1085.8</ele>
        <time>2021-10-17T10:21:49Z</time>
      </trkpt>
      <trkpt lat="46.27001" lon="5.80456">
        <ele>1086.2</ele>
        <time>2021-10-17T10:21:50Z</time>
      </trkpt>
      <trkpt lat="46.26999" lon="5.80457">
        <ele>1086.2</ele>
        <time>2021-10-17T10:21:51Z</time>
      </trkpt>
      <trkpt lat="46.26996" lon="5.80458">
        <ele>1086.4</ele>
        <time>2021-10-17T10:21:52Z</time>
      </trkpt>
      <trkpt lat="46.26994" lon="5.8046">
        <ele>1086.8</ele>
        <time>2021-10-17T10:21:53Z</time>
      </trkpt>
      <trkpt lat="46.26991" lon="5.80461">
        <ele>1086.8</ele>
        <time>2021-10-17T10:21:54Z</time>
      </trkpt>
      <trkpt lat="46.26989" lon="5.80462">
        <ele>1087</ele>
        <time>2021-10-17T10:21:55Z</time>
      </trkpt>
      <trkpt lat="46.26987" lon="5.80464">
        <ele>1087</ele>
        <time>2021-10-17T10:21:56Z</time>
      </trkpt>
      <trkpt lat="46.26984" lon="5.80465">
        <ele>1087</ele>
        <time>2021-10-17T10:21:57Z</time>
      </trkpt>
      <trkpt lat="46.26982" lon="5.80466">
        <ele>1087.4</ele>
        <time>2021-10-17T10:21:58Z</time>
      </trkpt>
      <trkpt lat="46.26979" lon="5.80467">
        <ele>1087.4</ele>
        <time>2021-10-17T10:21:59Z</time>
      </trkpt>
      <trkpt lat="46.26977" lon="5.80468">
        <ele>1087.6</ele>
        <time>2021-10-17T10:22:00Z</time>
      </trkpt>
      <trkpt lat="46.26974" lon="5.8047">
        <ele>1087.6</ele>
        <time>2021-10-17T10:22:01Z</time>
      </trkpt>
      <trkpt lat="46.26971" lon="5.80471">
        <ele>1088</ele>
        <time>2021-10-17T10:22:02Z</time>
      </trkpt>
      <trkpt lat="46.26969" lon="5.80473">
        <ele>1088</ele>
        <time>2021-10-17T10:22:03Z</time>
      </trkpt>
      <trkpt lat="46.26966" lon="5.80474">
        <ele>1088.2</ele>
        <time>2021-10-17T10:22:04Z</time>
      </trkpt>
      <trkpt lat="46.26964" lon="5.80476">
        <ele>1088.2</ele>
        <time>2021-10-17T10:22:05Z</time>
      </trkpt>
      <trkpt lat="46.26961" lon="5.80477">
        <ele>1088.6</ele>
        <time>2021-10-17T10:22:06Z</time>
      </trkpt>
      <trkpt lat="46.26959" lon="5.80479">
        <ele>1088.6</ele>
        <time>2021-10-17T10:22:07Z</time>
      </trkpt>
      <trkpt lat="46.26957" lon="5.80481">
        <ele>1089</ele>
        <time>2021-10-17T10:22:08Z</time>
      </trkpt>
      <trkpt lat="46.26955" lon="5.80483">
        <ele>1089</ele>
        <time>2021-10-17T10:22:09Z</time>
      </trkpt>
      <trkpt lat="46.26953" lon="5.80484">
        <ele>1089.2</ele>
        <time>2021-10-17T10:22:10Z</time>
      </trkpt>
      <trkpt lat="46.26951" lon="5.80486">
        <ele>1089.4</ele>
        <time>2021-10-17T10:22:11Z</time>
      </trkpt>
      <trkpt lat="46.26949" lon="5.80488">
        <ele>1089.4</ele>
        <time>2021-10-17T10:22:12Z</time>
      </trkpt>
      <trkpt lat="46.26947" lon="5.8049">
        <ele>1089.8</ele>
        <time>2021-10-17T10:22:13Z</time>
      </trkpt>
      <trkpt lat="46.26945" lon="5.80491">
        <ele>1090.2</ele>
        <time>2021-10-17T10:22:14Z</time>
      </trkpt>
      <trkpt lat="46.26943" lon="5.80493">
        <ele>1090.4</ele>
        <time>2021-10-17T10:22:15Z</time>
      </trkpt>
      <trkpt lat="46.26941" lon="5.80496">
        <ele>1090.6</ele>
        <time>2021-10-17T10:22:16Z</time>
      </trkpt>
      <trkpt lat="46.26939" lon="5.80498">
        <ele>1090.6</ele>
        <time>2021-10-17T10:22:17Z</time>
      </trkpt>
      <trkpt lat="46.26936" lon="5.80501">
        <ele>1091</ele>
        <time>2021-10-17T10:22:18Z</time>
      </trkpt>
      <trkpt lat="46.26934" lon="5.80503">
        <ele>1091</ele>
        <time>2021-10-17T10:22:19Z</time>
      </trkpt>
      <trkpt lat="46.26932" lon="5.80505">
        <ele>1091.4</ele>
        <time>2021-10-17T10:22:20Z</time>
      </trkpt>
      <trkpt lat="46.26931" lon="5.80507">
        <ele>1091.6</ele>
        <time>2021-10-17T10:22:21Z</time>
      </trkpt>
      <trkpt lat="46.26929" lon="5.80509">
        <ele>1091.8</ele>
        <time>2021-10-17T10:22:22Z</time>
      </trkpt>
      <trkpt lat="46.26927" lon="5.80511">
        <ele>1091.8</ele>
        <time>2021-10-17T10:22:23Z</time>
      </trkpt>
      <trkpt lat="46.26925" lon="5.80513">
        <ele>1092.2</ele>
        <time>2021-10-17T10:22:24Z</time>
      </trkpt>
      <trkpt lat="46.26923" lon="5.80515">
        <ele>1092.4</ele>
        <time>2021-10-17T10:22:25Z</time>
      </trkpt>
      <trkpt lat="46.26921" lon="5.80517">
        <ele>1092.8</ele>
        <time>2021-10-17T10:22:26Z</time>
      </trkpt>
      <trkpt lat="46.26919" lon="5.80519">
        <ele>1093</ele>
        <time>2021-10-17T10:22:27Z</time>
      </trkpt>
      <trkpt lat="46.26917" lon="5.80521">
        <ele>1093.2</ele>
        <time>2021-10-17T10:22:28Z</time>
      </trkpt>
      <trkpt lat="46.26916" lon="5.80522">
        <ele>1093.4</ele>
        <time>2021-10-17T10:22:29Z</time>
      </trkpt>
      <trkpt lat="46.26914" lon="5.80524">
        <ele>1093.6</ele>
        <time>2021-10-17T10:22:30Z</time>
      </trkpt>
      <trkpt lat="46.26912" lon="5.80526">
        <ele>1093.6</ele>
        <time>2021-10-17T10:22:31Z</time>
      </trkpt>
      <trkpt lat="46.2691" lon="5.80528">
        <ele>1094</ele>
        <time>2021-10-17T10:22:32Z</time>
      </trkpt>
      <trkpt lat="46.26908" lon="5.80529">
        <ele>1094.2</ele>
        <time>2021-10-17T10:22:33Z</time>
      </trkpt>
      <trkpt lat="46.26906" lon="5.80531">
        <ele>1094.2</ele>
        <time>2021-10-17T10:22:34Z</time>
      </trkpt>
      <trkpt lat="46.26904" lon="5.80534">
        <ele>1094.6</ele>
        <time>2021-10-17T10:22:35Z</time>
      </trkpt>
      <trkpt lat="46.26902" lon="5.80536">
        <ele>1094.6</ele>
        <time>2021-10-17T10:22:36Z</time>
      </trkpt>
      <trkpt lat="46.26901" lon="5.80537">
        <ele>1094.8</ele>
        <time>2021-10-17T10:22:37Z</time>
      </trkpt>
      <trkpt lat="46.26899" lon="5.80539">
        <ele>1095</ele>
        <time>2021-10-17T10:22:38Z</time>
      </trkpt>
      <trkpt lat="46.26897" lon="5.80542">
        <ele>1095.4</ele>
        <time>2021-10-17T10:22:39Z</time>
      </trkpt>
      <trkpt lat="46.26895" lon="5.80544">
        <ele>1095.4</ele>
        <time>2021-10-17T10:22:40Z</time>
      </trkpt>
      <trkpt lat="46.26894" lon="5.80546">
        <ele>1095.6</ele>
        <time>2021-10-17T10:22:41Z</time>
      </trkpt>
      <trkpt lat="46.26892" lon="5.80548">
        <ele>1095.6</ele>
        <time>2021-10-17T10:22:42Z</time>
      </trkpt>
      <trkpt lat="46.2689" lon="5.80549">
        <ele>1096</ele>
        <time>2021-10-17T10:22:43Z</time>
      </trkpt>
      <trkpt lat="46.26889" lon="5.80551">
        <ele>1096</ele>
        <time>2021-10-17T10:22:44Z</time>
      </trkpt>
      <trkpt lat="46.26887" lon="5.80554">
        <ele>1096.4</ele>
        <time>2021-10-17T10:22:45Z</time>
      </trkpt>
      <trkpt lat="46.26886" lon="5.80556">
        <ele>1096.6</ele>
        <time>2021-10-17T10:22:46Z</time>
      </trkpt>
      <trkpt lat="46.26884" lon="5.80559">
        <ele>1096.8</ele>
        <time>2021-10-17T10:22:47Z</time>
      </trkpt>
      <trkpt lat="46.26883" lon="5.80561">
        <ele>1097</ele>
        <time>2021-10-17T10:22:48Z</time>
      </trkpt>
      <trkpt lat="46.26882" lon="5.80564">
        <ele>1097</ele>
        <time>2021-10-17T10:22:49Z</time>
      </trkpt>
      <trkpt lat="46.2688" lon="5.80567">
        <ele>1097.4</ele>
        <time>2021-10-17T10:22:50Z</time>
      </trkpt>
      <trkpt lat="46.26879" lon="5.80569">
        <ele>1097.4</ele>
        <time>2021-10-17T10:22:51Z</time>
      </trkpt>
      <trkpt lat="46.26877" lon="5.80572">
        <ele>1097.8</ele>
        <time>2021-10-17T10:22:52Z</time>
      </trkpt>
      <trkpt lat="46.26875" lon="5.80574">
        <ele>1098</ele>
        <time>2021-10-17T10:22:53Z</time>
      </trkpt>
      <trkpt lat="46.26873" lon="5.80577">
        <ele>1098.2</ele>
        <time>2021-10-17T10:22:54Z</time>
      </trkpt>
      <trkpt lat="46.26872" lon="5.80579">
        <ele>1098.2</ele>
        <time>2021-10-17T10:22:55Z</time>
      </trkpt>
      <trkpt lat="46.2687" lon="5.80581">
        <ele>1098.6</ele>
        <time>2021-10-17T10:22:56Z</time>
      </trkpt>
      <trkpt lat="46.26869" lon="5.80584">
        <ele>1098.6</ele>
        <time>2021-10-17T10:22:57Z</time>
      </trkpt>
      <trkpt lat="46.26867" lon="5.80586">
        <ele>1098.8</ele>
        <time>2021-10-17T10:22:58Z</time>
      </trkpt>
      <trkpt lat="46.26866" lon="5.80588">
        <ele>1099.2</ele>
        <time>2021-10-17T10:22:59Z</time>
      </trkpt>
      <trkpt lat="46.26865" lon="5.8059">
        <ele>1099.2</ele>
        <time>2021-10-17T10:23:00Z</time>
      </trkpt>
      <trkpt lat="46.26863" lon="5.80592">
        <ele>1099.4</ele>
        <time>2021-10-17T10:23:01Z</time>
      </trkpt>
      <trkpt lat="46.26862" lon="5.80595">
        <ele>1099.4</ele>
        <time>2021-10-17T10:23:02Z</time>
      </trkpt>
      <trkpt lat="46.2686" lon="5.80597">
        <ele>1099.6</ele>
        <time>2021-10-17T10:23:03Z</time>
      </trkpt>
      <trkpt lat="46.26859" lon="5.806">
        <ele>1099.6</ele>
        <time>2021-10-17T10:23:04Z</time>
      </trkpt>
      <trkpt lat="46.26857" lon="5.80602">
        <ele>1100</ele>
        <time>2021-10-17T10:23:05Z</time>
      </trkpt>
      <trkpt lat="46.26856" lon="5.80605">
        <ele>1100</ele>
        <time>2021-10-17T10:23:06Z</time>
      </trkpt>
      <trkpt lat="46.26855" lon="5.80607">
        <ele>1100.4</ele>
        <time>2021-10-17T10:23:07Z</time>
      </trkpt>
      <trkpt lat="46.26853" lon="5.8061">
        <ele>1100.6</ele>
        <time>2021-10-17T10:23:08Z</time>
      </trkpt>
      <trkpt lat="46.26852" lon="5.80612">
        <ele>1100.8</ele>
        <time>2021-10-17T10:23:09Z</time>
      </trkpt>
      <trkpt lat="46.2685" lon="5.80615">
        <ele>1101</ele>
        <time>2021-10-17T10:23:10Z</time>
      </trkpt>
      <trkpt lat="46.26848" lon="5.80618">
        <ele>1101</ele>
        <time>2021-10-17T10:23:11Z</time>
      </trkpt>
      <trkpt lat="46.26847" lon="5.80621">
        <ele>1101.4</ele>
        <time>2021-10-17T10:23:12Z</time>
      </trkpt>
      <trkpt lat="46.26845" lon="5.80623">
        <ele>1101.4</ele>
        <time>2021-10-17T10:23:13Z</time>
      </trkpt>
      <trkpt lat="46.26843" lon="5.80626">
        <ele>1101.6</ele>
        <time>2021-10-17T10:23:14Z</time>
      </trkpt>
      <trkpt lat="46.26841" lon="5.80628">
        <ele>1101.8</ele>
        <time>2021-10-17T10:23:15Z</time>
      </trkpt>
      <trkpt lat="46.2684" lon="5.80631">
        <ele>1102</ele>
        <time>2021-10-17T10:23:16Z</time>
      </trkpt>
      <trkpt lat="46.26838" lon="5.80633">
        <ele>1102.2</ele>
        <time>2021-10-17T10:23:17Z</time>
      </trkpt>
      <trkpt lat="46.26836" lon="5.80636">
        <ele>1102.6</ele>
        <time>2021-10-17T10:23:18Z</time>
      </trkpt>
      <trkpt lat="46.26834" lon="5.80639">
        <ele>1102.8</ele>
        <time>2021-10-17T10:23:19Z</time>
      </trkpt>
      <trkpt lat="46.26832" lon="5.80642">
        <ele>1103</ele>
        <time>2021-10-17T10:23:20Z</time>
      </trkpt>
      <trkpt lat="46.2683" lon="5.80645">
        <ele>1103</ele>
        <time>2021-10-17T10:23:21Z</time>
      </trkpt>
      <trkpt lat="46.26829" lon="5.80647">
        <ele>1103.4</ele>
        <time>2021-10-17T10:23:22Z</time>
      </trkpt>
      <trkpt lat="46.26827" lon="5.80651">
        <ele>1103.6</ele>
        <time>2021-10-17T10:23:23Z</time>
      </trkpt>
      <trkpt lat="46.26825" lon="5.80654">
        <ele>1103.6</ele>
        <time>2021-10-17T10:23:24Z</time>
      </trkpt>
      <trkpt lat="46.26824" lon="5.80657">
        <ele>1104</ele>
        <time>2021-10-17T10:23:25Z</time>
      </trkpt>
      <trkpt lat="46.26822" lon="5.80659">
        <ele>1104</ele>
        <time>2021-10-17T10:23:26Z</time>
      </trkpt>
      <trkpt lat="46.2682" lon="5.80662">
        <ele>1104.2</ele>
        <time>2021-10-17T10:23:27Z</time>
      </trkpt>
      <trkpt lat="46.26819" lon="5.80664">
        <ele>1104.6</ele>
        <time>2021-10-17T10:23:28Z</time>
      </trkpt>
      <trkpt lat="46.26817" lon="5.80667">
        <ele>1104.6</ele>
        <time>2021-10-17T10:23:29Z</time>
      </trkpt>
      <trkpt lat="46.26816" lon="5.8067">
        <ele>1105</ele>
        <time>2021-10-17T10:23:30Z</time>
      </trkpt>
      <trkpt lat="46.26815" lon="5.80672">
        <ele>1105</ele>
        <time>2021-10-17T10:23:31Z</time>
      </trkpt>
      <trkpt lat="46.26813" lon="5.80674">
        <ele>1105.2</ele>
        <time>2021-10-17T10:23:32Z</time>
      </trkpt>
      <trkpt lat="46.26812" lon="5.80676">
        <ele>1105.6</ele>
        <time>2021-10-17T10:23:33Z</time>
      </trkpt>
      <trkpt lat="46.26811" lon="5.80678">
        <ele>1105.8</ele>
        <time>2021-10-17T10:23:34Z</time>
      </trkpt>
      <trkpt lat="46.2681" lon="5.8068">
        <ele>1106</ele>
        <time>2021-10-17T10:23:35Z</time>
      </trkpt>
      <trkpt lat="46.26808" lon="5.80682">
        <ele>1106.2</ele>
        <time>2021-10-17T10:23:36Z</time>
      </trkpt>
      <trkpt lat="46.26807" lon="5.80685">
        <ele>1106.2</ele>
        <time>2021-10-17T10:23:37Z</time>
      </trkpt>
      <trkpt lat="46.26806" lon="5.80687">
        <ele>1106.6</ele>
        <time>2021-10-17T10:23:38Z</time>
      </trkpt>
      <trkpt lat="46.26804" lon="5.80689">
        <ele>1106.6</ele>
        <time>2021-10-17T10:23:39Z</time>
      </trkpt>
      <trkpt lat="46.26803" lon="5.80691">
        <ele>1107</ele>
        <time>2021-10-17T10:23:40Z</time>
      </trkpt>
      <trkpt lat="46.26802" lon="5.80694">
        <ele>1107.2</ele>
        <time>2021-10-17T10:23:41Z</time>
      </trkpt>
      <trkpt lat="46.268" lon="5.80696">
        <ele>1107.2</ele>
        <time>2021-10-17T10:23:42Z</time>
      </trkpt>
      <trkpt lat="46.26799" lon="5.80699">
        <ele>1107.6</ele>
        <time>2021-10-17T10:23:43Z</time>
      </trkpt>
      <trkpt lat="46.26797" lon="5.80702">
        <ele>1107.6</ele>
        <time>2021-10-17T10:23:44Z</time>
      </trkpt>
      <trkpt lat="46.26796" lon="5.80704">
        <ele>1108</ele>
        <time>2021-10-17T10:23:45Z</time>
      </trkpt>
      <trkpt lat="46.26794" lon="5.80707">
        <ele>1108.2</ele>
        <time>2021-10-17T10:23:46Z</time>
      </trkpt>
      <trkpt lat="46.26793" lon="5.80709">
        <ele>1108.2</ele>
        <time>2021-10-17T10:23:47Z</time>
      </trkpt>
      <trkpt lat="46.26791" lon="5.80712">
        <ele>1108.6</ele>
        <time>2021-10-17T10:23:48Z</time>
      </trkpt>
      <trkpt lat="46.2679" lon="5.80715">
        <ele>1108.6</ele>
        <time>2021-10-17T10:23:49Z</time>
      </trkpt>
      <trkpt lat="46.26788" lon="5.80718">
        <ele>1109</ele>
        <time>2021-10-17T10:23:50Z</time>
      </trkpt>
      <trkpt lat="46.26787" lon="5.80721">
        <ele>1109.2</ele>
        <time>2021-10-17T10:23:51Z</time>
      </trkpt>
      <trkpt lat="46.26785" lon="5.80724">
        <ele>1109.2</ele>
        <time>2021-10-17T10:23:52Z</time>
      </trkpt>
      <trkpt lat="46.26784" lon="5.80727">
        <ele>1109.6</ele>
        <time>2021-10-17T10:23:53Z</time>
      </trkpt>
      <trkpt lat="46.26783" lon="5.8073">
        <ele>1109.8</ele>
        <time>2021-10-17T10:23:54Z</time>
      </trkpt>
      <trkpt lat="46.26781" lon="5.80734">
        <ele>1109.8</ele>
        <time>2021-10-17T10:23:55Z</time>
      </trkpt>
      <trkpt lat="46.2678" lon="5.80737">
        <ele>1110.2</ele>
        <time>2021-10-17T10:23:56Z</time>
      </trkpt>
      <trkpt lat="46.2678" lon="5.80741">
        <ele>1110.2</ele>
        <time>2021-10-17T10:23:57Z</time>
      </trkpt>
      <trkpt lat="46.26778" lon="5.80743">
        <ele>1110.4</ele>
        <time>2021-10-17T10:23:58Z</time>
      </trkpt>
      <trkpt lat="46.26777" lon="5.80746">
        <ele>1110.4</ele>
        <time>2021-10-17T10:23:59Z</time>
      </trkpt>
      <trkpt lat="46.26776" lon="5.80749">
        <ele>1110.8</ele>
        <time>2021-10-17T10:24:00Z</time>
      </trkpt>
      <trkpt lat="46.26776" lon="5.80752">
        <ele>1111.2</ele>
        <time>2021-10-17T10:24:01Z</time>
      </trkpt>
      <trkpt lat="46.26775" lon="5.80755">
        <ele>1111.2</ele>
        <time>2021-10-17T10:24:02Z</time>
      </trkpt>
      <trkpt lat="46.26774" lon="5.80758">
        <ele>1111.6</ele>
        <time>2021-10-17T10:24:03Z</time>
      </trkpt>
      <trkpt lat="46.26774" lon="5.80761">
        <ele>1111.8</ele>
        <time>2021-10-17T10:24:04Z</time>
      </trkpt>
      <trkpt lat="46.26773" lon="5.80763">
        <ele>1111.8</ele>
        <time>2021-10-17T10:24:05Z</time>
      </trkpt>
      <trkpt lat="46.26772" lon="5.80766">
        <ele>1112</ele>
        <time>2021-10-17T10:24:06Z</time>
      </trkpt>
      <trkpt lat="46.26771" lon="5.80768">
        <ele>1112</ele>
        <time>2021-10-17T10:24:07Z</time>
      </trkpt>
      <trkpt lat="46.2677" lon="5.8077">
        <ele>1112.4</ele>
        <time>2021-10-17T10:24:08Z</time>
      </trkpt>
      <trkpt lat="46.2677" lon="5.80773">
        <ele>1112.6</ele>
        <time>2021-10-17T10:24:09Z</time>
      </trkpt>
      <trkpt lat="46.26768" lon="5.80776">
        <ele>1112.6</ele>
        <time>2021-10-17T10:24:10Z</time>
      </trkpt>
      <trkpt lat="46.26767" lon="5.80779">
        <ele>1113</ele>
        <time>2021-10-17T10:24:11Z</time>
      </trkpt>
      <trkpt lat="46.26765" lon="5.80781">
        <ele>1113.2</ele>
        <time>2021-10-17T10:24:12Z</time>
      </trkpt>
      <trkpt lat="46.26763" lon="5.80784">
        <ele>1113.4</ele>
        <time>2021-10-17T10:24:13Z</time>
      </trkpt>
      <trkpt lat="46.26761" lon="5.80786">
        <ele>1113.4</ele>
        <time>2021-10-17T10:24:14Z</time>
      </trkpt>
      <trkpt lat="46.26759" lon="5.80787">
        <ele>1113.8</ele>
        <time>2021-10-17T10:24:15Z</time>
      </trkpt>
      <trkpt lat="46.26757" lon="5.80789">
        <ele>1114</ele>
        <time>2021-10-17T10:24:16Z</time>
      </trkpt>
      <trkpt lat="46.26756" lon="5.80791">
        <ele>1114</ele>
        <time>2021-10-17T10:24:17Z</time>
      </trkpt>
      <trkpt lat="46.26754" lon="5.80793">
        <ele>1114.2</ele>
        <time>2021-10-17T10:24:18Z</time>
      </trkpt>
      <trkpt lat="46.26752" lon="5.80795">
        <ele>1114.2</ele>
        <time>2021-10-17T10:24:19Z</time>
      </trkpt>
      <trkpt lat="46.2675" lon="5.80797">
        <ele>1114.6</ele>
        <time>2021-10-17T10:24:20Z</time>
      </trkpt>
      <trkpt lat="46.26748" lon="5.80799">
        <ele>1114.6</ele>
        <time>2021-10-17T10:24:21Z</time>
      </trkpt>
      <trkpt lat="46.26746" lon="5.80801">
        <ele>1115</ele>
        <time>2021-10-17T10:24:22Z</time>
      </trkpt>
      <trkpt lat="46.26744" lon="5.80804">
        <ele>1115</ele>
        <time>2021-10-17T10:24:23Z</time>
      </trkpt>
      <trkpt lat="46.26742" lon="5.80806">
        <ele>1115.2</ele>
        <time>2021-10-17T10:24:24Z</time>
      </trkpt>
      <trkpt lat="46.26739" lon="5.80807">
        <ele>1115.2</ele>
        <time>2021-10-17T10:24:25Z</time>
      </trkpt>
      <trkpt lat="46.26737" lon="5.80809">
        <ele>1115.6</ele>
        <time>2021-10-17T10:24:26Z</time>
      </trkpt>
      <trkpt lat="46.26735" lon="5.80811">
        <ele>1115.6</ele>
        <time>2021-10-17T10:24:27Z</time>
      </trkpt>
      <trkpt lat="46.26733" lon="5.80812">
        <ele>1116</ele>
        <time>2021-10-17T10:24:28Z</time>
      </trkpt>
      <trkpt lat="46.26731" lon="5.80814">
        <ele>1116</ele>
        <time>2021-10-17T10:24:29Z</time>
      </trkpt>
      <trkpt lat="46.2673" lon="5.80816">
        <ele>1116.2</ele>
        <time>2021-10-17T10:24:30Z</time>
      </trkpt>
      <trkpt lat="46.26727" lon="5.80817">
        <ele>1116.2</ele>
        <time>2021-10-17T10:24:31Z</time>
      </trkpt>
      <trkpt lat="46.26725" lon="5.80818">
        <ele>1116.6</ele>
        <time>2021-10-17T10:24:32Z</time>
      </trkpt>
      <trkpt lat="46.26724" lon="5.8082">
        <ele>1117</ele>
        <time>2021-10-17T10:24:33Z</time>
      </trkpt>
      <trkpt lat="46.26721" lon="5.80821">
        <ele>1117</ele>
        <time>2021-10-17T10:24:34Z</time>
      </trkpt>
      <trkpt lat="46.26719" lon="5.80822">
        <ele>1117.2</ele>
        <time>2021-10-17T10:24:35Z</time>
      </trkpt>
      <trkpt lat="46.26718" lon="5.80823">
        <ele>1117.2</ele>
        <time>2021-10-17T10:24:36Z</time>
      </trkpt>
      <trkpt lat="46.26716" lon="5.80824">
        <ele>1117.6</ele>
        <time>2021-10-17T10:24:37Z</time>
      </trkpt>
      <trkpt lat="46.26714" lon="5.80825">
        <ele>1117.6</ele>
        <time>2021-10-17T10:24:38Z</time>
      </trkpt>
      <trkpt lat="46.26712" lon="5.80826">
        <ele>1118</ele>
        <time>2021-10-17T10:24:39Z</time>
      </trkpt>
      <trkpt lat="46.2671" lon="5.80828">
        <ele>1118</ele>
        <time>2021-10-17T10:24:40Z</time>
      </trkpt>
      <trkpt lat="46.26709" lon="5.80829">
        <ele>1118.2</ele>
        <time>2021-10-17T10:24:41Z</time>
      </trkpt>
      <trkpt lat="46.26707" lon="5.8083">
        <ele>1118.2</ele>
        <time>2021-10-17T10:24:42Z</time>
      </trkpt>
      <trkpt lat="46.26706" lon="5.80831">
        <ele>1118.6</ele>
        <time>2021-10-17T10:24:43Z</time>
      </trkpt>
      <trkpt lat="46.26704" lon="5.80832">
        <ele>1118.8</ele>
        <time>2021-10-17T10:24:44Z</time>
      </trkpt>
      <trkpt lat="46.26702" lon="5.80833">
        <ele>1118.8</ele>
        <time>2021-10-17T10:24:45Z</time>
      </trkpt>
      <trkpt lat="46.26699" lon="5.80834">
        <ele>1119.4</ele>
        <time>2021-10-17T10:24:46Z</time>
      </trkpt>
      <trkpt lat="46.26697" lon="5.80834">
        <ele>1119.4</ele>
        <time>2021-10-17T10:24:47Z</time>
      </trkpt>
      <trkpt lat="46.26695" lon="5.80834">
        <ele>1119.6</ele>
        <time>2021-10-17T10:24:48Z</time>
      </trkpt>
      <trkpt lat="46.26694" lon="5.80835">
        <ele>1119.8</ele>
        <time>2021-10-17T10:24:49Z</time>
      </trkpt>
      <trkpt lat="46.26692" lon="5.80836">
        <ele>1119.8</ele>
        <time>2021-10-17T10:24:50Z</time>
      </trkpt>
      <trkpt lat="46.2669" lon="5.80836">
        <ele>1120.2</ele>
        <time>2021-10-17T10:24:51Z</time>
      </trkpt>
      <trkpt lat="46.26688" lon="5.80836">
        <ele>1120.4</ele>
        <time>2021-10-17T10:24:52Z</time>
      </trkpt>
      <trkpt lat="46.26685" lon="5.80836">
        <ele>1120.4</ele>
        <time>2021-10-17T10:24:53Z</time>
      </trkpt>
      <trkpt lat="46.26682" lon="5.80837">
        <ele>1120.8</ele>
        <time>2021-10-17T10:24:54Z</time>
      </trkpt>
      <trkpt lat="46.2668" lon="5.80837">
        <ele>1120.8</ele>
        <time>2021-10-17T10:24:55Z</time>
      </trkpt>
      <trkpt lat="46.26677" lon="5.80837">
        <ele>1121</ele>
        <time>2021-10-17T10:24:56Z</time>
      </trkpt>
      <trkpt lat="46.26675" lon="5.80837">
        <ele>1121</ele>
        <time>2021-10-17T10:24:57Z</time>
      </trkpt>
      <trkpt lat="46.26672" lon="5.80837">
        <ele>1121.4</ele>
        <time>2021-10-17T10:24:58Z</time>
      </trkpt>
      <trkpt lat="46.2667" lon="5.80836">
        <ele>1121.4</ele>
        <time>2021-10-17T10:24:59Z</time>
      </trkpt>
      <trkpt lat="46.26668" lon="5.80836">
        <ele>1121.8</ele>
        <time>2021-10-17T10:25:00Z</time>
      </trkpt>
      <trkpt lat="46.26666" lon="5.80835">
        <ele>1122</ele>
        <time>2021-10-17T10:25:01Z</time>
      </trkpt>
      <trkpt lat="46.26663" lon="5.80835">
        <ele>1122</ele>
        <time>2021-10-17T10:25:02Z</time>
      </trkpt>
      <trkpt lat="46.26661" lon="5.80834">
        <ele>1122.4</ele>
        <time>2021-10-17T10:25:03Z</time>
      </trkpt>
      <trkpt lat="46.26658" lon="5.80833">
        <ele>1122.6</ele>
        <time>2021-10-17T10:25:04Z</time>
      </trkpt>
      <trkpt lat="46.26656" lon="5.80833">
        <ele>1123</ele>
        <time>2021-10-17T10:25:05Z</time>
      </trkpt>
      <trkpt lat="46.26653" lon="5.80832">
        <ele>1123.2</ele>
        <time>2021-10-17T10:25:06Z</time>
      </trkpt>
      <trkpt lat="46.26651" lon="5.80832">
        <ele>1123.4</ele>
        <time>2021-10-17T10:25:07Z</time>
      </trkpt>
      <trkpt lat="46.26648" lon="5.80831">
        <ele>1123.6</ele>
        <time>2021-10-17T10:25:08Z</time>
      </trkpt>
      <trkpt lat="46.26646" lon="5.80831">
        <ele>1123.6</ele>
        <time>2021-10-17T10:25:09Z</time>
      </trkpt>
      <trkpt lat="46.26644" lon="5.80831">
        <ele>1124</ele>
        <time>2021-10-17T10:25:10Z</time>
      </trkpt>
      <trkpt lat="46.26641" lon="5.80831">
        <ele>1124</ele>
        <time>2021-10-17T10:25:11Z</time>
      </trkpt>
      <trkpt lat="46.26639" lon="5.80832">
        <ele>1124.2</ele>
        <time>2021-10-17T10:25:12Z</time>
      </trkpt>
      <trkpt lat="46.26636" lon="5.80832">
        <ele>1124.2</ele>
        <time>2021-10-17T10:25:13Z</time>
      </trkpt>
      <trkpt lat="46.26633" lon="5.80832">
        <ele>1124.6</ele>
        <time>2021-10-17T10:25:14Z</time>
      </trkpt>
      <trkpt lat="46.26631" lon="5.80832">
        <ele>1124.6</ele>
        <time>2021-10-17T10:25:15Z</time>
      </trkpt>
      <trkpt lat="46.26629" lon="5.80832">
        <ele>1124.8</ele>
        <time>2021-10-17T10:25:16Z</time>
      </trkpt>
      <trkpt lat="46.26626" lon="5.80832">
        <ele>1124.8</ele>
        <time>2021-10-17T10:25:17Z</time>
      </trkpt>
      <trkpt lat="46.26624" lon="5.80832">
        <ele>1125.2</ele>
        <time>2021-10-17T10:25:18Z</time>
      </trkpt>
      <trkpt lat="46.26621" lon="5.80832">
        <ele>1125.2</ele>
        <time>2021-10-17T10:25:19Z</time>
      </trkpt>
      <trkpt lat="46.26619" lon="5.80833">
        <ele>1125.6</ele>
        <time>2021-10-17T10:25:20Z</time>
      </trkpt>
      <trkpt lat="46.26617" lon="5.80833">
        <ele>1125.6</ele>
        <time>2021-10-17T10:25:21Z</time>
      </trkpt>
      <trkpt lat="46.26615" lon="5.80834">
        <ele>1125.8</ele>
        <time>2021-10-17T10:25:22Z</time>
      </trkpt>
      <trkpt lat="46.26612" lon="5.80835">
        <ele>1125.8</ele>
        <time>2021-10-17T10:25:23Z</time>
      </trkpt>
      <trkpt lat="46.2661" lon="5.80835">
        <ele>1126.2</ele>
        <time>2021-10-17T10:25:24Z</time>
      </trkpt>
      <trkpt lat="46.26607" lon="5.80835">
        <ele>1126.6</ele>
        <time>2021-10-17T10:25:25Z</time>
      </trkpt>
      <trkpt lat="46.26605" lon="5.80835">
        <ele>1126.8</ele>
        <time>2021-10-17T10:25:26Z</time>
      </trkpt>
      <trkpt lat="46.26602" lon="5.80835">
        <ele>1127</ele>
        <time>2021-10-17T10:25:27Z</time>
      </trkpt>
      <trkpt lat="46.266" lon="5.80835">
        <ele>1127.4</ele>
        <time>2021-10-17T10:25:28Z</time>
      </trkpt>
      <trkpt lat="46.26597" lon="5.80836">
        <ele>1127.6</ele>
        <time>2021-10-17T10:25:29Z</time>
      </trkpt>
      <trkpt lat="46.26595" lon="5.80836">
        <ele>1127.6</ele>
        <time>2021-10-17T10:25:30Z</time>
      </trkpt>
      <trkpt lat="46.26592" lon="5.80836">
        <ele>1127.8</ele>
        <time>2021-10-17T10:25:31Z</time>
      </trkpt>
      <trkpt lat="46.2659" lon="5.80836">
        <ele>1127.8</ele>
        <time>2021-10-17T10:25:32Z</time>
      </trkpt>
      <trkpt lat="46.26587" lon="5.80836">
        <ele>1128.2</ele>
        <time>2021-10-17T10:25:33Z</time>
      </trkpt>
      <trkpt lat="46.26585" lon="5.80836">
        <ele>1128.2</ele>
        <time>2021-10-17T10:25:34Z</time>
      </trkpt>
      <trkpt lat="46.26582" lon="5.80836">
        <ele>1128.4</ele>
        <time>2021-10-17T10:25:35Z</time>
      </trkpt>
      <trkpt lat="46.2658" lon="5.80835">
        <ele>1128.4</ele>
        <time>2021-10-17T10:25:36Z</time>
      </trkpt>
      <trkpt lat="46.26577" lon="5.80835">
        <ele>1128.8</ele>
        <time>2021-10-17T10:25:37Z</time>
      </trkpt>
      <trkpt lat="46.26574" lon="5.80834">
        <ele>1129</ele>
        <time>2021-10-17T10:25:38Z</time>
      </trkpt>
      <trkpt lat="46.26572" lon="5.80834">
        <ele>1129.2</ele>
        <time>2021-10-17T10:25:39Z</time>
      </trkpt>
      <trkpt lat="46.26569" lon="5.80835">
        <ele>1129.2</ele>
        <time>2021-10-17T10:25:40Z</time>
      </trkpt>
      <trkpt lat="46.26566" lon="5.80835">
        <ele>1129.6</ele>
        <time>2021-10-17T10:25:41Z</time>
      </trkpt>
      <trkpt lat="46.26564" lon="5.80836">
        <ele>1129.6</ele>
        <time>2021-10-17T10:25:42Z</time>
      </trkpt>
      <trkpt lat="46.26564" lon="5.80836">
        <ele>1129.8</ele>
        <time>2021-10-17T10:25:43Z</time>
      </trkpt>
      <trkpt lat="46.26562" lon="5.80838">
        <ele>1129.8</ele>
        <time>2021-10-17T10:25:44Z</time>
      </trkpt>
      <trkpt lat="46.26559" lon="5.80839">
        <ele>1130</ele>
        <time>2021-10-17T10:25:45Z</time>
      </trkpt>
      <trkpt lat="46.26557" lon="5.80841">
        <ele>1130</ele>
        <time>2021-10-17T10:25:46Z</time>
      </trkpt>
      <trkpt lat="46.26555" lon="5.80843">
        <ele>1130.4</ele>
        <time>2021-10-17T10:25:47Z</time>
      </trkpt>
      <trkpt lat="46.26553" lon="5.80845">
        <ele>1130.4</ele>
        <time>2021-10-17T10:25:48Z</time>
      </trkpt>
      <trkpt lat="46.26552" lon="5.80847">
        <ele>1130.6</ele>
        <time>2021-10-17T10:25:49Z</time>
      </trkpt>
      <trkpt lat="46.2655" lon="5.80849">
        <ele>1130.6</ele>
        <time>2021-10-17T10:25:50Z</time>
      </trkpt>
      <trkpt lat="46.26548" lon="5.80852">
        <ele>1131</ele>
        <time>2021-10-17T10:25:51Z</time>
      </trkpt>
      <trkpt lat="46.26546" lon="5.80854">
        <ele>1131</ele>
        <time>2021-10-17T10:25:52Z</time>
      </trkpt>
      <trkpt lat="46.26545" lon="5.80857">
        <ele>1131.2</ele>
        <time>2021-10-17T10:25:53Z</time>
      </trkpt>
      <trkpt lat="46.26544" lon="5.8086">
        <ele>1131.6</ele>
        <time>2021-10-17T10:25:54Z</time>
      </trkpt>
      <trkpt lat="46.26543" lon="5.80863">
        <ele>1131.8</ele>
        <time>2021-10-17T10:25:55Z</time>
      </trkpt>
      <trkpt lat="46.26542" lon="5.80866">
        <ele>1132</ele>
        <time>2021-10-17T10:25:56Z</time>
      </trkpt>
      <trkpt lat="46.26541" lon="5.8087">
        <ele>1132.2</ele>
        <time>2021-10-17T10:25:57Z</time>
      </trkpt>
      <trkpt lat="46.26541" lon="5.80873">
        <ele>1132.6</ele>
        <time>2021-10-17T10:25:58Z</time>
      </trkpt>
      <trkpt lat="46.2654" lon="5.80876">
        <ele>1132.8</ele>
        <time>2021-10-17T10:25:59Z</time>
      </trkpt>
      <trkpt lat="46.2654" lon="5.80879">
        <ele>1133</ele>
        <time>2021-10-17T10:26:00Z</time>
      </trkpt>
      <trkpt lat="46.2654" lon="5.80882">
        <ele>1133.4</ele>
        <time>2021-10-17T10:26:01Z</time>
      </trkpt>
      <trkpt lat="46.2654" lon="5.80886">
        <ele>1133.6</ele>
        <time>2021-10-17T10:26:02Z</time>
      </trkpt>
      <trkpt lat="46.2654" lon="5.80889">
        <ele>1133.8</ele>
        <time>2021-10-17T10:26:03Z</time>
      </trkpt>
      <trkpt lat="46.26541" lon="5.80892">
        <ele>1134</ele>
        <time>2021-10-17T10:26:04Z</time>
      </trkpt>
      <trkpt lat="46.26541" lon="5.80895">
        <ele>1134</ele>
        <time>2021-10-17T10:26:05Z</time>
      </trkpt>
      <trkpt lat="46.26541" lon="5.80898">
        <ele>1134.4</ele>
        <time>2021-10-17T10:26:06Z</time>
      </trkpt>
      <trkpt lat="46.26542" lon="5.80901">
        <ele>1134.6</ele>
        <time>2021-10-17T10:26:07Z</time>
      </trkpt>
      <trkpt lat="46.26542" lon="5.80904">
        <ele>1135</ele>
        <time>2021-10-17T10:26:08Z</time>
      </trkpt>
      <trkpt lat="46.26542" lon="5.80906">
        <ele>1135.2</ele>
        <time>2021-10-17T10:26:09Z</time>
      </trkpt>
      <trkpt lat="46.26542" lon="5.8091">
        <ele>1135.2</ele>
        <time>2021-10-17T10:26:10Z</time>
      </trkpt>
      <trkpt lat="46.26542" lon="5.80913">
        <ele>1135.4</ele>
        <time>2021-10-17T10:26:11Z</time>
      </trkpt>
      <trkpt lat="46.26542" lon="5.80916">
        <ele>1135.4</ele>
        <time>2021-10-17T10:26:12Z</time>
      </trkpt>
      <trkpt lat="46.26543" lon="5.80919">
        <ele>1135.8</ele>
        <time>2021-10-17T10:26:13Z</time>
      </trkpt>
      <trkpt lat="46.26543" lon="5.80922">
        <ele>1135.8</ele>
        <time>2021-10-17T10:26:14Z</time>
      </trkpt>
      <trkpt lat="46.26543" lon="5.80926">
        <ele>1136</ele>
        <time>2021-10-17T10:26:15Z</time>
      </trkpt>
      <trkpt lat="46.26544" lon="5.80929">
        <ele>1136</ele>
        <time>2021-10-17T10:26:16Z</time>
      </trkpt>
      <trkpt lat="46.26544" lon="5.80933">
        <ele>1136.2</ele>
        <time>2021-10-17T10:26:17Z</time>
      </trkpt>
      <trkpt lat="46.26544" lon="5.80937">
        <ele>1136.4</ele>
        <time>2021-10-17T10:26:18Z</time>
      </trkpt>
      <trkpt lat="46.26545" lon="5.8094">
        <ele>1136.4</ele>
        <time>2021-10-17T10:26:19Z</time>
      </trkpt>
      <trkpt lat="46.26545" lon="5.80944">
        <ele>1136.6</ele>
        <time>2021-10-17T10:26:20Z</time>
      </trkpt>
      <trkpt lat="46.26546" lon="5.80948">
        <ele>1136.6</ele>
        <time>2021-10-17T10:26:21Z</time>
      </trkpt>
      <trkpt lat="46.26546" lon="5.80953">
        <ele>1137</ele>
        <time>2021-10-17T10:26:22Z</time>
      </trkpt>
      <trkpt lat="46.26547" lon="5.80957">
        <ele>1137</ele>
        <time>2021-10-17T10:26:23Z</time>
      </trkpt>
      <trkpt lat="46.26547" lon="5.80962">
        <ele>1137</ele>
        <time>2021-10-17T10:26:24Z</time>
      </trkpt>
      <trkpt lat="46.26547" lon="5.80966">
        <ele>1137</ele>
        <time>2021-10-17T10:26:25Z</time>
      </trkpt>
      <trkpt lat="46.26548" lon="5.80971">
        <ele>1137.2</ele>
        <time>2021-10-17T10:26:26Z</time>
      </trkpt>
      <trkpt lat="46.26548" lon="5.80976">
        <ele>1137.2</ele>
        <time>2021-10-17T10:26:27Z</time>
      </trkpt>
      <trkpt lat="46.26549" lon="5.8098">
        <ele>1137.2</ele>
        <time>2021-10-17T10:26:28Z</time>
      </trkpt>
      <trkpt lat="46.2655" lon="5.80984">
        <ele>1137.4</ele>
        <time>2021-10-17T10:26:29Z</time>
      </trkpt>
      <trkpt lat="46.2655" lon="5.80989">
        <ele>1137.4</ele>
        <time>2021-10-17T10:26:30Z</time>
      </trkpt>
      <trkpt lat="46.26551" lon="5.80994">
        <ele>1137.4</ele>
        <time>2021-10-17T10:26:31Z</time>
      </trkpt>
      <trkpt lat="46.26551" lon="5.80999">
        <ele>1137.6</ele>
        <time>2021-10-17T10:26:32Z</time>
      </trkpt>
      <trkpt lat="46.26552" lon="5.81003">
        <ele>1137.6</ele>
        <time>2021-10-17T10:26:33Z</time>
      </trkpt>
      <trkpt lat="46.26552" lon="5.81008">
        <ele>1137.8</ele>
        <time>2021-10-17T10:26:34Z</time>
      </trkpt>
      <trkpt lat="46.26552" lon="5.81013">
        <ele>1137.8</ele>
        <time>2021-10-17T10:26:35Z</time>
      </trkpt>
      <trkpt lat="46.26553" lon="5.81017">
        <ele>1137.8</ele>
        <time>2021-10-17T10:26:36Z</time>
      </trkpt>
      <trkpt lat="46.26554" lon="5.81022">
        <ele>1138.2</ele>
        <time>2021-10-17T10:26:37Z</time>
      </trkpt>
      <trkpt lat="46.26555" lon="5.81026">
        <ele>1138.2</ele>
        <time>2021-10-17T10:26:38Z</time>
      </trkpt>
      <trkpt lat="46.26555" lon="5.8103">
        <ele>1138.2</ele>
        <time>2021-10-17T10:26:39Z</time>
      </trkpt>
      <trkpt lat="46.26556" lon="5.81035">
        <ele>1138.6</ele>
        <time>2021-10-17T10:26:40Z</time>
      </trkpt>
      <trkpt lat="46.26556" lon="5.81039">
        <ele>1138.6</ele>
        <time>2021-10-17T10:26:41Z</time>
      </trkpt>
      <trkpt lat="46.26557" lon="5.81044">
        <ele>1138.6</ele>
        <time>2021-10-17T10:26:42Z</time>
      </trkpt>
      <trkpt lat="46.26557" lon="5.81048">
        <ele>1138.8</ele>
        <time>2021-10-17T10:26:43Z</time>
      </trkpt>
      <trkpt lat="46.26558" lon="5.81053">
        <ele>1138.8</ele>
        <time>2021-10-17T10:26:44Z</time>
      </trkpt>
      <trkpt lat="46.26559" lon="5.81058">
        <ele>1139.2</ele>
        <time>2021-10-17T10:26:45Z</time>
      </trkpt>
      <trkpt lat="46.26559" lon="5.81062">
        <ele>1139.2</ele>
        <time>2021-10-17T10:26:46Z</time>
      </trkpt>
      <trkpt lat="46.2656" lon="5.81067">
        <ele>1139.2</ele>
        <time>2021-10-17T10:26:47Z</time>
      </trkpt>
      <trkpt lat="46.2656" lon="5.81072">
        <ele>1139.2</ele>
        <time>2021-10-17T10:26:48Z</time>
      </trkpt>
      <trkpt lat="46.26561" lon="5.81077">
        <ele>1139.4</ele>
        <time>2021-10-17T10:26:49Z</time>
      </trkpt>
      <trkpt lat="46.26562" lon="5.81082">
        <ele>1139.4</ele>
        <time>2021-10-17T10:26:50Z</time>
      </trkpt>
      <trkpt lat="46.26563" lon="5.81088">
        <ele>1139.4</ele>
        <time>2021-10-17T10:26:51Z</time>
      </trkpt>
      <trkpt lat="46.26563" lon="5.81093">
        <ele>1139.4</ele>
        <time>2021-10-17T10:26:52Z</time>
      </trkpt>
      <trkpt lat="46.26564" lon="5.81099">
        <ele>1139.4</ele>
        <time>2021-10-17T10:26:53Z</time>
      </trkpt>
      <trkpt lat="46.26565" lon="5.81105">
        <ele>1139.4</ele>
        <time>2021-10-17T10:26:54Z</time>
      </trkpt>
      <trkpt lat="46.26567" lon="5.8111">
        <ele>1139.6</ele>
        <time>2021-10-17T10:26:55Z</time>
      </trkpt>
      <trkpt lat="46.26568" lon="5.81117">
        <ele>1139.6</ele>
        <time>2021-10-17T10:26:56Z</time>
      </trkpt>
      <trkpt lat="46.2657" lon="5.81123">
        <ele>1139.6</ele>
        <time>2021-10-17T10:26:57Z</time>
      </trkpt>
      <trkpt lat="46.26572" lon="5.81129">
        <ele>1139.6</ele>
        <time>2021-10-17T10:26:58Z</time>
      </trkpt>
      <trkpt lat="46.26574" lon="5.81136">
        <ele>1139.6</ele>
        <time>2021-10-17T10:26:59Z</time>
      </trkpt>
      <trkpt lat="46.26576" lon="5.81142">
        <ele>1139.6</ele>
        <time>2021-10-17T10:27:00Z</time>
      </trkpt>
      <trkpt lat="46.26578" lon="5.81148">
        <ele>1139.6</ele>
        <time>2021-10-17T10:27:01Z</time>
      </trkpt>
      <trkpt lat="46.2658" lon="5.81155">
        <ele>1139.6</ele>
        <time>2021-10-17T10:27:02Z</time>
      </trkpt>
      <trkpt lat="46.26582" lon="5.81161">
        <ele>1139.6</ele>
        <time>2021-10-17T10:27:03Z</time>
      </trkpt>
      <trkpt lat="46.26584" lon="5.81166">
        <ele>1139.8</ele>
        <time>2021-10-17T10:27:04Z</time>
      </trkpt>
      <trkpt lat="46.26586" lon="5.81172">
        <ele>1139.8</ele>
        <time>2021-10-17T10:27:05Z</time>
      </trkpt>
      <trkpt lat="46.26588" lon="5.81177">
        <ele>1140.2</ele>
        <time>2021-10-17T10:27:06Z</time>
      </trkpt>
      <trkpt lat="46.2659" lon="5.81182">
        <ele>1140.2</ele>
        <time>2021-10-17T10:27:07Z</time>
      </trkpt>
      <trkpt lat="46.26591" lon="5.81186">
        <ele>1140.4</ele>
        <time>2021-10-17T10:27:08Z</time>
      </trkpt>
      <trkpt lat="46.26593" lon="5.81191">
        <ele>1140.4</ele>
        <time>2021-10-17T10:27:09Z</time>
      </trkpt>
      <trkpt lat="46.26594" lon="5.81195">
        <ele>1140.8</ele>
        <time>2021-10-17T10:27:10Z</time>
      </trkpt>
      <trkpt lat="46.26596" lon="5.81199">
        <ele>1140.8</ele>
        <time>2021-10-17T10:27:11Z</time>
      </trkpt>
      <trkpt lat="46.26598" lon="5.81203">
        <ele>1141.2</ele>
        <time>2021-10-17T10:27:12Z</time>
      </trkpt>
      <trkpt lat="46.26599" lon="5.81206">
        <ele>1141.4</ele>
        <time>2021-10-17T10:27:13Z</time>
      </trkpt>
      <trkpt lat="46.266" lon="5.8121">
        <ele>1141.4</ele>
        <time>2021-10-17T10:27:14Z</time>
      </trkpt>
      <trkpt lat="46.26601" lon="5.81213">
        <ele>1141.8</ele>
        <time>2021-10-17T10:27:15Z</time>
      </trkpt>
      <trkpt lat="46.26602" lon="5.81217">
        <ele>1141.8</ele>
        <time>2021-10-17T10:27:16Z</time>
      </trkpt>
      <trkpt lat="46.26602" lon="5.8122">
        <ele>1142.2</ele>
        <time>2021-10-17T10:27:17Z</time>
      </trkpt>
      <trkpt lat="46.26603" lon="5.81223">
        <ele>1142.2</ele>
        <time>2021-10-17T10:27:18Z</time>
      </trkpt>
      <trkpt lat="46.26605" lon="5.81226">
        <ele>1142.6</ele>
        <time>2021-10-17T10:27:19Z</time>
      </trkpt>
      <trkpt lat="46.26606" lon="5.81229">
        <ele>1142.8</ele>
        <time>2021-10-17T10:27:20Z</time>
      </trkpt>
      <trkpt lat="46.26607" lon="5.81231">
        <ele>1142.8</ele>
        <time>2021-10-17T10:27:21Z</time>
      </trkpt>
      <trkpt lat="46.26608" lon="5.81235">
        <ele>1143.2</ele>
        <time>2021-10-17T10:27:22Z</time>
      </trkpt>
      <trkpt lat="46.26609" lon="5.81238">
        <ele>1143.2</ele>
        <time>2021-10-17T10:27:23Z</time>
      </trkpt>
      <trkpt lat="46.2661" lon="5.81241">
        <ele>1143.6</ele>
        <time>2021-10-17T10:27:24Z</time>
      </trkpt>
      <trkpt lat="46.26611" lon="5.81245">
        <ele>1143.8</ele>
        <time>2021-10-17T10:27:25Z</time>
      </trkpt>
      <trkpt lat="46.26612" lon="5.8125">
        <ele>1144</ele>
        <time>2021-10-17T10:27:26Z</time>
      </trkpt>
      <trkpt lat="46.26613" lon="5.81254">
        <ele>1144.2</ele>
        <time>2021-10-17T10:27:27Z</time>
      </trkpt>
      <trkpt lat="46.26614" lon="5.81258">
        <ele>1144.4</ele>
        <time>2021-10-17T10:27:28Z</time>
      </trkpt>
      <trkpt lat="46.26615" lon="5.81262">
        <ele>1144.8</ele>
        <time>2021-10-17T10:27:29Z</time>
      </trkpt>
      <trkpt lat="46.26616" lon="5.81266">
        <ele>1145</ele>
        <time>2021-10-17T10:27:30Z</time>
      </trkpt>
      <trkpt lat="46.26617" lon="5.8127">
        <ele>1145.2</ele>
        <time>2021-10-17T10:27:31Z</time>
      </trkpt>
      <trkpt lat="46.26617" lon="5.81273">
        <ele>1145.2</ele>
        <time>2021-10-17T10:27:32Z</time>
      </trkpt>
      <trkpt lat="46.26618" lon="5.81277">
        <ele>1145.6</ele>
        <time>2021-10-17T10:27:33Z</time>
      </trkpt>
      <trkpt lat="46.26618" lon="5.81281">
        <ele>1145.8</ele>
        <time>2021-10-17T10:27:34Z</time>
      </trkpt>
      <trkpt lat="46.26619" lon="5.81285">
        <ele>1145.8</ele>
        <time>2021-10-17T10:27:35Z</time>
      </trkpt>
      <trkpt lat="46.2662" lon="5.81289">
        <ele>1146.2</ele>
        <time>2021-10-17T10:27:36Z</time>
      </trkpt>
      <trkpt lat="46.2662" lon="5.81293">
        <ele>1146.2</ele>
        <time>2021-10-17T10:27:37Z</time>
      </trkpt>
      <trkpt lat="46.26621" lon="5.81297">
        <ele>1146.4</ele>
        <time>2021-10-17T10:27:38Z</time>
      </trkpt>
      <trkpt lat="46.26621" lon="5.81301">
        <ele>1146.4</ele>
        <time>2021-10-17T10:27:39Z</time>
      </trkpt>
      <trkpt lat="46.26622" lon="5.81304">
        <ele>1146.8</ele>
        <time>2021-10-17T10:27:40Z</time>
      </trkpt>
      <trkpt lat="46.26623" lon="5.81308">
        <ele>1146.8</ele>
        <time>2021-10-17T10:27:41Z</time>
      </trkpt>
      <trkpt lat="46.26624" lon="5.81312">
        <ele>1147</ele>
        <time>2021-10-17T10:27:42Z</time>
      </trkpt>
      <trkpt lat="46.26624" lon="5.81316">
        <ele>1147</ele>
        <time>2021-10-17T10:27:43Z</time>
      </trkpt>
      <trkpt lat="46.26625" lon="5.8132">
        <ele>1147.4</ele>
        <time>2021-10-17T10:27:44Z</time>
      </trkpt>
      <trkpt lat="46.26626" lon="5.81324">
        <ele>1147.8</ele>
        <time>2021-10-17T10:27:45Z</time>
      </trkpt>
      <trkpt lat="46.26626" lon="5.81328">
        <ele>1147.8</ele>
        <time>2021-10-17T10:27:46Z</time>
      </trkpt>
      <trkpt lat="46.26627" lon="5.81332">
        <ele>1148.2</ele>
        <time>2021-10-17T10:27:47Z</time>
      </trkpt>
      <trkpt lat="46.26628" lon="5.81335">
        <ele>1148.4</ele>
        <time>2021-10-17T10:27:48Z</time>
      </trkpt>
      <trkpt lat="46.26628" lon="5.81339">
        <ele>1148.4</ele>
        <time>2021-10-17T10:27:49Z</time>
      </trkpt>
      <trkpt lat="46.26629" lon="5.81342">
        <ele>1148.8</ele>
        <time>2021-10-17T10:27:50Z</time>
      </trkpt>
      <trkpt lat="46.2663" lon="5.81346">
        <ele>1148.8</ele>
        <time>2021-10-17T10:27:51Z</time>
      </trkpt>
      <trkpt lat="46.2663" lon="5.81349">
        <ele>1149.2</ele>
        <time>2021-10-17T10:27:52Z</time>
      </trkpt>
      <trkpt lat="46.26631" lon="5.81353">
        <ele>1149.2</ele>
        <time>2021-10-17T10:27:53Z</time>
      </trkpt>
      <trkpt lat="46.26632" lon="5.81357">
        <ele>1149.4</ele>
        <time>2021-10-17T10:27:54Z</time>
      </trkpt>
      <trkpt lat="46.26632" lon="5.8136">
        <ele>1149.4</ele>
        <time>2021-10-17T10:27:55Z</time>
      </trkpt>
      <trkpt lat="46.26633" lon="5.81364">
        <ele>1149.8</ele>
        <time>2021-10-17T10:27:56Z</time>
      </trkpt>
      <trkpt lat="46.26633" lon="5.81367">
        <ele>1149.8</ele>
        <time>2021-10-17T10:27:57Z</time>
      </trkpt>
      <trkpt lat="46.26634" lon="5.81371">
        <ele>1150</ele>
        <time>2021-10-17T10:27:58Z</time>
      </trkpt>
      <trkpt lat="46.26635" lon="5.81374">
        <ele>1150</ele>
        <time>2021-10-17T10:27:59Z</time>
      </trkpt>
      <trkpt lat="46.26635" lon="5.81378">
        <ele>1150.2</ele>
        <time>2021-10-17T10:28:00Z</time>
      </trkpt>
      <trkpt lat="46.26636" lon="5.81382">
        <ele>1150.2</ele>
        <time>2021-10-17T10:28:01Z</time>
      </trkpt>
      <trkpt lat="46.26637" lon="5.81385">
        <ele>1150.6</ele>
        <time>2021-10-17T10:28:02Z</time>
      </trkpt>
      <trkpt lat="46.26637" lon="5.81389">
        <ele>1150.6</ele>
        <time>2021-10-17T10:28:03Z</time>
      </trkpt>
      <trkpt lat="46.26638" lon="5.81392">
        <ele>1150.8</ele>
        <time>2021-10-17T10:28:04Z</time>
      </trkpt>
      <trkpt lat="46.26639" lon="5.81396">
        <ele>1150.8</ele>
        <time>2021-10-17T10:28:05Z</time>
      </trkpt>
      <trkpt lat="46.2664" lon="5.81399">
        <ele>1151.2</ele>
        <time>2021-10-17T10:28:06Z</time>
      </trkpt>
      <trkpt lat="46.2664" lon="5.81403">
        <ele>1151.2</ele>
        <time>2021-10-17T10:28:07Z</time>
      </trkpt>
      <trkpt lat="46.26641" lon="5.81407">
        <ele>1151.4</ele>
        <time>2021-10-17T10:28:08Z</time>
      </trkpt>
      <trkpt lat="46.26641" lon="5.81412">
        <ele>1151.4</ele>
        <time>2021-10-17T10:28:09Z</time>
      </trkpt>
      <trkpt lat="46.26642" lon="5.81416">
        <ele>1151.4</ele>
        <time>2021-10-17T10:28:10Z</time>
      </trkpt>
      <trkpt lat="46.26642" lon="5.81421">
        <ele>1151.4</ele>
        <time>2021-10-17T10:28:11Z</time>
      </trkpt>
      <trkpt lat="46.26642" lon="5.81426">
        <ele>1151.4</ele>
        <time>2021-10-17T10:28:12Z</time>
      </trkpt>
      <trkpt lat="46.26642" lon="5.81431">
        <ele>1151.4</ele>
        <time>2021-10-17T10:28:13Z</time>
      </trkpt>
      <trkpt lat="46.26642" lon="5.81437">
        <ele>1151.4</ele>
        <time>2021-10-17T10:28:14Z</time>
      </trkpt>
      <trkpt lat="46.26641" lon="5.81444">
        <ele>1151</ele>
        <time>2021-10-17T10:28:15Z</time>
      </trkpt>
      <trkpt lat="46.2664" lon="5.81451">
        <ele>1150.8</ele>
        <time>2021-10-17T10:28:16Z</time>
      </trkpt>
      <trkpt lat="46.26638" lon="5.81459">
        <ele>1150.6</ele>
        <time>2021-10-17T10:28:17Z</time>
      </trkpt>
      <trkpt lat="46.26636" lon="5.81467">
        <ele>1150.2</ele>
        <time>2021-10-17T10:28:18Z</time>
      </trkpt>
      <trkpt lat="46.26633" lon="5.81476">
        <ele>1149.8</ele>
        <time>2021-10-17T10:28:19Z</time>
      </trkpt>
      <trkpt lat="46.2663" lon="5.81486">
        <ele>1149.4</ele>
        <time>2021-10-17T10:28:20Z</time>
      </trkpt>
      <trkpt lat="46.26626" lon="5.81495">
        <ele>1149</ele>
        <time>2021-10-17T10:28:21Z</time>
      </trkpt>
      <trkpt lat="46.26622" lon="5.81505">
        <ele>1148.4</ele>
        <time>2021-10-17T10:28:22Z</time>
      </trkpt>
      <trkpt lat="46.26618" lon="5.81516">
        <ele>1148</ele>
        <time>2021-10-17T10:28:23Z</time>
      </trkpt>
      <trkpt lat="46.26615" lon="5.81527">
        <ele>1147.4</ele>
        <time>2021-10-17T10:28:24Z</time>
      </trkpt>
      <trkpt lat="46.26611" lon="5.81539">
        <ele>1147</ele>
        <time>2021-10-17T10:28:25Z</time>
      </trkpt>
      <trkpt lat="46.26608" lon="5.81552">
        <ele>1146.4</ele>
        <time>2021-10-17T10:28:26Z</time>
      </trkpt>
      <trkpt lat="46.26606" lon="5.81566">
        <ele>1145.6</ele>
        <time>2021-10-17T10:28:27Z</time>
      </trkpt>
      <trkpt lat="46.26604" lon="5.81579">
        <ele>1145</ele>
        <time>2021-10-17T10:28:28Z</time>
      </trkpt>
      <trkpt lat="46.26605" lon="5.81594">
        <ele>1144.2</ele>
        <time>2021-10-17T10:28:29Z</time>
      </trkpt>
      <trkpt lat="46.26605" lon="5.81608">
        <ele>1143.4</ele>
        <time>2021-10-17T10:28:30Z</time>
      </trkpt>
      <trkpt lat="46.26605" lon="5.81623">
        <ele>1142.6</ele>
        <time>2021-10-17T10:28:31Z</time>
      </trkpt>
      <trkpt lat="46.26606" lon="5.81639">
        <ele>1141.8</ele>
        <time>2021-10-17T10:28:32Z</time>
      </trkpt>
      <trkpt lat="46.26606" lon="5.81655">
        <ele>1141.2</ele>
        <time>2021-10-17T10:28:33Z</time>
      </trkpt>
      <trkpt lat="46.26606" lon="5.81672">
        <ele>1140.4</ele>
        <time>2021-10-17T10:28:34Z</time>
      </trkpt>
      <trkpt lat="46.26606" lon="5.81688">
        <ele>1139.6</ele>
        <time>2021-10-17T10:28:35Z</time>
      </trkpt>
      <trkpt lat="46.26605" lon="5.81705">
        <ele>1138.8</ele>
        <time>2021-10-17T10:28:36Z</time>
      </trkpt>
      <trkpt lat="46.26605" lon="5.81722">
        <ele>1138.2</ele>
        <time>2021-10-17T10:28:37Z</time>
      </trkpt>
      <trkpt lat="46.26605" lon="5.81739">
        <ele>1137.8</ele>
        <time>2021-10-17T10:28:38Z</time>
      </trkpt>
      <trkpt lat="46.26606" lon="5.81755">
        <ele>1137.4</ele>
        <time>2021-10-17T10:28:39Z</time>
      </trkpt>
      <trkpt lat="46.26607" lon="5.81772">
        <ele>1137</ele>
        <time>2021-10-17T10:28:40Z</time>
      </trkpt>
      <trkpt lat="46.26607" lon="5.81788">
        <ele>1136.8</ele>
        <time>2021-10-17T10:28:41Z</time>
      </trkpt>
      <trkpt lat="46.26609" lon="5.81803">
        <ele>1136.8</ele>
        <time>2021-10-17T10:28:42Z</time>
      </trkpt>
      <trkpt lat="46.26609" lon="5.81817">
        <ele>1136.8</ele>
        <time>2021-10-17T10:28:43Z</time>
      </trkpt>
      <trkpt lat="46.2661" lon="5.81831">
        <ele>1136.6</ele>
        <time>2021-10-17T10:28:44Z</time>
      </trkpt>
      <trkpt lat="46.26612" lon="5.81844">
        <ele>1136.6</ele>
        <time>2021-10-17T10:28:45Z</time>
      </trkpt>
      <trkpt lat="46.26614" lon="5.81858">
        <ele>1136.6</ele>
        <time>2021-10-17T10:28:46Z</time>
      </trkpt>
      <trkpt lat="46.26617" lon="5.81871">
        <ele>1136.6</ele>
        <time>2021-10-17T10:28:47Z</time>
      </trkpt>
      <trkpt lat="46.26619" lon="5.81884">
        <ele>1136.6</ele>
        <time>2021-10-17T10:28:48Z</time>
      </trkpt>
      <trkpt lat="46.26623" lon="5.81896">
        <ele>1136.6</ele>
        <time>2021-10-17T10:28:49Z</time>
      </trkpt>
      <trkpt lat="46.26626" lon="5.81908">
        <ele>1136.8</ele>
        <time>2021-10-17T10:28:50Z</time>
      </trkpt>
      <trkpt lat="46.2663" lon="5.81918">
        <ele>1136.8</ele>
        <time>2021-10-17T10:28:51Z</time>
      </trkpt>
      <trkpt lat="46.26634" lon="5.81928">
        <ele>1136.8</ele>
        <time>2021-10-17T10:28:52Z</time>
      </trkpt>
      <trkpt lat="46.2664" lon="5.81936">
        <ele>1136.8</ele>
        <time>2021-10-17T10:28:53Z</time>
      </trkpt>
      <trkpt lat="46.26646" lon="5.81945">
        <ele>1136.8</ele>
        <time>2021-10-17T10:28:54Z</time>
      </trkpt>
      <trkpt lat="46.2665" lon="5.81953">
        <ele>1136.8</ele>
        <time>2021-10-17T10:28:55Z</time>
      </trkpt>
      <trkpt lat="46.26655" lon="5.81962">
        <ele>1136.8</ele>
        <time>2021-10-17T10:28:56Z</time>
      </trkpt>
      <trkpt lat="46.26658" lon="5.81971">
        <ele>1136.8</ele>
        <time>2021-10-17T10:28:57Z</time>
      </trkpt>
      <trkpt lat="46.26661" lon="5.81981">
        <ele>1136.8</ele>
        <time>2021-10-17T10:28:58Z</time>
      </trkpt>
      <trkpt lat="46.26663" lon="5.81991">
        <ele>1136.8</ele>
        <time>2021-10-17T10:28:59Z</time>
      </trkpt>
      <trkpt lat="46.26665" lon="5.82002">
        <ele>1136.8</ele>
        <time>2021-10-17T10:29:00Z</time>
      </trkpt>
      <trkpt lat="46.26666" lon="5.82012">
        <ele>1136.8</ele>
        <time>2021-10-17T10:29:01Z</time>
      </trkpt>
      <trkpt lat="46.26668" lon="5.82023">
        <ele>1137</ele>
        <time>2021-10-17T10:29:02Z</time>
      </trkpt>
      <trkpt lat="46.2667" lon="5.82032">
        <ele>1137</ele>
        <time>2021-10-17T10:29:03Z</time>
      </trkpt>
      <trkpt lat="46.26673" lon="5.82041">
        <ele>1137</ele>
        <time>2021-10-17T10:29:04Z</time>
      </trkpt>
      <trkpt lat="46.26676" lon="5.8205">
        <ele>1137</ele>
        <time>2021-10-17T10:29:05Z</time>
      </trkpt>
      <trkpt lat="46.26679" lon="5.82059">
        <ele>1137</ele>
        <time>2021-10-17T10:29:06Z</time>
      </trkpt>
      <trkpt lat="46.26683" lon="5.82068">
        <ele>1137</ele>
        <time>2021-10-17T10:29:07Z</time>
      </trkpt>
      <trkpt lat="46.26686" lon="5.82076">
        <ele>1137</ele>
        <time>2021-10-17T10:29:08Z</time>
      </trkpt>
      <trkpt lat="46.26691" lon="5.82083">
        <ele>1137</ele>
        <time>2021-10-17T10:29:09Z</time>
      </trkpt>
      <trkpt lat="46.26695" lon="5.82091">
        <ele>1137.2</ele>
        <time>2021-10-17T10:29:10Z</time>
      </trkpt>
      <trkpt lat="46.26699" lon="5.82098">
        <ele>1137.2</ele>
        <time>2021-10-17T10:29:11Z</time>
      </trkpt>
      <trkpt lat="46.26703" lon="5.82105">
        <ele>1137.4</ele>
        <time>2021-10-17T10:29:12Z</time>
      </trkpt>
      <trkpt lat="46.26708" lon="5.82111">
        <ele>1137.4</ele>
        <time>2021-10-17T10:29:13Z</time>
      </trkpt>
      <trkpt lat="46.26712" lon="5.82117">
        <ele>1137.4</ele>
        <time>2021-10-17T10:29:14Z</time>
      </trkpt>
      <trkpt lat="46.26717" lon="5.82123">
        <ele>1137.4</ele>
        <time>2021-10-17T10:29:15Z</time>
      </trkpt>
      <trkpt lat="46.26723" lon="5.82128">
        <ele>1137.4</ele>
        <time>2021-10-17T10:29:16Z</time>
      </trkpt>
      <trkpt lat="46.26728" lon="5.82132">
        <ele>1137.4</ele>
        <time>2021-10-17T10:29:17Z</time>
      </trkpt>
      <trkpt lat="46.26733" lon="5.82135">
        <ele>1137.4</ele>
        <time>2021-10-17T10:29:18Z</time>
      </trkpt>
      <trkpt lat="46.26739" lon="5.82137">
        <ele>1137.4</ele>
        <time>2021-10-17T10:29:19Z</time>
      </trkpt>
      <trkpt lat="46.26744" lon="5.8214">
        <ele>1137.4</ele>
        <time>2021-10-17T10:29:20Z</time>
      </trkpt>
      <trkpt lat="46.26751" lon="5.82143">
        <ele>1137.4</ele>
        <time>2021-10-17T10:29:21Z</time>
      </trkpt>
      <trkpt lat="46.26757" lon="5.82147">
        <ele>1137.4</ele>
        <time>2021-10-17T10:29:22Z</time>
      </trkpt>
      <trkpt lat="46.26763" lon="5.82153">
        <ele>1137.4</ele>
        <time>2021-10-17T10:29:23Z</time>
      </trkpt>
      <trkpt lat="46.26768" lon="5.8216">
        <ele>1137.4</ele>
        <time>2021-10-17T10:29:24Z</time>
      </trkpt>
      <trkpt lat="46.26772" lon="5.82168">
        <ele>1137.4</ele>
        <time>2021-10-17T10:29:25Z</time>
      </trkpt>
      <trkpt lat="46.26775" lon="5.82177">
        <ele>1137.4</ele>
        <time>2021-10-17T10:29:26Z</time>
      </trkpt>
      <trkpt lat="46.26776" lon="5.82187">
        <ele>1137.4</ele>
        <time>2021-10-17T10:29:27Z</time>
      </trkpt>
      <trkpt lat="46.26777" lon="5.82197">
        <ele>1137.4</ele>
        <time>2021-10-17T10:29:28Z</time>
      </trkpt>
      <trkpt lat="46.26777" lon="5.82207">
        <ele>1137.4</ele>
        <time>2021-10-17T10:29:29Z</time>
      </trkpt>
      <trkpt lat="46.26777" lon="5.82217">
        <ele>1137.6</ele>
        <time>2021-10-17T10:29:30Z</time>
      </trkpt>
      <trkpt lat="46.26776" lon="5.82227">
        <ele>1137.6</ele>
        <time>2021-10-17T10:29:31Z</time>
      </trkpt>
      <trkpt lat="46.26774" lon="5.82237">
        <ele>1137.6</ele>
        <time>2021-10-17T10:29:32Z</time>
      </trkpt>
      <trkpt lat="46.26773" lon="5.82246">
        <ele>1137.6</ele>
        <time>2021-10-17T10:29:33Z</time>
      </trkpt>
      <trkpt lat="46.26772" lon="5.82255">
        <ele>1138</ele>
        <time>2021-10-17T10:29:34Z</time>
      </trkpt>
      <trkpt lat="46.26771" lon="5.82263">
        <ele>1138.2</ele>
        <time>2021-10-17T10:29:35Z</time>
      </trkpt>
      <trkpt lat="46.26771" lon="5.82271">
        <ele>1138.4</ele>
        <time>2021-10-17T10:29:36Z</time>
      </trkpt>
      <trkpt lat="46.26771" lon="5.82278">
        <ele>1138.4</ele>
        <time>2021-10-17T10:29:37Z</time>
      </trkpt>
      <trkpt lat="46.26771" lon="5.82285">
        <ele>1138.8</ele>
        <time>2021-10-17T10:29:38Z</time>
      </trkpt>
      <trkpt lat="46.26771" lon="5.82292">
        <ele>1138.8</ele>
        <time>2021-10-17T10:29:39Z</time>
      </trkpt>
      <trkpt lat="46.26771" lon="5.82299">
        <ele>1139.2</ele>
        <time>2021-10-17T10:29:40Z</time>
      </trkpt>
      <trkpt lat="46.26772" lon="5.82305">
        <ele>1139.2</ele>
        <time>2021-10-17T10:29:41Z</time>
      </trkpt>
      <trkpt lat="46.26772" lon="5.8231">
        <ele>1139.6</ele>
        <time>2021-10-17T10:29:42Z</time>
      </trkpt>
      <trkpt lat="46.26773" lon="5.82316">
        <ele>1140</ele>
        <time>2021-10-17T10:29:43Z</time>
      </trkpt>
      <trkpt lat="46.26773" lon="5.82321">
        <ele>1140.2</ele>
        <time>2021-10-17T10:29:44Z</time>
      </trkpt>
      <trkpt lat="46.26774" lon="5.82326">
        <ele>1140.4</ele>
        <time>2021-10-17T10:29:45Z</time>
      </trkpt>
      <trkpt lat="46.26775" lon="5.82332">
        <ele>1140.6</ele>
        <time>2021-10-17T10:29:46Z</time>
      </trkpt>
      <trkpt lat="46.26777" lon="5.82336">
        <ele>1141</ele>
        <time>2021-10-17T10:29:47Z</time>
      </trkpt>
      <trkpt lat="46.26778" lon="5.82341">
        <ele>1141.2</ele>
        <time>2021-10-17T10:29:48Z</time>
      </trkpt>
      <trkpt lat="46.2678" lon="5.82345">
        <ele>1141.6</ele>
        <time>2021-10-17T10:29:49Z</time>
      </trkpt>
      <trkpt lat="46.26782" lon="5.82348">
        <ele>1141.8</ele>
        <time>2021-10-17T10:29:50Z</time>
      </trkpt>
      <trkpt lat="46.26784" lon="5.82351">
        <ele>1142.2</ele>
        <time>2021-10-17T10:29:51Z</time>
      </trkpt>
      <trkpt lat="46.26786" lon="5.82354">
        <ele>1142.4</ele>
        <time>2021-10-17T10:29:52Z</time>
      </trkpt>
      <trkpt lat="46.26788" lon="5.82357">
        <ele>1142.6</ele>
        <time>2021-10-17T10:29:53Z</time>
      </trkpt>
      <trkpt lat="46.2679" lon="5.8236">
        <ele>1143</ele>
        <time>2021-10-17T10:29:54Z</time>
      </trkpt>
      <trkpt lat="46.26793" lon="5.82362">
        <ele>1143.2</ele>
        <time>2021-10-17T10:29:55Z</time>
      </trkpt>
      <trkpt lat="46.26796" lon="5.82365">
        <ele>1143.4</ele>
        <time>2021-10-17T10:29:56Z</time>
      </trkpt>
      <trkpt lat="46.26799" lon="5.82367">
        <ele>1143.6</ele>
        <time>2021-10-17T10:29:57Z</time>
      </trkpt>
      <trkpt lat="46.26802" lon="5.82369">
        <ele>1143.8</ele>
        <time>2021-10-17T10:29:58Z</time>
      </trkpt>
      <trkpt lat="46.26804" lon="5.8237">
        <ele>1144</ele>
        <time>2021-10-17T10:29:59Z</time>
      </trkpt>
      <trkpt lat="46.26807" lon="5.82372">
        <ele>1144.4</ele>
        <time>2021-10-17T10:30:00Z</time>
      </trkpt>
      <trkpt lat="46.2681" lon="5.82373">
        <ele>1144.6</ele>
        <time>2021-10-17T10:30:01Z</time>
      </trkpt>
      <trkpt lat="46.26813" lon="5.82373">
        <ele>1144.8</ele>
        <time>2021-10-17T10:30:02Z</time>
      </trkpt>
      <trkpt lat="46.26815" lon="5.82374">
        <ele>1144.8</ele>
        <time>2021-10-17T10:30:03Z</time>
      </trkpt>
      <trkpt lat="46.26818" lon="5.82374">
        <ele>1145.2</ele>
        <time>2021-10-17T10:30:04Z</time>
      </trkpt>
      <trkpt lat="46.2682" lon="5.82375">
        <ele>1145.4</ele>
        <time>2021-10-17T10:30:05Z</time>
      </trkpt>
      <trkpt lat="46.26823" lon="5.82375">
        <ele>1145.4</ele>
        <time>2021-10-17T10:30:06Z</time>
      </trkpt>
      <trkpt lat="46.26825" lon="5.82375">
        <ele>1145.8</ele>
        <time>2021-10-17T10:30:07Z</time>
      </trkpt>
      <trkpt lat="46.26828" lon="5.82375">
        <ele>1146</ele>
        <time>2021-10-17T10:30:08Z</time>
      </trkpt>
      <trkpt lat="46.2683" lon="5.82376">
        <ele>1146.4</ele>
        <time>2021-10-17T10:30:09Z</time>
      </trkpt>
      <trkpt lat="46.26832" lon="5.82377">
        <ele>1146.6</ele>
        <time>2021-10-17T10:30:10Z</time>
      </trkpt>
      <trkpt lat="46.26835" lon="5.82378">
        <ele>1146.6</ele>
        <time>2021-10-17T10:30:11Z</time>
      </trkpt>
      <trkpt lat="46.26837" lon="5.82378">
        <ele>1146.8</ele>
        <time>2021-10-17T10:30:12Z</time>
      </trkpt>
      <trkpt lat="46.26839" lon="5.82378">
        <ele>1146.8</ele>
        <time>2021-10-17T10:30:13Z</time>
      </trkpt>
      <trkpt lat="46.26842" lon="5.82379">
        <ele>1147.2</ele>
        <time>2021-10-17T10:30:14Z</time>
      </trkpt>
      <trkpt lat="46.26844" lon="5.82379">
        <ele>1147.2</ele>
        <time>2021-10-17T10:30:15Z</time>
      </trkpt>
      <trkpt lat="46.26847" lon="5.82379">
        <ele>1147.6</ele>
        <time>2021-10-17T10:30:16Z</time>
      </trkpt>
      <trkpt lat="46.26849" lon="5.82379">
        <ele>1147.6</ele>
        <time>2021-10-17T10:30:17Z</time>
      </trkpt>
      <trkpt lat="46.26851" lon="5.82379">
        <ele>1148</ele>
        <time>2021-10-17T10:30:18Z</time>
      </trkpt>
      <trkpt lat="46.26854" lon="5.82379">
        <ele>1148</ele>
        <time>2021-10-17T10:30:19Z</time>
      </trkpt>
      <trkpt lat="46.26857" lon="5.82379">
        <ele>1148.4</ele>
        <time>2021-10-17T10:30:20Z</time>
      </trkpt>
      <trkpt lat="46.2686" lon="5.82379">
        <ele>1148.4</ele>
        <time>2021-10-17T10:30:21Z</time>
      </trkpt>
      <trkpt lat="46.26863" lon="5.82379">
        <ele>1148.6</ele>
        <time>2021-10-17T10:30:22Z</time>
      </trkpt>
      <trkpt lat="46.26866" lon="5.82378">
        <ele>1148.8</ele>
        <time>2021-10-17T10:30:23Z</time>
      </trkpt>
      <trkpt lat="46.26868" lon="5.82378">
        <ele>1148.8</ele>
        <time>2021-10-17T10:30:24Z</time>
      </trkpt>
      <trkpt lat="46.26871" lon="5.82377">
        <ele>1149.2</ele>
        <time>2021-10-17T10:30:25Z</time>
      </trkpt>
      <trkpt lat="46.26874" lon="5.82376">
        <ele>1149.2</ele>
        <time>2021-10-17T10:30:26Z</time>
      </trkpt>
      <trkpt lat="46.26877" lon="5.82375">
        <ele>1149.6</ele>
        <time>2021-10-17T10:30:27Z</time>
      </trkpt>
      <trkpt lat="46.26879" lon="5.82374">
        <ele>1149.6</ele>
        <time>2021-10-17T10:30:28Z</time>
      </trkpt>
      <trkpt lat="46.26882" lon="5.82373">
        <ele>1150</ele>
        <time>2021-10-17T10:30:29Z</time>
      </trkpt>
      <trkpt lat="46.26884" lon="5.82372">
        <ele>1150.2</ele>
        <time>2021-10-17T10:30:30Z</time>
      </trkpt>
      <trkpt lat="46.26887" lon="5.82371">
        <ele>1150.4</ele>
        <time>2021-10-17T10:30:31Z</time>
      </trkpt>
      <trkpt lat="46.26889" lon="5.8237">
        <ele>1150.4</ele>
        <time>2021-10-17T10:30:32Z</time>
      </trkpt>
      <trkpt lat="46.26892" lon="5.82369">
        <ele>1150.8</ele>
        <time>2021-10-17T10:30:33Z</time>
      </trkpt>
      <trkpt lat="46.26894" lon="5.82368">
        <ele>1150.8</ele>
        <time>2021-10-17T10:30:34Z</time>
      </trkpt>
      <trkpt lat="46.26896" lon="5.82367">
        <ele>1151.2</ele>
        <time>2021-10-17T10:30:35Z</time>
      </trkpt>
      <trkpt lat="46.26899" lon="5.82366">
        <ele>1151.2</ele>
        <time>2021-10-17T10:30:36Z</time>
      </trkpt>
      <trkpt lat="46.26901" lon="5.82365">
        <ele>1151.6</ele>
        <time>2021-10-17T10:30:37Z</time>
      </trkpt>
      <trkpt lat="46.26903" lon="5.82365">
        <ele>1151.8</ele>
        <time>2021-10-17T10:30:38Z</time>
      </trkpt>
      <trkpt lat="46.26906" lon="5.82364">
        <ele>1152</ele>
        <time>2021-10-17T10:30:39Z</time>
      </trkpt>
      <trkpt lat="46.26908" lon="5.82363">
        <ele>1152</ele>
        <time>2021-10-17T10:30:40Z</time>
      </trkpt>
      <trkpt lat="46.2691" lon="5.82362">
        <ele>1152.2</ele>
        <time>2021-10-17T10:30:41Z</time>
      </trkpt>
      <trkpt lat="46.26913" lon="5.82362">
        <ele>1152.2</ele>
        <time>2021-10-17T10:30:42Z</time>
      </trkpt>
      <trkpt lat="46.26916" lon="5.82361">
        <ele>1152.8</ele>
        <time>2021-10-17T10:30:43Z</time>
      </trkpt>
      <trkpt lat="46.26918" lon="5.82361">
        <ele>1152.8</ele>
        <time>2021-10-17T10:30:44Z</time>
      </trkpt>
      <trkpt lat="46.26921" lon="5.8236">
        <ele>1153.2</ele>
        <time>2021-10-17T10:30:45Z</time>
      </trkpt>
      <trkpt lat="46.26923" lon="5.82359">
        <ele>1153.2</ele>
        <time>2021-10-17T10:30:46Z</time>
      </trkpt>
      <trkpt lat="46.26926" lon="5.82359">
        <ele>1153.4</ele>
        <time>2021-10-17T10:30:47Z</time>
      </trkpt>
      <trkpt lat="46.26928" lon="5.82359">
        <ele>1153.6</ele>
        <time>2021-10-17T10:30:48Z</time>
      </trkpt>
      <trkpt lat="46.2693" lon="5.82359">
        <ele>1153.6</ele>
        <time>2021-10-17T10:30:49Z</time>
      </trkpt>
      <trkpt lat="46.26933" lon="5.82359">
        <ele>1154</ele>
        <time>2021-10-17T10:30:50Z</time>
      </trkpt>
      <trkpt lat="46.26935" lon="5.82359">
        <ele>1154</ele>
        <time>2021-10-17T10:30:51Z</time>
      </trkpt>
      <trkpt lat="46.26937" lon="5.8236">
        <ele>1154.6</ele>
        <time>2021-10-17T10:30:52Z</time>
      </trkpt>
      <trkpt lat="46.26938" lon="5.8236">
        <ele>1154.8</ele>
        <time>2021-10-17T10:30:53Z</time>
      </trkpt>
      <trkpt lat="46.2694" lon="5.82361">
        <ele>1155</ele>
        <time>2021-10-17T10:30:54Z</time>
      </trkpt>
      <trkpt lat="46.26942" lon="5.82361">
        <ele>1155.4</ele>
        <time>2021-10-17T10:30:55Z</time>
      </trkpt>
      <trkpt lat="46.26944" lon="5.82362">
        <ele>1155.6</ele>
        <time>2021-10-17T10:30:56Z</time>
      </trkpt>
      <trkpt lat="46.26945" lon="5.82363">
        <ele>1155.6</ele>
        <time>2021-10-17T10:30:57Z</time>
      </trkpt>
      <trkpt lat="46.26947" lon="5.82365">
        <ele>1156</ele>
        <time>2021-10-17T10:30:58Z</time>
      </trkpt>
      <trkpt lat="46.26949" lon="5.82366">
        <ele>1156.2</ele>
        <time>2021-10-17T10:30:59Z</time>
      </trkpt>
      <trkpt lat="46.26952" lon="5.82367">
        <ele>1156.4</ele>
        <time>2021-10-17T10:31:00Z</time>
      </trkpt>
      <trkpt lat="46.26954" lon="5.82368">
        <ele>1156.6</ele>
        <time>2021-10-17T10:31:01Z</time>
      </trkpt>
      <trkpt lat="46.26957" lon="5.8237">
        <ele>1156.6</ele>
        <time>2021-10-17T10:31:02Z</time>
      </trkpt>
      <trkpt lat="46.26961" lon="5.82372">
        <ele>1157</ele>
        <time>2021-10-17T10:31:03Z</time>
      </trkpt>
      <trkpt lat="46.26965" lon="5.82373">
        <ele>1157</ele>
        <time>2021-10-17T10:31:04Z</time>
      </trkpt>
      <trkpt lat="46.26968" lon="5.82375">
        <ele>1157.4</ele>
        <time>2021-10-17T10:31:05Z</time>
      </trkpt>
      <trkpt lat="46.26972" lon="5.82377">
        <ele>1157.4</ele>
        <time>2021-10-17T10:31:06Z</time>
      </trkpt>
      <trkpt lat="46.26975" lon="5.82379">
        <ele>1157.6</ele>
        <time>2021-10-17T10:31:07Z</time>
      </trkpt>
      <trkpt lat="46.26978" lon="5.82381">
        <ele>1157.6</ele>
        <time>2021-10-17T10:31:08Z</time>
      </trkpt>
      <trkpt lat="46.2698" lon="5.82384">
        <ele>1158</ele>
        <time>2021-10-17T10:31:09Z</time>
      </trkpt>
      <trkpt lat="46.26984" lon="5.82386">
        <ele>1158</ele>
        <time>2021-10-17T10:31:10Z</time>
      </trkpt>
      <trkpt lat="46.26988" lon="5.82389">
        <ele>1158.2</ele>
        <time>2021-10-17T10:31:11Z</time>
      </trkpt>
      <trkpt lat="46.2699" lon="5.82392">
        <ele>1158.4</ele>
        <time>2021-10-17T10:31:12Z</time>
      </trkpt>
      <trkpt lat="46.26993" lon="5.82394">
        <ele>1158.4</ele>
        <time>2021-10-17T10:31:13Z</time>
      </trkpt>
      <trkpt lat="46.26997" lon="5.82397">
        <ele>1158.8</ele>
        <time>2021-10-17T10:31:14Z</time>
      </trkpt>
      <trkpt lat="46.27" lon="5.824">
        <ele>1159</ele>
        <time>2021-10-17T10:31:15Z</time>
      </trkpt>
      <trkpt lat="46.27003" lon="5.82403">
        <ele>1159.4</ele>
        <time>2021-10-17T10:31:16Z</time>
      </trkpt>
      <trkpt lat="46.27006" lon="5.82406">
        <ele>1159.4</ele>
        <time>2021-10-17T10:31:17Z</time>
      </trkpt>
      <trkpt lat="46.27008" lon="5.82409">
        <ele>1159.6</ele>
        <time>2021-10-17T10:31:18Z</time>
      </trkpt>
      <trkpt lat="46.27011" lon="5.82413">
        <ele>1159.6</ele>
        <time>2021-10-17T10:31:19Z</time>
      </trkpt>
      <trkpt lat="46.27013" lon="5.82416">
        <ele>1160</ele>
        <time>2021-10-17T10:31:20Z</time>
      </trkpt>
      <trkpt lat="46.27015" lon="5.82419">
        <ele>1160.2</ele>
        <time>2021-10-17T10:31:21Z</time>
      </trkpt>
      <trkpt lat="46.27017" lon="5.82422">
        <ele>1160.2</ele>
        <time>2021-10-17T10:31:22Z</time>
      </trkpt>
      <trkpt lat="46.27019" lon="5.82425">
        <ele>1160.6</ele>
        <time>2021-10-17T10:31:23Z</time>
      </trkpt>
      <trkpt lat="46.27021" lon="5.82428">
        <ele>1160.6</ele>
        <time>2021-10-17T10:31:24Z</time>
      </trkpt>
      <trkpt lat="46.27023" lon="5.82431">
        <ele>1161</ele>
        <time>2021-10-17T10:31:25Z</time>
      </trkpt>
      <trkpt lat="46.27025" lon="5.82434">
        <ele>1161</ele>
        <time>2021-10-17T10:31:26Z</time>
      </trkpt>
      <trkpt lat="46.27027" lon="5.82437">
        <ele>1161.2</ele>
        <time>2021-10-17T10:31:27Z</time>
      </trkpt>
      <trkpt lat="46.27029" lon="5.8244">
        <ele>1161.2</ele>
        <time>2021-10-17T10:31:28Z</time>
      </trkpt>
      <trkpt lat="46.27031" lon="5.82443">
        <ele>1161.6</ele>
        <time>2021-10-17T10:31:29Z</time>
      </trkpt>
      <trkpt lat="46.27032" lon="5.82447">
        <ele>1161.6</ele>
        <time>2021-10-17T10:31:30Z</time>
      </trkpt>
      <trkpt lat="46.27034" lon="5.82449">
        <ele>1162</ele>
        <time>2021-10-17T10:31:31Z</time>
      </trkpt>
      <trkpt lat="46.27035" lon="5.82452">
        <ele>1162</ele>
        <time>2021-10-17T10:31:32Z</time>
      </trkpt>
      <trkpt lat="46.27037" lon="5.82455">
        <ele>1162.4</ele>
        <time>2021-10-17T10:31:33Z</time>
      </trkpt>
      <trkpt lat="46.27039" lon="5.82458">
        <ele>1162.4</ele>
        <time>2021-10-17T10:31:34Z</time>
      </trkpt>
      <trkpt lat="46.27041" lon="5.82461">
        <ele>1162.8</ele>
        <time>2021-10-17T10:31:35Z</time>
      </trkpt>
      <trkpt lat="46.27043" lon="5.82464">
        <ele>1162.8</ele>
        <time>2021-10-17T10:31:36Z</time>
      </trkpt>
      <trkpt lat="46.27045" lon="5.82466">
        <ele>1163</ele>
        <time>2021-10-17T10:31:37Z</time>
      </trkpt>
      <trkpt lat="46.27048" lon="5.82469">
        <ele>1163</ele>
        <time>2021-10-17T10:31:38Z</time>
      </trkpt>
      <trkpt lat="46.2705" lon="5.82472">
        <ele>1163.4</ele>
        <time>2021-10-17T10:31:39Z</time>
      </trkpt>
      <trkpt lat="46.27052" lon="5.82474">
        <ele>1163.4</ele>
        <time>2021-10-17T10:31:40Z</time>
      </trkpt>
      <trkpt lat="46.27054" lon="5.82477">
        <ele>1163.6</ele>
        <time>2021-10-17T10:31:41Z</time>
      </trkpt>
      <trkpt lat="46.27057" lon="5.82479">
        <ele>1163.6</ele>
        <time>2021-10-17T10:31:42Z</time>
      </trkpt>
      <trkpt lat="46.27059" lon="5.82482">
        <ele>1163.8</ele>
        <time>2021-10-17T10:31:43Z</time>
      </trkpt>
      <trkpt lat="46.27062" lon="5.82485">
        <ele>1163.8</ele>
        <time>2021-10-17T10:31:44Z</time>
      </trkpt>
      <trkpt lat="46.27064" lon="5.82487">
        <ele>1164</ele>
        <time>2021-10-17T10:31:45Z</time>
      </trkpt>
      <trkpt lat="46.27067" lon="5.82489">
        <ele>1164</ele>
        <time>2021-10-17T10:31:46Z</time>
      </trkpt>
      <trkpt lat="46.2707" lon="5.82492">
        <ele>1164</ele>
        <time>2021-10-17T10:31:47Z</time>
      </trkpt>
      <trkpt lat="46.27072" lon="5.82495">
        <ele>1164.2</ele>
        <time>2021-10-17T10:31:48Z</time>
      </trkpt>
      <trkpt lat="46.27074" lon="5.82497">
        <ele>1164.2</ele>
        <time>2021-10-17T10:31:49Z</time>
      </trkpt>
      <trkpt lat="46.27077" lon="5.825">
        <ele>1164.4</ele>
        <time>2021-10-17T10:31:50Z</time>
      </trkpt>
      <trkpt lat="46.27079" lon="5.82502">
        <ele>1164.4</ele>
        <time>2021-10-17T10:31:51Z</time>
      </trkpt>
      <trkpt lat="46.27081" lon="5.82505">
        <ele>1164.4</ele>
        <time>2021-10-17T10:31:52Z</time>
      </trkpt>
      <trkpt lat="46.27084" lon="5.82507">
        <ele>1164.6</ele>
        <time>2021-10-17T10:31:53Z</time>
      </trkpt>
      <trkpt lat="46.27087" lon="5.82509">
        <ele>1164.6</ele>
        <time>2021-10-17T10:31:54Z</time>
      </trkpt>
      <trkpt lat="46.2709" lon="5.82511">
        <ele>1164.6</ele>
        <time>2021-10-17T10:31:55Z</time>
      </trkpt>
      <trkpt lat="46.27094" lon="5.82513">
        <ele>1164.6</ele>
        <time>2021-10-17T10:31:56Z</time>
      </trkpt>
      <trkpt lat="46.27097" lon="5.82515">
        <ele>1164.6</ele>
        <time>2021-10-17T10:31:57Z</time>
      </trkpt>
      <trkpt lat="46.27101" lon="5.82518">
        <ele>1164.6</ele>
        <time>2021-10-17T10:31:58Z</time>
      </trkpt>
      <trkpt lat="46.27104" lon="5.8252">
        <ele>1164.6</ele>
        <time>2021-10-17T10:31:59Z</time>
      </trkpt>
      <trkpt lat="46.27108" lon="5.82523">
        <ele>1164.6</ele>
        <time>2021-10-17T10:32:00Z</time>
      </trkpt>
      <trkpt lat="46.27112" lon="5.82526">
        <ele>1164.6</ele>
        <time>2021-10-17T10:32:01Z</time>
      </trkpt>
      <trkpt lat="46.27115" lon="5.82528">
        <ele>1164.6</ele>
        <time>2021-10-17T10:32:02Z</time>
      </trkpt>
      <trkpt lat="46.27119" lon="5.82531">
        <ele>1164.6</ele>
        <time>2021-10-17T10:32:03Z</time>
      </trkpt>
      <trkpt lat="46.27123" lon="5.82533">
        <ele>1164.6</ele>
        <time>2021-10-17T10:32:04Z</time>
      </trkpt>
      <trkpt lat="46.27126" lon="5.82536">
        <ele>1164.6</ele>
        <time>2021-10-17T10:32:05Z</time>
      </trkpt>
      <trkpt lat="46.2713" lon="5.82538">
        <ele>1164.6</ele>
        <time>2021-10-17T10:32:06Z</time>
      </trkpt>
      <trkpt lat="46.27134" lon="5.8254">
        <ele>1164.6</ele>
        <time>2021-10-17T10:32:07Z</time>
      </trkpt>
      <trkpt lat="46.27137" lon="5.82541">
        <ele>1164.6</ele>
        <time>2021-10-17T10:32:08Z</time>
      </trkpt>
      <trkpt lat="46.2714" lon="5.82543">
        <ele>1164.6</ele>
        <time>2021-10-17T10:32:09Z</time>
      </trkpt>
      <trkpt lat="46.27144" lon="5.82546">
        <ele>1164.6</ele>
        <time>2021-10-17T10:32:10Z</time>
      </trkpt>
      <trkpt lat="46.27147" lon="5.82548">
        <ele>1164.6</ele>
        <time>2021-10-17T10:32:11Z</time>
      </trkpt>
      <trkpt lat="46.2715" lon="5.8255">
        <ele>1164.6</ele>
        <time>2021-10-17T10:32:12Z</time>
      </trkpt>
      <trkpt lat="46.27154" lon="5.82552">
        <ele>1164.6</ele>
        <time>2021-10-17T10:32:13Z</time>
      </trkpt>
      <trkpt lat="46.27157" lon="5.82554">
        <ele>1164.6</ele>
        <time>2021-10-17T10:32:14Z</time>
      </trkpt>
      <trkpt lat="46.27161" lon="5.82557">
        <ele>1164.6</ele>
        <time>2021-10-17T10:32:15Z</time>
      </trkpt>
      <trkpt lat="46.27166" lon="5.82559">
        <ele>1164.6</ele>
        <time>2021-10-17T10:32:16Z</time>
      </trkpt>
      <trkpt lat="46.2717" lon="5.82563">
        <ele>1164.6</ele>
        <time>2021-10-17T10:32:17Z</time>
      </trkpt>
      <trkpt lat="46.27175" lon="5.82566">
        <ele>1164.6</ele>
        <time>2021-10-17T10:32:18Z</time>
      </trkpt>
      <trkpt lat="46.2718" lon="5.8257">
        <ele>1164.6</ele>
        <time>2021-10-17T10:32:19Z</time>
      </trkpt>
      <trkpt lat="46.27185" lon="5.82575">
        <ele>1164.4</ele>
        <time>2021-10-17T10:32:20Z</time>
      </trkpt>
      <trkpt lat="46.27189" lon="5.82579">
        <ele>1164.4</ele>
        <time>2021-10-17T10:32:21Z</time>
      </trkpt>
      <trkpt lat="46.27195" lon="5.82584">
        <ele>1164.4</ele>
        <time>2021-10-17T10:32:22Z</time>
      </trkpt>
      <trkpt lat="46.272" lon="5.82589">
        <ele>1164.4</ele>
        <time>2021-10-17T10:32:23Z</time>
      </trkpt>
      <trkpt lat="46.27205" lon="5.82593">
        <ele>1164.4</ele>
        <time>2021-10-17T10:32:24Z</time>
      </trkpt>
      <trkpt lat="46.2721" lon="5.82598">
        <ele>1164.4</ele>
        <time>2021-10-17T10:32:25Z</time>
      </trkpt>
      <trkpt lat="46.27215" lon="5.82602">
        <ele>1164.4</ele>
        <time>2021-10-17T10:32:26Z</time>
      </trkpt>
      <trkpt lat="46.2722" lon="5.82607">
        <ele>1164.4</ele>
        <time>2021-10-17T10:32:27Z</time>
      </trkpt>
      <trkpt lat="46.27225" lon="5.82612">
        <ele>1164.4</ele>
        <time>2021-10-17T10:32:28Z</time>
      </trkpt>
      <trkpt lat="46.27229" lon="5.82618">
        <ele>1164.4</ele>
        <time>2021-10-17T10:32:29Z</time>
      </trkpt>
      <trkpt lat="46.27235" lon="5.82623">
        <ele>1164.4</ele>
        <time>2021-10-17T10:32:30Z</time>
      </trkpt>
      <trkpt lat="46.27245" lon="5.82632">
        <ele>1164.4</ele>
        <time>2021-10-17T10:32:31Z</time>
      </trkpt>
      <trkpt lat="46.2725" lon="5.82637">
        <ele>1164.4</ele>
        <time>2021-10-17T10:32:32Z</time>
      </trkpt>
      <trkpt lat="46.27256" lon="5.82643">
        <ele>1164.4</ele>
        <time>2021-10-17T10:32:33Z</time>
      </trkpt>
      <trkpt lat="46.27261" lon="5.82648">
        <ele>1164.4</ele>
        <time>2021-10-17T10:32:34Z</time>
      </trkpt>
      <trkpt lat="46.27266" lon="5.82653">
        <ele>1164.2</ele>
        <time>2021-10-17T10:32:35Z</time>
      </trkpt>
      <trkpt lat="46.27272" lon="5.82658">
        <ele>1164.2</ele>
        <time>2021-10-17T10:32:36Z</time>
      </trkpt>
      <trkpt lat="46.27278" lon="5.82663">
        <ele>1164.2</ele>
        <time>2021-10-17T10:32:37Z</time>
      </trkpt>
      <trkpt lat="46.27283" lon="5.82668">
        <ele>1164</ele>
        <time>2021-10-17T10:32:38Z</time>
      </trkpt>
      <trkpt lat="46.27289" lon="5.82673">
        <ele>1164</ele>
        <time>2021-10-17T10:32:39Z</time>
      </trkpt>
      <trkpt lat="46.27294" lon="5.82679">
        <ele>1164</ele>
        <time>2021-10-17T10:32:40Z</time>
      </trkpt>
      <trkpt lat="46.273" lon="5.82684">
        <ele>1164</ele>
        <time>2021-10-17T10:32:41Z</time>
      </trkpt>
      <trkpt lat="46.27305" lon="5.82689">
        <ele>1164</ele>
        <time>2021-10-17T10:32:42Z</time>
      </trkpt>
      <trkpt lat="46.27311" lon="5.82694">
        <ele>1164</ele>
        <time>2021-10-17T10:32:43Z</time>
      </trkpt>
      <trkpt lat="46.27316" lon="5.82699">
        <ele>1163.8</ele>
        <time>2021-10-17T10:32:44Z</time>
      </trkpt>
      <trkpt lat="46.27321" lon="5.82703">
        <ele>1163.8</ele>
        <time>2021-10-17T10:32:45Z</time>
      </trkpt>
      <trkpt lat="46.27327" lon="5.82708">
        <ele>1163.8</ele>
        <time>2021-10-17T10:32:46Z</time>
      </trkpt>
      <trkpt lat="46.27331" lon="5.82713">
        <ele>1163.8</ele>
        <time>2021-10-17T10:32:47Z</time>
      </trkpt>
      <trkpt lat="46.27336" lon="5.82718">
        <ele>1163.8</ele>
        <time>2021-10-17T10:32:48Z</time>
      </trkpt>
      <trkpt lat="46.27341" lon="5.82723">
        <ele>1164</ele>
        <time>2021-10-17T10:32:49Z</time>
      </trkpt>
      <trkpt lat="46.27346" lon="5.82727">
        <ele>1164</ele>
        <time>2021-10-17T10:32:50Z</time>
      </trkpt>
      <trkpt lat="46.2735" lon="5.82732">
        <ele>1164.4</ele>
        <time>2021-10-17T10:32:51Z</time>
      </trkpt>
      <trkpt lat="46.27355" lon="5.82737">
        <ele>1164.4</ele>
        <time>2021-10-17T10:32:52Z</time>
      </trkpt>
      <trkpt lat="46.27359" lon="5.82741">
        <ele>1164.8</ele>
        <time>2021-10-17T10:32:53Z</time>
      </trkpt>
      <trkpt lat="46.27363" lon="5.82745">
        <ele>1164.8</ele>
        <time>2021-10-17T10:32:54Z</time>
      </trkpt>
      <trkpt lat="46.27368" lon="5.82749">
        <ele>1165.2</ele>
        <time>2021-10-17T10:32:55Z</time>
      </trkpt>
      <trkpt lat="46.27372" lon="5.82754">
        <ele>1165.2</ele>
        <time>2021-10-17T10:32:56Z</time>
      </trkpt>
      <trkpt lat="46.27377" lon="5.82758">
        <ele>1165.2</ele>
        <time>2021-10-17T10:32:57Z</time>
      </trkpt>
      <trkpt lat="46.27382" lon="5.82762">
        <ele>1165.4</ele>
        <time>2021-10-17T10:32:58Z</time>
      </trkpt>
      <trkpt lat="46.27387" lon="5.82767">
        <ele>1165.4</ele>
        <time>2021-10-17T10:32:59Z</time>
      </trkpt>
      <trkpt lat="46.27391" lon="5.82771">
        <ele>1165.8</ele>
        <time>2021-10-17T10:33:00Z</time>
      </trkpt>
      <trkpt lat="46.27396" lon="5.82775">
        <ele>1165.8</ele>
        <time>2021-10-17T10:33:01Z</time>
      </trkpt>
      <trkpt lat="46.27401" lon="5.82779">
        <ele>1166.2</ele>
        <time>2021-10-17T10:33:02Z</time>
      </trkpt>
      <trkpt lat="46.27405" lon="5.82782">
        <ele>1166.2</ele>
        <time>2021-10-17T10:33:03Z</time>
      </trkpt>
      <trkpt lat="46.27409" lon="5.82786">
        <ele>1166.6</ele>
        <time>2021-10-17T10:33:04Z</time>
      </trkpt>
      <trkpt lat="46.27413" lon="5.8279">
        <ele>1166.6</ele>
        <time>2021-10-17T10:33:05Z</time>
      </trkpt>
      <trkpt lat="46.27417" lon="5.82794">
        <ele>1166.8</ele>
        <time>2021-10-17T10:33:06Z</time>
      </trkpt>
      <trkpt lat="46.2742" lon="5.82797">
        <ele>1167</ele>
        <time>2021-10-17T10:33:07Z</time>
      </trkpt>
      <trkpt lat="46.27424" lon="5.828">
        <ele>1167</ele>
        <time>2021-10-17T10:33:08Z</time>
      </trkpt>
      <trkpt lat="46.27427" lon="5.82803">
        <ele>1167.4</ele>
        <time>2021-10-17T10:33:09Z</time>
      </trkpt>
      <trkpt lat="46.27431" lon="5.82806">
        <ele>1167.4</ele>
        <time>2021-10-17T10:33:10Z</time>
      </trkpt>
      <trkpt lat="46.27434" lon="5.8281">
        <ele>1167.6</ele>
        <time>2021-10-17T10:33:11Z</time>
      </trkpt>
      <trkpt lat="46.27437" lon="5.82813">
        <ele>1167.8</ele>
        <time>2021-10-17T10:33:12Z</time>
      </trkpt>
      <trkpt lat="46.2744" lon="5.82817">
        <ele>1168.2</ele>
        <time>2021-10-17T10:33:13Z</time>
      </trkpt>
      <trkpt lat="46.27443" lon="5.8282">
        <ele>1168.6</ele>
        <time>2021-10-17T10:33:14Z</time>
      </trkpt>
      <trkpt lat="46.27447" lon="5.82823">
        <ele>1168.8</ele>
        <time>2021-10-17T10:33:15Z</time>
      </trkpt>
      <trkpt lat="46.2745" lon="5.82826">
        <ele>1169.2</ele>
        <time>2021-10-17T10:33:16Z</time>
      </trkpt>
      <trkpt lat="46.27453" lon="5.82829">
        <ele>1169.4</ele>
        <time>2021-10-17T10:33:17Z</time>
      </trkpt>
      <trkpt lat="46.27456" lon="5.82832">
        <ele>1169.6</ele>
        <time>2021-10-17T10:33:18Z</time>
      </trkpt>
      <trkpt lat="46.2746" lon="5.82835">
        <ele>1169.6</ele>
        <time>2021-10-17T10:33:19Z</time>
      </trkpt>
      <trkpt lat="46.27464" lon="5.82838">
        <ele>1170</ele>
        <time>2021-10-17T10:33:20Z</time>
      </trkpt>
      <trkpt lat="46.27467" lon="5.82841">
        <ele>1170.2</ele>
        <time>2021-10-17T10:33:21Z</time>
      </trkpt>
      <trkpt lat="46.27473" lon="5.82844">
        <ele>1170.4</ele>
        <time>2021-10-17T10:33:22Z</time>
      </trkpt>
      <trkpt lat="46.27477" lon="5.82848">
        <ele>1170.8</ele>
        <time>2021-10-17T10:33:23Z</time>
      </trkpt>
      <trkpt lat="46.27481" lon="5.82851">
        <ele>1171.2</ele>
        <time>2021-10-17T10:33:24Z</time>
      </trkpt>
      <trkpt lat="46.27485" lon="5.82854">
        <ele>1171.4</ele>
        <time>2021-10-17T10:33:25Z</time>
      </trkpt>
      <trkpt lat="46.27489" lon="5.82857">
        <ele>1171.8</ele>
        <time>2021-10-17T10:33:26Z</time>
      </trkpt>
      <trkpt lat="46.27492" lon="5.82861">
        <ele>1172</ele>
        <time>2021-10-17T10:33:27Z</time>
      </trkpt>
      <trkpt lat="46.27496" lon="5.82864">
        <ele>1172.2</ele>
        <time>2021-10-17T10:33:28Z</time>
      </trkpt>
      <trkpt lat="46.27499" lon="5.82866">
        <ele>1172.4</ele>
        <time>2021-10-17T10:33:29Z</time>
      </trkpt>
      <trkpt lat="46.27502" lon="5.82869">
        <ele>1172.6</ele>
        <time>2021-10-17T10:33:30Z</time>
      </trkpt>
      <trkpt lat="46.27506" lon="5.82873">
        <ele>1172.6</ele>
        <time>2021-10-17T10:33:31Z</time>
      </trkpt>
      <trkpt lat="46.27509" lon="5.82876">
        <ele>1173</ele>
        <time>2021-10-17T10:33:32Z</time>
      </trkpt>
      <trkpt lat="46.27513" lon="5.82878">
        <ele>1173</ele>
        <time>2021-10-17T10:33:33Z</time>
      </trkpt>
      <trkpt lat="46.27516" lon="5.82881">
        <ele>1173.4</ele>
        <time>2021-10-17T10:33:34Z</time>
      </trkpt>
      <trkpt lat="46.27519" lon="5.82883">
        <ele>1173.4</ele>
        <time>2021-10-17T10:33:35Z</time>
      </trkpt>
      <trkpt lat="46.27522" lon="5.82886">
        <ele>1173.6</ele>
        <time>2021-10-17T10:33:36Z</time>
      </trkpt>
      <trkpt lat="46.27525" lon="5.82889">
        <ele>1173.6</ele>
        <time>2021-10-17T10:33:37Z</time>
      </trkpt>
      <trkpt lat="46.27528" lon="5.82892">
        <ele>1173.6</ele>
        <time>2021-10-17T10:33:38Z</time>
      </trkpt>
      <trkpt lat="46.2753" lon="5.82895">
        <ele>1173.8</ele>
        <time>2021-10-17T10:33:39Z</time>
      </trkpt>
      <trkpt lat="46.27533" lon="5.82898">
        <ele>1173.8</ele>
        <time>2021-10-17T10:33:40Z</time>
      </trkpt>
      <trkpt lat="46.27536" lon="5.82901">
        <ele>1174.2</ele>
        <time>2021-10-17T10:33:41Z</time>
      </trkpt>
      <trkpt lat="46.27539" lon="5.82903">
        <ele>1174.2</ele>
        <time>2021-10-17T10:33:42Z</time>
      </trkpt>
      <trkpt lat="46.27542" lon="5.82906">
        <ele>1174.4</ele>
        <time>2021-10-17T10:33:43Z</time>
      </trkpt>
      <trkpt lat="46.27545" lon="5.82909">
        <ele>1174.4</ele>
        <time>2021-10-17T10:33:44Z</time>
      </trkpt>
      <trkpt lat="46.27548" lon="5.82912">
        <ele>1174.6</ele>
        <time>2021-10-17T10:33:45Z</time>
      </trkpt>
      <trkpt lat="46.27552" lon="5.82915">
        <ele>1174.6</ele>
        <time>2021-10-17T10:33:46Z</time>
      </trkpt>
      <trkpt lat="46.27555" lon="5.82919">
        <ele>1174.8</ele>
        <time>2021-10-17T10:33:47Z</time>
      </trkpt>
      <trkpt lat="46.27559" lon="5.82922">
        <ele>1174.8</ele>
        <time>2021-10-17T10:33:48Z</time>
      </trkpt>
      <trkpt lat="46.27563" lon="5.82925">
        <ele>1174.8</ele>
        <time>2021-10-17T10:33:49Z</time>
      </trkpt>
      <trkpt lat="46.27566" lon="5.82928">
        <ele>1174.8</ele>
        <time>2021-10-17T10:33:50Z</time>
      </trkpt>
      <trkpt lat="46.2757" lon="5.82932">
        <ele>1175.2</ele>
        <time>2021-10-17T10:33:51Z</time>
      </trkpt>
      <trkpt lat="46.27573" lon="5.82935">
        <ele>1175.2</ele>
        <time>2021-10-17T10:33:52Z</time>
      </trkpt>
      <trkpt lat="46.27576" lon="5.82938">
        <ele>1175.2</ele>
        <time>2021-10-17T10:33:53Z</time>
      </trkpt>
      <trkpt lat="46.27579" lon="5.82941">
        <ele>1175.4</ele>
        <time>2021-10-17T10:33:54Z</time>
      </trkpt>
      <trkpt lat="46.27582" lon="5.82943">
        <ele>1175.4</ele>
        <time>2021-10-17T10:33:55Z</time>
      </trkpt>
      <trkpt lat="46.27585" lon="5.82945">
        <ele>1175.6</ele>
        <time>2021-10-17T10:33:56Z</time>
      </trkpt>
      <trkpt lat="46.27588" lon="5.82948">
        <ele>1175.6</ele>
        <time>2021-10-17T10:33:57Z</time>
      </trkpt>
      <trkpt lat="46.27591" lon="5.82951">
        <ele>1175.6</ele>
        <time>2021-10-17T10:33:58Z</time>
      </trkpt>
      <trkpt lat="46.27594" lon="5.82954">
        <ele>1176</ele>
        <time>2021-10-17T10:33:59Z</time>
      </trkpt>
      <trkpt lat="46.27597" lon="5.82957">
        <ele>1176</ele>
        <time>2021-10-17T10:34:00Z</time>
      </trkpt>
      <trkpt lat="46.276" lon="5.8296">
        <ele>1176.2</ele>
        <time>2021-10-17T10:34:01Z</time>
      </trkpt>
      <trkpt lat="46.27604" lon="5.82963">
        <ele>1176.2</ele>
        <time>2021-10-17T10:34:02Z</time>
      </trkpt>
      <trkpt lat="46.27607" lon="5.82966">
        <ele>1176.2</ele>
        <time>2021-10-17T10:34:03Z</time>
      </trkpt>
      <trkpt lat="46.2761" lon="5.82969">
        <ele>1176.4</ele>
        <time>2021-10-17T10:34:04Z</time>
      </trkpt>
      <trkpt lat="46.27614" lon="5.82972">
        <ele>1176.4</ele>
        <time>2021-10-17T10:34:05Z</time>
      </trkpt>
      <trkpt lat="46.27617" lon="5.82975">
        <ele>1176.6</ele>
        <time>2021-10-17T10:34:06Z</time>
      </trkpt>
      <trkpt lat="46.27621" lon="5.82977">
        <ele>1176.6</ele>
        <time>2021-10-17T10:34:07Z</time>
      </trkpt>
      <trkpt lat="46.27624" lon="5.8298">
        <ele>1177</ele>
        <time>2021-10-17T10:34:08Z</time>
      </trkpt>
      <trkpt lat="46.27627" lon="5.82983">
        <ele>1177</ele>
        <time>2021-10-17T10:34:09Z</time>
      </trkpt>
      <trkpt lat="46.27631" lon="5.82986">
        <ele>1177.2</ele>
        <time>2021-10-17T10:34:10Z</time>
      </trkpt>
      <trkpt lat="46.27635" lon="5.82988">
        <ele>1177.2</ele>
        <time>2021-10-17T10:34:11Z</time>
      </trkpt>
      <trkpt lat="46.27638" lon="5.82991">
        <ele>1177.2</ele>
        <time>2021-10-17T10:34:12Z</time>
      </trkpt>
      <trkpt lat="46.27642" lon="5.82994">
        <ele>1177.2</ele>
        <time>2021-10-17T10:34:13Z</time>
      </trkpt>
      <trkpt lat="46.27646" lon="5.82997">
        <ele>1177.6</ele>
        <time>2021-10-17T10:34:14Z</time>
      </trkpt>
      <trkpt lat="46.2765" lon="5.82999">
        <ele>1177.6</ele>
        <time>2021-10-17T10:34:15Z</time>
      </trkpt>
      <trkpt lat="46.27653" lon="5.83002">
        <ele>1177.6</ele>
        <time>2021-10-17T10:34:16Z</time>
      </trkpt>
      <trkpt lat="46.27657" lon="5.83004">
        <ele>1177.8</ele>
        <time>2021-10-17T10:34:17Z</time>
      </trkpt>
      <trkpt lat="46.27661" lon="5.83005">
        <ele>1177.8</ele>
        <time>2021-10-17T10:34:18Z</time>
      </trkpt>
      <trkpt lat="46.27665" lon="5.83007">
        <ele>1178</ele>
        <time>2021-10-17T10:34:19Z</time>
      </trkpt>
      <trkpt lat="46.27669" lon="5.83009">
        <ele>1178</ele>
        <time>2021-10-17T10:34:20Z</time>
      </trkpt>
      <trkpt lat="46.27672" lon="5.83011">
        <ele>1178.2</ele>
        <time>2021-10-17T10:34:21Z</time>
      </trkpt>
      <trkpt lat="46.27676" lon="5.83013">
        <ele>1178.2</ele>
        <time>2021-10-17T10:34:22Z</time>
      </trkpt>
      <trkpt lat="46.2768" lon="5.83015">
        <ele>1178.6</ele>
        <time>2021-10-17T10:34:23Z</time>
      </trkpt>
      <trkpt lat="46.27683" lon="5.83017">
        <ele>1178.6</ele>
        <time>2021-10-17T10:34:24Z</time>
      </trkpt>
      <trkpt lat="46.27687" lon="5.83019">
        <ele>1178.8</ele>
        <time>2021-10-17T10:34:25Z</time>
      </trkpt>
      <trkpt lat="46.2769" lon="5.83021">
        <ele>1178.8</ele>
        <time>2021-10-17T10:34:26Z</time>
      </trkpt>
      <trkpt lat="46.27694" lon="5.83023">
        <ele>1178.8</ele>
        <time>2021-10-17T10:34:27Z</time>
      </trkpt>
      <trkpt lat="46.27698" lon="5.83025">
        <ele>1179.2</ele>
        <time>2021-10-17T10:34:28Z</time>
      </trkpt>
      <trkpt lat="46.27701" lon="5.83026">
        <ele>1179.2</ele>
        <time>2021-10-17T10:34:29Z</time>
      </trkpt>
      <trkpt lat="46.27705" lon="5.83028">
        <ele>1179.6</ele>
        <time>2021-10-17T10:34:30Z</time>
      </trkpt>
      <trkpt lat="46.27709" lon="5.8303">
        <ele>1179.6</ele>
        <time>2021-10-17T10:34:31Z</time>
      </trkpt>
      <trkpt lat="46.27712" lon="5.83032">
        <ele>1179.6</ele>
        <time>2021-10-17T10:34:32Z</time>
      </trkpt>
      <trkpt lat="46.27716" lon="5.83034">
        <ele>1179.6</ele>
        <time>2021-10-17T10:34:33Z</time>
      </trkpt>
      <trkpt lat="46.27719" lon="5.83036">
        <ele>1179.8</ele>
        <time>2021-10-17T10:34:34Z</time>
      </trkpt>
      <trkpt lat="46.27723" lon="5.83038">
        <ele>1179.8</ele>
        <time>2021-10-17T10:34:35Z</time>
      </trkpt>
      <trkpt lat="46.27727" lon="5.83039">
        <ele>1180</ele>
        <time>2021-10-17T10:34:36Z</time>
      </trkpt>
      <trkpt lat="46.2773" lon="5.83041">
        <ele>1180</ele>
        <time>2021-10-17T10:34:37Z</time>
      </trkpt>
      <trkpt lat="46.27734" lon="5.83043">
        <ele>1180</ele>
        <time>2021-10-17T10:34:38Z</time>
      </trkpt>
      <trkpt lat="46.27738" lon="5.83044">
        <ele>1180.4</ele>
        <time>2021-10-17T10:34:39Z</time>
      </trkpt>
      <trkpt lat="46.27741" lon="5.83046">
        <ele>1180.4</ele>
        <time>2021-10-17T10:34:40Z</time>
      </trkpt>
      <trkpt lat="46.27745" lon="5.83049">
        <ele>1180.8</ele>
        <time>2021-10-17T10:34:41Z</time>
      </trkpt>
      <trkpt lat="46.27749" lon="5.83051">
        <ele>1180.8</ele>
        <time>2021-10-17T10:34:42Z</time>
      </trkpt>
      <trkpt lat="46.27752" lon="5.83052">
        <ele>1181</ele>
        <time>2021-10-17T10:34:43Z</time>
      </trkpt>
      <trkpt lat="46.27756" lon="5.83054">
        <ele>1181</ele>
        <time>2021-10-17T10:34:44Z</time>
      </trkpt>
      <trkpt lat="46.2776" lon="5.83056">
        <ele>1181.2</ele>
        <time>2021-10-17T10:34:45Z</time>
      </trkpt>
      <trkpt lat="46.27763" lon="5.83058">
        <ele>1181.2</ele>
        <time>2021-10-17T10:34:46Z</time>
      </trkpt>
      <trkpt lat="46.27767" lon="5.8306">
        <ele>1181.6</ele>
        <time>2021-10-17T10:34:47Z</time>
      </trkpt>
      <trkpt lat="46.2777" lon="5.83061">
        <ele>1181.6</ele>
        <time>2021-10-17T10:34:48Z</time>
      </trkpt>
      <trkpt lat="46.27774" lon="5.83063">
        <ele>1181.8</ele>
        <time>2021-10-17T10:34:49Z</time>
      </trkpt>
      <trkpt lat="46.27777" lon="5.83065">
        <ele>1181.8</ele>
        <time>2021-10-17T10:34:50Z</time>
      </trkpt>
      <trkpt lat="46.27781" lon="5.83067">
        <ele>1182.2</ele>
        <time>2021-10-17T10:34:51Z</time>
      </trkpt>
      <trkpt lat="46.27784" lon="5.83068">
        <ele>1182.2</ele>
        <time>2021-10-17T10:34:52Z</time>
      </trkpt>
      <trkpt lat="46.27788" lon="5.8307">
        <ele>1182.4</ele>
        <time>2021-10-17T10:34:53Z</time>
      </trkpt>
      <trkpt lat="46.27791" lon="5.83071">
        <ele>1182.4</ele>
        <time>2021-10-17T10:34:54Z</time>
      </trkpt>
      <trkpt lat="46.27795" lon="5.83073">
        <ele>1182.4</ele>
        <time>2021-10-17T10:34:55Z</time>
      </trkpt>
      <trkpt lat="46.27798" lon="5.83075">
        <ele>1182.8</ele>
        <time>2021-10-17T10:34:56Z</time>
      </trkpt>
      <trkpt lat="46.27802" lon="5.83077">
        <ele>1182.8</ele>
        <time>2021-10-17T10:34:57Z</time>
      </trkpt>
      <trkpt lat="46.27806" lon="5.83079">
        <ele>1183.2</ele>
        <time>2021-10-17T10:34:58Z</time>
      </trkpt>
      <trkpt lat="46.2781" lon="5.83081">
        <ele>1183.2</ele>
        <time>2021-10-17T10:34:59Z</time>
      </trkpt>
      <trkpt lat="46.27814" lon="5.83083">
        <ele>1183.2</ele>
        <time>2021-10-17T10:35:00Z</time>
      </trkpt>
      <trkpt lat="46.27818" lon="5.83086">
        <ele>1183.2</ele>
        <time>2021-10-17T10:35:01Z</time>
      </trkpt>
      <trkpt lat="46.27822" lon="5.83089">
        <ele>1183.2</ele>
        <time>2021-10-17T10:35:02Z</time>
      </trkpt>
      <trkpt lat="46.27827" lon="5.83092">
        <ele>1183.2</ele>
        <time>2021-10-17T10:35:03Z</time>
      </trkpt>
      <trkpt lat="46.27831" lon="5.83095">
        <ele>1183.2</ele>
        <time>2021-10-17T10:35:04Z</time>
      </trkpt>
      <trkpt lat="46.27836" lon="5.83099">
        <ele>1183.2</ele>
        <time>2021-10-17T10:35:05Z</time>
      </trkpt>
      <trkpt lat="46.2784" lon="5.83103">
        <ele>1183.2</ele>
        <time>2021-10-17T10:35:06Z</time>
      </trkpt>
      <trkpt lat="46.27845" lon="5.83108">
        <ele>1183.2</ele>
        <time>2021-10-17T10:35:07Z</time>
      </trkpt>
      <trkpt lat="46.2785" lon="5.83112">
        <ele>1183</ele>
        <time>2021-10-17T10:35:08Z</time>
      </trkpt>
      <trkpt lat="46.27854" lon="5.83118">
        <ele>1183</ele>
        <time>2021-10-17T10:35:09Z</time>
      </trkpt>
      <trkpt lat="46.27859" lon="5.83123">
        <ele>1183</ele>
        <time>2021-10-17T10:35:10Z</time>
      </trkpt>
      <trkpt lat="46.27864" lon="5.8313">
        <ele>1182.6</ele>
        <time>2021-10-17T10:35:11Z</time>
      </trkpt>
      <trkpt lat="46.27868" lon="5.83137">
        <ele>1182.6</ele>
        <time>2021-10-17T10:35:12Z</time>
      </trkpt>
      <trkpt lat="46.27872" lon="5.83144">
        <ele>1182.6</ele>
        <time>2021-10-17T10:35:13Z</time>
      </trkpt>
      <trkpt lat="46.27875" lon="5.83152">
        <ele>1182.4</ele>
        <time>2021-10-17T10:35:14Z</time>
      </trkpt>
      <trkpt lat="46.27878" lon="5.83161">
        <ele>1182.4</ele>
        <time>2021-10-17T10:35:15Z</time>
      </trkpt>
      <trkpt lat="46.2788" lon="5.83169">
        <ele>1182.4</ele>
        <time>2021-10-17T10:35:16Z</time>
      </trkpt>
      <trkpt lat="46.27882" lon="5.83177">
        <ele>1182.4</ele>
        <time>2021-10-17T10:35:17Z</time>
      </trkpt>
      <trkpt lat="46.27883" lon="5.83186">
        <ele>1182.4</ele>
        <time>2021-10-17T10:35:18Z</time>
      </trkpt>
      <trkpt lat="46.27885" lon="5.83194">
        <ele>1182.4</ele>
        <time>2021-10-17T10:35:19Z</time>
      </trkpt>
      <trkpt lat="46.27886" lon="5.83201">
        <ele>1182.4</ele>
        <time>2021-10-17T10:35:20Z</time>
      </trkpt>
      <trkpt lat="46.27887" lon="5.83209">
        <ele>1182.4</ele>
        <time>2021-10-17T10:35:21Z</time>
      </trkpt>
      <trkpt lat="46.27887" lon="5.83217">
        <ele>1182.8</ele>
        <time>2021-10-17T10:35:22Z</time>
      </trkpt>
      <trkpt lat="46.27888" lon="5.83225">
        <ele>1182.8</ele>
        <time>2021-10-17T10:35:23Z</time>
      </trkpt>
      <trkpt lat="46.27889" lon="5.83233">
        <ele>1183</ele>
        <time>2021-10-17T10:35:24Z</time>
      </trkpt>
      <trkpt lat="46.27889" lon="5.83241">
        <ele>1183</ele>
        <time>2021-10-17T10:35:25Z</time>
      </trkpt>
      <trkpt lat="46.2789" lon="5.83249">
        <ele>1183</ele>
        <time>2021-10-17T10:35:26Z</time>
      </trkpt>
      <trkpt lat="46.27889" lon="5.83257">
        <ele>1183</ele>
        <time>2021-10-17T10:35:27Z</time>
      </trkpt>
      <trkpt lat="46.27889" lon="5.83266">
        <ele>1183</ele>
        <time>2021-10-17T10:35:28Z</time>
      </trkpt>
      <trkpt lat="46.27888" lon="5.83274">
        <ele>1183</ele>
        <time>2021-10-17T10:35:29Z</time>
      </trkpt>
      <trkpt lat="46.27886" lon="5.83283">
        <ele>1183</ele>
        <time>2021-10-17T10:35:30Z</time>
      </trkpt>
      <trkpt lat="46.27884" lon="5.8329">
        <ele>1183.2</ele>
        <time>2021-10-17T10:35:31Z</time>
      </trkpt>
      <trkpt lat="46.27882" lon="5.83297">
        <ele>1183.2</ele>
        <time>2021-10-17T10:35:32Z</time>
      </trkpt>
      <trkpt lat="46.2788" lon="5.83304">
        <ele>1183.2</ele>
        <time>2021-10-17T10:35:33Z</time>
      </trkpt>
      <trkpt lat="46.27878" lon="5.83311">
        <ele>1183.6</ele>
        <time>2021-10-17T10:35:34Z</time>
      </trkpt>
      <trkpt lat="46.27875" lon="5.83317">
        <ele>1183.6</ele>
        <time>2021-10-17T10:35:35Z</time>
      </trkpt>
      <trkpt lat="46.27872" lon="5.83323">
        <ele>1183.6</ele>
        <time>2021-10-17T10:35:36Z</time>
      </trkpt>
      <trkpt lat="46.27869" lon="5.83329">
        <ele>1183.8</ele>
        <time>2021-10-17T10:35:37Z</time>
      </trkpt>
      <trkpt lat="46.27866" lon="5.83335">
        <ele>1183.8</ele>
        <time>2021-10-17T10:35:38Z</time>
      </trkpt>
      <trkpt lat="46.27863" lon="5.8334">
        <ele>1184.2</ele>
        <time>2021-10-17T10:35:39Z</time>
      </trkpt>
      <trkpt lat="46.2786" lon="5.83346">
        <ele>1184.4</ele>
        <time>2021-10-17T10:35:40Z</time>
      </trkpt>
      <trkpt lat="46.27858" lon="5.83351">
        <ele>1184.4</ele>
        <time>2021-10-17T10:35:41Z</time>
      </trkpt>
      <trkpt lat="46.27855" lon="5.83357">
        <ele>1184.6</ele>
        <time>2021-10-17T10:35:42Z</time>
      </trkpt>
      <trkpt lat="46.27852" lon="5.83363">
        <ele>1184.6</ele>
        <time>2021-10-17T10:35:43Z</time>
      </trkpt>
      <trkpt lat="46.2785" lon="5.83368">
        <ele>1184.8</ele>
        <time>2021-10-17T10:35:44Z</time>
      </trkpt>
      <trkpt lat="46.27847" lon="5.83374">
        <ele>1184.8</ele>
        <time>2021-10-17T10:35:45Z</time>
      </trkpt>
      <trkpt lat="46.27844" lon="5.83379">
        <ele>1185.2</ele>
        <time>2021-10-17T10:35:46Z</time>
      </trkpt>
      <trkpt lat="46.27841" lon="5.83385">
        <ele>1185.2</ele>
        <time>2021-10-17T10:35:47Z</time>
      </trkpt>
      <trkpt lat="46.27838" lon="5.8339">
        <ele>1185.2</ele>
        <time>2021-10-17T10:35:48Z</time>
      </trkpt>
      <trkpt lat="46.27835" lon="5.83395">
        <ele>1185.2</ele>
        <time>2021-10-17T10:35:49Z</time>
      </trkpt>
      <trkpt lat="46.27832" lon="5.83401">
        <ele>1185.4</ele>
        <time>2021-10-17T10:35:50Z</time>
      </trkpt>
      <trkpt lat="46.27829" lon="5.83406">
        <ele>1185.4</ele>
        <time>2021-10-17T10:35:51Z</time>
      </trkpt>
      <trkpt lat="46.27826" lon="5.83411">
        <ele>1185.4</ele>
        <time>2021-10-17T10:35:52Z</time>
      </trkpt>
      <trkpt lat="46.27824" lon="5.83417">
        <ele>1185.6</ele>
        <time>2021-10-17T10:35:53Z</time>
      </trkpt>
      <trkpt lat="46.27821" lon="5.83422">
        <ele>1185.6</ele>
        <time>2021-10-17T10:35:54Z</time>
      </trkpt>
      <trkpt lat="46.27819" lon="5.83427">
        <ele>1186</ele>
        <time>2021-10-17T10:35:55Z</time>
      </trkpt>
      <trkpt lat="46.27817" lon="5.83432">
        <ele>1186</ele>
        <time>2021-10-17T10:35:56Z</time>
      </trkpt>
      <trkpt lat="46.27815" lon="5.83438">
        <ele>1186.4</ele>
        <time>2021-10-17T10:35:57Z</time>
      </trkpt>
      <trkpt lat="46.27814" lon="5.83443">
        <ele>1186.6</ele>
        <time>2021-10-17T10:35:58Z</time>
      </trkpt>
      <trkpt lat="46.27813" lon="5.83449">
        <ele>1186.6</ele>
        <time>2021-10-17T10:35:59Z</time>
      </trkpt>
      <trkpt lat="46.27813" lon="5.83454">
        <ele>1186.8</ele>
        <time>2021-10-17T10:36:00Z</time>
      </trkpt>
      <trkpt lat="46.27812" lon="5.8346">
        <ele>1186.8</ele>
        <time>2021-10-17T10:36:01Z</time>
      </trkpt>
      <trkpt lat="46.27812" lon="5.83465">
        <ele>1187.4</ele>
        <time>2021-10-17T10:36:02Z</time>
      </trkpt>
      <trkpt lat="46.27813" lon="5.8347">
        <ele>1187.4</ele>
        <time>2021-10-17T10:36:03Z</time>
      </trkpt>
      <trkpt lat="46.27813" lon="5.83475">
        <ele>1187.6</ele>
        <time>2021-10-17T10:36:04Z</time>
      </trkpt>
      <trkpt lat="46.27814" lon="5.8348">
        <ele>1187.6</ele>
        <time>2021-10-17T10:36:05Z</time>
      </trkpt>
      <trkpt lat="46.27815" lon="5.83484">
        <ele>1187.8</ele>
        <time>2021-10-17T10:36:06Z</time>
      </trkpt>
      <trkpt lat="46.27815" lon="5.83489">
        <ele>1187.8</ele>
        <time>2021-10-17T10:36:07Z</time>
      </trkpt>
      <trkpt lat="46.27816" lon="5.83493">
        <ele>1188</ele>
        <time>2021-10-17T10:36:08Z</time>
      </trkpt>
      <trkpt lat="46.27817" lon="5.83497">
        <ele>1188</ele>
        <time>2021-10-17T10:36:09Z</time>
      </trkpt>
      <trkpt lat="46.27819" lon="5.83501">
        <ele>1188.4</ele>
        <time>2021-10-17T10:36:10Z</time>
      </trkpt>
      <trkpt lat="46.2782" lon="5.83504">
        <ele>1188.4</ele>
        <time>2021-10-17T10:36:11Z</time>
      </trkpt>
      <trkpt lat="46.27822" lon="5.83507">
        <ele>1188.6</ele>
        <time>2021-10-17T10:36:12Z</time>
      </trkpt>
      <trkpt lat="46.27824" lon="5.83511">
        <ele>1188.6</ele>
        <time>2021-10-17T10:36:13Z</time>
      </trkpt>
      <trkpt lat="46.27825" lon="5.83514">
        <ele>1188.8</ele>
        <time>2021-10-17T10:36:14Z</time>
      </trkpt>
      <trkpt lat="46.27827" lon="5.83517">
        <ele>1188.8</ele>
        <time>2021-10-17T10:36:15Z</time>
      </trkpt>
      <trkpt lat="46.27828" lon="5.8352">
        <ele>1188.8</ele>
        <time>2021-10-17T10:36:16Z</time>
      </trkpt>
      <trkpt lat="46.27829" lon="5.83523">
        <ele>1189</ele>
        <time>2021-10-17T10:36:17Z</time>
      </trkpt>
      <trkpt lat="46.2783" lon="5.83525">
        <ele>1189</ele>
        <time>2021-10-17T10:36:18Z</time>
      </trkpt>
      <trkpt lat="46.2783" lon="5.83526">
        <ele>1189</ele>
        <time>2021-10-17T10:36:19Z</time>
      </trkpt>
      <trkpt lat="46.27831" lon="5.83527">
        <ele>1189</ele>
        <time>2021-10-17T10:36:20Z</time>
      </trkpt>
      <trkpt lat="46.27835" lon="5.83534">
        <ele>1189.2</ele>
        <time>2021-10-17T10:38:18Z</time>
      </trkpt>
      <trkpt lat="46.27836" lon="5.83537">
        <ele>1189.2</ele>
        <time>2021-10-17T10:38:19Z</time>
      </trkpt>
      <trkpt lat="46.27838" lon="5.83541">
        <ele>1189.2</ele>
        <time>2021-10-17T10:38:20Z</time>
      </trkpt>
      <trkpt lat="46.2784" lon="5.83544">
        <ele>1189</ele>
        <time>2021-10-17T10:38:21Z</time>
      </trkpt>
      <trkpt lat="46.27843" lon="5.83548">
        <ele>1189</ele>
        <time>2021-10-17T10:38:22Z</time>
      </trkpt>
      <trkpt lat="46.27846" lon="5.83552">
        <ele>1189</ele>
        <time>2021-10-17T10:38:23Z</time>
      </trkpt>
      <trkpt lat="46.27849" lon="5.83557">
        <ele>1188.6</ele>
        <time>2021-10-17T10:38:24Z</time>
      </trkpt>
      <trkpt lat="46.27852" lon="5.83563">
        <ele>1188.6</ele>
        <time>2021-10-17T10:38:25Z</time>
      </trkpt>
      <trkpt lat="46.27856" lon="5.83568">
        <ele>1188.2</ele>
        <time>2021-10-17T10:38:26Z</time>
      </trkpt>
      <trkpt lat="46.2786" lon="5.83574">
        <ele>1188.2</ele>
        <time>2021-10-17T10:38:27Z</time>
      </trkpt>
      <trkpt lat="46.27864" lon="5.8358">
        <ele>1188</ele>
        <time>2021-10-17T10:38:28Z</time>
      </trkpt>
      <trkpt lat="46.27868" lon="5.83585">
        <ele>1188</ele>
        <time>2021-10-17T10:38:29Z</time>
      </trkpt>
      <trkpt lat="46.27873" lon="5.83591">
        <ele>1188</ele>
        <time>2021-10-17T10:38:30Z</time>
      </trkpt>
      <trkpt lat="46.27877" lon="5.83595">
        <ele>1188</ele>
        <time>2021-10-17T10:38:31Z</time>
      </trkpt>
      <trkpt lat="46.27882" lon="5.836">
        <ele>1187.6</ele>
        <time>2021-10-17T10:38:32Z</time>
      </trkpt>
      <trkpt lat="46.27887" lon="5.83604">
        <ele>1187.6</ele>
        <time>2021-10-17T10:38:33Z</time>
      </trkpt>
      <trkpt lat="46.27893" lon="5.83608">
        <ele>1187.4</ele>
        <time>2021-10-17T10:38:34Z</time>
      </trkpt>
      <trkpt lat="46.27899" lon="5.83613">
        <ele>1187</ele>
        <time>2021-10-17T10:38:35Z</time>
      </trkpt>
      <trkpt lat="46.27905" lon="5.83618">
        <ele>1186.8</ele>
        <time>2021-10-17T10:38:36Z</time>
      </trkpt>
      <trkpt lat="46.27911" lon="5.83623">
        <ele>1186.4</ele>
        <time>2021-10-17T10:38:37Z</time>
      </trkpt>
      <trkpt lat="46.27918" lon="5.83628">
        <ele>1186</ele>
        <time>2021-10-17T10:38:38Z</time>
      </trkpt>
      <trkpt lat="46.27925" lon="5.83633">
        <ele>1185.8</ele>
        <time>2021-10-17T10:38:39Z</time>
      </trkpt>
      <trkpt lat="46.27932" lon="5.83639">
        <ele>1185.2</ele>
        <time>2021-10-17T10:38:40Z</time>
      </trkpt>
      <trkpt lat="46.27939" lon="5.83645">
        <ele>1185</ele>
        <time>2021-10-17T10:38:41Z</time>
      </trkpt>
      <trkpt lat="46.27946" lon="5.83652">
        <ele>1184.6</ele>
        <time>2021-10-17T10:38:42Z</time>
      </trkpt>
      <trkpt lat="46.27954" lon="5.83658">
        <ele>1184.2</ele>
        <time>2021-10-17T10:38:43Z</time>
      </trkpt>
      <trkpt lat="46.27962" lon="5.83665">
        <ele>1184</ele>
        <time>2021-10-17T10:38:44Z</time>
      </trkpt>
      <trkpt lat="46.27971" lon="5.83671">
        <ele>1183.6</ele>
        <time>2021-10-17T10:38:45Z</time>
      </trkpt>
      <trkpt lat="46.2798" lon="5.83679">
        <ele>1183</ele>
        <time>2021-10-17T10:38:46Z</time>
      </trkpt>
      <trkpt lat="46.27988" lon="5.83687">
        <ele>1182.4</ele>
        <time>2021-10-17T10:38:47Z</time>
      </trkpt>
      <trkpt lat="46.27997" lon="5.83693">
        <ele>1181.8</ele>
        <time>2021-10-17T10:38:48Z</time>
      </trkpt>
      <trkpt lat="46.28007" lon="5.83699">
        <ele>1181.2</ele>
        <time>2021-10-17T10:38:49Z</time>
      </trkpt>
      <trkpt lat="46.28018" lon="5.83703">
        <ele>1180.8</ele>
        <time>2021-10-17T10:38:50Z</time>
      </trkpt>
      <trkpt lat="46.28029" lon="5.83708">
        <ele>1180</ele>
        <time>2021-10-17T10:38:51Z</time>
      </trkpt>
      <trkpt lat="46.2804" lon="5.83712">
        <ele>1179.4</ele>
        <time>2021-10-17T10:38:52Z</time>
      </trkpt>
      <trkpt lat="46.28051" lon="5.83718">
        <ele>1178.8</ele>
        <time>2021-10-17T10:38:53Z</time>
      </trkpt>
      <trkpt lat="46.28061" lon="5.83726">
        <ele>1178.2</ele>
        <time>2021-10-17T10:38:54Z</time>
      </trkpt>
      <trkpt lat="46.2807" lon="5.83735">
        <ele>1177.6</ele>
        <time>2021-10-17T10:38:55Z</time>
      </trkpt>
      <trkpt lat="46.28079" lon="5.83745">
        <ele>1177</ele>
        <time>2021-10-17T10:38:56Z</time>
      </trkpt>
      <trkpt lat="46.28087" lon="5.83757">
        <ele>1176.4</ele>
        <time>2021-10-17T10:38:57Z</time>
      </trkpt>
      <trkpt lat="46.28095" lon="5.83768">
        <ele>1175.8</ele>
        <time>2021-10-17T10:38:58Z</time>
      </trkpt>
      <trkpt lat="46.28101" lon="5.83778">
        <ele>1175.2</ele>
        <time>2021-10-17T10:38:59Z</time>
      </trkpt>
      <trkpt lat="46.28104" lon="5.83792">
        <ele>1174.8</ele>
        <time>2021-10-17T10:39:00Z</time>
      </trkpt>
      <trkpt lat="46.28107" lon="5.83804">
        <ele>1174.2</ele>
        <time>2021-10-17T10:39:01Z</time>
      </trkpt>
      <trkpt lat="46.28107" lon="5.83817">
        <ele>1173.4</ele>
        <time>2021-10-17T10:39:02Z</time>
      </trkpt>
      <trkpt lat="46.28106" lon="5.83832">
        <ele>1172.8</ele>
        <time>2021-10-17T10:39:03Z</time>
      </trkpt>
      <trkpt lat="46.28103" lon="5.83846">
        <ele>1172.2</ele>
        <time>2021-10-17T10:39:04Z</time>
      </trkpt>
      <trkpt lat="46.28098" lon="5.83861">
        <ele>1171.4</ele>
        <time>2021-10-17T10:39:05Z</time>
      </trkpt>
      <trkpt lat="46.28094" lon="5.83876">
        <ele>1170.8</ele>
        <time>2021-10-17T10:39:06Z</time>
      </trkpt>
      <trkpt lat="46.2809" lon="5.83891">
        <ele>1170.2</ele>
        <time>2021-10-17T10:39:07Z</time>
      </trkpt>
      <trkpt lat="46.28086" lon="5.83906">
        <ele>1169.4</ele>
        <time>2021-10-17T10:39:08Z</time>
      </trkpt>
      <trkpt lat="46.28082" lon="5.8392">
        <ele>1168.6</ele>
        <time>2021-10-17T10:39:09Z</time>
      </trkpt>
      <trkpt lat="46.2808" lon="5.83935">
        <ele>1167.8</ele>
        <time>2021-10-17T10:39:10Z</time>
      </trkpt>
      <trkpt lat="46.2808" lon="5.83949">
        <ele>1167.2</ele>
        <time>2021-10-17T10:39:11Z</time>
      </trkpt>
      <trkpt lat="46.28081" lon="5.83964">
        <ele>1166.6</ele>
        <time>2021-10-17T10:39:12Z</time>
      </trkpt>
      <trkpt lat="46.28084" lon="5.83981">
        <ele>1165.8</ele>
        <time>2021-10-17T10:39:13Z</time>
      </trkpt>
      <trkpt lat="46.28088" lon="5.83996">
        <ele>1165.2</ele>
        <time>2021-10-17T10:39:14Z</time>
      </trkpt>
      <trkpt lat="46.28091" lon="5.84012">
        <ele>1164.6</ele>
        <time>2021-10-17T10:39:15Z</time>
      </trkpt>
      <trkpt lat="46.28096" lon="5.84025">
        <ele>1163.8</ele>
        <time>2021-10-17T10:39:16Z</time>
      </trkpt>
      <trkpt lat="46.28101" lon="5.84039">
        <ele>1163.2</ele>
        <time>2021-10-17T10:39:17Z</time>
      </trkpt>
      <trkpt lat="46.28106" lon="5.84054">
        <ele>1162.4</ele>
        <time>2021-10-17T10:39:18Z</time>
      </trkpt>
      <trkpt lat="46.28114" lon="5.84066">
        <ele>1161.8</ele>
        <time>2021-10-17T10:39:19Z</time>
      </trkpt>
      <trkpt lat="46.28121" lon="5.84077">
        <ele>1161</ele>
        <time>2021-10-17T10:39:20Z</time>
      </trkpt>
      <trkpt lat="46.28129" lon="5.84089">
        <ele>1160.4</ele>
        <time>2021-10-17T10:39:21Z</time>
      </trkpt>
      <trkpt lat="46.28135" lon="5.841">
        <ele>1159.6</ele>
        <time>2021-10-17T10:39:22Z</time>
      </trkpt>
      <trkpt lat="46.2814" lon="5.84113">
        <ele>1158.8</ele>
        <time>2021-10-17T10:39:23Z</time>
      </trkpt>
      <trkpt lat="46.28142" lon="5.84129">
        <ele>1157.8</ele>
        <time>2021-10-17T10:39:24Z</time>
      </trkpt>
      <trkpt lat="46.28144" lon="5.84144">
        <ele>1157.2</ele>
        <time>2021-10-17T10:39:25Z</time>
      </trkpt>
      <trkpt lat="46.28143" lon="5.84161">
        <ele>1156.2</ele>
        <time>2021-10-17T10:39:26Z</time>
      </trkpt>
      <trkpt lat="46.28141" lon="5.84177">
        <ele>1155.6</ele>
        <time>2021-10-17T10:39:27Z</time>
      </trkpt>
      <trkpt lat="46.28137" lon="5.84193">
        <ele>1154.8</ele>
        <time>2021-10-17T10:39:28Z</time>
      </trkpt>
      <trkpt lat="46.28134" lon="5.84209">
        <ele>1154.2</ele>
        <time>2021-10-17T10:39:29Z</time>
      </trkpt>
      <trkpt lat="46.28129" lon="5.84224">
        <ele>1153.8</ele>
        <time>2021-10-17T10:39:30Z</time>
      </trkpt>
      <trkpt lat="46.28124" lon="5.84239">
        <ele>1153.6</ele>
        <time>2021-10-17T10:39:31Z</time>
      </trkpt>
      <trkpt lat="46.28118" lon="5.84253">
        <ele>1153.2</ele>
        <time>2021-10-17T10:39:32Z</time>
      </trkpt>
      <trkpt lat="46.28114" lon="5.84267">
        <ele>1152.8</ele>
        <time>2021-10-17T10:39:33Z</time>
      </trkpt>
      <trkpt lat="46.2811" lon="5.84282">
        <ele>1152.6</ele>
        <time>2021-10-17T10:39:34Z</time>
      </trkpt>
      <trkpt lat="46.28107" lon="5.84296">
        <ele>1152.4</ele>
        <time>2021-10-17T10:39:35Z</time>
      </trkpt>
      <trkpt lat="46.28103" lon="5.84312">
        <ele>1152.4</ele>
        <time>2021-10-17T10:39:36Z</time>
      </trkpt>
      <trkpt lat="46.28099" lon="5.84326">
        <ele>1152</ele>
        <time>2021-10-17T10:39:37Z</time>
      </trkpt>
      <trkpt lat="46.28097" lon="5.84338">
        <ele>1152</ele>
        <time>2021-10-17T10:39:38Z</time>
      </trkpt>
      <trkpt lat="46.28094" lon="5.84351">
        <ele>1152</ele>
        <time>2021-10-17T10:39:39Z</time>
      </trkpt>
      <trkpt lat="46.28091" lon="5.84362">
        <ele>1152.2</ele>
        <time>2021-10-17T10:39:40Z</time>
      </trkpt>
      <trkpt lat="46.28088" lon="5.84372">
        <ele>1152.6</ele>
        <time>2021-10-17T10:39:41Z</time>
      </trkpt>
      <trkpt lat="46.28085" lon="5.84382">
        <ele>1153.2</ele>
        <time>2021-10-17T10:39:42Z</time>
      </trkpt>
      <trkpt lat="46.28082" lon="5.84391">
        <ele>1153.6</ele>
        <time>2021-10-17T10:39:43Z</time>
      </trkpt>
      <trkpt lat="46.2808" lon="5.844">
        <ele>1153.8</ele>
        <time>2021-10-17T10:39:44Z</time>
      </trkpt>
      <trkpt lat="46.28077" lon="5.84408">
        <ele>1154.2</ele>
        <time>2021-10-17T10:39:45Z</time>
      </trkpt>
      <trkpt lat="46.28076" lon="5.84415">
        <ele>1154.6</ele>
        <time>2021-10-17T10:39:46Z</time>
      </trkpt>
      <trkpt lat="46.28074" lon="5.84422">
        <ele>1155</ele>
        <time>2021-10-17T10:39:47Z</time>
      </trkpt>
      <trkpt lat="46.28072" lon="5.84429">
        <ele>1155.2</ele>
        <time>2021-10-17T10:39:48Z</time>
      </trkpt>
      <trkpt lat="46.2807" lon="5.84436">
        <ele>1155.2</ele>
        <time>2021-10-17T10:39:49Z</time>
      </trkpt>
      <trkpt lat="46.28068" lon="5.84442">
        <ele>1155.4</ele>
        <time>2021-10-17T10:39:50Z</time>
      </trkpt>
      <trkpt lat="46.28067" lon="5.84448">
        <ele>1155.4</ele>
        <time>2021-10-17T10:39:51Z</time>
      </trkpt>
      <trkpt lat="46.28065" lon="5.84455">
        <ele>1155.8</ele>
        <time>2021-10-17T10:39:52Z</time>
      </trkpt>
      <trkpt lat="46.28063" lon="5.84461">
        <ele>1155.8</ele>
        <time>2021-10-17T10:39:53Z</time>
      </trkpt>
      <trkpt lat="46.28062" lon="5.84468">
        <ele>1155.8</ele>
        <time>2021-10-17T10:39:54Z</time>
      </trkpt>
      <trkpt lat="46.28061" lon="5.84475">
        <ele>1155.8</ele>
        <time>2021-10-17T10:39:55Z</time>
      </trkpt>
      <trkpt lat="46.28061" lon="5.84482">
        <ele>1155.8</ele>
        <time>2021-10-17T10:39:56Z</time>
      </trkpt>
      <trkpt lat="46.28061" lon="5.84489">
        <ele>1155.8</ele>
        <time>2021-10-17T10:39:57Z</time>
      </trkpt>
      <trkpt lat="46.28061" lon="5.84497">
        <ele>1155.8</ele>
        <time>2021-10-17T10:39:58Z</time>
      </trkpt>
      <trkpt lat="46.28063" lon="5.84505">
        <ele>1155.8</ele>
        <time>2021-10-17T10:39:59Z</time>
      </trkpt>
      <trkpt lat="46.28065" lon="5.84513">
        <ele>1155.4</ele>
        <time>2021-10-17T10:40:00Z</time>
      </trkpt>
      <trkpt lat="46.28068" lon="5.84521">
        <ele>1155.4</ele>
        <time>2021-10-17T10:40:01Z</time>
      </trkpt>
      <trkpt lat="46.28072" lon="5.84529">
        <ele>1155</ele>
        <time>2021-10-17T10:40:02Z</time>
      </trkpt>
      <trkpt lat="46.28077" lon="5.84536">
        <ele>1154.8</ele>
        <time>2021-10-17T10:40:03Z</time>
      </trkpt>
      <trkpt lat="46.28083" lon="5.84542">
        <ele>1154.6</ele>
        <time>2021-10-17T10:40:04Z</time>
      </trkpt>
      <trkpt lat="46.28089" lon="5.84547">
        <ele>1154.4</ele>
        <time>2021-10-17T10:40:05Z</time>
      </trkpt>
      <trkpt lat="46.28096" lon="5.84551">
        <ele>1154.2</ele>
        <time>2021-10-17T10:40:06Z</time>
      </trkpt>
      <trkpt lat="46.28103" lon="5.84554">
        <ele>1153.8</ele>
        <time>2021-10-17T10:40:07Z</time>
      </trkpt>
      <trkpt lat="46.28111" lon="5.84557">
        <ele>1153.6</ele>
        <time>2021-10-17T10:40:08Z</time>
      </trkpt>
      <trkpt lat="46.28119" lon="5.84558">
        <ele>1153.2</ele>
        <time>2021-10-17T10:40:09Z</time>
      </trkpt>
      <trkpt lat="46.28127" lon="5.84559">
        <ele>1152.8</ele>
        <time>2021-10-17T10:40:10Z</time>
      </trkpt>
      <trkpt lat="46.28136" lon="5.8456">
        <ele>1152.4</ele>
        <time>2021-10-17T10:40:11Z</time>
      </trkpt>
      <trkpt lat="46.28145" lon="5.84559">
        <ele>1152</ele>
        <time>2021-10-17T10:40:12Z</time>
      </trkpt>
      <trkpt lat="46.28154" lon="5.84559">
        <ele>1151.6</ele>
        <time>2021-10-17T10:40:13Z</time>
      </trkpt>
      <trkpt lat="46.28163" lon="5.8456">
        <ele>1151.4</ele>
        <time>2021-10-17T10:40:14Z</time>
      </trkpt>
      <trkpt lat="46.28172" lon="5.8456">
        <ele>1151</ele>
        <time>2021-10-17T10:40:15Z</time>
      </trkpt>
      <trkpt lat="46.28181" lon="5.84563">
        <ele>1151</ele>
        <time>2021-10-17T10:40:16Z</time>
      </trkpt>
      <trkpt lat="46.2819" lon="5.84566">
        <ele>1151</ele>
        <time>2021-10-17T10:40:17Z</time>
      </trkpt>
      <trkpt lat="46.28198" lon="5.84571">
        <ele>1151</ele>
        <time>2021-10-17T10:40:18Z</time>
      </trkpt>
      <trkpt lat="46.28205" lon="5.84576">
        <ele>1151</ele>
        <time>2021-10-17T10:40:19Z</time>
      </trkpt>
      <trkpt lat="46.28212" lon="5.84582">
        <ele>1151</ele>
        <time>2021-10-17T10:40:20Z</time>
      </trkpt>
      <trkpt lat="46.28217" lon="5.84588">
        <ele>1151.2</ele>
        <time>2021-10-17T10:40:21Z</time>
      </trkpt>
      <trkpt lat="46.28222" lon="5.84595">
        <ele>1151.2</ele>
        <time>2021-10-17T10:40:22Z</time>
      </trkpt>
      <trkpt lat="46.28226" lon="5.84602">
        <ele>1151.6</ele>
        <time>2021-10-17T10:40:23Z</time>
      </trkpt>
      <trkpt lat="46.2823" lon="5.84608">
        <ele>1151.6</ele>
        <time>2021-10-17T10:40:24Z</time>
      </trkpt>
      <trkpt lat="46.28235" lon="5.84614">
        <ele>1152</ele>
        <time>2021-10-17T10:40:25Z</time>
      </trkpt>
      <trkpt lat="46.28239" lon="5.84619">
        <ele>1152.2</ele>
        <time>2021-10-17T10:40:26Z</time>
      </trkpt>
      <trkpt lat="46.28243" lon="5.84624">
        <ele>1152.2</ele>
        <time>2021-10-17T10:40:27Z</time>
      </trkpt>
      <trkpt lat="46.28247" lon="5.84629">
        <ele>1152.6</ele>
        <time>2021-10-17T10:40:28Z</time>
      </trkpt>
      <trkpt lat="46.28251" lon="5.84633">
        <ele>1152.6</ele>
        <time>2021-10-17T10:40:29Z</time>
      </trkpt>
      <trkpt lat="46.28255" lon="5.84636">
        <ele>1152.6</ele>
        <time>2021-10-17T10:40:30Z</time>
      </trkpt>
      <trkpt lat="46.28259" lon="5.8464">
        <ele>1153</ele>
        <time>2021-10-17T10:40:31Z</time>
      </trkpt>
      <trkpt lat="46.28263" lon="5.84643">
        <ele>1153</ele>
        <time>2021-10-17T10:40:32Z</time>
      </trkpt>
      <trkpt lat="46.28267" lon="5.84647">
        <ele>1153.4</ele>
        <time>2021-10-17T10:40:33Z</time>
      </trkpt>
      <trkpt lat="46.28271" lon="5.8465">
        <ele>1153.6</ele>
        <time>2021-10-17T10:40:34Z</time>
      </trkpt>
      <trkpt lat="46.28276" lon="5.84654">
        <ele>1153.8</ele>
        <time>2021-10-17T10:40:35Z</time>
      </trkpt>
      <trkpt lat="46.2828" lon="5.84657">
        <ele>1154</ele>
        <time>2021-10-17T10:40:36Z</time>
      </trkpt>
      <trkpt lat="46.28284" lon="5.8466">
        <ele>1154.4</ele>
        <time>2021-10-17T10:40:37Z</time>
      </trkpt>
      <trkpt lat="46.28289" lon="5.84663">
        <ele>1154.4</ele>
        <time>2021-10-17T10:40:38Z</time>
      </trkpt>
      <trkpt lat="46.28293" lon="5.84665">
        <ele>1154.6</ele>
        <time>2021-10-17T10:40:39Z</time>
      </trkpt>
      <trkpt lat="46.28297" lon="5.84668">
        <ele>1155</ele>
        <time>2021-10-17T10:40:40Z</time>
      </trkpt>
      <trkpt lat="46.28302" lon="5.8467">
        <ele>1155</ele>
        <time>2021-10-17T10:40:41Z</time>
      </trkpt>
      <trkpt lat="46.28306" lon="5.84672">
        <ele>1155.2</ele>
        <time>2021-10-17T10:40:42Z</time>
      </trkpt>
      <trkpt lat="46.2831" lon="5.84674">
        <ele>1155.4</ele>
        <time>2021-10-17T10:40:43Z</time>
      </trkpt>
      <trkpt lat="46.28314" lon="5.84676">
        <ele>1155.4</ele>
        <time>2021-10-17T10:40:44Z</time>
      </trkpt>
      <trkpt lat="46.28318" lon="5.84678">
        <ele>1155.8</ele>
        <time>2021-10-17T10:40:45Z</time>
      </trkpt>
      <trkpt lat="46.28322" lon="5.84679">
        <ele>1155.8</ele>
        <time>2021-10-17T10:40:46Z</time>
      </trkpt>
      <trkpt lat="46.28326" lon="5.8468">
        <ele>1156</ele>
        <time>2021-10-17T10:40:47Z</time>
      </trkpt>
      <trkpt lat="46.2833" lon="5.84682">
        <ele>1156</ele>
        <time>2021-10-17T10:40:48Z</time>
      </trkpt>
      <trkpt lat="46.28334" lon="5.84683">
        <ele>1156</ele>
        <time>2021-10-17T10:40:49Z</time>
      </trkpt>
      <trkpt lat="46.28338" lon="5.84685">
        <ele>1156.4</ele>
        <time>2021-10-17T10:40:50Z</time>
      </trkpt>
      <trkpt lat="46.28341" lon="5.84686">
        <ele>1156.4</ele>
        <time>2021-10-17T10:40:51Z</time>
      </trkpt>
      <trkpt lat="46.28345" lon="5.84688">
        <ele>1156.6</ele>
        <time>2021-10-17T10:40:52Z</time>
      </trkpt>
      <trkpt lat="46.28348" lon="5.84689">
        <ele>1156.8</ele>
        <time>2021-10-17T10:40:53Z</time>
      </trkpt>
      <trkpt lat="46.28352" lon="5.8469">
        <ele>1156.8</ele>
        <time>2021-10-17T10:40:54Z</time>
      </trkpt>
      <trkpt lat="46.28355" lon="5.84691">
        <ele>1157</ele>
        <time>2021-10-17T10:40:55Z</time>
      </trkpt>
      <trkpt lat="46.28359" lon="5.84692">
        <ele>1157</ele>
        <time>2021-10-17T10:40:56Z</time>
      </trkpt>
      <trkpt lat="46.28362" lon="5.84694">
        <ele>1157</ele>
        <time>2021-10-17T10:40:57Z</time>
      </trkpt>
      <trkpt lat="46.28366" lon="5.84695">
        <ele>1157</ele>
        <time>2021-10-17T10:40:58Z</time>
      </trkpt>
      <trkpt lat="46.28369" lon="5.84697">
        <ele>1157</ele>
        <time>2021-10-17T10:40:59Z</time>
      </trkpt>
      <trkpt lat="46.28373" lon="5.84698">
        <ele>1157.4</ele>
        <time>2021-10-17T10:41:00Z</time>
      </trkpt>
      <trkpt lat="46.28376" lon="5.84699">
        <ele>1157.4</ele>
        <time>2021-10-17T10:41:01Z</time>
      </trkpt>
      <trkpt lat="46.2838" lon="5.847">
        <ele>1157.4</ele>
        <time>2021-10-17T10:41:02Z</time>
      </trkpt>
      <trkpt lat="46.28383" lon="5.84701">
        <ele>1157.4</ele>
        <time>2021-10-17T10:41:03Z</time>
      </trkpt>
      <trkpt lat="46.28387" lon="5.84702">
        <ele>1157.4</ele>
        <time>2021-10-17T10:41:04Z</time>
      </trkpt>
      <trkpt lat="46.2839" lon="5.84703">
        <ele>1157.4</ele>
        <time>2021-10-17T10:41:05Z</time>
      </trkpt>
      <trkpt lat="46.28394" lon="5.84705">
        <ele>1157.4</ele>
        <time>2021-10-17T10:41:06Z</time>
      </trkpt>
      <trkpt lat="46.28398" lon="5.84707">
        <ele>1157.4</ele>
        <time>2021-10-17T10:41:07Z</time>
      </trkpt>
      <trkpt lat="46.28402" lon="5.84709">
        <ele>1157.2</ele>
        <time>2021-10-17T10:41:08Z</time>
      </trkpt>
      <trkpt lat="46.28407" lon="5.84712">
        <ele>1157</ele>
        <time>2021-10-17T10:41:09Z</time>
      </trkpt>
      <trkpt lat="46.28411" lon="5.84715">
        <ele>1156.6</ele>
        <time>2021-10-17T10:41:10Z</time>
      </trkpt>
      <trkpt lat="46.28417" lon="5.84718">
        <ele>1156.4</ele>
        <time>2021-10-17T10:41:11Z</time>
      </trkpt>
      <trkpt lat="46.28422" lon="5.8472">
        <ele>1156.2</ele>
        <time>2021-10-17T10:41:12Z</time>
      </trkpt>
      <trkpt lat="46.28428" lon="5.84723">
        <ele>1156</ele>
        <time>2021-10-17T10:41:13Z</time>
      </trkpt>
      <trkpt lat="46.28434" lon="5.84726">
        <ele>1156</ele>
        <time>2021-10-17T10:41:14Z</time>
      </trkpt>
      <trkpt lat="46.28441" lon="5.84729">
        <ele>1155.6</ele>
        <time>2021-10-17T10:41:15Z</time>
      </trkpt>
      <trkpt lat="46.28447" lon="5.84732">
        <ele>1155.4</ele>
        <time>2021-10-17T10:41:16Z</time>
      </trkpt>
      <trkpt lat="46.28453" lon="5.84735">
        <ele>1155.2</ele>
        <time>2021-10-17T10:41:17Z</time>
      </trkpt>
      <trkpt lat="46.2846" lon="5.84738">
        <ele>1155</ele>
        <time>2021-10-17T10:41:18Z</time>
      </trkpt>
      <trkpt lat="46.28466" lon="5.84741">
        <ele>1155</ele>
        <time>2021-10-17T10:41:19Z</time>
      </trkpt>
      <trkpt lat="46.28473" lon="5.84744">
        <ele>1154.8</ele>
        <time>2021-10-17T10:41:20Z</time>
      </trkpt>
      <trkpt lat="46.28479" lon="5.84748">
        <ele>1154.8</ele>
        <time>2021-10-17T10:41:21Z</time>
      </trkpt>
      <trkpt lat="46.28486" lon="5.84751">
        <ele>1154.4</ele>
        <time>2021-10-17T10:41:22Z</time>
      </trkpt>
      <trkpt lat="46.28492" lon="5.84755">
        <ele>1154.4</ele>
        <time>2021-10-17T10:41:23Z</time>
      </trkpt>
      <trkpt lat="46.28499" lon="5.84758">
        <ele>1154</ele>
        <time>2021-10-17T10:41:24Z</time>
      </trkpt>
      <trkpt lat="46.28506" lon="5.84762">
        <ele>1153.8</ele>
        <time>2021-10-17T10:41:25Z</time>
      </trkpt>
      <trkpt lat="46.28513" lon="5.84766">
        <ele>1153.4</ele>
        <time>2021-10-17T10:41:26Z</time>
      </trkpt>
      <trkpt lat="46.28519" lon="5.8477">
        <ele>1153.2</ele>
        <time>2021-10-17T10:41:27Z</time>
      </trkpt>
      <trkpt lat="46.28525" lon="5.84775">
        <ele>1152.8</ele>
        <time>2021-10-17T10:41:28Z</time>
      </trkpt>
      <trkpt lat="46.28531" lon="5.84779">
        <ele>1152.6</ele>
        <time>2021-10-17T10:41:29Z</time>
      </trkpt>
      <trkpt lat="46.28537" lon="5.84782">
        <ele>1152.4</ele>
        <time>2021-10-17T10:41:30Z</time>
      </trkpt>
      <trkpt lat="46.28543" lon="5.84784">
        <ele>1152.4</ele>
        <time>2021-10-17T10:41:31Z</time>
      </trkpt>
      <trkpt lat="46.28548" lon="5.84786">
        <ele>1152</ele>
        <time>2021-10-17T10:41:32Z</time>
      </trkpt>
      <trkpt lat="46.28554" lon="5.84789">
        <ele>1152</ele>
        <time>2021-10-17T10:41:33Z</time>
      </trkpt>
      <trkpt lat="46.28558" lon="5.84792">
        <ele>1151.8</ele>
        <time>2021-10-17T10:41:34Z</time>
      </trkpt>
      <trkpt lat="46.28562" lon="5.84794">
        <ele>1151.8</ele>
        <time>2021-10-17T10:41:35Z</time>
      </trkpt>
      <trkpt lat="46.28566" lon="5.84797">
        <ele>1151.8</ele>
        <time>2021-10-17T10:41:36Z</time>
      </trkpt>
      <trkpt lat="46.28569" lon="5.84797">
        <ele>1151.8</ele>
        <time>2021-10-17T10:41:37Z</time>
      </trkpt>
      <trkpt lat="46.28572" lon="5.84797">
        <ele>1152</ele>
        <time>2021-10-17T10:41:38Z</time>
      </trkpt>
      <trkpt lat="46.28575" lon="5.84796">
        <ele>1152</ele>
        <time>2021-10-17T10:41:39Z</time>
      </trkpt>
      <trkpt lat="46.28577" lon="5.84796">
        <ele>1152</ele>
        <time>2021-10-17T10:41:40Z</time>
      </trkpt>
      <trkpt lat="46.28578" lon="5.84795">
        <ele>1152.2</ele>
        <time>2021-10-17T10:41:41Z</time>
      </trkpt>
      <trkpt lat="46.28578" lon="5.84795">
        <ele>1152.2</ele>
        <time>2021-10-17T10:41:42Z</time>
      </trkpt>
      <trkpt lat="46.28592" lon="5.84809">
        <ele>1154.6</ele>
        <time>2021-10-17T11:56:46Z</time>
      </trkpt>
      <trkpt lat="46.28593" lon="5.84812">
        <ele>1154.6</ele>
        <time>2021-10-17T11:56:47Z</time>
      </trkpt>
      <trkpt lat="46.28594" lon="5.84814">
        <ele>1155</ele>
        <time>2021-10-17T11:56:48Z</time>
      </trkpt>
      <trkpt lat="46.28595" lon="5.84815">
        <ele>1155</ele>
        <time>2021-10-17T11:56:49Z</time>
      </trkpt>
      <trkpt lat="46.28596" lon="5.84816">
        <ele>1155</ele>
        <time>2021-10-17T11:56:50Z</time>
      </trkpt>
      <trkpt lat="46.28597" lon="5.84818">
        <ele>1155</ele>
        <time>2021-10-17T11:56:51Z</time>
      </trkpt>
      <trkpt lat="46.28599" lon="5.84819">
        <ele>1155.2</ele>
        <time>2021-10-17T11:56:52Z</time>
      </trkpt>
      <trkpt lat="46.28601" lon="5.8482">
        <ele>1155.2</ele>
        <time>2021-10-17T11:56:53Z</time>
      </trkpt>
      <trkpt lat="46.28602" lon="5.84821">
        <ele>1155.2</ele>
        <time>2021-10-17T11:56:54Z</time>
      </trkpt>
      <trkpt lat="46.28604" lon="5.84823">
        <ele>1155.4</ele>
        <time>2021-10-17T11:56:55Z</time>
      </trkpt>
      <trkpt lat="46.28605" lon="5.84824">
        <ele>1155.4</ele>
        <time>2021-10-17T11:56:56Z</time>
      </trkpt>
      <trkpt lat="46.28606" lon="5.84825">
        <ele>1155.4</ele>
        <time>2021-10-17T11:56:57Z</time>
      </trkpt>
      <trkpt lat="46.28608" lon="5.84826">
        <ele>1155.6</ele>
        <time>2021-10-17T11:56:58Z</time>
      </trkpt>
      <trkpt lat="46.28609" lon="5.84827">
        <ele>1155.6</ele>
        <time>2021-10-17T11:56:59Z</time>
      </trkpt>
      <trkpt lat="46.2861" lon="5.84829">
        <ele>1155.6</ele>
        <time>2021-10-17T11:57:00Z</time>
      </trkpt>
      <trkpt lat="46.28612" lon="5.84831">
        <ele>1155.8</ele>
        <time>2021-10-17T11:57:01Z</time>
      </trkpt>
      <trkpt lat="46.28614" lon="5.84834">
        <ele>1155.8</ele>
        <time>2021-10-17T11:57:02Z</time>
      </trkpt>
      <trkpt lat="46.28616" lon="5.84837">
        <ele>1156</ele>
        <time>2021-10-17T11:57:03Z</time>
      </trkpt>
      <trkpt lat="46.28618" lon="5.84839">
        <ele>1156</ele>
        <time>2021-10-17T11:57:04Z</time>
      </trkpt>
      <trkpt lat="46.2862" lon="5.8484">
        <ele>1156.4</ele>
        <time>2021-10-17T11:57:05Z</time>
      </trkpt>
      <trkpt lat="46.28622" lon="5.84842">
        <ele>1156.4</ele>
        <time>2021-10-17T11:57:06Z</time>
      </trkpt>
      <trkpt lat="46.28624" lon="5.84844">
        <ele>1156.6</ele>
        <time>2021-10-17T11:57:07Z</time>
      </trkpt>
      <trkpt lat="46.28627" lon="5.84846">
        <ele>1156.6</ele>
        <time>2021-10-17T11:57:08Z</time>
      </trkpt>
      <trkpt lat="46.28629" lon="5.84848">
        <ele>1156.8</ele>
        <time>2021-10-17T11:57:09Z</time>
      </trkpt>
      <trkpt lat="46.28631" lon="5.8485">
        <ele>1156.8</ele>
        <time>2021-10-17T11:57:10Z</time>
      </trkpt>
      <trkpt lat="46.28633" lon="5.84852">
        <ele>1157</ele>
        <time>2021-10-17T11:57:11Z</time>
      </trkpt>
      <trkpt lat="46.28635" lon="5.84854">
        <ele>1157</ele>
        <time>2021-10-17T11:57:12Z</time>
      </trkpt>
      <trkpt lat="46.28637" lon="5.84856">
        <ele>1157.4</ele>
        <time>2021-10-17T11:57:13Z</time>
      </trkpt>
      <trkpt lat="46.28639" lon="5.84859">
        <ele>1157.4</ele>
        <time>2021-10-17T11:57:14Z</time>
      </trkpt>
      <trkpt lat="46.28642" lon="5.84862">
        <ele>1157.6</ele>
        <time>2021-10-17T11:57:15Z</time>
      </trkpt>
      <trkpt lat="46.28644" lon="5.84864">
        <ele>1157.6</ele>
        <time>2021-10-17T11:57:16Z</time>
      </trkpt>
      <trkpt lat="46.28646" lon="5.84867">
        <ele>1157.8</ele>
        <time>2021-10-17T11:57:17Z</time>
      </trkpt>
      <trkpt lat="46.28647" lon="5.8487">
        <ele>1158</ele>
        <time>2021-10-17T11:57:18Z</time>
      </trkpt>
      <trkpt lat="46.28649" lon="5.84872">
        <ele>1158</ele>
        <time>2021-10-17T11:57:19Z</time>
      </trkpt>
      <trkpt lat="46.2865" lon="5.84875">
        <ele>1158.4</ele>
        <time>2021-10-17T11:57:20Z</time>
      </trkpt>
      <trkpt lat="46.28652" lon="5.84877">
        <ele>1158.4</ele>
        <time>2021-10-17T11:57:21Z</time>
      </trkpt>
      <trkpt lat="46.28654" lon="5.84879">
        <ele>1158.4</ele>
        <time>2021-10-17T11:57:22Z</time>
      </trkpt>
      <trkpt lat="46.28656" lon="5.84882">
        <ele>1158.6</ele>
        <time>2021-10-17T11:57:23Z</time>
      </trkpt>
      <trkpt lat="46.28658" lon="5.84885">
        <ele>1158.6</ele>
        <time>2021-10-17T11:57:24Z</time>
      </trkpt>
      <trkpt lat="46.2866" lon="5.84887">
        <ele>1159</ele>
        <time>2021-10-17T11:57:25Z</time>
      </trkpt>
      <trkpt lat="46.28661" lon="5.8489">
        <ele>1159</ele>
        <time>2021-10-17T11:57:26Z</time>
      </trkpt>
      <trkpt lat="46.28663" lon="5.84892">
        <ele>1159</ele>
        <time>2021-10-17T11:57:27Z</time>
      </trkpt>
      <trkpt lat="46.28665" lon="5.84895">
        <ele>1159.2</ele>
        <time>2021-10-17T11:57:28Z</time>
      </trkpt>
      <trkpt lat="46.28667" lon="5.84897">
        <ele>1159.2</ele>
        <time>2021-10-17T11:57:29Z</time>
      </trkpt>
      <trkpt lat="46.28669" lon="5.84899">
        <ele>1159.4</ele>
        <time>2021-10-17T11:57:30Z</time>
      </trkpt>
      <trkpt lat="46.28671" lon="5.84901">
        <ele>1159.4</ele>
        <time>2021-10-17T11:57:31Z</time>
      </trkpt>
      <trkpt lat="46.28673" lon="5.84904">
        <ele>1159.8</ele>
        <time>2021-10-17T11:57:32Z</time>
      </trkpt>
      <trkpt lat="46.28675" lon="5.84906">
        <ele>1159.8</ele>
        <time>2021-10-17T11:57:33Z</time>
      </trkpt>
      <trkpt lat="46.28677" lon="5.84908">
        <ele>1160</ele>
        <time>2021-10-17T11:57:34Z</time>
      </trkpt>
      <trkpt lat="46.28679" lon="5.84911">
        <ele>1160</ele>
        <time>2021-10-17T11:57:35Z</time>
      </trkpt>
      <trkpt lat="46.28681" lon="5.84913">
        <ele>1160.2</ele>
        <time>2021-10-17T11:57:36Z</time>
      </trkpt>
      <trkpt lat="46.28683" lon="5.84916">
        <ele>1160.2</ele>
        <time>2021-10-17T11:57:37Z</time>
      </trkpt>
      <trkpt lat="46.28685" lon="5.84918">
        <ele>1160.4</ele>
        <time>2021-10-17T11:57:38Z</time>
      </trkpt>
      <trkpt lat="46.28688" lon="5.8492">
        <ele>1160.4</ele>
        <time>2021-10-17T11:57:39Z</time>
      </trkpt>
      <trkpt lat="46.2869" lon="5.84922">
        <ele>1160.8</ele>
        <time>2021-10-17T11:57:40Z</time>
      </trkpt>
      <trkpt lat="46.28693" lon="5.84925">
        <ele>1160.8</ele>
        <time>2021-10-17T11:57:41Z</time>
      </trkpt>
      <trkpt lat="46.28695" lon="5.84927">
        <ele>1161</ele>
        <time>2021-10-17T11:57:42Z</time>
      </trkpt>
      <trkpt lat="46.28698" lon="5.8493">
        <ele>1161</ele>
        <time>2021-10-17T11:57:43Z</time>
      </trkpt>
      <trkpt lat="46.28701" lon="5.84933">
        <ele>1161.4</ele>
        <time>2021-10-17T11:57:44Z</time>
      </trkpt>
      <trkpt lat="46.28703" lon="5.84935">
        <ele>1161.4</ele>
        <time>2021-10-17T11:57:45Z</time>
      </trkpt>
      <trkpt lat="46.28706" lon="5.84938">
        <ele>1161.8</ele>
        <time>2021-10-17T11:57:46Z</time>
      </trkpt>
      <trkpt lat="46.28709" lon="5.84941">
        <ele>1161.8</ele>
        <time>2021-10-17T11:57:47Z</time>
      </trkpt>
      <trkpt lat="46.28711" lon="5.84944">
        <ele>1162</ele>
        <time>2021-10-17T11:57:48Z</time>
      </trkpt>
      <trkpt lat="46.28714" lon="5.84947">
        <ele>1162</ele>
        <time>2021-10-17T11:57:49Z</time>
      </trkpt>
      <trkpt lat="46.28716" lon="5.84949">
        <ele>1162.4</ele>
        <time>2021-10-17T11:57:50Z</time>
      </trkpt>
      <trkpt lat="46.28719" lon="5.84952">
        <ele>1162.4</ele>
        <time>2021-10-17T11:57:51Z</time>
      </trkpt>
      <trkpt lat="46.28721" lon="5.84955">
        <ele>1162.6</ele>
        <time>2021-10-17T11:57:52Z</time>
      </trkpt>
      <trkpt lat="46.28724" lon="5.84958">
        <ele>1162.6</ele>
        <time>2021-10-17T11:57:53Z</time>
      </trkpt>
      <trkpt lat="46.28727" lon="5.8496">
        <ele>1162.6</ele>
        <time>2021-10-17T11:57:54Z</time>
      </trkpt>
      <trkpt lat="46.2873" lon="5.84963">
        <ele>1163</ele>
        <time>2021-10-17T11:57:55Z</time>
      </trkpt>
      <trkpt lat="46.28732" lon="5.84966">
        <ele>1163</ele>
        <time>2021-10-17T11:57:56Z</time>
      </trkpt>
      <trkpt lat="46.28735" lon="5.84968">
        <ele>1163.2</ele>
        <time>2021-10-17T11:57:57Z</time>
      </trkpt>
      <trkpt lat="46.28738" lon="5.84971">
        <ele>1163.2</ele>
        <time>2021-10-17T11:57:58Z</time>
      </trkpt>
      <trkpt lat="46.28741" lon="5.84974">
        <ele>1163.4</ele>
        <time>2021-10-17T11:57:59Z</time>
      </trkpt>
      <trkpt lat="46.28743" lon="5.84976">
        <ele>1163.4</ele>
        <time>2021-10-17T11:58:00Z</time>
      </trkpt>
      <trkpt lat="46.28746" lon="5.84979">
        <ele>1163.8</ele>
        <time>2021-10-17T11:58:01Z</time>
      </trkpt>
      <trkpt lat="46.28749" lon="5.84982">
        <ele>1163.8</ele>
        <time>2021-10-17T11:58:02Z</time>
      </trkpt>
      <trkpt lat="46.28751" lon="5.84984">
        <ele>1163.8</ele>
        <time>2021-10-17T11:58:03Z</time>
      </trkpt>
      <trkpt lat="46.28753" lon="5.84987">
        <ele>1164</ele>
        <time>2021-10-17T11:58:04Z</time>
      </trkpt>
      <trkpt lat="46.28756" lon="5.8499">
        <ele>1164</ele>
        <time>2021-10-17T11:58:05Z</time>
      </trkpt>
      <trkpt lat="46.28758" lon="5.84993">
        <ele>1164.4</ele>
        <time>2021-10-17T11:58:06Z</time>
      </trkpt>
      <trkpt lat="46.28761" lon="5.84996">
        <ele>1164.4</ele>
        <time>2021-10-17T11:58:07Z</time>
      </trkpt>
      <trkpt lat="46.28764" lon="5.84998">
        <ele>1164.6</ele>
        <time>2021-10-17T11:58:08Z</time>
      </trkpt>
      <trkpt lat="46.28766" lon="5.85001">
        <ele>1164.6</ele>
        <time>2021-10-17T11:58:09Z</time>
      </trkpt>
      <trkpt lat="46.28769" lon="5.85004">
        <ele>1164.8</ele>
        <time>2021-10-17T11:58:10Z</time>
      </trkpt>
      <trkpt lat="46.28771" lon="5.85007">
        <ele>1164.8</ele>
        <time>2021-10-17T11:58:11Z</time>
      </trkpt>
      <trkpt lat="46.28774" lon="5.85011">
        <ele>1165</ele>
        <time>2021-10-17T11:58:12Z</time>
      </trkpt>
      <trkpt lat="46.28776" lon="5.85014">
        <ele>1165</ele>
        <time>2021-10-17T11:58:13Z</time>
      </trkpt>
      <trkpt lat="46.28779" lon="5.85017">
        <ele>1165</ele>
        <time>2021-10-17T11:58:14Z</time>
      </trkpt>
      <trkpt lat="46.28781" lon="5.8502">
        <ele>1165.2</ele>
        <time>2021-10-17T11:58:15Z</time>
      </trkpt>
      <trkpt lat="46.28783" lon="5.85024">
        <ele>1165.2</ele>
        <time>2021-10-17T11:58:16Z</time>
      </trkpt>
      <trkpt lat="46.28786" lon="5.85028">
        <ele>1165.2</ele>
        <time>2021-10-17T11:58:17Z</time>
      </trkpt>
      <trkpt lat="46.2879" lon="5.85031">
        <ele>1165.6</ele>
        <time>2021-10-17T11:58:18Z</time>
      </trkpt>
      <trkpt lat="46.28793" lon="5.85035">
        <ele>1165.6</ele>
        <time>2021-10-17T11:58:19Z</time>
      </trkpt>
      <trkpt lat="46.28796" lon="5.8504">
        <ele>1165.6</ele>
        <time>2021-10-17T11:58:20Z</time>
      </trkpt>
      <trkpt lat="46.28798" lon="5.85045">
        <ele>1165.6</ele>
        <time>2021-10-17T11:58:21Z</time>
      </trkpt>
      <trkpt lat="46.28801" lon="5.85051">
        <ele>1165.6</ele>
        <time>2021-10-17T11:58:22Z</time>
      </trkpt>
      <trkpt lat="46.28803" lon="5.85057">
        <ele>1165.6</ele>
        <time>2021-10-17T11:58:23Z</time>
      </trkpt>
      <trkpt lat="46.28805" lon="5.85064">
        <ele>1165.6</ele>
        <time>2021-10-17T11:58:24Z</time>
      </trkpt>
      <trkpt lat="46.28808" lon="5.85071">
        <ele>1165.6</ele>
        <time>2021-10-17T11:58:25Z</time>
      </trkpt>
      <trkpt lat="46.28811" lon="5.85078">
        <ele>1165.2</ele>
        <time>2021-10-17T11:58:26Z</time>
      </trkpt>
      <trkpt lat="46.28814" lon="5.85085">
        <ele>1165.2</ele>
        <time>2021-10-17T11:58:27Z</time>
      </trkpt>
      <trkpt lat="46.28818" lon="5.85092">
        <ele>1165</ele>
        <time>2021-10-17T11:58:28Z</time>
      </trkpt>
      <trkpt lat="46.28821" lon="5.85099">
        <ele>1165</ele>
        <time>2021-10-17T11:58:29Z</time>
      </trkpt>
      <trkpt lat="46.28825" lon="5.85105">
        <ele>1165</ele>
        <time>2021-10-17T11:58:30Z</time>
      </trkpt>
      <trkpt lat="46.2883" lon="5.85111">
        <ele>1165</ele>
        <time>2021-10-17T11:58:31Z</time>
      </trkpt>
      <trkpt lat="46.28835" lon="5.85116">
        <ele>1164.8</ele>
        <time>2021-10-17T11:58:32Z</time>
      </trkpt>
      <trkpt lat="46.2884" lon="5.8512">
        <ele>1164.8</ele>
        <time>2021-10-17T11:58:33Z</time>
      </trkpt>
      <trkpt lat="46.28845" lon="5.85124">
        <ele>1164.6</ele>
        <time>2021-10-17T11:58:34Z</time>
      </trkpt>
      <trkpt lat="46.2885" lon="5.85128">
        <ele>1164.6</ele>
        <time>2021-10-17T11:58:35Z</time>
      </trkpt>
      <trkpt lat="46.28856" lon="5.85132">
        <ele>1164.4</ele>
        <time>2021-10-17T11:58:36Z</time>
      </trkpt>
      <trkpt lat="46.28861" lon="5.85135">
        <ele>1164.4</ele>
        <time>2021-10-17T11:58:37Z</time>
      </trkpt>
      <trkpt lat="46.28867" lon="5.85139">
        <ele>1164.4</ele>
        <time>2021-10-17T11:58:38Z</time>
      </trkpt>
      <trkpt lat="46.28873" lon="5.85142">
        <ele>1164</ele>
        <time>2021-10-17T11:58:39Z</time>
      </trkpt>
      <trkpt lat="46.28879" lon="5.85145">
        <ele>1164</ele>
        <time>2021-10-17T11:58:40Z</time>
      </trkpt>
      <trkpt lat="46.28885" lon="5.85148">
        <ele>1164</ele>
        <time>2021-10-17T11:58:41Z</time>
      </trkpt>
      <trkpt lat="46.28891" lon="5.8515">
        <ele>1164</ele>
        <time>2021-10-17T11:58:42Z</time>
      </trkpt>
      <trkpt lat="46.28898" lon="5.85152">
        <ele>1163.8</ele>
        <time>2021-10-17T11:58:43Z</time>
      </trkpt>
      <trkpt lat="46.28905" lon="5.85154">
        <ele>1163.8</ele>
        <time>2021-10-17T11:58:44Z</time>
      </trkpt>
      <trkpt lat="46.28912" lon="5.85156">
        <ele>1163.8</ele>
        <time>2021-10-17T11:58:45Z</time>
      </trkpt>
      <trkpt lat="46.28918" lon="5.85158">
        <ele>1163.6</ele>
        <time>2021-10-17T11:58:46Z</time>
      </trkpt>
      <trkpt lat="46.28925" lon="5.85159">
        <ele>1163.6</ele>
        <time>2021-10-17T11:58:47Z</time>
      </trkpt>
      <trkpt lat="46.28933" lon="5.85161">
        <ele>1163.6</ele>
        <time>2021-10-17T11:58:48Z</time>
      </trkpt>
      <trkpt lat="46.2894" lon="5.85163">
        <ele>1163.2</ele>
        <time>2021-10-17T11:58:49Z</time>
      </trkpt>
      <trkpt lat="46.28947" lon="5.85165">
        <ele>1163.2</ele>
        <time>2021-10-17T11:58:50Z</time>
      </trkpt>
      <trkpt lat="46.28954" lon="5.85166">
        <ele>1163</ele>
        <time>2021-10-17T11:58:51Z</time>
      </trkpt>
      <trkpt lat="46.28962" lon="5.85168">
        <ele>1163</ele>
        <time>2021-10-17T11:58:52Z</time>
      </trkpt>
      <trkpt lat="46.28969" lon="5.85169">
        <ele>1163</ele>
        <time>2021-10-17T11:58:53Z</time>
      </trkpt>
      <trkpt lat="46.28976" lon="5.85171">
        <ele>1162.4</ele>
        <time>2021-10-17T11:58:54Z</time>
      </trkpt>
      <trkpt lat="46.28983" lon="5.85172">
        <ele>1162.4</ele>
        <time>2021-10-17T11:58:55Z</time>
      </trkpt>
      <trkpt lat="46.2899" lon="5.85173">
        <ele>1162.4</ele>
        <time>2021-10-17T11:58:56Z</time>
      </trkpt>
      <trkpt lat="46.28997" lon="5.85174">
        <ele>1162.2</ele>
        <time>2021-10-17T11:58:57Z</time>
      </trkpt>
      <trkpt lat="46.29003" lon="5.85175">
        <ele>1162.2</ele>
        <time>2021-10-17T11:58:58Z</time>
      </trkpt>
      <trkpt lat="46.2901" lon="5.85176">
        <ele>1162</ele>
        <time>2021-10-17T11:58:59Z</time>
      </trkpt>
      <trkpt lat="46.29017" lon="5.85176">
        <ele>1162</ele>
        <time>2021-10-17T11:59:00Z</time>
      </trkpt>
      <trkpt lat="46.29024" lon="5.85177">
        <ele>1161.6</ele>
        <time>2021-10-17T11:59:01Z</time>
      </trkpt>
      <trkpt lat="46.29031" lon="5.85177">
        <ele>1161.6</ele>
        <time>2021-10-17T11:59:02Z</time>
      </trkpt>
      <trkpt lat="46.29038" lon="5.85177">
        <ele>1161.6</ele>
        <time>2021-10-17T11:59:03Z</time>
      </trkpt>
      <trkpt lat="46.29045" lon="5.85178">
        <ele>1161.6</ele>
        <time>2021-10-17T11:59:04Z</time>
      </trkpt>
      <trkpt lat="46.29052" lon="5.85178">
        <ele>1161.6</ele>
        <time>2021-10-17T11:59:05Z</time>
      </trkpt>
      <trkpt lat="46.29059" lon="5.85179">
        <ele>1161.6</ele>
        <time>2021-10-17T11:59:06Z</time>
      </trkpt>
      <trkpt lat="46.29067" lon="5.85179">
        <ele>1161.4</ele>
        <time>2021-10-17T11:59:07Z</time>
      </trkpt>
      <trkpt lat="46.29074" lon="5.8518">
        <ele>1161.4</ele>
        <time>2021-10-17T11:59:08Z</time>
      </trkpt>
      <trkpt lat="46.29081" lon="5.8518">
        <ele>1161.2</ele>
        <time>2021-10-17T11:59:09Z</time>
      </trkpt>
      <trkpt lat="46.29088" lon="5.85181">
        <ele>1161.2</ele>
        <time>2021-10-17T11:59:10Z</time>
      </trkpt>
      <trkpt lat="46.29096" lon="5.85183">
        <ele>1161.2</ele>
        <time>2021-10-17T11:59:11Z</time>
      </trkpt>
      <trkpt lat="46.29103" lon="5.85185">
        <ele>1160.8</ele>
        <time>2021-10-17T11:59:12Z</time>
      </trkpt>
      <trkpt lat="46.2911" lon="5.85188">
        <ele>1160.8</ele>
        <time>2021-10-17T11:59:13Z</time>
      </trkpt>
      <trkpt lat="46.29117" lon="5.85191">
        <ele>1160.8</ele>
        <time>2021-10-17T11:59:14Z</time>
      </trkpt>
      <trkpt lat="46.29124" lon="5.85195">
        <ele>1160.8</ele>
        <time>2021-10-17T11:59:15Z</time>
      </trkpt>
      <trkpt lat="46.29131" lon="5.85198">
        <ele>1160.8</ele>
        <time>2021-10-17T11:59:16Z</time>
      </trkpt>
      <trkpt lat="46.29137" lon="5.85202">
        <ele>1160.8</ele>
        <time>2021-10-17T11:59:17Z</time>
      </trkpt>
      <trkpt lat="46.29144" lon="5.85206">
        <ele>1160.8</ele>
        <time>2021-10-17T11:59:18Z</time>
      </trkpt>
      <trkpt lat="46.29152" lon="5.85211">
        <ele>1160.8</ele>
        <time>2021-10-17T11:59:19Z</time>
      </trkpt>
      <trkpt lat="46.29159" lon="5.85215">
        <ele>1160.8</ele>
        <time>2021-10-17T11:59:20Z</time>
      </trkpt>
      <trkpt lat="46.29166" lon="5.85219">
        <ele>1160.6</ele>
        <time>2021-10-17T11:59:21Z</time>
      </trkpt>
      <trkpt lat="46.29173" lon="5.85224">
        <ele>1160.6</ele>
        <time>2021-10-17T11:59:22Z</time>
      </trkpt>
      <trkpt lat="46.2918" lon="5.85229">
        <ele>1160.6</ele>
        <time>2021-10-17T11:59:23Z</time>
      </trkpt>
      <trkpt lat="46.29188" lon="5.85233">
        <ele>1160.6</ele>
        <time>2021-10-17T11:59:24Z</time>
      </trkpt>
      <trkpt lat="46.29195" lon="5.85238">
        <ele>1160.2</ele>
        <time>2021-10-17T11:59:25Z</time>
      </trkpt>
      <trkpt lat="46.29202" lon="5.85242">
        <ele>1160.2</ele>
        <time>2021-10-17T11:59:26Z</time>
      </trkpt>
      <trkpt lat="46.29209" lon="5.85247">
        <ele>1160.2</ele>
        <time>2021-10-17T11:59:27Z</time>
      </trkpt>
      <trkpt lat="46.29216" lon="5.85252">
        <ele>1160.2</ele>
        <time>2021-10-17T11:59:28Z</time>
      </trkpt>
      <trkpt lat="46.29223" lon="5.85257">
        <ele>1160.2</ele>
        <time>2021-10-17T11:59:29Z</time>
      </trkpt>
      <trkpt lat="46.2923" lon="5.85263">
        <ele>1160.2</ele>
        <time>2021-10-17T11:59:30Z</time>
      </trkpt>
      <trkpt lat="46.29236" lon="5.85269">
        <ele>1160.2</ele>
        <time>2021-10-17T11:59:31Z</time>
      </trkpt>
      <trkpt lat="46.29242" lon="5.85275">
        <ele>1160.6</ele>
        <time>2021-10-17T11:59:32Z</time>
      </trkpt>
      <trkpt lat="46.29248" lon="5.85281">
        <ele>1160.6</ele>
        <time>2021-10-17T11:59:33Z</time>
      </trkpt>
      <trkpt lat="46.29254" lon="5.85287">
        <ele>1160.8</ele>
        <time>2021-10-17T11:59:34Z</time>
      </trkpt>
      <trkpt lat="46.2926" lon="5.85293">
        <ele>1160.8</ele>
        <time>2021-10-17T11:59:35Z</time>
      </trkpt>
      <trkpt lat="46.29265" lon="5.85298">
        <ele>1160.8</ele>
        <time>2021-10-17T11:59:36Z</time>
      </trkpt>
      <trkpt lat="46.2927" lon="5.85304">
        <ele>1161.2</ele>
        <time>2021-10-17T11:59:37Z</time>
      </trkpt>
      <trkpt lat="46.29275" lon="5.8531">
        <ele>1161.2</ele>
        <time>2021-10-17T11:59:38Z</time>
      </trkpt>
      <trkpt lat="46.29281" lon="5.85316">
        <ele>1161.2</ele>
        <time>2021-10-17T11:59:39Z</time>
      </trkpt>
      <trkpt lat="46.29286" lon="5.85321">
        <ele>1161.2</ele>
        <time>2021-10-17T11:59:40Z</time>
      </trkpt>
      <trkpt lat="46.29291" lon="5.85327">
        <ele>1161.2</ele>
        <time>2021-10-17T11:59:41Z</time>
      </trkpt>
      <trkpt lat="46.29297" lon="5.85332">
        <ele>1161.2</ele>
        <time>2021-10-17T11:59:42Z</time>
      </trkpt>
      <trkpt lat="46.29303" lon="5.85337">
        <ele>1161.2</ele>
        <time>2021-10-17T11:59:43Z</time>
      </trkpt>
      <trkpt lat="46.29309" lon="5.85342">
        <ele>1161.4</ele>
        <time>2021-10-17T11:59:44Z</time>
      </trkpt>
      <trkpt lat="46.29315" lon="5.85346">
        <ele>1161.4</ele>
        <time>2021-10-17T11:59:45Z</time>
      </trkpt>
      <trkpt lat="46.29321" lon="5.85351">
        <ele>1161.6</ele>
        <time>2021-10-17T11:59:46Z</time>
      </trkpt>
      <trkpt lat="46.29327" lon="5.85356">
        <ele>1161.6</ele>
        <time>2021-10-17T11:59:47Z</time>
      </trkpt>
      <trkpt lat="46.29333" lon="5.8536">
        <ele>1162</ele>
        <time>2021-10-17T11:59:48Z</time>
      </trkpt>
      <trkpt lat="46.29339" lon="5.85363">
        <ele>1162</ele>
        <time>2021-10-17T11:59:49Z</time>
      </trkpt>
      <trkpt lat="46.29345" lon="5.85366">
        <ele>1162.2</ele>
        <time>2021-10-17T11:59:50Z</time>
      </trkpt>
      <trkpt lat="46.29352" lon="5.85369">
        <ele>1162.2</ele>
        <time>2021-10-17T11:59:51Z</time>
      </trkpt>
      <trkpt lat="46.29358" lon="5.85372">
        <ele>1162.6</ele>
        <time>2021-10-17T11:59:52Z</time>
      </trkpt>
      <trkpt lat="46.29364" lon="5.85375">
        <ele>1162.6</ele>
        <time>2021-10-17T11:59:53Z</time>
      </trkpt>
      <trkpt lat="46.29371" lon="5.85378">
        <ele>1162.6</ele>
        <time>2021-10-17T11:59:54Z</time>
      </trkpt>
      <trkpt lat="46.29377" lon="5.8538">
        <ele>1162.8</ele>
        <time>2021-10-17T11:59:55Z</time>
      </trkpt>
      <trkpt lat="46.29384" lon="5.85383">
        <ele>1162.8</ele>
        <time>2021-10-17T11:59:56Z</time>
      </trkpt>
      <trkpt lat="46.2939" lon="5.85386">
        <ele>1163</ele>
        <time>2021-10-17T11:59:57Z</time>
      </trkpt>
      <trkpt lat="46.29396" lon="5.8539">
        <ele>1163</ele>
        <time>2021-10-17T11:59:58Z</time>
      </trkpt>
      <trkpt lat="46.29403" lon="5.85393">
        <ele>1163.2</ele>
        <time>2021-10-17T11:59:59Z</time>
      </trkpt>
      <trkpt lat="46.29409" lon="5.85397">
        <ele>1163.2</ele>
        <time>2021-10-17T12:00:00Z</time>
      </trkpt>
      <trkpt lat="46.29415" lon="5.85401">
        <ele>1163.2</ele>
        <time>2021-10-17T12:00:01Z</time>
      </trkpt>
      <trkpt lat="46.29421" lon="5.85405">
        <ele>1163.2</ele>
        <time>2021-10-17T12:00:02Z</time>
      </trkpt>
      <trkpt lat="46.29426" lon="5.8541">
        <ele>1163.6</ele>
        <time>2021-10-17T12:00:03Z</time>
      </trkpt>
      <trkpt lat="46.29432" lon="5.85415">
        <ele>1163.6</ele>
        <time>2021-10-17T12:00:04Z</time>
      </trkpt>
      <trkpt lat="46.29437" lon="5.85421">
        <ele>1163.6</ele>
        <time>2021-10-17T12:00:05Z</time>
      </trkpt>
      <trkpt lat="46.29442" lon="5.85426">
        <ele>1163.6</ele>
        <time>2021-10-17T12:00:06Z</time>
      </trkpt>
      <trkpt lat="46.29447" lon="5.85431">
        <ele>1163.6</ele>
        <time>2021-10-17T12:00:07Z</time>
      </trkpt>
      <trkpt lat="46.29453" lon="5.85437">
        <ele>1163.8</ele>
        <time>2021-10-17T12:00:08Z</time>
      </trkpt>
      <trkpt lat="46.29458" lon="5.85442">
        <ele>1163.8</ele>
        <time>2021-10-17T12:00:09Z</time>
      </trkpt>
      <trkpt lat="46.29464" lon="5.85447">
        <ele>1163.8</ele>
        <time>2021-10-17T12:00:10Z</time>
      </trkpt>
      <trkpt lat="46.2947" lon="5.85452">
        <ele>1163.8</ele>
        <time>2021-10-17T12:00:11Z</time>
      </trkpt>
      <trkpt lat="46.29475" lon="5.85457">
        <ele>1163.8</ele>
        <time>2021-10-17T12:00:12Z</time>
      </trkpt>
      <trkpt lat="46.29481" lon="5.85463">
        <ele>1164</ele>
        <time>2021-10-17T12:00:13Z</time>
      </trkpt>
      <trkpt lat="46.29487" lon="5.85468">
        <ele>1164</ele>
        <time>2021-10-17T12:00:14Z</time>
      </trkpt>
      <trkpt lat="46.29492" lon="5.85473">
        <ele>1164.2</ele>
        <time>2021-10-17T12:00:15Z</time>
      </trkpt>
      <trkpt lat="46.29498" lon="5.85478">
        <ele>1164.2</ele>
        <time>2021-10-17T12:00:16Z</time>
      </trkpt>
      <trkpt lat="46.29503" lon="5.85484">
        <ele>1164.2</ele>
        <time>2021-10-17T12:00:17Z</time>
      </trkpt>
      <trkpt lat="46.29508" lon="5.85489">
        <ele>1164.4</ele>
        <time>2021-10-17T12:00:18Z</time>
      </trkpt>
      <trkpt lat="46.29514" lon="5.85495">
        <ele>1164.4</ele>
        <time>2021-10-17T12:00:19Z</time>
      </trkpt>
      <trkpt lat="46.29519" lon="5.855">
        <ele>1164.6</ele>
        <time>2021-10-17T12:00:20Z</time>
      </trkpt>
      <trkpt lat="46.29524" lon="5.85506">
        <ele>1164.6</ele>
        <time>2021-10-17T12:00:21Z</time>
      </trkpt>
      <trkpt lat="46.2953" lon="5.85511">
        <ele>1164.6</ele>
        <time>2021-10-17T12:00:22Z</time>
      </trkpt>
      <trkpt lat="46.29535" lon="5.85516">
        <ele>1165</ele>
        <time>2021-10-17T12:00:23Z</time>
      </trkpt>
      <trkpt lat="46.2954" lon="5.85521">
        <ele>1165</ele>
        <time>2021-10-17T12:00:24Z</time>
      </trkpt>
      <trkpt lat="46.29545" lon="5.85526">
        <ele>1165.2</ele>
        <time>2021-10-17T12:00:25Z</time>
      </trkpt>
      <trkpt lat="46.2955" lon="5.85531">
        <ele>1165.2</ele>
        <time>2021-10-17T12:00:26Z</time>
      </trkpt>
      <trkpt lat="46.29555" lon="5.85536">
        <ele>1165.2</ele>
        <time>2021-10-17T12:00:27Z</time>
      </trkpt>
      <trkpt lat="46.29561" lon="5.85541">
        <ele>1165.2</ele>
        <time>2021-10-17T12:00:28Z</time>
      </trkpt>
      <trkpt lat="46.29566" lon="5.85547">
        <ele>1165.2</ele>
        <time>2021-10-17T12:00:29Z</time>
      </trkpt>
      <trkpt lat="46.29572" lon="5.85551">
        <ele>1165.2</ele>
        <time>2021-10-17T12:00:30Z</time>
      </trkpt>
      <trkpt lat="46.29578" lon="5.85556">
        <ele>1164.8</ele>
        <time>2021-10-17T12:00:31Z</time>
      </trkpt>
      <trkpt lat="46.29585" lon="5.85561">
        <ele>1164.8</ele>
        <time>2021-10-17T12:00:32Z</time>
      </trkpt>
      <trkpt lat="46.29592" lon="5.85565">
        <ele>1164.4</ele>
        <time>2021-10-17T12:00:33Z</time>
      </trkpt>
      <trkpt lat="46.29599" lon="5.85568">
        <ele>1164.4</ele>
        <time>2021-10-17T12:00:34Z</time>
      </trkpt>
      <trkpt lat="46.29606" lon="5.8557">
        <ele>1164</ele>
        <time>2021-10-17T12:00:35Z</time>
      </trkpt>
      <trkpt lat="46.29614" lon="5.85572">
        <ele>1163.8</ele>
        <time>2021-10-17T12:00:36Z</time>
      </trkpt>
      <trkpt lat="46.29622" lon="5.85574">
        <ele>1163.8</ele>
        <time>2021-10-17T12:00:37Z</time>
      </trkpt>
      <trkpt lat="46.2963" lon="5.85576">
        <ele>1163.4</ele>
        <time>2021-10-17T12:00:38Z</time>
      </trkpt>
      <trkpt lat="46.29639" lon="5.85578">
        <ele>1163</ele>
        <time>2021-10-17T12:00:39Z</time>
      </trkpt>
      <trkpt lat="46.29647" lon="5.8558">
        <ele>1162.8</ele>
        <time>2021-10-17T12:00:40Z</time>
      </trkpt>
      <trkpt lat="46.29656" lon="5.85581">
        <ele>1162.6</ele>
        <time>2021-10-17T12:00:41Z</time>
      </trkpt>
      <trkpt lat="46.29664" lon="5.85584">
        <ele>1162.2</ele>
        <time>2021-10-17T12:00:42Z</time>
      </trkpt>
      <trkpt lat="46.29673" lon="5.85586">
        <ele>1162</ele>
        <time>2021-10-17T12:00:43Z</time>
      </trkpt>
      <trkpt lat="46.29681" lon="5.85589">
        <ele>1161.8</ele>
        <time>2021-10-17T12:00:44Z</time>
      </trkpt>
      <trkpt lat="46.2969" lon="5.85592">
        <ele>1161.8</ele>
        <time>2021-10-17T12:00:45Z</time>
      </trkpt>
      <trkpt lat="46.29698" lon="5.85596">
        <ele>1161.4</ele>
        <time>2021-10-17T12:00:46Z</time>
      </trkpt>
      <trkpt lat="46.29706" lon="5.85599">
        <ele>1161</ele>
        <time>2021-10-17T12:00:47Z</time>
      </trkpt>
      <trkpt lat="46.29715" lon="5.85603">
        <ele>1160.6</ele>
        <time>2021-10-17T12:00:48Z</time>
      </trkpt>
      <trkpt lat="46.29723" lon="5.85608">
        <ele>1160.2</ele>
        <time>2021-10-17T12:00:49Z</time>
      </trkpt>
      <trkpt lat="46.29732" lon="5.85612">
        <ele>1160</ele>
        <time>2021-10-17T12:00:50Z</time>
      </trkpt>
      <trkpt lat="46.2974" lon="5.85616">
        <ele>1159.6</ele>
        <time>2021-10-17T12:00:51Z</time>
      </trkpt>
      <trkpt lat="46.29749" lon="5.85621">
        <ele>1159.2</ele>
        <time>2021-10-17T12:00:52Z</time>
      </trkpt>
      <trkpt lat="46.29757" lon="5.85626">
        <ele>1158.8</ele>
        <time>2021-10-17T12:00:53Z</time>
      </trkpt>
      <trkpt lat="46.29765" lon="5.8563">
        <ele>1158.4</ele>
        <time>2021-10-17T12:00:54Z</time>
      </trkpt>
      <trkpt lat="46.29774" lon="5.85635">
        <ele>1158</ele>
        <time>2021-10-17T12:00:55Z</time>
      </trkpt>
      <trkpt lat="46.29782" lon="5.8564">
        <ele>1157.6</ele>
        <time>2021-10-17T12:00:56Z</time>
      </trkpt>
      <trkpt lat="46.29791" lon="5.85646">
        <ele>1157.4</ele>
        <time>2021-10-17T12:00:57Z</time>
      </trkpt>
      <trkpt lat="46.29799" lon="5.85651">
        <ele>1157.4</ele>
        <time>2021-10-17T12:00:58Z</time>
      </trkpt>
      <trkpt lat="46.29806" lon="5.85657">
        <ele>1156.8</ele>
        <time>2021-10-17T12:00:59Z</time>
      </trkpt>
      <trkpt lat="46.29812" lon="5.85664">
        <ele>1156.4</ele>
        <time>2021-10-17T12:01:00Z</time>
      </trkpt>
      <trkpt lat="46.29817" lon="5.85672">
        <ele>1156.2</ele>
        <time>2021-10-17T12:01:01Z</time>
      </trkpt>
      <trkpt lat="46.29821" lon="5.85681">
        <ele>1156.2</ele>
        <time>2021-10-17T12:01:02Z</time>
      </trkpt>
      <trkpt lat="46.29824" lon="5.85689">
        <ele>1156.2</ele>
        <time>2021-10-17T12:01:03Z</time>
      </trkpt>
      <trkpt lat="46.29826" lon="5.85698">
        <ele>1156.2</ele>
        <time>2021-10-17T12:01:04Z</time>
      </trkpt>
      <trkpt lat="46.29826" lon="5.85707">
        <ele>1156.6</ele>
        <time>2021-10-17T12:01:05Z</time>
      </trkpt>
      <trkpt lat="46.29827" lon="5.85716">
        <ele>1156.8</ele>
        <time>2021-10-17T12:01:06Z</time>
      </trkpt>
      <trkpt lat="46.29827" lon="5.85724">
        <ele>1157</ele>
        <time>2021-10-17T12:01:07Z</time>
      </trkpt>
      <trkpt lat="46.29826" lon="5.85731">
        <ele>1157</ele>
        <time>2021-10-17T12:01:08Z</time>
      </trkpt>
      <trkpt lat="46.29825" lon="5.85738">
        <ele>1157.4</ele>
        <time>2021-10-17T12:01:09Z</time>
      </trkpt>
      <trkpt lat="46.29825" lon="5.85745">
        <ele>1157.8</ele>
        <time>2021-10-17T12:01:10Z</time>
      </trkpt>
      <trkpt lat="46.29824" lon="5.85752">
        <ele>1158.2</ele>
        <time>2021-10-17T12:01:11Z</time>
      </trkpt>
      <trkpt lat="46.29824" lon="5.85758">
        <ele>1158.4</ele>
        <time>2021-10-17T12:01:12Z</time>
      </trkpt>
      <trkpt lat="46.29824" lon="5.85765">
        <ele>1158.8</ele>
        <time>2021-10-17T12:01:13Z</time>
      </trkpt>
      <trkpt lat="46.29823" lon="5.85771">
        <ele>1159.2</ele>
        <time>2021-10-17T12:01:14Z</time>
      </trkpt>
      <trkpt lat="46.29822" lon="5.85777">
        <ele>1159.6</ele>
        <time>2021-10-17T12:01:15Z</time>
      </trkpt>
      <trkpt lat="46.29821" lon="5.85783">
        <ele>1159.8</ele>
        <time>2021-10-17T12:01:16Z</time>
      </trkpt>
      <trkpt lat="46.29819" lon="5.85788">
        <ele>1160.2</ele>
        <time>2021-10-17T12:01:17Z</time>
      </trkpt>
      <trkpt lat="46.29818" lon="5.85794">
        <ele>1160.4</ele>
        <time>2021-10-17T12:01:18Z</time>
      </trkpt>
      <trkpt lat="46.29818" lon="5.85799">
        <ele>1160.8</ele>
        <time>2021-10-17T12:01:19Z</time>
      </trkpt>
      <trkpt lat="46.29817" lon="5.85804">
        <ele>1161</ele>
        <time>2021-10-17T12:01:20Z</time>
      </trkpt>
      <trkpt lat="46.29815" lon="5.85809">
        <ele>1161.4</ele>
        <time>2021-10-17T12:01:21Z</time>
      </trkpt>
      <trkpt lat="46.29814" lon="5.85813">
        <ele>1161.6</ele>
        <time>2021-10-17T12:01:22Z</time>
      </trkpt>
      <trkpt lat="46.29813" lon="5.85818">
        <ele>1161.8</ele>
        <time>2021-10-17T12:01:23Z</time>
      </trkpt>
      <trkpt lat="46.29811" lon="5.85822">
        <ele>1161.8</ele>
        <time>2021-10-17T12:01:24Z</time>
      </trkpt>
      <trkpt lat="46.2981" lon="5.85827">
        <ele>1162.2</ele>
        <time>2021-10-17T12:01:25Z</time>
      </trkpt>
      <trkpt lat="46.29808" lon="5.85831">
        <ele>1162.2</ele>
        <time>2021-10-17T12:01:26Z</time>
      </trkpt>
      <trkpt lat="46.29807" lon="5.85836">
        <ele>1162.6</ele>
        <time>2021-10-17T12:01:27Z</time>
      </trkpt>
      <trkpt lat="46.29805" lon="5.8584">
        <ele>1162.6</ele>
        <time>2021-10-17T12:01:28Z</time>
      </trkpt>
      <trkpt lat="46.29804" lon="5.85845">
        <ele>1163</ele>
        <time>2021-10-17T12:01:29Z</time>
      </trkpt>
      <trkpt lat="46.29803" lon="5.85851">
        <ele>1163.2</ele>
        <time>2021-10-17T12:01:30Z</time>
      </trkpt>
      <trkpt lat="46.29801" lon="5.85855">
        <ele>1163.4</ele>
        <time>2021-10-17T12:01:31Z</time>
      </trkpt>
      <trkpt lat="46.298" lon="5.8586">
        <ele>1163.6</ele>
        <time>2021-10-17T12:01:32Z</time>
      </trkpt>
      <trkpt lat="46.29798" lon="5.85865">
        <ele>1163.8</ele>
        <time>2021-10-17T12:01:33Z</time>
      </trkpt>
      <trkpt lat="46.29797" lon="5.8587">
        <ele>1164</ele>
        <time>2021-10-17T12:01:34Z</time>
      </trkpt>
      <trkpt lat="46.29796" lon="5.85875">
        <ele>1164.2</ele>
        <time>2021-10-17T12:01:35Z</time>
      </trkpt>
      <trkpt lat="46.29794" lon="5.85879">
        <ele>1164.6</ele>
        <time>2021-10-17T12:01:36Z</time>
      </trkpt>
      <trkpt lat="46.29793" lon="5.85883">
        <ele>1164.8</ele>
        <time>2021-10-17T12:01:37Z</time>
      </trkpt>
      <trkpt lat="46.29791" lon="5.85888">
        <ele>1165</ele>
        <time>2021-10-17T12:01:38Z</time>
      </trkpt>
      <trkpt lat="46.2979" lon="5.85892">
        <ele>1165.2</ele>
        <time>2021-10-17T12:01:39Z</time>
      </trkpt>
      <trkpt lat="46.29789" lon="5.85895">
        <ele>1165.4</ele>
        <time>2021-10-17T12:01:40Z</time>
      </trkpt>
      <trkpt lat="46.29788" lon="5.85899">
        <ele>1165.6</ele>
        <time>2021-10-17T12:01:41Z</time>
      </trkpt>
      <trkpt lat="46.29787" lon="5.85902">
        <ele>1166</ele>
        <time>2021-10-17T12:01:42Z</time>
      </trkpt>
      <trkpt lat="46.29786" lon="5.85905">
        <ele>1166</ele>
        <time>2021-10-17T12:01:43Z</time>
      </trkpt>
      <trkpt lat="46.29785" lon="5.85908">
        <ele>1166.2</ele>
        <time>2021-10-17T12:01:44Z</time>
      </trkpt>
      <trkpt lat="46.29784" lon="5.8591">
        <ele>1166.4</ele>
        <time>2021-10-17T12:01:45Z</time>
      </trkpt>
      <trkpt lat="46.29783" lon="5.85913">
        <ele>1166.4</ele>
        <time>2021-10-17T12:01:46Z</time>
      </trkpt>
      <trkpt lat="46.29782" lon="5.85916">
        <ele>1166.8</ele>
        <time>2021-10-17T12:01:47Z</time>
      </trkpt>
      <trkpt lat="46.29782" lon="5.85918">
        <ele>1166.8</ele>
        <time>2021-10-17T12:01:48Z</time>
      </trkpt>
      <trkpt lat="46.29781" lon="5.8592">
        <ele>1167</ele>
        <time>2021-10-17T12:01:49Z</time>
      </trkpt>
      <trkpt lat="46.29781" lon="5.8592">
        <ele>1167.2</ele>
        <time>2021-10-17T12:01:50Z</time>
      </trkpt>
      <trkpt lat="46.2978" lon="5.85925">
        <ele>1167.2</ele>
        <time>2021-10-17T12:03:02Z</time>
      </trkpt>
      <trkpt lat="46.2978" lon="5.85928">
        <ele>1167.2</ele>
        <time>2021-10-17T12:03:03Z</time>
      </trkpt>
      <trkpt lat="46.29779" lon="5.85931">
        <ele>1167.4</ele>
        <time>2021-10-17T12:03:04Z</time>
      </trkpt>
      <trkpt lat="46.29779" lon="5.85933">
        <ele>1167.4</ele>
        <time>2021-10-17T12:03:05Z</time>
      </trkpt>
      <trkpt lat="46.29778" lon="5.85936">
        <ele>1167.8</ele>
        <time>2021-10-17T12:03:06Z</time>
      </trkpt>
      <trkpt lat="46.29776" lon="5.85939">
        <ele>1167.8</ele>
        <time>2021-10-17T12:03:07Z</time>
      </trkpt>
      <trkpt lat="46.29775" lon="5.85942">
        <ele>1168</ele>
        <time>2021-10-17T12:03:08Z</time>
      </trkpt>
      <trkpt lat="46.29774" lon="5.85945">
        <ele>1168</ele>
        <time>2021-10-17T12:03:09Z</time>
      </trkpt>
      <trkpt lat="46.29774" lon="5.85948">
        <ele>1168</ele>
        <time>2021-10-17T12:03:10Z</time>
      </trkpt>
      <trkpt lat="46.29773" lon="5.8595">
        <ele>1168.4</ele>
        <time>2021-10-17T12:03:11Z</time>
      </trkpt>
      <trkpt lat="46.29772" lon="5.85953">
        <ele>1168.4</ele>
        <time>2021-10-17T12:03:12Z</time>
      </trkpt>
      <trkpt lat="46.29771" lon="5.85957">
        <ele>1168.6</ele>
        <time>2021-10-17T12:03:13Z</time>
      </trkpt>
      <trkpt lat="46.2977" lon="5.8596">
        <ele>1168.6</ele>
        <time>2021-10-17T12:03:14Z</time>
      </trkpt>
      <trkpt lat="46.29769" lon="5.85964">
        <ele>1168.8</ele>
        <time>2021-10-17T12:03:15Z</time>
      </trkpt>
      <trkpt lat="46.29767" lon="5.85968">
        <ele>1169.2</ele>
        <time>2021-10-17T12:03:16Z</time>
      </trkpt>
      <trkpt lat="46.29766" lon="5.85972">
        <ele>1169.4</ele>
        <time>2021-10-17T12:03:17Z</time>
      </trkpt>
      <trkpt lat="46.29764" lon="5.85976">
        <ele>1169.6</ele>
        <time>2021-10-17T12:03:18Z</time>
      </trkpt>
      <trkpt lat="46.29763" lon="5.8598">
        <ele>1169.8</ele>
        <time>2021-10-17T12:03:19Z</time>
      </trkpt>
      <trkpt lat="46.29762" lon="5.85984">
        <ele>1170.2</ele>
        <time>2021-10-17T12:03:20Z</time>
      </trkpt>
      <trkpt lat="46.2976" lon="5.85988">
        <ele>1170.2</ele>
        <time>2021-10-17T12:03:21Z</time>
      </trkpt>
      <trkpt lat="46.29759" lon="5.85992">
        <ele>1170.6</ele>
        <time>2021-10-17T12:03:22Z</time>
      </trkpt>
      <trkpt lat="46.29757" lon="5.85995">
        <ele>1170.8</ele>
        <time>2021-10-17T12:03:23Z</time>
      </trkpt>
      <trkpt lat="46.29756" lon="5.85999">
        <ele>1171</ele>
        <time>2021-10-17T12:03:24Z</time>
      </trkpt>
      <trkpt lat="46.29755" lon="5.86003">
        <ele>1171</ele>
        <time>2021-10-17T12:03:25Z</time>
      </trkpt>
      <trkpt lat="46.29753" lon="5.86007">
        <ele>1171.4</ele>
        <time>2021-10-17T12:03:26Z</time>
      </trkpt>
      <trkpt lat="46.29752" lon="5.8601">
        <ele>1171.4</ele>
        <time>2021-10-17T12:03:27Z</time>
      </trkpt>
      <trkpt lat="46.2975" lon="5.86014">
        <ele>1171.6</ele>
        <time>2021-10-17T12:03:28Z</time>
      </trkpt>
      <trkpt lat="46.29749" lon="5.86017">
        <ele>1171.8</ele>
        <time>2021-10-17T12:03:29Z</time>
      </trkpt>
      <trkpt lat="46.29747" lon="5.86021">
        <ele>1171.8</ele>
        <time>2021-10-17T12:03:30Z</time>
      </trkpt>
      <trkpt lat="46.29746" lon="5.86024">
        <ele>1172.2</ele>
        <time>2021-10-17T12:03:31Z</time>
      </trkpt>
      <trkpt lat="46.29744" lon="5.86028">
        <ele>1172.2</ele>
        <time>2021-10-17T12:03:32Z</time>
      </trkpt>
      <trkpt lat="46.29743" lon="5.86032">
        <ele>1172.6</ele>
        <time>2021-10-17T12:03:33Z</time>
      </trkpt>
      <trkpt lat="46.29742" lon="5.86036">
        <ele>1172.8</ele>
        <time>2021-10-17T12:03:34Z</time>
      </trkpt>
      <trkpt lat="46.2974" lon="5.8604">
        <ele>1172.8</ele>
        <time>2021-10-17T12:03:35Z</time>
      </trkpt>
      <trkpt lat="46.29739" lon="5.86044">
        <ele>1173.2</ele>
        <time>2021-10-17T12:03:36Z</time>
      </trkpt>
      <trkpt lat="46.29738" lon="5.86048">
        <ele>1173.2</ele>
        <time>2021-10-17T12:03:37Z</time>
      </trkpt>
      <trkpt lat="46.29736" lon="5.86051">
        <ele>1173.4</ele>
        <time>2021-10-17T12:03:38Z</time>
      </trkpt>
      <trkpt lat="46.29735" lon="5.86055">
        <ele>1173.6</ele>
        <time>2021-10-17T12:03:39Z</time>
      </trkpt>
      <trkpt lat="46.29734" lon="5.86059">
        <ele>1173.8</ele>
        <time>2021-10-17T12:03:40Z</time>
      </trkpt>
      <trkpt lat="46.29732" lon="5.86063">
        <ele>1173.8</ele>
        <time>2021-10-17T12:03:41Z</time>
      </trkpt>
      <trkpt lat="46.29731" lon="5.86066">
        <ele>1174.2</ele>
        <time>2021-10-17T12:03:42Z</time>
      </trkpt>
      <trkpt lat="46.2973" lon="5.8607">
        <ele>1174.6</ele>
        <time>2021-10-17T12:03:43Z</time>
      </trkpt>
      <trkpt lat="46.29729" lon="5.86074">
        <ele>1174.8</ele>
        <time>2021-10-17T12:03:44Z</time>
      </trkpt>
      <trkpt lat="46.29728" lon="5.86078">
        <ele>1175</ele>
        <time>2021-10-17T12:03:45Z</time>
      </trkpt>
      <trkpt lat="46.29727" lon="5.86082">
        <ele>1175.2</ele>
        <time>2021-10-17T12:03:46Z</time>
      </trkpt>
      <trkpt lat="46.29726" lon="5.86085">
        <ele>1175.6</ele>
        <time>2021-10-17T12:03:47Z</time>
      </trkpt>
      <trkpt lat="46.29725" lon="5.86089">
        <ele>1175.6</ele>
        <time>2021-10-17T12:03:48Z</time>
      </trkpt>
      <trkpt lat="46.29725" lon="5.86093">
        <ele>1176</ele>
        <time>2021-10-17T12:03:49Z</time>
      </trkpt>
      <trkpt lat="46.29724" lon="5.86097">
        <ele>1176.2</ele>
        <time>2021-10-17T12:03:50Z</time>
      </trkpt>
      <trkpt lat="46.29724" lon="5.861">
        <ele>1176.2</ele>
        <time>2021-10-17T12:03:51Z</time>
      </trkpt>
      <trkpt lat="46.29724" lon="5.86104">
        <ele>1176.6</ele>
        <time>2021-10-17T12:03:52Z</time>
      </trkpt>
      <trkpt lat="46.29723" lon="5.86108">
        <ele>1176.6</ele>
        <time>2021-10-17T12:03:53Z</time>
      </trkpt>
      <trkpt lat="46.29723" lon="5.86111">
        <ele>1176.8</ele>
        <time>2021-10-17T12:03:54Z</time>
      </trkpt>
      <trkpt lat="46.29723" lon="5.86115">
        <ele>1176.8</ele>
        <time>2021-10-17T12:03:55Z</time>
      </trkpt>
      <trkpt lat="46.29723" lon="5.86119">
        <ele>1177.2</ele>
        <time>2021-10-17T12:03:56Z</time>
      </trkpt>
      <trkpt lat="46.29723" lon="5.86123">
        <ele>1177.2</ele>
        <time>2021-10-17T12:03:57Z</time>
      </trkpt>
      <trkpt lat="46.29723" lon="5.86127">
        <ele>1177.6</ele>
        <time>2021-10-17T12:03:58Z</time>
      </trkpt>
      <trkpt lat="46.29724" lon="5.86131">
        <ele>1177.6</ele>
        <time>2021-10-17T12:03:59Z</time>
      </trkpt>
      <trkpt lat="46.29724" lon="5.86135">
        <ele>1178</ele>
        <time>2021-10-17T12:04:00Z</time>
      </trkpt>
      <trkpt lat="46.29724" lon="5.86139">
        <ele>1178</ele>
        <time>2021-10-17T12:04:01Z</time>
      </trkpt>
      <trkpt lat="46.29724" lon="5.86143">
        <ele>1178.2</ele>
        <time>2021-10-17T12:04:02Z</time>
      </trkpt>
      <trkpt lat="46.29724" lon="5.86147">
        <ele>1178.2</ele>
        <time>2021-10-17T12:04:03Z</time>
      </trkpt>
      <trkpt lat="46.29724" lon="5.86152">
        <ele>1178.2</ele>
        <time>2021-10-17T12:04:04Z</time>
      </trkpt>
      <trkpt lat="46.29725" lon="5.86156">
        <ele>1178.4</ele>
        <time>2021-10-17T12:04:05Z</time>
      </trkpt>
      <trkpt lat="46.29725" lon="5.86161">
        <ele>1178.4</ele>
        <time>2021-10-17T12:04:06Z</time>
      </trkpt>
      <trkpt lat="46.29726" lon="5.86166">
        <ele>1178.4</ele>
        <time>2021-10-17T12:04:07Z</time>
      </trkpt>
      <trkpt lat="46.29726" lon="5.86171">
        <ele>1178.8</ele>
        <time>2021-10-17T12:04:08Z</time>
      </trkpt>
      <trkpt lat="46.29726" lon="5.86176">
        <ele>1178.8</ele>
        <time>2021-10-17T12:04:09Z</time>
      </trkpt>
      <trkpt lat="46.29727" lon="5.86182">
        <ele>1178.8</ele>
        <time>2021-10-17T12:04:10Z</time>
      </trkpt>
      <trkpt lat="46.29727" lon="5.86187">
        <ele>1178.8</ele>
        <time>2021-10-17T12:04:11Z</time>
      </trkpt>
      <trkpt lat="46.29727" lon="5.86192">
        <ele>1178.8</ele>
        <time>2021-10-17T12:04:12Z</time>
      </trkpt>
      <trkpt lat="46.29727" lon="5.86197">
        <ele>1179</ele>
        <time>2021-10-17T12:04:13Z</time>
      </trkpt>
      <trkpt lat="46.29727" lon="5.86202">
        <ele>1179</ele>
        <time>2021-10-17T12:04:14Z</time>
      </trkpt>
      <trkpt lat="46.29727" lon="5.86208">
        <ele>1179</ele>
        <time>2021-10-17T12:04:15Z</time>
      </trkpt>
      <trkpt lat="46.29728" lon="5.86215">
        <ele>1179</ele>
        <time>2021-10-17T12:04:16Z</time>
      </trkpt>
      <trkpt lat="46.29728" lon="5.86221">
        <ele>1179</ele>
        <time>2021-10-17T12:04:17Z</time>
      </trkpt>
      <trkpt lat="46.29727" lon="5.86228">
        <ele>1179</ele>
        <time>2021-10-17T12:04:18Z</time>
      </trkpt>
      <trkpt lat="46.29727" lon="5.86235">
        <ele>1179.2</ele>
        <time>2021-10-17T12:04:19Z</time>
      </trkpt>
      <trkpt lat="46.29726" lon="5.86242">
        <ele>1179.2</ele>
        <time>2021-10-17T12:04:20Z</time>
      </trkpt>
      <trkpt lat="46.29725" lon="5.86249">
        <ele>1179.2</ele>
        <time>2021-10-17T12:04:21Z</time>
      </trkpt>
      <trkpt lat="46.29724" lon="5.86256">
        <ele>1179.2</ele>
        <time>2021-10-17T12:04:22Z</time>
      </trkpt>
      <trkpt lat="46.29723" lon="5.86264">
        <ele>1179.2</ele>
        <time>2021-10-17T12:04:23Z</time>
      </trkpt>
      <trkpt lat="46.29722" lon="5.86271">
        <ele>1179.2</ele>
        <time>2021-10-17T12:04:24Z</time>
      </trkpt>
      <trkpt lat="46.29721" lon="5.86278">
        <ele>1179.4</ele>
        <time>2021-10-17T12:04:25Z</time>
      </trkpt>
      <trkpt lat="46.29719" lon="5.86286">
        <ele>1179.4</ele>
        <time>2021-10-17T12:04:26Z</time>
      </trkpt>
      <trkpt lat="46.29718" lon="5.86293">
        <ele>1179.4</ele>
        <time>2021-10-17T12:04:27Z</time>
      </trkpt>
      <trkpt lat="46.29716" lon="5.863">
        <ele>1179.6</ele>
        <time>2021-10-17T12:04:28Z</time>
      </trkpt>
      <trkpt lat="46.29715" lon="5.86307">
        <ele>1179.6</ele>
        <time>2021-10-17T12:04:29Z</time>
      </trkpt>
      <trkpt lat="46.29713" lon="5.86313">
        <ele>1179.6</ele>
        <time>2021-10-17T12:04:30Z</time>
      </trkpt>
      <trkpt lat="46.29711" lon="5.8632">
        <ele>1179.6</ele>
        <time>2021-10-17T12:04:31Z</time>
      </trkpt>
      <trkpt lat="46.29709" lon="5.86327">
        <ele>1180</ele>
        <time>2021-10-17T12:04:32Z</time>
      </trkpt>
      <trkpt lat="46.29707" lon="5.86333">
        <ele>1180</ele>
        <time>2021-10-17T12:04:33Z</time>
      </trkpt>
      <trkpt lat="46.29705" lon="5.8634">
        <ele>1180</ele>
        <time>2021-10-17T12:04:34Z</time>
      </trkpt>
      <trkpt lat="46.29702" lon="5.86347">
        <ele>1180</ele>
        <time>2021-10-17T12:04:35Z</time>
      </trkpt>
      <trkpt lat="46.297" lon="5.86354">
        <ele>1180</ele>
        <time>2021-10-17T12:04:36Z</time>
      </trkpt>
      <trkpt lat="46.29697" lon="5.86361">
        <ele>1180</ele>
        <time>2021-10-17T12:04:37Z</time>
      </trkpt>
      <trkpt lat="46.29695" lon="5.86369">
        <ele>1180</ele>
        <time>2021-10-17T12:04:38Z</time>
      </trkpt>
      <trkpt lat="46.29692" lon="5.86377">
        <ele>1180</ele>
        <time>2021-10-17T12:04:39Z</time>
      </trkpt>
      <trkpt lat="46.29689" lon="5.86385">
        <ele>1180</ele>
        <time>2021-10-17T12:04:40Z</time>
      </trkpt>
      <trkpt lat="46.29686" lon="5.86394">
        <ele>1180</ele>
        <time>2021-10-17T12:04:41Z</time>
      </trkpt>
      <trkpt lat="46.29682" lon="5.86402">
        <ele>1179.6</ele>
        <time>2021-10-17T12:04:42Z</time>
      </trkpt>
      <trkpt lat="46.29679" lon="5.86411">
        <ele>1179.6</ele>
        <time>2021-10-17T12:04:43Z</time>
      </trkpt>
      <trkpt lat="46.29676" lon="5.86421">
        <ele>1179.4</ele>
        <time>2021-10-17T12:04:44Z</time>
      </trkpt>
      <trkpt lat="46.29672" lon="5.8643">
        <ele>1179.4</ele>
        <time>2021-10-17T12:04:45Z</time>
      </trkpt>
      <trkpt lat="46.29669" lon="5.8644">
        <ele>1179.2</ele>
        <time>2021-10-17T12:04:46Z</time>
      </trkpt>
      <trkpt lat="46.29665" lon="5.8645">
        <ele>1179.2</ele>
        <time>2021-10-17T12:04:47Z</time>
      </trkpt>
      <trkpt lat="46.29662" lon="5.86459">
        <ele>1179</ele>
        <time>2021-10-17T12:04:48Z</time>
      </trkpt>
      <trkpt lat="46.29658" lon="5.86469">
        <ele>1179</ele>
        <time>2021-10-17T12:04:49Z</time>
      </trkpt>
      <trkpt lat="46.29654" lon="5.86479">
        <ele>1179</ele>
        <time>2021-10-17T12:04:50Z</time>
      </trkpt>
      <trkpt lat="46.2965" lon="5.86488">
        <ele>1178.6</ele>
        <time>2021-10-17T12:04:51Z</time>
      </trkpt>
      <trkpt lat="46.29646" lon="5.86497">
        <ele>1178.6</ele>
        <time>2021-10-17T12:04:52Z</time>
      </trkpt>
      <trkpt lat="46.29641" lon="5.86506">
        <ele>1178.4</ele>
        <time>2021-10-17T12:04:53Z</time>
      </trkpt>
      <trkpt lat="46.29635" lon="5.86513">
        <ele>1178.4</ele>
        <time>2021-10-17T12:04:54Z</time>
      </trkpt>
      <trkpt lat="46.29629" lon="5.86521">
        <ele>1178.4</ele>
        <time>2021-10-17T12:04:55Z</time>
      </trkpt>
      <trkpt lat="46.29623" lon="5.86527">
        <ele>1178.4</ele>
        <time>2021-10-17T12:04:56Z</time>
      </trkpt>
      <trkpt lat="46.29617" lon="5.86533">
        <ele>1178.4</ele>
        <time>2021-10-17T12:04:57Z</time>
      </trkpt>
      <trkpt lat="46.29611" lon="5.8654">
        <ele>1178.2</ele>
        <time>2021-10-17T12:04:58Z</time>
      </trkpt>
      <trkpt lat="46.29605" lon="5.86548">
        <ele>1178.2</ele>
        <time>2021-10-17T12:04:59Z</time>
      </trkpt>
      <trkpt lat="46.296" lon="5.86556">
        <ele>1178.2</ele>
        <time>2021-10-17T12:05:00Z</time>
      </trkpt>
      <trkpt lat="46.29595" lon="5.86565">
        <ele>1178</ele>
        <time>2021-10-17T12:05:01Z</time>
      </trkpt>
      <trkpt lat="46.29592" lon="5.86574">
        <ele>1178</ele>
        <time>2021-10-17T12:05:02Z</time>
      </trkpt>
      <trkpt lat="46.2959" lon="5.86584">
        <ele>1177.6</ele>
        <time>2021-10-17T12:05:03Z</time>
      </trkpt>
      <trkpt lat="46.29589" lon="5.86595">
        <ele>1177.4</ele>
        <time>2021-10-17T12:05:04Z</time>
      </trkpt>
      <trkpt lat="46.29588" lon="5.86605">
        <ele>1177.4</ele>
        <time>2021-10-17T12:05:05Z</time>
      </trkpt>
      <trkpt lat="46.29589" lon="5.86616">
        <ele>1177.4</ele>
        <time>2021-10-17T12:05:06Z</time>
      </trkpt>
      <trkpt lat="46.2959" lon="5.86627">
        <ele>1177.2</ele>
        <time>2021-10-17T12:05:07Z</time>
      </trkpt>
      <trkpt lat="46.29592" lon="5.86638">
        <ele>1177.2</ele>
        <time>2021-10-17T12:05:08Z</time>
      </trkpt>
      <trkpt lat="46.29594" lon="5.86649">
        <ele>1177</ele>
        <time>2021-10-17T12:05:09Z</time>
      </trkpt>
      <trkpt lat="46.29596" lon="5.8666">
        <ele>1176.6</ele>
        <time>2021-10-17T12:05:10Z</time>
      </trkpt>
      <trkpt lat="46.29599" lon="5.86672">
        <ele>1176.6</ele>
        <time>2021-10-17T12:05:11Z</time>
      </trkpt>
      <trkpt lat="46.29601" lon="5.86683">
        <ele>1176.2</ele>
        <time>2021-10-17T12:05:12Z</time>
      </trkpt>
      <trkpt lat="46.29604" lon="5.86695">
        <ele>1176</ele>
        <time>2021-10-17T12:05:13Z</time>
      </trkpt>
      <trkpt lat="46.29606" lon="5.86706">
        <ele>1176</ele>
        <time>2021-10-17T12:05:14Z</time>
      </trkpt>
      <trkpt lat="46.29609" lon="5.86717">
        <ele>1175.6</ele>
        <time>2021-10-17T12:05:15Z</time>
      </trkpt>
      <trkpt lat="46.29613" lon="5.86728">
        <ele>1175.6</ele>
        <time>2021-10-17T12:05:16Z</time>
      </trkpt>
      <trkpt lat="46.29618" lon="5.86739">
        <ele>1175.4</ele>
        <time>2021-10-17T12:05:17Z</time>
      </trkpt>
      <trkpt lat="46.29623" lon="5.86747">
        <ele>1175.2</ele>
        <time>2021-10-17T12:05:18Z</time>
      </trkpt>
      <trkpt lat="46.29629" lon="5.86756">
        <ele>1174.8</ele>
        <time>2021-10-17T12:05:19Z</time>
      </trkpt>
      <trkpt lat="46.29634" lon="5.86764">
        <ele>1174.6</ele>
        <time>2021-10-17T12:05:20Z</time>
      </trkpt>
      <trkpt lat="46.2964" lon="5.86773">
        <ele>1174.6</ele>
        <time>2021-10-17T12:05:21Z</time>
      </trkpt>
      <trkpt lat="46.29645" lon="5.86781">
        <ele>1174.2</ele>
        <time>2021-10-17T12:05:22Z</time>
      </trkpt>
      <trkpt lat="46.29651" lon="5.86789">
        <ele>1174.2</ele>
        <time>2021-10-17T12:05:23Z</time>
      </trkpt>
      <trkpt lat="46.29657" lon="5.86797">
        <ele>1174</ele>
        <time>2021-10-17T12:05:24Z</time>
      </trkpt>
      <trkpt lat="46.29664" lon="5.86806">
        <ele>1173.8</ele>
        <time>2021-10-17T12:05:25Z</time>
      </trkpt>
      <trkpt lat="46.2967" lon="5.86815">
        <ele>1173.6</ele>
        <time>2021-10-17T12:05:26Z</time>
      </trkpt>
      <trkpt lat="46.29676" lon="5.86824">
        <ele>1173.6</ele>
        <time>2021-10-17T12:05:27Z</time>
      </trkpt>
      <trkpt lat="46.29682" lon="5.86834">
        <ele>1173.2</ele>
        <time>2021-10-17T12:05:28Z</time>
      </trkpt>
      <trkpt lat="46.29688" lon="5.86844">
        <ele>1173</ele>
        <time>2021-10-17T12:05:29Z</time>
      </trkpt>
      <trkpt lat="46.29694" lon="5.86854">
        <ele>1173</ele>
        <time>2021-10-17T12:05:30Z</time>
      </trkpt>
      <trkpt lat="46.29699" lon="5.86865">
        <ele>1172.6</ele>
        <time>2021-10-17T12:05:31Z</time>
      </trkpt>
      <trkpt lat="46.29704" lon="5.86875">
        <ele>1172.6</ele>
        <time>2021-10-17T12:05:32Z</time>
      </trkpt>
      <trkpt lat="46.2971" lon="5.86884">
        <ele>1172.2</ele>
        <time>2021-10-17T12:05:33Z</time>
      </trkpt>
      <trkpt lat="46.29717" lon="5.86891">
        <ele>1172.2</ele>
        <time>2021-10-17T12:05:34Z</time>
      </trkpt>
      <trkpt lat="46.29725" lon="5.86897">
        <ele>1172</ele>
        <time>2021-10-17T12:05:35Z</time>
      </trkpt>
      <trkpt lat="46.29733" lon="5.86902">
        <ele>1171.8</ele>
        <time>2021-10-17T12:05:36Z</time>
      </trkpt>
      <trkpt lat="46.29742" lon="5.86908">
        <ele>1171.6</ele>
        <time>2021-10-17T12:05:37Z</time>
      </trkpt>
      <trkpt lat="46.2975" lon="5.86913">
        <ele>1171.2</ele>
        <time>2021-10-17T12:05:38Z</time>
      </trkpt>
      <trkpt lat="46.29758" lon="5.8692">
        <ele>1171.2</ele>
        <time>2021-10-17T12:05:39Z</time>
      </trkpt>
      <trkpt lat="46.29766" lon="5.86925">
        <ele>1170.8</ele>
        <time>2021-10-17T12:05:40Z</time>
      </trkpt>
      <trkpt lat="46.29775" lon="5.86929">
        <ele>1170.8</ele>
        <time>2021-10-17T12:05:41Z</time>
      </trkpt>
      <trkpt lat="46.29783" lon="5.86931">
        <ele>1170.2</ele>
        <time>2021-10-17T12:05:42Z</time>
      </trkpt>
      <trkpt lat="46.29793" lon="5.86932">
        <ele>1170.2</ele>
        <time>2021-10-17T12:05:43Z</time>
      </trkpt>
      <trkpt lat="46.29802" lon="5.86934">
        <ele>1169.8</ele>
        <time>2021-10-17T12:05:44Z</time>
      </trkpt>
      <trkpt lat="46.29811" lon="5.86938">
        <ele>1169.6</ele>
        <time>2021-10-17T12:05:45Z</time>
      </trkpt>
      <trkpt lat="46.2982" lon="5.86943">
        <ele>1169.4</ele>
        <time>2021-10-17T12:05:46Z</time>
      </trkpt>
      <trkpt lat="46.29828" lon="5.8695">
        <ele>1169.4</ele>
        <time>2021-10-17T12:05:47Z</time>
      </trkpt>
      <trkpt lat="46.29836" lon="5.86957">
        <ele>1169</ele>
        <time>2021-10-17T12:05:48Z</time>
      </trkpt>
      <trkpt lat="46.29843" lon="5.86965">
        <ele>1169</ele>
        <time>2021-10-17T12:05:49Z</time>
      </trkpt>
      <trkpt lat="46.29851" lon="5.86971">
        <ele>1168.6</ele>
        <time>2021-10-17T12:05:50Z</time>
      </trkpt>
      <trkpt lat="46.29859" lon="5.86977">
        <ele>1168.4</ele>
        <time>2021-10-17T12:05:51Z</time>
      </trkpt>
      <trkpt lat="46.29867" lon="5.86983">
        <ele>1168</ele>
        <time>2021-10-17T12:05:52Z</time>
      </trkpt>
      <trkpt lat="46.29875" lon="5.86987">
        <ele>1167.8</ele>
        <time>2021-10-17T12:05:53Z</time>
      </trkpt>
      <trkpt lat="46.29883" lon="5.86993">
        <ele>1167.6</ele>
        <time>2021-10-17T12:05:54Z</time>
      </trkpt>
      <trkpt lat="46.29891" lon="5.86999">
        <ele>1167.6</ele>
        <time>2021-10-17T12:05:55Z</time>
      </trkpt>
      <trkpt lat="46.29898" lon="5.87005">
        <ele>1167.2</ele>
        <time>2021-10-17T12:05:56Z</time>
      </trkpt>
      <trkpt lat="46.29906" lon="5.87011">
        <ele>1167</ele>
        <time>2021-10-17T12:05:57Z</time>
      </trkpt>
      <trkpt lat="46.29914" lon="5.87017">
        <ele>1166.8</ele>
        <time>2021-10-17T12:05:58Z</time>
      </trkpt>
      <trkpt lat="46.29921" lon="5.87022">
        <ele>1166.6</ele>
        <time>2021-10-17T12:05:59Z</time>
      </trkpt>
      <trkpt lat="46.29929" lon="5.87027">
        <ele>1166.2</ele>
        <time>2021-10-17T12:06:00Z</time>
      </trkpt>
      <trkpt lat="46.29937" lon="5.87033">
        <ele>1166</ele>
        <time>2021-10-17T12:06:01Z</time>
      </trkpt>
      <trkpt lat="46.29944" lon="5.87041">
        <ele>1165.6</ele>
        <time>2021-10-17T12:06:02Z</time>
      </trkpt>
      <trkpt lat="46.29951" lon="5.87052">
        <ele>1165.6</ele>
        <time>2021-10-17T12:06:03Z</time>
      </trkpt>
      <trkpt lat="46.29957" lon="5.87065">
        <ele>1165.2</ele>
        <time>2021-10-17T12:06:04Z</time>
      </trkpt>
      <trkpt lat="46.29965" lon="5.87078">
        <ele>1165.2</ele>
        <time>2021-10-17T12:06:05Z</time>
      </trkpt>
      <trkpt lat="46.29972" lon="5.87092">
        <ele>1165</ele>
        <time>2021-10-17T12:06:06Z</time>
      </trkpt>
      <trkpt lat="46.29979" lon="5.87105">
        <ele>1165</ele>
        <time>2021-10-17T12:06:07Z</time>
      </trkpt>
      <trkpt lat="46.29986" lon="5.87118">
        <ele>1165</ele>
        <time>2021-10-17T12:06:08Z</time>
      </trkpt>
      <trkpt lat="46.29993" lon="5.8713">
        <ele>1164.6</ele>
        <time>2021-10-17T12:06:09Z</time>
      </trkpt>
      <trkpt lat="46.29997" lon="5.87141">
        <ele>1164.6</ele>
        <time>2021-10-17T12:06:10Z</time>
      </trkpt>
      <trkpt lat="46.30001" lon="5.8715">
        <ele>1164.4</ele>
        <time>2021-10-17T12:06:11Z</time>
      </trkpt>
      <trkpt lat="46.30006" lon="5.87159">
        <ele>1164.4</ele>
        <time>2021-10-17T12:06:12Z</time>
      </trkpt>
      <trkpt lat="46.30012" lon="5.87168">
        <ele>1164.2</ele>
        <time>2021-10-17T12:06:13Z</time>
      </trkpt>
      <trkpt lat="46.30017" lon="5.87176">
        <ele>1164.2</ele>
        <time>2021-10-17T12:06:14Z</time>
      </trkpt>
      <trkpt lat="46.30022" lon="5.87183">
        <ele>1164.2</ele>
        <time>2021-10-17T12:06:15Z</time>
      </trkpt>
      <trkpt lat="46.30029" lon="5.87188">
        <ele>1164</ele>
        <time>2021-10-17T12:06:16Z</time>
      </trkpt>
      <trkpt lat="46.30035" lon="5.87193">
        <ele>1164</ele>
        <time>2021-10-17T12:06:17Z</time>
      </trkpt>
      <trkpt lat="46.30041" lon="5.87199">
        <ele>1163.6</ele>
        <time>2021-10-17T12:06:18Z</time>
      </trkpt>
      <trkpt lat="46.30048" lon="5.87207">
        <ele>1163.6</ele>
        <time>2021-10-17T12:06:19Z</time>
      </trkpt>
      <trkpt lat="46.30054" lon="5.87217">
        <ele>1163.4</ele>
        <time>2021-10-17T12:06:20Z</time>
      </trkpt>
      <trkpt lat="46.30059" lon="5.87229">
        <ele>1163.4</ele>
        <time>2021-10-17T12:06:21Z</time>
      </trkpt>
      <trkpt lat="46.30062" lon="5.8724">
        <ele>1163.4</ele>
        <time>2021-10-17T12:06:22Z</time>
      </trkpt>
      <trkpt lat="46.30061" lon="5.87251">
        <ele>1163.2</ele>
        <time>2021-10-17T12:06:23Z</time>
      </trkpt>
      <trkpt lat="46.30059" lon="5.87262">
        <ele>1163.2</ele>
        <time>2021-10-17T12:06:24Z</time>
      </trkpt>
      <trkpt lat="46.30055" lon="5.87272">
        <ele>1163</ele>
        <time>2021-10-17T12:06:25Z</time>
      </trkpt>
      <trkpt lat="46.30049" lon="5.87279">
        <ele>1163</ele>
        <time>2021-10-17T12:06:26Z</time>
      </trkpt>
      <trkpt lat="46.30042" lon="5.87285">
        <ele>1163</ele>
        <time>2021-10-17T12:06:27Z</time>
      </trkpt>
      <trkpt lat="46.30035" lon="5.8729">
        <ele>1163</ele>
        <time>2021-10-17T12:06:28Z</time>
      </trkpt>
      <trkpt lat="46.30028" lon="5.87294">
        <ele>1163</ele>
        <time>2021-10-17T12:06:29Z</time>
      </trkpt>
      <trkpt lat="46.30022" lon="5.87297">
        <ele>1162.8</ele>
        <time>2021-10-17T12:06:30Z</time>
      </trkpt>
      <trkpt lat="46.30017" lon="5.87301">
        <ele>1162.8</ele>
        <time>2021-10-17T12:06:31Z</time>
      </trkpt>
      <trkpt lat="46.30011" lon="5.87306">
        <ele>1162.8</ele>
        <time>2021-10-17T12:06:32Z</time>
      </trkpt>
      <trkpt lat="46.30007" lon="5.8731">
        <ele>1162.8</ele>
        <time>2021-10-17T12:06:33Z</time>
      </trkpt>
      <trkpt lat="46.30002" lon="5.87315">
        <ele>1162.8</ele>
        <time>2021-10-17T12:06:34Z</time>
      </trkpt>
      <trkpt lat="46.29998" lon="5.87319">
        <ele>1162.8</ele>
        <time>2021-10-17T12:06:35Z</time>
      </trkpt>
      <trkpt lat="46.29991" lon="5.87327">
        <ele>1162.8</ele>
        <time>2021-10-17T12:06:36Z</time>
      </trkpt>
      <trkpt lat="46.29986" lon="5.87334">
        <ele>1163</ele>
        <time>2021-10-17T12:06:37Z</time>
      </trkpt>
      <trkpt lat="46.29981" lon="5.8734">
        <ele>1163</ele>
        <time>2021-10-17T12:06:38Z</time>
      </trkpt>
      <trkpt lat="46.29978" lon="5.87347">
        <ele>1163.2</ele>
        <time>2021-10-17T12:06:39Z</time>
      </trkpt>
      <trkpt lat="46.29975" lon="5.87355">
        <ele>1163.2</ele>
        <time>2021-10-17T12:06:40Z</time>
      </trkpt>
      <trkpt lat="46.29972" lon="5.87364">
        <ele>1163.2</ele>
        <time>2021-10-17T12:06:41Z</time>
      </trkpt>
      <trkpt lat="46.29969" lon="5.87373">
        <ele>1163.4</ele>
        <time>2021-10-17T12:06:42Z</time>
      </trkpt>
      <trkpt lat="46.29967" lon="5.87381">
        <ele>1163.4</ele>
        <time>2021-10-17T12:06:43Z</time>
      </trkpt>
      <trkpt lat="46.29965" lon="5.8739">
        <ele>1163.6</ele>
        <time>2021-10-17T12:06:44Z</time>
      </trkpt>
      <trkpt lat="46.29963" lon="5.87399">
        <ele>1163.6</ele>
        <time>2021-10-17T12:06:45Z</time>
      </trkpt>
      <trkpt lat="46.29963" lon="5.87408">
        <ele>1163.6</ele>
        <time>2021-10-17T12:06:46Z</time>
      </trkpt>
      <trkpt lat="46.29962" lon="5.87418">
        <ele>1163.6</ele>
        <time>2021-10-17T12:06:47Z</time>
      </trkpt>
      <trkpt lat="46.29962" lon="5.87428">
        <ele>1164</ele>
        <time>2021-10-17T12:06:48Z</time>
      </trkpt>
      <trkpt lat="46.29961" lon="5.87438">
        <ele>1164.2</ele>
        <time>2021-10-17T12:06:49Z</time>
      </trkpt>
      <trkpt lat="46.29959" lon="5.87447">
        <ele>1164.4</ele>
        <time>2021-10-17T12:06:50Z</time>
      </trkpt>
      <trkpt lat="46.29958" lon="5.87456">
        <ele>1164.4</ele>
        <time>2021-10-17T12:06:51Z</time>
      </trkpt>
      <trkpt lat="46.29956" lon="5.87464">
        <ele>1164.8</ele>
        <time>2021-10-17T12:06:52Z</time>
      </trkpt>
      <trkpt lat="46.29953" lon="5.87472">
        <ele>1165</ele>
        <time>2021-10-17T12:06:53Z</time>
      </trkpt>
      <trkpt lat="46.2995" lon="5.87478">
        <ele>1165.2</ele>
        <time>2021-10-17T12:06:54Z</time>
      </trkpt>
      <trkpt lat="46.29947" lon="5.87483">
        <ele>1165.4</ele>
        <time>2021-10-17T12:06:55Z</time>
      </trkpt>
      <trkpt lat="46.29944" lon="5.87487">
        <ele>1165.8</ele>
        <time>2021-10-17T12:06:56Z</time>
      </trkpt>
      <trkpt lat="46.2994" lon="5.87491">
        <ele>1165.8</ele>
        <time>2021-10-17T12:06:57Z</time>
      </trkpt>
      <trkpt lat="46.29937" lon="5.87495">
        <ele>1166.2</ele>
        <time>2021-10-17T12:06:58Z</time>
      </trkpt>
      <trkpt lat="46.29935" lon="5.87498">
        <ele>1166.4</ele>
        <time>2021-10-17T12:06:59Z</time>
      </trkpt>
      <trkpt lat="46.29931" lon="5.875">
        <ele>1166.6</ele>
        <time>2021-10-17T12:07:00Z</time>
      </trkpt>
      <trkpt lat="46.29928" lon="5.87504">
        <ele>1166.8</ele>
        <time>2021-10-17T12:07:01Z</time>
      </trkpt>
      <trkpt lat="46.29923" lon="5.87508">
        <ele>1167</ele>
        <time>2021-10-17T12:07:02Z</time>
      </trkpt>
      <trkpt lat="46.29918" lon="5.87514">
        <ele>1167</ele>
        <time>2021-10-17T12:07:03Z</time>
      </trkpt>
      <trkpt lat="46.29914" lon="5.87519">
        <ele>1167.4</ele>
        <time>2021-10-17T12:07:04Z</time>
      </trkpt>
      <trkpt lat="46.29903" lon="5.87529">
        <ele>1167.6</ele>
        <time>2021-10-17T12:07:05Z</time>
      </trkpt>
      <trkpt lat="46.29895" lon="5.87538">
        <ele>1167.8</ele>
        <time>2021-10-17T12:07:06Z</time>
      </trkpt>
      <trkpt lat="46.29889" lon="5.87545">
        <ele>1168</ele>
        <time>2021-10-17T12:07:07Z</time>
      </trkpt>
      <trkpt lat="46.29885" lon="5.87552">
        <ele>1168.4</ele>
        <time>2021-10-17T12:07:08Z</time>
      </trkpt>
      <trkpt lat="46.29882" lon="5.87558">
        <ele>1168.4</ele>
        <time>2021-10-17T12:07:09Z</time>
      </trkpt>
      <trkpt lat="46.29879" lon="5.87564">
        <ele>1168.6</ele>
        <time>2021-10-17T12:07:10Z</time>
      </trkpt>
      <trkpt lat="46.29877" lon="5.87569">
        <ele>1168.6</ele>
        <time>2021-10-17T12:07:11Z</time>
      </trkpt>
      <trkpt lat="46.29875" lon="5.87575">
        <ele>1169</ele>
        <time>2021-10-17T12:07:12Z</time>
      </trkpt>
      <trkpt lat="46.29874" lon="5.87582">
        <ele>1169</ele>
        <time>2021-10-17T12:07:13Z</time>
      </trkpt>
      <trkpt lat="46.29874" lon="5.87588">
        <ele>1169.2</ele>
        <time>2021-10-17T12:07:14Z</time>
      </trkpt>
      <trkpt lat="46.29873" lon="5.87595">
        <ele>1169.2</ele>
        <time>2021-10-17T12:07:15Z</time>
      </trkpt>
      <trkpt lat="46.29874" lon="5.87602">
        <ele>1169.6</ele>
        <time>2021-10-17T12:07:16Z</time>
      </trkpt>
      <trkpt lat="46.29874" lon="5.87608">
        <ele>1169.6</ele>
        <time>2021-10-17T12:07:17Z</time>
      </trkpt>
      <trkpt lat="46.29875" lon="5.87615">
        <ele>1170</ele>
        <time>2021-10-17T12:07:18Z</time>
      </trkpt>
      <trkpt lat="46.29875" lon="5.87623">
        <ele>1170</ele>
        <time>2021-10-17T12:07:19Z</time>
      </trkpt>
      <trkpt lat="46.29876" lon="5.8763">
        <ele>1170.2</ele>
        <time>2021-10-17T12:07:20Z</time>
      </trkpt>
      <trkpt lat="46.29877" lon="5.87637">
        <ele>1170.2</ele>
        <time>2021-10-17T12:07:21Z</time>
      </trkpt>
      <trkpt lat="46.29878" lon="5.87643">
        <ele>1170.4</ele>
        <time>2021-10-17T12:07:22Z</time>
      </trkpt>
      <trkpt lat="46.2988" lon="5.8765">
        <ele>1170.4</ele>
        <time>2021-10-17T12:07:23Z</time>
      </trkpt>
      <trkpt lat="46.29881" lon="5.87656">
        <ele>1170.6</ele>
        <time>2021-10-17T12:07:24Z</time>
      </trkpt>
      <trkpt lat="46.29883" lon="5.87663">
        <ele>1170.6</ele>
        <time>2021-10-17T12:07:25Z</time>
      </trkpt>
      <trkpt lat="46.29884" lon="5.87669">
        <ele>1171</ele>
        <time>2021-10-17T12:07:26Z</time>
      </trkpt>
      <trkpt lat="46.29886" lon="5.87676">
        <ele>1171</ele>
        <time>2021-10-17T12:07:27Z</time>
      </trkpt>
      <trkpt lat="46.29887" lon="5.87682">
        <ele>1171.4</ele>
        <time>2021-10-17T12:07:28Z</time>
      </trkpt>
      <trkpt lat="46.29889" lon="5.87688">
        <ele>1171.4</ele>
        <time>2021-10-17T12:07:29Z</time>
      </trkpt>
      <trkpt lat="46.29891" lon="5.87694">
        <ele>1171.6</ele>
        <time>2021-10-17T12:07:30Z</time>
      </trkpt>
      <trkpt lat="46.29893" lon="5.877">
        <ele>1171.6</ele>
        <time>2021-10-17T12:07:31Z</time>
      </trkpt>
      <trkpt lat="46.29896" lon="5.87707">
        <ele>1171.8</ele>
        <time>2021-10-17T12:07:32Z</time>
      </trkpt>
      <trkpt lat="46.29898" lon="5.87713">
        <ele>1171.8</ele>
        <time>2021-10-17T12:07:33Z</time>
      </trkpt>
      <trkpt lat="46.299" lon="5.8772">
        <ele>1172</ele>
        <time>2021-10-17T12:07:34Z</time>
      </trkpt>
      <trkpt lat="46.29902" lon="5.87727">
        <ele>1172</ele>
        <time>2021-10-17T12:07:35Z</time>
      </trkpt>
      <trkpt lat="46.29904" lon="5.87733">
        <ele>1172</ele>
        <time>2021-10-17T12:07:36Z</time>
      </trkpt>
      <trkpt lat="46.29906" lon="5.87741">
        <ele>1172.4</ele>
        <time>2021-10-17T12:07:37Z</time>
      </trkpt>
      <trkpt lat="46.29908" lon="5.87748">
        <ele>1172.4</ele>
        <time>2021-10-17T12:07:38Z</time>
      </trkpt>
      <trkpt lat="46.2991" lon="5.87755">
        <ele>1172.4</ele>
        <time>2021-10-17T12:07:39Z</time>
      </trkpt>
      <trkpt lat="46.29911" lon="5.87762">
        <ele>1172.4</ele>
        <time>2021-10-17T12:07:40Z</time>
      </trkpt>
      <trkpt lat="46.29913" lon="5.8777">
        <ele>1172.4</ele>
        <time>2021-10-17T12:07:41Z</time>
      </trkpt>
      <trkpt lat="46.29914" lon="5.87778">
        <ele>1172.4</ele>
        <time>2021-10-17T12:07:42Z</time>
      </trkpt>
      <trkpt lat="46.29916" lon="5.87785">
        <ele>1172.4</ele>
        <time>2021-10-17T12:07:43Z</time>
      </trkpt>
      <trkpt lat="46.29916" lon="5.87794">
        <ele>1172.4</ele>
        <time>2021-10-17T12:07:44Z</time>
      </trkpt>
      <trkpt lat="46.29917" lon="5.87802">
        <ele>1172.4</ele>
        <time>2021-10-17T12:07:45Z</time>
      </trkpt>
      <trkpt lat="46.29918" lon="5.8781">
        <ele>1172.4</ele>
        <time>2021-10-17T12:07:46Z</time>
      </trkpt>
      <trkpt lat="46.29919" lon="5.87819">
        <ele>1172.4</ele>
        <time>2021-10-17T12:07:47Z</time>
      </trkpt>
      <trkpt lat="46.2992" lon="5.87827">
        <ele>1172.4</ele>
        <time>2021-10-17T12:07:48Z</time>
      </trkpt>
      <trkpt lat="46.29921" lon="5.87836">
        <ele>1172</ele>
        <time>2021-10-17T12:07:49Z</time>
      </trkpt>
      <trkpt lat="46.29923" lon="5.87845">
        <ele>1172</ele>
        <time>2021-10-17T12:07:50Z</time>
      </trkpt>
      <trkpt lat="46.29925" lon="5.87854">
        <ele>1172</ele>
        <time>2021-10-17T12:07:51Z</time>
      </trkpt>
      <trkpt lat="46.29928" lon="5.87863">
        <ele>1171.8</ele>
        <time>2021-10-17T12:07:52Z</time>
      </trkpt>
      <trkpt lat="46.2993" lon="5.87872">
        <ele>1171.8</ele>
        <time>2021-10-17T12:07:53Z</time>
      </trkpt>
      <trkpt lat="46.29933" lon="5.87882">
        <ele>1171.8</ele>
        <time>2021-10-17T12:07:54Z</time>
      </trkpt>
      <trkpt lat="46.29935" lon="5.87892">
        <ele>1171.8</ele>
        <time>2021-10-17T12:07:55Z</time>
      </trkpt>
      <trkpt lat="46.29938" lon="5.87901">
        <ele>1171.4</ele>
        <time>2021-10-17T12:07:56Z</time>
      </trkpt>
      <trkpt lat="46.29942" lon="5.8791">
        <ele>1171</ele>
        <time>2021-10-17T12:07:57Z</time>
      </trkpt>
      <trkpt lat="46.29945" lon="5.8792">
        <ele>1170.8</ele>
        <time>2021-10-17T12:07:58Z</time>
      </trkpt>
      <trkpt lat="46.29948" lon="5.87929">
        <ele>1170.8</ele>
        <time>2021-10-17T12:07:59Z</time>
      </trkpt>
      <trkpt lat="46.2995" lon="5.87938">
        <ele>1170.8</ele>
        <time>2021-10-17T12:08:00Z</time>
      </trkpt>
      <trkpt lat="46.29952" lon="5.87948">
        <ele>1170.6</ele>
        <time>2021-10-17T12:08:01Z</time>
      </trkpt>
      <trkpt lat="46.29954" lon="5.87957">
        <ele>1170.6</ele>
        <time>2021-10-17T12:08:02Z</time>
      </trkpt>
      <trkpt lat="46.29956" lon="5.87967">
        <ele>1170.4</ele>
        <time>2021-10-17T12:08:03Z</time>
      </trkpt>
      <trkpt lat="46.29958" lon="5.87977">
        <ele>1170.4</ele>
        <time>2021-10-17T12:08:04Z</time>
      </trkpt>
      <trkpt lat="46.2996" lon="5.87987">
        <ele>1170</ele>
        <time>2021-10-17T12:08:05Z</time>
      </trkpt>
      <trkpt lat="46.29962" lon="5.87996">
        <ele>1170</ele>
        <time>2021-10-17T12:08:06Z</time>
      </trkpt>
      <trkpt lat="46.29963" lon="5.88006">
        <ele>1170</ele>
        <time>2021-10-17T12:08:07Z</time>
      </trkpt>
      <trkpt lat="46.29965" lon="5.88016">
        <ele>1170</ele>
        <time>2021-10-17T12:08:08Z</time>
      </trkpt>
      <trkpt lat="46.29967" lon="5.88025">
        <ele>1170</ele>
        <time>2021-10-17T12:08:09Z</time>
      </trkpt>
      <trkpt lat="46.29968" lon="5.88034">
        <ele>1170</ele>
        <time>2021-10-17T12:08:10Z</time>
      </trkpt>
      <trkpt lat="46.2997" lon="5.88043">
        <ele>1169.8</ele>
        <time>2021-10-17T12:08:11Z</time>
      </trkpt>
      <trkpt lat="46.29972" lon="5.88053">
        <ele>1169.8</ele>
        <time>2021-10-17T12:08:12Z</time>
      </trkpt>
      <trkpt lat="46.29974" lon="5.88062">
        <ele>1169.8</ele>
        <time>2021-10-17T12:08:13Z</time>
      </trkpt>
      <trkpt lat="46.29976" lon="5.88071">
        <ele>1170.2</ele>
        <time>2021-10-17T12:08:14Z</time>
      </trkpt>
      <trkpt lat="46.29978" lon="5.88081">
        <ele>1170.2</ele>
        <time>2021-10-17T12:08:15Z</time>
      </trkpt>
      <trkpt lat="46.29979" lon="5.8809">
        <ele>1170.2</ele>
        <time>2021-10-17T12:08:16Z</time>
      </trkpt>
      <trkpt lat="46.29981" lon="5.88099">
        <ele>1170.2</ele>
        <time>2021-10-17T12:08:17Z</time>
      </trkpt>
      <trkpt lat="46.29983" lon="5.88108">
        <ele>1170.4</ele>
        <time>2021-10-17T12:08:18Z</time>
      </trkpt>
      <trkpt lat="46.29985" lon="5.88117">
        <ele>1170.4</ele>
        <time>2021-10-17T12:08:19Z</time>
      </trkpt>
      <trkpt lat="46.29987" lon="5.88126">
        <ele>1170.4</ele>
        <time>2021-10-17T12:08:20Z</time>
      </trkpt>
      <trkpt lat="46.29988" lon="5.88135">
        <ele>1170.4</ele>
        <time>2021-10-17T12:08:21Z</time>
      </trkpt>
      <trkpt lat="46.2999" lon="5.88144">
        <ele>1170.4</ele>
        <time>2021-10-17T12:08:22Z</time>
      </trkpt>
      <trkpt lat="46.29992" lon="5.88153">
        <ele>1170.4</ele>
        <time>2021-10-17T12:08:23Z</time>
      </trkpt>
      <trkpt lat="46.29994" lon="5.88161">
        <ele>1170.4</ele>
        <time>2021-10-17T12:08:24Z</time>
      </trkpt>
      <trkpt lat="46.29995" lon="5.8817">
        <ele>1170.4</ele>
        <time>2021-10-17T12:08:25Z</time>
      </trkpt>
      <trkpt lat="46.29997" lon="5.88178">
        <ele>1170.4</ele>
        <time>2021-10-17T12:08:26Z</time>
      </trkpt>
      <trkpt lat="46.29999" lon="5.88187">
        <ele>1170.4</ele>
        <time>2021-10-17T12:08:27Z</time>
      </trkpt>
      <trkpt lat="46.3" lon="5.88195">
        <ele>1170.4</ele>
        <time>2021-10-17T12:08:28Z</time>
      </trkpt>
      <trkpt lat="46.30002" lon="5.88204">
        <ele>1170.6</ele>
        <time>2021-10-17T12:08:29Z</time>
      </trkpt>
      <trkpt lat="46.30003" lon="5.88213">
        <ele>1170.6</ele>
        <time>2021-10-17T12:08:30Z</time>
      </trkpt>
      <trkpt lat="46.30005" lon="5.88222">
        <ele>1170.6</ele>
        <time>2021-10-17T12:08:31Z</time>
      </trkpt>
      <trkpt lat="46.30007" lon="5.8823">
        <ele>1170.8</ele>
        <time>2021-10-17T12:08:32Z</time>
      </trkpt>
      <trkpt lat="46.30008" lon="5.88239">
        <ele>1170.8</ele>
        <time>2021-10-17T12:08:33Z</time>
      </trkpt>
      <trkpt lat="46.3001" lon="5.88246">
        <ele>1170.8</ele>
        <time>2021-10-17T12:08:34Z</time>
      </trkpt>
      <trkpt lat="46.30011" lon="5.88252">
        <ele>1170.8</ele>
        <time>2021-10-17T12:08:35Z</time>
      </trkpt>
      <trkpt lat="46.30012" lon="5.88257">
        <ele>1170.8</ele>
        <time>2021-10-17T12:08:36Z</time>
      </trkpt>
      <trkpt lat="46.30013" lon="5.8826">
        <ele>1170.8</ele>
        <time>2021-10-17T12:08:37Z</time>
      </trkpt>
      <trkpt lat="46.30015" lon="5.88262">
        <ele>1170.8</ele>
        <time>2021-10-17T12:08:38Z</time>
      </trkpt>
      <trkpt lat="46.30017" lon="5.88261">
        <ele>1170.8</ele>
        <time>2021-10-17T12:08:39Z</time>
      </trkpt>
      <trkpt lat="46.30017" lon="5.8826">
        <ele>1170.8</ele>
        <time>2021-10-17T12:08:40Z</time>
      </trkpt>
      <trkpt lat="46.30017" lon="5.88259">
        <ele>1170.8</ele>
        <time>2021-10-17T12:08:41Z</time>
      </trkpt>
      <trkpt lat="46.30016" lon="5.88257">
        <ele>1170.8</ele>
        <time>2021-10-17T12:08:42Z</time>
      </trkpt>
      <trkpt lat="46.30016" lon="5.88257">
        <ele>1170.8</ele>
        <time>2021-10-17T12:08:43Z</time>
      </trkpt>
      <trkpt lat="46.30014" lon="5.88259">
        <ele>1171.2</ele>
        <time>2021-10-17T12:10:30Z</time>
      </trkpt>
      <trkpt lat="46.30013" lon="5.88261">
        <ele>1171.2</ele>
        <time>2021-10-17T12:10:31Z</time>
      </trkpt>
      <trkpt lat="46.30014" lon="5.88264">
        <ele>1171.2</ele>
        <time>2021-10-17T12:10:32Z</time>
      </trkpt>
      <trkpt lat="46.30014" lon="5.88267">
        <ele>1171.2</ele>
        <time>2021-10-17T12:10:33Z</time>
      </trkpt>
      <trkpt lat="46.30015" lon="5.8827">
        <ele>1171.2</ele>
        <time>2021-10-17T12:10:34Z</time>
      </trkpt>
      <trkpt lat="46.30016" lon="5.88274">
        <ele>1171</ele>
        <time>2021-10-17T12:10:35Z</time>
      </trkpt>
      <trkpt lat="46.30016" lon="5.88278">
        <ele>1171</ele>
        <time>2021-10-17T12:10:36Z</time>
      </trkpt>
      <trkpt lat="46.30017" lon="5.88283">
        <ele>1171</ele>
        <time>2021-10-17T12:10:37Z</time>
      </trkpt>
      <trkpt lat="46.30017" lon="5.88288">
        <ele>1171</ele>
        <time>2021-10-17T12:10:38Z</time>
      </trkpt>
      <trkpt lat="46.30018" lon="5.88293">
        <ele>1171</ele>
        <time>2021-10-17T12:10:39Z</time>
      </trkpt>
      <trkpt lat="46.30019" lon="5.88298">
        <ele>1171</ele>
        <time>2021-10-17T12:10:40Z</time>
      </trkpt>
      <trkpt lat="46.3002" lon="5.88304">
        <ele>1171</ele>
        <time>2021-10-17T12:10:41Z</time>
      </trkpt>
      <trkpt lat="46.30021" lon="5.8831">
        <ele>1171</ele>
        <time>2021-10-17T12:10:42Z</time>
      </trkpt>
      <trkpt lat="46.30022" lon="5.88316">
        <ele>1171</ele>
        <time>2021-10-17T12:10:43Z</time>
      </trkpt>
      <trkpt lat="46.30023" lon="5.88322">
        <ele>1171.4</ele>
        <time>2021-10-17T12:10:44Z</time>
      </trkpt>
      <trkpt lat="46.30024" lon="5.88329">
        <ele>1171.4</ele>
        <time>2021-10-17T12:10:45Z</time>
      </trkpt>
      <trkpt lat="46.30025" lon="5.88335">
        <ele>1171.4</ele>
        <time>2021-10-17T12:10:46Z</time>
      </trkpt>
      <trkpt lat="46.30026" lon="5.88343">
        <ele>1171.4</ele>
        <time>2021-10-17T12:10:47Z</time>
      </trkpt>
      <trkpt lat="46.30026" lon="5.8835">
        <ele>1171.4</ele>
        <time>2021-10-17T12:10:48Z</time>
      </trkpt>
      <trkpt lat="46.30027" lon="5.88358">
        <ele>1171.4</ele>
        <time>2021-10-17T12:10:49Z</time>
      </trkpt>
      <trkpt lat="46.30028" lon="5.88366">
        <ele>1171.4</ele>
        <time>2021-10-17T12:10:50Z</time>
      </trkpt>
      <trkpt lat="46.30029" lon="5.88373">
        <ele>1171.4</ele>
        <time>2021-10-17T12:10:51Z</time>
      </trkpt>
      <trkpt lat="46.3003" lon="5.88381">
        <ele>1171.4</ele>
        <time>2021-10-17T12:10:52Z</time>
      </trkpt>
      <trkpt lat="46.30032" lon="5.88389">
        <ele>1171.4</ele>
        <time>2021-10-17T12:10:53Z</time>
      </trkpt>
      <trkpt lat="46.30033" lon="5.88398">
        <ele>1171.4</ele>
        <time>2021-10-17T12:10:54Z</time>
      </trkpt>
      <trkpt lat="46.30035" lon="5.88406">
        <ele>1171.4</ele>
        <time>2021-10-17T12:10:55Z</time>
      </trkpt>
      <trkpt lat="46.30037" lon="5.88414">
        <ele>1171.4</ele>
        <time>2021-10-17T12:10:56Z</time>
      </trkpt>
      <trkpt lat="46.3004" lon="5.88422">
        <ele>1171.4</ele>
        <time>2021-10-17T12:10:57Z</time>
      </trkpt>
      <trkpt lat="46.30043" lon="5.88429">
        <ele>1171.4</ele>
        <time>2021-10-17T12:10:58Z</time>
      </trkpt>
      <trkpt lat="46.30046" lon="5.88437">
        <ele>1171.4</ele>
        <time>2021-10-17T12:10:59Z</time>
      </trkpt>
      <trkpt lat="46.3005" lon="5.88444">
        <ele>1171.4</ele>
        <time>2021-10-17T12:11:00Z</time>
      </trkpt>
      <trkpt lat="46.30053" lon="5.88452">
        <ele>1171.4</ele>
        <time>2021-10-17T12:11:01Z</time>
      </trkpt>
      <trkpt lat="46.30056" lon="5.88459">
        <ele>1171.4</ele>
        <time>2021-10-17T12:11:02Z</time>
      </trkpt>
      <trkpt lat="46.3006" lon="5.88466">
        <ele>1171.6</ele>
        <time>2021-10-17T12:11:03Z</time>
      </trkpt>
      <trkpt lat="46.30063" lon="5.88473">
        <ele>1171.6</ele>
        <time>2021-10-17T12:11:04Z</time>
      </trkpt>
      <trkpt lat="46.30066" lon="5.88481">
        <ele>1171.8</ele>
        <time>2021-10-17T12:11:05Z</time>
      </trkpt>
      <trkpt lat="46.3007" lon="5.88488">
        <ele>1171.8</ele>
        <time>2021-10-17T12:11:06Z</time>
      </trkpt>
      <trkpt lat="46.30073" lon="5.88495">
        <ele>1171.8</ele>
        <time>2021-10-17T12:11:07Z</time>
      </trkpt>
      <trkpt lat="46.30077" lon="5.88503">
        <ele>1171.8</ele>
        <time>2021-10-17T12:11:08Z</time>
      </trkpt>
      <trkpt lat="46.30081" lon="5.8851">
        <ele>1171.8</ele>
        <time>2021-10-17T12:11:09Z</time>
      </trkpt>
      <trkpt lat="46.30085" lon="5.88518">
        <ele>1171.8</ele>
        <time>2021-10-17T12:11:10Z</time>
      </trkpt>
      <trkpt lat="46.30089" lon="5.88526">
        <ele>1171.8</ele>
        <time>2021-10-17T12:11:11Z</time>
      </trkpt>
      <trkpt lat="46.30093" lon="5.88533">
        <ele>1172</ele>
        <time>2021-10-17T12:11:12Z</time>
      </trkpt>
      <trkpt lat="46.30097" lon="5.88541">
        <ele>1172</ele>
        <time>2021-10-17T12:11:13Z</time>
      </trkpt>
      <trkpt lat="46.30101" lon="5.88549">
        <ele>1172</ele>
        <time>2021-10-17T12:11:14Z</time>
      </trkpt>
      <trkpt lat="46.30105" lon="5.88557">
        <ele>1172</ele>
        <time>2021-10-17T12:11:15Z</time>
      </trkpt>
      <trkpt lat="46.30109" lon="5.88564">
        <ele>1172</ele>
        <time>2021-10-17T12:11:16Z</time>
      </trkpt>
      <trkpt lat="46.30113" lon="5.88572">
        <ele>1172</ele>
        <time>2021-10-17T12:11:17Z</time>
      </trkpt>
      <trkpt lat="46.30118" lon="5.88579">
        <ele>1172</ele>
        <time>2021-10-17T12:11:18Z</time>
      </trkpt>
      <trkpt lat="46.30122" lon="5.88586">
        <ele>1172</ele>
        <time>2021-10-17T12:11:19Z</time>
      </trkpt>
      <trkpt lat="46.30127" lon="5.88593">
        <ele>1172</ele>
        <time>2021-10-17T12:11:20Z</time>
      </trkpt>
      <trkpt lat="46.30132" lon="5.886">
        <ele>1172</ele>
        <time>2021-10-17T12:11:21Z</time>
      </trkpt>
      <trkpt lat="46.30136" lon="5.88606">
        <ele>1172</ele>
        <time>2021-10-17T12:11:22Z</time>
      </trkpt>
      <trkpt lat="46.30141" lon="5.88613">
        <ele>1172</ele>
        <time>2021-10-17T12:11:23Z</time>
      </trkpt>
      <trkpt lat="46.30146" lon="5.88619">
        <ele>1172</ele>
        <time>2021-10-17T12:11:24Z</time>
      </trkpt>
      <trkpt lat="46.30151" lon="5.88626">
        <ele>1172</ele>
        <time>2021-10-17T12:11:25Z</time>
      </trkpt>
      <trkpt lat="46.30155" lon="5.88632">
        <ele>1172.2</ele>
        <time>2021-10-17T12:11:26Z</time>
      </trkpt>
      <trkpt lat="46.3016" lon="5.88638">
        <ele>1172.2</ele>
        <time>2021-10-17T12:11:27Z</time>
      </trkpt>
      <trkpt lat="46.30165" lon="5.88644">
        <ele>1172.2</ele>
        <time>2021-10-17T12:11:28Z</time>
      </trkpt>
      <trkpt lat="46.3017" lon="5.8865">
        <ele>1172.2</ele>
        <time>2021-10-17T12:11:29Z</time>
      </trkpt>
      <trkpt lat="46.30175" lon="5.88656">
        <ele>1172.2</ele>
        <time>2021-10-17T12:11:30Z</time>
      </trkpt>
      <trkpt lat="46.3018" lon="5.88661">
        <ele>1172.2</ele>
        <time>2021-10-17T12:11:31Z</time>
      </trkpt>
      <trkpt lat="46.30185" lon="5.88667">
        <ele>1172.2</ele>
        <time>2021-10-17T12:11:32Z</time>
      </trkpt>
      <trkpt lat="46.3019" lon="5.88673">
        <ele>1172.2</ele>
        <time>2021-10-17T12:11:33Z</time>
      </trkpt>
      <trkpt lat="46.30195" lon="5.88679">
        <ele>1172.2</ele>
        <time>2021-10-17T12:11:34Z</time>
      </trkpt>
      <trkpt lat="46.302" lon="5.88685">
        <ele>1172.2</ele>
        <time>2021-10-17T12:11:35Z</time>
      </trkpt>
      <trkpt lat="46.30205" lon="5.88691">
        <ele>1172.6</ele>
        <time>2021-10-17T12:11:36Z</time>
      </trkpt>
      <trkpt lat="46.3021" lon="5.88697">
        <ele>1172.6</ele>
        <time>2021-10-17T12:11:37Z</time>
      </trkpt>
      <trkpt lat="46.30214" lon="5.88703">
        <ele>1172.6</ele>
        <time>2021-10-17T12:11:38Z</time>
      </trkpt>
      <trkpt lat="46.30219" lon="5.88709">
        <ele>1172.8</ele>
        <time>2021-10-17T12:11:39Z</time>
      </trkpt>
      <trkpt lat="46.30223" lon="5.88716">
        <ele>1172.8</ele>
        <time>2021-10-17T12:11:40Z</time>
      </trkpt>
      <trkpt lat="46.30228" lon="5.88722">
        <ele>1172.8</ele>
        <time>2021-10-17T12:11:41Z</time>
      </trkpt>
      <trkpt lat="46.30233" lon="5.88728">
        <ele>1172.8</ele>
        <time>2021-10-17T12:11:42Z</time>
      </trkpt>
      <trkpt lat="46.30237" lon="5.88734">
        <ele>1173</ele>
        <time>2021-10-17T12:11:43Z</time>
      </trkpt>
      <trkpt lat="46.30242" lon="5.8874">
        <ele>1173</ele>
        <time>2021-10-17T12:11:44Z</time>
      </trkpt>
      <trkpt lat="46.30246" lon="5.88746">
        <ele>1173</ele>
        <time>2021-10-17T12:11:45Z</time>
      </trkpt>
      <trkpt lat="46.30251" lon="5.88751">
        <ele>1173.4</ele>
        <time>2021-10-17T12:11:46Z</time>
      </trkpt>
      <trkpt lat="46.30255" lon="5.88756">
        <ele>1173.4</ele>
        <time>2021-10-17T12:11:47Z</time>
      </trkpt>
      <trkpt lat="46.30259" lon="5.88761">
        <ele>1173.4</ele>
        <time>2021-10-17T12:11:48Z</time>
      </trkpt>
      <trkpt lat="46.30264" lon="5.88766">
        <ele>1173.8</ele>
        <time>2021-10-17T12:11:49Z</time>
      </trkpt>
      <trkpt lat="46.30268" lon="5.88771">
        <ele>1173.8</ele>
        <time>2021-10-17T12:11:50Z</time>
      </trkpt>
      <trkpt lat="46.30272" lon="5.88776">
        <ele>1174</ele>
        <time>2021-10-17T12:11:51Z</time>
      </trkpt>
      <trkpt lat="46.30276" lon="5.88781">
        <ele>1174</ele>
        <time>2021-10-17T12:11:52Z</time>
      </trkpt>
      <trkpt lat="46.30281" lon="5.88785">
        <ele>1174</ele>
        <time>2021-10-17T12:11:53Z</time>
      </trkpt>
      <trkpt lat="46.30286" lon="5.88788">
        <ele>1174.4</ele>
        <time>2021-10-17T12:11:54Z</time>
      </trkpt>
      <trkpt lat="46.30291" lon="5.88792">
        <ele>1174.6</ele>
        <time>2021-10-17T12:11:55Z</time>
      </trkpt>
      <trkpt lat="46.30296" lon="5.88795">
        <ele>1174.6</ele>
        <time>2021-10-17T12:11:56Z</time>
      </trkpt>
      <trkpt lat="46.303" lon="5.88798">
        <ele>1174.8</ele>
        <time>2021-10-17T12:11:57Z</time>
      </trkpt>
      <trkpt lat="46.30305" lon="5.88801">
        <ele>1175</ele>
        <time>2021-10-17T12:11:58Z</time>
      </trkpt>
      <trkpt lat="46.3031" lon="5.88804">
        <ele>1175</ele>
        <time>2021-10-17T12:11:59Z</time>
      </trkpt>
      <trkpt lat="46.30314" lon="5.88808">
        <ele>1175.4</ele>
        <time>2021-10-17T12:12:00Z</time>
      </trkpt>
      <trkpt lat="46.30319" lon="5.88811">
        <ele>1175.4</ele>
        <time>2021-10-17T12:12:01Z</time>
      </trkpt>
      <trkpt lat="46.30323" lon="5.88815">
        <ele>1175.8</ele>
        <time>2021-10-17T12:12:02Z</time>
      </trkpt>
      <trkpt lat="46.30327" lon="5.88818">
        <ele>1176</ele>
        <time>2021-10-17T12:12:03Z</time>
      </trkpt>
      <trkpt lat="46.30332" lon="5.88821">
        <ele>1176.4</ele>
        <time>2021-10-17T12:12:04Z</time>
      </trkpt>
      <trkpt lat="46.30336" lon="5.88825">
        <ele>1176.6</ele>
        <time>2021-10-17T12:12:05Z</time>
      </trkpt>
      <trkpt lat="46.3034" lon="5.88829">
        <ele>1176.8</ele>
        <time>2021-10-17T12:12:06Z</time>
      </trkpt>
      <trkpt lat="46.30344" lon="5.88833">
        <ele>1177</ele>
        <time>2021-10-17T12:12:07Z</time>
      </trkpt>
      <trkpt lat="46.30348" lon="5.88837">
        <ele>1177.4</ele>
        <time>2021-10-17T12:12:08Z</time>
      </trkpt>
      <trkpt lat="46.30352" lon="5.88841">
        <ele>1177.6</ele>
        <time>2021-10-17T12:12:09Z</time>
      </trkpt>
      <trkpt lat="46.30356" lon="5.88845">
        <ele>1177.6</ele>
        <time>2021-10-17T12:12:10Z</time>
      </trkpt>
      <trkpt lat="46.30359" lon="5.8885">
        <ele>1177.8</ele>
        <time>2021-10-17T12:12:11Z</time>
      </trkpt>
      <trkpt lat="46.30363" lon="5.88855">
        <ele>1177.8</ele>
        <time>2021-10-17T12:12:12Z</time>
      </trkpt>
      <trkpt lat="46.30366" lon="5.8886">
        <ele>1178</ele>
        <time>2021-10-17T12:12:13Z</time>
      </trkpt>
      <trkpt lat="46.30369" lon="5.88865">
        <ele>1178</ele>
        <time>2021-10-17T12:12:14Z</time>
      </trkpt>
      <trkpt lat="46.30372" lon="5.88871">
        <ele>1178.4</ele>
        <time>2021-10-17T12:12:15Z</time>
      </trkpt>
      <trkpt lat="46.30375" lon="5.88876">
        <ele>1178.4</ele>
        <time>2021-10-17T12:12:16Z</time>
      </trkpt>
      <trkpt lat="46.30377" lon="5.88882">
        <ele>1178.6</ele>
        <time>2021-10-17T12:12:17Z</time>
      </trkpt>
      <trkpt lat="46.30381" lon="5.88887">
        <ele>1178.6</ele>
        <time>2021-10-17T12:12:18Z</time>
      </trkpt>
      <trkpt lat="46.30384" lon="5.88892">
        <ele>1178.8</ele>
        <time>2021-10-17T12:12:19Z</time>
      </trkpt>
      <trkpt lat="46.30387" lon="5.88897">
        <ele>1179</ele>
        <time>2021-10-17T12:12:20Z</time>
      </trkpt>
      <trkpt lat="46.30391" lon="5.88902">
        <ele>1179</ele>
        <time>2021-10-17T12:12:21Z</time>
      </trkpt>
      <trkpt lat="46.30395" lon="5.88906">
        <ele>1179.2</ele>
        <time>2021-10-17T12:12:22Z</time>
      </trkpt>
      <trkpt lat="46.304" lon="5.88909">
        <ele>1179.2</ele>
        <time>2021-10-17T12:12:23Z</time>
      </trkpt>
      <trkpt lat="46.30404" lon="5.88912">
        <ele>1179.2</ele>
        <time>2021-10-17T12:12:24Z</time>
      </trkpt>
      <trkpt lat="46.30409" lon="5.88914">
        <ele>1179.2</ele>
        <time>2021-10-17T12:12:25Z</time>
      </trkpt>
      <trkpt lat="46.30414" lon="5.88915">
        <ele>1179.2</ele>
        <time>2021-10-17T12:12:26Z</time>
      </trkpt>
      <trkpt lat="46.30419" lon="5.88916">
        <ele>1179.6</ele>
        <time>2021-10-17T12:12:27Z</time>
      </trkpt>
      <trkpt lat="46.30424" lon="5.88915">
        <ele>1179.6</ele>
        <time>2021-10-17T12:12:28Z</time>
      </trkpt>
      <trkpt lat="46.30429" lon="5.88915">
        <ele>1179.6</ele>
        <time>2021-10-17T12:12:29Z</time>
      </trkpt>
      <trkpt lat="46.30435" lon="5.88914">
        <ele>1179.8</ele>
        <time>2021-10-17T12:12:30Z</time>
      </trkpt>
      <trkpt lat="46.3044" lon="5.88913">
        <ele>1179.8</ele>
        <time>2021-10-17T12:12:31Z</time>
      </trkpt>
      <trkpt lat="46.30445" lon="5.88912">
        <ele>1179.8</ele>
        <time>2021-10-17T12:12:32Z</time>
      </trkpt>
      <trkpt lat="46.3045" lon="5.88911">
        <ele>1179.8</ele>
        <time>2021-10-17T12:12:33Z</time>
      </trkpt>
      <trkpt lat="46.30456" lon="5.8891">
        <ele>1179.8</ele>
        <time>2021-10-17T12:12:34Z</time>
      </trkpt>
      <trkpt lat="46.30461" lon="5.88909">
        <ele>1180</ele>
        <time>2021-10-17T12:12:35Z</time>
      </trkpt>
      <trkpt lat="46.30466" lon="5.88908">
        <ele>1180</ele>
        <time>2021-10-17T12:12:36Z</time>
      </trkpt>
      <trkpt lat="46.30471" lon="5.88907">
        <ele>1180</ele>
        <time>2021-10-17T12:12:37Z</time>
      </trkpt>
      <trkpt lat="46.30476" lon="5.88906">
        <ele>1180</ele>
        <time>2021-10-17T12:12:38Z</time>
      </trkpt>
      <trkpt lat="46.30482" lon="5.88905">
        <ele>1180</ele>
        <time>2021-10-17T12:12:39Z</time>
      </trkpt>
      <trkpt lat="46.30487" lon="5.88904">
        <ele>1180.4</ele>
        <time>2021-10-17T12:12:40Z</time>
      </trkpt>
      <trkpt lat="46.30492" lon="5.88903">
        <ele>1180.4</ele>
        <time>2021-10-17T12:12:41Z</time>
      </trkpt>
      <trkpt lat="46.30497" lon="5.88902">
        <ele>1180.6</ele>
        <time>2021-10-17T12:12:42Z</time>
      </trkpt>
      <trkpt lat="46.30502" lon="5.88902">
        <ele>1180.6</ele>
        <time>2021-10-17T12:12:43Z</time>
      </trkpt>
      <trkpt lat="46.30507" lon="5.88901">
        <ele>1180.6</ele>
        <time>2021-10-17T12:12:44Z</time>
      </trkpt>
      <trkpt lat="46.30512" lon="5.88901">
        <ele>1181</ele>
        <time>2021-10-17T12:12:45Z</time>
      </trkpt>
      <trkpt lat="46.30517" lon="5.88902">
        <ele>1181</ele>
        <time>2021-10-17T12:12:46Z</time>
      </trkpt>
      <trkpt lat="46.30522" lon="5.88902">
        <ele>1181</ele>
        <time>2021-10-17T12:12:47Z</time>
      </trkpt>
      <trkpt lat="46.30527" lon="5.88902">
        <ele>1181.2</ele>
        <time>2021-10-17T12:12:48Z</time>
      </trkpt>
      <trkpt lat="46.30533" lon="5.88902">
        <ele>1181.2</ele>
        <time>2021-10-17T12:12:49Z</time>
      </trkpt>
      <trkpt lat="46.30538" lon="5.88903">
        <ele>1181.2</ele>
        <time>2021-10-17T12:12:50Z</time>
      </trkpt>
      <trkpt lat="46.30543" lon="5.88903">
        <ele>1181.2</ele>
        <time>2021-10-17T12:12:51Z</time>
      </trkpt>
      <trkpt lat="46.30548" lon="5.88904">
        <ele>1181.2</ele>
        <time>2021-10-17T12:12:52Z</time>
      </trkpt>
      <trkpt lat="46.30553" lon="5.88904">
        <ele>1181.4</ele>
        <time>2021-10-17T12:12:53Z</time>
      </trkpt>
      <trkpt lat="46.30559" lon="5.88904">
        <ele>1181.4</ele>
        <time>2021-10-17T12:12:54Z</time>
      </trkpt>
      <trkpt lat="46.30564" lon="5.88904">
        <ele>1181.4</ele>
        <time>2021-10-17T12:12:55Z</time>
      </trkpt>
      <trkpt lat="46.30569" lon="5.88904">
        <ele>1181.8</ele>
        <time>2021-10-17T12:12:56Z</time>
      </trkpt>
      <trkpt lat="46.30574" lon="5.88903">
        <ele>1181.8</ele>
        <time>2021-10-17T12:12:57Z</time>
      </trkpt>
      <trkpt lat="46.30579" lon="5.88902">
        <ele>1181.8</ele>
        <time>2021-10-17T12:12:58Z</time>
      </trkpt>
      <trkpt lat="46.30585" lon="5.88901">
        <ele>1182</ele>
        <time>2021-10-17T12:12:59Z</time>
      </trkpt>
      <trkpt lat="46.30591" lon="5.88898">
        <ele>1182</ele>
        <time>2021-10-17T12:13:00Z</time>
      </trkpt>
      <trkpt lat="46.30597" lon="5.88895">
        <ele>1182</ele>
        <time>2021-10-17T12:13:01Z</time>
      </trkpt>
      <trkpt lat="46.30604" lon="5.88892">
        <ele>1181.8</ele>
        <time>2021-10-17T12:13:02Z</time>
      </trkpt>
      <trkpt lat="46.3061" lon="5.88887">
        <ele>1181.8</ele>
        <time>2021-10-17T12:13:03Z</time>
      </trkpt>
      <trkpt lat="46.30617" lon="5.88882">
        <ele>1181.4</ele>
        <time>2021-10-17T12:13:04Z</time>
      </trkpt>
      <trkpt lat="46.30624" lon="5.88876">
        <ele>1181.4</ele>
        <time>2021-10-17T12:13:05Z</time>
      </trkpt>
      <trkpt lat="46.30631" lon="5.8887">
        <ele>1181</ele>
        <time>2021-10-17T12:13:06Z</time>
      </trkpt>
      <trkpt lat="46.30638" lon="5.88863">
        <ele>1180.8</ele>
        <time>2021-10-17T12:13:07Z</time>
      </trkpt>
      <trkpt lat="46.30645" lon="5.88857">
        <ele>1180.6</ele>
        <time>2021-10-17T12:13:08Z</time>
      </trkpt>
      <trkpt lat="46.30652" lon="5.88851">
        <ele>1180.6</ele>
        <time>2021-10-17T12:13:09Z</time>
      </trkpt>
      <trkpt lat="46.30659" lon="5.88844">
        <ele>1180.2</ele>
        <time>2021-10-17T12:13:10Z</time>
      </trkpt>
      <trkpt lat="46.30666" lon="5.88838">
        <ele>1180.2</ele>
        <time>2021-10-17T12:13:11Z</time>
      </trkpt>
      <trkpt lat="46.30673" lon="5.88832">
        <ele>1180.2</ele>
        <time>2021-10-17T12:13:12Z</time>
      </trkpt>
      <trkpt lat="46.3068" lon="5.88825">
        <ele>1180</ele>
        <time>2021-10-17T12:13:13Z</time>
      </trkpt>
      <trkpt lat="46.30687" lon="5.88818">
        <ele>1180</ele>
        <time>2021-10-17T12:13:14Z</time>
      </trkpt>
      <trkpt lat="46.30693" lon="5.88812">
        <ele>1180</ele>
        <time>2021-10-17T12:13:15Z</time>
      </trkpt>
      <trkpt lat="46.307" lon="5.88805">
        <ele>1179.8</ele>
        <time>2021-10-17T12:13:16Z</time>
      </trkpt>
      <trkpt lat="46.30707" lon="5.88799">
        <ele>1179.8</ele>
        <time>2021-10-17T12:13:17Z</time>
      </trkpt>
      <trkpt lat="46.30714" lon="5.88793">
        <ele>1179.4</ele>
        <time>2021-10-17T12:13:18Z</time>
      </trkpt>
      <trkpt lat="46.30721" lon="5.88786">
        <ele>1179.4</ele>
        <time>2021-10-17T12:13:19Z</time>
      </trkpt>
      <trkpt lat="46.30727" lon="5.8878">
        <ele>1179.4</ele>
        <time>2021-10-17T12:13:20Z</time>
      </trkpt>
      <trkpt lat="46.30734" lon="5.88774">
        <ele>1179.4</ele>
        <time>2021-10-17T12:13:21Z</time>
      </trkpt>
      <trkpt lat="46.30741" lon="5.88768">
        <ele>1179</ele>
        <time>2021-10-17T12:13:22Z</time>
      </trkpt>
      <trkpt lat="46.30748" lon="5.88763">
        <ele>1179</ele>
        <time>2021-10-17T12:13:23Z</time>
      </trkpt>
      <trkpt lat="46.30755" lon="5.88758">
        <ele>1179</ele>
        <time>2021-10-17T12:13:24Z</time>
      </trkpt>
      <trkpt lat="46.30761" lon="5.88753">
        <ele>1179</ele>
        <time>2021-10-17T12:13:25Z</time>
      </trkpt>
      <trkpt lat="46.30767" lon="5.88748">
        <ele>1179</ele>
        <time>2021-10-17T12:13:26Z</time>
      </trkpt>
      <trkpt lat="46.30772" lon="5.88745">
        <ele>1179</ele>
        <time>2021-10-17T12:13:27Z</time>
      </trkpt>
      <trkpt lat="46.30778" lon="5.88741">
        <ele>1179</ele>
        <time>2021-10-17T12:13:28Z</time>
      </trkpt>
      <trkpt lat="46.30783" lon="5.88738">
        <ele>1179.4</ele>
        <time>2021-10-17T12:13:29Z</time>
      </trkpt>
      <trkpt lat="46.30788" lon="5.88734">
        <ele>1179.4</ele>
        <time>2021-10-17T12:13:30Z</time>
      </trkpt>
      <trkpt lat="46.30792" lon="5.88732">
        <ele>1179.8</ele>
        <time>2021-10-17T12:13:31Z</time>
      </trkpt>
      <trkpt lat="46.30796" lon="5.88729">
        <ele>1180.2</ele>
        <time>2021-10-17T12:13:32Z</time>
      </trkpt>
      <trkpt lat="46.308" lon="5.88727">
        <ele>1180.4</ele>
        <time>2021-10-17T12:13:33Z</time>
      </trkpt>
      <trkpt lat="46.30804" lon="5.88725">
        <ele>1180.4</ele>
        <time>2021-10-17T12:13:34Z</time>
      </trkpt>
      <trkpt lat="46.30808" lon="5.88723">
        <ele>1180.8</ele>
        <time>2021-10-17T12:13:35Z</time>
      </trkpt>
      <trkpt lat="46.30812" lon="5.88721">
        <ele>1180.8</ele>
        <time>2021-10-17T12:13:36Z</time>
      </trkpt>
      <trkpt lat="46.30816" lon="5.8872">
        <ele>1181.2</ele>
        <time>2021-10-17T12:13:37Z</time>
      </trkpt>
      <trkpt lat="46.30819" lon="5.88718">
        <ele>1181.2</ele>
        <time>2021-10-17T12:13:38Z</time>
      </trkpt>
      <trkpt lat="46.30823" lon="5.88716">
        <ele>1181.6</ele>
        <time>2021-10-17T12:13:39Z</time>
      </trkpt>
      <trkpt lat="46.30826" lon="5.88715">
        <ele>1181.6</ele>
        <time>2021-10-17T12:13:40Z</time>
      </trkpt>
      <trkpt lat="46.3083" lon="5.88713">
        <ele>1182</ele>
        <time>2021-10-17T12:13:41Z</time>
      </trkpt>
      <trkpt lat="46.30834" lon="5.88711">
        <ele>1182.2</ele>
        <time>2021-10-17T12:13:42Z</time>
      </trkpt>
      <trkpt lat="46.30837" lon="5.8871">
        <ele>1182.4</ele>
        <time>2021-10-17T12:13:43Z</time>
      </trkpt>
      <trkpt lat="46.30841" lon="5.88708">
        <ele>1182.8</ele>
        <time>2021-10-17T12:13:44Z</time>
      </trkpt>
      <trkpt lat="46.30844" lon="5.88707">
        <ele>1183</ele>
        <time>2021-10-17T12:13:45Z</time>
      </trkpt>
      <trkpt lat="46.30848" lon="5.88705">
        <ele>1183</ele>
        <time>2021-10-17T12:13:46Z</time>
      </trkpt>
      <trkpt lat="46.30851" lon="5.88703">
        <ele>1183.4</ele>
        <time>2021-10-17T12:13:47Z</time>
      </trkpt>
      <trkpt lat="46.30855" lon="5.88702">
        <ele>1183.4</ele>
        <time>2021-10-17T12:13:48Z</time>
      </trkpt>
      <trkpt lat="46.30858" lon="5.887">
        <ele>1183.8</ele>
        <time>2021-10-17T12:13:49Z</time>
      </trkpt>
      <trkpt lat="46.30862" lon="5.88699">
        <ele>1183.8</ele>
        <time>2021-10-17T12:13:50Z</time>
      </trkpt>
      <trkpt lat="46.30865" lon="5.88697">
        <ele>1184</ele>
        <time>2021-10-17T12:13:51Z</time>
      </trkpt>
      <trkpt lat="46.30869" lon="5.88695">
        <ele>1184</ele>
        <time>2021-10-17T12:13:52Z</time>
      </trkpt>
      <trkpt lat="46.30872" lon="5.88694">
        <ele>1184.2</ele>
        <time>2021-10-17T12:13:53Z</time>
      </trkpt>
      <trkpt lat="46.30876" lon="5.88692">
        <ele>1184.2</ele>
        <time>2021-10-17T12:13:54Z</time>
      </trkpt>
      <trkpt lat="46.30879" lon="5.88691">
        <ele>1184.4</ele>
        <time>2021-10-17T12:13:55Z</time>
      </trkpt>
      <trkpt lat="46.30883" lon="5.88689">
        <ele>1184.8</ele>
        <time>2021-10-17T12:13:56Z</time>
      </trkpt>
      <trkpt lat="46.30886" lon="5.88688">
        <ele>1184.8</ele>
        <time>2021-10-17T12:13:57Z</time>
      </trkpt>
      <trkpt lat="46.3089" lon="5.88686">
        <ele>1184.8</ele>
        <time>2021-10-17T12:13:58Z</time>
      </trkpt>
      <trkpt lat="46.30893" lon="5.88685">
        <ele>1185.2</ele>
        <time>2021-10-17T12:13:59Z</time>
      </trkpt>
      <trkpt lat="46.30896" lon="5.88683">
        <ele>1185.2</ele>
        <time>2021-10-17T12:14:00Z</time>
      </trkpt>
      <trkpt lat="46.309" lon="5.88681">
        <ele>1185.4</ele>
        <time>2021-10-17T12:14:01Z</time>
      </trkpt>
      <trkpt lat="46.30903" lon="5.88679">
        <ele>1185.8</ele>
        <time>2021-10-17T12:14:02Z</time>
      </trkpt>
      <trkpt lat="46.30906" lon="5.88678">
        <ele>1186</ele>
        <time>2021-10-17T12:14:03Z</time>
      </trkpt>
      <trkpt lat="46.30909" lon="5.88676">
        <ele>1186</ele>
        <time>2021-10-17T12:14:04Z</time>
      </trkpt>
      <trkpt lat="46.30913" lon="5.88675">
        <ele>1186.4</ele>
        <time>2021-10-17T12:14:05Z</time>
      </trkpt>
      <trkpt lat="46.30916" lon="5.88674">
        <ele>1186.6</ele>
        <time>2021-10-17T12:14:06Z</time>
      </trkpt>
      <trkpt lat="46.30919" lon="5.88673">
        <ele>1186.6</ele>
        <time>2021-10-17T12:14:07Z</time>
      </trkpt>
      <trkpt lat="46.30922" lon="5.88671">
        <ele>1187</ele>
        <time>2021-10-17T12:14:08Z</time>
      </trkpt>
      <trkpt lat="46.30925" lon="5.88669">
        <ele>1187.2</ele>
        <time>2021-10-17T12:14:09Z</time>
      </trkpt>
      <trkpt lat="46.30928" lon="5.88667">
        <ele>1187.4</ele>
        <time>2021-10-17T12:14:10Z</time>
      </trkpt>
      <trkpt lat="46.30931" lon="5.88666">
        <ele>1187.6</ele>
        <time>2021-10-17T12:14:11Z</time>
      </trkpt>
      <trkpt lat="46.30935" lon="5.88665">
        <ele>1187.8</ele>
        <time>2021-10-17T12:14:12Z</time>
      </trkpt>
      <trkpt lat="46.30938" lon="5.88663">
        <ele>1187.8</ele>
        <time>2021-10-17T12:14:13Z</time>
      </trkpt>
      <trkpt lat="46.30941" lon="5.88662">
        <ele>1188.2</ele>
        <time>2021-10-17T12:14:14Z</time>
      </trkpt>
      <trkpt lat="46.30944" lon="5.8866">
        <ele>1188.2</ele>
        <time>2021-10-17T12:14:15Z</time>
      </trkpt>
      <trkpt lat="46.30947" lon="5.88658">
        <ele>1188.6</ele>
        <time>2021-10-17T12:14:16Z</time>
      </trkpt>
      <trkpt lat="46.3095" lon="5.88657">
        <ele>1188.8</ele>
        <time>2021-10-17T12:14:17Z</time>
      </trkpt>
      <trkpt lat="46.30954" lon="5.88656">
        <ele>1188.8</ele>
        <time>2021-10-17T12:14:18Z</time>
      </trkpt>
      <trkpt lat="46.30957" lon="5.88654">
        <ele>1189.2</ele>
        <time>2021-10-17T12:14:19Z</time>
      </trkpt>
      <trkpt lat="46.3096" lon="5.88652">
        <ele>1189.2</ele>
        <time>2021-10-17T12:14:20Z</time>
      </trkpt>
      <trkpt lat="46.30963" lon="5.88651">
        <ele>1189.6</ele>
        <time>2021-10-17T12:14:21Z</time>
      </trkpt>
      <trkpt lat="46.30966" lon="5.8865">
        <ele>1189.8</ele>
        <time>2021-10-17T12:14:22Z</time>
      </trkpt>
      <trkpt lat="46.3097" lon="5.88649">
        <ele>1190.2</ele>
        <time>2021-10-17T12:14:23Z</time>
      </trkpt>
      <trkpt lat="46.30973" lon="5.88647">
        <ele>1190.2</ele>
        <time>2021-10-17T12:14:24Z</time>
      </trkpt>
      <trkpt lat="46.30976" lon="5.88646">
        <ele>1190.6</ele>
        <time>2021-10-17T12:14:25Z</time>
      </trkpt>
      <trkpt lat="46.3098" lon="5.88644">
        <ele>1190.8</ele>
        <time>2021-10-17T12:14:26Z</time>
      </trkpt>
      <trkpt lat="46.30983" lon="5.88643">
        <ele>1190.8</ele>
        <time>2021-10-17T12:14:27Z</time>
      </trkpt>
      <trkpt lat="46.30986" lon="5.88641">
        <ele>1191</ele>
        <time>2021-10-17T12:14:28Z</time>
      </trkpt>
      <trkpt lat="46.3099" lon="5.88639">
        <ele>1191</ele>
        <time>2021-10-17T12:14:29Z</time>
      </trkpt>
      <trkpt lat="46.30993" lon="5.88638">
        <ele>1191.4</ele>
        <time>2021-10-17T12:14:30Z</time>
      </trkpt>
      <trkpt lat="46.30996" lon="5.88636">
        <ele>1191.4</ele>
        <time>2021-10-17T12:14:31Z</time>
      </trkpt>
      <trkpt lat="46.30999" lon="5.88635">
        <ele>1191.8</ele>
        <time>2021-10-17T12:14:32Z</time>
      </trkpt>
      <trkpt lat="46.31003" lon="5.88634">
        <ele>1191.8</ele>
        <time>2021-10-17T12:14:33Z</time>
      </trkpt>
      <trkpt lat="46.31006" lon="5.88633">
        <ele>1192</ele>
        <time>2021-10-17T12:14:34Z</time>
      </trkpt>
      <trkpt lat="46.31009" lon="5.88631">
        <ele>1192.4</ele>
        <time>2021-10-17T12:14:35Z</time>
      </trkpt>
      <trkpt lat="46.31013" lon="5.8863">
        <ele>1192.4</ele>
        <time>2021-10-17T12:14:36Z</time>
      </trkpt>
      <trkpt lat="46.31016" lon="5.88628">
        <ele>1192.6</ele>
        <time>2021-10-17T12:14:37Z</time>
      </trkpt>
      <trkpt lat="46.3102" lon="5.88626">
        <ele>1192.8</ele>
        <time>2021-10-17T12:14:38Z</time>
      </trkpt>
      <trkpt lat="46.31023" lon="5.88624">
        <ele>1193</ele>
        <time>2021-10-17T12:14:39Z</time>
      </trkpt>
      <trkpt lat="46.31027" lon="5.88622">
        <ele>1193.4</ele>
        <time>2021-10-17T12:14:40Z</time>
      </trkpt>
      <trkpt lat="46.3103" lon="5.88621">
        <ele>1193.4</ele>
        <time>2021-10-17T12:14:41Z</time>
      </trkpt>
      <trkpt lat="46.31034" lon="5.8862">
        <ele>1193.4</ele>
        <time>2021-10-17T12:14:42Z</time>
      </trkpt>
      <trkpt lat="46.31037" lon="5.88618">
        <ele>1193.6</ele>
        <time>2021-10-17T12:14:43Z</time>
      </trkpt>
      <trkpt lat="46.31041" lon="5.88616">
        <ele>1193.6</ele>
        <time>2021-10-17T12:14:44Z</time>
      </trkpt>
      <trkpt lat="46.31045" lon="5.88615">
        <ele>1193.6</ele>
        <time>2021-10-17T12:14:45Z</time>
      </trkpt>
      <trkpt lat="46.31048" lon="5.88613">
        <ele>1193.6</ele>
        <time>2021-10-17T12:14:46Z</time>
      </trkpt>
      <trkpt lat="46.31052" lon="5.88612">
        <ele>1193.8</ele>
        <time>2021-10-17T12:14:47Z</time>
      </trkpt>
      <trkpt lat="46.31056" lon="5.8861">
        <ele>1193.8</ele>
        <time>2021-10-17T12:14:48Z</time>
      </trkpt>
      <trkpt lat="46.3106" lon="5.88609">
        <ele>1193.8</ele>
        <time>2021-10-17T12:14:49Z</time>
      </trkpt>
      <trkpt lat="46.31065" lon="5.88608">
        <ele>1193.8</ele>
        <time>2021-10-17T12:14:50Z</time>
      </trkpt>
      <trkpt lat="46.31069" lon="5.88607">
        <ele>1193.8</ele>
        <time>2021-10-17T12:14:51Z</time>
      </trkpt>
      <trkpt lat="46.31075" lon="5.88606">
        <ele>1193.8</ele>
        <time>2021-10-17T12:14:52Z</time>
      </trkpt>
      <trkpt lat="46.3108" lon="5.88605">
        <ele>1193.8</ele>
        <time>2021-10-17T12:14:53Z</time>
      </trkpt>
      <trkpt lat="46.31085" lon="5.88606">
        <ele>1193.8</ele>
        <time>2021-10-17T12:14:54Z</time>
      </trkpt>
      <trkpt lat="46.31091" lon="5.88607">
        <ele>1193.8</ele>
        <time>2021-10-17T12:14:55Z</time>
      </trkpt>
      <trkpt lat="46.31097" lon="5.88608">
        <ele>1193.8</ele>
        <time>2021-10-17T12:14:56Z</time>
      </trkpt>
      <trkpt lat="46.31102" lon="5.88609">
        <ele>1193.4</ele>
        <time>2021-10-17T12:14:57Z</time>
      </trkpt>
      <trkpt lat="46.31108" lon="5.88611">
        <ele>1193.4</ele>
        <time>2021-10-17T12:14:58Z</time>
      </trkpt>
      <trkpt lat="46.31114" lon="5.88613">
        <ele>1193.2</ele>
        <time>2021-10-17T12:14:59Z</time>
      </trkpt>
      <trkpt lat="46.3112" lon="5.88615">
        <ele>1193.2</ele>
        <time>2021-10-17T12:15:00Z</time>
      </trkpt>
      <trkpt lat="46.31126" lon="5.88618">
        <ele>1193</ele>
        <time>2021-10-17T12:15:01Z</time>
      </trkpt>
      <trkpt lat="46.31132" lon="5.88621">
        <ele>1193</ele>
        <time>2021-10-17T12:15:02Z</time>
      </trkpt>
      <trkpt lat="46.31138" lon="5.88625">
        <ele>1193</ele>
        <time>2021-10-17T12:15:03Z</time>
      </trkpt>
      <trkpt lat="46.31144" lon="5.88628">
        <ele>1192.8</ele>
        <time>2021-10-17T12:15:04Z</time>
      </trkpt>
      <trkpt lat="46.31151" lon="5.88631">
        <ele>1192.8</ele>
        <time>2021-10-17T12:15:05Z</time>
      </trkpt>
      <trkpt lat="46.31158" lon="5.88634">
        <ele>1192.8</ele>
        <time>2021-10-17T12:15:06Z</time>
      </trkpt>
      <trkpt lat="46.31165" lon="5.88637">
        <ele>1192.8</ele>
        <time>2021-10-17T12:15:07Z</time>
      </trkpt>
      <trkpt lat="46.31171" lon="5.8864">
        <ele>1192.4</ele>
        <time>2021-10-17T12:15:08Z</time>
      </trkpt>
      <trkpt lat="46.31178" lon="5.88644">
        <ele>1192.4</ele>
        <time>2021-10-17T12:15:09Z</time>
      </trkpt>
      <trkpt lat="46.31185" lon="5.88647">
        <ele>1192.4</ele>
        <time>2021-10-17T12:15:10Z</time>
      </trkpt>
      <trkpt lat="46.31192" lon="5.8865">
        <ele>1192.4</ele>
        <time>2021-10-17T12:15:11Z</time>
      </trkpt>
      <trkpt lat="46.31199" lon="5.88654">
        <ele>1192.2</ele>
        <time>2021-10-17T12:15:12Z</time>
      </trkpt>
      <trkpt lat="46.31206" lon="5.88657">
        <ele>1192.2</ele>
        <time>2021-10-17T12:15:13Z</time>
      </trkpt>
      <trkpt lat="46.31213" lon="5.8866">
        <ele>1192</ele>
        <time>2021-10-17T12:15:14Z</time>
      </trkpt>
      <trkpt lat="46.31219" lon="5.88664">
        <ele>1192</ele>
        <time>2021-10-17T12:15:15Z</time>
      </trkpt>
      <trkpt lat="46.31227" lon="5.88668">
        <ele>1191.8</ele>
        <time>2021-10-17T12:15:16Z</time>
      </trkpt>
      <trkpt lat="46.31234" lon="5.88672">
        <ele>1191.8</ele>
        <time>2021-10-17T12:15:17Z</time>
      </trkpt>
      <trkpt lat="46.31242" lon="5.88676">
        <ele>1191.6</ele>
        <time>2021-10-17T12:15:18Z</time>
      </trkpt>
      <trkpt lat="46.31249" lon="5.8868">
        <ele>1191.6</ele>
        <time>2021-10-17T12:15:19Z</time>
      </trkpt>
      <trkpt lat="46.31257" lon="5.88684">
        <ele>1191.2</ele>
        <time>2021-10-17T12:15:20Z</time>
      </trkpt>
      <trkpt lat="46.31265" lon="5.88689">
        <ele>1191</ele>
        <time>2021-10-17T12:15:21Z</time>
      </trkpt>
      <trkpt lat="46.31273" lon="5.88693">
        <ele>1190.8</ele>
        <time>2021-10-17T12:15:22Z</time>
      </trkpt>
      <trkpt lat="46.31281" lon="5.88698">
        <ele>1190.4</ele>
        <time>2021-10-17T12:15:23Z</time>
      </trkpt>
      <trkpt lat="46.31289" lon="5.88703">
        <ele>1190.2</ele>
        <time>2021-10-17T12:15:24Z</time>
      </trkpt>
      <trkpt lat="46.31297" lon="5.88708">
        <ele>1190</ele>
        <time>2021-10-17T12:15:25Z</time>
      </trkpt>
      <trkpt lat="46.31305" lon="5.88713">
        <ele>1189.6</ele>
        <time>2021-10-17T12:15:26Z</time>
      </trkpt>
      <trkpt lat="46.31313" lon="5.88718">
        <ele>1189.4</ele>
        <time>2021-10-17T12:15:27Z</time>
      </trkpt>
      <trkpt lat="46.31322" lon="5.88723">
        <ele>1189</ele>
        <time>2021-10-17T12:15:28Z</time>
      </trkpt>
      <trkpt lat="46.3133" lon="5.88728">
        <ele>1188.8</ele>
        <time>2021-10-17T12:15:29Z</time>
      </trkpt>
      <trkpt lat="46.31338" lon="5.88732">
        <ele>1188.4</ele>
        <time>2021-10-17T12:15:30Z</time>
      </trkpt>
      <trkpt lat="46.31347" lon="5.88737">
        <ele>1188.2</ele>
        <time>2021-10-17T12:15:31Z</time>
      </trkpt>
      <trkpt lat="46.31355" lon="5.88743">
        <ele>1187.8</ele>
        <time>2021-10-17T12:15:32Z</time>
      </trkpt>
      <trkpt lat="46.31364" lon="5.88748">
        <ele>1187.4</ele>
        <time>2021-10-17T12:15:33Z</time>
      </trkpt>
      <trkpt lat="46.31373" lon="5.88753">
        <ele>1187.2</ele>
        <time>2021-10-17T12:15:34Z</time>
      </trkpt>
      <trkpt lat="46.31381" lon="5.88758">
        <ele>1186.8</ele>
        <time>2021-10-17T12:15:35Z</time>
      </trkpt>
      <trkpt lat="46.3139" lon="5.88764">
        <ele>1186.4</ele>
        <time>2021-10-17T12:15:36Z</time>
      </trkpt>
      <trkpt lat="46.31399" lon="5.88769">
        <ele>1186.2</ele>
        <time>2021-10-17T12:15:37Z</time>
      </trkpt>
      <trkpt lat="46.31408" lon="5.88775">
        <ele>1185.8</ele>
        <time>2021-10-17T12:15:38Z</time>
      </trkpt>
      <trkpt lat="46.31417" lon="5.88781">
        <ele>1185.4</ele>
        <time>2021-10-17T12:15:39Z</time>
      </trkpt>
      <trkpt lat="46.31426" lon="5.88786">
        <ele>1185</ele>
        <time>2021-10-17T12:15:40Z</time>
      </trkpt>
      <trkpt lat="46.31435" lon="5.88791">
        <ele>1184.8</ele>
        <time>2021-10-17T12:15:41Z</time>
      </trkpt>
      <trkpt lat="46.31444" lon="5.88797">
        <ele>1184.4</ele>
        <time>2021-10-17T12:15:42Z</time>
      </trkpt>
      <trkpt lat="46.31454" lon="5.88802">
        <ele>1184</ele>
        <time>2021-10-17T12:15:43Z</time>
      </trkpt>
      <trkpt lat="46.31463" lon="5.88806">
        <ele>1183.8</ele>
        <time>2021-10-17T12:15:44Z</time>
      </trkpt>
      <trkpt lat="46.31472" lon="5.8881">
        <ele>1183.4</ele>
        <time>2021-10-17T12:15:45Z</time>
      </trkpt>
      <trkpt lat="46.31482" lon="5.88814">
        <ele>1183</ele>
        <time>2021-10-17T12:15:46Z</time>
      </trkpt>
      <trkpt lat="46.31491" lon="5.88819">
        <ele>1182.6</ele>
        <time>2021-10-17T12:15:47Z</time>
      </trkpt>
      <trkpt lat="46.31501" lon="5.88823">
        <ele>1182.2</ele>
        <time>2021-10-17T12:15:48Z</time>
      </trkpt>
      <trkpt lat="46.31511" lon="5.88827">
        <ele>1181.8</ele>
        <time>2021-10-17T12:15:49Z</time>
      </trkpt>
      <trkpt lat="46.31521" lon="5.88831">
        <ele>1181.2</ele>
        <time>2021-10-17T12:15:50Z</time>
      </trkpt>
      <trkpt lat="46.31531" lon="5.88835">
        <ele>1180.8</ele>
        <time>2021-10-17T12:15:51Z</time>
      </trkpt>
      <trkpt lat="46.3154" lon="5.8884">
        <ele>1180.4</ele>
        <time>2021-10-17T12:15:52Z</time>
      </trkpt>
      <trkpt lat="46.3155" lon="5.88844">
        <ele>1180</ele>
        <time>2021-10-17T12:15:53Z</time>
      </trkpt>
      <trkpt lat="46.3156" lon="5.88848">
        <ele>1179.8</ele>
        <time>2021-10-17T12:15:54Z</time>
      </trkpt>
      <trkpt lat="46.3157" lon="5.88852">
        <ele>1179.4</ele>
        <time>2021-10-17T12:15:55Z</time>
      </trkpt>
      <trkpt lat="46.3158" lon="5.88856">
        <ele>1178.8</ele>
        <time>2021-10-17T12:15:56Z</time>
      </trkpt>
      <trkpt lat="46.3159" lon="5.8886">
        <ele>1178.4</ele>
        <time>2021-10-17T12:15:57Z</time>
      </trkpt>
      <trkpt lat="46.316" lon="5.88864">
        <ele>1178</ele>
        <time>2021-10-17T12:15:58Z</time>
      </trkpt>
      <trkpt lat="46.3161" lon="5.88868">
        <ele>1177.6</ele>
        <time>2021-10-17T12:15:59Z</time>
      </trkpt>
      <trkpt lat="46.31621" lon="5.88872">
        <ele>1177.2</ele>
        <time>2021-10-17T12:16:00Z</time>
      </trkpt>
      <trkpt lat="46.31631" lon="5.88876">
        <ele>1176.8</ele>
        <time>2021-10-17T12:16:01Z</time>
      </trkpt>
      <trkpt lat="46.31641" lon="5.8888">
        <ele>1176.4</ele>
        <time>2021-10-17T12:16:02Z</time>
      </trkpt>
      <trkpt lat="46.31651" lon="5.88884">
        <ele>1176</ele>
        <time>2021-10-17T12:16:03Z</time>
      </trkpt>
      <trkpt lat="46.31661" lon="5.88887">
        <ele>1175.8</ele>
        <time>2021-10-17T12:16:04Z</time>
      </trkpt>
      <trkpt lat="46.31671" lon="5.8889">
        <ele>1175.4</ele>
        <time>2021-10-17T12:16:05Z</time>
      </trkpt>
      <trkpt lat="46.31682" lon="5.88892">
        <ele>1175</ele>
        <time>2021-10-17T12:16:06Z</time>
      </trkpt>
      <trkpt lat="46.31693" lon="5.88895">
        <ele>1174.6</ele>
        <time>2021-10-17T12:16:07Z</time>
      </trkpt>
      <trkpt lat="46.31703" lon="5.88896">
        <ele>1174.2</ele>
        <time>2021-10-17T12:16:08Z</time>
      </trkpt>
      <trkpt lat="46.31714" lon="5.88897">
        <ele>1173.6</ele>
        <time>2021-10-17T12:16:09Z</time>
      </trkpt>
      <trkpt lat="46.31724" lon="5.88897">
        <ele>1173.2</ele>
        <time>2021-10-17T12:16:10Z</time>
      </trkpt>
      <trkpt lat="46.31734" lon="5.88898">
        <ele>1172.8</ele>
        <time>2021-10-17T12:16:11Z</time>
      </trkpt>
      <trkpt lat="46.31745" lon="5.88897">
        <ele>1172.4</ele>
        <time>2021-10-17T12:16:12Z</time>
      </trkpt>
      <trkpt lat="46.31755" lon="5.88897">
        <ele>1172</ele>
        <time>2021-10-17T12:16:13Z</time>
      </trkpt>
      <trkpt lat="46.31765" lon="5.88897">
        <ele>1171.6</ele>
        <time>2021-10-17T12:16:14Z</time>
      </trkpt>
      <trkpt lat="46.31776" lon="5.88897">
        <ele>1171.2</ele>
        <time>2021-10-17T12:16:15Z</time>
      </trkpt>
      <trkpt lat="46.31787" lon="5.88896">
        <ele>1170.6</ele>
        <time>2021-10-17T12:16:16Z</time>
      </trkpt>
      <trkpt lat="46.31797" lon="5.88896">
        <ele>1170.4</ele>
        <time>2021-10-17T12:16:17Z</time>
      </trkpt>
      <trkpt lat="46.31808" lon="5.88895">
        <ele>1169.8</ele>
        <time>2021-10-17T12:16:18Z</time>
      </trkpt>
      <trkpt lat="46.31818" lon="5.88895">
        <ele>1169.6</ele>
        <time>2021-10-17T12:16:19Z</time>
      </trkpt>
      <trkpt lat="46.31829" lon="5.88893">
        <ele>1169.2</ele>
        <time>2021-10-17T12:16:20Z</time>
      </trkpt>
      <trkpt lat="46.31839" lon="5.88891">
        <ele>1168.8</ele>
        <time>2021-10-17T12:16:21Z</time>
      </trkpt>
      <trkpt lat="46.31849" lon="5.88887">
        <ele>1168.4</ele>
        <time>2021-10-17T12:16:22Z</time>
      </trkpt>
      <trkpt lat="46.31859" lon="5.88884">
        <ele>1168</ele>
        <time>2021-10-17T12:16:23Z</time>
      </trkpt>
      <trkpt lat="46.3187" lon="5.88879">
        <ele>1167.6</ele>
        <time>2021-10-17T12:16:24Z</time>
      </trkpt>
      <trkpt lat="46.31881" lon="5.88874">
        <ele>1167.4</ele>
        <time>2021-10-17T12:16:25Z</time>
      </trkpt>
      <trkpt lat="46.31892" lon="5.8887">
        <ele>1167</ele>
        <time>2021-10-17T12:16:26Z</time>
      </trkpt>
      <trkpt lat="46.31903" lon="5.88866">
        <ele>1166.6</ele>
        <time>2021-10-17T12:16:27Z</time>
      </trkpt>
      <trkpt lat="46.31913" lon="5.88863">
        <ele>1166.2</ele>
        <time>2021-10-17T12:16:28Z</time>
      </trkpt>
      <trkpt lat="46.31923" lon="5.88859">
        <ele>1165.8</ele>
        <time>2021-10-17T12:16:29Z</time>
      </trkpt>
      <trkpt lat="46.31933" lon="5.88854">
        <ele>1165.4</ele>
        <time>2021-10-17T12:16:30Z</time>
      </trkpt>
      <trkpt lat="46.31943" lon="5.88848">
        <ele>1165</ele>
        <time>2021-10-17T12:16:31Z</time>
      </trkpt>
      <trkpt lat="46.31952" lon="5.88841">
        <ele>1164.6</ele>
        <time>2021-10-17T12:16:32Z</time>
      </trkpt>
      <trkpt lat="46.3196" lon="5.88834">
        <ele>1164.2</ele>
        <time>2021-10-17T12:16:33Z</time>
      </trkpt>
      <trkpt lat="46.31968" lon="5.88827">
        <ele>1163.6</ele>
        <time>2021-10-17T12:16:34Z</time>
      </trkpt>
      <trkpt lat="46.31977" lon="5.8882">
        <ele>1163.2</ele>
        <time>2021-10-17T12:16:35Z</time>
      </trkpt>
      <trkpt lat="46.31986" lon="5.88814">
        <ele>1162.8</ele>
        <time>2021-10-17T12:16:36Z</time>
      </trkpt>
      <trkpt lat="46.31996" lon="5.88808">
        <ele>1162.2</ele>
        <time>2021-10-17T12:16:37Z</time>
      </trkpt>
      <trkpt lat="46.32005" lon="5.88802">
        <ele>1161.8</ele>
        <time>2021-10-17T12:16:38Z</time>
      </trkpt>
      <trkpt lat="46.32015" lon="5.888">
        <ele>1161.4</ele>
        <time>2021-10-17T12:16:39Z</time>
      </trkpt>
      <trkpt lat="46.32026" lon="5.888">
        <ele>1160.8</ele>
        <time>2021-10-17T12:16:40Z</time>
      </trkpt>
      <trkpt lat="46.32036" lon="5.88801">
        <ele>1160.4</ele>
        <time>2021-10-17T12:16:41Z</time>
      </trkpt>
      <trkpt lat="46.32046" lon="5.88806">
        <ele>1159.8</ele>
        <time>2021-10-17T12:16:42Z</time>
      </trkpt>
      <trkpt lat="46.32055" lon="5.88812">
        <ele>1159.4</ele>
        <time>2021-10-17T12:16:43Z</time>
      </trkpt>
      <trkpt lat="46.32065" lon="5.8882">
        <ele>1159</ele>
        <time>2021-10-17T12:16:44Z</time>
      </trkpt>
      <trkpt lat="46.32074" lon="5.88828">
        <ele>1158.4</ele>
        <time>2021-10-17T12:16:45Z</time>
      </trkpt>
      <trkpt lat="46.32084" lon="5.88837">
        <ele>1158</ele>
        <time>2021-10-17T12:16:46Z</time>
      </trkpt>
      <trkpt lat="46.32093" lon="5.88845">
        <ele>1157.6</ele>
        <time>2021-10-17T12:16:47Z</time>
      </trkpt>
      <trkpt lat="46.32103" lon="5.88851">
        <ele>1157.2</ele>
        <time>2021-10-17T12:16:48Z</time>
      </trkpt>
      <trkpt lat="46.32112" lon="5.88857">
        <ele>1156.8</ele>
        <time>2021-10-17T12:16:49Z</time>
      </trkpt>
      <trkpt lat="46.32122" lon="5.88862">
        <ele>1156.6</ele>
        <time>2021-10-17T12:16:50Z</time>
      </trkpt>
      <trkpt lat="46.32132" lon="5.88865">
        <ele>1156.2</ele>
        <time>2021-10-17T12:16:51Z</time>
      </trkpt>
      <trkpt lat="46.32143" lon="5.88868">
        <ele>1155.8</ele>
        <time>2021-10-17T12:16:52Z</time>
      </trkpt>
      <trkpt lat="46.32154" lon="5.88871">
        <ele>1155.4</ele>
        <time>2021-10-17T12:16:53Z</time>
      </trkpt>
      <trkpt lat="46.32164" lon="5.88875">
        <ele>1155</ele>
        <time>2021-10-17T12:16:54Z</time>
      </trkpt>
      <trkpt lat="46.32175" lon="5.88879">
        <ele>1154.6</ele>
        <time>2021-10-17T12:16:55Z</time>
      </trkpt>
      <trkpt lat="46.32187" lon="5.88882">
        <ele>1154.2</ele>
        <time>2021-10-17T12:16:56Z</time>
      </trkpt>
      <trkpt lat="46.32198" lon="5.88886">
        <ele>1153.8</ele>
        <time>2021-10-17T12:16:57Z</time>
      </trkpt>
      <trkpt lat="46.32209" lon="5.8889">
        <ele>1153.4</ele>
        <time>2021-10-17T12:16:58Z</time>
      </trkpt>
      <trkpt lat="46.32219" lon="5.88896">
        <ele>1153</ele>
        <time>2021-10-17T12:16:59Z</time>
      </trkpt>
      <trkpt lat="46.32229" lon="5.88903">
        <ele>1152.6</ele>
        <time>2021-10-17T12:17:00Z</time>
      </trkpt>
      <trkpt lat="46.32239" lon="5.8891">
        <ele>1152.2</ele>
        <time>2021-10-17T12:17:01Z</time>
      </trkpt>
      <trkpt lat="46.3225" lon="5.88916">
        <ele>1151.8</ele>
        <time>2021-10-17T12:17:02Z</time>
      </trkpt>
      <trkpt lat="46.3226" lon="5.88921">
        <ele>1151.4</ele>
        <time>2021-10-17T12:17:03Z</time>
      </trkpt>
      <trkpt lat="46.32269" lon="5.88928">
        <ele>1151</ele>
        <time>2021-10-17T12:17:04Z</time>
      </trkpt>
      <trkpt lat="46.32278" lon="5.88935">
        <ele>1150.6</ele>
        <time>2021-10-17T12:17:05Z</time>
      </trkpt>
      <trkpt lat="46.32287" lon="5.8894">
        <ele>1150.2</ele>
        <time>2021-10-17T12:17:06Z</time>
      </trkpt>
      <trkpt lat="46.32297" lon="5.88946">
        <ele>1149.8</ele>
        <time>2021-10-17T12:17:07Z</time>
      </trkpt>
      <trkpt lat="46.32307" lon="5.88952">
        <ele>1149.4</ele>
        <time>2021-10-17T12:17:08Z</time>
      </trkpt>
      <trkpt lat="46.32317" lon="5.88958">
        <ele>1149</ele>
        <time>2021-10-17T12:17:09Z</time>
      </trkpt>
      <trkpt lat="46.32327" lon="5.88962">
        <ele>1148.4</ele>
        <time>2021-10-17T12:17:10Z</time>
      </trkpt>
      <trkpt lat="46.32337" lon="5.88967">
        <ele>1148</ele>
        <time>2021-10-17T12:17:11Z</time>
      </trkpt>
      <trkpt lat="46.32345" lon="5.8897">
        <ele>1147.4</ele>
        <time>2021-10-17T12:17:12Z</time>
      </trkpt>
      <trkpt lat="46.32353" lon="5.88973">
        <ele>1147</ele>
        <time>2021-10-17T12:17:13Z</time>
      </trkpt>
      <trkpt lat="46.3236" lon="5.88976">
        <ele>1146.6</ele>
        <time>2021-10-17T12:17:14Z</time>
      </trkpt>
      <trkpt lat="46.32368" lon="5.88977">
        <ele>1146.4</ele>
        <time>2021-10-17T12:17:15Z</time>
      </trkpt>
      <trkpt lat="46.32376" lon="5.88979">
        <ele>1145.8</ele>
        <time>2021-10-17T12:17:16Z</time>
      </trkpt>
      <trkpt lat="46.32384" lon="5.88981">
        <ele>1145.6</ele>
        <time>2021-10-17T12:17:17Z</time>
      </trkpt>
      <trkpt lat="46.32391" lon="5.88983">
        <ele>1145.2</ele>
        <time>2021-10-17T12:17:18Z</time>
      </trkpt>
      <trkpt lat="46.32397" lon="5.88985">
        <ele>1144.8</ele>
        <time>2021-10-17T12:17:19Z</time>
      </trkpt>
      <trkpt lat="46.32403" lon="5.88986">
        <ele>1144.6</ele>
        <time>2021-10-17T12:17:20Z</time>
      </trkpt>
      <trkpt lat="46.32409" lon="5.88988">
        <ele>1144.2</ele>
        <time>2021-10-17T12:17:21Z</time>
      </trkpt>
      <trkpt lat="46.32413" lon="5.88989">
        <ele>1144</ele>
        <time>2021-10-17T12:17:22Z</time>
      </trkpt>
      <trkpt lat="46.32417" lon="5.88991">
        <ele>1144</ele>
        <time>2021-10-17T12:17:23Z</time>
      </trkpt>
      <trkpt lat="46.3242" lon="5.88992">
        <ele>1143.6</ele>
        <time>2021-10-17T12:17:24Z</time>
      </trkpt>
      <trkpt lat="46.32422" lon="5.88992">
        <ele>1143.4</ele>
        <time>2021-10-17T12:17:25Z</time>
      </trkpt>
      <trkpt lat="46.32422" lon="5.88992">
        <ele>1143.4</ele>
        <time>2021-10-17T12:17:26Z</time>
      </trkpt>
      <trkpt lat="46.32422" lon="5.88992">
        <ele>1143</ele>
        <time>2021-10-17T12:17:27Z</time>
      </trkpt>
      <trkpt lat="46.32427" lon="5.88995">
        <ele>1142.8</ele>
        <time>2021-10-17T12:20:34Z</time>
      </trkpt>
      <trkpt lat="46.32429" lon="5.88996">
        <ele>1142.8</ele>
        <time>2021-10-17T12:20:35Z</time>
      </trkpt>
      <trkpt lat="46.32432" lon="5.88996">
        <ele>1142.8</ele>
        <time>2021-10-17T12:20:36Z</time>
      </trkpt>
      <trkpt lat="46.32435" lon="5.88997">
        <ele>1142.8</ele>
        <time>2021-10-17T12:20:37Z</time>
      </trkpt>
      <trkpt lat="46.32438" lon="5.88998">
        <ele>1142.8</ele>
        <time>2021-10-17T12:20:38Z</time>
      </trkpt>
      <trkpt lat="46.32441" lon="5.88999">
        <ele>1142.8</ele>
        <time>2021-10-17T12:20:39Z</time>
      </trkpt>
      <trkpt lat="46.32445" lon="5.89">
        <ele>1142.8</ele>
        <time>2021-10-17T12:20:40Z</time>
      </trkpt>
      <trkpt lat="46.32449" lon="5.89002">
        <ele>1142.4</ele>
        <time>2021-10-17T12:20:41Z</time>
      </trkpt>
      <trkpt lat="46.32453" lon="5.89003">
        <ele>1142.4</ele>
        <time>2021-10-17T12:20:42Z</time>
      </trkpt>
      <trkpt lat="46.32457" lon="5.89005">
        <ele>1142</ele>
        <time>2021-10-17T12:20:43Z</time>
      </trkpt>
      <trkpt lat="46.32461" lon="5.89007">
        <ele>1142</ele>
        <time>2021-10-17T12:20:44Z</time>
      </trkpt>
      <trkpt lat="46.32466" lon="5.89009">
        <ele>1141.6</ele>
        <time>2021-10-17T12:20:45Z</time>
      </trkpt>
      <trkpt lat="46.32471" lon="5.89011">
        <ele>1141.6</ele>
        <time>2021-10-17T12:20:46Z</time>
      </trkpt>
      <trkpt lat="46.32476" lon="5.89013">
        <ele>1141.2</ele>
        <time>2021-10-17T12:20:47Z</time>
      </trkpt>
      <trkpt lat="46.32481" lon="5.89016">
        <ele>1141</ele>
        <time>2021-10-17T12:20:48Z</time>
      </trkpt>
      <trkpt lat="46.32487" lon="5.89018">
        <ele>1140.6</ele>
        <time>2021-10-17T12:20:49Z</time>
      </trkpt>
      <trkpt lat="46.32493" lon="5.8902">
        <ele>1140.4</ele>
        <time>2021-10-17T12:20:50Z</time>
      </trkpt>
      <trkpt lat="46.32499" lon="5.89022">
        <ele>1140.4</ele>
        <time>2021-10-17T12:20:51Z</time>
      </trkpt>
      <trkpt lat="46.32505" lon="5.89025">
        <ele>1140</ele>
        <time>2021-10-17T12:20:52Z</time>
      </trkpt>
      <trkpt lat="46.3251" lon="5.89027">
        <ele>1140</ele>
        <time>2021-10-17T12:20:53Z</time>
      </trkpt>
      <trkpt lat="46.32515" lon="5.8903">
        <ele>1139.6</ele>
        <time>2021-10-17T12:20:54Z</time>
      </trkpt>
      <trkpt lat="46.32519" lon="5.89032">
        <ele>1139.6</ele>
        <time>2021-10-17T12:20:55Z</time>
      </trkpt>
      <trkpt lat="46.32523" lon="5.89033">
        <ele>1139.2</ele>
        <time>2021-10-17T12:20:56Z</time>
      </trkpt>
      <trkpt lat="46.32527" lon="5.89035">
        <ele>1139.2</ele>
        <time>2021-10-17T12:20:57Z</time>
      </trkpt>
      <trkpt lat="46.32531" lon="5.89037">
        <ele>1138.8</ele>
        <time>2021-10-17T12:20:58Z</time>
      </trkpt>
      <trkpt lat="46.32536" lon="5.89038">
        <ele>1138.6</ele>
        <time>2021-10-17T12:20:59Z</time>
      </trkpt>
      <trkpt lat="46.3254" lon="5.89038">
        <ele>1138.6</ele>
        <time>2021-10-17T12:21:00Z</time>
      </trkpt>
      <trkpt lat="46.32544" lon="5.89037">
        <ele>1138.4</ele>
        <time>2021-10-17T12:21:01Z</time>
      </trkpt>
      <trkpt lat="46.32548" lon="5.89034">
        <ele>1138.4</ele>
        <time>2021-10-17T12:21:02Z</time>
      </trkpt>
      <trkpt lat="46.32552" lon="5.89032">
        <ele>1138.4</ele>
        <time>2021-10-17T12:21:03Z</time>
      </trkpt>
      <trkpt lat="46.32555" lon="5.89028">
        <ele>1138.4</ele>
        <time>2021-10-17T12:21:04Z</time>
      </trkpt>
      <trkpt lat="46.32558" lon="5.89025">
        <ele>1138.6</ele>
        <time>2021-10-17T12:21:05Z</time>
      </trkpt>
      <trkpt lat="46.3256" lon="5.89022">
        <ele>1138.6</ele>
        <time>2021-10-17T12:21:06Z</time>
      </trkpt>
      <trkpt lat="46.32562" lon="5.8902">
        <ele>1139</ele>
        <time>2021-10-17T12:21:07Z</time>
      </trkpt>
      <trkpt lat="46.32564" lon="5.89018">
        <ele>1139</ele>
        <time>2021-10-17T12:21:08Z</time>
      </trkpt>
      <trkpt lat="46.32566" lon="5.89015">
        <ele>1139.4</ele>
        <time>2021-10-17T12:21:09Z</time>
      </trkpt>
      <trkpt lat="46.32568" lon="5.89012">
        <ele>1139.6</ele>
        <time>2021-10-17T12:21:10Z</time>
      </trkpt>
      <trkpt lat="46.3257" lon="5.89009">
        <ele>1139.6</ele>
        <time>2021-10-17T12:21:11Z</time>
      </trkpt>
      <trkpt lat="46.32573" lon="5.89006">
        <ele>1140</ele>
        <time>2021-10-17T12:21:12Z</time>
      </trkpt>
      <trkpt lat="46.32576" lon="5.89003">
        <ele>1140.4</ele>
        <time>2021-10-17T12:21:13Z</time>
      </trkpt>
      <trkpt lat="46.32579" lon="5.89001">
        <ele>1140.4</ele>
        <time>2021-10-17T12:21:14Z</time>
      </trkpt>
      <trkpt lat="46.32582" lon="5.88998">
        <ele>1140.6</ele>
        <time>2021-10-17T12:21:15Z</time>
      </trkpt>
      <trkpt lat="46.32584" lon="5.88995">
        <ele>1140.6</ele>
        <time>2021-10-17T12:21:16Z</time>
      </trkpt>
      <trkpt lat="46.32586" lon="5.88991">
        <ele>1141</ele>
        <time>2021-10-17T12:21:17Z</time>
      </trkpt>
      <trkpt lat="46.32588" lon="5.88988">
        <ele>1141</ele>
        <time>2021-10-17T12:21:18Z</time>
      </trkpt>
      <trkpt lat="46.32589" lon="5.88984">
        <ele>1141</ele>
        <time>2021-10-17T12:21:19Z</time>
      </trkpt>
      <trkpt lat="46.32591" lon="5.88979">
        <ele>1141</ele>
        <time>2021-10-17T12:21:20Z</time>
      </trkpt>
      <trkpt lat="46.32593" lon="5.88974">
        <ele>1141</ele>
        <time>2021-10-17T12:21:21Z</time>
      </trkpt>
      <trkpt lat="46.32595" lon="5.88968">
        <ele>1141</ele>
        <time>2021-10-17T12:21:22Z</time>
      </trkpt>
      <trkpt lat="46.32597" lon="5.88961">
        <ele>1141</ele>
        <time>2021-10-17T12:21:23Z</time>
      </trkpt>
      <trkpt lat="46.32599" lon="5.88955">
        <ele>1140.6</ele>
        <time>2021-10-17T12:21:24Z</time>
      </trkpt>
      <trkpt lat="46.32601" lon="5.88947">
        <ele>1140.6</ele>
        <time>2021-10-17T12:21:25Z</time>
      </trkpt>
      <trkpt lat="46.32605" lon="5.88939">
        <ele>1140</ele>
        <time>2021-10-17T12:21:26Z</time>
      </trkpt>
      <trkpt lat="46.32608" lon="5.88931">
        <ele>1139.8</ele>
        <time>2021-10-17T12:21:27Z</time>
      </trkpt>
      <trkpt lat="46.32612" lon="5.88922">
        <ele>1139.4</ele>
        <time>2021-10-17T12:21:28Z</time>
      </trkpt>
      <trkpt lat="46.32617" lon="5.88913">
        <ele>1139</ele>
        <time>2021-10-17T12:21:29Z</time>
      </trkpt>
      <trkpt lat="46.32621" lon="5.88904">
        <ele>1138.6</ele>
        <time>2021-10-17T12:21:30Z</time>
      </trkpt>
      <trkpt lat="46.32624" lon="5.88895">
        <ele>1138</ele>
        <time>2021-10-17T12:21:31Z</time>
      </trkpt>
      <trkpt lat="46.32629" lon="5.88887">
        <ele>1137.6</ele>
        <time>2021-10-17T12:21:32Z</time>
      </trkpt>
      <trkpt lat="46.32633" lon="5.88879">
        <ele>1137</ele>
        <time>2021-10-17T12:21:33Z</time>
      </trkpt>
      <trkpt lat="46.32638" lon="5.88872">
        <ele>1136.6</ele>
        <time>2021-10-17T12:21:34Z</time>
      </trkpt>
      <trkpt lat="46.32644" lon="5.88866">
        <ele>1136.2</ele>
        <time>2021-10-17T12:21:35Z</time>
      </trkpt>
      <trkpt lat="46.32651" lon="5.8886">
        <ele>1135.8</ele>
        <time>2021-10-17T12:21:36Z</time>
      </trkpt>
      <trkpt lat="46.32658" lon="5.88854">
        <ele>1135.4</ele>
        <time>2021-10-17T12:21:37Z</time>
      </trkpt>
      <trkpt lat="46.32665" lon="5.8885">
        <ele>1135</ele>
        <time>2021-10-17T12:21:38Z</time>
      </trkpt>
      <trkpt lat="46.32673" lon="5.88846">
        <ele>1134.4</ele>
        <time>2021-10-17T12:21:39Z</time>
      </trkpt>
      <trkpt lat="46.32682" lon="5.88844">
        <ele>1134</ele>
        <time>2021-10-17T12:21:40Z</time>
      </trkpt>
      <trkpt lat="46.3269" lon="5.88843">
        <ele>1133.6</ele>
        <time>2021-10-17T12:21:41Z</time>
      </trkpt>
      <trkpt lat="46.32699" lon="5.88843">
        <ele>1133.2</ele>
        <time>2021-10-17T12:21:42Z</time>
      </trkpt>
      <trkpt lat="46.32708" lon="5.88843">
        <ele>1132.6</ele>
        <time>2021-10-17T12:21:43Z</time>
      </trkpt>
      <trkpt lat="46.32717" lon="5.88843">
        <ele>1132.2</ele>
        <time>2021-10-17T12:21:44Z</time>
      </trkpt>
      <trkpt lat="46.32726" lon="5.88844">
        <ele>1131.6</ele>
        <time>2021-10-17T12:21:45Z</time>
      </trkpt>
      <trkpt lat="46.32736" lon="5.88844">
        <ele>1131.2</ele>
        <time>2021-10-17T12:21:46Z</time>
      </trkpt>
      <trkpt lat="46.32746" lon="5.88845">
        <ele>1130.8</ele>
        <time>2021-10-17T12:21:47Z</time>
      </trkpt>
      <trkpt lat="46.32755" lon="5.88845">
        <ele>1130.2</ele>
        <time>2021-10-17T12:21:48Z</time>
      </trkpt>
      <trkpt lat="46.32765" lon="5.88845">
        <ele>1129.8</ele>
        <time>2021-10-17T12:21:49Z</time>
      </trkpt>
      <trkpt lat="46.32776" lon="5.88844">
        <ele>1129.4</ele>
        <time>2021-10-17T12:21:50Z</time>
      </trkpt>
      <trkpt lat="46.32786" lon="5.88843">
        <ele>1128.8</ele>
        <time>2021-10-17T12:21:51Z</time>
      </trkpt>
      <trkpt lat="46.32797" lon="5.88843">
        <ele>1128.4</ele>
        <time>2021-10-17T12:21:52Z</time>
      </trkpt>
      <trkpt lat="46.32807" lon="5.88844">
        <ele>1128</ele>
        <time>2021-10-17T12:21:53Z</time>
      </trkpt>
      <trkpt lat="46.32817" lon="5.88843">
        <ele>1127.2</ele>
        <time>2021-10-17T12:21:54Z</time>
      </trkpt>
      <trkpt lat="46.32827" lon="5.88844">
        <ele>1126.8</ele>
        <time>2021-10-17T12:21:55Z</time>
      </trkpt>
      <trkpt lat="46.32837" lon="5.88845">
        <ele>1126.2</ele>
        <time>2021-10-17T12:21:56Z</time>
      </trkpt>
      <trkpt lat="46.32848" lon="5.88846">
        <ele>1125.6</ele>
        <time>2021-10-17T12:21:57Z</time>
      </trkpt>
      <trkpt lat="46.32858" lon="5.88846">
        <ele>1125</ele>
        <time>2021-10-17T12:21:58Z</time>
      </trkpt>
      <trkpt lat="46.32867" lon="5.88843">
        <ele>1124.4</ele>
        <time>2021-10-17T12:21:59Z</time>
      </trkpt>
      <trkpt lat="46.32878" lon="5.88839">
        <ele>1123.8</ele>
        <time>2021-10-17T12:22:00Z</time>
      </trkpt>
      <trkpt lat="46.32888" lon="5.88835">
        <ele>1123.2</ele>
        <time>2021-10-17T12:22:01Z</time>
      </trkpt>
      <trkpt lat="46.32899" lon="5.88832">
        <ele>1122.8</ele>
        <time>2021-10-17T12:22:02Z</time>
      </trkpt>
      <trkpt lat="46.32909" lon="5.88828">
        <ele>1122.4</ele>
        <time>2021-10-17T12:22:03Z</time>
      </trkpt>
      <trkpt lat="46.32919" lon="5.88823">
        <ele>1122</ele>
        <time>2021-10-17T12:22:04Z</time>
      </trkpt>
      <trkpt lat="46.32929" lon="5.88819">
        <ele>1121.6</ele>
        <time>2021-10-17T12:22:05Z</time>
      </trkpt>
      <trkpt lat="46.32939" lon="5.88814">
        <ele>1121</ele>
        <time>2021-10-17T12:22:06Z</time>
      </trkpt>
      <trkpt lat="46.32949" lon="5.8881">
        <ele>1120.6</ele>
        <time>2021-10-17T12:22:07Z</time>
      </trkpt>
      <trkpt lat="46.32958" lon="5.88805">
        <ele>1120.4</ele>
        <time>2021-10-17T12:22:08Z</time>
      </trkpt>
      <trkpt lat="46.32967" lon="5.888">
        <ele>1120</ele>
        <time>2021-10-17T12:22:09Z</time>
      </trkpt>
      <trkpt lat="46.32976" lon="5.88796">
        <ele>1119.4</ele>
        <time>2021-10-17T12:22:10Z</time>
      </trkpt>
      <trkpt lat="46.32985" lon="5.88791">
        <ele>1119</ele>
        <time>2021-10-17T12:22:11Z</time>
      </trkpt>
      <trkpt lat="46.32994" lon="5.88786">
        <ele>1118.8</ele>
        <time>2021-10-17T12:22:12Z</time>
      </trkpt>
      <trkpt lat="46.33004" lon="5.88781">
        <ele>1118.6</ele>
        <time>2021-10-17T12:22:13Z</time>
      </trkpt>
      <trkpt lat="46.33013" lon="5.88777">
        <ele>1118.2</ele>
        <time>2021-10-17T12:22:14Z</time>
      </trkpt>
      <trkpt lat="46.33023" lon="5.88772">
        <ele>1117.8</ele>
        <time>2021-10-17T12:22:15Z</time>
      </trkpt>
      <trkpt lat="46.33032" lon="5.88768">
        <ele>1117.4</ele>
        <time>2021-10-17T12:22:16Z</time>
      </trkpt>
      <trkpt lat="46.33042" lon="5.88764">
        <ele>1116.8</ele>
        <time>2021-10-17T12:22:17Z</time>
      </trkpt>
      <trkpt lat="46.33052" lon="5.88759">
        <ele>1116.4</ele>
        <time>2021-10-17T12:22:18Z</time>
      </trkpt>
      <trkpt lat="46.33061" lon="5.88754">
        <ele>1116</ele>
        <time>2021-10-17T12:22:19Z</time>
      </trkpt>
      <trkpt lat="46.33071" lon="5.8875">
        <ele>1115.6</ele>
        <time>2021-10-17T12:22:20Z</time>
      </trkpt>
      <trkpt lat="46.33081" lon="5.88746">
        <ele>1115</ele>
        <time>2021-10-17T12:22:21Z</time>
      </trkpt>
      <trkpt lat="46.3309" lon="5.88742">
        <ele>1114.4</ele>
        <time>2021-10-17T12:22:22Z</time>
      </trkpt>
      <trkpt lat="46.33101" lon="5.88739">
        <ele>1113.8</ele>
        <time>2021-10-17T12:22:23Z</time>
      </trkpt>
      <trkpt lat="46.33111" lon="5.88737">
        <ele>1113.2</ele>
        <time>2021-10-17T12:22:24Z</time>
      </trkpt>
      <trkpt lat="46.33122" lon="5.88735">
        <ele>1112.4</ele>
        <time>2021-10-17T12:22:25Z</time>
      </trkpt>
      <trkpt lat="46.33133" lon="5.88733">
        <ele>1111.8</ele>
        <time>2021-10-17T12:22:26Z</time>
      </trkpt>
      <trkpt lat="46.33143" lon="5.8873">
        <ele>1111.2</ele>
        <time>2021-10-17T12:22:27Z</time>
      </trkpt>
      <trkpt lat="46.33154" lon="5.88727">
        <ele>1110.6</ele>
        <time>2021-10-17T12:22:28Z</time>
      </trkpt>
      <trkpt lat="46.33165" lon="5.88725">
        <ele>1110</ele>
        <time>2021-10-17T12:22:29Z</time>
      </trkpt>
      <trkpt lat="46.33177" lon="5.88722">
        <ele>1109.4</ele>
        <time>2021-10-17T12:22:30Z</time>
      </trkpt>
      <trkpt lat="46.33188" lon="5.88718">
        <ele>1108.8</ele>
        <time>2021-10-17T12:22:31Z</time>
      </trkpt>
      <trkpt lat="46.33199" lon="5.88714">
        <ele>1108.2</ele>
        <time>2021-10-17T12:22:32Z</time>
      </trkpt>
      <trkpt lat="46.33209" lon="5.8871">
        <ele>1107.6</ele>
        <time>2021-10-17T12:22:33Z</time>
      </trkpt>
      <trkpt lat="46.33221" lon="5.88707">
        <ele>1107</ele>
        <time>2021-10-17T12:22:34Z</time>
      </trkpt>
      <trkpt lat="46.33232" lon="5.88703">
        <ele>1106.6</ele>
        <time>2021-10-17T12:22:35Z</time>
      </trkpt>
      <trkpt lat="46.33243" lon="5.887">
        <ele>1105.8</ele>
        <time>2021-10-17T12:22:36Z</time>
      </trkpt>
      <trkpt lat="46.33255" lon="5.88697">
        <ele>1105.2</ele>
        <time>2021-10-17T12:22:37Z</time>
      </trkpt>
      <trkpt lat="46.33266" lon="5.88696">
        <ele>1104.4</ele>
        <time>2021-10-17T12:22:38Z</time>
      </trkpt>
      <trkpt lat="46.33278" lon="5.88697">
        <ele>1104</ele>
        <time>2021-10-17T12:22:39Z</time>
      </trkpt>
      <trkpt lat="46.3329" lon="5.88695">
        <ele>1103.6</ele>
        <time>2021-10-17T12:22:40Z</time>
      </trkpt>
      <trkpt lat="46.33301" lon="5.88697">
        <ele>1102.8</ele>
        <time>2021-10-17T12:22:41Z</time>
      </trkpt>
      <trkpt lat="46.33312" lon="5.88703">
        <ele>1102.2</ele>
        <time>2021-10-17T12:22:42Z</time>
      </trkpt>
      <trkpt lat="46.33322" lon="5.88708">
        <ele>1101.6</ele>
        <time>2021-10-17T12:22:43Z</time>
      </trkpt>
      <trkpt lat="46.33332" lon="5.88716">
        <ele>1101</ele>
        <time>2021-10-17T12:22:44Z</time>
      </trkpt>
      <trkpt lat="46.3334" lon="5.88726">
        <ele>1100.4</ele>
        <time>2021-10-17T12:22:45Z</time>
      </trkpt>
      <trkpt lat="46.33348" lon="5.88735">
        <ele>1099.8</ele>
        <time>2021-10-17T12:22:46Z</time>
      </trkpt>
      <trkpt lat="46.33357" lon="5.88745">
        <ele>1099.4</ele>
        <time>2021-10-17T12:22:47Z</time>
      </trkpt>
      <trkpt lat="46.33365" lon="5.88754">
        <ele>1099</ele>
        <time>2021-10-17T12:22:48Z</time>
      </trkpt>
      <trkpt lat="46.33375" lon="5.8876">
        <ele>1098.6</ele>
        <time>2021-10-17T12:22:49Z</time>
      </trkpt>
      <trkpt lat="46.33386" lon="5.88766">
        <ele>1098</ele>
        <time>2021-10-17T12:22:50Z</time>
      </trkpt>
      <trkpt lat="46.33396" lon="5.88769">
        <ele>1097.6</ele>
        <time>2021-10-17T12:22:51Z</time>
      </trkpt>
      <trkpt lat="46.33407" lon="5.88769">
        <ele>1097.2</ele>
        <time>2021-10-17T12:22:52Z</time>
      </trkpt>
      <trkpt lat="46.33418" lon="5.88768">
        <ele>1097</ele>
        <time>2021-10-17T12:22:53Z</time>
      </trkpt>
      <trkpt lat="46.33428" lon="5.88768">
        <ele>1096.6</ele>
        <time>2021-10-17T12:22:54Z</time>
      </trkpt>
      <trkpt lat="46.33439" lon="5.88769">
        <ele>1096.2</ele>
        <time>2021-10-17T12:22:55Z</time>
      </trkpt>
      <trkpt lat="46.3345" lon="5.88773">
        <ele>1095.8</ele>
        <time>2021-10-17T12:22:56Z</time>
      </trkpt>
      <trkpt lat="46.33461" lon="5.88781">
        <ele>1095.4</ele>
        <time>2021-10-17T12:22:57Z</time>
      </trkpt>
      <trkpt lat="46.3347" lon="5.88789">
        <ele>1095.2</ele>
        <time>2021-10-17T12:22:58Z</time>
      </trkpt>
      <trkpt lat="46.33478" lon="5.88797">
        <ele>1094.6</ele>
        <time>2021-10-17T12:22:59Z</time>
      </trkpt>
      <trkpt lat="46.33487" lon="5.88806">
        <ele>1094.2</ele>
        <time>2021-10-17T12:23:00Z</time>
      </trkpt>
      <trkpt lat="46.33496" lon="5.88813">
        <ele>1094</ele>
        <time>2021-10-17T12:23:01Z</time>
      </trkpt>
      <trkpt lat="46.33505" lon="5.88818">
        <ele>1093.6</ele>
        <time>2021-10-17T12:23:02Z</time>
      </trkpt>
      <trkpt lat="46.33514" lon="5.88822">
        <ele>1093.2</ele>
        <time>2021-10-17T12:23:03Z</time>
      </trkpt>
      <trkpt lat="46.33523" lon="5.88825">
        <ele>1092.8</ele>
        <time>2021-10-17T12:23:04Z</time>
      </trkpt>
      <trkpt lat="46.33533" lon="5.88826">
        <ele>1092.6</ele>
        <time>2021-10-17T12:23:05Z</time>
      </trkpt>
      <trkpt lat="46.33544" lon="5.88828">
        <ele>1092.4</ele>
        <time>2021-10-17T12:23:06Z</time>
      </trkpt>
      <trkpt lat="46.33554" lon="5.88828">
        <ele>1092</ele>
        <time>2021-10-17T12:23:07Z</time>
      </trkpt>
      <trkpt lat="46.33563" lon="5.8883">
        <ele>1091.8</ele>
        <time>2021-10-17T12:23:08Z</time>
      </trkpt>
      <trkpt lat="46.33572" lon="5.88834">
        <ele>1091.4</ele>
        <time>2021-10-17T12:23:09Z</time>
      </trkpt>
      <trkpt lat="46.3358" lon="5.88839">
        <ele>1091.2</ele>
        <time>2021-10-17T12:23:10Z</time>
      </trkpt>
      <trkpt lat="46.33588" lon="5.88847">
        <ele>1091.2</ele>
        <time>2021-10-17T12:23:11Z</time>
      </trkpt>
      <trkpt lat="46.33594" lon="5.88856">
        <ele>1090.8</ele>
        <time>2021-10-17T12:23:12Z</time>
      </trkpt>
      <trkpt lat="46.336" lon="5.88865">
        <ele>1090.8</ele>
        <time>2021-10-17T12:23:13Z</time>
      </trkpt>
      <trkpt lat="46.33606" lon="5.88874">
        <ele>1090.8</ele>
        <time>2021-10-17T12:23:14Z</time>
      </trkpt>
      <trkpt lat="46.3361" lon="5.88884">
        <ele>1090.8</ele>
        <time>2021-10-17T12:23:15Z</time>
      </trkpt>
      <trkpt lat="46.33615" lon="5.88892">
        <ele>1091.4</ele>
        <time>2021-10-17T12:23:16Z</time>
      </trkpt>
      <trkpt lat="46.3362" lon="5.889">
        <ele>1091.6</ele>
        <time>2021-10-17T12:23:17Z</time>
      </trkpt>
      <trkpt lat="46.33624" lon="5.88907">
        <ele>1092</ele>
        <time>2021-10-17T12:23:18Z</time>
      </trkpt>
      <trkpt lat="46.33628" lon="5.88914">
        <ele>1092.4</ele>
        <time>2021-10-17T12:23:19Z</time>
      </trkpt>
      <trkpt lat="46.33633" lon="5.8892">
        <ele>1092.6</ele>
        <time>2021-10-17T12:23:20Z</time>
      </trkpt>
      <trkpt lat="46.33637" lon="5.88926">
        <ele>1092.8</ele>
        <time>2021-10-17T12:23:21Z</time>
      </trkpt>
      <trkpt lat="46.3364" lon="5.88932">
        <ele>1093.2</ele>
        <time>2021-10-17T12:23:22Z</time>
      </trkpt>
      <trkpt lat="46.33644" lon="5.88938">
        <ele>1093.4</ele>
        <time>2021-10-17T12:23:23Z</time>
      </trkpt>
      <trkpt lat="46.33647" lon="5.88944">
        <ele>1093.8</ele>
        <time>2021-10-17T12:23:24Z</time>
      </trkpt>
      <trkpt lat="46.33651" lon="5.88949">
        <ele>1094.2</ele>
        <time>2021-10-17T12:23:25Z</time>
      </trkpt>
      <trkpt lat="46.33654" lon="5.88954">
        <ele>1094.4</ele>
        <time>2021-10-17T12:23:26Z</time>
      </trkpt>
      <trkpt lat="46.33658" lon="5.88958">
        <ele>1094.8</ele>
        <time>2021-10-17T12:23:27Z</time>
      </trkpt>
      <trkpt lat="46.33662" lon="5.88963">
        <ele>1095.2</ele>
        <time>2021-10-17T12:23:28Z</time>
      </trkpt>
      <trkpt lat="46.33666" lon="5.88967">
        <ele>1095.4</ele>
        <time>2021-10-17T12:23:29Z</time>
      </trkpt>
      <trkpt lat="46.33669" lon="5.88971">
        <ele>1095.6</ele>
        <time>2021-10-17T12:23:30Z</time>
      </trkpt>
      <trkpt lat="46.33673" lon="5.88975">
        <ele>1096</ele>
        <time>2021-10-17T12:23:31Z</time>
      </trkpt>
      <trkpt lat="46.33676" lon="5.88978">
        <ele>1096</ele>
        <time>2021-10-17T12:23:32Z</time>
      </trkpt>
      <trkpt lat="46.3368" lon="5.88982">
        <ele>1096.2</ele>
        <time>2021-10-17T12:23:33Z</time>
      </trkpt>
      <trkpt lat="46.33684" lon="5.88986">
        <ele>1096.2</ele>
        <time>2021-10-17T12:23:34Z</time>
      </trkpt>
      <trkpt lat="46.33687" lon="5.8899">
        <ele>1096.6</ele>
        <time>2021-10-17T12:23:35Z</time>
      </trkpt>
      <trkpt lat="46.33691" lon="5.88994">
        <ele>1096.8</ele>
        <time>2021-10-17T12:23:36Z</time>
      </trkpt>
      <trkpt lat="46.33694" lon="5.88998">
        <ele>1097.2</ele>
        <time>2021-10-17T12:23:37Z</time>
      </trkpt>
      <trkpt lat="46.33698" lon="5.89001">
        <ele>1097.4</ele>
        <time>2021-10-17T12:23:38Z</time>
      </trkpt>
      <trkpt lat="46.33702" lon="5.89004">
        <ele>1097.8</ele>
        <time>2021-10-17T12:23:39Z</time>
      </trkpt>
      <trkpt lat="46.33705" lon="5.89008">
        <ele>1098.2</ele>
        <time>2021-10-17T12:23:40Z</time>
      </trkpt>
      <trkpt lat="46.33709" lon="5.89011">
        <ele>1098.4</ele>
        <time>2021-10-17T12:23:41Z</time>
      </trkpt>
      <trkpt lat="46.33712" lon="5.89015">
        <ele>1098.8</ele>
        <time>2021-10-17T12:23:42Z</time>
      </trkpt>
      <trkpt lat="46.33716" lon="5.89019">
        <ele>1099</ele>
        <time>2021-10-17T12:23:43Z</time>
      </trkpt>
      <trkpt lat="46.33719" lon="5.89023">
        <ele>1099.4</ele>
        <time>2021-10-17T12:23:44Z</time>
      </trkpt>
      <trkpt lat="46.33723" lon="5.89028">
        <ele>1099.8</ele>
        <time>2021-10-17T12:23:45Z</time>
      </trkpt>
      <trkpt lat="46.33726" lon="5.89032">
        <ele>1100</ele>
        <time>2021-10-17T12:23:46Z</time>
      </trkpt>
      <trkpt lat="46.33729" lon="5.89037">
        <ele>1100</ele>
        <time>2021-10-17T12:23:47Z</time>
      </trkpt>
      <trkpt lat="46.33732" lon="5.89043">
        <ele>1100.4</ele>
        <time>2021-10-17T12:23:48Z</time>
      </trkpt>
      <trkpt lat="46.33734" lon="5.89048">
        <ele>1100.6</ele>
        <time>2021-10-17T12:23:49Z</time>
      </trkpt>
      <trkpt lat="46.33737" lon="5.89054">
        <ele>1100.8</ele>
        <time>2021-10-17T12:23:50Z</time>
      </trkpt>
      <trkpt lat="46.33739" lon="5.8906">
        <ele>1101.2</ele>
        <time>2021-10-17T12:23:51Z</time>
      </trkpt>
      <trkpt lat="46.33742" lon="5.89065">
        <ele>1101.4</ele>
        <time>2021-10-17T12:23:52Z</time>
      </trkpt>
      <trkpt lat="46.33744" lon="5.8907">
        <ele>1101.6</ele>
        <time>2021-10-17T12:23:53Z</time>
      </trkpt>
      <trkpt lat="46.33747" lon="5.89076">
        <ele>1101.8</ele>
        <time>2021-10-17T12:23:54Z</time>
      </trkpt>
      <trkpt lat="46.33749" lon="5.89081">
        <ele>1102.2</ele>
        <time>2021-10-17T12:23:55Z</time>
      </trkpt>
      <trkpt lat="46.3375" lon="5.89087">
        <ele>1102.4</ele>
        <time>2021-10-17T12:23:56Z</time>
      </trkpt>
      <trkpt lat="46.33751" lon="5.89092">
        <ele>1102.6</ele>
        <time>2021-10-17T12:23:57Z</time>
      </trkpt>
      <trkpt lat="46.33753" lon="5.89097">
        <ele>1103</ele>
        <time>2021-10-17T12:23:58Z</time>
      </trkpt>
      <trkpt lat="46.33754" lon="5.89102">
        <ele>1103.2</ele>
        <time>2021-10-17T12:23:59Z</time>
      </trkpt>
      <trkpt lat="46.33756" lon="5.89107">
        <ele>1103.2</ele>
        <time>2021-10-17T12:24:00Z</time>
      </trkpt>
      <trkpt lat="46.33757" lon="5.89112">
        <ele>1103.6</ele>
        <time>2021-10-17T12:24:01Z</time>
      </trkpt>
      <trkpt lat="46.33758" lon="5.89117">
        <ele>1103.6</ele>
        <time>2021-10-17T12:24:02Z</time>
      </trkpt>
      <trkpt lat="46.33759" lon="5.89122">
        <ele>1104</ele>
        <time>2021-10-17T12:24:03Z</time>
      </trkpt>
      <trkpt lat="46.3376" lon="5.89126">
        <ele>1104</ele>
        <time>2021-10-17T12:24:04Z</time>
      </trkpt>
      <trkpt lat="46.33761" lon="5.89131">
        <ele>1104.2</ele>
        <time>2021-10-17T12:24:05Z</time>
      </trkpt>
      <trkpt lat="46.33763" lon="5.89135">
        <ele>1104.6</ele>
        <time>2021-10-17T12:24:06Z</time>
      </trkpt>
      <trkpt lat="46.33764" lon="5.89139">
        <ele>1104.8</ele>
        <time>2021-10-17T12:24:07Z</time>
      </trkpt>
      <trkpt lat="46.33765" lon="5.89143">
        <ele>1105</ele>
        <time>2021-10-17T12:24:08Z</time>
      </trkpt>
      <trkpt lat="46.33767" lon="5.89147">
        <ele>1105.2</ele>
        <time>2021-10-17T12:24:09Z</time>
      </trkpt>
      <trkpt lat="46.33769" lon="5.89151">
        <ele>1105.4</ele>
        <time>2021-10-17T12:24:10Z</time>
      </trkpt>
      <trkpt lat="46.33771" lon="5.89155">
        <ele>1105.4</ele>
        <time>2021-10-17T12:24:11Z</time>
      </trkpt>
      <trkpt lat="46.33773" lon="5.89159">
        <ele>1105.8</ele>
        <time>2021-10-17T12:24:12Z</time>
      </trkpt>
      <trkpt lat="46.33775" lon="5.89163">
        <ele>1105.8</ele>
        <time>2021-10-17T12:24:13Z</time>
      </trkpt>
      <trkpt lat="46.33777" lon="5.89167">
        <ele>1106</ele>
        <time>2021-10-17T12:24:14Z</time>
      </trkpt>
      <trkpt lat="46.33779" lon="5.89171">
        <ele>1106</ele>
        <time>2021-10-17T12:24:15Z</time>
      </trkpt>
      <trkpt lat="46.33781" lon="5.89175">
        <ele>1106.4</ele>
        <time>2021-10-17T12:24:16Z</time>
      </trkpt>
      <trkpt lat="46.33784" lon="5.89179">
        <ele>1106.4</ele>
        <time>2021-10-17T12:24:17Z</time>
      </trkpt>
      <trkpt lat="46.33786" lon="5.89183">
        <ele>1106.8</ele>
        <time>2021-10-17T12:24:18Z</time>
      </trkpt>
      <trkpt lat="46.33789" lon="5.89186">
        <ele>1106.8</ele>
        <time>2021-10-17T12:24:19Z</time>
      </trkpt>
      <trkpt lat="46.33792" lon="5.8919">
        <ele>1107</ele>
        <time>2021-10-17T12:24:20Z</time>
      </trkpt>
      <trkpt lat="46.33795" lon="5.89193">
        <ele>1107</ele>
        <time>2021-10-17T12:24:21Z</time>
      </trkpt>
      <trkpt lat="46.33798" lon="5.89197">
        <ele>1107.2</ele>
        <time>2021-10-17T12:24:22Z</time>
      </trkpt>
      <trkpt lat="46.33801" lon="5.89201">
        <ele>1107.2</ele>
        <time>2021-10-17T12:24:23Z</time>
      </trkpt>
      <trkpt lat="46.33805" lon="5.89204">
        <ele>1107.6</ele>
        <time>2021-10-17T12:24:24Z</time>
      </trkpt>
      <trkpt lat="46.33808" lon="5.89208">
        <ele>1107.6</ele>
        <time>2021-10-17T12:24:25Z</time>
      </trkpt>
      <trkpt lat="46.33812" lon="5.89212">
        <ele>1107.8</ele>
        <time>2021-10-17T12:24:26Z</time>
      </trkpt>
      <trkpt lat="46.33816" lon="5.89215">
        <ele>1107.8</ele>
        <time>2021-10-17T12:24:27Z</time>
      </trkpt>
      <trkpt lat="46.33819" lon="5.89218">
        <ele>1108.2</ele>
        <time>2021-10-17T12:24:28Z</time>
      </trkpt>
      <trkpt lat="46.33823" lon="5.89221">
        <ele>1108.2</ele>
        <time>2021-10-17T12:24:29Z</time>
      </trkpt>
      <trkpt lat="46.33827" lon="5.89223">
        <ele>1108.2</ele>
        <time>2021-10-17T12:24:30Z</time>
      </trkpt>
      <trkpt lat="46.33831" lon="5.89227">
        <ele>1108.2</ele>
        <time>2021-10-17T12:24:31Z</time>
      </trkpt>
      <trkpt lat="46.33836" lon="5.8923">
        <ele>1108.2</ele>
        <time>2021-10-17T12:24:32Z</time>
      </trkpt>
      <trkpt lat="46.3384" lon="5.89233">
        <ele>1108.2</ele>
        <time>2021-10-17T12:24:33Z</time>
      </trkpt>
      <trkpt lat="46.33845" lon="5.89235">
        <ele>1108.2</ele>
        <time>2021-10-17T12:24:34Z</time>
      </trkpt>
      <trkpt lat="46.3385" lon="5.89239">
        <ele>1108.2</ele>
        <time>2021-10-17T12:24:35Z</time>
      </trkpt>
      <trkpt lat="46.33855" lon="5.89242">
        <ele>1108.2</ele>
        <time>2021-10-17T12:24:36Z</time>
      </trkpt>
      <trkpt lat="46.3386" lon="5.89245">
        <ele>1108.2</ele>
        <time>2021-10-17T12:24:37Z</time>
      </trkpt>
      <trkpt lat="46.33865" lon="5.89248">
        <ele>1108.2</ele>
        <time>2021-10-17T12:24:38Z</time>
      </trkpt>
      <trkpt lat="46.33871" lon="5.89252">
        <ele>1108.2</ele>
        <time>2021-10-17T12:24:39Z</time>
      </trkpt>
      <trkpt lat="46.33876" lon="5.89255">
        <ele>1108.2</ele>
        <time>2021-10-17T12:24:40Z</time>
      </trkpt>
      <trkpt lat="46.33882" lon="5.89258">
        <ele>1108.2</ele>
        <time>2021-10-17T12:24:41Z</time>
      </trkpt>
      <trkpt lat="46.33887" lon="5.89262">
        <ele>1108.2</ele>
        <time>2021-10-17T12:24:42Z</time>
      </trkpt>
      <trkpt lat="46.33893" lon="5.89265">
        <ele>1108.2</ele>
        <time>2021-10-17T12:24:43Z</time>
      </trkpt>
      <trkpt lat="46.33899" lon="5.89268">
        <ele>1108.2</ele>
        <time>2021-10-17T12:24:44Z</time>
      </trkpt>
      <trkpt lat="46.33904" lon="5.89271">
        <ele>1108</ele>
        <time>2021-10-17T12:24:45Z</time>
      </trkpt>
      <trkpt lat="46.3391" lon="5.89274">
        <ele>1108</ele>
        <time>2021-10-17T12:24:46Z</time>
      </trkpt>
      <trkpt lat="46.33916" lon="5.89278">
        <ele>1108</ele>
        <time>2021-10-17T12:24:47Z</time>
      </trkpt>
      <trkpt lat="46.33922" lon="5.89281">
        <ele>1108</ele>
        <time>2021-10-17T12:24:48Z</time>
      </trkpt>
      <trkpt lat="46.33928" lon="5.89284">
        <ele>1107.6</ele>
        <time>2021-10-17T12:24:49Z</time>
      </trkpt>
      <trkpt lat="46.33934" lon="5.89286">
        <ele>1107.6</ele>
        <time>2021-10-17T12:24:50Z</time>
      </trkpt>
      <trkpt lat="46.3394" lon="5.89288">
        <ele>1107.4</ele>
        <time>2021-10-17T12:24:51Z</time>
      </trkpt>
      <trkpt lat="46.33947" lon="5.8929">
        <ele>1107.4</ele>
        <time>2021-10-17T12:24:52Z</time>
      </trkpt>
      <trkpt lat="46.33953" lon="5.89292">
        <ele>1107</ele>
        <time>2021-10-17T12:24:53Z</time>
      </trkpt>
      <trkpt lat="46.3396" lon="5.89294">
        <ele>1107</ele>
        <time>2021-10-17T12:24:54Z</time>
      </trkpt>
      <trkpt lat="46.33967" lon="5.89297">
        <ele>1106.6</ele>
        <time>2021-10-17T12:24:55Z</time>
      </trkpt>
      <trkpt lat="46.33974" lon="5.893">
        <ele>1106.4</ele>
        <time>2021-10-17T12:24:56Z</time>
      </trkpt>
      <trkpt lat="46.33981" lon="5.89304">
        <ele>1106.4</ele>
        <time>2021-10-17T12:24:57Z</time>
      </trkpt>
      <trkpt lat="46.33988" lon="5.89309">
        <ele>1106</ele>
        <time>2021-10-17T12:24:58Z</time>
      </trkpt>
      <trkpt lat="46.33994" lon="5.89314">
        <ele>1106</ele>
        <time>2021-10-17T12:24:59Z</time>
      </trkpt>
      <trkpt lat="46.34001" lon="5.8932">
        <ele>1105.8</ele>
        <time>2021-10-17T12:25:00Z</time>
      </trkpt>
      <trkpt lat="46.34007" lon="5.89326">
        <ele>1105.8</ele>
        <time>2021-10-17T12:25:01Z</time>
      </trkpt>
      <trkpt lat="46.34014" lon="5.89331">
        <ele>1105.4</ele>
        <time>2021-10-17T12:25:02Z</time>
      </trkpt>
      <trkpt lat="46.3402" lon="5.89337">
        <ele>1105.2</ele>
        <time>2021-10-17T12:25:03Z</time>
      </trkpt>
      <trkpt lat="46.34027" lon="5.89343">
        <ele>1105</ele>
        <time>2021-10-17T12:25:04Z</time>
      </trkpt>
      <trkpt lat="46.34033" lon="5.89349">
        <ele>1104.8</ele>
        <time>2021-10-17T12:25:05Z</time>
      </trkpt>
      <trkpt lat="46.3404" lon="5.89355">
        <ele>1104.8</ele>
        <time>2021-10-17T12:25:06Z</time>
      </trkpt>
      <trkpt lat="46.34046" lon="5.89363">
        <ele>1104.6</ele>
        <time>2021-10-17T12:25:07Z</time>
      </trkpt>
      <trkpt lat="46.34052" lon="5.8937">
        <ele>1104.6</ele>
        <time>2021-10-17T12:25:08Z</time>
      </trkpt>
      <trkpt lat="46.34058" lon="5.89378">
        <ele>1104.2</ele>
        <time>2021-10-17T12:25:09Z</time>
      </trkpt>
      <trkpt lat="46.34064" lon="5.89386">
        <ele>1104.2</ele>
        <time>2021-10-17T12:25:10Z</time>
      </trkpt>
      <trkpt lat="46.3407" lon="5.89394">
        <ele>1103.8</ele>
        <time>2021-10-17T12:25:11Z</time>
      </trkpt>
      <trkpt lat="46.34077" lon="5.89401">
        <ele>1103.6</ele>
        <time>2021-10-17T12:25:12Z</time>
      </trkpt>
      <trkpt lat="46.34084" lon="5.89408">
        <ele>1103.6</ele>
        <time>2021-10-17T12:25:13Z</time>
      </trkpt>
      <trkpt lat="46.34092" lon="5.89415">
        <ele>1103.4</ele>
        <time>2021-10-17T12:25:14Z</time>
      </trkpt>
      <trkpt lat="46.34099" lon="5.89422">
        <ele>1103.4</ele>
        <time>2021-10-17T12:25:15Z</time>
      </trkpt>
      <trkpt lat="46.34107" lon="5.89429">
        <ele>1103</ele>
        <time>2021-10-17T12:25:16Z</time>
      </trkpt>
      <trkpt lat="46.34114" lon="5.89436">
        <ele>1103</ele>
        <time>2021-10-17T12:25:17Z</time>
      </trkpt>
      <trkpt lat="46.34121" lon="5.89443">
        <ele>1102.4</ele>
        <time>2021-10-17T12:25:18Z</time>
      </trkpt>
      <trkpt lat="46.34129" lon="5.8945">
        <ele>1102.2</ele>
        <time>2021-10-17T12:25:19Z</time>
      </trkpt>
      <trkpt lat="46.34136" lon="5.89457">
        <ele>1102</ele>
        <time>2021-10-17T12:25:20Z</time>
      </trkpt>
      <trkpt lat="46.34143" lon="5.89464">
        <ele>1101.6</ele>
        <time>2021-10-17T12:25:21Z</time>
      </trkpt>
      <trkpt lat="46.3415" lon="5.8947">
        <ele>1101.6</ele>
        <time>2021-10-17T12:25:22Z</time>
      </trkpt>
      <trkpt lat="46.34157" lon="5.89477">
        <ele>1101.4</ele>
        <time>2021-10-17T12:25:23Z</time>
      </trkpt>
      <trkpt lat="46.34164" lon="5.89483">
        <ele>1101.4</ele>
        <time>2021-10-17T12:25:24Z</time>
      </trkpt>
      <trkpt lat="46.34171" lon="5.89489">
        <ele>1101</ele>
        <time>2021-10-17T12:25:25Z</time>
      </trkpt>
      <trkpt lat="46.34178" lon="5.89495">
        <ele>1101</ele>
        <time>2021-10-17T12:25:26Z</time>
      </trkpt>
      <trkpt lat="46.34185" lon="5.89501">
        <ele>1100.6</ele>
        <time>2021-10-17T12:25:27Z</time>
      </trkpt>
      <trkpt lat="46.34192" lon="5.89507">
        <ele>1100.6</ele>
        <time>2021-10-17T12:25:28Z</time>
      </trkpt>
      <trkpt lat="46.34199" lon="5.89513">
        <ele>1100.2</ele>
        <time>2021-10-17T12:25:29Z</time>
      </trkpt>
      <trkpt lat="46.34206" lon="5.89519">
        <ele>1100</ele>
        <time>2021-10-17T12:25:30Z</time>
      </trkpt>
      <trkpt lat="46.34213" lon="5.89525">
        <ele>1100</ele>
        <time>2021-10-17T12:25:31Z</time>
      </trkpt>
      <trkpt lat="46.34219" lon="5.8953">
        <ele>1099.6</ele>
        <time>2021-10-17T12:25:32Z</time>
      </trkpt>
      <trkpt lat="46.34226" lon="5.89536">
        <ele>1099.6</ele>
        <time>2021-10-17T12:25:33Z</time>
      </trkpt>
      <trkpt lat="46.34232" lon="5.89542">
        <ele>1099.6</ele>
        <time>2021-10-17T12:25:34Z</time>
      </trkpt>
      <trkpt lat="46.34238" lon="5.89547">
        <ele>1099.6</ele>
        <time>2021-10-17T12:25:35Z</time>
      </trkpt>
      <trkpt lat="46.34244" lon="5.89552">
        <ele>1099.6</ele>
        <time>2021-10-17T12:25:36Z</time>
      </trkpt>
      <trkpt lat="46.3425" lon="5.89557">
        <ele>1099.8</ele>
        <time>2021-10-17T12:25:37Z</time>
      </trkpt>
      <trkpt lat="46.34256" lon="5.89561">
        <ele>1099.8</ele>
        <time>2021-10-17T12:25:38Z</time>
      </trkpt>
      <trkpt lat="46.34262" lon="5.89565">
        <ele>1099.8</ele>
        <time>2021-10-17T12:25:39Z</time>
      </trkpt>
      <trkpt lat="46.34268" lon="5.89569">
        <ele>1099.8</ele>
        <time>2021-10-17T12:25:40Z</time>
      </trkpt>
      <trkpt lat="46.34274" lon="5.89572">
        <ele>1099.8</ele>
        <time>2021-10-17T12:25:41Z</time>
      </trkpt>
      <trkpt lat="46.3428" lon="5.89574">
        <ele>1099.8</ele>
        <time>2021-10-17T12:25:42Z</time>
      </trkpt>
      <trkpt lat="46.34286" lon="5.89578">
        <ele>1099.8</ele>
        <time>2021-10-17T12:25:43Z</time>
      </trkpt>
      <trkpt lat="46.34293" lon="5.89581">
        <ele>1099.8</ele>
        <time>2021-10-17T12:25:44Z</time>
      </trkpt>
      <trkpt lat="46.34299" lon="5.89584">
        <ele>1099.6</ele>
        <time>2021-10-17T12:25:45Z</time>
      </trkpt>
      <trkpt lat="46.34306" lon="5.89587">
        <ele>1099.6</ele>
        <time>2021-10-17T12:25:46Z</time>
      </trkpt>
      <trkpt lat="46.34313" lon="5.8959">
        <ele>1099.6</ele>
        <time>2021-10-17T12:25:47Z</time>
      </trkpt>
      <trkpt lat="46.34319" lon="5.89594">
        <ele>1099.2</ele>
        <time>2021-10-17T12:25:48Z</time>
      </trkpt>
      <trkpt lat="46.34326" lon="5.89597">
        <ele>1099</ele>
        <time>2021-10-17T12:25:49Z</time>
      </trkpt>
      <trkpt lat="46.34333" lon="5.896">
        <ele>1099</ele>
        <time>2021-10-17T12:25:50Z</time>
      </trkpt>
      <trkpt lat="46.3434" lon="5.89603">
        <ele>1098.8</ele>
        <time>2021-10-17T12:25:51Z</time>
      </trkpt>
      <trkpt lat="46.34347" lon="5.89607">
        <ele>1098.6</ele>
        <time>2021-10-17T12:25:52Z</time>
      </trkpt>
      <trkpt lat="46.34354" lon="5.8961">
        <ele>1098.2</ele>
        <time>2021-10-17T12:25:53Z</time>
      </trkpt>
      <trkpt lat="46.34361" lon="5.89614">
        <ele>1098</ele>
        <time>2021-10-17T12:25:54Z</time>
      </trkpt>
      <trkpt lat="46.34369" lon="5.89617">
        <ele>1098</ele>
        <time>2021-10-17T12:25:55Z</time>
      </trkpt>
      <trkpt lat="46.34376" lon="5.8962">
        <ele>1097.8</ele>
        <time>2021-10-17T12:25:56Z</time>
      </trkpt>
      <trkpt lat="46.34384" lon="5.89624">
        <ele>1097.8</ele>
        <time>2021-10-17T12:25:57Z</time>
      </trkpt>
      <trkpt lat="46.34391" lon="5.89627">
        <ele>1097.8</ele>
        <time>2021-10-17T12:25:58Z</time>
      </trkpt>
      <trkpt lat="46.34398" lon="5.8963">
        <ele>1097.6</ele>
        <time>2021-10-17T12:25:59Z</time>
      </trkpt>
      <trkpt lat="46.34405" lon="5.89633">
        <ele>1097.6</ele>
        <time>2021-10-17T12:26:00Z</time>
      </trkpt>
      <trkpt lat="46.34413" lon="5.89637">
        <ele>1097.4</ele>
        <time>2021-10-17T12:26:01Z</time>
      </trkpt>
      <trkpt lat="46.3442" lon="5.8964">
        <ele>1097.4</ele>
        <time>2021-10-17T12:26:02Z</time>
      </trkpt>
      <trkpt lat="46.34427" lon="5.89643">
        <ele>1097</ele>
        <time>2021-10-17T12:26:03Z</time>
      </trkpt>
      <trkpt lat="46.34434" lon="5.89646">
        <ele>1097</ele>
        <time>2021-10-17T12:26:04Z</time>
      </trkpt>
      <trkpt lat="46.34442" lon="5.89648">
        <ele>1096.6</ele>
        <time>2021-10-17T12:26:05Z</time>
      </trkpt>
      <trkpt lat="46.34449" lon="5.89651">
        <ele>1096.6</ele>
        <time>2021-10-17T12:26:06Z</time>
      </trkpt>
      <trkpt lat="46.34457" lon="5.89653">
        <ele>1096.4</ele>
        <time>2021-10-17T12:26:07Z</time>
      </trkpt>
      <trkpt lat="46.34464" lon="5.89656">
        <ele>1096.4</ele>
        <time>2021-10-17T12:26:08Z</time>
      </trkpt>
      <trkpt lat="46.34471" lon="5.89659">
        <ele>1096.2</ele>
        <time>2021-10-17T12:26:09Z</time>
      </trkpt>
      <trkpt lat="46.34479" lon="5.89662">
        <ele>1096.2</ele>
        <time>2021-10-17T12:26:10Z</time>
      </trkpt>
      <trkpt lat="46.34486" lon="5.89666">
        <ele>1096</ele>
        <time>2021-10-17T12:26:11Z</time>
      </trkpt>
      <trkpt lat="46.34493" lon="5.89669">
        <ele>1095.8</ele>
        <time>2021-10-17T12:26:12Z</time>
      </trkpt>
      <trkpt lat="46.34501" lon="5.89672">
        <ele>1095.8</ele>
        <time>2021-10-17T12:26:13Z</time>
      </trkpt>
      <trkpt lat="46.34508" lon="5.89675">
        <ele>1095.4</ele>
        <time>2021-10-17T12:26:14Z</time>
      </trkpt>
      <trkpt lat="46.34515" lon="5.89678">
        <ele>1095.4</ele>
        <time>2021-10-17T12:26:15Z</time>
      </trkpt>
      <trkpt lat="46.34522" lon="5.89681">
        <ele>1095.2</ele>
        <time>2021-10-17T12:26:16Z</time>
      </trkpt>
      <trkpt lat="46.34529" lon="5.89684">
        <ele>1095.2</ele>
        <time>2021-10-17T12:26:17Z</time>
      </trkpt>
      <trkpt lat="46.34535" lon="5.89688">
        <ele>1095.2</ele>
        <time>2021-10-17T12:26:18Z</time>
      </trkpt>
      <trkpt lat="46.34542" lon="5.89691">
        <ele>1095.2</ele>
        <time>2021-10-17T12:26:19Z</time>
      </trkpt>
      <trkpt lat="46.34548" lon="5.89695">
        <ele>1095.2</ele>
        <time>2021-10-17T12:26:20Z</time>
      </trkpt>
      <trkpt lat="46.34555" lon="5.897">
        <ele>1095.2</ele>
        <time>2021-10-17T12:26:21Z</time>
      </trkpt>
      <trkpt lat="46.34561" lon="5.89705">
        <ele>1095.2</ele>
        <time>2021-10-17T12:26:22Z</time>
      </trkpt>
      <trkpt lat="46.34567" lon="5.89709">
        <ele>1095.2</ele>
        <time>2021-10-17T12:26:23Z</time>
      </trkpt>
      <trkpt lat="46.34573" lon="5.89714">
        <ele>1095.2</ele>
        <time>2021-10-17T12:26:24Z</time>
      </trkpt>
      <trkpt lat="46.34579" lon="5.89719">
        <ele>1095</ele>
        <time>2021-10-17T12:26:25Z</time>
      </trkpt>
      <trkpt lat="46.34586" lon="5.89724">
        <ele>1095</ele>
        <time>2021-10-17T12:26:26Z</time>
      </trkpt>
      <trkpt lat="46.34592" lon="5.89728">
        <ele>1095</ele>
        <time>2021-10-17T12:26:27Z</time>
      </trkpt>
      <trkpt lat="46.34598" lon="5.89733">
        <ele>1094.8</ele>
        <time>2021-10-17T12:26:28Z</time>
      </trkpt>
      <trkpt lat="46.34605" lon="5.89737">
        <ele>1094.8</ele>
        <time>2021-10-17T12:26:29Z</time>
      </trkpt>
      <trkpt lat="46.34611" lon="5.89742">
        <ele>1094.6</ele>
        <time>2021-10-17T12:26:30Z</time>
      </trkpt>
      <trkpt lat="46.34618" lon="5.89745">
        <ele>1094.6</ele>
        <time>2021-10-17T12:26:31Z</time>
      </trkpt>
      <trkpt lat="46.34624" lon="5.89749">
        <ele>1094.6</ele>
        <time>2021-10-17T12:26:32Z</time>
      </trkpt>
      <trkpt lat="46.34631" lon="5.89752">
        <ele>1094.6</ele>
        <time>2021-10-17T12:26:33Z</time>
      </trkpt>
      <trkpt lat="46.34638" lon="5.89754">
        <ele>1094.6</ele>
        <time>2021-10-17T12:26:34Z</time>
      </trkpt>
      <trkpt lat="46.34645" lon="5.89757">
        <ele>1094.2</ele>
        <time>2021-10-17T12:26:35Z</time>
      </trkpt>
      <trkpt lat="46.34652" lon="5.8976">
        <ele>1094</ele>
        <time>2021-10-17T12:26:36Z</time>
      </trkpt>
      <trkpt lat="46.34659" lon="5.89762">
        <ele>1094</ele>
        <time>2021-10-17T12:26:37Z</time>
      </trkpt>
      <trkpt lat="46.34666" lon="5.89764">
        <ele>1093.8</ele>
        <time>2021-10-17T12:26:38Z</time>
      </trkpt>
      <trkpt lat="46.34674" lon="5.89764">
        <ele>1093.8</ele>
        <time>2021-10-17T12:26:39Z</time>
      </trkpt>
      <trkpt lat="46.34681" lon="5.89765">
        <ele>1093.4</ele>
        <time>2021-10-17T12:26:40Z</time>
      </trkpt>
      <trkpt lat="46.34689" lon="5.89763">
        <ele>1093</ele>
        <time>2021-10-17T12:26:41Z</time>
      </trkpt>
      <trkpt lat="46.34697" lon="5.89761">
        <ele>1092.8</ele>
        <time>2021-10-17T12:26:42Z</time>
      </trkpt>
      <trkpt lat="46.34705" lon="5.89758">
        <ele>1092.4</ele>
        <time>2021-10-17T12:26:43Z</time>
      </trkpt>
      <trkpt lat="46.34713" lon="5.89755">
        <ele>1092.2</ele>
        <time>2021-10-17T12:26:44Z</time>
      </trkpt>
      <trkpt lat="46.34721" lon="5.89752">
        <ele>1092</ele>
        <time>2021-10-17T12:26:45Z</time>
      </trkpt>
      <trkpt lat="46.3473" lon="5.89749">
        <ele>1091.6</ele>
        <time>2021-10-17T12:26:46Z</time>
      </trkpt>
      <trkpt lat="46.34738" lon="5.89746">
        <ele>1091.4</ele>
        <time>2021-10-17T12:26:47Z</time>
      </trkpt>
      <trkpt lat="46.34747" lon="5.89742">
        <ele>1091</ele>
        <time>2021-10-17T12:26:48Z</time>
      </trkpt>
      <trkpt lat="46.34756" lon="5.89739">
        <ele>1090.6</ele>
        <time>2021-10-17T12:26:49Z</time>
      </trkpt>
      <trkpt lat="46.34764" lon="5.89736">
        <ele>1090.4</ele>
        <time>2021-10-17T12:26:50Z</time>
      </trkpt>
      <trkpt lat="46.34773" lon="5.89732">
        <ele>1090</ele>
        <time>2021-10-17T12:26:51Z</time>
      </trkpt>
      <trkpt lat="46.34782" lon="5.89729">
        <ele>1089.4</ele>
        <time>2021-10-17T12:26:52Z</time>
      </trkpt>
      <trkpt lat="46.34791" lon="5.89727">
        <ele>1089</ele>
        <time>2021-10-17T12:26:53Z</time>
      </trkpt>
      <trkpt lat="46.34801" lon="5.89727">
        <ele>1088.4</ele>
        <time>2021-10-17T12:26:54Z</time>
      </trkpt>
      <trkpt lat="46.3481" lon="5.89728">
        <ele>1088</ele>
        <time>2021-10-17T12:26:55Z</time>
      </trkpt>
      <trkpt lat="46.34819" lon="5.89732">
        <ele>1087.4</ele>
        <time>2021-10-17T12:26:56Z</time>
      </trkpt>
      <trkpt lat="46.34828" lon="5.89737">
        <ele>1087</ele>
        <time>2021-10-17T12:26:57Z</time>
      </trkpt>
      <trkpt lat="46.34837" lon="5.89742">
        <ele>1086.4</ele>
        <time>2021-10-17T12:26:58Z</time>
      </trkpt>
      <trkpt lat="46.34846" lon="5.89748">
        <ele>1086</ele>
        <time>2021-10-17T12:26:59Z</time>
      </trkpt>
      <trkpt lat="46.34855" lon="5.89755">
        <ele>1085.4</ele>
        <time>2021-10-17T12:27:00Z</time>
      </trkpt>
      <trkpt lat="46.34864" lon="5.89763">
        <ele>1084.8</ele>
        <time>2021-10-17T12:27:01Z</time>
      </trkpt>
      <trkpt lat="46.34872" lon="5.8977">
        <ele>1084.4</ele>
        <time>2021-10-17T12:27:02Z</time>
      </trkpt>
      <trkpt lat="46.34881" lon="5.89779">
        <ele>1084</ele>
        <time>2021-10-17T12:27:03Z</time>
      </trkpt>
      <trkpt lat="46.34889" lon="5.89788">
        <ele>1083.6</ele>
        <time>2021-10-17T12:27:04Z</time>
      </trkpt>
      <trkpt lat="46.34897" lon="5.89797">
        <ele>1083</ele>
        <time>2021-10-17T12:27:05Z</time>
      </trkpt>
      <trkpt lat="46.34906" lon="5.89807">
        <ele>1082.4</ele>
        <time>2021-10-17T12:27:06Z</time>
      </trkpt>
      <trkpt lat="46.34914" lon="5.89816">
        <ele>1081.8</ele>
        <time>2021-10-17T12:27:07Z</time>
      </trkpt>
      <trkpt lat="46.34922" lon="5.89827">
        <ele>1081.4</ele>
        <time>2021-10-17T12:27:08Z</time>
      </trkpt>
      <trkpt lat="46.3493" lon="5.89836">
        <ele>1080.8</ele>
        <time>2021-10-17T12:27:09Z</time>
      </trkpt>
      <trkpt lat="46.34937" lon="5.89846">
        <ele>1080.4</ele>
        <time>2021-10-17T12:27:10Z</time>
      </trkpt>
      <trkpt lat="46.34944" lon="5.89857">
        <ele>1079.8</ele>
        <time>2021-10-17T12:27:11Z</time>
      </trkpt>
      <trkpt lat="46.3495" lon="5.8987">
        <ele>1079</ele>
        <time>2021-10-17T12:27:12Z</time>
      </trkpt>
      <trkpt lat="46.34956" lon="5.89882">
        <ele>1078.6</ele>
        <time>2021-10-17T12:27:13Z</time>
      </trkpt>
      <trkpt lat="46.3496" lon="5.89896">
        <ele>1078</ele>
        <time>2021-10-17T12:27:14Z</time>
      </trkpt>
      <trkpt lat="46.34964" lon="5.8991">
        <ele>1077.4</ele>
        <time>2021-10-17T12:27:15Z</time>
      </trkpt>
      <trkpt lat="46.34968" lon="5.89923">
        <ele>1077</ele>
        <time>2021-10-17T12:27:16Z</time>
      </trkpt>
      <trkpt lat="46.34973" lon="5.89937">
        <ele>1076.4</ele>
        <time>2021-10-17T12:27:17Z</time>
      </trkpt>
      <trkpt lat="46.34978" lon="5.89951">
        <ele>1075.8</ele>
        <time>2021-10-17T12:27:18Z</time>
      </trkpt>
      <trkpt lat="46.34983" lon="5.89964">
        <ele>1075.2</ele>
        <time>2021-10-17T12:27:19Z</time>
      </trkpt>
      <trkpt lat="46.34988" lon="5.89977">
        <ele>1074.6</ele>
        <time>2021-10-17T12:27:20Z</time>
      </trkpt>
      <trkpt lat="46.34993" lon="5.89989">
        <ele>1074</ele>
        <time>2021-10-17T12:27:21Z</time>
      </trkpt>
      <trkpt lat="46.34996" lon="5.9">
        <ele>1073.2</ele>
        <time>2021-10-17T12:27:22Z</time>
      </trkpt>
      <trkpt lat="46.34998" lon="5.9001">
        <ele>1072.8</ele>
        <time>2021-10-17T12:27:23Z</time>
      </trkpt>
      <trkpt lat="46.35" lon="5.90018">
        <ele>1072.2</ele>
        <time>2021-10-17T12:27:24Z</time>
      </trkpt>
      <trkpt lat="46.35002" lon="5.90025">
        <ele>1071.8</ele>
        <time>2021-10-17T12:27:25Z</time>
      </trkpt>
      <trkpt lat="46.35003" lon="5.90029">
        <ele>1071.4</ele>
        <time>2021-10-17T12:27:26Z</time>
      </trkpt>
      <trkpt lat="46.35003" lon="5.90033">
        <ele>1071</ele>
        <time>2021-10-17T12:27:27Z</time>
      </trkpt>
      <trkpt lat="46.35004" lon="5.90035">
        <ele>1070.6</ele>
        <time>2021-10-17T12:27:28Z</time>
      </trkpt>
      <trkpt lat="46.35005" lon="5.90036">
        <ele>1070.4</ele>
        <time>2021-10-17T12:27:29Z</time>
      </trkpt>
      <trkpt lat="46.35006" lon="5.90035">
        <ele>1070.2</ele>
        <time>2021-10-17T12:27:30Z</time>
      </trkpt>
      <trkpt lat="46.35007" lon="5.90034">
        <ele>1070.2</ele>
        <time>2021-10-17T12:27:31Z</time>
      </trkpt>
      <trkpt lat="46.35007" lon="5.90032">
        <ele>1070.2</ele>
        <time>2021-10-17T12:27:32Z</time>
      </trkpt>
      <trkpt lat="46.35008" lon="5.90031">
        <ele>1070.2</ele>
        <time>2021-10-17T12:27:33Z</time>
      </trkpt>
      <trkpt lat="46.35008" lon="5.90029">
        <ele>1070.2</ele>
        <time>2021-10-17T12:27:34Z</time>
      </trkpt>
      <trkpt lat="46.35008" lon="5.90028">
        <ele>1070.2</ele>
        <time>2021-10-17T12:27:35Z</time>
      </trkpt>
      <trkpt lat="46.35008" lon="5.90027">
        <ele>1070.2</ele>
        <time>2021-10-17T12:27:36Z</time>
      </trkpt>
      <trkpt lat="46.35008" lon="5.90027">
        <ele>1070.2</ele>
        <time>2021-10-17T12:27:37Z</time>
      </trkpt>
      <trkpt lat="46.35005" lon="5.90035">
        <ele>1070.2</ele>
        <time>2021-10-17T12:31:47Z</time>
      </trkpt>
      <trkpt lat="46.35005" lon="5.90039">
        <ele>1070.2</ele>
        <time>2021-10-17T12:31:48Z</time>
      </trkpt>
      <trkpt lat="46.35004" lon="5.90043">
        <ele>1070.2</ele>
        <time>2021-10-17T12:31:49Z</time>
      </trkpt>
      <trkpt lat="46.35004" lon="5.90047">
        <ele>1070.2</ele>
        <time>2021-10-17T12:31:50Z</time>
      </trkpt>
      <trkpt lat="46.35005" lon="5.90053">
        <ele>1069.8</ele>
        <time>2021-10-17T12:31:51Z</time>
      </trkpt>
      <trkpt lat="46.35006" lon="5.9006">
        <ele>1069.8</ele>
        <time>2021-10-17T12:31:52Z</time>
      </trkpt>
      <trkpt lat="46.35006" lon="5.90068">
        <ele>1069.4</ele>
        <time>2021-10-17T12:31:53Z</time>
      </trkpt>
      <trkpt lat="46.35007" lon="5.90077">
        <ele>1069.4</ele>
        <time>2021-10-17T12:31:54Z</time>
      </trkpt>
      <trkpt lat="46.35007" lon="5.90086">
        <ele>1069</ele>
        <time>2021-10-17T12:31:55Z</time>
      </trkpt>
      <trkpt lat="46.35007" lon="5.90096">
        <ele>1068.8</ele>
        <time>2021-10-17T12:31:56Z</time>
      </trkpt>
      <trkpt lat="46.35007" lon="5.90107">
        <ele>1068.4</ele>
        <time>2021-10-17T12:31:57Z</time>
      </trkpt>
      <trkpt lat="46.35007" lon="5.90119">
        <ele>1067.8</ele>
        <time>2021-10-17T12:31:58Z</time>
      </trkpt>
      <trkpt lat="46.35006" lon="5.90131">
        <ele>1067.4</ele>
        <time>2021-10-17T12:31:59Z</time>
      </trkpt>
      <trkpt lat="46.35006" lon="5.90143">
        <ele>1066.8</ele>
        <time>2021-10-17T12:32:00Z</time>
      </trkpt>
      <trkpt lat="46.35006" lon="5.90156">
        <ele>1066.2</ele>
        <time>2021-10-17T12:32:01Z</time>
      </trkpt>
      <trkpt lat="46.35006" lon="5.9017">
        <ele>1065.8</ele>
        <time>2021-10-17T12:32:02Z</time>
      </trkpt>
      <trkpt lat="46.35008" lon="5.90186">
        <ele>1065.2</ele>
        <time>2021-10-17T12:32:03Z</time>
      </trkpt>
      <trkpt lat="46.35009" lon="5.90203">
        <ele>1064.6</ele>
        <time>2021-10-17T12:32:04Z</time>
      </trkpt>
      <trkpt lat="46.35011" lon="5.90218">
        <ele>1064</ele>
        <time>2021-10-17T12:32:05Z</time>
      </trkpt>
      <trkpt lat="46.35013" lon="5.90233">
        <ele>1063.2</ele>
        <time>2021-10-17T12:32:06Z</time>
      </trkpt>
      <trkpt lat="46.35016" lon="5.90248">
        <ele>1062.4</ele>
        <time>2021-10-17T12:32:07Z</time>
      </trkpt>
      <trkpt lat="46.35019" lon="5.90263">
        <ele>1061.8</ele>
        <time>2021-10-17T12:32:08Z</time>
      </trkpt>
      <trkpt lat="46.35023" lon="5.90279">
        <ele>1061</ele>
        <time>2021-10-17T12:32:09Z</time>
      </trkpt>
      <trkpt lat="46.35027" lon="5.90294">
        <ele>1060.2</ele>
        <time>2021-10-17T12:32:10Z</time>
      </trkpt>
      <trkpt lat="46.35031" lon="5.90309">
        <ele>1059.4</ele>
        <time>2021-10-17T12:32:11Z</time>
      </trkpt>
      <trkpt lat="46.35036" lon="5.90323">
        <ele>1058.6</ele>
        <time>2021-10-17T12:32:12Z</time>
      </trkpt>
      <trkpt lat="46.3504" lon="5.90338">
        <ele>1057.6</ele>
        <time>2021-10-17T12:32:13Z</time>
      </trkpt>
      <trkpt lat="46.35043" lon="5.90353">
        <ele>1056.6</ele>
        <time>2021-10-17T12:32:14Z</time>
      </trkpt>
      <trkpt lat="46.35045" lon="5.90368">
        <ele>1055.8</ele>
        <time>2021-10-17T12:32:15Z</time>
      </trkpt>
      <trkpt lat="46.35046" lon="5.90384">
        <ele>1054.8</ele>
        <time>2021-10-17T12:32:16Z</time>
      </trkpt>
      <trkpt lat="46.35048" lon="5.90399">
        <ele>1053.8</ele>
        <time>2021-10-17T12:32:17Z</time>
      </trkpt>
      <trkpt lat="46.3505" lon="5.90415">
        <ele>1053</ele>
        <time>2021-10-17T12:32:18Z</time>
      </trkpt>
      <trkpt lat="46.35053" lon="5.90429">
        <ele>1052</ele>
        <time>2021-10-17T12:32:19Z</time>
      </trkpt>
      <trkpt lat="46.35055" lon="5.90442">
        <ele>1050.8</ele>
        <time>2021-10-17T12:32:20Z</time>
      </trkpt>
      <trkpt lat="46.35056" lon="5.90455">
        <ele>1050</ele>
        <time>2021-10-17T12:32:21Z</time>
      </trkpt>
      <trkpt lat="46.35055" lon="5.90469">
        <ele>1049</ele>
        <time>2021-10-17T12:32:22Z</time>
      </trkpt>
      <trkpt lat="46.35052" lon="5.90482">
        <ele>1048.2</ele>
        <time>2021-10-17T12:32:23Z</time>
      </trkpt>
      <trkpt lat="46.3505" lon="5.90496">
        <ele>1047.4</ele>
        <time>2021-10-17T12:32:24Z</time>
      </trkpt>
      <trkpt lat="46.35046" lon="5.90512">
        <ele>1046.4</ele>
        <time>2021-10-17T12:32:25Z</time>
      </trkpt>
      <trkpt lat="46.35045" lon="5.90527">
        <ele>1045.6</ele>
        <time>2021-10-17T12:32:26Z</time>
      </trkpt>
      <trkpt lat="46.35043" lon="5.90544">
        <ele>1044.6</ele>
        <time>2021-10-17T12:32:27Z</time>
      </trkpt>
      <trkpt lat="46.35042" lon="5.90561">
        <ele>1043.8</ele>
        <time>2021-10-17T12:32:28Z</time>
      </trkpt>
      <trkpt lat="46.35041" lon="5.90578">
        <ele>1043</ele>
        <time>2021-10-17T12:32:29Z</time>
      </trkpt>
      <trkpt lat="46.35041" lon="5.90596">
        <ele>1042</ele>
        <time>2021-10-17T12:32:30Z</time>
      </trkpt>
      <trkpt lat="46.35041" lon="5.90614">
        <ele>1041</ele>
        <time>2021-10-17T12:32:31Z</time>
      </trkpt>
      <trkpt lat="46.35041" lon="5.90633">
        <ele>1040</ele>
        <time>2021-10-17T12:32:32Z</time>
      </trkpt>
      <trkpt lat="46.35042" lon="5.90649">
        <ele>1039</ele>
        <time>2021-10-17T12:32:33Z</time>
      </trkpt>
      <trkpt lat="46.35042" lon="5.90666">
        <ele>1038</ele>
        <time>2021-10-17T12:32:34Z</time>
      </trkpt>
      <trkpt lat="46.35044" lon="5.90683">
        <ele>1037</ele>
        <time>2021-10-17T12:32:35Z</time>
      </trkpt>
      <trkpt lat="46.35046" lon="5.907">
        <ele>1036</ele>
        <time>2021-10-17T12:32:36Z</time>
      </trkpt>
      <trkpt lat="46.35048" lon="5.90716">
        <ele>1035</ele>
        <time>2021-10-17T12:32:37Z</time>
      </trkpt>
      <trkpt lat="46.35049" lon="5.90732">
        <ele>1034.2</ele>
        <time>2021-10-17T12:32:38Z</time>
      </trkpt>
      <trkpt lat="46.35051" lon="5.90751">
        <ele>1033.2</ele>
        <time>2021-10-17T12:32:39Z</time>
      </trkpt>
      <trkpt lat="46.35053" lon="5.90769">
        <ele>1032.4</ele>
        <time>2021-10-17T12:32:40Z</time>
      </trkpt>
      <trkpt lat="46.35056" lon="5.90785">
        <ele>1031.4</ele>
        <time>2021-10-17T12:32:41Z</time>
      </trkpt>
      <trkpt lat="46.35059" lon="5.90802">
        <ele>1030.2</ele>
        <time>2021-10-17T12:32:42Z</time>
      </trkpt>
      <trkpt lat="46.35061" lon="5.90817">
        <ele>1029.4</ele>
        <time>2021-10-17T12:32:43Z</time>
      </trkpt>
      <trkpt lat="46.35063" lon="5.9083">
        <ele>1028.2</ele>
        <time>2021-10-17T12:32:44Z</time>
      </trkpt>
      <trkpt lat="46.35065" lon="5.90843">
        <ele>1027.4</ele>
        <time>2021-10-17T12:32:45Z</time>
      </trkpt>
      <trkpt lat="46.35069" lon="5.90855">
        <ele>1026.6</ele>
        <time>2021-10-17T12:32:46Z</time>
      </trkpt>
      <trkpt lat="46.35075" lon="5.90866">
        <ele>1025.8</ele>
        <time>2021-10-17T12:32:47Z</time>
      </trkpt>
      <trkpt lat="46.35081" lon="5.90876">
        <ele>1025</ele>
        <time>2021-10-17T12:32:48Z</time>
      </trkpt>
      <trkpt lat="46.35087" lon="5.90886">
        <ele>1024.2</ele>
        <time>2021-10-17T12:32:49Z</time>
      </trkpt>
      <trkpt lat="46.35095" lon="5.90897">
        <ele>1023.2</ele>
        <time>2021-10-17T12:32:50Z</time>
      </trkpt>
      <trkpt lat="46.35102" lon="5.90908">
        <ele>1022.4</ele>
        <time>2021-10-17T12:32:51Z</time>
      </trkpt>
      <trkpt lat="46.35111" lon="5.90918">
        <ele>1021.6</ele>
        <time>2021-10-17T12:32:52Z</time>
      </trkpt>
      <trkpt lat="46.3512" lon="5.90929">
        <ele>1021</ele>
        <time>2021-10-17T12:32:53Z</time>
      </trkpt>
      <trkpt lat="46.35128" lon="5.90941">
        <ele>1020.2</ele>
        <time>2021-10-17T12:32:54Z</time>
      </trkpt>
      <trkpt lat="46.35136" lon="5.90952">
        <ele>1019.4</ele>
        <time>2021-10-17T12:32:55Z</time>
      </trkpt>
      <trkpt lat="46.35143" lon="5.90963">
        <ele>1018.4</ele>
        <time>2021-10-17T12:32:56Z</time>
      </trkpt>
      <trkpt lat="46.35148" lon="5.90974">
        <ele>1017.6</ele>
        <time>2021-10-17T12:32:57Z</time>
      </trkpt>
      <trkpt lat="46.35153" lon="5.90985">
        <ele>1016.8</ele>
        <time>2021-10-17T12:32:58Z</time>
      </trkpt>
      <trkpt lat="46.35158" lon="5.90995">
        <ele>1016</ele>
        <time>2021-10-17T12:32:59Z</time>
      </trkpt>
      <trkpt lat="46.35163" lon="5.91002">
        <ele>1015.2</ele>
        <time>2021-10-17T12:33:00Z</time>
      </trkpt>
      <trkpt lat="46.3517" lon="5.91008">
        <ele>1014.4</ele>
        <time>2021-10-17T12:33:01Z</time>
      </trkpt>
      <trkpt lat="46.35178" lon="5.91012">
        <ele>1013.8</ele>
        <time>2021-10-17T12:33:02Z</time>
      </trkpt>
      <trkpt lat="46.35188" lon="5.91014">
        <ele>1013</ele>
        <time>2021-10-17T12:33:03Z</time>
      </trkpt>
      <trkpt lat="46.35197" lon="5.91016">
        <ele>1012.4</ele>
        <time>2021-10-17T12:33:04Z</time>
      </trkpt>
      <trkpt lat="46.35206" lon="5.9102">
        <ele>1011.4</ele>
        <time>2021-10-17T12:33:05Z</time>
      </trkpt>
      <trkpt lat="46.35216" lon="5.91025">
        <ele>1010.8</ele>
        <time>2021-10-17T12:33:06Z</time>
      </trkpt>
      <trkpt lat="46.35226" lon="5.91032">
        <ele>1010</ele>
        <time>2021-10-17T12:33:07Z</time>
      </trkpt>
      <trkpt lat="46.35237" lon="5.91039">
        <ele>1009.4</ele>
        <time>2021-10-17T12:33:08Z</time>
      </trkpt>
      <trkpt lat="46.35248" lon="5.91043">
        <ele>1008.6</ele>
        <time>2021-10-17T12:33:09Z</time>
      </trkpt>
      <trkpt lat="46.35258" lon="5.91048">
        <ele>1007.8</ele>
        <time>2021-10-17T12:33:10Z</time>
      </trkpt>
      <trkpt lat="46.3527" lon="5.91054">
        <ele>1006.8</ele>
        <time>2021-10-17T12:33:11Z</time>
      </trkpt>
      <trkpt lat="46.3528" lon="5.91061">
        <ele>1006</ele>
        <time>2021-10-17T12:33:12Z</time>
      </trkpt>
      <trkpt lat="46.35292" lon="5.91067">
        <ele>1005</ele>
        <time>2021-10-17T12:33:13Z</time>
      </trkpt>
      <trkpt lat="46.35303" lon="5.91072">
        <ele>1004.2</ele>
        <time>2021-10-17T12:33:14Z</time>
      </trkpt>
      <trkpt lat="46.35315" lon="5.91075">
        <ele>1003.4</ele>
        <time>2021-10-17T12:33:15Z</time>
      </trkpt>
      <trkpt lat="46.35326" lon="5.91079">
        <ele>1002.4</ele>
        <time>2021-10-17T12:33:16Z</time>
      </trkpt>
      <trkpt lat="46.35337" lon="5.91083">
        <ele>1001.4</ele>
        <time>2021-10-17T12:33:17Z</time>
      </trkpt>
      <trkpt lat="46.35348" lon="5.9109">
        <ele>1000.6</ele>
        <time>2021-10-17T12:33:18Z</time>
      </trkpt>
      <trkpt lat="46.35358" lon="5.91099">
        <ele>999.8</ele>
        <time>2021-10-17T12:33:19Z</time>
      </trkpt>
      <trkpt lat="46.35368" lon="5.91108">
        <ele>998.8</ele>
        <time>2021-10-17T12:33:20Z</time>
      </trkpt>
      <trkpt lat="46.35377" lon="5.91117">
        <ele>998</ele>
        <time>2021-10-17T12:33:21Z</time>
      </trkpt>
      <trkpt lat="46.35387" lon="5.91124">
        <ele>997</ele>
        <time>2021-10-17T12:33:22Z</time>
      </trkpt>
      <trkpt lat="46.35397" lon="5.9113">
        <ele>996.2</ele>
        <time>2021-10-17T12:33:23Z</time>
      </trkpt>
      <trkpt lat="46.35408" lon="5.91133">
        <ele>995.4</ele>
        <time>2021-10-17T12:33:24Z</time>
      </trkpt>
      <trkpt lat="46.3542" lon="5.91134">
        <ele>994.6</ele>
        <time>2021-10-17T12:33:25Z</time>
      </trkpt>
      <trkpt lat="46.35432" lon="5.91135">
        <ele>993.8</ele>
        <time>2021-10-17T12:33:26Z</time>
      </trkpt>
      <trkpt lat="46.35444" lon="5.91133">
        <ele>993</ele>
        <time>2021-10-17T12:33:27Z</time>
      </trkpt>
      <trkpt lat="46.35457" lon="5.91132">
        <ele>992</ele>
        <time>2021-10-17T12:33:28Z</time>
      </trkpt>
      <trkpt lat="46.35469" lon="5.9113">
        <ele>991.2</ele>
        <time>2021-10-17T12:33:29Z</time>
      </trkpt>
      <trkpt lat="46.35482" lon="5.9113">
        <ele>990.2</ele>
        <time>2021-10-17T12:33:30Z</time>
      </trkpt>
      <trkpt lat="46.35494" lon="5.91131">
        <ele>989.4</ele>
        <time>2021-10-17T12:33:31Z</time>
      </trkpt>
      <trkpt lat="46.35506" lon="5.91134">
        <ele>988.4</ele>
        <time>2021-10-17T12:33:32Z</time>
      </trkpt>
      <trkpt lat="46.35519" lon="5.91138">
        <ele>987.4</ele>
        <time>2021-10-17T12:33:33Z</time>
      </trkpt>
      <trkpt lat="46.35531" lon="5.91142">
        <ele>986.6</ele>
        <time>2021-10-17T12:33:34Z</time>
      </trkpt>
      <trkpt lat="46.35544" lon="5.91145">
        <ele>985.6</ele>
        <time>2021-10-17T12:33:35Z</time>
      </trkpt>
      <trkpt lat="46.35557" lon="5.91148">
        <ele>984.6</ele>
        <time>2021-10-17T12:33:36Z</time>
      </trkpt>
      <trkpt lat="46.3557" lon="5.91151">
        <ele>983.8</ele>
        <time>2021-10-17T12:33:37Z</time>
      </trkpt>
      <trkpt lat="46.35584" lon="5.91153">
        <ele>982.8</ele>
        <time>2021-10-17T12:33:38Z</time>
      </trkpt>
      <trkpt lat="46.35598" lon="5.91154">
        <ele>981.8</ele>
        <time>2021-10-17T12:33:39Z</time>
      </trkpt>
      <trkpt lat="46.35611" lon="5.91153">
        <ele>980.8</ele>
        <time>2021-10-17T12:33:40Z</time>
      </trkpt>
      <trkpt lat="46.35624" lon="5.91152">
        <ele>979.8</ele>
        <time>2021-10-17T12:33:41Z</time>
      </trkpt>
      <trkpt lat="46.35638" lon="5.91149">
        <ele>978.8</ele>
        <time>2021-10-17T12:33:42Z</time>
      </trkpt>
      <trkpt lat="46.35651" lon="5.91145">
        <ele>977.6</ele>
        <time>2021-10-17T12:33:43Z</time>
      </trkpt>
      <trkpt lat="46.35664" lon="5.91143">
        <ele>976.6</ele>
        <time>2021-10-17T12:33:44Z</time>
      </trkpt>
      <trkpt lat="46.35678" lon="5.91141">
        <ele>975.4</ele>
        <time>2021-10-17T12:33:45Z</time>
      </trkpt>
      <trkpt lat="46.35691" lon="5.91143">
        <ele>974.2</ele>
        <time>2021-10-17T12:33:46Z</time>
      </trkpt>
      <trkpt lat="46.35705" lon="5.91145">
        <ele>973</ele>
        <time>2021-10-17T12:33:47Z</time>
      </trkpt>
      <trkpt lat="46.35719" lon="5.91148">
        <ele>971.8</ele>
        <time>2021-10-17T12:33:48Z</time>
      </trkpt>
      <trkpt lat="46.35732" lon="5.91152">
        <ele>970.8</ele>
        <time>2021-10-17T12:33:49Z</time>
      </trkpt>
      <trkpt lat="46.35746" lon="5.91156">
        <ele>969.8</ele>
        <time>2021-10-17T12:33:50Z</time>
      </trkpt>
      <trkpt lat="46.3576" lon="5.9116">
        <ele>968.6</ele>
        <time>2021-10-17T12:33:51Z</time>
      </trkpt>
      <trkpt lat="46.35774" lon="5.91165">
        <ele>967.6</ele>
        <time>2021-10-17T12:33:52Z</time>
      </trkpt>
      <trkpt lat="46.35788" lon="5.91172">
        <ele>966.4</ele>
        <time>2021-10-17T12:33:53Z</time>
      </trkpt>
      <trkpt lat="46.35802" lon="5.91178">
        <ele>965.4</ele>
        <time>2021-10-17T12:33:54Z</time>
      </trkpt>
      <trkpt lat="46.35816" lon="5.91184">
        <ele>964.2</ele>
        <time>2021-10-17T12:33:55Z</time>
      </trkpt>
      <trkpt lat="46.3583" lon="5.91189">
        <ele>963.2</ele>
        <time>2021-10-17T12:33:56Z</time>
      </trkpt>
      <trkpt lat="46.35844" lon="5.91194">
        <ele>962</ele>
        <time>2021-10-17T12:33:57Z</time>
      </trkpt>
      <trkpt lat="46.35859" lon="5.91199">
        <ele>961</ele>
        <time>2021-10-17T12:33:58Z</time>
      </trkpt>
      <trkpt lat="46.35873" lon="5.91203">
        <ele>960</ele>
        <time>2021-10-17T12:33:59Z</time>
      </trkpt>
      <trkpt lat="46.35887" lon="5.91208">
        <ele>959</ele>
        <time>2021-10-17T12:34:00Z</time>
      </trkpt>
      <trkpt lat="46.35902" lon="5.91211">
        <ele>957.8</ele>
        <time>2021-10-17T12:34:01Z</time>
      </trkpt>
      <trkpt lat="46.35916" lon="5.91215">
        <ele>956.8</ele>
        <time>2021-10-17T12:34:02Z</time>
      </trkpt>
      <trkpt lat="46.35931" lon="5.91218">
        <ele>955.6</ele>
        <time>2021-10-17T12:34:03Z</time>
      </trkpt>
      <trkpt lat="46.35945" lon="5.9122">
        <ele>954.4</ele>
        <time>2021-10-17T12:34:04Z</time>
      </trkpt>
      <trkpt lat="46.3596" lon="5.91224">
        <ele>953.2</ele>
        <time>2021-10-17T12:34:05Z</time>
      </trkpt>
      <trkpt lat="46.35974" lon="5.91228">
        <ele>952</ele>
        <time>2021-10-17T12:34:06Z</time>
      </trkpt>
      <trkpt lat="46.35989" lon="5.91232">
        <ele>951</ele>
        <time>2021-10-17T12:34:07Z</time>
      </trkpt>
      <trkpt lat="46.36004" lon="5.91236">
        <ele>949.8</ele>
        <time>2021-10-17T12:34:08Z</time>
      </trkpt>
      <trkpt lat="46.36018" lon="5.91242">
        <ele>948.6</ele>
        <time>2021-10-17T12:34:09Z</time>
      </trkpt>
      <trkpt lat="46.36032" lon="5.91248">
        <ele>947.4</ele>
        <time>2021-10-17T12:34:10Z</time>
      </trkpt>
      <trkpt lat="46.36045" lon="5.91255">
        <ele>946.2</ele>
        <time>2021-10-17T12:34:11Z</time>
      </trkpt>
      <trkpt lat="46.36059" lon="5.91264">
        <ele>945</ele>
        <time>2021-10-17T12:34:12Z</time>
      </trkpt>
      <trkpt lat="46.36072" lon="5.91274">
        <ele>943.8</ele>
        <time>2021-10-17T12:34:13Z</time>
      </trkpt>
      <trkpt lat="46.36085" lon="5.91283">
        <ele>942.6</ele>
        <time>2021-10-17T12:34:14Z</time>
      </trkpt>
      <trkpt lat="46.36098" lon="5.91291">
        <ele>941.4</ele>
        <time>2021-10-17T12:34:15Z</time>
      </trkpt>
      <trkpt lat="46.36112" lon="5.91298">
        <ele>940.4</ele>
        <time>2021-10-17T12:34:16Z</time>
      </trkpt>
      <trkpt lat="46.36126" lon="5.91303">
        <ele>939.2</ele>
        <time>2021-10-17T12:34:17Z</time>
      </trkpt>
      <trkpt lat="46.36139" lon="5.91309">
        <ele>938.2</ele>
        <time>2021-10-17T12:34:18Z</time>
      </trkpt>
      <trkpt lat="46.36152" lon="5.91316">
        <ele>937.2</ele>
        <time>2021-10-17T12:34:19Z</time>
      </trkpt>
      <trkpt lat="46.36164" lon="5.91325">
        <ele>936</ele>
        <time>2021-10-17T12:34:20Z</time>
      </trkpt>
      <trkpt lat="46.36175" lon="5.91335">
        <ele>935.2</ele>
        <time>2021-10-17T12:34:21Z</time>
      </trkpt>
      <trkpt lat="46.36184" lon="5.91346">
        <ele>934.4</ele>
        <time>2021-10-17T12:34:22Z</time>
      </trkpt>
      <trkpt lat="46.36191" lon="5.91358">
        <ele>933.6</ele>
        <time>2021-10-17T12:34:23Z</time>
      </trkpt>
      <trkpt lat="46.36195" lon="5.91369">
        <ele>933.2</ele>
        <time>2021-10-17T12:34:24Z</time>
      </trkpt>
      <trkpt lat="46.36199" lon="5.91379">
        <ele>932.6</ele>
        <time>2021-10-17T12:34:25Z</time>
      </trkpt>
      <trkpt lat="46.36203" lon="5.91388">
        <ele>932.2</ele>
        <time>2021-10-17T12:34:26Z</time>
      </trkpt>
      <trkpt lat="46.36208" lon="5.91394">
        <ele>932</ele>
        <time>2021-10-17T12:34:27Z</time>
      </trkpt>
      <trkpt lat="46.36212" lon="5.91399">
        <ele>931.8</ele>
        <time>2021-10-17T12:34:28Z</time>
      </trkpt>
      <trkpt lat="46.36217" lon="5.91399">
        <ele>931.8</ele>
        <time>2021-10-17T12:34:29Z</time>
      </trkpt>
      <trkpt lat="46.36222" lon="5.91396">
        <ele>931.4</ele>
        <time>2021-10-17T12:34:30Z</time>
      </trkpt>
      <trkpt lat="46.36225" lon="5.9139">
        <ele>931.2</ele>
        <time>2021-10-17T12:34:31Z</time>
      </trkpt>
      <trkpt lat="46.36225" lon="5.91382">
        <ele>930.8</ele>
        <time>2021-10-17T12:34:32Z</time>
      </trkpt>
      <trkpt lat="46.36224" lon="5.91374">
        <ele>930.6</ele>
        <time>2021-10-17T12:34:33Z</time>
      </trkpt>
      <trkpt lat="46.36221" lon="5.91366">
        <ele>930.2</ele>
        <time>2021-10-17T12:34:34Z</time>
      </trkpt>
      <trkpt lat="46.36217" lon="5.91358">
        <ele>930</ele>
        <time>2021-10-17T12:34:35Z</time>
      </trkpt>
      <trkpt lat="46.36212" lon="5.91351">
        <ele>929.8</ele>
        <time>2021-10-17T12:34:36Z</time>
      </trkpt>
      <trkpt lat="46.36207" lon="5.91344">
        <ele>929.4</ele>
        <time>2021-10-17T12:34:37Z</time>
      </trkpt>
      <trkpt lat="46.36201" lon="5.91337">
        <ele>929</ele>
        <time>2021-10-17T12:34:38Z</time>
      </trkpt>
      <trkpt lat="46.36194" lon="5.9133">
        <ele>928.8</ele>
        <time>2021-10-17T12:34:39Z</time>
      </trkpt>
      <trkpt lat="46.36187" lon="5.91323">
        <ele>928.4</ele>
        <time>2021-10-17T12:34:40Z</time>
      </trkpt>
      <trkpt lat="46.36181" lon="5.91316">
        <ele>928</ele>
        <time>2021-10-17T12:34:41Z</time>
      </trkpt>
      <trkpt lat="46.36173" lon="5.91308">
        <ele>927.6</ele>
        <time>2021-10-17T12:34:42Z</time>
      </trkpt>
      <trkpt lat="46.36166" lon="5.913">
        <ele>927.2</ele>
        <time>2021-10-17T12:34:43Z</time>
      </trkpt>
      <trkpt lat="46.36158" lon="5.91292">
        <ele>926.6</ele>
        <time>2021-10-17T12:34:44Z</time>
      </trkpt>
      <trkpt lat="46.3615" lon="5.91284">
        <ele>926.2</ele>
        <time>2021-10-17T12:34:45Z</time>
      </trkpt>
      <trkpt lat="46.36141" lon="5.91275">
        <ele>925.6</ele>
        <time>2021-10-17T12:34:46Z</time>
      </trkpt>
      <trkpt lat="46.36132" lon="5.91267">
        <ele>925</ele>
        <time>2021-10-17T12:34:47Z</time>
      </trkpt>
      <trkpt lat="46.36124" lon="5.91256">
        <ele>924.4</ele>
        <time>2021-10-17T12:34:48Z</time>
      </trkpt>
      <trkpt lat="46.36115" lon="5.91246">
        <ele>923.8</ele>
        <time>2021-10-17T12:34:49Z</time>
      </trkpt>
      <trkpt lat="46.36106" lon="5.91236">
        <ele>923</ele>
        <time>2021-10-17T12:34:50Z</time>
      </trkpt>
      <trkpt lat="46.36097" lon="5.91227">
        <ele>922</ele>
        <time>2021-10-17T12:34:51Z</time>
      </trkpt>
      <trkpt lat="46.36088" lon="5.91218">
        <ele>921.2</ele>
        <time>2021-10-17T12:34:52Z</time>
      </trkpt>
      <trkpt lat="46.36078" lon="5.91208">
        <ele>920.2</ele>
        <time>2021-10-17T12:34:53Z</time>
      </trkpt>
      <trkpt lat="46.36066" lon="5.91198">
        <ele>918.4</ele>
        <time>2021-10-17T12:34:54Z</time>
      </trkpt>
      <trkpt lat="46.36056" lon="5.91187">
        <ele>917.6</ele>
        <time>2021-10-17T12:34:55Z</time>
      </trkpt>
      <trkpt lat="46.36046" lon="5.91177">
        <ele>916.4</ele>
        <time>2021-10-17T12:34:56Z</time>
      </trkpt>
      <trkpt lat="46.36037" lon="5.91164">
        <ele>915.6</ele>
        <time>2021-10-17T12:34:57Z</time>
      </trkpt>
      <trkpt lat="46.36028" lon="5.91151">
        <ele>914.6</ele>
        <time>2021-10-17T12:34:58Z</time>
      </trkpt>
      <trkpt lat="46.36018" lon="5.91138">
        <ele>913.6</ele>
        <time>2021-10-17T12:34:59Z</time>
      </trkpt>
      <trkpt lat="46.36007" lon="5.91128">
        <ele>912.6</ele>
        <time>2021-10-17T12:35:00Z</time>
      </trkpt>
      <trkpt lat="46.35997" lon="5.91117">
        <ele>911.6</ele>
        <time>2021-10-17T12:35:01Z</time>
      </trkpt>
      <trkpt lat="46.35986" lon="5.91107">
        <ele>910.6</ele>
        <time>2021-10-17T12:35:02Z</time>
      </trkpt>
      <trkpt lat="46.35976" lon="5.91096">
        <ele>909.6</ele>
        <time>2021-10-17T12:35:03Z</time>
      </trkpt>
      <trkpt lat="46.35965" lon="5.91084">
        <ele>908.6</ele>
        <time>2021-10-17T12:35:04Z</time>
      </trkpt>
      <trkpt lat="46.35955" lon="5.91071">
        <ele>907.8</ele>
        <time>2021-10-17T12:35:05Z</time>
      </trkpt>
      <trkpt lat="46.35945" lon="5.9106">
        <ele>906.8</ele>
        <time>2021-10-17T12:35:06Z</time>
      </trkpt>
      <trkpt lat="46.35935" lon="5.9105">
        <ele>906</ele>
        <time>2021-10-17T12:35:07Z</time>
      </trkpt>
      <trkpt lat="46.35928" lon="5.91041">
        <ele>905</ele>
        <time>2021-10-17T12:35:08Z</time>
      </trkpt>
      <trkpt lat="46.35918" lon="5.91031">
        <ele>904.2</ele>
        <time>2021-10-17T12:35:09Z</time>
      </trkpt>
      <trkpt lat="46.35909" lon="5.91021">
        <ele>903.4</ele>
        <time>2021-10-17T12:35:10Z</time>
      </trkpt>
      <trkpt lat="46.35899" lon="5.91012">
        <ele>902.6</ele>
        <time>2021-10-17T12:35:11Z</time>
      </trkpt>
      <trkpt lat="46.35889" lon="5.91004">
        <ele>901.6</ele>
        <time>2021-10-17T12:35:12Z</time>
      </trkpt>
      <trkpt lat="46.35878" lon="5.90996">
        <ele>900.8</ele>
        <time>2021-10-17T12:35:13Z</time>
      </trkpt>
      <trkpt lat="46.35867" lon="5.90992">
        <ele>899.8</ele>
        <time>2021-10-17T12:35:14Z</time>
      </trkpt>
      <trkpt lat="46.35857" lon="5.90987">
        <ele>899</ele>
        <time>2021-10-17T12:35:15Z</time>
      </trkpt>
      <trkpt lat="46.35846" lon="5.90985">
        <ele>898.2</ele>
        <time>2021-10-17T12:35:16Z</time>
      </trkpt>
      <trkpt lat="46.35833" lon="5.90982">
        <ele>897.2</ele>
        <time>2021-10-17T12:35:17Z</time>
      </trkpt>
      <trkpt lat="46.35819" lon="5.90976">
        <ele>896.2</ele>
        <time>2021-10-17T12:35:18Z</time>
      </trkpt>
      <trkpt lat="46.35806" lon="5.90971">
        <ele>895.2</ele>
        <time>2021-10-17T12:35:19Z</time>
      </trkpt>
      <trkpt lat="46.35795" lon="5.90965">
        <ele>894.4</ele>
        <time>2021-10-17T12:35:20Z</time>
      </trkpt>
      <trkpt lat="46.35782" lon="5.90959">
        <ele>893.4</ele>
        <time>2021-10-17T12:35:21Z</time>
      </trkpt>
      <trkpt lat="46.35771" lon="5.90954">
        <ele>892.4</ele>
        <time>2021-10-17T12:35:22Z</time>
      </trkpt>
      <trkpt lat="46.35759" lon="5.90949">
        <ele>891.4</ele>
        <time>2021-10-17T12:35:23Z</time>
      </trkpt>
      <trkpt lat="46.35746" lon="5.90945">
        <ele>890.6</ele>
        <time>2021-10-17T12:35:24Z</time>
      </trkpt>
      <trkpt lat="46.35733" lon="5.90943">
        <ele>889.8</ele>
        <time>2021-10-17T12:35:25Z</time>
      </trkpt>
      <trkpt lat="46.35721" lon="5.90942">
        <ele>889</ele>
        <time>2021-10-17T12:35:26Z</time>
      </trkpt>
      <trkpt lat="46.35709" lon="5.9094">
        <ele>888.2</ele>
        <time>2021-10-17T12:35:27Z</time>
      </trkpt>
      <trkpt lat="46.35696" lon="5.90938">
        <ele>887.2</ele>
        <time>2021-10-17T12:35:28Z</time>
      </trkpt>
      <trkpt lat="46.35683" lon="5.90935">
        <ele>886.2</ele>
        <time>2021-10-17T12:35:29Z</time>
      </trkpt>
      <trkpt lat="46.35671" lon="5.90934">
        <ele>885.4</ele>
        <time>2021-10-17T12:35:30Z</time>
      </trkpt>
      <trkpt lat="46.35659" lon="5.90934">
        <ele>884.4</ele>
        <time>2021-10-17T12:35:31Z</time>
      </trkpt>
      <trkpt lat="46.35648" lon="5.90932">
        <ele>883.6</ele>
        <time>2021-10-17T12:35:32Z</time>
      </trkpt>
      <trkpt lat="46.35637" lon="5.90929">
        <ele>882.8</ele>
        <time>2021-10-17T12:35:33Z</time>
      </trkpt>
      <trkpt lat="46.35625" lon="5.90929">
        <ele>882.2</ele>
        <time>2021-10-17T12:35:34Z</time>
      </trkpt>
      <trkpt lat="46.35614" lon="5.90932">
        <ele>881.4</ele>
        <time>2021-10-17T12:35:35Z</time>
      </trkpt>
      <trkpt lat="46.35603" lon="5.90936">
        <ele>880.6</ele>
        <time>2021-10-17T12:35:36Z</time>
      </trkpt>
      <trkpt lat="46.35594" lon="5.90939">
        <ele>879.8</ele>
        <time>2021-10-17T12:35:37Z</time>
      </trkpt>
      <trkpt lat="46.35586" lon="5.90942">
        <ele>879</ele>
        <time>2021-10-17T12:35:38Z</time>
      </trkpt>
      <trkpt lat="46.35579" lon="5.90941">
        <ele>878.2</ele>
        <time>2021-10-17T12:35:39Z</time>
      </trkpt>
      <trkpt lat="46.35572" lon="5.90938">
        <ele>877.6</ele>
        <time>2021-10-17T12:35:40Z</time>
      </trkpt>
      <trkpt lat="46.35567" lon="5.90934">
        <ele>877</ele>
        <time>2021-10-17T12:35:41Z</time>
      </trkpt>
      <trkpt lat="46.35564" lon="5.90925">
        <ele>876.2</ele>
        <time>2021-10-17T12:35:42Z</time>
      </trkpt>
      <trkpt lat="46.35564" lon="5.90916">
        <ele>875.6</ele>
        <time>2021-10-17T12:35:43Z</time>
      </trkpt>
      <trkpt lat="46.35566" lon="5.90907">
        <ele>875.2</ele>
        <time>2021-10-17T12:35:44Z</time>
      </trkpt>
      <trkpt lat="46.35569" lon="5.909">
        <ele>874.8</ele>
        <time>2021-10-17T12:35:45Z</time>
      </trkpt>
      <trkpt lat="46.35576" lon="5.90896">
        <ele>874.4</ele>
        <time>2021-10-17T12:35:46Z</time>
      </trkpt>
      <trkpt lat="46.35583" lon="5.90894">
        <ele>874</ele>
        <time>2021-10-17T12:35:47Z</time>
      </trkpt>
      <trkpt lat="46.35591" lon="5.90894">
        <ele>873.6</ele>
        <time>2021-10-17T12:35:48Z</time>
      </trkpt>
      <trkpt lat="46.35598" lon="5.90894">
        <ele>873</ele>
        <time>2021-10-17T12:35:49Z</time>
      </trkpt>
      <trkpt lat="46.35606" lon="5.90895">
        <ele>872.8</ele>
        <time>2021-10-17T12:35:50Z</time>
      </trkpt>
      <trkpt lat="46.35615" lon="5.90896">
        <ele>872.4</ele>
        <time>2021-10-17T12:35:51Z</time>
      </trkpt>
      <trkpt lat="46.35624" lon="5.90897">
        <ele>871.8</ele>
        <time>2021-10-17T12:35:52Z</time>
      </trkpt>
      <trkpt lat="46.35633" lon="5.90897">
        <ele>871.2</ele>
        <time>2021-10-17T12:35:53Z</time>
      </trkpt>
      <trkpt lat="46.35642" lon="5.90896">
        <ele>870.8</ele>
        <time>2021-10-17T12:35:54Z</time>
      </trkpt>
      <trkpt lat="46.35651" lon="5.90896">
        <ele>870.2</ele>
        <time>2021-10-17T12:35:55Z</time>
      </trkpt>
      <trkpt lat="46.35661" lon="5.90896">
        <ele>869.6</ele>
        <time>2021-10-17T12:35:56Z</time>
      </trkpt>
      <trkpt lat="46.35671" lon="5.90896">
        <ele>869</ele>
        <time>2021-10-17T12:35:57Z</time>
      </trkpt>
      <trkpt lat="46.35681" lon="5.90895">
        <ele>868.6</ele>
        <time>2021-10-17T12:35:58Z</time>
      </trkpt>
      <trkpt lat="46.35691" lon="5.90894">
        <ele>868</ele>
        <time>2021-10-17T12:35:59Z</time>
      </trkpt>
      <trkpt lat="46.35702" lon="5.90892">
        <ele>867.4</ele>
        <time>2021-10-17T12:36:00Z</time>
      </trkpt>
      <trkpt lat="46.35712" lon="5.90891">
        <ele>866.8</ele>
        <time>2021-10-17T12:36:01Z</time>
      </trkpt>
      <trkpt lat="46.35722" lon="5.90889">
        <ele>866</ele>
        <time>2021-10-17T12:36:02Z</time>
      </trkpt>
      <trkpt lat="46.35732" lon="5.90888">
        <ele>865.4</ele>
        <time>2021-10-17T12:36:03Z</time>
      </trkpt>
      <trkpt lat="46.35743" lon="5.90889">
        <ele>864.8</ele>
        <time>2021-10-17T12:36:04Z</time>
      </trkpt>
      <trkpt lat="46.35753" lon="5.9089">
        <ele>864.2</ele>
        <time>2021-10-17T12:36:05Z</time>
      </trkpt>
      <trkpt lat="46.35763" lon="5.90893">
        <ele>863.6</ele>
        <time>2021-10-17T12:36:06Z</time>
      </trkpt>
      <trkpt lat="46.35773" lon="5.90895">
        <ele>862.8</ele>
        <time>2021-10-17T12:36:07Z</time>
      </trkpt>
      <trkpt lat="46.35782" lon="5.90896">
        <ele>862.2</ele>
        <time>2021-10-17T12:36:08Z</time>
      </trkpt>
      <trkpt lat="46.35791" lon="5.90896">
        <ele>861.6</ele>
        <time>2021-10-17T12:36:09Z</time>
      </trkpt>
      <trkpt lat="46.35801" lon="5.90894">
        <ele>860.8</ele>
        <time>2021-10-17T12:36:10Z</time>
      </trkpt>
      <trkpt lat="46.3581" lon="5.90892">
        <ele>860.2</ele>
        <time>2021-10-17T12:36:11Z</time>
      </trkpt>
      <trkpt lat="46.35819" lon="5.90889">
        <ele>859.6</ele>
        <time>2021-10-17T12:36:12Z</time>
      </trkpt>
      <trkpt lat="46.35828" lon="5.90884">
        <ele>859</ele>
        <time>2021-10-17T12:36:13Z</time>
      </trkpt>
      <trkpt lat="46.35836" lon="5.90876">
        <ele>858.2</ele>
        <time>2021-10-17T12:36:14Z</time>
      </trkpt>
      <trkpt lat="46.35843" lon="5.90865">
        <ele>857.6</ele>
        <time>2021-10-17T12:36:15Z</time>
      </trkpt>
      <trkpt lat="46.3585" lon="5.90853">
        <ele>857.2</ele>
        <time>2021-10-17T12:36:16Z</time>
      </trkpt>
      <trkpt lat="46.35856" lon="5.90841">
        <ele>856.4</ele>
        <time>2021-10-17T12:36:17Z</time>
      </trkpt>
      <trkpt lat="46.35862" lon="5.90828">
        <ele>855.8</ele>
        <time>2021-10-17T12:36:18Z</time>
      </trkpt>
      <trkpt lat="46.35869" lon="5.90817">
        <ele>855.2</ele>
        <time>2021-10-17T12:36:19Z</time>
      </trkpt>
      <trkpt lat="46.35876" lon="5.90807">
        <ele>854.6</ele>
        <time>2021-10-17T12:36:20Z</time>
      </trkpt>
      <trkpt lat="46.35883" lon="5.90799">
        <ele>854</ele>
        <time>2021-10-17T12:36:21Z</time>
      </trkpt>
      <trkpt lat="46.3589" lon="5.90793">
        <ele>853.4</ele>
        <time>2021-10-17T12:36:22Z</time>
      </trkpt>
      <trkpt lat="46.35899" lon="5.90789">
        <ele>852.8</ele>
        <time>2021-10-17T12:36:23Z</time>
      </trkpt>
      <trkpt lat="46.35908" lon="5.90787">
        <ele>852.2</ele>
        <time>2021-10-17T12:36:24Z</time>
      </trkpt>
      <trkpt lat="46.35917" lon="5.90787">
        <ele>851.6</ele>
        <time>2021-10-17T12:36:25Z</time>
      </trkpt>
      <trkpt lat="46.35927" lon="5.90793">
        <ele>850.8</ele>
        <time>2021-10-17T12:36:26Z</time>
      </trkpt>
      <trkpt lat="46.35936" lon="5.90799">
        <ele>850.2</ele>
        <time>2021-10-17T12:36:27Z</time>
      </trkpt>
      <trkpt lat="46.35946" lon="5.90806">
        <ele>849.4</ele>
        <time>2021-10-17T12:36:28Z</time>
      </trkpt>
      <trkpt lat="46.35955" lon="5.90813">
        <ele>848.8</ele>
        <time>2021-10-17T12:36:29Z</time>
      </trkpt>
      <trkpt lat="46.35962" lon="5.90821">
        <ele>848.2</ele>
        <time>2021-10-17T12:36:30Z</time>
      </trkpt>
      <trkpt lat="46.35969" lon="5.90832">
        <ele>847.6</ele>
        <time>2021-10-17T12:36:31Z</time>
      </trkpt>
      <trkpt lat="46.35976" lon="5.90843">
        <ele>847</ele>
        <time>2021-10-17T12:36:32Z</time>
      </trkpt>
      <trkpt lat="46.35981" lon="5.90856">
        <ele>846.4</ele>
        <time>2021-10-17T12:36:33Z</time>
      </trkpt>
      <trkpt lat="46.35987" lon="5.90867">
        <ele>845.8</ele>
        <time>2021-10-17T12:36:34Z</time>
      </trkpt>
      <trkpt lat="46.35992" lon="5.90878">
        <ele>845.2</ele>
        <time>2021-10-17T12:36:35Z</time>
      </trkpt>
      <trkpt lat="46.35998" lon="5.90887">
        <ele>844.6</ele>
        <time>2021-10-17T12:36:36Z</time>
      </trkpt>
      <trkpt lat="46.36006" lon="5.90894">
        <ele>844.2</ele>
        <time>2021-10-17T12:36:37Z</time>
      </trkpt>
      <trkpt lat="46.36015" lon="5.90901">
        <ele>843.6</ele>
        <time>2021-10-17T12:36:38Z</time>
      </trkpt>
      <trkpt lat="46.36022" lon="5.90907">
        <ele>843.2</ele>
        <time>2021-10-17T12:36:39Z</time>
      </trkpt>
      <trkpt lat="46.3603" lon="5.90912">
        <ele>842.8</ele>
        <time>2021-10-17T12:36:40Z</time>
      </trkpt>
      <trkpt lat="46.36038" lon="5.90917">
        <ele>842.6</ele>
        <time>2021-10-17T12:36:41Z</time>
      </trkpt>
      <trkpt lat="46.36045" lon="5.90921">
        <ele>842.2</ele>
        <time>2021-10-17T12:36:42Z</time>
      </trkpt>
      <trkpt lat="46.36051" lon="5.90923">
        <ele>842</ele>
        <time>2021-10-17T12:36:43Z</time>
      </trkpt>
      <trkpt lat="46.36058" lon="5.90923">
        <ele>841.6</ele>
        <time>2021-10-17T12:36:44Z</time>
      </trkpt>
      <trkpt lat="46.36065" lon="5.9092">
        <ele>841.2</ele>
        <time>2021-10-17T12:36:45Z</time>
      </trkpt>
      <trkpt lat="46.3607" lon="5.90915">
        <ele>841</ele>
        <time>2021-10-17T12:36:46Z</time>
      </trkpt>
      <trkpt lat="46.36075" lon="5.9091">
        <ele>841</ele>
        <time>2021-10-17T12:36:47Z</time>
      </trkpt>
      <trkpt lat="46.3608" lon="5.90905">
        <ele>840.8</ele>
        <time>2021-10-17T12:36:48Z</time>
      </trkpt>
      <trkpt lat="46.36083" lon="5.90902">
        <ele>840.8</ele>
        <time>2021-10-17T12:36:49Z</time>
      </trkpt>
      <trkpt lat="46.36087" lon="5.90901">
        <ele>840.8</ele>
        <time>2021-10-17T12:36:50Z</time>
      </trkpt>
      <trkpt lat="46.3609" lon="5.90902">
        <ele>841.2</ele>
        <time>2021-10-17T12:36:51Z</time>
      </trkpt>
      <trkpt lat="46.36093" lon="5.90904">
        <ele>841.4</ele>
        <time>2021-10-17T12:36:52Z</time>
      </trkpt>
      <trkpt lat="46.36096" lon="5.90907">
        <ele>841.6</ele>
        <time>2021-10-17T12:36:53Z</time>
      </trkpt>
      <trkpt lat="46.36099" lon="5.90909">
        <ele>841.8</ele>
        <time>2021-10-17T12:36:54Z</time>
      </trkpt>
      <trkpt lat="46.36101" lon="5.90912">
        <ele>842.2</ele>
        <time>2021-10-17T12:36:55Z</time>
      </trkpt>
      <trkpt lat="46.36104" lon="5.90914">
        <ele>842.4</ele>
        <time>2021-10-17T12:36:56Z</time>
      </trkpt>
      <trkpt lat="46.36106" lon="5.90917">
        <ele>842.4</ele>
        <time>2021-10-17T12:36:57Z</time>
      </trkpt>
      <trkpt lat="46.36109" lon="5.9092">
        <ele>842.8</ele>
        <time>2021-10-17T12:36:58Z</time>
      </trkpt>
      <trkpt lat="46.36111" lon="5.90923">
        <ele>842.8</ele>
        <time>2021-10-17T12:36:59Z</time>
      </trkpt>
      <trkpt lat="46.36114" lon="5.90926">
        <ele>843.2</ele>
        <time>2021-10-17T12:37:00Z</time>
      </trkpt>
      <trkpt lat="46.36117" lon="5.90929">
        <ele>843.4</ele>
        <time>2021-10-17T12:37:01Z</time>
      </trkpt>
      <trkpt lat="46.3612" lon="5.90932">
        <ele>843.4</ele>
        <time>2021-10-17T12:37:02Z</time>
      </trkpt>
      <trkpt lat="46.36123" lon="5.90935">
        <ele>843.8</ele>
        <time>2021-10-17T12:37:03Z</time>
      </trkpt>
      <trkpt lat="46.36125" lon="5.90938">
        <ele>844.2</ele>
        <time>2021-10-17T12:37:04Z</time>
      </trkpt>
      <trkpt lat="46.36128" lon="5.90941">
        <ele>844.4</ele>
        <time>2021-10-17T12:37:05Z</time>
      </trkpt>
      <trkpt lat="46.36131" lon="5.90943">
        <ele>844.6</ele>
        <time>2021-10-17T12:37:06Z</time>
      </trkpt>
      <trkpt lat="46.36134" lon="5.90946">
        <ele>845</ele>
        <time>2021-10-17T12:37:07Z</time>
      </trkpt>
      <trkpt lat="46.36136" lon="5.90949">
        <ele>845.2</ele>
        <time>2021-10-17T12:37:08Z</time>
      </trkpt>
      <trkpt lat="46.36139" lon="5.90952">
        <ele>845.2</ele>
        <time>2021-10-17T12:37:09Z</time>
      </trkpt>
      <trkpt lat="46.36141" lon="5.90955">
        <ele>845.6</ele>
        <time>2021-10-17T12:37:10Z</time>
      </trkpt>
      <trkpt lat="46.36144" lon="5.90957">
        <ele>846</ele>
        <time>2021-10-17T12:37:11Z</time>
      </trkpt>
      <trkpt lat="46.36146" lon="5.9096">
        <ele>846.2</ele>
        <time>2021-10-17T12:37:12Z</time>
      </trkpt>
      <trkpt lat="46.36149" lon="5.90962">
        <ele>846.2</ele>
        <time>2021-10-17T12:37:13Z</time>
      </trkpt>
      <trkpt lat="46.36151" lon="5.90964">
        <ele>846.6</ele>
        <time>2021-10-17T12:37:14Z</time>
      </trkpt>
      <trkpt lat="46.36154" lon="5.90966">
        <ele>846.6</ele>
        <time>2021-10-17T12:37:15Z</time>
      </trkpt>
      <trkpt lat="46.36156" lon="5.90968">
        <ele>846.8</ele>
        <time>2021-10-17T12:37:16Z</time>
      </trkpt>
      <trkpt lat="46.36158" lon="5.90971">
        <ele>847.2</ele>
        <time>2021-10-17T12:37:17Z</time>
      </trkpt>
      <trkpt lat="46.3616" lon="5.90973">
        <ele>847.4</ele>
        <time>2021-10-17T12:37:18Z</time>
      </trkpt>
      <trkpt lat="46.36162" lon="5.90975">
        <ele>847.6</ele>
        <time>2021-10-17T12:37:19Z</time>
      </trkpt>
      <trkpt lat="46.36165" lon="5.90978">
        <ele>847.6</ele>
        <time>2021-10-17T12:37:20Z</time>
      </trkpt>
      <trkpt lat="46.36167" lon="5.9098">
        <ele>848</ele>
        <time>2021-10-17T12:37:21Z</time>
      </trkpt>
      <trkpt lat="46.3617" lon="5.90982">
        <ele>848</ele>
        <time>2021-10-17T12:37:22Z</time>
      </trkpt>
      <trkpt lat="46.36172" lon="5.90983">
        <ele>848.2</ele>
        <time>2021-10-17T12:37:23Z</time>
      </trkpt>
      <trkpt lat="46.36175" lon="5.90984">
        <ele>848.2</ele>
        <time>2021-10-17T12:37:24Z</time>
      </trkpt>
      <trkpt lat="46.36178" lon="5.90986">
        <ele>848.6</ele>
        <time>2021-10-17T12:37:25Z</time>
      </trkpt>
      <trkpt lat="46.3618" lon="5.90987">
        <ele>848.6</ele>
        <time>2021-10-17T12:37:26Z</time>
      </trkpt>
      <trkpt lat="46.36183" lon="5.90987">
        <ele>849</ele>
        <time>2021-10-17T12:37:27Z</time>
      </trkpt>
      <trkpt lat="46.36186" lon="5.90989">
        <ele>849</ele>
        <time>2021-10-17T12:37:28Z</time>
      </trkpt>
      <trkpt lat="46.36188" lon="5.9099">
        <ele>849</ele>
        <time>2021-10-17T12:37:29Z</time>
      </trkpt>
      <trkpt lat="46.36191" lon="5.90991">
        <ele>849.2</ele>
        <time>2021-10-17T12:37:30Z</time>
      </trkpt>
      <trkpt lat="46.36194" lon="5.90993">
        <ele>849.4</ele>
        <time>2021-10-17T12:37:31Z</time>
      </trkpt>
      <trkpt lat="46.36197" lon="5.90995">
        <ele>849.6</ele>
        <time>2021-10-17T12:37:32Z</time>
      </trkpt>
      <trkpt lat="46.362" lon="5.90996">
        <ele>850</ele>
        <time>2021-10-17T12:37:33Z</time>
      </trkpt>
      <trkpt lat="46.36203" lon="5.90998">
        <ele>850.2</ele>
        <time>2021-10-17T12:37:34Z</time>
      </trkpt>
      <trkpt lat="46.36205" lon="5.91">
        <ele>850.2</ele>
        <time>2021-10-17T12:37:35Z</time>
      </trkpt>
      <trkpt lat="46.36208" lon="5.91002">
        <ele>850.6</ele>
        <time>2021-10-17T12:37:36Z</time>
      </trkpt>
      <trkpt lat="46.36211" lon="5.91004">
        <ele>850.8</ele>
        <time>2021-10-17T12:37:37Z</time>
      </trkpt>
      <trkpt lat="46.36213" lon="5.91007">
        <ele>850.8</ele>
        <time>2021-10-17T12:37:38Z</time>
      </trkpt>
      <trkpt lat="46.36216" lon="5.91009">
        <ele>851.2</ele>
        <time>2021-10-17T12:37:39Z</time>
      </trkpt>
      <trkpt lat="46.36218" lon="5.91011">
        <ele>851.2</ele>
        <time>2021-10-17T12:37:40Z</time>
      </trkpt>
      <trkpt lat="46.36221" lon="5.91014">
        <ele>851.6</ele>
        <time>2021-10-17T12:37:41Z</time>
      </trkpt>
      <trkpt lat="46.36223" lon="5.91017">
        <ele>851.6</ele>
        <time>2021-10-17T12:37:42Z</time>
      </trkpt>
      <trkpt lat="46.36225" lon="5.91021">
        <ele>852</ele>
        <time>2021-10-17T12:37:43Z</time>
      </trkpt>
      <trkpt lat="46.36228" lon="5.91024">
        <ele>852.2</ele>
        <time>2021-10-17T12:37:44Z</time>
      </trkpt>
      <trkpt lat="46.3623" lon="5.91027">
        <ele>852.2</ele>
        <time>2021-10-17T12:37:45Z</time>
      </trkpt>
      <trkpt lat="46.36233" lon="5.9103">
        <ele>852.6</ele>
        <time>2021-10-17T12:37:46Z</time>
      </trkpt>
      <trkpt lat="46.36235" lon="5.91033">
        <ele>852.6</ele>
        <time>2021-10-17T12:37:47Z</time>
      </trkpt>
      <trkpt lat="46.36237" lon="5.91037">
        <ele>853</ele>
        <time>2021-10-17T12:37:48Z</time>
      </trkpt>
      <trkpt lat="46.3624" lon="5.9104">
        <ele>853</ele>
        <time>2021-10-17T12:37:49Z</time>
      </trkpt>
      <trkpt lat="46.36242" lon="5.91043">
        <ele>853.4</ele>
        <time>2021-10-17T12:37:50Z</time>
      </trkpt>
      <trkpt lat="46.36245" lon="5.91046">
        <ele>853.4</ele>
        <time>2021-10-17T12:37:51Z</time>
      </trkpt>
      <trkpt lat="46.36247" lon="5.91049">
        <ele>853.6</ele>
        <time>2021-10-17T12:37:52Z</time>
      </trkpt>
      <trkpt lat="46.3625" lon="5.91052">
        <ele>853.6</ele>
        <time>2021-10-17T12:37:53Z</time>
      </trkpt>
      <trkpt lat="46.36252" lon="5.91055">
        <ele>854</ele>
        <time>2021-10-17T12:37:54Z</time>
      </trkpt>
      <trkpt lat="46.36255" lon="5.91058">
        <ele>854</ele>
        <time>2021-10-17T12:37:55Z</time>
      </trkpt>
      <trkpt lat="46.36257" lon="5.91061">
        <ele>854.2</ele>
        <time>2021-10-17T12:37:56Z</time>
      </trkpt>
      <trkpt lat="46.36259" lon="5.91064">
        <ele>854.2</ele>
        <time>2021-10-17T12:37:57Z</time>
      </trkpt>
      <trkpt lat="46.36262" lon="5.91067">
        <ele>854.6</ele>
        <time>2021-10-17T12:37:58Z</time>
      </trkpt>
      <trkpt lat="46.36264" lon="5.9107">
        <ele>854.6</ele>
        <time>2021-10-17T12:37:59Z</time>
      </trkpt>
      <trkpt lat="46.36266" lon="5.91073">
        <ele>855</ele>
        <time>2021-10-17T12:38:00Z</time>
      </trkpt>
      <trkpt lat="46.36268" lon="5.91075">
        <ele>855.2</ele>
        <time>2021-10-17T12:38:01Z</time>
      </trkpt>
      <trkpt lat="46.36271" lon="5.91078">
        <ele>855.2</ele>
        <time>2021-10-17T12:38:02Z</time>
      </trkpt>
      <trkpt lat="46.36273" lon="5.91081">
        <ele>855.6</ele>
        <time>2021-10-17T12:38:03Z</time>
      </trkpt>
      <trkpt lat="46.36276" lon="5.91084">
        <ele>855.6</ele>
        <time>2021-10-17T12:38:04Z</time>
      </trkpt>
      <trkpt lat="46.36278" lon="5.91087">
        <ele>856</ele>
        <time>2021-10-17T12:38:05Z</time>
      </trkpt>
      <trkpt lat="46.3628" lon="5.91089">
        <ele>856.2</ele>
        <time>2021-10-17T12:38:06Z</time>
      </trkpt>
      <trkpt lat="46.36282" lon="5.91092">
        <ele>856.2</ele>
        <time>2021-10-17T12:38:07Z</time>
      </trkpt>
      <trkpt lat="46.36284" lon="5.91094">
        <ele>856.6</ele>
        <time>2021-10-17T12:38:08Z</time>
      </trkpt>
      <trkpt lat="46.36287" lon="5.91097">
        <ele>856.8</ele>
        <time>2021-10-17T12:38:09Z</time>
      </trkpt>
      <trkpt lat="46.36289" lon="5.911">
        <ele>856.8</ele>
        <time>2021-10-17T12:38:10Z</time>
      </trkpt>
      <trkpt lat="46.36291" lon="5.91102">
        <ele>857.2</ele>
        <time>2021-10-17T12:38:11Z</time>
      </trkpt>
      <trkpt lat="46.36293" lon="5.91105">
        <ele>857.2</ele>
        <time>2021-10-17T12:38:12Z</time>
      </trkpt>
      <trkpt lat="46.36296" lon="5.91108">
        <ele>857.4</ele>
        <time>2021-10-17T12:38:13Z</time>
      </trkpt>
      <trkpt lat="46.36298" lon="5.91111">
        <ele>857.4</ele>
        <time>2021-10-17T12:38:14Z</time>
      </trkpt>
      <trkpt lat="46.363" lon="5.91113">
        <ele>857.8</ele>
        <time>2021-10-17T12:38:15Z</time>
      </trkpt>
      <trkpt lat="46.36302" lon="5.91116">
        <ele>858</ele>
        <time>2021-10-17T12:38:16Z</time>
      </trkpt>
      <trkpt lat="46.36305" lon="5.91119">
        <ele>858</ele>
        <time>2021-10-17T12:38:17Z</time>
      </trkpt>
      <trkpt lat="46.36307" lon="5.91122">
        <ele>858.4</ele>
        <time>2021-10-17T12:38:18Z</time>
      </trkpt>
      <trkpt lat="46.36309" lon="5.91124">
        <ele>858.4</ele>
        <time>2021-10-17T12:38:19Z</time>
      </trkpt>
      <trkpt lat="46.36312" lon="5.91127">
        <ele>858.8</ele>
        <time>2021-10-17T12:38:20Z</time>
      </trkpt>
      <trkpt lat="46.36314" lon="5.9113">
        <ele>859.2</ele>
        <time>2021-10-17T12:38:21Z</time>
      </trkpt>
      <trkpt lat="46.36317" lon="5.91132">
        <ele>859.4</ele>
        <time>2021-10-17T12:38:22Z</time>
      </trkpt>
      <trkpt lat="46.36319" lon="5.91135">
        <ele>859.4</ele>
        <time>2021-10-17T12:38:23Z</time>
      </trkpt>
      <trkpt lat="46.36321" lon="5.91138">
        <ele>859.6</ele>
        <time>2021-10-17T12:38:24Z</time>
      </trkpt>
      <trkpt lat="46.36324" lon="5.91141">
        <ele>860</ele>
        <time>2021-10-17T12:38:25Z</time>
      </trkpt>
      <trkpt lat="46.36326" lon="5.91143">
        <ele>860.2</ele>
        <time>2021-10-17T12:38:26Z</time>
      </trkpt>
      <trkpt lat="46.36328" lon="5.91146">
        <ele>860.4</ele>
        <time>2021-10-17T12:38:27Z</time>
      </trkpt>
      <trkpt lat="46.36331" lon="5.91148">
        <ele>860.4</ele>
        <time>2021-10-17T12:38:28Z</time>
      </trkpt>
      <trkpt lat="46.36333" lon="5.91151">
        <ele>860.6</ele>
        <time>2021-10-17T12:38:29Z</time>
      </trkpt>
      <trkpt lat="46.36335" lon="5.91154">
        <ele>861</ele>
        <time>2021-10-17T12:38:30Z</time>
      </trkpt>
      <trkpt lat="46.36337" lon="5.91156">
        <ele>861.2</ele>
        <time>2021-10-17T12:38:31Z</time>
      </trkpt>
      <trkpt lat="46.3634" lon="5.91158">
        <ele>861.2</ele>
        <time>2021-10-17T12:38:32Z</time>
      </trkpt>
      <trkpt lat="46.36342" lon="5.9116">
        <ele>861.4</ele>
        <time>2021-10-17T12:38:33Z</time>
      </trkpt>
      <trkpt lat="46.36344" lon="5.91162">
        <ele>861.4</ele>
        <time>2021-10-17T12:38:34Z</time>
      </trkpt>
      <trkpt lat="46.36347" lon="5.91164">
        <ele>861.8</ele>
        <time>2021-10-17T12:38:35Z</time>
      </trkpt>
      <trkpt lat="46.36349" lon="5.91167">
        <ele>861.8</ele>
        <time>2021-10-17T12:38:36Z</time>
      </trkpt>
      <trkpt lat="46.36351" lon="5.91169">
        <ele>862.2</ele>
        <time>2021-10-17T12:38:37Z</time>
      </trkpt>
      <trkpt lat="46.36354" lon="5.91171">
        <ele>862.4</ele>
        <time>2021-10-17T12:38:38Z</time>
      </trkpt>
      <trkpt lat="46.36356" lon="5.91173">
        <ele>862.4</ele>
        <time>2021-10-17T12:38:39Z</time>
      </trkpt>
      <trkpt lat="46.36359" lon="5.91175">
        <ele>862.8</ele>
        <time>2021-10-17T12:38:40Z</time>
      </trkpt>
      <trkpt lat="46.36361" lon="5.91176">
        <ele>862.8</ele>
        <time>2021-10-17T12:38:41Z</time>
      </trkpt>
      <trkpt lat="46.36364" lon="5.91178">
        <ele>863.2</ele>
        <time>2021-10-17T12:38:42Z</time>
      </trkpt>
      <trkpt lat="46.36367" lon="5.9118">
        <ele>863.2</ele>
        <time>2021-10-17T12:38:43Z</time>
      </trkpt>
      <trkpt lat="46.36369" lon="5.91182">
        <ele>863.6</ele>
        <time>2021-10-17T12:38:44Z</time>
      </trkpt>
      <trkpt lat="46.36372" lon="5.91184">
        <ele>863.8</ele>
        <time>2021-10-17T12:38:45Z</time>
      </trkpt>
      <trkpt lat="46.36374" lon="5.91186">
        <ele>864</ele>
        <time>2021-10-17T12:38:46Z</time>
      </trkpt>
      <trkpt lat="46.36377" lon="5.91188">
        <ele>864.2</ele>
        <time>2021-10-17T12:38:47Z</time>
      </trkpt>
      <trkpt lat="46.36379" lon="5.9119">
        <ele>864.2</ele>
        <time>2021-10-17T12:38:48Z</time>
      </trkpt>
      <trkpt lat="46.36382" lon="5.91192">
        <ele>864.6</ele>
        <time>2021-10-17T12:38:49Z</time>
      </trkpt>
      <trkpt lat="46.36384" lon="5.91195">
        <ele>864.6</ele>
        <time>2021-10-17T12:38:50Z</time>
      </trkpt>
      <trkpt lat="46.36387" lon="5.91196">
        <ele>864.8</ele>
        <time>2021-10-17T12:38:51Z</time>
      </trkpt>
      <trkpt lat="46.36389" lon="5.91198">
        <ele>864.8</ele>
        <time>2021-10-17T12:38:52Z</time>
      </trkpt>
      <trkpt lat="46.36392" lon="5.912">
        <ele>865</ele>
        <time>2021-10-17T12:38:53Z</time>
      </trkpt>
      <trkpt lat="46.36394" lon="5.91201">
        <ele>865</ele>
        <time>2021-10-17T12:38:54Z</time>
      </trkpt>
      <trkpt lat="46.36397" lon="5.91203">
        <ele>865.4</ele>
        <time>2021-10-17T12:38:55Z</time>
      </trkpt>
      <trkpt lat="46.364" lon="5.91205">
        <ele>865.4</ele>
        <time>2021-10-17T12:38:56Z</time>
      </trkpt>
      <trkpt lat="46.36402" lon="5.91208">
        <ele>865.8</ele>
        <time>2021-10-17T12:38:57Z</time>
      </trkpt>
      <trkpt lat="46.36405" lon="5.9121">
        <ele>866</ele>
        <time>2021-10-17T12:38:58Z</time>
      </trkpt>
      <trkpt lat="46.36408" lon="5.91212">
        <ele>866.2</ele>
        <time>2021-10-17T12:38:59Z</time>
      </trkpt>
      <trkpt lat="46.3641" lon="5.91214">
        <ele>866.2</ele>
        <time>2021-10-17T12:39:00Z</time>
      </trkpt>
      <trkpt lat="46.36413" lon="5.91217">
        <ele>866.6</ele>
        <time>2021-10-17T12:39:01Z</time>
      </trkpt>
      <trkpt lat="46.36415" lon="5.91219">
        <ele>866.8</ele>
        <time>2021-10-17T12:39:02Z</time>
      </trkpt>
      <trkpt lat="46.36418" lon="5.91221">
        <ele>866.8</ele>
        <time>2021-10-17T12:39:03Z</time>
      </trkpt>
      <trkpt lat="46.36421" lon="5.91223">
        <ele>867</ele>
        <time>2021-10-17T12:39:04Z</time>
      </trkpt>
      <trkpt lat="46.36423" lon="5.91225">
        <ele>867.4</ele>
        <time>2021-10-17T12:39:05Z</time>
      </trkpt>
      <trkpt lat="46.36426" lon="5.91227">
        <ele>867.6</ele>
        <time>2021-10-17T12:39:06Z</time>
      </trkpt>
      <trkpt lat="46.36428" lon="5.91229">
        <ele>867.6</ele>
        <time>2021-10-17T12:39:07Z</time>
      </trkpt>
      <trkpt lat="46.36431" lon="5.91231">
        <ele>867.8</ele>
        <time>2021-10-17T12:39:08Z</time>
      </trkpt>
      <trkpt lat="46.36433" lon="5.91233">
        <ele>868</ele>
        <time>2021-10-17T12:39:09Z</time>
      </trkpt>
      <trkpt lat="46.36435" lon="5.91235">
        <ele>868</ele>
        <time>2021-10-17T12:39:10Z</time>
      </trkpt>
      <trkpt lat="46.36438" lon="5.91238">
        <ele>868.4</ele>
        <time>2021-10-17T12:39:11Z</time>
      </trkpt>
      <trkpt lat="46.3644" lon="5.9124">
        <ele>868.6</ele>
        <time>2021-10-17T12:39:12Z</time>
      </trkpt>
      <trkpt lat="46.36443" lon="5.91242">
        <ele>868.6</ele>
        <time>2021-10-17T12:39:13Z</time>
      </trkpt>
      <trkpt lat="46.36445" lon="5.91245">
        <ele>869</ele>
        <time>2021-10-17T12:39:14Z</time>
      </trkpt>
      <trkpt lat="46.36447" lon="5.91247">
        <ele>869.4</ele>
        <time>2021-10-17T12:39:15Z</time>
      </trkpt>
      <trkpt lat="46.36449" lon="5.9125">
        <ele>869.6</ele>
        <time>2021-10-17T12:39:16Z</time>
      </trkpt>
      <trkpt lat="46.36451" lon="5.91253">
        <ele>869.6</ele>
        <time>2021-10-17T12:39:17Z</time>
      </trkpt>
      <trkpt lat="46.36453" lon="5.91256">
        <ele>869.8</ele>
        <time>2021-10-17T12:39:18Z</time>
      </trkpt>
      <trkpt lat="46.36455" lon="5.91259">
        <ele>869.8</ele>
        <time>2021-10-17T12:39:19Z</time>
      </trkpt>
      <trkpt lat="46.36458" lon="5.91261">
        <ele>870.2</ele>
        <time>2021-10-17T12:39:20Z</time>
      </trkpt>
      <trkpt lat="46.3646" lon="5.91264">
        <ele>870.4</ele>
        <time>2021-10-17T12:39:21Z</time>
      </trkpt>
      <trkpt lat="46.36462" lon="5.91266">
        <ele>870.4</ele>
        <time>2021-10-17T12:39:22Z</time>
      </trkpt>
      <trkpt lat="46.36464" lon="5.91268">
        <ele>870.8</ele>
        <time>2021-10-17T12:39:23Z</time>
      </trkpt>
      <trkpt lat="46.36467" lon="5.91271">
        <ele>870.8</ele>
        <time>2021-10-17T12:39:24Z</time>
      </trkpt>
      <trkpt lat="46.36469" lon="5.91273">
        <ele>871.2</ele>
        <time>2021-10-17T12:39:25Z</time>
      </trkpt>
      <trkpt lat="46.36471" lon="5.91276">
        <ele>871.2</ele>
        <time>2021-10-17T12:39:26Z</time>
      </trkpt>
      <trkpt lat="46.36473" lon="5.91279">
        <ele>871.6</ele>
        <time>2021-10-17T12:39:27Z</time>
      </trkpt>
      <trkpt lat="46.36475" lon="5.91281">
        <ele>871.8</ele>
        <time>2021-10-17T12:39:28Z</time>
      </trkpt>
      <trkpt lat="46.36478" lon="5.91284">
        <ele>872</ele>
        <time>2021-10-17T12:39:29Z</time>
      </trkpt>
      <trkpt lat="46.3648" lon="5.91287">
        <ele>872.2</ele>
        <time>2021-10-17T12:39:30Z</time>
      </trkpt>
      <trkpt lat="46.36482" lon="5.91289">
        <ele>872.4</ele>
        <time>2021-10-17T12:39:31Z</time>
      </trkpt>
      <trkpt lat="46.36484" lon="5.91292">
        <ele>872.6</ele>
        <time>2021-10-17T12:39:32Z</time>
      </trkpt>
      <trkpt lat="46.36487" lon="5.91295">
        <ele>872.6</ele>
        <time>2021-10-17T12:39:33Z</time>
      </trkpt>
      <trkpt lat="46.36489" lon="5.91297">
        <ele>873</ele>
        <time>2021-10-17T12:39:34Z</time>
      </trkpt>
      <trkpt lat="46.36491" lon="5.913">
        <ele>873.2</ele>
        <time>2021-10-17T12:39:35Z</time>
      </trkpt>
      <trkpt lat="46.36494" lon="5.91303">
        <ele>873.2</ele>
        <time>2021-10-17T12:39:36Z</time>
      </trkpt>
      <trkpt lat="46.36496" lon="5.91305">
        <ele>873.4</ele>
        <time>2021-10-17T12:39:37Z</time>
      </trkpt>
      <trkpt lat="46.36498" lon="5.91308">
        <ele>873.4</ele>
        <time>2021-10-17T12:39:38Z</time>
      </trkpt>
      <trkpt lat="46.365" lon="5.91311">
        <ele>873.8</ele>
        <time>2021-10-17T12:39:39Z</time>
      </trkpt>
      <trkpt lat="46.36502" lon="5.91313">
        <ele>874</ele>
        <time>2021-10-17T12:39:40Z</time>
      </trkpt>
      <trkpt lat="46.36505" lon="5.91316">
        <ele>874</ele>
        <time>2021-10-17T12:39:41Z</time>
      </trkpt>
      <trkpt lat="46.36507" lon="5.91318">
        <ele>874.4</ele>
        <time>2021-10-17T12:39:42Z</time>
      </trkpt>
      <trkpt lat="46.36509" lon="5.91321">
        <ele>874.8</ele>
        <time>2021-10-17T12:39:43Z</time>
      </trkpt>
      <trkpt lat="46.36511" lon="5.91323">
        <ele>874.8</ele>
        <time>2021-10-17T12:39:44Z</time>
      </trkpt>
      <trkpt lat="46.36513" lon="5.91326">
        <ele>875.2</ele>
        <time>2021-10-17T12:39:45Z</time>
      </trkpt>
      <trkpt lat="46.36516" lon="5.91328">
        <ele>875.2</ele>
        <time>2021-10-17T12:39:46Z</time>
      </trkpt>
      <trkpt lat="46.36518" lon="5.91331">
        <ele>875.4</ele>
        <time>2021-10-17T12:39:47Z</time>
      </trkpt>
      <trkpt lat="46.3652" lon="5.91333">
        <ele>875.8</ele>
        <time>2021-10-17T12:39:48Z</time>
      </trkpt>
      <trkpt lat="46.36522" lon="5.91336">
        <ele>875.8</ele>
        <time>2021-10-17T12:39:49Z</time>
      </trkpt>
      <trkpt lat="46.36524" lon="5.91338">
        <ele>876</ele>
        <time>2021-10-17T12:39:50Z</time>
      </trkpt>
      <trkpt lat="46.36526" lon="5.91341">
        <ele>876</ele>
        <time>2021-10-17T12:39:51Z</time>
      </trkpt>
      <trkpt lat="46.36529" lon="5.91343">
        <ele>876.2</ele>
        <time>2021-10-17T12:39:52Z</time>
      </trkpt>
      <trkpt lat="46.36531" lon="5.91346">
        <ele>876.2</ele>
        <time>2021-10-17T12:39:53Z</time>
      </trkpt>
      <trkpt lat="46.36533" lon="5.91348">
        <ele>876.6</ele>
        <time>2021-10-17T12:39:54Z</time>
      </trkpt>
      <trkpt lat="46.36535" lon="5.9135">
        <ele>876.6</ele>
        <time>2021-10-17T12:39:55Z</time>
      </trkpt>
      <trkpt lat="46.36537" lon="5.91353">
        <ele>877</ele>
        <time>2021-10-17T12:39:56Z</time>
      </trkpt>
      <trkpt lat="46.36539" lon="5.91355">
        <ele>877</ele>
        <time>2021-10-17T12:39:57Z</time>
      </trkpt>
      <trkpt lat="46.36541" lon="5.91357">
        <ele>877.4</ele>
        <time>2021-10-17T12:39:58Z</time>
      </trkpt>
      <trkpt lat="46.36543" lon="5.91359">
        <ele>877.6</ele>
        <time>2021-10-17T12:39:59Z</time>
      </trkpt>
      <trkpt lat="46.36545" lon="5.91362">
        <ele>877.8</ele>
        <time>2021-10-17T12:40:00Z</time>
      </trkpt>
      <trkpt lat="46.36547" lon="5.91364">
        <ele>877.8</ele>
        <time>2021-10-17T12:40:01Z</time>
      </trkpt>
      <trkpt lat="46.36549" lon="5.91366">
        <ele>878.2</ele>
        <time>2021-10-17T12:40:02Z</time>
      </trkpt>
      <trkpt lat="46.36551" lon="5.91368">
        <ele>878.4</ele>
        <time>2021-10-17T12:40:03Z</time>
      </trkpt>
      <trkpt lat="46.36553" lon="5.9137">
        <ele>878.4</ele>
        <time>2021-10-17T12:40:04Z</time>
      </trkpt>
      <trkpt lat="46.36555" lon="5.91372">
        <ele>878.6</ele>
        <time>2021-10-17T12:40:05Z</time>
      </trkpt>
      <trkpt lat="46.36557" lon="5.91374">
        <ele>878.8</ele>
        <time>2021-10-17T12:40:06Z</time>
      </trkpt>
      <trkpt lat="46.36559" lon="5.91376">
        <ele>879.2</ele>
        <time>2021-10-17T12:40:07Z</time>
      </trkpt>
      <trkpt lat="46.36562" lon="5.91378">
        <ele>879.2</ele>
        <time>2021-10-17T12:40:08Z</time>
      </trkpt>
      <trkpt lat="46.36565" lon="5.91379">
        <ele>879.4</ele>
        <time>2021-10-17T12:40:09Z</time>
      </trkpt>
      <trkpt lat="46.36567" lon="5.91381">
        <ele>879.4</ele>
        <time>2021-10-17T12:40:10Z</time>
      </trkpt>
      <trkpt lat="46.3657" lon="5.91382">
        <ele>879.8</ele>
        <time>2021-10-17T12:40:11Z</time>
      </trkpt>
      <trkpt lat="46.36573" lon="5.91383">
        <ele>879.8</ele>
        <time>2021-10-17T12:40:12Z</time>
      </trkpt>
      <trkpt lat="46.36576" lon="5.91385">
        <ele>880</ele>
        <time>2021-10-17T12:40:13Z</time>
      </trkpt>
      <trkpt lat="46.36578" lon="5.91386">
        <ele>880</ele>
        <time>2021-10-17T12:40:14Z</time>
      </trkpt>
      <trkpt lat="46.36581" lon="5.91388">
        <ele>880.4</ele>
        <time>2021-10-17T12:40:15Z</time>
      </trkpt>
      <trkpt lat="46.36584" lon="5.91389">
        <ele>880.4</ele>
        <time>2021-10-17T12:40:16Z</time>
      </trkpt>
      <trkpt lat="46.36587" lon="5.9139">
        <ele>880.8</ele>
        <time>2021-10-17T12:40:17Z</time>
      </trkpt>
      <trkpt lat="46.3659" lon="5.91391">
        <ele>880.8</ele>
        <time>2021-10-17T12:40:18Z</time>
      </trkpt>
      <trkpt lat="46.36593" lon="5.91393">
        <ele>881</ele>
        <time>2021-10-17T12:40:19Z</time>
      </trkpt>
      <trkpt lat="46.36595" lon="5.91394">
        <ele>881</ele>
        <time>2021-10-17T12:40:20Z</time>
      </trkpt>
      <trkpt lat="46.36598" lon="5.91395">
        <ele>881.4</ele>
        <time>2021-10-17T12:40:21Z</time>
      </trkpt>
      <trkpt lat="46.36601" lon="5.91397">
        <ele>881.6</ele>
        <time>2021-10-17T12:40:22Z</time>
      </trkpt>
      <trkpt lat="46.36604" lon="5.91398">
        <ele>881.8</ele>
        <time>2021-10-17T12:40:23Z</time>
      </trkpt>
      <trkpt lat="46.36607" lon="5.91399">
        <ele>882</ele>
        <time>2021-10-17T12:40:24Z</time>
      </trkpt>
      <trkpt lat="46.3661" lon="5.91401">
        <ele>882</ele>
        <time>2021-10-17T12:40:25Z</time>
      </trkpt>
      <trkpt lat="46.36612" lon="5.91402">
        <ele>882.4</ele>
        <time>2021-10-17T12:40:26Z</time>
      </trkpt>
      <trkpt lat="46.36615" lon="5.91403">
        <ele>882.4</ele>
        <time>2021-10-17T12:40:27Z</time>
      </trkpt>
      <trkpt lat="46.36618" lon="5.91405">
        <ele>882.8</ele>
        <time>2021-10-17T12:40:28Z</time>
      </trkpt>
      <trkpt lat="46.3662" lon="5.91406">
        <ele>882.8</ele>
        <time>2021-10-17T12:40:29Z</time>
      </trkpt>
      <trkpt lat="46.36623" lon="5.91407">
        <ele>883.2</ele>
        <time>2021-10-17T12:40:30Z</time>
      </trkpt>
      <trkpt lat="46.36626" lon="5.91408">
        <ele>883.6</ele>
        <time>2021-10-17T12:40:31Z</time>
      </trkpt>
      <trkpt lat="46.36628" lon="5.9141">
        <ele>883.8</ele>
        <time>2021-10-17T12:40:32Z</time>
      </trkpt>
      <trkpt lat="46.36631" lon="5.91411">
        <ele>883.8</ele>
        <time>2021-10-17T12:40:33Z</time>
      </trkpt>
      <trkpt lat="46.36634" lon="5.91412">
        <ele>884</ele>
        <time>2021-10-17T12:40:34Z</time>
      </trkpt>
      <trkpt lat="46.36636" lon="5.91413">
        <ele>884</ele>
        <time>2021-10-17T12:40:35Z</time>
      </trkpt>
      <trkpt lat="46.36639" lon="5.91414">
        <ele>884.4</ele>
        <time>2021-10-17T12:40:36Z</time>
      </trkpt>
      <trkpt lat="46.36641" lon="5.91415">
        <ele>884.4</ele>
        <time>2021-10-17T12:40:37Z</time>
      </trkpt>
      <trkpt lat="46.36644" lon="5.91416">
        <ele>884.8</ele>
        <time>2021-10-17T12:40:38Z</time>
      </trkpt>
      <trkpt lat="46.36647" lon="5.91417">
        <ele>884.8</ele>
        <time>2021-10-17T12:40:39Z</time>
      </trkpt>
      <trkpt lat="46.36649" lon="5.91419">
        <ele>885.2</ele>
        <time>2021-10-17T12:40:40Z</time>
      </trkpt>
      <trkpt lat="46.36652" lon="5.9142">
        <ele>885.2</ele>
        <time>2021-10-17T12:40:41Z</time>
      </trkpt>
      <trkpt lat="46.36654" lon="5.91421">
        <ele>885.6</ele>
        <time>2021-10-17T12:40:42Z</time>
      </trkpt>
      <trkpt lat="46.36657" lon="5.91422">
        <ele>885.8</ele>
        <time>2021-10-17T12:40:43Z</time>
      </trkpt>
      <trkpt lat="46.36659" lon="5.91423">
        <ele>885.8</ele>
        <time>2021-10-17T12:40:44Z</time>
      </trkpt>
      <trkpt lat="46.36662" lon="5.91425">
        <ele>886</ele>
        <time>2021-10-17T12:40:45Z</time>
      </trkpt>
      <trkpt lat="46.36664" lon="5.91426">
        <ele>886.4</ele>
        <time>2021-10-17T12:40:46Z</time>
      </trkpt>
      <trkpt lat="46.36667" lon="5.91427">
        <ele>886.4</ele>
        <time>2021-10-17T12:40:47Z</time>
      </trkpt>
      <trkpt lat="46.36669" lon="5.91429">
        <ele>886.8</ele>
        <time>2021-10-17T12:40:48Z</time>
      </trkpt>
      <trkpt lat="46.36672" lon="5.91431">
        <ele>886.8</ele>
        <time>2021-10-17T12:40:49Z</time>
      </trkpt>
      <trkpt lat="46.36674" lon="5.91432">
        <ele>887</ele>
        <time>2021-10-17T12:40:50Z</time>
      </trkpt>
      <trkpt lat="46.36677" lon="5.91433">
        <ele>887</ele>
        <time>2021-10-17T12:40:51Z</time>
      </trkpt>
      <trkpt lat="46.36679" lon="5.91435">
        <ele>887.4</ele>
        <time>2021-10-17T12:40:52Z</time>
      </trkpt>
      <trkpt lat="46.36682" lon="5.91436">
        <ele>887.4</ele>
        <time>2021-10-17T12:40:53Z</time>
      </trkpt>
      <trkpt lat="46.36684" lon="5.91437">
        <ele>887.6</ele>
        <time>2021-10-17T12:40:54Z</time>
      </trkpt>
      <trkpt lat="46.36686" lon="5.91438">
        <ele>888</ele>
        <time>2021-10-17T12:40:55Z</time>
      </trkpt>
      <trkpt lat="46.36689" lon="5.91439">
        <ele>888.2</ele>
        <time>2021-10-17T12:40:56Z</time>
      </trkpt>
      <trkpt lat="46.36691" lon="5.9144">
        <ele>888.2</ele>
        <time>2021-10-17T12:40:57Z</time>
      </trkpt>
      <trkpt lat="46.36694" lon="5.91441">
        <ele>888.4</ele>
        <time>2021-10-17T12:40:58Z</time>
      </trkpt>
      <trkpt lat="46.36696" lon="5.91443">
        <ele>888.8</ele>
        <time>2021-10-17T12:40:59Z</time>
      </trkpt>
      <trkpt lat="46.36699" lon="5.91444">
        <ele>888.8</ele>
        <time>2021-10-17T12:41:00Z</time>
      </trkpt>
      <trkpt lat="46.36701" lon="5.91445">
        <ele>889.2</ele>
        <time>2021-10-17T12:41:01Z</time>
      </trkpt>
      <trkpt lat="46.36704" lon="5.91446">
        <ele>889.2</ele>
        <time>2021-10-17T12:41:02Z</time>
      </trkpt>
      <trkpt lat="46.36707" lon="5.91447">
        <ele>889.4</ele>
        <time>2021-10-17T12:41:03Z</time>
      </trkpt>
      <trkpt lat="46.36709" lon="5.91448">
        <ele>889.4</ele>
        <time>2021-10-17T12:41:04Z</time>
      </trkpt>
      <trkpt lat="46.36712" lon="5.91449">
        <ele>889.8</ele>
        <time>2021-10-17T12:41:05Z</time>
      </trkpt>
      <trkpt lat="46.36714" lon="5.9145">
        <ele>889.8</ele>
        <time>2021-10-17T12:41:06Z</time>
      </trkpt>
      <trkpt lat="46.36716" lon="5.91452">
        <ele>890.2</ele>
        <time>2021-10-17T12:41:07Z</time>
      </trkpt>
      <trkpt lat="46.36719" lon="5.91453">
        <ele>890.2</ele>
        <time>2021-10-17T12:41:08Z</time>
      </trkpt>
      <trkpt lat="46.36721" lon="5.91454">
        <ele>890.4</ele>
        <time>2021-10-17T12:41:09Z</time>
      </trkpt>
      <trkpt lat="46.36724" lon="5.91456">
        <ele>890.4</ele>
        <time>2021-10-17T12:41:10Z</time>
      </trkpt>
      <trkpt lat="46.36726" lon="5.91456">
        <ele>890.6</ele>
        <time>2021-10-17T12:41:11Z</time>
      </trkpt>
      <trkpt lat="46.36729" lon="5.91457">
        <ele>890.6</ele>
        <time>2021-10-17T12:41:12Z</time>
      </trkpt>
      <trkpt lat="46.36731" lon="5.91459">
        <ele>891</ele>
        <time>2021-10-17T12:41:13Z</time>
      </trkpt>
      <trkpt lat="46.36734" lon="5.9146">
        <ele>891</ele>
        <time>2021-10-17T12:41:14Z</time>
      </trkpt>
      <trkpt lat="46.36736" lon="5.91461">
        <ele>891.4</ele>
        <time>2021-10-17T12:41:15Z</time>
      </trkpt>
      <trkpt lat="46.36739" lon="5.91463">
        <ele>891.6</ele>
        <time>2021-10-17T12:41:16Z</time>
      </trkpt>
      <trkpt lat="46.36742" lon="5.91464">
        <ele>891.6</ele>
        <time>2021-10-17T12:41:17Z</time>
      </trkpt>
      <trkpt lat="46.36745" lon="5.91465">
        <ele>892</ele>
        <time>2021-10-17T12:41:18Z</time>
      </trkpt>
      <trkpt lat="46.36747" lon="5.91466">
        <ele>892</ele>
        <time>2021-10-17T12:41:19Z</time>
      </trkpt>
      <trkpt lat="46.3675" lon="5.91467">
        <ele>892.2</ele>
        <time>2021-10-17T12:41:20Z</time>
      </trkpt>
      <trkpt lat="46.36753" lon="5.91468">
        <ele>892.4</ele>
        <time>2021-10-17T12:41:21Z</time>
      </trkpt>
      <trkpt lat="46.36755" lon="5.91469">
        <ele>892.4</ele>
        <time>2021-10-17T12:41:22Z</time>
      </trkpt>
      <trkpt lat="46.36758" lon="5.9147">
        <ele>892.8</ele>
        <time>2021-10-17T12:41:23Z</time>
      </trkpt>
      <trkpt lat="46.3676" lon="5.91471">
        <ele>892.8</ele>
        <time>2021-10-17T12:41:24Z</time>
      </trkpt>
      <trkpt lat="46.36763" lon="5.91472">
        <ele>893</ele>
        <time>2021-10-17T12:41:25Z</time>
      </trkpt>
      <trkpt lat="46.36766" lon="5.91474">
        <ele>893</ele>
        <time>2021-10-17T12:41:26Z</time>
      </trkpt>
      <trkpt lat="46.36768" lon="5.91475">
        <ele>893.4</ele>
        <time>2021-10-17T12:41:27Z</time>
      </trkpt>
      <trkpt lat="46.36771" lon="5.91477">
        <ele>893.4</ele>
        <time>2021-10-17T12:41:28Z</time>
      </trkpt>
      <trkpt lat="46.36774" lon="5.91478">
        <ele>893.8</ele>
        <time>2021-10-17T12:41:29Z</time>
      </trkpt>
      <trkpt lat="46.36777" lon="5.91479">
        <ele>893.8</ele>
        <time>2021-10-17T12:41:30Z</time>
      </trkpt>
      <trkpt lat="46.36779" lon="5.9148">
        <ele>894.2</ele>
        <time>2021-10-17T12:41:31Z</time>
      </trkpt>
      <trkpt lat="46.36782" lon="5.91481">
        <ele>894.4</ele>
        <time>2021-10-17T12:41:32Z</time>
      </trkpt>
      <trkpt lat="46.36785" lon="5.91483">
        <ele>894.6</ele>
        <time>2021-10-17T12:41:33Z</time>
      </trkpt>
      <trkpt lat="46.36788" lon="5.91484">
        <ele>894.8</ele>
        <time>2021-10-17T12:41:34Z</time>
      </trkpt>
      <trkpt lat="46.3679" lon="5.91485">
        <ele>894.8</ele>
        <time>2021-10-17T12:41:35Z</time>
      </trkpt>
      <trkpt lat="46.36793" lon="5.91487">
        <ele>895.2</ele>
        <time>2021-10-17T12:41:36Z</time>
      </trkpt>
      <trkpt lat="46.36796" lon="5.91488">
        <ele>895.2</ele>
        <time>2021-10-17T12:41:37Z</time>
      </trkpt>
      <trkpt lat="46.36799" lon="5.91489">
        <ele>895.4</ele>
        <time>2021-10-17T12:41:38Z</time>
      </trkpt>
      <trkpt lat="46.36801" lon="5.91491">
        <ele>895.8</ele>
        <time>2021-10-17T12:41:39Z</time>
      </trkpt>
      <trkpt lat="46.36804" lon="5.91492">
        <ele>896</ele>
        <time>2021-10-17T12:41:40Z</time>
      </trkpt>
      <trkpt lat="46.36807" lon="5.91494">
        <ele>896.2</ele>
        <time>2021-10-17T12:41:41Z</time>
      </trkpt>
      <trkpt lat="46.36809" lon="5.91496">
        <ele>896.2</ele>
        <time>2021-10-17T12:41:42Z</time>
      </trkpt>
      <trkpt lat="46.36812" lon="5.91498">
        <ele>896.6</ele>
        <time>2021-10-17T12:41:43Z</time>
      </trkpt>
      <trkpt lat="46.36814" lon="5.915">
        <ele>896.8</ele>
        <time>2021-10-17T12:41:44Z</time>
      </trkpt>
      <trkpt lat="46.36817" lon="5.91502">
        <ele>897</ele>
        <time>2021-10-17T12:41:45Z</time>
      </trkpt>
      <trkpt lat="46.36819" lon="5.91504">
        <ele>897</ele>
        <time>2021-10-17T12:41:46Z</time>
      </trkpt>
      <trkpt lat="46.36821" lon="5.91506">
        <ele>897.4</ele>
        <time>2021-10-17T12:41:47Z</time>
      </trkpt>
      <trkpt lat="46.36824" lon="5.91508">
        <ele>897.8</ele>
        <time>2021-10-17T12:41:48Z</time>
      </trkpt>
      <trkpt lat="46.36826" lon="5.9151">
        <ele>898</ele>
        <time>2021-10-17T12:41:49Z</time>
      </trkpt>
      <trkpt lat="46.36828" lon="5.91511">
        <ele>898.2</ele>
        <time>2021-10-17T12:41:50Z</time>
      </trkpt>
      <trkpt lat="46.36831" lon="5.91513">
        <ele>898.2</ele>
        <time>2021-10-17T12:41:51Z</time>
      </trkpt>
      <trkpt lat="46.36833" lon="5.91515">
        <ele>898.6</ele>
        <time>2021-10-17T12:41:52Z</time>
      </trkpt>
      <trkpt lat="46.36835" lon="5.91517">
        <ele>898.6</ele>
        <time>2021-10-17T12:41:53Z</time>
      </trkpt>
      <trkpt lat="46.36838" lon="5.91519">
        <ele>898.8</ele>
        <time>2021-10-17T12:41:54Z</time>
      </trkpt>
      <trkpt lat="46.3684" lon="5.9152">
        <ele>899</ele>
        <time>2021-10-17T12:41:55Z</time>
      </trkpt>
      <trkpt lat="46.36842" lon="5.91521">
        <ele>899</ele>
        <time>2021-10-17T12:41:56Z</time>
      </trkpt>
      <trkpt lat="46.36844" lon="5.91522">
        <ele>899.4</ele>
        <time>2021-10-17T12:41:57Z</time>
      </trkpt>
      <trkpt lat="46.36847" lon="5.91524">
        <ele>899.4</ele>
        <time>2021-10-17T12:41:58Z</time>
      </trkpt>
      <trkpt lat="46.36849" lon="5.91525">
        <ele>899.6</ele>
        <time>2021-10-17T12:41:59Z</time>
      </trkpt>
      <trkpt lat="46.36852" lon="5.91525">
        <ele>899.6</ele>
        <time>2021-10-17T12:42:00Z</time>
      </trkpt>
      <trkpt lat="46.36854" lon="5.91525">
        <ele>900</ele>
        <time>2021-10-17T12:42:01Z</time>
      </trkpt>
      <trkpt lat="46.36856" lon="5.91525">
        <ele>900</ele>
        <time>2021-10-17T12:42:02Z</time>
      </trkpt>
      <trkpt lat="46.36858" lon="5.91524">
        <ele>900.4</ele>
        <time>2021-10-17T12:42:03Z</time>
      </trkpt>
      <trkpt lat="46.3686" lon="5.91524">
        <ele>900.4</ele>
        <time>2021-10-17T12:42:04Z</time>
      </trkpt>
      <trkpt lat="46.36862" lon="5.91523">
        <ele>900.8</ele>
        <time>2021-10-17T12:42:05Z</time>
      </trkpt>
      <trkpt lat="46.36864" lon="5.91522">
        <ele>900.8</ele>
        <time>2021-10-17T12:42:06Z</time>
      </trkpt>
      <trkpt lat="46.36866" lon="5.9152">
        <ele>901</ele>
        <time>2021-10-17T12:42:07Z</time>
      </trkpt>
      <trkpt lat="46.36868" lon="5.91518">
        <ele>901</ele>
        <time>2021-10-17T12:42:08Z</time>
      </trkpt>
      <trkpt lat="46.3687" lon="5.91516">
        <ele>901.4</ele>
        <time>2021-10-17T12:42:09Z</time>
      </trkpt>
      <trkpt lat="46.36872" lon="5.91514">
        <ele>901.4</ele>
        <time>2021-10-17T12:42:10Z</time>
      </trkpt>
      <trkpt lat="46.36874" lon="5.91512">
        <ele>901.6</ele>
        <time>2021-10-17T12:42:11Z</time>
      </trkpt>
      <trkpt lat="46.36876" lon="5.91509">
        <ele>901.6</ele>
        <time>2021-10-17T12:42:12Z</time>
      </trkpt>
      <trkpt lat="46.36877" lon="5.91506">
        <ele>901.8</ele>
        <time>2021-10-17T12:42:13Z</time>
      </trkpt>
      <trkpt lat="46.36879" lon="5.91503">
        <ele>901.8</ele>
        <time>2021-10-17T12:42:14Z</time>
      </trkpt>
      <trkpt lat="46.36881" lon="5.915">
        <ele>902</ele>
        <time>2021-10-17T12:42:15Z</time>
      </trkpt>
      <trkpt lat="46.36883" lon="5.91497">
        <ele>902</ele>
        <time>2021-10-17T12:42:16Z</time>
      </trkpt>
      <trkpt lat="46.36884" lon="5.91494">
        <ele>902.2</ele>
        <time>2021-10-17T12:42:17Z</time>
      </trkpt>
      <trkpt lat="46.36886" lon="5.91491">
        <ele>902.2</ele>
        <time>2021-10-17T12:42:18Z</time>
      </trkpt>
      <trkpt lat="46.36888" lon="5.91488">
        <ele>902.6</ele>
        <time>2021-10-17T12:42:19Z</time>
      </trkpt>
      <trkpt lat="46.36889" lon="5.91485">
        <ele>902.6</ele>
        <time>2021-10-17T12:42:20Z</time>
      </trkpt>
      <trkpt lat="46.36891" lon="5.91482">
        <ele>902.8</ele>
        <time>2021-10-17T12:42:21Z</time>
      </trkpt>
      <trkpt lat="46.36892" lon="5.91479">
        <ele>902.8</ele>
        <time>2021-10-17T12:42:22Z</time>
      </trkpt>
      <trkpt lat="46.36894" lon="5.91475">
        <ele>903.2</ele>
        <time>2021-10-17T12:42:23Z</time>
      </trkpt>
      <trkpt lat="46.36896" lon="5.91473">
        <ele>903.2</ele>
        <time>2021-10-17T12:42:24Z</time>
      </trkpt>
      <trkpt lat="46.36898" lon="5.9147">
        <ele>903.6</ele>
        <time>2021-10-17T12:42:25Z</time>
      </trkpt>
      <trkpt lat="46.36899" lon="5.91467">
        <ele>903.6</ele>
        <time>2021-10-17T12:42:26Z</time>
      </trkpt>
      <trkpt lat="46.36901" lon="5.91464">
        <ele>904</ele>
        <time>2021-10-17T12:42:27Z</time>
      </trkpt>
      <trkpt lat="46.36903" lon="5.91462">
        <ele>904</ele>
        <time>2021-10-17T12:42:28Z</time>
      </trkpt>
      <trkpt lat="46.36905" lon="5.91459">
        <ele>904</ele>
        <time>2021-10-17T12:42:29Z</time>
      </trkpt>
      <trkpt lat="46.36906" lon="5.91456">
        <ele>904.2</ele>
        <time>2021-10-17T12:42:30Z</time>
      </trkpt>
      <trkpt lat="46.36908" lon="5.91453">
        <ele>904.4</ele>
        <time>2021-10-17T12:42:31Z</time>
      </trkpt>
      <trkpt lat="46.3691" lon="5.9145">
        <ele>904.4</ele>
        <time>2021-10-17T12:42:32Z</time>
      </trkpt>
      <trkpt lat="46.36912" lon="5.91447">
        <ele>904.6</ele>
        <time>2021-10-17T12:42:33Z</time>
      </trkpt>
      <trkpt lat="46.36913" lon="5.91445">
        <ele>904.6</ele>
        <time>2021-10-17T12:42:34Z</time>
      </trkpt>
      <trkpt lat="46.36915" lon="5.91442">
        <ele>905.2</ele>
        <time>2021-10-17T12:42:35Z</time>
      </trkpt>
      <trkpt lat="46.36916" lon="5.91439">
        <ele>905.2</ele>
        <time>2021-10-17T12:42:36Z</time>
      </trkpt>
      <trkpt lat="46.36917" lon="5.91435">
        <ele>905.6</ele>
        <time>2021-10-17T12:42:37Z</time>
      </trkpt>
      <trkpt lat="46.36918" lon="5.91432">
        <ele>905.6</ele>
        <time>2021-10-17T12:42:38Z</time>
      </trkpt>
      <trkpt lat="46.3692" lon="5.91429">
        <ele>905.8</ele>
        <time>2021-10-17T12:42:39Z</time>
      </trkpt>
      <trkpt lat="46.36921" lon="5.91425">
        <ele>905.8</ele>
        <time>2021-10-17T12:42:40Z</time>
      </trkpt>
      <trkpt lat="46.36921" lon="5.91422">
        <ele>906.2</ele>
        <time>2021-10-17T12:42:41Z</time>
      </trkpt>
      <trkpt lat="46.36922" lon="5.91419">
        <ele>906.4</ele>
        <time>2021-10-17T12:42:42Z</time>
      </trkpt>
      <trkpt lat="46.36923" lon="5.91415">
        <ele>906.4</ele>
        <time>2021-10-17T12:42:43Z</time>
      </trkpt>
      <trkpt lat="46.36923" lon="5.91411">
        <ele>906.8</ele>
        <time>2021-10-17T12:42:44Z</time>
      </trkpt>
      <trkpt lat="46.36924" lon="5.91408">
        <ele>907</ele>
        <time>2021-10-17T12:42:45Z</time>
      </trkpt>
      <trkpt lat="46.36925" lon="5.91404">
        <ele>907</ele>
        <time>2021-10-17T12:42:46Z</time>
      </trkpt>
      <trkpt lat="46.36926" lon="5.914">
        <ele>907.2</ele>
        <time>2021-10-17T12:42:47Z</time>
      </trkpt>
      <trkpt lat="46.36926" lon="5.91396">
        <ele>907.2</ele>
        <time>2021-10-17T12:42:48Z</time>
      </trkpt>
      <trkpt lat="46.36926" lon="5.91392">
        <ele>907.6</ele>
        <time>2021-10-17T12:42:49Z</time>
      </trkpt>
      <trkpt lat="46.36926" lon="5.91387">
        <ele>907.6</ele>
        <time>2021-10-17T12:42:50Z</time>
      </trkpt>
      <trkpt lat="46.36925" lon="5.91383">
        <ele>907.8</ele>
        <time>2021-10-17T12:42:51Z</time>
      </trkpt>
      <trkpt lat="46.36924" lon="5.91379">
        <ele>907.8</ele>
        <time>2021-10-17T12:42:52Z</time>
      </trkpt>
      <trkpt lat="46.36922" lon="5.91376">
        <ele>908</ele>
        <time>2021-10-17T12:42:53Z</time>
      </trkpt>
      <trkpt lat="46.3692" lon="5.91373">
        <ele>908</ele>
        <time>2021-10-17T12:42:54Z</time>
      </trkpt>
      <trkpt lat="46.36919" lon="5.9137">
        <ele>908</ele>
        <time>2021-10-17T12:42:55Z</time>
      </trkpt>
      <trkpt lat="46.36917" lon="5.91366">
        <ele>908</ele>
        <time>2021-10-17T12:42:56Z</time>
      </trkpt>
      <trkpt lat="46.36915" lon="5.91363">
        <ele>908.2</ele>
        <time>2021-10-17T12:42:57Z</time>
      </trkpt>
      <trkpt lat="46.36913" lon="5.9136">
        <ele>908.2</ele>
        <time>2021-10-17T12:42:58Z</time>
      </trkpt>
      <trkpt lat="46.36911" lon="5.91356">
        <ele>908.4</ele>
        <time>2021-10-17T12:42:59Z</time>
      </trkpt>
      <trkpt lat="46.36909" lon="5.91353">
        <ele>908.4</ele>
        <time>2021-10-17T12:43:00Z</time>
      </trkpt>
      <trkpt lat="46.36908" lon="5.91349">
        <ele>908.8</ele>
        <time>2021-10-17T12:43:01Z</time>
      </trkpt>
      <trkpt lat="46.36906" lon="5.91346">
        <ele>908.8</ele>
        <time>2021-10-17T12:43:02Z</time>
      </trkpt>
      <trkpt lat="46.36905" lon="5.91343">
        <ele>908.8</ele>
        <time>2021-10-17T12:43:03Z</time>
      </trkpt>
      <trkpt lat="46.36903" lon="5.9134">
        <ele>909.2</ele>
        <time>2021-10-17T12:43:04Z</time>
      </trkpt>
      <trkpt lat="46.36901" lon="5.91336">
        <ele>909.2</ele>
        <time>2021-10-17T12:43:05Z</time>
      </trkpt>
      <trkpt lat="46.36899" lon="5.91333">
        <ele>909.4</ele>
        <time>2021-10-17T12:43:06Z</time>
      </trkpt>
      <trkpt lat="46.36897" lon="5.9133">
        <ele>909.4</ele>
        <time>2021-10-17T12:43:07Z</time>
      </trkpt>
      <trkpt lat="46.36895" lon="5.91327">
        <ele>909.6</ele>
        <time>2021-10-17T12:43:08Z</time>
      </trkpt>
      <trkpt lat="46.36894" lon="5.91324">
        <ele>909.6</ele>
        <time>2021-10-17T12:43:09Z</time>
      </trkpt>
      <trkpt lat="46.36892" lon="5.9132">
        <ele>910</ele>
        <time>2021-10-17T12:43:10Z</time>
      </trkpt>
      <trkpt lat="46.3689" lon="5.91318">
        <ele>910</ele>
        <time>2021-10-17T12:43:11Z</time>
      </trkpt>
      <trkpt lat="46.36889" lon="5.91315">
        <ele>910.2</ele>
        <time>2021-10-17T12:43:12Z</time>
      </trkpt>
      <trkpt lat="46.36887" lon="5.91312">
        <ele>910.2</ele>
        <time>2021-10-17T12:43:13Z</time>
      </trkpt>
      <trkpt lat="46.36886" lon="5.91309">
        <ele>910.6</ele>
        <time>2021-10-17T12:43:14Z</time>
      </trkpt>
      <trkpt lat="46.36884" lon="5.91305">
        <ele>910.6</ele>
        <time>2021-10-17T12:43:15Z</time>
      </trkpt>
      <trkpt lat="46.36883" lon="5.91302">
        <ele>911</ele>
        <time>2021-10-17T12:43:16Z</time>
      </trkpt>
      <trkpt lat="46.36881" lon="5.91299">
        <ele>911.2</ele>
        <time>2021-10-17T12:43:17Z</time>
      </trkpt>
      <trkpt lat="46.3688" lon="5.91296">
        <ele>911.4</ele>
        <time>2021-10-17T12:43:18Z</time>
      </trkpt>
      <trkpt lat="46.36878" lon="5.91293">
        <ele>911.4</ele>
        <time>2021-10-17T12:43:19Z</time>
      </trkpt>
      <trkpt lat="46.36876" lon="5.9129">
        <ele>911.8</ele>
        <time>2021-10-17T12:43:20Z</time>
      </trkpt>
      <trkpt lat="46.36875" lon="5.91287">
        <ele>911.8</ele>
        <time>2021-10-17T12:43:21Z</time>
      </trkpt>
      <trkpt lat="46.36873" lon="5.91284">
        <ele>912.2</ele>
        <time>2021-10-17T12:43:22Z</time>
      </trkpt>
      <trkpt lat="46.36871" lon="5.91281">
        <ele>912.2</ele>
        <time>2021-10-17T12:43:23Z</time>
      </trkpt>
      <trkpt lat="46.36869" lon="5.91277">
        <ele>912.6</ele>
        <time>2021-10-17T12:43:24Z</time>
      </trkpt>
      <trkpt lat="46.36868" lon="5.91274">
        <ele>912.6</ele>
        <time>2021-10-17T12:43:25Z</time>
      </trkpt>
      <trkpt lat="46.36866" lon="5.91271">
        <ele>913</ele>
        <time>2021-10-17T12:43:26Z</time>
      </trkpt>
      <trkpt lat="46.36865" lon="5.91268">
        <ele>913.2</ele>
        <time>2021-10-17T12:43:27Z</time>
      </trkpt>
      <trkpt lat="46.36863" lon="5.91265">
        <ele>913.4</ele>
        <time>2021-10-17T12:43:28Z</time>
      </trkpt>
      <trkpt lat="46.36862" lon="5.91261">
        <ele>913.6</ele>
        <time>2021-10-17T12:43:29Z</time>
      </trkpt>
      <trkpt lat="46.3686" lon="5.91258">
        <ele>913.6</ele>
        <time>2021-10-17T12:43:30Z</time>
      </trkpt>
      <trkpt lat="46.36858" lon="5.91255">
        <ele>913.8</ele>
        <time>2021-10-17T12:43:31Z</time>
      </trkpt>
      <trkpt lat="46.36856" lon="5.91252">
        <ele>913.8</ele>
        <time>2021-10-17T12:43:32Z</time>
      </trkpt>
      <trkpt lat="46.36855" lon="5.91248">
        <ele>914.2</ele>
        <time>2021-10-17T12:43:33Z</time>
      </trkpt>
      <trkpt lat="46.36853" lon="5.91245">
        <ele>914.4</ele>
        <time>2021-10-17T12:43:34Z</time>
      </trkpt>
      <trkpt lat="46.36851" lon="5.91242">
        <ele>914.6</ele>
        <time>2021-10-17T12:43:35Z</time>
      </trkpt>
      <trkpt lat="46.3685" lon="5.91238">
        <ele>914.6</ele>
        <time>2021-10-17T12:43:36Z</time>
      </trkpt>
      <trkpt lat="46.36848" lon="5.91235">
        <ele>915</ele>
        <time>2021-10-17T12:43:37Z</time>
      </trkpt>
      <trkpt lat="46.36846" lon="5.91232">
        <ele>915</ele>
        <time>2021-10-17T12:43:38Z</time>
      </trkpt>
      <trkpt lat="46.36844" lon="5.91229">
        <ele>915.4</ele>
        <time>2021-10-17T12:43:39Z</time>
      </trkpt>
      <trkpt lat="46.36843" lon="5.91226">
        <ele>915.4</ele>
        <time>2021-10-17T12:43:40Z</time>
      </trkpt>
      <trkpt lat="46.36841" lon="5.91223">
        <ele>915.6</ele>
        <time>2021-10-17T12:43:41Z</time>
      </trkpt>
      <trkpt lat="46.36839" lon="5.91221">
        <ele>915.6</ele>
        <time>2021-10-17T12:43:42Z</time>
      </trkpt>
      <trkpt lat="46.36837" lon="5.91218">
        <ele>916</ele>
        <time>2021-10-17T12:43:43Z</time>
      </trkpt>
      <trkpt lat="46.36835" lon="5.91215">
        <ele>916.2</ele>
        <time>2021-10-17T12:43:44Z</time>
      </trkpt>
      <trkpt lat="46.36833" lon="5.91212">
        <ele>916.4</ele>
        <time>2021-10-17T12:43:45Z</time>
      </trkpt>
      <trkpt lat="46.36832" lon="5.91209">
        <ele>916.4</ele>
        <time>2021-10-17T12:43:46Z</time>
      </trkpt>
      <trkpt lat="46.3683" lon="5.91206">
        <ele>916.8</ele>
        <time>2021-10-17T12:43:47Z</time>
      </trkpt>
      <trkpt lat="46.36828" lon="5.91202">
        <ele>916.8</ele>
        <time>2021-10-17T12:43:48Z</time>
      </trkpt>
      <trkpt lat="46.36827" lon="5.91199">
        <ele>917.2</ele>
        <time>2021-10-17T12:43:49Z</time>
      </trkpt>
      <trkpt lat="46.36825" lon="5.91196">
        <ele>917.2</ele>
        <time>2021-10-17T12:43:50Z</time>
      </trkpt>
      <trkpt lat="46.36824" lon="5.91192">
        <ele>917.4</ele>
        <time>2021-10-17T12:43:51Z</time>
      </trkpt>
      <trkpt lat="46.36823" lon="5.91189">
        <ele>917.4</ele>
        <time>2021-10-17T12:43:52Z</time>
      </trkpt>
      <trkpt lat="46.36821" lon="5.91185">
        <ele>917.8</ele>
        <time>2021-10-17T12:43:53Z</time>
      </trkpt>
      <trkpt lat="46.3682" lon="5.91182">
        <ele>917.8</ele>
        <time>2021-10-17T12:43:54Z</time>
      </trkpt>
      <trkpt lat="46.36818" lon="5.91179">
        <ele>918.2</ele>
        <time>2021-10-17T12:43:55Z</time>
      </trkpt>
      <trkpt lat="46.36817" lon="5.91176">
        <ele>918.4</ele>
        <time>2021-10-17T12:43:56Z</time>
      </trkpt>
      <trkpt lat="46.36815" lon="5.91172">
        <ele>918.4</ele>
        <time>2021-10-17T12:43:57Z</time>
      </trkpt>
      <trkpt lat="46.36813" lon="5.91169">
        <ele>918.8</ele>
        <time>2021-10-17T12:43:58Z</time>
      </trkpt>
      <trkpt lat="46.36812" lon="5.91166">
        <ele>918.8</ele>
        <time>2021-10-17T12:43:59Z</time>
      </trkpt>
      <trkpt lat="46.3681" lon="5.91164">
        <ele>919</ele>
        <time>2021-10-17T12:44:00Z</time>
      </trkpt>
      <trkpt lat="46.36808" lon="5.91161">
        <ele>919.2</ele>
        <time>2021-10-17T12:44:01Z</time>
      </trkpt>
      <trkpt lat="46.36807" lon="5.91158">
        <ele>919.2</ele>
        <time>2021-10-17T12:44:02Z</time>
      </trkpt>
      <trkpt lat="46.36805" lon="5.91155">
        <ele>919.6</ele>
        <time>2021-10-17T12:44:03Z</time>
      </trkpt>
      <trkpt lat="46.36803" lon="5.91152">
        <ele>919.6</ele>
        <time>2021-10-17T12:44:04Z</time>
      </trkpt>
      <trkpt lat="46.36801" lon="5.91149">
        <ele>919.8</ele>
        <time>2021-10-17T12:44:05Z</time>
      </trkpt>
      <trkpt lat="46.36799" lon="5.91146">
        <ele>919.8</ele>
        <time>2021-10-17T12:44:06Z</time>
      </trkpt>
      <trkpt lat="46.36799" lon="5.91146">
        <ele>920</ele>
        <time>2021-10-17T12:44:07Z</time>
      </trkpt>
      <trkpt lat="46.36796" lon="5.91141">
        <ele>920.2</ele>
        <time>2021-10-17T12:44:08Z</time>
      </trkpt>
      <trkpt lat="46.36794" lon="5.91138">
        <ele>920.6</ele>
        <time>2021-10-17T12:44:09Z</time>
      </trkpt>
      <trkpt lat="46.36794" lon="5.91138">
        <ele>920.8</ele>
        <time>2021-10-17T12:44:10Z</time>
      </trkpt>
      <trkpt lat="46.36792" lon="5.91136">
        <ele>921</ele>
        <time>2021-10-17T12:44:11Z</time>
      </trkpt>
      <trkpt lat="46.3679" lon="5.91133">
        <ele>921.2</ele>
        <time>2021-10-17T12:44:12Z</time>
      </trkpt>
      <trkpt lat="46.36788" lon="5.9113">
        <ele>921.4</ele>
        <time>2021-10-17T12:44:13Z</time>
      </trkpt>
      <trkpt lat="46.36786" lon="5.91128">
        <ele>921.4</ele>
        <time>2021-10-17T12:44:14Z</time>
      </trkpt>
      <trkpt lat="46.36784" lon="5.91125">
        <ele>921.8</ele>
        <time>2021-10-17T12:44:15Z</time>
      </trkpt>
      <trkpt lat="46.36782" lon="5.91122">
        <ele>921.8</ele>
        <time>2021-10-17T12:44:16Z</time>
      </trkpt>
      <trkpt lat="46.3678" lon="5.91119">
        <ele>921.8</ele>
        <time>2021-10-17T12:44:17Z</time>
      </trkpt>
      <trkpt lat="46.36778" lon="5.91117">
        <ele>922</ele>
        <time>2021-10-17T12:44:18Z</time>
      </trkpt>
      <trkpt lat="46.36776" lon="5.91114">
        <ele>922.4</ele>
        <time>2021-10-17T12:44:19Z</time>
      </trkpt>
      <trkpt lat="46.36774" lon="5.91112">
        <ele>922.4</ele>
        <time>2021-10-17T12:44:20Z</time>
      </trkpt>
      <trkpt lat="46.36772" lon="5.91109">
        <ele>922.4</ele>
        <time>2021-10-17T12:44:21Z</time>
      </trkpt>
      <trkpt lat="46.3677" lon="5.91106">
        <ele>922.6</ele>
        <time>2021-10-17T12:44:22Z</time>
      </trkpt>
      <trkpt lat="46.36767" lon="5.91104">
        <ele>922.6</ele>
        <time>2021-10-17T12:44:23Z</time>
      </trkpt>
      <trkpt lat="46.36765" lon="5.91101">
        <ele>923</ele>
        <time>2021-10-17T12:44:24Z</time>
      </trkpt>
      <trkpt lat="46.36763" lon="5.91099">
        <ele>923</ele>
        <time>2021-10-17T12:44:25Z</time>
      </trkpt>
      <trkpt lat="46.3676" lon="5.91096">
        <ele>923.4</ele>
        <time>2021-10-17T12:44:26Z</time>
      </trkpt>
      <trkpt lat="46.36758" lon="5.91094">
        <ele>923.4</ele>
        <time>2021-10-17T12:44:27Z</time>
      </trkpt>
      <trkpt lat="46.36755" lon="5.91091">
        <ele>923.4</ele>
        <time>2021-10-17T12:44:28Z</time>
      </trkpt>
      <trkpt lat="46.36752" lon="5.91089">
        <ele>923.6</ele>
        <time>2021-10-17T12:44:29Z</time>
      </trkpt>
      <trkpt lat="46.36749" lon="5.91086">
        <ele>923.6</ele>
        <time>2021-10-17T12:44:30Z</time>
      </trkpt>
      <trkpt lat="46.36747" lon="5.91084">
        <ele>923.6</ele>
        <time>2021-10-17T12:44:31Z</time>
      </trkpt>
      <trkpt lat="46.36744" lon="5.91082">
        <ele>923.8</ele>
        <time>2021-10-17T12:44:32Z</time>
      </trkpt>
      <trkpt lat="46.3674" lon="5.91079">
        <ele>923.8</ele>
        <time>2021-10-17T12:44:33Z</time>
      </trkpt>
      <trkpt lat="46.36737" lon="5.91077">
        <ele>923.8</ele>
        <time>2021-10-17T12:44:34Z</time>
      </trkpt>
      <trkpt lat="46.36734" lon="5.91074">
        <ele>924</ele>
        <time>2021-10-17T12:44:35Z</time>
      </trkpt>
      <trkpt lat="46.36732" lon="5.91072">
        <ele>924</ele>
        <time>2021-10-17T12:44:36Z</time>
      </trkpt>
      <trkpt lat="46.36729" lon="5.91069">
        <ele>924</ele>
        <time>2021-10-17T12:44:37Z</time>
      </trkpt>
      <trkpt lat="46.36726" lon="5.91066">
        <ele>924.4</ele>
        <time>2021-10-17T12:44:38Z</time>
      </trkpt>
      <trkpt lat="46.36724" lon="5.91062">
        <ele>924.4</ele>
        <time>2021-10-17T12:44:39Z</time>
      </trkpt>
      <trkpt lat="46.36722" lon="5.91059">
        <ele>924.6</ele>
        <time>2021-10-17T12:44:40Z</time>
      </trkpt>
      <trkpt lat="46.36721" lon="5.91054">
        <ele>924.6</ele>
        <time>2021-10-17T12:44:41Z</time>
      </trkpt>
      <trkpt lat="46.36721" lon="5.9105">
        <ele>925</ele>
        <time>2021-10-17T12:44:42Z</time>
      </trkpt>
      <trkpt lat="46.3672" lon="5.91046">
        <ele>925</ele>
        <time>2021-10-17T12:44:43Z</time>
      </trkpt>
      <trkpt lat="46.36721" lon="5.91042">
        <ele>925.4</ele>
        <time>2021-10-17T12:44:44Z</time>
      </trkpt>
      <trkpt lat="46.36722" lon="5.91038">
        <ele>925.4</ele>
        <time>2021-10-17T12:44:45Z</time>
      </trkpt>
      <trkpt lat="46.36724" lon="5.91035">
        <ele>925.8</ele>
        <time>2021-10-17T12:44:46Z</time>
      </trkpt>
      <trkpt lat="46.36727" lon="5.91033">
        <ele>926</ele>
        <time>2021-10-17T12:44:47Z</time>
      </trkpt>
      <trkpt lat="46.36729" lon="5.91031">
        <ele>926</ele>
        <time>2021-10-17T12:44:48Z</time>
      </trkpt>
      <trkpt lat="46.36732" lon="5.9103">
        <ele>926.2</ele>
        <time>2021-10-17T12:44:49Z</time>
      </trkpt>
      <trkpt lat="46.36736" lon="5.9103">
        <ele>926.2</ele>
        <time>2021-10-17T12:44:50Z</time>
      </trkpt>
      <trkpt lat="46.36739" lon="5.91031">
        <ele>926.6</ele>
        <time>2021-10-17T12:44:51Z</time>
      </trkpt>
      <trkpt lat="46.36741" lon="5.91033">
        <ele>926.6</ele>
        <time>2021-10-17T12:44:52Z</time>
      </trkpt>
      <trkpt lat="46.36744" lon="5.91035">
        <ele>926.8</ele>
        <time>2021-10-17T12:44:53Z</time>
      </trkpt>
      <trkpt lat="46.36747" lon="5.91037">
        <ele>926.8</ele>
        <time>2021-10-17T12:44:54Z</time>
      </trkpt>
      <trkpt lat="46.3675" lon="5.91039">
        <ele>927</ele>
        <time>2021-10-17T12:44:55Z</time>
      </trkpt>
      <trkpt lat="46.36752" lon="5.91042">
        <ele>927</ele>
        <time>2021-10-17T12:44:56Z</time>
      </trkpt>
      <trkpt lat="46.36755" lon="5.91044">
        <ele>927.4</ele>
        <time>2021-10-17T12:44:57Z</time>
      </trkpt>
      <trkpt lat="46.36758" lon="5.91047">
        <ele>927.4</ele>
        <time>2021-10-17T12:44:58Z</time>
      </trkpt>
      <trkpt lat="46.36761" lon="5.91049">
        <ele>927.6</ele>
        <time>2021-10-17T12:44:59Z</time>
      </trkpt>
      <trkpt lat="46.36763" lon="5.91052">
        <ele>927.6</ele>
        <time>2021-10-17T12:45:00Z</time>
      </trkpt>
      <trkpt lat="46.36766" lon="5.91055">
        <ele>928</ele>
        <time>2021-10-17T12:45:01Z</time>
      </trkpt>
      <trkpt lat="46.36769" lon="5.91057">
        <ele>928</ele>
        <time>2021-10-17T12:45:02Z</time>
      </trkpt>
      <trkpt lat="46.36772" lon="5.91059">
        <ele>928</ele>
        <time>2021-10-17T12:45:03Z</time>
      </trkpt>
      <trkpt lat="46.36775" lon="5.91062">
        <ele>928.4</ele>
        <time>2021-10-17T12:45:04Z</time>
      </trkpt>
      <trkpt lat="46.36778" lon="5.91064">
        <ele>928.4</ele>
        <time>2021-10-17T12:45:05Z</time>
      </trkpt>
      <trkpt lat="46.3678" lon="5.91067">
        <ele>928.6</ele>
        <time>2021-10-17T12:45:06Z</time>
      </trkpt>
      <trkpt lat="46.36783" lon="5.9107">
        <ele>928.6</ele>
        <time>2021-10-17T12:45:07Z</time>
      </trkpt>
      <trkpt lat="46.36786" lon="5.91073">
        <ele>928.6</ele>
        <time>2021-10-17T12:45:08Z</time>
      </trkpt>
      <trkpt lat="46.36789" lon="5.91076">
        <ele>929</ele>
        <time>2021-10-17T12:45:09Z</time>
      </trkpt>
      <trkpt lat="46.36792" lon="5.91078">
        <ele>929.2</ele>
        <time>2021-10-17T12:45:10Z</time>
      </trkpt>
      <trkpt lat="46.36795" lon="5.91081">
        <ele>929.2</ele>
        <time>2021-10-17T12:45:11Z</time>
      </trkpt>
      <trkpt lat="46.36798" lon="5.91084">
        <ele>929.6</ele>
        <time>2021-10-17T12:45:12Z</time>
      </trkpt>
      <trkpt lat="46.36801" lon="5.91086">
        <ele>929.6</ele>
        <time>2021-10-17T12:45:13Z</time>
      </trkpt>
      <trkpt lat="46.36803" lon="5.91088">
        <ele>930</ele>
        <time>2021-10-17T12:45:14Z</time>
      </trkpt>
      <trkpt lat="46.36806" lon="5.9109">
        <ele>930.2</ele>
        <time>2021-10-17T12:45:15Z</time>
      </trkpt>
      <trkpt lat="46.36809" lon="5.91091">
        <ele>930.2</ele>
        <time>2021-10-17T12:45:16Z</time>
      </trkpt>
      <trkpt lat="46.36812" lon="5.91093">
        <ele>930.6</ele>
        <time>2021-10-17T12:45:17Z</time>
      </trkpt>
      <trkpt lat="46.36815" lon="5.91094">
        <ele>930.6</ele>
        <time>2021-10-17T12:45:18Z</time>
      </trkpt>
      <trkpt lat="46.36819" lon="5.91095">
        <ele>930.6</ele>
        <time>2021-10-17T12:45:19Z</time>
      </trkpt>
      <trkpt lat="46.36822" lon="5.91096">
        <ele>931</ele>
        <time>2021-10-17T12:45:20Z</time>
      </trkpt>
      <trkpt lat="46.36825" lon="5.91097">
        <ele>931.2</ele>
        <time>2021-10-17T12:45:21Z</time>
      </trkpt>
      <trkpt lat="46.36828" lon="5.91098">
        <ele>931.2</ele>
        <time>2021-10-17T12:45:22Z</time>
      </trkpt>
      <trkpt lat="46.36831" lon="5.91099">
        <ele>931.4</ele>
        <time>2021-10-17T12:45:23Z</time>
      </trkpt>
      <trkpt lat="46.36834" lon="5.91099">
        <ele>931.4</ele>
        <time>2021-10-17T12:45:24Z</time>
      </trkpt>
      <trkpt lat="46.36837" lon="5.911">
        <ele>931.8</ele>
        <time>2021-10-17T12:45:25Z</time>
      </trkpt>
      <trkpt lat="46.3684" lon="5.91101">
        <ele>931.8</ele>
        <time>2021-10-17T12:45:26Z</time>
      </trkpt>
      <trkpt lat="46.36843" lon="5.91102">
        <ele>932</ele>
        <time>2021-10-17T12:45:27Z</time>
      </trkpt>
      <trkpt lat="46.36846" lon="5.91102">
        <ele>932</ele>
        <time>2021-10-17T12:45:28Z</time>
      </trkpt>
      <trkpt lat="46.36849" lon="5.91103">
        <ele>932.2</ele>
        <time>2021-10-17T12:45:29Z</time>
      </trkpt>
      <trkpt lat="46.36852" lon="5.91103">
        <ele>932.2</ele>
        <time>2021-10-17T12:45:30Z</time>
      </trkpt>
      <trkpt lat="46.36854" lon="5.91104">
        <ele>932.4</ele>
        <time>2021-10-17T12:45:31Z</time>
      </trkpt>
      <trkpt lat="46.36857" lon="5.91104">
        <ele>932.4</ele>
        <time>2021-10-17T12:45:32Z</time>
      </trkpt>
      <trkpt lat="46.3686" lon="5.91105">
        <ele>932.8</ele>
        <time>2021-10-17T12:45:33Z</time>
      </trkpt>
      <trkpt lat="46.36863" lon="5.91105">
        <ele>933</ele>
        <time>2021-10-17T12:45:34Z</time>
      </trkpt>
      <trkpt lat="46.36865" lon="5.91106">
        <ele>933.2</ele>
        <time>2021-10-17T12:45:35Z</time>
      </trkpt>
      <trkpt lat="46.36868" lon="5.91107">
        <ele>933.4</ele>
        <time>2021-10-17T12:45:36Z</time>
      </trkpt>
      <trkpt lat="46.3687" lon="5.91107">
        <ele>933.4</ele>
        <time>2021-10-17T12:45:37Z</time>
      </trkpt>
      <trkpt lat="46.36873" lon="5.91108">
        <ele>933.8</ele>
        <time>2021-10-17T12:45:38Z</time>
      </trkpt>
      <trkpt lat="46.36876" lon="5.91108">
        <ele>933.8</ele>
        <time>2021-10-17T12:45:39Z</time>
      </trkpt>
      <trkpt lat="46.36879" lon="5.91109">
        <ele>934</ele>
        <time>2021-10-17T12:45:40Z</time>
      </trkpt>
      <trkpt lat="46.36882" lon="5.91109">
        <ele>934</ele>
        <time>2021-10-17T12:45:41Z</time>
      </trkpt>
      <trkpt lat="46.36885" lon="5.9111">
        <ele>934.4</ele>
        <time>2021-10-17T12:45:42Z</time>
      </trkpt>
      <trkpt lat="46.36887" lon="5.9111">
        <ele>934.6</ele>
        <time>2021-10-17T12:45:43Z</time>
      </trkpt>
      <trkpt lat="46.3689" lon="5.91111">
        <ele>934.6</ele>
        <time>2021-10-17T12:45:44Z</time>
      </trkpt>
      <trkpt lat="46.36893" lon="5.91112">
        <ele>934.8</ele>
        <time>2021-10-17T12:45:45Z</time>
      </trkpt>
      <trkpt lat="46.36895" lon="5.91113">
        <ele>934.8</ele>
        <time>2021-10-17T12:45:46Z</time>
      </trkpt>
      <trkpt lat="46.36898" lon="5.91114">
        <ele>935.2</ele>
        <time>2021-10-17T12:45:47Z</time>
      </trkpt>
      <trkpt lat="46.369" lon="5.91116">
        <ele>935.2</ele>
        <time>2021-10-17T12:45:48Z</time>
      </trkpt>
      <trkpt lat="46.36903" lon="5.91117">
        <ele>935.6</ele>
        <time>2021-10-17T12:45:49Z</time>
      </trkpt>
      <trkpt lat="46.36905" lon="5.91119">
        <ele>935.6</ele>
        <time>2021-10-17T12:45:50Z</time>
      </trkpt>
      <trkpt lat="46.36908" lon="5.91121">
        <ele>935.8</ele>
        <time>2021-10-17T12:45:51Z</time>
      </trkpt>
      <trkpt lat="46.3691" lon="5.91123">
        <ele>935.8</ele>
        <time>2021-10-17T12:45:52Z</time>
      </trkpt>
      <trkpt lat="46.36912" lon="5.91125">
        <ele>936</ele>
        <time>2021-10-17T12:45:53Z</time>
      </trkpt>
      <trkpt lat="46.36914" lon="5.91127">
        <ele>936</ele>
        <time>2021-10-17T12:45:54Z</time>
      </trkpt>
      <trkpt lat="46.36917" lon="5.9113">
        <ele>936</ele>
        <time>2021-10-17T12:45:55Z</time>
      </trkpt>
      <trkpt lat="46.36919" lon="5.91132">
        <ele>936.4</ele>
        <time>2021-10-17T12:45:56Z</time>
      </trkpt>
      <trkpt lat="46.36922" lon="5.91135">
        <ele>936.4</ele>
        <time>2021-10-17T12:45:57Z</time>
      </trkpt>
      <trkpt lat="46.36924" lon="5.91138">
        <ele>936.6</ele>
        <time>2021-10-17T12:45:58Z</time>
      </trkpt>
      <trkpt lat="46.36927" lon="5.9114">
        <ele>936.8</ele>
        <time>2021-10-17T12:45:59Z</time>
      </trkpt>
      <trkpt lat="46.36929" lon="5.91142">
        <ele>936.8</ele>
        <time>2021-10-17T12:46:00Z</time>
      </trkpt>
      <trkpt lat="46.36931" lon="5.91145">
        <ele>937.2</ele>
        <time>2021-10-17T12:46:01Z</time>
      </trkpt>
      <trkpt lat="46.36934" lon="5.91147">
        <ele>937.2</ele>
        <time>2021-10-17T12:46:02Z</time>
      </trkpt>
      <trkpt lat="46.36936" lon="5.91148">
        <ele>937.6</ele>
        <time>2021-10-17T12:46:03Z</time>
      </trkpt>
      <trkpt lat="46.36939" lon="5.9115">
        <ele>937.6</ele>
        <time>2021-10-17T12:46:04Z</time>
      </trkpt>
      <trkpt lat="46.36941" lon="5.91153">
        <ele>938</ele>
        <time>2021-10-17T12:46:05Z</time>
      </trkpt>
      <trkpt lat="46.36943" lon="5.91155">
        <ele>938</ele>
        <time>2021-10-17T12:46:06Z</time>
      </trkpt>
      <trkpt lat="46.36945" lon="5.91157">
        <ele>938.2</ele>
        <time>2021-10-17T12:46:07Z</time>
      </trkpt>
      <trkpt lat="46.36947" lon="5.91159">
        <ele>938.2</ele>
        <time>2021-10-17T12:46:08Z</time>
      </trkpt>
      <trkpt lat="46.3695" lon="5.91161">
        <ele>938.4</ele>
        <time>2021-10-17T12:46:09Z</time>
      </trkpt>
      <trkpt lat="46.36952" lon="5.91163">
        <ele>938.4</ele>
        <time>2021-10-17T12:46:10Z</time>
      </trkpt>
      <trkpt lat="46.36955" lon="5.91166">
        <ele>938.8</ele>
        <time>2021-10-17T12:46:11Z</time>
      </trkpt>
      <trkpt lat="46.36958" lon="5.91168">
        <ele>938.8</ele>
        <time>2021-10-17T12:46:12Z</time>
      </trkpt>
      <trkpt lat="46.3696" lon="5.91169">
        <ele>939</ele>
        <time>2021-10-17T12:46:13Z</time>
      </trkpt>
      <trkpt lat="46.36963" lon="5.91171">
        <ele>939</ele>
        <time>2021-10-17T12:46:14Z</time>
      </trkpt>
      <trkpt lat="46.36966" lon="5.91172">
        <ele>939.4</ele>
        <time>2021-10-17T12:46:15Z</time>
      </trkpt>
      <trkpt lat="46.36969" lon="5.91173">
        <ele>939.4</ele>
        <time>2021-10-17T12:46:16Z</time>
      </trkpt>
      <trkpt lat="46.36972" lon="5.91175">
        <ele>939.8</ele>
        <time>2021-10-17T12:46:17Z</time>
      </trkpt>
      <trkpt lat="46.36974" lon="5.91176">
        <ele>940</ele>
        <time>2021-10-17T12:46:18Z</time>
      </trkpt>
      <trkpt lat="46.36977" lon="5.91178">
        <ele>940</ele>
        <time>2021-10-17T12:46:19Z</time>
      </trkpt>
      <trkpt lat="46.3698" lon="5.91179">
        <ele>940.4</ele>
        <time>2021-10-17T12:46:20Z</time>
      </trkpt>
      <trkpt lat="46.36983" lon="5.91181">
        <ele>940.4</ele>
        <time>2021-10-17T12:46:21Z</time>
      </trkpt>
      <trkpt lat="46.36986" lon="5.91182">
        <ele>940.6</ele>
        <time>2021-10-17T12:46:22Z</time>
      </trkpt>
      <trkpt lat="46.36989" lon="5.91183">
        <ele>940.6</ele>
        <time>2021-10-17T12:46:23Z</time>
      </trkpt>
      <trkpt lat="46.36992" lon="5.91184">
        <ele>941</ele>
        <time>2021-10-17T12:46:24Z</time>
      </trkpt>
      <trkpt lat="46.36995" lon="5.91184">
        <ele>941</ele>
        <time>2021-10-17T12:46:25Z</time>
      </trkpt>
      <trkpt lat="46.36998" lon="5.91185">
        <ele>941.2</ele>
        <time>2021-10-17T12:46:26Z</time>
      </trkpt>
      <trkpt lat="46.37001" lon="5.91186">
        <ele>941.2</ele>
        <time>2021-10-17T12:46:27Z</time>
      </trkpt>
      <trkpt lat="46.37004" lon="5.91187">
        <ele>941.2</ele>
        <time>2021-10-17T12:46:28Z</time>
      </trkpt>
      <trkpt lat="46.37007" lon="5.91188">
        <ele>941.6</ele>
        <time>2021-10-17T12:46:29Z</time>
      </trkpt>
      <trkpt lat="46.3701" lon="5.91189">
        <ele>941.6</ele>
        <time>2021-10-17T12:46:30Z</time>
      </trkpt>
      <trkpt lat="46.37013" lon="5.91191">
        <ele>942</ele>
        <time>2021-10-17T12:46:31Z</time>
      </trkpt>
      <trkpt lat="46.37017" lon="5.91192">
        <ele>942</ele>
        <time>2021-10-17T12:46:32Z</time>
      </trkpt>
      <trkpt lat="46.3702" lon="5.91193">
        <ele>942.2</ele>
        <time>2021-10-17T12:46:33Z</time>
      </trkpt>
      <trkpt lat="46.37023" lon="5.91195">
        <ele>942.2</ele>
        <time>2021-10-17T12:46:34Z</time>
      </trkpt>
      <trkpt lat="46.37026" lon="5.91196">
        <ele>942.6</ele>
        <time>2021-10-17T12:46:35Z</time>
      </trkpt>
      <trkpt lat="46.37029" lon="5.91197">
        <ele>942.6</ele>
        <time>2021-10-17T12:46:36Z</time>
      </trkpt>
      <trkpt lat="46.37032" lon="5.91198">
        <ele>943</ele>
        <time>2021-10-17T12:46:37Z</time>
      </trkpt>
      <trkpt lat="46.37035" lon="5.91199">
        <ele>943.2</ele>
        <time>2021-10-17T12:46:38Z</time>
      </trkpt>
      <trkpt lat="46.37038" lon="5.912">
        <ele>943.4</ele>
        <time>2021-10-17T12:46:39Z</time>
      </trkpt>
      <trkpt lat="46.3704" lon="5.91202">
        <ele>943.6</ele>
        <time>2021-10-17T12:46:40Z</time>
      </trkpt>
      <trkpt lat="46.37043" lon="5.91204">
        <ele>943.6</ele>
        <time>2021-10-17T12:46:41Z</time>
      </trkpt>
      <trkpt lat="46.37045" lon="5.91207">
        <ele>944</ele>
        <time>2021-10-17T12:46:42Z</time>
      </trkpt>
      <trkpt lat="46.37047" lon="5.91209">
        <ele>944</ele>
        <time>2021-10-17T12:46:43Z</time>
      </trkpt>
      <trkpt lat="46.37049" lon="5.91212">
        <ele>944.2</ele>
        <time>2021-10-17T12:46:44Z</time>
      </trkpt>
      <trkpt lat="46.37051" lon="5.91214">
        <ele>944.2</ele>
        <time>2021-10-17T12:46:45Z</time>
      </trkpt>
      <trkpt lat="46.37053" lon="5.91217">
        <ele>944.6</ele>
        <time>2021-10-17T12:46:46Z</time>
      </trkpt>
      <trkpt lat="46.37055" lon="5.91221">
        <ele>944.6</ele>
        <time>2021-10-17T12:46:47Z</time>
      </trkpt>
      <trkpt lat="46.37057" lon="5.91224">
        <ele>944.8</ele>
        <time>2021-10-17T12:46:48Z</time>
      </trkpt>
      <trkpt lat="46.37058" lon="5.91228">
        <ele>944.8</ele>
        <time>2021-10-17T12:46:49Z</time>
      </trkpt>
      <trkpt lat="46.3706" lon="5.91232">
        <ele>945.2</ele>
        <time>2021-10-17T12:46:50Z</time>
      </trkpt>
      <trkpt lat="46.37062" lon="5.91235">
        <ele>945.2</ele>
        <time>2021-10-17T12:46:51Z</time>
      </trkpt>
      <trkpt lat="46.37063" lon="5.91239">
        <ele>945.4</ele>
        <time>2021-10-17T12:46:52Z</time>
      </trkpt>
      <trkpt lat="46.37065" lon="5.91243">
        <ele>945.4</ele>
        <time>2021-10-17T12:46:53Z</time>
      </trkpt>
      <trkpt lat="46.37066" lon="5.91247">
        <ele>945.6</ele>
        <time>2021-10-17T12:46:54Z</time>
      </trkpt>
      <trkpt lat="46.37067" lon="5.91251">
        <ele>945.6</ele>
        <time>2021-10-17T12:46:55Z</time>
      </trkpt>
      <trkpt lat="46.37069" lon="5.91255">
        <ele>946</ele>
        <time>2021-10-17T12:46:56Z</time>
      </trkpt>
      <trkpt lat="46.3707" lon="5.91258">
        <ele>946</ele>
        <time>2021-10-17T12:46:57Z</time>
      </trkpt>
      <trkpt lat="46.37072" lon="5.91262">
        <ele>946</ele>
        <time>2021-10-17T12:46:58Z</time>
      </trkpt>
      <trkpt lat="46.37074" lon="5.91267">
        <ele>946</ele>
        <time>2021-10-17T12:46:59Z</time>
      </trkpt>
      <trkpt lat="46.37075" lon="5.91271">
        <ele>946.2</ele>
        <time>2021-10-17T12:47:00Z</time>
      </trkpt>
      <trkpt lat="46.37077" lon="5.91276">
        <ele>946.2</ele>
        <time>2021-10-17T12:47:01Z</time>
      </trkpt>
      <trkpt lat="46.37079" lon="5.91281">
        <ele>946.4</ele>
        <time>2021-10-17T12:47:02Z</time>
      </trkpt>
      <trkpt lat="46.3708" lon="5.91286">
        <ele>946.4</ele>
        <time>2021-10-17T12:47:03Z</time>
      </trkpt>
      <trkpt lat="46.37082" lon="5.91291">
        <ele>946.4</ele>
        <time>2021-10-17T12:47:04Z</time>
      </trkpt>
      <trkpt lat="46.37084" lon="5.91297">
        <ele>946.4</ele>
        <time>2021-10-17T12:47:05Z</time>
      </trkpt>
      <trkpt lat="46.37087" lon="5.91302">
        <ele>946.4</ele>
        <time>2021-10-17T12:47:06Z</time>
      </trkpt>
      <trkpt lat="46.37089" lon="5.91308">
        <ele>946.4</ele>
        <time>2021-10-17T12:47:07Z</time>
      </trkpt>
      <trkpt lat="46.37092" lon="5.91314">
        <ele>946.4</ele>
        <time>2021-10-17T12:47:08Z</time>
      </trkpt>
      <trkpt lat="46.37094" lon="5.91319">
        <ele>946.4</ele>
        <time>2021-10-17T12:47:09Z</time>
      </trkpt>
      <trkpt lat="46.37097" lon="5.91325">
        <ele>946.4</ele>
        <time>2021-10-17T12:47:10Z</time>
      </trkpt>
      <trkpt lat="46.37099" lon="5.91331">
        <ele>946.4</ele>
        <time>2021-10-17T12:47:11Z</time>
      </trkpt>
      <trkpt lat="46.37102" lon="5.91337">
        <ele>946.4</ele>
        <time>2021-10-17T12:47:12Z</time>
      </trkpt>
      <trkpt lat="46.37105" lon="5.91344">
        <ele>946.4</ele>
        <time>2021-10-17T12:47:13Z</time>
      </trkpt>
      <trkpt lat="46.37107" lon="5.91352">
        <ele>946.4</ele>
        <time>2021-10-17T12:47:14Z</time>
      </trkpt>
      <trkpt lat="46.37109" lon="5.9136">
        <ele>946.4</ele>
        <time>2021-10-17T12:47:15Z</time>
      </trkpt>
      <trkpt lat="46.3711" lon="5.91368">
        <ele>946.4</ele>
        <time>2021-10-17T12:47:16Z</time>
      </trkpt>
      <trkpt lat="46.37112" lon="5.91375">
        <ele>946.4</ele>
        <time>2021-10-17T12:47:17Z</time>
      </trkpt>
      <trkpt lat="46.37113" lon="5.91383">
        <ele>946.4</ele>
        <time>2021-10-17T12:47:18Z</time>
      </trkpt>
      <trkpt lat="46.37113" lon="5.9139">
        <ele>946.6</ele>
        <time>2021-10-17T12:47:19Z</time>
      </trkpt>
      <trkpt lat="46.37114" lon="5.91397">
        <ele>946.6</ele>
        <time>2021-10-17T12:47:20Z</time>
      </trkpt>
      <trkpt lat="46.37115" lon="5.91404">
        <ele>946.6</ele>
        <time>2021-10-17T12:47:21Z</time>
      </trkpt>
      <trkpt lat="46.37116" lon="5.91411">
        <ele>946.6</ele>
        <time>2021-10-17T12:47:22Z</time>
      </trkpt>
      <trkpt lat="46.37117" lon="5.91418">
        <ele>946.6</ele>
        <time>2021-10-17T12:47:23Z</time>
      </trkpt>
      <trkpt lat="46.37118" lon="5.91425">
        <ele>946.6</ele>
        <time>2021-10-17T12:47:24Z</time>
      </trkpt>
      <trkpt lat="46.3712" lon="5.91432">
        <ele>946.6</ele>
        <time>2021-10-17T12:47:25Z</time>
      </trkpt>
      <trkpt lat="46.37121" lon="5.91439">
        <ele>946.6</ele>
        <time>2021-10-17T12:47:26Z</time>
      </trkpt>
      <trkpt lat="46.37123" lon="5.91447">
        <ele>946.6</ele>
        <time>2021-10-17T12:47:27Z</time>
      </trkpt>
      <trkpt lat="46.37126" lon="5.91453">
        <ele>946.6</ele>
        <time>2021-10-17T12:47:28Z</time>
      </trkpt>
      <trkpt lat="46.37129" lon="5.9146">
        <ele>946.6</ele>
        <time>2021-10-17T12:47:29Z</time>
      </trkpt>
      <trkpt lat="46.37132" lon="5.91466">
        <ele>947</ele>
        <time>2021-10-17T12:47:30Z</time>
      </trkpt>
      <trkpt lat="46.37135" lon="5.91471">
        <ele>947</ele>
        <time>2021-10-17T12:47:31Z</time>
      </trkpt>
      <trkpt lat="46.37138" lon="5.91477">
        <ele>947</ele>
        <time>2021-10-17T12:47:32Z</time>
      </trkpt>
      <trkpt lat="46.37142" lon="5.91482">
        <ele>947.4</ele>
        <time>2021-10-17T12:47:33Z</time>
      </trkpt>
      <trkpt lat="46.37145" lon="5.91487">
        <ele>947.4</ele>
        <time>2021-10-17T12:47:34Z</time>
      </trkpt>
      <trkpt lat="46.37148" lon="5.91493">
        <ele>947.6</ele>
        <time>2021-10-17T12:47:35Z</time>
      </trkpt>
      <trkpt lat="46.37151" lon="5.91498">
        <ele>947.6</ele>
        <time>2021-10-17T12:47:36Z</time>
      </trkpt>
      <trkpt lat="46.37154" lon="5.91503">
        <ele>947.8</ele>
        <time>2021-10-17T12:47:37Z</time>
      </trkpt>
      <trkpt lat="46.37156" lon="5.91508">
        <ele>947.8</ele>
        <time>2021-10-17T12:47:38Z</time>
      </trkpt>
      <trkpt lat="46.37158" lon="5.91513">
        <ele>948</ele>
        <time>2021-10-17T12:47:39Z</time>
      </trkpt>
      <trkpt lat="46.37161" lon="5.91518">
        <ele>948</ele>
        <time>2021-10-17T12:47:40Z</time>
      </trkpt>
      <trkpt lat="46.37163" lon="5.91523">
        <ele>948.4</ele>
        <time>2021-10-17T12:47:41Z</time>
      </trkpt>
      <trkpt lat="46.37166" lon="5.91527">
        <ele>948.8</ele>
        <time>2021-10-17T12:47:42Z</time>
      </trkpt>
      <trkpt lat="46.37168" lon="5.91532">
        <ele>948.8</ele>
        <time>2021-10-17T12:47:43Z</time>
      </trkpt>
      <trkpt lat="46.37171" lon="5.91537">
        <ele>949</ele>
        <time>2021-10-17T12:47:44Z</time>
      </trkpt>
      <trkpt lat="46.37174" lon="5.91541">
        <ele>949</ele>
        <time>2021-10-17T12:47:45Z</time>
      </trkpt>
      <trkpt lat="46.37176" lon="5.91546">
        <ele>949.4</ele>
        <time>2021-10-17T12:47:46Z</time>
      </trkpt>
      <trkpt lat="46.37179" lon="5.9155">
        <ele>949.6</ele>
        <time>2021-10-17T12:47:47Z</time>
      </trkpt>
      <trkpt lat="46.37182" lon="5.91555">
        <ele>949.6</ele>
        <time>2021-10-17T12:47:48Z</time>
      </trkpt>
      <trkpt lat="46.37185" lon="5.91559">
        <ele>949.8</ele>
        <time>2021-10-17T12:47:49Z</time>
      </trkpt>
      <trkpt lat="46.37188" lon="5.91563">
        <ele>949.8</ele>
        <time>2021-10-17T12:47:50Z</time>
      </trkpt>
      <trkpt lat="46.37191" lon="5.91567">
        <ele>950.2</ele>
        <time>2021-10-17T12:47:51Z</time>
      </trkpt>
      <trkpt lat="46.37194" lon="5.91571">
        <ele>950.2</ele>
        <time>2021-10-17T12:47:52Z</time>
      </trkpt>
      <trkpt lat="46.37197" lon="5.91575">
        <ele>950.2</ele>
        <time>2021-10-17T12:47:53Z</time>
      </trkpt>
      <trkpt lat="46.372" lon="5.91579">
        <ele>950.4</ele>
        <time>2021-10-17T12:47:54Z</time>
      </trkpt>
      <trkpt lat="46.37202" lon="5.91584">
        <ele>950.4</ele>
        <time>2021-10-17T12:47:55Z</time>
      </trkpt>
      <trkpt lat="46.37205" lon="5.91588">
        <ele>950.8</ele>
        <time>2021-10-17T12:47:56Z</time>
      </trkpt>
      <trkpt lat="46.37208" lon="5.91592">
        <ele>950.8</ele>
        <time>2021-10-17T12:47:57Z</time>
      </trkpt>
      <trkpt lat="46.37211" lon="5.91596">
        <ele>951</ele>
        <time>2021-10-17T12:47:58Z</time>
      </trkpt>
      <trkpt lat="46.37214" lon="5.91601">
        <ele>951</ele>
        <time>2021-10-17T12:47:59Z</time>
      </trkpt>
      <trkpt lat="46.37217" lon="5.91605">
        <ele>951.4</ele>
        <time>2021-10-17T12:48:00Z</time>
      </trkpt>
      <trkpt lat="46.37219" lon="5.91608">
        <ele>951.4</ele>
        <time>2021-10-17T12:48:01Z</time>
      </trkpt>
      <trkpt lat="46.37222" lon="5.91613">
        <ele>951.8</ele>
        <time>2021-10-17T12:48:02Z</time>
      </trkpt>
      <trkpt lat="46.37224" lon="5.91617">
        <ele>951.8</ele>
        <time>2021-10-17T12:48:03Z</time>
      </trkpt>
      <trkpt lat="46.37226" lon="5.91622">
        <ele>952.2</ele>
        <time>2021-10-17T12:48:04Z</time>
      </trkpt>
      <trkpt lat="46.37228" lon="5.91627">
        <ele>952.2</ele>
        <time>2021-10-17T12:48:05Z</time>
      </trkpt>
      <trkpt lat="46.3723" lon="5.91633">
        <ele>952.4</ele>
        <time>2021-10-17T12:48:06Z</time>
      </trkpt>
      <trkpt lat="46.37232" lon="5.91638">
        <ele>952.4</ele>
        <time>2021-10-17T12:48:07Z</time>
      </trkpt>
      <trkpt lat="46.37234" lon="5.91643">
        <ele>952.8</ele>
        <time>2021-10-17T12:48:08Z</time>
      </trkpt>
      <trkpt lat="46.37235" lon="5.91649">
        <ele>953</ele>
        <time>2021-10-17T12:48:09Z</time>
      </trkpt>
      <trkpt lat="46.37237" lon="5.91654">
        <ele>953</ele>
        <time>2021-10-17T12:48:10Z</time>
      </trkpt>
      <trkpt lat="46.37238" lon="5.91659">
        <ele>953.4</ele>
        <time>2021-10-17T12:48:11Z</time>
      </trkpt>
      <trkpt lat="46.3724" lon="5.91664">
        <ele>953.4</ele>
        <time>2021-10-17T12:48:12Z</time>
      </trkpt>
      <trkpt lat="46.37241" lon="5.91669">
        <ele>953.8</ele>
        <time>2021-10-17T12:48:13Z</time>
      </trkpt>
      <trkpt lat="46.37243" lon="5.91674">
        <ele>953.8</ele>
        <time>2021-10-17T12:48:14Z</time>
      </trkpt>
      <trkpt lat="46.37245" lon="5.91679">
        <ele>954</ele>
        <time>2021-10-17T12:48:15Z</time>
      </trkpt>
      <trkpt lat="46.37247" lon="5.91684">
        <ele>954</ele>
        <time>2021-10-17T12:48:16Z</time>
      </trkpt>
      <trkpt lat="46.37248" lon="5.91689">
        <ele>954.4</ele>
        <time>2021-10-17T12:48:17Z</time>
      </trkpt>
      <trkpt lat="46.3725" lon="5.91694">
        <ele>954.4</ele>
        <time>2021-10-17T12:48:18Z</time>
      </trkpt>
      <trkpt lat="46.37253" lon="5.91699">
        <ele>954.6</ele>
        <time>2021-10-17T12:48:19Z</time>
      </trkpt>
      <trkpt lat="46.37255" lon="5.91703">
        <ele>954.6</ele>
        <time>2021-10-17T12:48:20Z</time>
      </trkpt>
      <trkpt lat="46.37257" lon="5.91708">
        <ele>954.8</ele>
        <time>2021-10-17T12:48:21Z</time>
      </trkpt>
      <trkpt lat="46.3726" lon="5.91713">
        <ele>954.8</ele>
        <time>2021-10-17T12:48:22Z</time>
      </trkpt>
      <trkpt lat="46.37262" lon="5.91717">
        <ele>955.2</ele>
        <time>2021-10-17T12:48:23Z</time>
      </trkpt>
      <trkpt lat="46.37265" lon="5.91722">
        <ele>955.2</ele>
        <time>2021-10-17T12:48:24Z</time>
      </trkpt>
      <trkpt lat="46.37268" lon="5.91726">
        <ele>955.4</ele>
        <time>2021-10-17T12:48:25Z</time>
      </trkpt>
      <trkpt lat="46.37271" lon="5.9173">
        <ele>955.4</ele>
        <time>2021-10-17T12:48:26Z</time>
      </trkpt>
      <trkpt lat="46.37274" lon="5.91735">
        <ele>955.8</ele>
        <time>2021-10-17T12:48:27Z</time>
      </trkpt>
      <trkpt lat="46.37277" lon="5.91739">
        <ele>955.8</ele>
        <time>2021-10-17T12:48:28Z</time>
      </trkpt>
      <trkpt lat="46.3728" lon="5.91744">
        <ele>956.2</ele>
        <time>2021-10-17T12:48:29Z</time>
      </trkpt>
      <trkpt lat="46.37283" lon="5.91748">
        <ele>956.2</ele>
        <time>2021-10-17T12:48:30Z</time>
      </trkpt>
      <trkpt lat="46.37286" lon="5.91752">
        <ele>956.4</ele>
        <time>2021-10-17T12:48:31Z</time>
      </trkpt>
      <trkpt lat="46.37289" lon="5.91756">
        <ele>956.4</ele>
        <time>2021-10-17T12:48:32Z</time>
      </trkpt>
      <trkpt lat="46.37292" lon="5.91761">
        <ele>956.8</ele>
        <time>2021-10-17T12:48:33Z</time>
      </trkpt>
      <trkpt lat="46.37295" lon="5.91765">
        <ele>957</ele>
        <time>2021-10-17T12:48:34Z</time>
      </trkpt>
      <trkpt lat="46.37298" lon="5.91768">
        <ele>957.2</ele>
        <time>2021-10-17T12:48:35Z</time>
      </trkpt>
      <trkpt lat="46.37302" lon="5.91772">
        <ele>957.2</ele>
        <time>2021-10-17T12:48:36Z</time>
      </trkpt>
      <trkpt lat="46.37305" lon="5.91775">
        <ele>957.6</ele>
        <time>2021-10-17T12:48:37Z</time>
      </trkpt>
      <trkpt lat="46.37309" lon="5.91778">
        <ele>957.8</ele>
        <time>2021-10-17T12:48:38Z</time>
      </trkpt>
      <trkpt lat="46.37312" lon="5.91781">
        <ele>957.8</ele>
        <time>2021-10-17T12:48:39Z</time>
      </trkpt>
      <trkpt lat="46.37316" lon="5.91784">
        <ele>958</ele>
        <time>2021-10-17T12:48:40Z</time>
      </trkpt>
      <trkpt lat="46.37319" lon="5.91787">
        <ele>958</ele>
        <time>2021-10-17T12:48:41Z</time>
      </trkpt>
      <trkpt lat="46.37323" lon="5.9179">
        <ele>958.4</ele>
        <time>2021-10-17T12:48:42Z</time>
      </trkpt>
      <trkpt lat="46.37326" lon="5.91793">
        <ele>958.4</ele>
        <time>2021-10-17T12:48:43Z</time>
      </trkpt>
      <trkpt lat="46.3733" lon="5.91795">
        <ele>958.4</ele>
        <time>2021-10-17T12:48:44Z</time>
      </trkpt>
      <trkpt lat="46.37334" lon="5.91798">
        <ele>958.6</ele>
        <time>2021-10-17T12:48:45Z</time>
      </trkpt>
      <trkpt lat="46.37337" lon="5.918">
        <ele>958.6</ele>
        <time>2021-10-17T12:48:46Z</time>
      </trkpt>
      <trkpt lat="46.37341" lon="5.91803">
        <ele>958.6</ele>
        <time>2021-10-17T12:48:47Z</time>
      </trkpt>
      <trkpt lat="46.37345" lon="5.91805">
        <ele>959</ele>
        <time>2021-10-17T12:48:48Z</time>
      </trkpt>
      <trkpt lat="46.37348" lon="5.91808">
        <ele>959</ele>
        <time>2021-10-17T12:48:49Z</time>
      </trkpt>
      <trkpt lat="46.37352" lon="5.9181">
        <ele>959.2</ele>
        <time>2021-10-17T12:48:50Z</time>
      </trkpt>
      <trkpt lat="46.37356" lon="5.91813">
        <ele>959.2</ele>
        <time>2021-10-17T12:48:51Z</time>
      </trkpt>
      <trkpt lat="46.37359" lon="5.91816">
        <ele>959.4</ele>
        <time>2021-10-17T12:48:52Z</time>
      </trkpt>
      <trkpt lat="46.37363" lon="5.91818">
        <ele>959.4</ele>
        <time>2021-10-17T12:48:53Z</time>
      </trkpt>
      <trkpt lat="46.37366" lon="5.91821">
        <ele>959.8</ele>
        <time>2021-10-17T12:48:54Z</time>
      </trkpt>
      <trkpt lat="46.37369" lon="5.91823">
        <ele>959.8</ele>
        <time>2021-10-17T12:48:55Z</time>
      </trkpt>
      <trkpt lat="46.37373" lon="5.91826">
        <ele>960</ele>
        <time>2021-10-17T12:48:56Z</time>
      </trkpt>
      <trkpt lat="46.37376" lon="5.91828">
        <ele>960</ele>
        <time>2021-10-17T12:48:57Z</time>
      </trkpt>
      <trkpt lat="46.3738" lon="5.91829">
        <ele>960.2</ele>
        <time>2021-10-17T12:48:58Z</time>
      </trkpt>
      <trkpt lat="46.37383" lon="5.91832">
        <ele>960.2</ele>
        <time>2021-10-17T12:48:59Z</time>
      </trkpt>
      <trkpt lat="46.37386" lon="5.91834">
        <ele>960.4</ele>
        <time>2021-10-17T12:49:00Z</time>
      </trkpt>
      <trkpt lat="46.3739" lon="5.91836">
        <ele>960.8</ele>
        <time>2021-10-17T12:49:01Z</time>
      </trkpt>
      <trkpt lat="46.37393" lon="5.91838">
        <ele>960.8</ele>
        <time>2021-10-17T12:49:02Z</time>
      </trkpt>
      <trkpt lat="46.37397" lon="5.9184">
        <ele>961</ele>
        <time>2021-10-17T12:49:03Z</time>
      </trkpt>
      <trkpt lat="46.37401" lon="5.91842">
        <ele>961</ele>
        <time>2021-10-17T12:49:04Z</time>
      </trkpt>
      <trkpt lat="46.37404" lon="5.91845">
        <ele>961.4</ele>
        <time>2021-10-17T12:49:05Z</time>
      </trkpt>
      <trkpt lat="46.37407" lon="5.91848">
        <ele>961.4</ele>
        <time>2021-10-17T12:49:06Z</time>
      </trkpt>
      <trkpt lat="46.3741" lon="5.91852">
        <ele>961.4</ele>
        <time>2021-10-17T12:49:07Z</time>
      </trkpt>
      <trkpt lat="46.37414" lon="5.91855">
        <ele>961.6</ele>
        <time>2021-10-17T12:49:08Z</time>
      </trkpt>
      <trkpt lat="46.37418" lon="5.91858">
        <ele>961.6</ele>
        <time>2021-10-17T12:49:09Z</time>
      </trkpt>
      <trkpt lat="46.37421" lon="5.91861">
        <ele>962</ele>
        <time>2021-10-17T12:49:10Z</time>
      </trkpt>
      <trkpt lat="46.37425" lon="5.91863">
        <ele>962.2</ele>
        <time>2021-10-17T12:49:11Z</time>
      </trkpt>
      <trkpt lat="46.37428" lon="5.91866">
        <ele>962.2</ele>
        <time>2021-10-17T12:49:12Z</time>
      </trkpt>
      <trkpt lat="46.37432" lon="5.91868">
        <ele>962.4</ele>
        <time>2021-10-17T12:49:13Z</time>
      </trkpt>
      <trkpt lat="46.37435" lon="5.91871">
        <ele>962.4</ele>
        <time>2021-10-17T12:49:14Z</time>
      </trkpt>
      <trkpt lat="46.37438" lon="5.91873">
        <ele>962.8</ele>
        <time>2021-10-17T12:49:15Z</time>
      </trkpt>
      <trkpt lat="46.37442" lon="5.91875">
        <ele>962.8</ele>
        <time>2021-10-17T12:49:16Z</time>
      </trkpt>
      <trkpt lat="46.37446" lon="5.91878">
        <ele>963</ele>
        <time>2021-10-17T12:49:17Z</time>
      </trkpt>
      <trkpt lat="46.37449" lon="5.9188">
        <ele>963</ele>
        <time>2021-10-17T12:49:18Z</time>
      </trkpt>
      <trkpt lat="46.37453" lon="5.91883">
        <ele>963.4</ele>
        <time>2021-10-17T12:49:19Z</time>
      </trkpt>
      <trkpt lat="46.37456" lon="5.91885">
        <ele>963.4</ele>
        <time>2021-10-17T12:49:20Z</time>
      </trkpt>
      <trkpt lat="46.3746" lon="5.91887">
        <ele>963.6</ele>
        <time>2021-10-17T12:49:21Z</time>
      </trkpt>
      <trkpt lat="46.37463" lon="5.91889">
        <ele>963.6</ele>
        <time>2021-10-17T12:49:22Z</time>
      </trkpt>
      <trkpt lat="46.37467" lon="5.91892">
        <ele>964</ele>
        <time>2021-10-17T12:49:23Z</time>
      </trkpt>
      <trkpt lat="46.3747" lon="5.91894">
        <ele>964</ele>
        <time>2021-10-17T12:49:24Z</time>
      </trkpt>
      <trkpt lat="46.37473" lon="5.91896">
        <ele>964.2</ele>
        <time>2021-10-17T12:49:25Z</time>
      </trkpt>
      <trkpt lat="46.37477" lon="5.91899">
        <ele>964.2</ele>
        <time>2021-10-17T12:49:26Z</time>
      </trkpt>
      <trkpt lat="46.3748" lon="5.91901">
        <ele>964.6</ele>
        <time>2021-10-17T12:49:27Z</time>
      </trkpt>
      <trkpt lat="46.37484" lon="5.91904">
        <ele>964.6</ele>
        <time>2021-10-17T12:49:28Z</time>
      </trkpt>
      <trkpt lat="46.37487" lon="5.91907">
        <ele>964.8</ele>
        <time>2021-10-17T12:49:29Z</time>
      </trkpt>
      <trkpt lat="46.37491" lon="5.91909">
        <ele>964.8</ele>
        <time>2021-10-17T12:49:30Z</time>
      </trkpt>
      <trkpt lat="46.37495" lon="5.91911">
        <ele>965.2</ele>
        <time>2021-10-17T12:49:31Z</time>
      </trkpt>
      <trkpt lat="46.37498" lon="5.91914">
        <ele>965.4</ele>
        <time>2021-10-17T12:49:32Z</time>
      </trkpt>
      <trkpt lat="46.37501" lon="5.91917">
        <ele>965.4</ele>
        <time>2021-10-17T12:49:33Z</time>
      </trkpt>
      <trkpt lat="46.37505" lon="5.9192">
        <ele>965.8</ele>
        <time>2021-10-17T12:49:34Z</time>
      </trkpt>
      <trkpt lat="46.37508" lon="5.91923">
        <ele>965.8</ele>
        <time>2021-10-17T12:49:35Z</time>
      </trkpt>
      <trkpt lat="46.37511" lon="5.91926">
        <ele>966</ele>
        <time>2021-10-17T12:49:36Z</time>
      </trkpt>
      <trkpt lat="46.37515" lon="5.91929">
        <ele>966</ele>
        <time>2021-10-17T12:49:37Z</time>
      </trkpt>
      <trkpt lat="46.37518" lon="5.91932">
        <ele>966.4</ele>
        <time>2021-10-17T12:49:38Z</time>
      </trkpt>
      <trkpt lat="46.37521" lon="5.91935">
        <ele>966.6</ele>
        <time>2021-10-17T12:49:39Z</time>
      </trkpt>
      <trkpt lat="46.37524" lon="5.91939">
        <ele>966.8</ele>
        <time>2021-10-17T12:49:40Z</time>
      </trkpt>
      <trkpt lat="46.37527" lon="5.91943">
        <ele>966.8</ele>
        <time>2021-10-17T12:49:41Z</time>
      </trkpt>
      <trkpt lat="46.3753" lon="5.91946">
        <ele>967.2</ele>
        <time>2021-10-17T12:49:42Z</time>
      </trkpt>
      <trkpt lat="46.37533" lon="5.9195">
        <ele>967.2</ele>
        <time>2021-10-17T12:49:43Z</time>
      </trkpt>
      <trkpt lat="46.37536" lon="5.91953">
        <ele>967.4</ele>
        <time>2021-10-17T12:49:44Z</time>
      </trkpt>
      <trkpt lat="46.37539" lon="5.91957">
        <ele>967.6</ele>
        <time>2021-10-17T12:49:45Z</time>
      </trkpt>
      <trkpt lat="46.37542" lon="5.9196">
        <ele>967.8</ele>
        <time>2021-10-17T12:49:46Z</time>
      </trkpt>
      <trkpt lat="46.37545" lon="5.91964">
        <ele>968.2</ele>
        <time>2021-10-17T12:49:47Z</time>
      </trkpt>
      <trkpt lat="46.37547" lon="5.91968">
        <ele>968.2</ele>
        <time>2021-10-17T12:49:48Z</time>
      </trkpt>
      <trkpt lat="46.3755" lon="5.91972">
        <ele>968.4</ele>
        <time>2021-10-17T12:49:49Z</time>
      </trkpt>
      <trkpt lat="46.37553" lon="5.91976">
        <ele>968.4</ele>
        <time>2021-10-17T12:49:50Z</time>
      </trkpt>
      <trkpt lat="46.37556" lon="5.91979">
        <ele>968.6</ele>
        <time>2021-10-17T12:49:51Z</time>
      </trkpt>
      <trkpt lat="46.37558" lon="5.91983">
        <ele>968.8</ele>
        <time>2021-10-17T12:49:52Z</time>
      </trkpt>
      <trkpt lat="46.37561" lon="5.91987">
        <ele>968.8</ele>
        <time>2021-10-17T12:49:53Z</time>
      </trkpt>
      <trkpt lat="46.37564" lon="5.91991">
        <ele>969.2</ele>
        <time>2021-10-17T12:49:54Z</time>
      </trkpt>
      <trkpt lat="46.37567" lon="5.91995">
        <ele>969.2</ele>
        <time>2021-10-17T12:49:55Z</time>
      </trkpt>
      <trkpt lat="46.37569" lon="5.91999">
        <ele>969.4</ele>
        <time>2021-10-17T12:49:56Z</time>
      </trkpt>
      <trkpt lat="46.37572" lon="5.92003">
        <ele>969.4</ele>
        <time>2021-10-17T12:49:57Z</time>
      </trkpt>
      <trkpt lat="46.37575" lon="5.92007">
        <ele>969.6</ele>
        <time>2021-10-17T12:49:58Z</time>
      </trkpt>
      <trkpt lat="46.37577" lon="5.9201">
        <ele>969.6</ele>
        <time>2021-10-17T12:49:59Z</time>
      </trkpt>
      <trkpt lat="46.3758" lon="5.92014">
        <ele>970</ele>
        <time>2021-10-17T12:50:00Z</time>
      </trkpt>
      <trkpt lat="46.37583" lon="5.92018">
        <ele>970</ele>
        <time>2021-10-17T12:50:01Z</time>
      </trkpt>
      <trkpt lat="46.37586" lon="5.92022">
        <ele>970.2</ele>
        <time>2021-10-17T12:50:02Z</time>
      </trkpt>
      <trkpt lat="46.37588" lon="5.92025">
        <ele>970.2</ele>
        <time>2021-10-17T12:50:03Z</time>
      </trkpt>
      <trkpt lat="46.37591" lon="5.92029">
        <ele>970.2</ele>
        <time>2021-10-17T12:50:04Z</time>
      </trkpt>
      <trkpt lat="46.37594" lon="5.92032">
        <ele>970.4</ele>
        <time>2021-10-17T12:50:05Z</time>
      </trkpt>
      <trkpt lat="46.37597" lon="5.92036">
        <ele>970.4</ele>
        <time>2021-10-17T12:50:06Z</time>
      </trkpt>
      <trkpt lat="46.37599" lon="5.9204">
        <ele>970.8</ele>
        <time>2021-10-17T12:50:07Z</time>
      </trkpt>
      <trkpt lat="46.37602" lon="5.92044">
        <ele>970.8</ele>
        <time>2021-10-17T12:50:08Z</time>
      </trkpt>
      <trkpt lat="46.37605" lon="5.92048">
        <ele>971</ele>
        <time>2021-10-17T12:50:09Z</time>
      </trkpt>
      <trkpt lat="46.37608" lon="5.92052">
        <ele>971</ele>
        <time>2021-10-17T12:50:10Z</time>
      </trkpt>
      <trkpt lat="46.3761" lon="5.92055">
        <ele>971.2</ele>
        <time>2021-10-17T12:50:11Z</time>
      </trkpt>
      <trkpt lat="46.37613" lon="5.92059">
        <ele>971.2</ele>
        <time>2021-10-17T12:50:12Z</time>
      </trkpt>
      <trkpt lat="46.37616" lon="5.92063">
        <ele>971.6</ele>
        <time>2021-10-17T12:50:13Z</time>
      </trkpt>
      <trkpt lat="46.37619" lon="5.92066">
        <ele>971.6</ele>
        <time>2021-10-17T12:50:14Z</time>
      </trkpt>
      <trkpt lat="46.37622" lon="5.9207">
        <ele>971.8</ele>
        <time>2021-10-17T12:50:15Z</time>
      </trkpt>
      <trkpt lat="46.37624" lon="5.92074">
        <ele>971.8</ele>
        <time>2021-10-17T12:50:16Z</time>
      </trkpt>
      <trkpt lat="46.37627" lon="5.92078">
        <ele>972.2</ele>
        <time>2021-10-17T12:50:17Z</time>
      </trkpt>
      <trkpt lat="46.3763" lon="5.92082">
        <ele>972.2</ele>
        <time>2021-10-17T12:50:18Z</time>
      </trkpt>
      <trkpt lat="46.37633" lon="5.92086">
        <ele>972.4</ele>
        <time>2021-10-17T12:50:19Z</time>
      </trkpt>
      <trkpt lat="46.37636" lon="5.9209">
        <ele>972.4</ele>
        <time>2021-10-17T12:50:20Z</time>
      </trkpt>
      <trkpt lat="46.37639" lon="5.92094">
        <ele>972.6</ele>
        <time>2021-10-17T12:50:21Z</time>
      </trkpt>
      <trkpt lat="46.37641" lon="5.92097">
        <ele>972.8</ele>
        <time>2021-10-17T12:50:22Z</time>
      </trkpt>
      <trkpt lat="46.37644" lon="5.92101">
        <ele>972.8</ele>
        <time>2021-10-17T12:50:23Z</time>
      </trkpt>
      <trkpt lat="46.37647" lon="5.92105">
        <ele>973.2</ele>
        <time>2021-10-17T12:50:24Z</time>
      </trkpt>
      <trkpt lat="46.3765" lon="5.92108">
        <ele>973.2</ele>
        <time>2021-10-17T12:50:25Z</time>
      </trkpt>
      <trkpt lat="46.37653" lon="5.92112">
        <ele>973.4</ele>
        <time>2021-10-17T12:50:26Z</time>
      </trkpt>
      <trkpt lat="46.37656" lon="5.92116">
        <ele>973.4</ele>
        <time>2021-10-17T12:50:27Z</time>
      </trkpt>
      <trkpt lat="46.37658" lon="5.9212">
        <ele>973.8</ele>
        <time>2021-10-17T12:50:28Z</time>
      </trkpt>
      <trkpt lat="46.37661" lon="5.92123">
        <ele>973.8</ele>
        <time>2021-10-17T12:50:29Z</time>
      </trkpt>
      <trkpt lat="46.37664" lon="5.92127">
        <ele>974.2</ele>
        <time>2021-10-17T12:50:30Z</time>
      </trkpt>
      <trkpt lat="46.37666" lon="5.92131">
        <ele>974.2</ele>
        <time>2021-10-17T12:50:31Z</time>
      </trkpt>
      <trkpt lat="46.37669" lon="5.92134">
        <ele>974.4</ele>
        <time>2021-10-17T12:50:32Z</time>
      </trkpt>
      <trkpt lat="46.37672" lon="5.92137">
        <ele>974.4</ele>
        <time>2021-10-17T12:50:33Z</time>
      </trkpt>
      <trkpt lat="46.37675" lon="5.92141">
        <ele>974.8</ele>
        <time>2021-10-17T12:50:34Z</time>
      </trkpt>
      <trkpt lat="46.37677" lon="5.92144">
        <ele>974.8</ele>
        <time>2021-10-17T12:50:35Z</time>
      </trkpt>
      <trkpt lat="46.3768" lon="5.92147">
        <ele>975</ele>
        <time>2021-10-17T12:50:36Z</time>
      </trkpt>
      <trkpt lat="46.37682" lon="5.9215">
        <ele>975</ele>
        <time>2021-10-17T12:50:37Z</time>
      </trkpt>
      <trkpt lat="46.37685" lon="5.92154">
        <ele>975.4</ele>
        <time>2021-10-17T12:50:38Z</time>
      </trkpt>
      <trkpt lat="46.37688" lon="5.92157">
        <ele>975.4</ele>
        <time>2021-10-17T12:50:39Z</time>
      </trkpt>
      <trkpt lat="46.37691" lon="5.92161">
        <ele>975.4</ele>
        <time>2021-10-17T12:50:40Z</time>
      </trkpt>
      <trkpt lat="46.37694" lon="5.92164">
        <ele>975.6</ele>
        <time>2021-10-17T12:50:41Z</time>
      </trkpt>
      <trkpt lat="46.37697" lon="5.92167">
        <ele>975.6</ele>
        <time>2021-10-17T12:50:42Z</time>
      </trkpt>
      <trkpt lat="46.377" lon="5.9217">
        <ele>975.8</ele>
        <time>2021-10-17T12:50:43Z</time>
      </trkpt>
      <trkpt lat="46.37703" lon="5.92173">
        <ele>975.8</ele>
        <time>2021-10-17T12:50:44Z</time>
      </trkpt>
      <trkpt lat="46.37706" lon="5.92176">
        <ele>976.2</ele>
        <time>2021-10-17T12:50:45Z</time>
      </trkpt>
      <trkpt lat="46.37709" lon="5.92178">
        <ele>976.2</ele>
        <time>2021-10-17T12:50:46Z</time>
      </trkpt>
      <trkpt lat="46.37712" lon="5.92181">
        <ele>976.4</ele>
        <time>2021-10-17T12:50:47Z</time>
      </trkpt>
      <trkpt lat="46.37715" lon="5.92184">
        <ele>976.4</ele>
        <time>2021-10-17T12:50:48Z</time>
      </trkpt>
      <trkpt lat="46.37718" lon="5.92187">
        <ele>976.8</ele>
        <time>2021-10-17T12:50:49Z</time>
      </trkpt>
      <trkpt lat="46.37721" lon="5.92189">
        <ele>976.8</ele>
        <time>2021-10-17T12:50:50Z</time>
      </trkpt>
      <trkpt lat="46.37725" lon="5.92192">
        <ele>977</ele>
        <time>2021-10-17T12:50:51Z</time>
      </trkpt>
      <trkpt lat="46.37728" lon="5.92194">
        <ele>977</ele>
        <time>2021-10-17T12:50:52Z</time>
      </trkpt>
      <trkpt lat="46.37731" lon="5.92197">
        <ele>977.2</ele>
        <time>2021-10-17T12:50:53Z</time>
      </trkpt>
      <trkpt lat="46.37734" lon="5.922">
        <ele>977.2</ele>
        <time>2021-10-17T12:50:54Z</time>
      </trkpt>
      <trkpt lat="46.37738" lon="5.92203">
        <ele>977.2</ele>
        <time>2021-10-17T12:50:55Z</time>
      </trkpt>
      <trkpt lat="46.37741" lon="5.92205">
        <ele>977.6</ele>
        <time>2021-10-17T12:50:56Z</time>
      </trkpt>
      <trkpt lat="46.37744" lon="5.92208">
        <ele>977.6</ele>
        <time>2021-10-17T12:50:57Z</time>
      </trkpt>
      <trkpt lat="46.37747" lon="5.9221">
        <ele>977.8</ele>
        <time>2021-10-17T12:50:58Z</time>
      </trkpt>
      <trkpt lat="46.3775" lon="5.92213">
        <ele>977.8</ele>
        <time>2021-10-17T12:50:59Z</time>
      </trkpt>
      <trkpt lat="46.37753" lon="5.92215">
        <ele>978.2</ele>
        <time>2021-10-17T12:51:00Z</time>
      </trkpt>
      <trkpt lat="46.37757" lon="5.92217">
        <ele>978.2</ele>
        <time>2021-10-17T12:51:01Z</time>
      </trkpt>
      <trkpt lat="46.3776" lon="5.92219">
        <ele>978.2</ele>
        <time>2021-10-17T12:51:02Z</time>
      </trkpt>
      <trkpt lat="46.37763" lon="5.92222">
        <ele>978.4</ele>
        <time>2021-10-17T12:51:03Z</time>
      </trkpt>
      <trkpt lat="46.37766" lon="5.92225">
        <ele>978.4</ele>
        <time>2021-10-17T12:51:04Z</time>
      </trkpt>
      <trkpt lat="46.37769" lon="5.92228">
        <ele>978.6</ele>
        <time>2021-10-17T12:51:05Z</time>
      </trkpt>
      <trkpt lat="46.37772" lon="5.92231">
        <ele>978.6</ele>
        <time>2021-10-17T12:51:06Z</time>
      </trkpt>
      <trkpt lat="46.37774" lon="5.92234">
        <ele>979</ele>
        <time>2021-10-17T12:51:07Z</time>
      </trkpt>
      <trkpt lat="46.37777" lon="5.92237">
        <ele>979</ele>
        <time>2021-10-17T12:51:08Z</time>
      </trkpt>
      <trkpt lat="46.3778" lon="5.9224">
        <ele>979</ele>
        <time>2021-10-17T12:51:09Z</time>
      </trkpt>
      <trkpt lat="46.37782" lon="5.92243">
        <ele>979.2</ele>
        <time>2021-10-17T12:51:10Z</time>
      </trkpt>
      <trkpt lat="46.37785" lon="5.92247">
        <ele>979.2</ele>
        <time>2021-10-17T12:51:11Z</time>
      </trkpt>
      <trkpt lat="46.37787" lon="5.9225">
        <ele>979.4</ele>
        <time>2021-10-17T12:51:12Z</time>
      </trkpt>
      <trkpt lat="46.3779" lon="5.92253">
        <ele>979.4</ele>
        <time>2021-10-17T12:51:13Z</time>
      </trkpt>
      <trkpt lat="46.37792" lon="5.92256">
        <ele>979.8</ele>
        <time>2021-10-17T12:51:14Z</time>
      </trkpt>
      <trkpt lat="46.37794" lon="5.92259">
        <ele>979.8</ele>
        <time>2021-10-17T12:51:15Z</time>
      </trkpt>
      <trkpt lat="46.37797" lon="5.92262">
        <ele>980</ele>
        <time>2021-10-17T12:51:16Z</time>
      </trkpt>
      <trkpt lat="46.37799" lon="5.92265">
        <ele>980.2</ele>
        <time>2021-10-17T12:51:17Z</time>
      </trkpt>
      <trkpt lat="46.37801" lon="5.92268">
        <ele>980.2</ele>
        <time>2021-10-17T12:51:18Z</time>
      </trkpt>
      <trkpt lat="46.37803" lon="5.92271">
        <ele>980.4</ele>
        <time>2021-10-17T12:51:19Z</time>
      </trkpt>
      <trkpt lat="46.37806" lon="5.92274">
        <ele>980.4</ele>
        <time>2021-10-17T12:51:20Z</time>
      </trkpt>
      <trkpt lat="46.37808" lon="5.92278">
        <ele>980.4</ele>
        <time>2021-10-17T12:51:21Z</time>
      </trkpt>
      <trkpt lat="46.3781" lon="5.92282">
        <ele>980.8</ele>
        <time>2021-10-17T12:51:22Z</time>
      </trkpt>
      <trkpt lat="46.37812" lon="5.92285">
        <ele>980.8</ele>
        <time>2021-10-17T12:51:23Z</time>
      </trkpt>
      <trkpt lat="46.37814" lon="5.92289">
        <ele>981</ele>
        <time>2021-10-17T12:51:24Z</time>
      </trkpt>
      <trkpt lat="46.37816" lon="5.92293">
        <ele>981</ele>
        <time>2021-10-17T12:51:25Z</time>
      </trkpt>
      <trkpt lat="46.37818" lon="5.92297">
        <ele>981.4</ele>
        <time>2021-10-17T12:51:26Z</time>
      </trkpt>
      <trkpt lat="46.3782" lon="5.92301">
        <ele>981.4</ele>
        <time>2021-10-17T12:51:27Z</time>
      </trkpt>
      <trkpt lat="46.37822" lon="5.92304">
        <ele>981.6</ele>
        <time>2021-10-17T12:51:28Z</time>
      </trkpt>
      <trkpt lat="46.37824" lon="5.92308">
        <ele>981.6</ele>
        <time>2021-10-17T12:51:29Z</time>
      </trkpt>
      <trkpt lat="46.37826" lon="5.92312">
        <ele>982</ele>
        <time>2021-10-17T12:51:30Z</time>
      </trkpt>
      <trkpt lat="46.37828" lon="5.92316">
        <ele>982</ele>
        <time>2021-10-17T12:51:31Z</time>
      </trkpt>
      <trkpt lat="46.37831" lon="5.92319">
        <ele>982.4</ele>
        <time>2021-10-17T12:51:32Z</time>
      </trkpt>
      <trkpt lat="46.37833" lon="5.92323">
        <ele>982.6</ele>
        <time>2021-10-17T12:51:33Z</time>
      </trkpt>
      <trkpt lat="46.37835" lon="5.92327">
        <ele>982.6</ele>
        <time>2021-10-17T12:51:34Z</time>
      </trkpt>
      <trkpt lat="46.37837" lon="5.92331">
        <ele>983</ele>
        <time>2021-10-17T12:51:35Z</time>
      </trkpt>
      <trkpt lat="46.37839" lon="5.92335">
        <ele>983</ele>
        <time>2021-10-17T12:51:36Z</time>
      </trkpt>
      <trkpt lat="46.37841" lon="5.92339">
        <ele>983.4</ele>
        <time>2021-10-17T12:51:37Z</time>
      </trkpt>
      <trkpt lat="46.37843" lon="5.92343">
        <ele>983.4</ele>
        <time>2021-10-17T12:51:38Z</time>
      </trkpt>
      <trkpt lat="46.37846" lon="5.92347">
        <ele>983.6</ele>
        <time>2021-10-17T12:51:39Z</time>
      </trkpt>
      <trkpt lat="46.37848" lon="5.92351">
        <ele>983.6</ele>
        <time>2021-10-17T12:51:40Z</time>
      </trkpt>
      <trkpt lat="46.37849" lon="5.92355">
        <ele>984</ele>
        <time>2021-10-17T12:51:41Z</time>
      </trkpt>
      <trkpt lat="46.37851" lon="5.92359">
        <ele>984</ele>
        <time>2021-10-17T12:51:42Z</time>
      </trkpt>
      <trkpt lat="46.37853" lon="5.92363">
        <ele>984.2</ele>
        <time>2021-10-17T12:51:43Z</time>
      </trkpt>
      <trkpt lat="46.37855" lon="5.92368">
        <ele>984.2</ele>
        <time>2021-10-17T12:51:44Z</time>
      </trkpt>
      <trkpt lat="46.37857" lon="5.92372">
        <ele>984.2</ele>
        <time>2021-10-17T12:51:45Z</time>
      </trkpt>
      <trkpt lat="46.3786" lon="5.92376">
        <ele>984.6</ele>
        <time>2021-10-17T12:51:46Z</time>
      </trkpt>
      <trkpt lat="46.37862" lon="5.9238">
        <ele>984.6</ele>
        <time>2021-10-17T12:51:47Z</time>
      </trkpt>
      <trkpt lat="46.37864" lon="5.92385">
        <ele>984.8</ele>
        <time>2021-10-17T12:51:48Z</time>
      </trkpt>
      <trkpt lat="46.37866" lon="5.92389">
        <ele>984.8</ele>
        <time>2021-10-17T12:51:49Z</time>
      </trkpt>
      <trkpt lat="46.37868" lon="5.92394">
        <ele>985.2</ele>
        <time>2021-10-17T12:51:50Z</time>
      </trkpt>
      <trkpt lat="46.3787" lon="5.92398">
        <ele>985.2</ele>
        <time>2021-10-17T12:51:51Z</time>
      </trkpt>
      <trkpt lat="46.37873" lon="5.92403">
        <ele>985.4</ele>
        <time>2021-10-17T12:51:52Z</time>
      </trkpt>
      <trkpt lat="46.37875" lon="5.92407">
        <ele>985.4</ele>
        <time>2021-10-17T12:51:53Z</time>
      </trkpt>
      <trkpt lat="46.37877" lon="5.92411">
        <ele>985.6</ele>
        <time>2021-10-17T12:51:54Z</time>
      </trkpt>
      <trkpt lat="46.37879" lon="5.92416">
        <ele>985.6</ele>
        <time>2021-10-17T12:51:55Z</time>
      </trkpt>
      <trkpt lat="46.37881" lon="5.9242">
        <ele>985.6</ele>
        <time>2021-10-17T12:51:56Z</time>
      </trkpt>
      <trkpt lat="46.37883" lon="5.92425">
        <ele>986</ele>
        <time>2021-10-17T12:51:57Z</time>
      </trkpt>
      <trkpt lat="46.37885" lon="5.9243">
        <ele>986</ele>
        <time>2021-10-17T12:51:58Z</time>
      </trkpt>
      <trkpt lat="46.37887" lon="5.92434">
        <ele>986.2</ele>
        <time>2021-10-17T12:51:59Z</time>
      </trkpt>
      <trkpt lat="46.37889" lon="5.92438">
        <ele>986.2</ele>
        <time>2021-10-17T12:52:00Z</time>
      </trkpt>
      <trkpt lat="46.37891" lon="5.92443">
        <ele>986.6</ele>
        <time>2021-10-17T12:52:01Z</time>
      </trkpt>
      <trkpt lat="46.37893" lon="5.92447">
        <ele>986.6</ele>
        <time>2021-10-17T12:52:02Z</time>
      </trkpt>
      <trkpt lat="46.37895" lon="5.92451">
        <ele>986.8</ele>
        <time>2021-10-17T12:52:03Z</time>
      </trkpt>
      <trkpt lat="46.37897" lon="5.92461">
        <ele>986.8</ele>
        <time>2021-10-17T12:52:04Z</time>
      </trkpt>
      <trkpt lat="46.37898" lon="5.92466">
        <ele>987.2</ele>
        <time>2021-10-17T12:52:05Z</time>
      </trkpt>
      <trkpt lat="46.37899" lon="5.9247">
        <ele>987.2</ele>
        <time>2021-10-17T12:52:06Z</time>
      </trkpt>
      <trkpt lat="46.379" lon="5.92475">
        <ele>987.6</ele>
        <time>2021-10-17T12:52:07Z</time>
      </trkpt>
      <trkpt lat="46.379" lon="5.9248">
        <ele>987.8</ele>
        <time>2021-10-17T12:52:08Z</time>
      </trkpt>
      <trkpt lat="46.37901" lon="5.92485">
        <ele>987.8</ele>
        <time>2021-10-17T12:52:09Z</time>
      </trkpt>
      <trkpt lat="46.37901" lon="5.92489">
        <ele>988</ele>
        <time>2021-10-17T12:52:10Z</time>
      </trkpt>
      <trkpt lat="46.37901" lon="5.92494">
        <ele>988</ele>
        <time>2021-10-17T12:52:11Z</time>
      </trkpt>
      <trkpt lat="46.37902" lon="5.92498">
        <ele>988.4</ele>
        <time>2021-10-17T12:52:12Z</time>
      </trkpt>
      <trkpt lat="46.37902" lon="5.92503">
        <ele>988.4</ele>
        <time>2021-10-17T12:52:13Z</time>
      </trkpt>
      <trkpt lat="46.37902" lon="5.92508">
        <ele>988.6</ele>
        <time>2021-10-17T12:52:14Z</time>
      </trkpt>
      <trkpt lat="46.37902" lon="5.92512">
        <ele>988.8</ele>
        <time>2021-10-17T12:52:15Z</time>
      </trkpt>
      <trkpt lat="46.37902" lon="5.92517">
        <ele>988.8</ele>
        <time>2021-10-17T12:52:16Z</time>
      </trkpt>
      <trkpt lat="46.37901" lon="5.92521">
        <ele>989</ele>
        <time>2021-10-17T12:52:17Z</time>
      </trkpt>
      <trkpt lat="46.37901" lon="5.92526">
        <ele>989</ele>
        <time>2021-10-17T12:52:18Z</time>
      </trkpt>
      <trkpt lat="46.37901" lon="5.92531">
        <ele>989.4</ele>
        <time>2021-10-17T12:52:19Z</time>
      </trkpt>
      <trkpt lat="46.37901" lon="5.92535">
        <ele>989.4</ele>
        <time>2021-10-17T12:52:20Z</time>
      </trkpt>
      <trkpt lat="46.379" lon="5.9254">
        <ele>989.6</ele>
        <time>2021-10-17T12:52:21Z</time>
      </trkpt>
      <trkpt lat="46.379" lon="5.92544">
        <ele>989.6</ele>
        <time>2021-10-17T12:52:22Z</time>
      </trkpt>
      <trkpt lat="46.379" lon="5.92549">
        <ele>990</ele>
        <time>2021-10-17T12:52:23Z</time>
      </trkpt>
      <trkpt lat="46.37899" lon="5.92553">
        <ele>990</ele>
        <time>2021-10-17T12:52:24Z</time>
      </trkpt>
      <trkpt lat="46.37899" lon="5.92557">
        <ele>990.2</ele>
        <time>2021-10-17T12:52:25Z</time>
      </trkpt>
      <trkpt lat="46.37899" lon="5.92562">
        <ele>990.2</ele>
        <time>2021-10-17T12:52:26Z</time>
      </trkpt>
      <trkpt lat="46.37899" lon="5.92566">
        <ele>990.6</ele>
        <time>2021-10-17T12:52:27Z</time>
      </trkpt>
      <trkpt lat="46.37898" lon="5.9257">
        <ele>990.8</ele>
        <time>2021-10-17T12:52:28Z</time>
      </trkpt>
      <trkpt lat="46.37898" lon="5.92575">
        <ele>990.8</ele>
        <time>2021-10-17T12:52:29Z</time>
      </trkpt>
      <trkpt lat="46.37898" lon="5.92579">
        <ele>991.2</ele>
        <time>2021-10-17T12:52:30Z</time>
      </trkpt>
      <trkpt lat="46.37898" lon="5.92584">
        <ele>991.2</ele>
        <time>2021-10-17T12:52:31Z</time>
      </trkpt>
      <trkpt lat="46.37898" lon="5.92588">
        <ele>991.4</ele>
        <time>2021-10-17T12:52:32Z</time>
      </trkpt>
      <trkpt lat="46.37899" lon="5.92593">
        <ele>991.4</ele>
        <time>2021-10-17T12:52:33Z</time>
      </trkpt>
      <trkpt lat="46.379" lon="5.92598">
        <ele>991.8</ele>
        <time>2021-10-17T12:52:34Z</time>
      </trkpt>
      <trkpt lat="46.37901" lon="5.92602">
        <ele>991.8</ele>
        <time>2021-10-17T12:52:35Z</time>
      </trkpt>
      <trkpt lat="46.37903" lon="5.92607">
        <ele>992</ele>
        <time>2021-10-17T12:52:36Z</time>
      </trkpt>
      <trkpt lat="46.37904" lon="5.92612">
        <ele>992</ele>
        <time>2021-10-17T12:52:37Z</time>
      </trkpt>
      <trkpt lat="46.37906" lon="5.92616">
        <ele>992.4</ele>
        <time>2021-10-17T12:52:38Z</time>
      </trkpt>
      <trkpt lat="46.37909" lon="5.9262">
        <ele>992.4</ele>
        <time>2021-10-17T12:52:39Z</time>
      </trkpt>
      <trkpt lat="46.37911" lon="5.92624">
        <ele>992.6</ele>
        <time>2021-10-17T12:52:40Z</time>
      </trkpt>
      <trkpt lat="46.37913" lon="5.92628">
        <ele>992.6</ele>
        <time>2021-10-17T12:52:41Z</time>
      </trkpt>
      <trkpt lat="46.37916" lon="5.92632">
        <ele>992.6</ele>
        <time>2021-10-17T12:52:42Z</time>
      </trkpt>
      <trkpt lat="46.37918" lon="5.92635">
        <ele>992.8</ele>
        <time>2021-10-17T12:52:43Z</time>
      </trkpt>
      <trkpt lat="46.37921" lon="5.92638">
        <ele>992.8</ele>
        <time>2021-10-17T12:52:44Z</time>
      </trkpt>
      <trkpt lat="46.37924" lon="5.92642">
        <ele>992.8</ele>
        <time>2021-10-17T12:52:45Z</time>
      </trkpt>
      <trkpt lat="46.37926" lon="5.92645">
        <ele>993.2</ele>
        <time>2021-10-17T12:52:46Z</time>
      </trkpt>
      <trkpt lat="46.37929" lon="5.92647">
        <ele>993.2</ele>
        <time>2021-10-17T12:52:47Z</time>
      </trkpt>
      <trkpt lat="46.37932" lon="5.9265">
        <ele>993.2</ele>
        <time>2021-10-17T12:52:48Z</time>
      </trkpt>
      <trkpt lat="46.37934" lon="5.92653">
        <ele>993.4</ele>
        <time>2021-10-17T12:52:49Z</time>
      </trkpt>
      <trkpt lat="46.37937" lon="5.92655">
        <ele>993.4</ele>
        <time>2021-10-17T12:52:50Z</time>
      </trkpt>
      <trkpt lat="46.3794" lon="5.92658">
        <ele>993.6</ele>
        <time>2021-10-17T12:52:51Z</time>
      </trkpt>
      <trkpt lat="46.37942" lon="5.92661">
        <ele>993.6</ele>
        <time>2021-10-17T12:52:52Z</time>
      </trkpt>
      <trkpt lat="46.37945" lon="5.92664">
        <ele>993.8</ele>
        <time>2021-10-17T12:52:53Z</time>
      </trkpt>
      <trkpt lat="46.37947" lon="5.92666">
        <ele>993.8</ele>
        <time>2021-10-17T12:52:54Z</time>
      </trkpt>
      <trkpt lat="46.3795" lon="5.92669">
        <ele>993.8</ele>
        <time>2021-10-17T12:52:55Z</time>
      </trkpt>
      <trkpt lat="46.37952" lon="5.92672">
        <ele>994.2</ele>
        <time>2021-10-17T12:52:56Z</time>
      </trkpt>
      <trkpt lat="46.37955" lon="5.92675">
        <ele>994.2</ele>
        <time>2021-10-17T12:52:57Z</time>
      </trkpt>
      <trkpt lat="46.37958" lon="5.92678">
        <ele>994.6</ele>
        <time>2021-10-17T12:52:58Z</time>
      </trkpt>
      <trkpt lat="46.3796" lon="5.92681">
        <ele>994.6</ele>
        <time>2021-10-17T12:52:59Z</time>
      </trkpt>
      <trkpt lat="46.37963" lon="5.92684">
        <ele>994.6</ele>
        <time>2021-10-17T12:53:00Z</time>
      </trkpt>
      <trkpt lat="46.37966" lon="5.92687">
        <ele>994.8</ele>
        <time>2021-10-17T12:53:01Z</time>
      </trkpt>
      <trkpt lat="46.37969" lon="5.9269">
        <ele>994.8</ele>
        <time>2021-10-17T12:53:02Z</time>
      </trkpt>
      <trkpt lat="46.37972" lon="5.92693">
        <ele>995.2</ele>
        <time>2021-10-17T12:53:03Z</time>
      </trkpt>
      <trkpt lat="46.37974" lon="5.92696">
        <ele>995.2</ele>
        <time>2021-10-17T12:53:04Z</time>
      </trkpt>
      <trkpt lat="46.37977" lon="5.927">
        <ele>995.4</ele>
        <time>2021-10-17T12:53:05Z</time>
      </trkpt>
      <trkpt lat="46.3798" lon="5.92703">
        <ele>995.4</ele>
        <time>2021-10-17T12:53:06Z</time>
      </trkpt>
      <trkpt lat="46.37982" lon="5.92706">
        <ele>995.6</ele>
        <time>2021-10-17T12:53:07Z</time>
      </trkpt>
      <trkpt lat="46.37985" lon="5.92709">
        <ele>995.6</ele>
        <time>2021-10-17T12:53:08Z</time>
      </trkpt>
      <trkpt lat="46.37988" lon="5.92712">
        <ele>996</ele>
        <time>2021-10-17T12:53:09Z</time>
      </trkpt>
      <trkpt lat="46.37991" lon="5.92716">
        <ele>996</ele>
        <time>2021-10-17T12:53:10Z</time>
      </trkpt>
      <trkpt lat="46.37994" lon="5.92719">
        <ele>996</ele>
        <time>2021-10-17T12:53:11Z</time>
      </trkpt>
      <trkpt lat="46.37997" lon="5.92722">
        <ele>996.2</ele>
        <time>2021-10-17T12:53:12Z</time>
      </trkpt>
      <trkpt lat="46.38" lon="5.92725">
        <ele>996.4</ele>
        <time>2021-10-17T12:53:13Z</time>
      </trkpt>
      <trkpt lat="46.38003" lon="5.92729">
        <ele>996.4</ele>
        <time>2021-10-17T12:53:14Z</time>
      </trkpt>
      <trkpt lat="46.38006" lon="5.92732">
        <ele>996.8</ele>
        <time>2021-10-17T12:53:15Z</time>
      </trkpt>
      <trkpt lat="46.38009" lon="5.92735">
        <ele>996.8</ele>
        <time>2021-10-17T12:53:16Z</time>
      </trkpt>
      <trkpt lat="46.38011" lon="5.92738">
        <ele>997.2</ele>
        <time>2021-10-17T12:53:17Z</time>
      </trkpt>
      <trkpt lat="46.38014" lon="5.92742">
        <ele>997.2</ele>
        <time>2021-10-17T12:53:18Z</time>
      </trkpt>
      <trkpt lat="46.38017" lon="5.92745">
        <ele>997.2</ele>
        <time>2021-10-17T12:53:19Z</time>
      </trkpt>
      <trkpt lat="46.3802" lon="5.92748">
        <ele>997.4</ele>
        <time>2021-10-17T12:53:20Z</time>
      </trkpt>
      <trkpt lat="46.38023" lon="5.92751">
        <ele>997.4</ele>
        <time>2021-10-17T12:53:21Z</time>
      </trkpt>
      <trkpt lat="46.38026" lon="5.92754">
        <ele>997.8</ele>
        <time>2021-10-17T12:53:22Z</time>
      </trkpt>
      <trkpt lat="46.38029" lon="5.92757">
        <ele>997.8</ele>
        <time>2021-10-17T12:53:23Z</time>
      </trkpt>
      <trkpt lat="46.38032" lon="5.9276">
        <ele>998</ele>
        <time>2021-10-17T12:53:24Z</time>
      </trkpt>
      <trkpt lat="46.38034" lon="5.92764">
        <ele>998</ele>
        <time>2021-10-17T12:53:25Z</time>
      </trkpt>
      <trkpt lat="46.38037" lon="5.92767">
        <ele>998</ele>
        <time>2021-10-17T12:53:26Z</time>
      </trkpt>
      <trkpt lat="46.3804" lon="5.9277">
        <ele>998.4</ele>
        <time>2021-10-17T12:53:27Z</time>
      </trkpt>
      <trkpt lat="46.38043" lon="5.92773">
        <ele>998.4</ele>
        <time>2021-10-17T12:53:28Z</time>
      </trkpt>
      <trkpt lat="46.38046" lon="5.92776">
        <ele>998.6</ele>
        <time>2021-10-17T12:53:29Z</time>
      </trkpt>
      <trkpt lat="46.38049" lon="5.9278">
        <ele>998.6</ele>
        <time>2021-10-17T12:53:30Z</time>
      </trkpt>
      <trkpt lat="46.38052" lon="5.92783">
        <ele>998.6</ele>
        <time>2021-10-17T12:53:31Z</time>
      </trkpt>
      <trkpt lat="46.38055" lon="5.92786">
        <ele>998.8</ele>
        <time>2021-10-17T12:53:32Z</time>
      </trkpt>
      <trkpt lat="46.38058" lon="5.9279">
        <ele>998.8</ele>
        <time>2021-10-17T12:53:33Z</time>
      </trkpt>
      <trkpt lat="46.38061" lon="5.92793">
        <ele>999</ele>
        <time>2021-10-17T12:53:34Z</time>
      </trkpt>
      <trkpt lat="46.38064" lon="5.92797">
        <ele>999</ele>
        <time>2021-10-17T12:53:35Z</time>
      </trkpt>
      <trkpt lat="46.38067" lon="5.928">
        <ele>999.4</ele>
        <time>2021-10-17T12:53:36Z</time>
      </trkpt>
      <trkpt lat="46.3807" lon="5.92804">
        <ele>999.6</ele>
        <time>2021-10-17T12:53:37Z</time>
      </trkpt>
      <trkpt lat="46.38073" lon="5.92807">
        <ele>999.6</ele>
        <time>2021-10-17T12:53:38Z</time>
      </trkpt>
      <trkpt lat="46.38076" lon="5.9281">
        <ele>999.6</ele>
        <time>2021-10-17T12:53:39Z</time>
      </trkpt>
      <trkpt lat="46.38079" lon="5.92814">
        <ele>999.8</ele>
        <time>2021-10-17T12:53:40Z</time>
      </trkpt>
      <trkpt lat="46.38082" lon="5.92817">
        <ele>999.8</ele>
        <time>2021-10-17T12:53:41Z</time>
      </trkpt>
      <trkpt lat="46.38084" lon="5.9282">
        <ele>1000.2</ele>
        <time>2021-10-17T12:53:42Z</time>
      </trkpt>
      <trkpt lat="46.38087" lon="5.92823">
        <ele>1000.2</ele>
        <time>2021-10-17T12:53:43Z</time>
      </trkpt>
      <trkpt lat="46.3809" lon="5.92826">
        <ele>1000.4</ele>
        <time>2021-10-17T12:53:44Z</time>
      </trkpt>
      <trkpt lat="46.38093" lon="5.92829">
        <ele>1000.4</ele>
        <time>2021-10-17T12:53:45Z</time>
      </trkpt>
      <trkpt lat="46.38096" lon="5.92832">
        <ele>1000.6</ele>
        <time>2021-10-17T12:53:46Z</time>
      </trkpt>
      <trkpt lat="46.38099" lon="5.92835">
        <ele>1000.6</ele>
        <time>2021-10-17T12:53:47Z</time>
      </trkpt>
      <trkpt lat="46.38102" lon="5.92837">
        <ele>1000.8</ele>
        <time>2021-10-17T12:53:48Z</time>
      </trkpt>
      <trkpt lat="46.38105" lon="5.9284">
        <ele>1000.8</ele>
        <time>2021-10-17T12:53:49Z</time>
      </trkpt>
      <trkpt lat="46.38108" lon="5.92843">
        <ele>1001.2</ele>
        <time>2021-10-17T12:53:50Z</time>
      </trkpt>
      <trkpt lat="46.3811" lon="5.92846">
        <ele>1001.2</ele>
        <time>2021-10-17T12:53:51Z</time>
      </trkpt>
      <trkpt lat="46.38113" lon="5.92849">
        <ele>1001.2</ele>
        <time>2021-10-17T12:53:52Z</time>
      </trkpt>
      <trkpt lat="46.38116" lon="5.92852">
        <ele>1001.4</ele>
        <time>2021-10-17T12:53:53Z</time>
      </trkpt>
      <trkpt lat="46.38119" lon="5.92856">
        <ele>1001.4</ele>
        <time>2021-10-17T12:53:54Z</time>
      </trkpt>
      <trkpt lat="46.38121" lon="5.92859">
        <ele>1001.8</ele>
        <time>2021-10-17T12:53:55Z</time>
      </trkpt>
      <trkpt lat="46.38124" lon="5.92862">
        <ele>1001.8</ele>
        <time>2021-10-17T12:53:56Z</time>
      </trkpt>
      <trkpt lat="46.38127" lon="5.92866">
        <ele>1002.2</ele>
        <time>2021-10-17T12:53:57Z</time>
      </trkpt>
      <trkpt lat="46.3813" lon="5.92869">
        <ele>1002.2</ele>
        <time>2021-10-17T12:53:58Z</time>
      </trkpt>
      <trkpt lat="46.38133" lon="5.92873">
        <ele>1002.4</ele>
        <time>2021-10-17T12:53:59Z</time>
      </trkpt>
      <trkpt lat="46.38136" lon="5.92876">
        <ele>1002.4</ele>
        <time>2021-10-17T12:54:00Z</time>
      </trkpt>
      <trkpt lat="46.38139" lon="5.92879">
        <ele>1002.8</ele>
        <time>2021-10-17T12:54:01Z</time>
      </trkpt>
      <trkpt lat="46.38142" lon="5.92882">
        <ele>1002.8</ele>
        <time>2021-10-17T12:54:02Z</time>
      </trkpt>
      <trkpt lat="46.38145" lon="5.92885">
        <ele>1003</ele>
        <time>2021-10-17T12:54:03Z</time>
      </trkpt>
      <trkpt lat="46.38148" lon="5.92888">
        <ele>1003</ele>
        <time>2021-10-17T12:54:04Z</time>
      </trkpt>
      <trkpt lat="46.3815" lon="5.92891">
        <ele>1003.2</ele>
        <time>2021-10-17T12:54:05Z</time>
      </trkpt>
      <trkpt lat="46.38153" lon="5.92894">
        <ele>1003.2</ele>
        <time>2021-10-17T12:54:06Z</time>
      </trkpt>
      <trkpt lat="46.38156" lon="5.92897">
        <ele>1003.6</ele>
        <time>2021-10-17T12:54:07Z</time>
      </trkpt>
      <trkpt lat="46.38158" lon="5.92899">
        <ele>1003.8</ele>
        <time>2021-10-17T12:54:08Z</time>
      </trkpt>
      <trkpt lat="46.38161" lon="5.92902">
        <ele>1003.8</ele>
        <time>2021-10-17T12:54:09Z</time>
      </trkpt>
      <trkpt lat="46.38164" lon="5.92905">
        <ele>1004</ele>
        <time>2021-10-17T12:54:10Z</time>
      </trkpt>
      <trkpt lat="46.38167" lon="5.92908">
        <ele>1004</ele>
        <time>2021-10-17T12:54:11Z</time>
      </trkpt>
      <trkpt lat="46.3817" lon="5.92911">
        <ele>1004</ele>
        <time>2021-10-17T12:54:12Z</time>
      </trkpt>
      <trkpt lat="46.38173" lon="5.92915">
        <ele>1004.4</ele>
        <time>2021-10-17T12:54:13Z</time>
      </trkpt>
      <trkpt lat="46.38176" lon="5.92918">
        <ele>1004.4</ele>
        <time>2021-10-17T12:54:14Z</time>
      </trkpt>
      <trkpt lat="46.38178" lon="5.92922">
        <ele>1004.8</ele>
        <time>2021-10-17T12:54:15Z</time>
      </trkpt>
      <trkpt lat="46.38181" lon="5.92926">
        <ele>1005</ele>
        <time>2021-10-17T12:54:16Z</time>
      </trkpt>
      <trkpt lat="46.38183" lon="5.9293">
        <ele>1005</ele>
        <time>2021-10-17T12:54:17Z</time>
      </trkpt>
      <trkpt lat="46.38186" lon="5.92935">
        <ele>1005.2</ele>
        <time>2021-10-17T12:54:18Z</time>
      </trkpt>
      <trkpt lat="46.38188" lon="5.92939">
        <ele>1005.2</ele>
        <time>2021-10-17T12:54:19Z</time>
      </trkpt>
      <trkpt lat="46.38191" lon="5.92943">
        <ele>1005.4</ele>
        <time>2021-10-17T12:54:20Z</time>
      </trkpt>
      <trkpt lat="46.38193" lon="5.92948">
        <ele>1005.4</ele>
        <time>2021-10-17T12:54:21Z</time>
      </trkpt>
      <trkpt lat="46.38195" lon="5.92952">
        <ele>1005.8</ele>
        <time>2021-10-17T12:54:22Z</time>
      </trkpt>
      <trkpt lat="46.38197" lon="5.92956">
        <ele>1005.8</ele>
        <time>2021-10-17T12:54:23Z</time>
      </trkpt>
      <trkpt lat="46.38199" lon="5.92961">
        <ele>1006.2</ele>
        <time>2021-10-17T12:54:24Z</time>
      </trkpt>
      <trkpt lat="46.38201" lon="5.92966">
        <ele>1006.2</ele>
        <time>2021-10-17T12:54:25Z</time>
      </trkpt>
      <trkpt lat="46.38203" lon="5.9297">
        <ele>1006.6</ele>
        <time>2021-10-17T12:54:26Z</time>
      </trkpt>
      <trkpt lat="46.38205" lon="5.92975">
        <ele>1006.6</ele>
        <time>2021-10-17T12:54:27Z</time>
      </trkpt>
      <trkpt lat="46.38207" lon="5.9298">
        <ele>1006.8</ele>
        <time>2021-10-17T12:54:28Z</time>
      </trkpt>
      <trkpt lat="46.38209" lon="5.92984">
        <ele>1006.8</ele>
        <time>2021-10-17T12:54:29Z</time>
      </trkpt>
      <trkpt lat="46.38211" lon="5.92989">
        <ele>1007.2</ele>
        <time>2021-10-17T12:54:30Z</time>
      </trkpt>
      <trkpt lat="46.38213" lon="5.92994">
        <ele>1007.2</ele>
        <time>2021-10-17T12:54:31Z</time>
      </trkpt>
      <trkpt lat="46.38215" lon="5.92998">
        <ele>1007.6</ele>
        <time>2021-10-17T12:54:32Z</time>
      </trkpt>
      <trkpt lat="46.38217" lon="5.93002">
        <ele>1007.6</ele>
        <time>2021-10-17T12:54:33Z</time>
      </trkpt>
      <trkpt lat="46.38219" lon="5.93007">
        <ele>1007.8</ele>
        <time>2021-10-17T12:54:34Z</time>
      </trkpt>
      <trkpt lat="46.38221" lon="5.93011">
        <ele>1007.8</ele>
        <time>2021-10-17T12:54:35Z</time>
      </trkpt>
      <trkpt lat="46.38222" lon="5.93015">
        <ele>1008</ele>
        <time>2021-10-17T12:54:36Z</time>
      </trkpt>
      <trkpt lat="46.38224" lon="5.9302">
        <ele>1008</ele>
        <time>2021-10-17T12:54:37Z</time>
      </trkpt>
      <trkpt lat="46.38226" lon="5.93024">
        <ele>1008.4</ele>
        <time>2021-10-17T12:54:38Z</time>
      </trkpt>
      <trkpt lat="46.38228" lon="5.93028">
        <ele>1008.4</ele>
        <time>2021-10-17T12:54:39Z</time>
      </trkpt>
      <trkpt lat="46.3823" lon="5.93033">
        <ele>1008.4</ele>
        <time>2021-10-17T12:54:40Z</time>
      </trkpt>
      <trkpt lat="46.38232" lon="5.93037">
        <ele>1008.6</ele>
        <time>2021-10-17T12:54:41Z</time>
      </trkpt>
      <trkpt lat="46.38234" lon="5.9304">
        <ele>1008.6</ele>
        <time>2021-10-17T12:54:42Z</time>
      </trkpt>
      <trkpt lat="46.38236" lon="5.93044">
        <ele>1008.8</ele>
        <time>2021-10-17T12:54:43Z</time>
      </trkpt>
      <trkpt lat="46.38238" lon="5.93048">
        <ele>1008.8</ele>
        <time>2021-10-17T12:54:44Z</time>
      </trkpt>
      <trkpt lat="46.3824" lon="5.93052">
        <ele>1009.2</ele>
        <time>2021-10-17T12:54:45Z</time>
      </trkpt>
      <trkpt lat="46.38242" lon="5.93056">
        <ele>1009.2</ele>
        <time>2021-10-17T12:54:46Z</time>
      </trkpt>
      <trkpt lat="46.38243" lon="5.9306">
        <ele>1009.4</ele>
        <time>2021-10-17T12:54:47Z</time>
      </trkpt>
      <trkpt lat="46.38245" lon="5.93065">
        <ele>1009.4</ele>
        <time>2021-10-17T12:54:48Z</time>
      </trkpt>
      <trkpt lat="46.38247" lon="5.93069">
        <ele>1009.6</ele>
        <time>2021-10-17T12:54:49Z</time>
      </trkpt>
      <trkpt lat="46.38249" lon="5.93073">
        <ele>1009.6</ele>
        <time>2021-10-17T12:54:50Z</time>
      </trkpt>
      <trkpt lat="46.38251" lon="5.93077">
        <ele>1010</ele>
        <time>2021-10-17T12:54:51Z</time>
      </trkpt>
      <trkpt lat="46.38253" lon="5.93082">
        <ele>1010</ele>
        <time>2021-10-17T12:54:52Z</time>
      </trkpt>
      <trkpt lat="46.38255" lon="5.93086">
        <ele>1010.4</ele>
        <time>2021-10-17T12:54:53Z</time>
      </trkpt>
      <trkpt lat="46.38257" lon="5.93091">
        <ele>1010.4</ele>
        <time>2021-10-17T12:54:54Z</time>
      </trkpt>
      <trkpt lat="46.38259" lon="5.93095">
        <ele>1010.6</ele>
        <time>2021-10-17T12:54:55Z</time>
      </trkpt>
      <trkpt lat="46.38261" lon="5.931">
        <ele>1010.6</ele>
        <time>2021-10-17T12:54:56Z</time>
      </trkpt>
      <trkpt lat="46.38263" lon="5.93104">
        <ele>1010.8</ele>
        <time>2021-10-17T12:54:57Z</time>
      </trkpt>
      <trkpt lat="46.38265" lon="5.93109">
        <ele>1010.8</ele>
        <time>2021-10-17T12:54:58Z</time>
      </trkpt>
      <trkpt lat="46.38267" lon="5.93113">
        <ele>1011</ele>
        <time>2021-10-17T12:54:59Z</time>
      </trkpt>
      <trkpt lat="46.38269" lon="5.93118">
        <ele>1011</ele>
        <time>2021-10-17T12:55:00Z</time>
      </trkpt>
      <trkpt lat="46.38271" lon="5.93122">
        <ele>1011.4</ele>
        <time>2021-10-17T12:55:01Z</time>
      </trkpt>
      <trkpt lat="46.38273" lon="5.93127">
        <ele>1011.4</ele>
        <time>2021-10-17T12:55:02Z</time>
      </trkpt>
      <trkpt lat="46.38275" lon="5.93131">
        <ele>1011.6</ele>
        <time>2021-10-17T12:55:03Z</time>
      </trkpt>
      <trkpt lat="46.38277" lon="5.93135">
        <ele>1011.6</ele>
        <time>2021-10-17T12:55:04Z</time>
      </trkpt>
      <trkpt lat="46.38279" lon="5.9314">
        <ele>1012</ele>
        <time>2021-10-17T12:55:05Z</time>
      </trkpt>
      <trkpt lat="46.38281" lon="5.93144">
        <ele>1012</ele>
        <time>2021-10-17T12:55:06Z</time>
      </trkpt>
      <trkpt lat="46.38283" lon="5.93148">
        <ele>1012.4</ele>
        <time>2021-10-17T12:55:07Z</time>
      </trkpt>
      <trkpt lat="46.38285" lon="5.93153">
        <ele>1012.4</ele>
        <time>2021-10-17T12:55:08Z</time>
      </trkpt>
      <trkpt lat="46.38287" lon="5.93156">
        <ele>1012.6</ele>
        <time>2021-10-17T12:55:09Z</time>
      </trkpt>
      <trkpt lat="46.38289" lon="5.9316">
        <ele>1012.6</ele>
        <time>2021-10-17T12:55:10Z</time>
      </trkpt>
      <trkpt lat="46.38291" lon="5.93165">
        <ele>1012.8</ele>
        <time>2021-10-17T12:55:11Z</time>
      </trkpt>
      <trkpt lat="46.38293" lon="5.93169">
        <ele>1012.8</ele>
        <time>2021-10-17T12:55:12Z</time>
      </trkpt>
      <trkpt lat="46.38295" lon="5.93173">
        <ele>1013.2</ele>
        <time>2021-10-17T12:55:13Z</time>
      </trkpt>
      <trkpt lat="46.38297" lon="5.93176">
        <ele>1013.2</ele>
        <time>2021-10-17T12:55:14Z</time>
      </trkpt>
      <trkpt lat="46.383" lon="5.9318">
        <ele>1013.6</ele>
        <time>2021-10-17T12:55:15Z</time>
      </trkpt>
      <trkpt lat="46.38302" lon="5.93184">
        <ele>1013.6</ele>
        <time>2021-10-17T12:55:16Z</time>
      </trkpt>
      <trkpt lat="46.38304" lon="5.93188">
        <ele>1013.6</ele>
        <time>2021-10-17T12:55:17Z</time>
      </trkpt>
      <trkpt lat="46.38307" lon="5.93192">
        <ele>1013.8</ele>
        <time>2021-10-17T12:55:18Z</time>
      </trkpt>
      <trkpt lat="46.38309" lon="5.93195">
        <ele>1013.8</ele>
        <time>2021-10-17T12:55:19Z</time>
      </trkpt>
      <trkpt lat="46.38312" lon="5.93199">
        <ele>1014</ele>
        <time>2021-10-17T12:55:20Z</time>
      </trkpt>
      <trkpt lat="46.38314" lon="5.93203">
        <ele>1014</ele>
        <time>2021-10-17T12:55:21Z</time>
      </trkpt>
      <trkpt lat="46.38316" lon="5.93206">
        <ele>1014</ele>
        <time>2021-10-17T12:55:22Z</time>
      </trkpt>
      <trkpt lat="46.38319" lon="5.9321">
        <ele>1014.4</ele>
        <time>2021-10-17T12:55:23Z</time>
      </trkpt>
      <trkpt lat="46.38321" lon="5.93213">
        <ele>1014.4</ele>
        <time>2021-10-17T12:55:24Z</time>
      </trkpt>
      <trkpt lat="46.38324" lon="5.93217">
        <ele>1014.8</ele>
        <time>2021-10-17T12:55:25Z</time>
      </trkpt>
      <trkpt lat="46.38327" lon="5.9322">
        <ele>1014.8</ele>
        <time>2021-10-17T12:55:26Z</time>
      </trkpt>
      <trkpt lat="46.38329" lon="5.93224">
        <ele>1015.2</ele>
        <time>2021-10-17T12:55:27Z</time>
      </trkpt>
      <trkpt lat="46.38331" lon="5.93227">
        <ele>1015.2</ele>
        <time>2021-10-17T12:55:28Z</time>
      </trkpt>
      <trkpt lat="46.38334" lon="5.9323">
        <ele>1015.2</ele>
        <time>2021-10-17T12:55:29Z</time>
      </trkpt>
      <trkpt lat="46.38336" lon="5.93233">
        <ele>1015.4</ele>
        <time>2021-10-17T12:55:30Z</time>
      </trkpt>
      <trkpt lat="46.38339" lon="5.93237">
        <ele>1015.4</ele>
        <time>2021-10-17T12:55:31Z</time>
      </trkpt>
      <trkpt lat="46.38341" lon="5.9324">
        <ele>1015.4</ele>
        <time>2021-10-17T12:55:32Z</time>
      </trkpt>
      <trkpt lat="46.38344" lon="5.93243">
        <ele>1015.6</ele>
        <time>2021-10-17T12:55:33Z</time>
      </trkpt>
      <trkpt lat="46.38346" lon="5.93247">
        <ele>1015.6</ele>
        <time>2021-10-17T12:55:34Z</time>
      </trkpt>
      <trkpt lat="46.38348" lon="5.9325">
        <ele>1016</ele>
        <time>2021-10-17T12:55:35Z</time>
      </trkpt>
      <trkpt lat="46.38351" lon="5.93253">
        <ele>1016</ele>
        <time>2021-10-17T12:55:36Z</time>
      </trkpt>
      <trkpt lat="46.38353" lon="5.93257">
        <ele>1016.2</ele>
        <time>2021-10-17T12:55:37Z</time>
      </trkpt>
      <trkpt lat="46.38356" lon="5.9326">
        <ele>1016.4</ele>
        <time>2021-10-17T12:55:38Z</time>
      </trkpt>
      <trkpt lat="46.38358" lon="5.93264">
        <ele>1016.4</ele>
        <time>2021-10-17T12:55:39Z</time>
      </trkpt>
      <trkpt lat="46.3836" lon="5.93267">
        <ele>1016.8</ele>
        <time>2021-10-17T12:55:40Z</time>
      </trkpt>
      <trkpt lat="46.38363" lon="5.93271">
        <ele>1016.8</ele>
        <time>2021-10-17T12:55:41Z</time>
      </trkpt>
      <trkpt lat="46.38365" lon="5.93274">
        <ele>1017</ele>
        <time>2021-10-17T12:55:42Z</time>
      </trkpt>
      <trkpt lat="46.38368" lon="5.93277">
        <ele>1017</ele>
        <time>2021-10-17T12:55:43Z</time>
      </trkpt>
      <trkpt lat="46.38371" lon="5.9328">
        <ele>1017.4</ele>
        <time>2021-10-17T12:55:44Z</time>
      </trkpt>
      <trkpt lat="46.38373" lon="5.93284">
        <ele>1017.4</ele>
        <time>2021-10-17T12:55:45Z</time>
      </trkpt>
      <trkpt lat="46.38376" lon="5.93288">
        <ele>1017.4</ele>
        <time>2021-10-17T12:55:46Z</time>
      </trkpt>
      <trkpt lat="46.38378" lon="5.93291">
        <ele>1017.6</ele>
        <time>2021-10-17T12:55:47Z</time>
      </trkpt>
      <trkpt lat="46.38381" lon="5.93295">
        <ele>1017.6</ele>
        <time>2021-10-17T12:55:48Z</time>
      </trkpt>
      <trkpt lat="46.38384" lon="5.93299">
        <ele>1018.2</ele>
        <time>2021-10-17T12:55:49Z</time>
      </trkpt>
      <trkpt lat="46.38386" lon="5.93302">
        <ele>1018.2</ele>
        <time>2021-10-17T12:55:50Z</time>
      </trkpt>
      <trkpt lat="46.38389" lon="5.93306">
        <ele>1018.4</ele>
        <time>2021-10-17T12:55:51Z</time>
      </trkpt>
      <trkpt lat="46.38392" lon="5.9331">
        <ele>1018.4</ele>
        <time>2021-10-17T12:55:52Z</time>
      </trkpt>
      <trkpt lat="46.38395" lon="5.93314">
        <ele>1018.8</ele>
        <time>2021-10-17T12:55:53Z</time>
      </trkpt>
      <trkpt lat="46.38397" lon="5.93317">
        <ele>1018.8</ele>
        <time>2021-10-17T12:55:54Z</time>
      </trkpt>
      <trkpt lat="46.384" lon="5.93321">
        <ele>1019.2</ele>
        <time>2021-10-17T12:55:55Z</time>
      </trkpt>
      <trkpt lat="46.38403" lon="5.93325">
        <ele>1019.2</ele>
        <time>2021-10-17T12:55:56Z</time>
      </trkpt>
      <trkpt lat="46.38405" lon="5.93328">
        <ele>1019.4</ele>
        <time>2021-10-17T12:55:57Z</time>
      </trkpt>
      <trkpt lat="46.38408" lon="5.93332">
        <ele>1019.4</ele>
        <time>2021-10-17T12:55:58Z</time>
      </trkpt>
      <trkpt lat="46.38411" lon="5.93335">
        <ele>1019.8</ele>
        <time>2021-10-17T12:55:59Z</time>
      </trkpt>
      <trkpt lat="46.38414" lon="5.93339">
        <ele>1019.8</ele>
        <time>2021-10-17T12:56:00Z</time>
      </trkpt>
      <trkpt lat="46.38416" lon="5.93342">
        <ele>1020.2</ele>
        <time>2021-10-17T12:56:01Z</time>
      </trkpt>
      <trkpt lat="46.38419" lon="5.93345">
        <ele>1020.2</ele>
        <time>2021-10-17T12:56:02Z</time>
      </trkpt>
      <trkpt lat="46.38422" lon="5.93349">
        <ele>1020.4</ele>
        <time>2021-10-17T12:56:03Z</time>
      </trkpt>
      <trkpt lat="46.38425" lon="5.93352">
        <ele>1020.4</ele>
        <time>2021-10-17T12:56:04Z</time>
      </trkpt>
      <trkpt lat="46.38428" lon="5.93356">
        <ele>1020.6</ele>
        <time>2021-10-17T12:56:05Z</time>
      </trkpt>
      <trkpt lat="46.3843" lon="5.93359">
        <ele>1020.6</ele>
        <time>2021-10-17T12:56:06Z</time>
      </trkpt>
      <trkpt lat="46.38433" lon="5.93362">
        <ele>1021</ele>
        <time>2021-10-17T12:56:07Z</time>
      </trkpt>
      <trkpt lat="46.38436" lon="5.93365">
        <ele>1021</ele>
        <time>2021-10-17T12:56:08Z</time>
      </trkpt>
      <trkpt lat="46.38438" lon="5.93368">
        <ele>1021.2</ele>
        <time>2021-10-17T12:56:09Z</time>
      </trkpt>
      <trkpt lat="46.38441" lon="5.93372">
        <ele>1021.2</ele>
        <time>2021-10-17T12:56:10Z</time>
      </trkpt>
      <trkpt lat="46.38444" lon="5.93375">
        <ele>1021.2</ele>
        <time>2021-10-17T12:56:11Z</time>
      </trkpt>
      <trkpt lat="46.38447" lon="5.93379">
        <ele>1021.6</ele>
        <time>2021-10-17T12:56:12Z</time>
      </trkpt>
      <trkpt lat="46.3845" lon="5.93382">
        <ele>1021.6</ele>
        <time>2021-10-17T12:56:13Z</time>
      </trkpt>
      <trkpt lat="46.38452" lon="5.93386">
        <ele>1022</ele>
        <time>2021-10-17T12:56:14Z</time>
      </trkpt>
      <trkpt lat="46.38455" lon="5.9339">
        <ele>1022</ele>
        <time>2021-10-17T12:56:15Z</time>
      </trkpt>
      <trkpt lat="46.38458" lon="5.93393">
        <ele>1022.2</ele>
        <time>2021-10-17T12:56:16Z</time>
      </trkpt>
      <trkpt lat="46.3846" lon="5.93398">
        <ele>1022.2</ele>
        <time>2021-10-17T12:56:17Z</time>
      </trkpt>
      <trkpt lat="46.38462" lon="5.93402">
        <ele>1022.6</ele>
        <time>2021-10-17T12:56:18Z</time>
      </trkpt>
      <trkpt lat="46.38465" lon="5.93407">
        <ele>1022.6</ele>
        <time>2021-10-17T12:56:19Z</time>
      </trkpt>
      <trkpt lat="46.38467" lon="5.93411">
        <ele>1022.8</ele>
        <time>2021-10-17T12:56:20Z</time>
      </trkpt>
      <trkpt lat="46.38469" lon="5.93415">
        <ele>1022.8</ele>
        <time>2021-10-17T12:56:21Z</time>
      </trkpt>
      <trkpt lat="46.38471" lon="5.9342">
        <ele>1023</ele>
        <time>2021-10-17T12:56:22Z</time>
      </trkpt>
      <trkpt lat="46.38473" lon="5.93425">
        <ele>1023</ele>
        <time>2021-10-17T12:56:23Z</time>
      </trkpt>
      <trkpt lat="46.38475" lon="5.9343">
        <ele>1023.2</ele>
        <time>2021-10-17T12:56:24Z</time>
      </trkpt>
      <trkpt lat="46.38476" lon="5.93436">
        <ele>1023.2</ele>
        <time>2021-10-17T12:56:25Z</time>
      </trkpt>
      <trkpt lat="46.38478" lon="5.93441">
        <ele>1023.2</ele>
        <time>2021-10-17T12:56:26Z</time>
      </trkpt>
      <trkpt lat="46.38478" lon="5.93447">
        <ele>1023.6</ele>
        <time>2021-10-17T12:56:27Z</time>
      </trkpt>
      <trkpt lat="46.38479" lon="5.93453">
        <ele>1023.6</ele>
        <time>2021-10-17T12:56:28Z</time>
      </trkpt>
      <trkpt lat="46.3848" lon="5.93459">
        <ele>1023.8</ele>
        <time>2021-10-17T12:56:29Z</time>
      </trkpt>
      <trkpt lat="46.38481" lon="5.93465">
        <ele>1023.8</ele>
        <time>2021-10-17T12:56:30Z</time>
      </trkpt>
      <trkpt lat="46.38481" lon="5.93471">
        <ele>1023.8</ele>
        <time>2021-10-17T12:56:31Z</time>
      </trkpt>
      <trkpt lat="46.38482" lon="5.93477">
        <ele>1023.8</ele>
        <time>2021-10-17T12:56:32Z</time>
      </trkpt>
      <trkpt lat="46.38482" lon="5.93484">
        <ele>1024</ele>
        <time>2021-10-17T12:56:33Z</time>
      </trkpt>
      <trkpt lat="46.38482" lon="5.93491">
        <ele>1024</ele>
        <time>2021-10-17T12:56:34Z</time>
      </trkpt>
      <trkpt lat="46.38483" lon="5.93498">
        <ele>1024</ele>
        <time>2021-10-17T12:56:35Z</time>
      </trkpt>
      <trkpt lat="46.38483" lon="5.93505">
        <ele>1024</ele>
        <time>2021-10-17T12:56:36Z</time>
      </trkpt>
      <trkpt lat="46.38483" lon="5.93512">
        <ele>1024</ele>
        <time>2021-10-17T12:56:37Z</time>
      </trkpt>
      <trkpt lat="46.38484" lon="5.9352">
        <ele>1024</ele>
        <time>2021-10-17T12:56:38Z</time>
      </trkpt>
      <trkpt lat="46.38484" lon="5.93528">
        <ele>1024</ele>
        <time>2021-10-17T12:56:39Z</time>
      </trkpt>
      <trkpt lat="46.38485" lon="5.93536">
        <ele>1024</ele>
        <time>2021-10-17T12:56:40Z</time>
      </trkpt>
      <trkpt lat="46.38486" lon="5.93543">
        <ele>1024.2</ele>
        <time>2021-10-17T12:56:41Z</time>
      </trkpt>
      <trkpt lat="46.38487" lon="5.93551">
        <ele>1024.2</ele>
        <time>2021-10-17T12:56:42Z</time>
      </trkpt>
      <trkpt lat="46.38488" lon="5.93559">
        <ele>1024.2</ele>
        <time>2021-10-17T12:56:43Z</time>
      </trkpt>
      <trkpt lat="46.3849" lon="5.93566">
        <ele>1024.4</ele>
        <time>2021-10-17T12:56:44Z</time>
      </trkpt>
      <trkpt lat="46.38492" lon="5.93573">
        <ele>1024.4</ele>
        <time>2021-10-17T12:56:45Z</time>
      </trkpt>
      <trkpt lat="46.38494" lon="5.93581">
        <ele>1024.4</ele>
        <time>2021-10-17T12:56:46Z</time>
      </trkpt>
      <trkpt lat="46.38496" lon="5.93588">
        <ele>1024.4</ele>
        <time>2021-10-17T12:56:47Z</time>
      </trkpt>
      <trkpt lat="46.38498" lon="5.93595">
        <ele>1024.8</ele>
        <time>2021-10-17T12:56:48Z</time>
      </trkpt>
      <trkpt lat="46.385" lon="5.93603">
        <ele>1024.8</ele>
        <time>2021-10-17T12:56:49Z</time>
      </trkpt>
      <trkpt lat="46.38502" lon="5.9361">
        <ele>1024.8</ele>
        <time>2021-10-17T12:56:50Z</time>
      </trkpt>
      <trkpt lat="46.38504" lon="5.93618">
        <ele>1024.8</ele>
        <time>2021-10-17T12:56:51Z</time>
      </trkpt>
      <trkpt lat="46.38507" lon="5.93625">
        <ele>1024.8</ele>
        <time>2021-10-17T12:56:52Z</time>
      </trkpt>
      <trkpt lat="46.38509" lon="5.93633">
        <ele>1025</ele>
        <time>2021-10-17T12:56:53Z</time>
      </trkpt>
      <trkpt lat="46.38512" lon="5.9364">
        <ele>1025</ele>
        <time>2021-10-17T12:56:54Z</time>
      </trkpt>
      <trkpt lat="46.38514" lon="5.93647">
        <ele>1025</ele>
        <time>2021-10-17T12:56:55Z</time>
      </trkpt>
      <trkpt lat="46.38516" lon="5.93654">
        <ele>1025.4</ele>
        <time>2021-10-17T12:56:56Z</time>
      </trkpt>
      <trkpt lat="46.38519" lon="5.93661">
        <ele>1025.4</ele>
        <time>2021-10-17T12:56:57Z</time>
      </trkpt>
      <trkpt lat="46.38521" lon="5.93668">
        <ele>1025.8</ele>
        <time>2021-10-17T12:56:58Z</time>
      </trkpt>
      <trkpt lat="46.38523" lon="5.93675">
        <ele>1025.8</ele>
        <time>2021-10-17T12:56:59Z</time>
      </trkpt>
      <trkpt lat="46.38525" lon="5.93682">
        <ele>1026</ele>
        <time>2021-10-17T12:57:00Z</time>
      </trkpt>
      <trkpt lat="46.38528" lon="5.93688">
        <ele>1026</ele>
        <time>2021-10-17T12:57:01Z</time>
      </trkpt>
      <trkpt lat="46.3853" lon="5.93695">
        <ele>1026.2</ele>
        <time>2021-10-17T12:57:02Z</time>
      </trkpt>
      <trkpt lat="46.38532" lon="5.93702">
        <ele>1026.2</ele>
        <time>2021-10-17T12:57:03Z</time>
      </trkpt>
      <trkpt lat="46.38535" lon="5.93709">
        <ele>1026.2</ele>
        <time>2021-10-17T12:57:04Z</time>
      </trkpt>
      <trkpt lat="46.38537" lon="5.93715">
        <ele>1026.4</ele>
        <time>2021-10-17T12:57:05Z</time>
      </trkpt>
      <trkpt lat="46.3854" lon="5.93722">
        <ele>1026.4</ele>
        <time>2021-10-17T12:57:06Z</time>
      </trkpt>
      <trkpt lat="46.38542" lon="5.93728">
        <ele>1026.8</ele>
        <time>2021-10-17T12:57:07Z</time>
      </trkpt>
      <trkpt lat="46.38545" lon="5.93734">
        <ele>1026.8</ele>
        <time>2021-10-17T12:57:08Z</time>
      </trkpt>
      <trkpt lat="46.38548" lon="5.9374">
        <ele>1027.2</ele>
        <time>2021-10-17T12:57:09Z</time>
      </trkpt>
      <trkpt lat="46.38551" lon="5.93746">
        <ele>1027.2</ele>
        <time>2021-10-17T12:57:10Z</time>
      </trkpt>
      <trkpt lat="46.38554" lon="5.93751">
        <ele>1027.4</ele>
        <time>2021-10-17T12:57:11Z</time>
      </trkpt>
      <trkpt lat="46.38557" lon="5.93757">
        <ele>1027.6</ele>
        <time>2021-10-17T12:57:12Z</time>
      </trkpt>
      <trkpt lat="46.38561" lon="5.93762">
        <ele>1027.6</ele>
        <time>2021-10-17T12:57:13Z</time>
      </trkpt>
      <trkpt lat="46.38564" lon="5.93767">
        <ele>1028</ele>
        <time>2021-10-17T12:57:14Z</time>
      </trkpt>
      <trkpt lat="46.38568" lon="5.93772">
        <ele>1028.2</ele>
        <time>2021-10-17T12:57:15Z</time>
      </trkpt>
      <trkpt lat="46.38572" lon="5.93776">
        <ele>1028.2</ele>
        <time>2021-10-17T12:57:16Z</time>
      </trkpt>
      <trkpt lat="46.38575" lon="5.9378">
        <ele>1028.6</ele>
        <time>2021-10-17T12:57:17Z</time>
      </trkpt>
      <trkpt lat="46.38579" lon="5.93784">
        <ele>1028.6</ele>
        <time>2021-10-17T12:57:18Z</time>
      </trkpt>
      <trkpt lat="46.38583" lon="5.93788">
        <ele>1029</ele>
        <time>2021-10-17T12:57:19Z</time>
      </trkpt>
      <trkpt lat="46.38586" lon="5.93792">
        <ele>1029</ele>
        <time>2021-10-17T12:57:20Z</time>
      </trkpt>
      <trkpt lat="46.3859" lon="5.93796">
        <ele>1029.2</ele>
        <time>2021-10-17T12:57:21Z</time>
      </trkpt>
      <trkpt lat="46.38594" lon="5.938">
        <ele>1029.2</ele>
        <time>2021-10-17T12:57:22Z</time>
      </trkpt>
      <trkpt lat="46.38598" lon="5.93803">
        <ele>1029.6</ele>
        <time>2021-10-17T12:57:23Z</time>
      </trkpt>
      <trkpt lat="46.38601" lon="5.93807">
        <ele>1029.6</ele>
        <time>2021-10-17T12:57:24Z</time>
      </trkpt>
      <trkpt lat="46.38605" lon="5.93811">
        <ele>1029.8</ele>
        <time>2021-10-17T12:57:25Z</time>
      </trkpt>
      <trkpt lat="46.38609" lon="5.93815">
        <ele>1029.8</ele>
        <time>2021-10-17T12:57:26Z</time>
      </trkpt>
      <trkpt lat="46.38612" lon="5.9382">
        <ele>1030.2</ele>
        <time>2021-10-17T12:57:27Z</time>
      </trkpt>
      <trkpt lat="46.38616" lon="5.93824">
        <ele>1030.2</ele>
        <time>2021-10-17T12:57:28Z</time>
      </trkpt>
      <trkpt lat="46.38621" lon="5.93828">
        <ele>1030.2</ele>
        <time>2021-10-17T12:57:29Z</time>
      </trkpt>
      <trkpt lat="46.38625" lon="5.93833">
        <ele>1030.2</ele>
        <time>2021-10-17T12:57:30Z</time>
      </trkpt>
      <trkpt lat="46.38629" lon="5.93838">
        <ele>1030.2</ele>
        <time>2021-10-17T12:57:31Z</time>
      </trkpt>
      <trkpt lat="46.38633" lon="5.93842">
        <ele>1030.4</ele>
        <time>2021-10-17T12:57:32Z</time>
      </trkpt>
      <trkpt lat="46.38638" lon="5.93847">
        <ele>1030.4</ele>
        <time>2021-10-17T12:57:33Z</time>
      </trkpt>
      <trkpt lat="46.38642" lon="5.93852">
        <ele>1030.4</ele>
        <time>2021-10-17T12:57:34Z</time>
      </trkpt>
      <trkpt lat="46.38647" lon="5.93857">
        <ele>1030.4</ele>
        <time>2021-10-17T12:57:35Z</time>
      </trkpt>
      <trkpt lat="46.38652" lon="5.93863">
        <ele>1030.4</ele>
        <time>2021-10-17T12:57:36Z</time>
      </trkpt>
      <trkpt lat="46.38656" lon="5.93869">
        <ele>1030.4</ele>
        <time>2021-10-17T12:57:37Z</time>
      </trkpt>
      <trkpt lat="46.38661" lon="5.93874">
        <ele>1030.4</ele>
        <time>2021-10-17T12:57:38Z</time>
      </trkpt>
      <trkpt lat="46.38666" lon="5.9388">
        <ele>1030.4</ele>
        <time>2021-10-17T12:57:39Z</time>
      </trkpt>
      <trkpt lat="46.38671" lon="5.93887">
        <ele>1030.2</ele>
        <time>2021-10-17T12:57:40Z</time>
      </trkpt>
      <trkpt lat="46.38675" lon="5.93894">
        <ele>1030.2</ele>
        <time>2021-10-17T12:57:41Z</time>
      </trkpt>
      <trkpt lat="46.38678" lon="5.93902">
        <ele>1030.2</ele>
        <time>2021-10-17T12:57:42Z</time>
      </trkpt>
      <trkpt lat="46.3868" lon="5.93911">
        <ele>1029.8</ele>
        <time>2021-10-17T12:57:43Z</time>
      </trkpt>
      <trkpt lat="46.38681" lon="5.9392">
        <ele>1029.8</ele>
        <time>2021-10-17T12:57:44Z</time>
      </trkpt>
      <trkpt lat="46.38681" lon="5.93929">
        <ele>1029.8</ele>
        <time>2021-10-17T12:57:45Z</time>
      </trkpt>
      <trkpt lat="46.38681" lon="5.93938">
        <ele>1029.8</ele>
        <time>2021-10-17T12:57:46Z</time>
      </trkpt>
      <trkpt lat="46.3868" lon="5.93946">
        <ele>1029.8</ele>
        <time>2021-10-17T12:57:47Z</time>
      </trkpt>
      <trkpt lat="46.3868" lon="5.93953">
        <ele>1030.2</ele>
        <time>2021-10-17T12:57:48Z</time>
      </trkpt>
      <trkpt lat="46.38682" lon="5.93959">
        <ele>1030.2</ele>
        <time>2021-10-17T12:57:49Z</time>
      </trkpt>
      <trkpt lat="46.38685" lon="5.93963">
        <ele>1030.6</ele>
        <time>2021-10-17T12:57:50Z</time>
      </trkpt>
      <trkpt lat="46.38689" lon="5.93967">
        <ele>1030.6</ele>
        <time>2021-10-17T12:57:51Z</time>
      </trkpt>
      <trkpt lat="46.38693" lon="5.9397">
        <ele>1030.6</ele>
        <time>2021-10-17T12:57:52Z</time>
      </trkpt>
      <trkpt lat="46.38697" lon="5.93972">
        <ele>1030.8</ele>
        <time>2021-10-17T12:57:53Z</time>
      </trkpt>
      <trkpt lat="46.38701" lon="5.93974">
        <ele>1030.8</ele>
        <time>2021-10-17T12:57:54Z</time>
      </trkpt>
      <trkpt lat="46.38705" lon="5.93977">
        <ele>1031</ele>
        <time>2021-10-17T12:57:55Z</time>
      </trkpt>
      <trkpt lat="46.38709" lon="5.93979">
        <ele>1031</ele>
        <time>2021-10-17T12:57:56Z</time>
      </trkpt>
      <trkpt lat="46.38714" lon="5.93981">
        <ele>1031</ele>
        <time>2021-10-17T12:57:57Z</time>
      </trkpt>
      <trkpt lat="46.38718" lon="5.93982">
        <ele>1031</ele>
        <time>2021-10-17T12:57:58Z</time>
      </trkpt>
      <trkpt lat="46.38722" lon="5.93984">
        <ele>1031.2</ele>
        <time>2021-10-17T12:57:59Z</time>
      </trkpt>
      <trkpt lat="46.38727" lon="5.93985">
        <ele>1031.2</ele>
        <time>2021-10-17T12:58:00Z</time>
      </trkpt>
      <trkpt lat="46.38731" lon="5.93987">
        <ele>1031.2</ele>
        <time>2021-10-17T12:58:01Z</time>
      </trkpt>
      <trkpt lat="46.38735" lon="5.93988">
        <ele>1031.6</ele>
        <time>2021-10-17T12:58:02Z</time>
      </trkpt>
      <trkpt lat="46.3874" lon="5.93989">
        <ele>1031.6</ele>
        <time>2021-10-17T12:58:03Z</time>
      </trkpt>
      <trkpt lat="46.38744" lon="5.93991">
        <ele>1031.8</ele>
        <time>2021-10-17T12:58:04Z</time>
      </trkpt>
      <trkpt lat="46.38748" lon="5.93992">
        <ele>1032.2</ele>
        <time>2021-10-17T12:58:05Z</time>
      </trkpt>
      <trkpt lat="46.38752" lon="5.93994">
        <ele>1032.2</ele>
        <time>2021-10-17T12:58:06Z</time>
      </trkpt>
      <trkpt lat="46.38756" lon="5.93996">
        <ele>1032.4</ele>
        <time>2021-10-17T12:58:07Z</time>
      </trkpt>
      <trkpt lat="46.3876" lon="5.93997">
        <ele>1032.4</ele>
        <time>2021-10-17T12:58:08Z</time>
      </trkpt>
      <trkpt lat="46.38764" lon="5.93999">
        <ele>1032.6</ele>
        <time>2021-10-17T12:58:09Z</time>
      </trkpt>
      <trkpt lat="46.38767" lon="5.94">
        <ele>1032.8</ele>
        <time>2021-10-17T12:58:10Z</time>
      </trkpt>
      <trkpt lat="46.38771" lon="5.94001">
        <ele>1032.8</ele>
        <time>2021-10-17T12:58:11Z</time>
      </trkpt>
      <trkpt lat="46.38774" lon="5.94002">
        <ele>1033.2</ele>
        <time>2021-10-17T12:58:12Z</time>
      </trkpt>
      <trkpt lat="46.38778" lon="5.94004">
        <ele>1033.2</ele>
        <time>2021-10-17T12:58:13Z</time>
      </trkpt>
      <trkpt lat="46.38781" lon="5.94006">
        <ele>1033.2</ele>
        <time>2021-10-17T12:58:14Z</time>
      </trkpt>
      <trkpt lat="46.38784" lon="5.94007">
        <ele>1033.8</ele>
        <time>2021-10-17T12:58:15Z</time>
      </trkpt>
      <trkpt lat="46.38787" lon="5.94008">
        <ele>1033.8</ele>
        <time>2021-10-17T12:58:16Z</time>
      </trkpt>
      <trkpt lat="46.3879" lon="5.9401">
        <ele>1034.2</ele>
        <time>2021-10-17T12:58:17Z</time>
      </trkpt>
      <trkpt lat="46.38793" lon="5.94011">
        <ele>1034.4</ele>
        <time>2021-10-17T12:58:18Z</time>
      </trkpt>
      <trkpt lat="46.38796" lon="5.94013">
        <ele>1034.6</ele>
        <time>2021-10-17T12:58:19Z</time>
      </trkpt>
      <trkpt lat="46.38799" lon="5.94015">
        <ele>1035</ele>
        <time>2021-10-17T12:58:20Z</time>
      </trkpt>
      <trkpt lat="46.38801" lon="5.94017">
        <ele>1035.2</ele>
        <time>2021-10-17T12:58:21Z</time>
      </trkpt>
      <trkpt lat="46.38804" lon="5.94019">
        <ele>1035.4</ele>
        <time>2021-10-17T12:58:22Z</time>
      </trkpt>
      <trkpt lat="46.38807" lon="5.94021">
        <ele>1035.6</ele>
        <time>2021-10-17T12:58:23Z</time>
      </trkpt>
      <trkpt lat="46.3881" lon="5.94023">
        <ele>1035.6</ele>
        <time>2021-10-17T12:58:24Z</time>
      </trkpt>
      <trkpt lat="46.38812" lon="5.94025">
        <ele>1036</ele>
        <time>2021-10-17T12:58:25Z</time>
      </trkpt>
      <trkpt lat="46.38814" lon="5.94027">
        <ele>1036.2</ele>
        <time>2021-10-17T12:58:26Z</time>
      </trkpt>
      <trkpt lat="46.38817" lon="5.94029">
        <ele>1036.2</ele>
        <time>2021-10-17T12:58:27Z</time>
      </trkpt>
      <trkpt lat="46.3882" lon="5.94031">
        <ele>1036.6</ele>
        <time>2021-10-17T12:58:28Z</time>
      </trkpt>
      <trkpt lat="46.38822" lon="5.94033">
        <ele>1036.6</ele>
        <time>2021-10-17T12:58:29Z</time>
      </trkpt>
      <trkpt lat="46.38824" lon="5.94035">
        <ele>1037</ele>
        <time>2021-10-17T12:58:30Z</time>
      </trkpt>
      <trkpt lat="46.38827" lon="5.94037">
        <ele>1037</ele>
        <time>2021-10-17T12:58:31Z</time>
      </trkpt>
      <trkpt lat="46.38829" lon="5.94039">
        <ele>1037.2</ele>
        <time>2021-10-17T12:58:32Z</time>
      </trkpt>
      <trkpt lat="46.38831" lon="5.94041">
        <ele>1037.2</ele>
        <time>2021-10-17T12:58:33Z</time>
      </trkpt>
      <trkpt lat="46.38834" lon="5.94043">
        <ele>1037.6</ele>
        <time>2021-10-17T12:58:34Z</time>
      </trkpt>
      <trkpt lat="46.38836" lon="5.94046">
        <ele>1037.6</ele>
        <time>2021-10-17T12:58:35Z</time>
      </trkpt>
      <trkpt lat="46.38838" lon="5.94048">
        <ele>1038</ele>
        <time>2021-10-17T12:58:36Z</time>
      </trkpt>
      <trkpt lat="46.3884" lon="5.94051">
        <ele>1038.4</ele>
        <time>2021-10-17T12:58:37Z</time>
      </trkpt>
      <trkpt lat="46.38843" lon="5.94054">
        <ele>1038.6</ele>
        <time>2021-10-17T12:58:38Z</time>
      </trkpt>
      <trkpt lat="46.38845" lon="5.94056">
        <ele>1038.6</ele>
        <time>2021-10-17T12:58:39Z</time>
      </trkpt>
      <trkpt lat="46.38847" lon="5.94059">
        <ele>1038.8</ele>
        <time>2021-10-17T12:58:40Z</time>
      </trkpt>
      <trkpt lat="46.3885" lon="5.94062">
        <ele>1038.8</ele>
        <time>2021-10-17T12:58:41Z</time>
      </trkpt>
      <trkpt lat="46.38852" lon="5.94065">
        <ele>1039.2</ele>
        <time>2021-10-17T12:58:42Z</time>
      </trkpt>
      <trkpt lat="46.38854" lon="5.94067">
        <ele>1039.2</ele>
        <time>2021-10-17T12:58:43Z</time>
      </trkpt>
      <trkpt lat="46.38857" lon="5.9407">
        <ele>1039.6</ele>
        <time>2021-10-17T12:58:44Z</time>
      </trkpt>
      <trkpt lat="46.38859" lon="5.94073">
        <ele>1039.6</ele>
        <time>2021-10-17T12:58:45Z</time>
      </trkpt>
      <trkpt lat="46.38861" lon="5.94076">
        <ele>1040</ele>
        <time>2021-10-17T12:58:46Z</time>
      </trkpt>
      <trkpt lat="46.38863" lon="5.94079">
        <ele>1040.2</ele>
        <time>2021-10-17T12:58:47Z</time>
      </trkpt>
      <trkpt lat="46.38865" lon="5.94082">
        <ele>1040.2</ele>
        <time>2021-10-17T12:58:48Z</time>
      </trkpt>
      <trkpt lat="46.38867" lon="5.94085">
        <ele>1040.6</ele>
        <time>2021-10-17T12:58:49Z</time>
      </trkpt>
      <trkpt lat="46.38869" lon="5.94088">
        <ele>1040.6</ele>
        <time>2021-10-17T12:58:50Z</time>
      </trkpt>
      <trkpt lat="46.38871" lon="5.94091">
        <ele>1041</ele>
        <time>2021-10-17T12:58:51Z</time>
      </trkpt>
      <trkpt lat="46.38873" lon="5.94094">
        <ele>1041.2</ele>
        <time>2021-10-17T12:58:52Z</time>
      </trkpt>
      <trkpt lat="46.38875" lon="5.94097">
        <ele>1041.4</ele>
        <time>2021-10-17T12:58:53Z</time>
      </trkpt>
      <trkpt lat="46.38877" lon="5.94101">
        <ele>1041.6</ele>
        <time>2021-10-17T12:58:54Z</time>
      </trkpt>
      <trkpt lat="46.38879" lon="5.94104">
        <ele>1041.8</ele>
        <time>2021-10-17T12:58:55Z</time>
      </trkpt>
      <trkpt lat="46.38881" lon="5.94107">
        <ele>1041.8</ele>
        <time>2021-10-17T12:58:56Z</time>
      </trkpt>
      <trkpt lat="46.38883" lon="5.94111">
        <ele>1042.2</ele>
        <time>2021-10-17T12:58:57Z</time>
      </trkpt>
      <trkpt lat="46.38885" lon="5.94115">
        <ele>1042.4</ele>
        <time>2021-10-17T12:58:58Z</time>
      </trkpt>
      <trkpt lat="46.38886" lon="5.94118">
        <ele>1042.6</ele>
        <time>2021-10-17T12:58:59Z</time>
      </trkpt>
      <trkpt lat="46.38888" lon="5.94122">
        <ele>1042.6</ele>
        <time>2021-10-17T12:59:00Z</time>
      </trkpt>
      <trkpt lat="46.3889" lon="5.94125">
        <ele>1043</ele>
        <time>2021-10-17T12:59:01Z</time>
      </trkpt>
      <trkpt lat="46.38892" lon="5.94128">
        <ele>1043</ele>
        <time>2021-10-17T12:59:02Z</time>
      </trkpt>
      <trkpt lat="46.38893" lon="5.94132">
        <ele>1043.4</ele>
        <time>2021-10-17T12:59:03Z</time>
      </trkpt>
      <trkpt lat="46.38895" lon="5.94134">
        <ele>1043.4</ele>
        <time>2021-10-17T12:59:04Z</time>
      </trkpt>
      <trkpt lat="46.38896" lon="5.94137">
        <ele>1043.8</ele>
        <time>2021-10-17T12:59:05Z</time>
      </trkpt>
      <trkpt lat="46.38898" lon="5.9414">
        <ele>1044</ele>
        <time>2021-10-17T12:59:06Z</time>
      </trkpt>
      <trkpt lat="46.38899" lon="5.94144">
        <ele>1044</ele>
        <time>2021-10-17T12:59:07Z</time>
      </trkpt>
      <trkpt lat="46.389" lon="5.94147">
        <ele>1044.4</ele>
        <time>2021-10-17T12:59:08Z</time>
      </trkpt>
      <trkpt lat="46.38902" lon="5.9415">
        <ele>1044.4</ele>
        <time>2021-10-17T12:59:09Z</time>
      </trkpt>
      <trkpt lat="46.38903" lon="5.94153">
        <ele>1044.6</ele>
        <time>2021-10-17T12:59:10Z</time>
      </trkpt>
      <trkpt lat="46.38904" lon="5.94156">
        <ele>1044.6</ele>
        <time>2021-10-17T12:59:11Z</time>
      </trkpt>
      <trkpt lat="46.38905" lon="5.94159">
        <ele>1045</ele>
        <time>2021-10-17T12:59:12Z</time>
      </trkpt>
      <trkpt lat="46.38907" lon="5.94162">
        <ele>1045.2</ele>
        <time>2021-10-17T12:59:13Z</time>
      </trkpt>
      <trkpt lat="46.38908" lon="5.94165">
        <ele>1045.2</ele>
        <time>2021-10-17T12:59:14Z</time>
      </trkpt>
      <trkpt lat="46.3891" lon="5.94168">
        <ele>1045.4</ele>
        <time>2021-10-17T12:59:15Z</time>
      </trkpt>
      <trkpt lat="46.38911" lon="5.94171">
        <ele>1045.4</ele>
        <time>2021-10-17T12:59:16Z</time>
      </trkpt>
      <trkpt lat="46.38913" lon="5.94173">
        <ele>1045.4</ele>
        <time>2021-10-17T12:59:17Z</time>
      </trkpt>
      <trkpt lat="46.38914" lon="5.94176">
        <ele>1045.8</ele>
        <time>2021-10-17T12:59:18Z</time>
      </trkpt>
      <trkpt lat="46.38916" lon="5.94178">
        <ele>1045.8</ele>
        <time>2021-10-17T12:59:19Z</time>
      </trkpt>
      <trkpt lat="46.38917" lon="5.94181">
        <ele>1046.2</ele>
        <time>2021-10-17T12:59:20Z</time>
      </trkpt>
      <trkpt lat="46.38918" lon="5.94184">
        <ele>1046.2</ele>
        <time>2021-10-17T12:59:21Z</time>
      </trkpt>
      <trkpt lat="46.38919" lon="5.94187">
        <ele>1046.6</ele>
        <time>2021-10-17T12:59:22Z</time>
      </trkpt>
      <trkpt lat="46.38921" lon="5.9419">
        <ele>1046.6</ele>
        <time>2021-10-17T12:59:23Z</time>
      </trkpt>
      <trkpt lat="46.38922" lon="5.94193">
        <ele>1047</ele>
        <time>2021-10-17T12:59:24Z</time>
      </trkpt>
      <trkpt lat="46.38924" lon="5.94196">
        <ele>1047</ele>
        <time>2021-10-17T12:59:25Z</time>
      </trkpt>
      <trkpt lat="46.38925" lon="5.94199">
        <ele>1047.2</ele>
        <time>2021-10-17T12:59:26Z</time>
      </trkpt>
      <trkpt lat="46.38926" lon="5.94202">
        <ele>1047.2</ele>
        <time>2021-10-17T12:59:27Z</time>
      </trkpt>
      <trkpt lat="46.38928" lon="5.94205">
        <ele>1047.4</ele>
        <time>2021-10-17T12:59:28Z</time>
      </trkpt>
      <trkpt lat="46.38929" lon="5.94208">
        <ele>1047.4</ele>
        <time>2021-10-17T12:59:29Z</time>
      </trkpt>
      <trkpt lat="46.38931" lon="5.94211">
        <ele>1047.8</ele>
        <time>2021-10-17T12:59:30Z</time>
      </trkpt>
      <trkpt lat="46.38932" lon="5.94214">
        <ele>1047.8</ele>
        <time>2021-10-17T12:59:31Z</time>
      </trkpt>
      <trkpt lat="46.38934" lon="5.94218">
        <ele>1048.2</ele>
        <time>2021-10-17T12:59:32Z</time>
      </trkpt>
      <trkpt lat="46.38935" lon="5.94221">
        <ele>1048.2</ele>
        <time>2021-10-17T12:59:33Z</time>
      </trkpt>
      <trkpt lat="46.38936" lon="5.94224">
        <ele>1048.4</ele>
        <time>2021-10-17T12:59:34Z</time>
      </trkpt>
      <trkpt lat="46.38938" lon="5.94227">
        <ele>1048.4</ele>
        <time>2021-10-17T12:59:35Z</time>
      </trkpt>
      <trkpt lat="46.3894" lon="5.9423">
        <ele>1048.8</ele>
        <time>2021-10-17T12:59:36Z</time>
      </trkpt>
      <trkpt lat="46.38941" lon="5.94233">
        <ele>1048.8</ele>
        <time>2021-10-17T12:59:37Z</time>
      </trkpt>
      <trkpt lat="46.38942" lon="5.94236">
        <ele>1049</ele>
        <time>2021-10-17T12:59:38Z</time>
      </trkpt>
      <trkpt lat="46.38944" lon="5.94239">
        <ele>1049</ele>
        <time>2021-10-17T12:59:39Z</time>
      </trkpt>
      <trkpt lat="46.38945" lon="5.94242">
        <ele>1049.4</ele>
        <time>2021-10-17T12:59:40Z</time>
      </trkpt>
      <trkpt lat="46.38947" lon="5.94246">
        <ele>1049.4</ele>
        <time>2021-10-17T12:59:41Z</time>
      </trkpt>
      <trkpt lat="46.38948" lon="5.94249">
        <ele>1049.6</ele>
        <time>2021-10-17T12:59:42Z</time>
      </trkpt>
      <trkpt lat="46.38949" lon="5.94252">
        <ele>1049.6</ele>
        <time>2021-10-17T12:59:43Z</time>
      </trkpt>
      <trkpt lat="46.38951" lon="5.94255">
        <ele>1050</ele>
        <time>2021-10-17T12:59:44Z</time>
      </trkpt>
      <trkpt lat="46.38952" lon="5.94258">
        <ele>1050.2</ele>
        <time>2021-10-17T12:59:45Z</time>
      </trkpt>
      <trkpt lat="46.38953" lon="5.94261">
        <ele>1050.4</ele>
        <time>2021-10-17T12:59:46Z</time>
      </trkpt>
      <trkpt lat="46.38955" lon="5.94264">
        <ele>1050.4</ele>
        <time>2021-10-17T12:59:47Z</time>
      </trkpt>
      <trkpt lat="46.38956" lon="5.94267">
        <ele>1050.8</ele>
        <time>2021-10-17T12:59:48Z</time>
      </trkpt>
      <trkpt lat="46.38957" lon="5.9427">
        <ele>1051</ele>
        <time>2021-10-17T12:59:49Z</time>
      </trkpt>
      <trkpt lat="46.38959" lon="5.94273">
        <ele>1051.2</ele>
        <time>2021-10-17T12:59:50Z</time>
      </trkpt>
      <trkpt lat="46.3896" lon="5.94276">
        <ele>1051.2</ele>
        <time>2021-10-17T12:59:51Z</time>
      </trkpt>
      <trkpt lat="46.38961" lon="5.94279">
        <ele>1051.6</ele>
        <time>2021-10-17T12:59:52Z</time>
      </trkpt>
      <trkpt lat="46.38963" lon="5.94282">
        <ele>1051.8</ele>
        <time>2021-10-17T12:59:53Z</time>
      </trkpt>
      <trkpt lat="46.38964" lon="5.94285">
        <ele>1051.8</ele>
        <time>2021-10-17T12:59:54Z</time>
      </trkpt>
      <trkpt lat="46.38965" lon="5.94288">
        <ele>1052</ele>
        <time>2021-10-17T12:59:55Z</time>
      </trkpt>
      <trkpt lat="46.38967" lon="5.94291">
        <ele>1052</ele>
        <time>2021-10-17T12:59:56Z</time>
      </trkpt>
      <trkpt lat="46.38968" lon="5.94293">
        <ele>1052.4</ele>
        <time>2021-10-17T12:59:57Z</time>
      </trkpt>
      <trkpt lat="46.38969" lon="5.94297">
        <ele>1052.4</ele>
        <time>2021-10-17T12:59:58Z</time>
      </trkpt>
      <trkpt lat="46.38971" lon="5.943">
        <ele>1052.6</ele>
        <time>2021-10-17T12:59:59Z</time>
      </trkpt>
      <trkpt lat="46.38972" lon="5.94303">
        <ele>1052.6</ele>
        <time>2021-10-17T13:00:00Z</time>
      </trkpt>
      <trkpt lat="46.38973" lon="5.94306">
        <ele>1053</ele>
        <time>2021-10-17T13:00:01Z</time>
      </trkpt>
      <trkpt lat="46.38974" lon="5.94309">
        <ele>1053.2</ele>
        <time>2021-10-17T13:00:02Z</time>
      </trkpt>
      <trkpt lat="46.38975" lon="5.94312">
        <ele>1053.2</ele>
        <time>2021-10-17T13:00:03Z</time>
      </trkpt>
      <trkpt lat="46.38977" lon="5.94316">
        <ele>1053.6</ele>
        <time>2021-10-17T13:00:04Z</time>
      </trkpt>
      <trkpt lat="46.38978" lon="5.94319">
        <ele>1053.6</ele>
        <time>2021-10-17T13:00:05Z</time>
      </trkpt>
      <trkpt lat="46.38979" lon="5.94322">
        <ele>1053.8</ele>
        <time>2021-10-17T13:00:06Z</time>
      </trkpt>
      <trkpt lat="46.3898" lon="5.94325">
        <ele>1053.8</ele>
        <time>2021-10-17T13:00:07Z</time>
      </trkpt>
      <trkpt lat="46.38982" lon="5.94328">
        <ele>1054.2</ele>
        <time>2021-10-17T13:00:08Z</time>
      </trkpt>
      <trkpt lat="46.38983" lon="5.94331">
        <ele>1054.2</ele>
        <time>2021-10-17T13:00:09Z</time>
      </trkpt>
      <trkpt lat="46.38984" lon="5.94335">
        <ele>1054.8</ele>
        <time>2021-10-17T13:00:10Z</time>
      </trkpt>
      <trkpt lat="46.38986" lon="5.94338">
        <ele>1054.8</ele>
        <time>2021-10-17T13:00:11Z</time>
      </trkpt>
      <trkpt lat="46.38987" lon="5.94341">
        <ele>1055</ele>
        <time>2021-10-17T13:00:12Z</time>
      </trkpt>
      <trkpt lat="46.38988" lon="5.94344">
        <ele>1055</ele>
        <time>2021-10-17T13:00:13Z</time>
      </trkpt>
      <trkpt lat="46.38989" lon="5.94348">
        <ele>1055.4</ele>
        <time>2021-10-17T13:00:14Z</time>
      </trkpt>
      <trkpt lat="46.38991" lon="5.94351">
        <ele>1055.4</ele>
        <time>2021-10-17T13:00:15Z</time>
      </trkpt>
      <trkpt lat="46.38992" lon="5.94354">
        <ele>1055.6</ele>
        <time>2021-10-17T13:00:16Z</time>
      </trkpt>
      <trkpt lat="46.38993" lon="5.94357">
        <ele>1055.6</ele>
        <time>2021-10-17T13:00:17Z</time>
      </trkpt>
      <trkpt lat="46.38995" lon="5.9436">
        <ele>1056</ele>
        <time>2021-10-17T13:00:18Z</time>
      </trkpt>
      <trkpt lat="46.38996" lon="5.94364">
        <ele>1056</ele>
        <time>2021-10-17T13:00:19Z</time>
      </trkpt>
      <trkpt lat="46.38997" lon="5.94367">
        <ele>1056.2</ele>
        <time>2021-10-17T13:00:20Z</time>
      </trkpt>
      <trkpt lat="46.38998" lon="5.9437">
        <ele>1056.2</ele>
        <time>2021-10-17T13:00:21Z</time>
      </trkpt>
      <trkpt lat="46.39" lon="5.94374">
        <ele>1056.6</ele>
        <time>2021-10-17T13:00:22Z</time>
      </trkpt>
      <trkpt lat="46.39001" lon="5.94377">
        <ele>1056.6</ele>
        <time>2021-10-17T13:00:23Z</time>
      </trkpt>
      <trkpt lat="46.39003" lon="5.9438">
        <ele>1056.8</ele>
        <time>2021-10-17T13:00:24Z</time>
      </trkpt>
      <trkpt lat="46.39004" lon="5.94384">
        <ele>1056.8</ele>
        <time>2021-10-17T13:00:25Z</time>
      </trkpt>
      <trkpt lat="46.39005" lon="5.94387">
        <ele>1056.8</ele>
        <time>2021-10-17T13:00:26Z</time>
      </trkpt>
      <trkpt lat="46.39007" lon="5.94391">
        <ele>1057</ele>
        <time>2021-10-17T13:00:27Z</time>
      </trkpt>
      <trkpt lat="46.39008" lon="5.94395">
        <ele>1057</ele>
        <time>2021-10-17T13:00:28Z</time>
      </trkpt>
      <trkpt lat="46.39009" lon="5.94398">
        <ele>1057.4</ele>
        <time>2021-10-17T13:00:29Z</time>
      </trkpt>
      <trkpt lat="46.39011" lon="5.94402">
        <ele>1057.4</ele>
        <time>2021-10-17T13:00:30Z</time>
      </trkpt>
      <trkpt lat="46.39012" lon="5.94406">
        <ele>1057.6</ele>
        <time>2021-10-17T13:00:31Z</time>
      </trkpt>
      <trkpt lat="46.39014" lon="5.9441">
        <ele>1057.6</ele>
        <time>2021-10-17T13:00:32Z</time>
      </trkpt>
      <trkpt lat="46.39015" lon="5.94414">
        <ele>1058</ele>
        <time>2021-10-17T13:00:33Z</time>
      </trkpt>
      <trkpt lat="46.39017" lon="5.94417">
        <ele>1058</ele>
        <time>2021-10-17T13:00:34Z</time>
      </trkpt>
      <trkpt lat="46.39018" lon="5.94421">
        <ele>1058.2</ele>
        <time>2021-10-17T13:00:35Z</time>
      </trkpt>
      <trkpt lat="46.3902" lon="5.94425">
        <ele>1058.2</ele>
        <time>2021-10-17T13:00:36Z</time>
      </trkpt>
      <trkpt lat="46.39021" lon="5.94429">
        <ele>1058.6</ele>
        <time>2021-10-17T13:00:37Z</time>
      </trkpt>
      <trkpt lat="46.39023" lon="5.94432">
        <ele>1058.6</ele>
        <time>2021-10-17T13:00:38Z</time>
      </trkpt>
      <trkpt lat="46.39025" lon="5.94436">
        <ele>1058.8</ele>
        <time>2021-10-17T13:00:39Z</time>
      </trkpt>
      <trkpt lat="46.39026" lon="5.9444">
        <ele>1058.8</ele>
        <time>2021-10-17T13:00:40Z</time>
      </trkpt>
      <trkpt lat="46.39028" lon="5.94444">
        <ele>1059.2</ele>
        <time>2021-10-17T13:00:41Z</time>
      </trkpt>
      <trkpt lat="46.3903" lon="5.94448">
        <ele>1059.2</ele>
        <time>2021-10-17T13:00:42Z</time>
      </trkpt>
      <trkpt lat="46.39031" lon="5.94452">
        <ele>1059.4</ele>
        <time>2021-10-17T13:00:43Z</time>
      </trkpt>
      <trkpt lat="46.39033" lon="5.94456">
        <ele>1059.4</ele>
        <time>2021-10-17T13:00:44Z</time>
      </trkpt>
      <trkpt lat="46.39035" lon="5.94459">
        <ele>1059.6</ele>
        <time>2021-10-17T13:00:45Z</time>
      </trkpt>
      <trkpt lat="46.39037" lon="5.94463">
        <ele>1059.6</ele>
        <time>2021-10-17T13:00:46Z</time>
      </trkpt>
      <trkpt lat="46.39038" lon="5.94467">
        <ele>1060</ele>
        <time>2021-10-17T13:00:47Z</time>
      </trkpt>
      <trkpt lat="46.3904" lon="5.9447">
        <ele>1060</ele>
        <time>2021-10-17T13:00:48Z</time>
      </trkpt>
      <trkpt lat="46.39042" lon="5.94474">
        <ele>1060.2</ele>
        <time>2021-10-17T13:00:49Z</time>
      </trkpt>
      <trkpt lat="46.39043" lon="5.94478">
        <ele>1060.2</ele>
        <time>2021-10-17T13:00:50Z</time>
      </trkpt>
      <trkpt lat="46.39045" lon="5.94482">
        <ele>1060.2</ele>
        <time>2021-10-17T13:00:51Z</time>
      </trkpt>
      <trkpt lat="46.39047" lon="5.94485">
        <ele>1060.4</ele>
        <time>2021-10-17T13:00:52Z</time>
      </trkpt>
      <trkpt lat="46.39049" lon="5.94489">
        <ele>1060.4</ele>
        <time>2021-10-17T13:00:53Z</time>
      </trkpt>
      <trkpt lat="46.39051" lon="5.94492">
        <ele>1060.6</ele>
        <time>2021-10-17T13:00:54Z</time>
      </trkpt>
      <trkpt lat="46.39053" lon="5.94495">
        <ele>1060.6</ele>
        <time>2021-10-17T13:00:55Z</time>
      </trkpt>
      <trkpt lat="46.39055" lon="5.94498">
        <ele>1061.2</ele>
        <time>2021-10-17T13:00:56Z</time>
      </trkpt>
      <trkpt lat="46.39057" lon="5.94501">
        <ele>1061.2</ele>
        <time>2021-10-17T13:00:57Z</time>
      </trkpt>
      <trkpt lat="46.39059" lon="5.94505">
        <ele>1061.4</ele>
        <time>2021-10-17T13:00:58Z</time>
      </trkpt>
      <trkpt lat="46.39061" lon="5.94508">
        <ele>1061.4</ele>
        <time>2021-10-17T13:00:59Z</time>
      </trkpt>
      <trkpt lat="46.39063" lon="5.94511">
        <ele>1061.8</ele>
        <time>2021-10-17T13:01:00Z</time>
      </trkpt>
      <trkpt lat="46.39065" lon="5.94514">
        <ele>1061.8</ele>
        <time>2021-10-17T13:01:01Z</time>
      </trkpt>
      <trkpt lat="46.39068" lon="5.94517">
        <ele>1062</ele>
        <time>2021-10-17T13:01:02Z</time>
      </trkpt>
      <trkpt lat="46.3907" lon="5.9452">
        <ele>1062</ele>
        <time>2021-10-17T13:01:03Z</time>
      </trkpt>
      <trkpt lat="46.39072" lon="5.94524">
        <ele>1062.2</ele>
        <time>2021-10-17T13:01:04Z</time>
      </trkpt>
      <trkpt lat="46.39075" lon="5.94527">
        <ele>1062.2</ele>
        <time>2021-10-17T13:01:05Z</time>
      </trkpt>
      <trkpt lat="46.39077" lon="5.9453">
        <ele>1062.2</ele>
        <time>2021-10-17T13:01:06Z</time>
      </trkpt>
      <trkpt lat="46.39079" lon="5.94533">
        <ele>1062.6</ele>
        <time>2021-10-17T13:01:07Z</time>
      </trkpt>
      <trkpt lat="46.39082" lon="5.94536">
        <ele>1062.6</ele>
        <time>2021-10-17T13:01:08Z</time>
      </trkpt>
      <trkpt lat="46.39084" lon="5.94539">
        <ele>1063</ele>
        <time>2021-10-17T13:01:09Z</time>
      </trkpt>
      <trkpt lat="46.39086" lon="5.94542">
        <ele>1063</ele>
        <time>2021-10-17T13:01:10Z</time>
      </trkpt>
      <trkpt lat="46.39088" lon="5.94545">
        <ele>1063.2</ele>
        <time>2021-10-17T13:01:11Z</time>
      </trkpt>
      <trkpt lat="46.39091" lon="5.94547">
        <ele>1063.2</ele>
        <time>2021-10-17T13:01:12Z</time>
      </trkpt>
      <trkpt lat="46.39093" lon="5.9455">
        <ele>1063.4</ele>
        <time>2021-10-17T13:01:13Z</time>
      </trkpt>
      <trkpt lat="46.39096" lon="5.94553">
        <ele>1063.4</ele>
        <time>2021-10-17T13:01:14Z</time>
      </trkpt>
      <trkpt lat="46.39098" lon="5.94555">
        <ele>1063.8</ele>
        <time>2021-10-17T13:01:15Z</time>
      </trkpt>
      <trkpt lat="46.391" lon="5.94558">
        <ele>1063.8</ele>
        <time>2021-10-17T13:01:16Z</time>
      </trkpt>
      <trkpt lat="46.39103" lon="5.94561">
        <ele>1064.2</ele>
        <time>2021-10-17T13:01:17Z</time>
      </trkpt>
      <trkpt lat="46.39105" lon="5.94564">
        <ele>1064.2</ele>
        <time>2021-10-17T13:01:18Z</time>
      </trkpt>
      <trkpt lat="46.39107" lon="5.94567">
        <ele>1064.2</ele>
        <time>2021-10-17T13:01:19Z</time>
      </trkpt>
      <trkpt lat="46.3911" lon="5.9457">
        <ele>1064.4</ele>
        <time>2021-10-17T13:01:20Z</time>
      </trkpt>
      <trkpt lat="46.39112" lon="5.94573">
        <ele>1064.4</ele>
        <time>2021-10-17T13:01:21Z</time>
      </trkpt>
      <trkpt lat="46.39115" lon="5.94575">
        <ele>1064.6</ele>
        <time>2021-10-17T13:01:22Z</time>
      </trkpt>
      <trkpt lat="46.39117" lon="5.94578">
        <ele>1064.6</ele>
        <time>2021-10-17T13:01:23Z</time>
      </trkpt>
      <trkpt lat="46.39119" lon="5.94581">
        <ele>1065</ele>
        <time>2021-10-17T13:01:24Z</time>
      </trkpt>
      <trkpt lat="46.39122" lon="5.94584">
        <ele>1065</ele>
        <time>2021-10-17T13:01:25Z</time>
      </trkpt>
      <trkpt lat="46.39124" lon="5.94587">
        <ele>1065.2</ele>
        <time>2021-10-17T13:01:26Z</time>
      </trkpt>
      <trkpt lat="46.39126" lon="5.94589">
        <ele>1065.2</ele>
        <time>2021-10-17T13:01:27Z</time>
      </trkpt>
      <trkpt lat="46.39128" lon="5.94592">
        <ele>1065.4</ele>
        <time>2021-10-17T13:01:28Z</time>
      </trkpt>
      <trkpt lat="46.39131" lon="5.94595">
        <ele>1065.4</ele>
        <time>2021-10-17T13:01:29Z</time>
      </trkpt>
      <trkpt lat="46.39133" lon="5.94598">
        <ele>1065.6</ele>
        <time>2021-10-17T13:01:30Z</time>
      </trkpt>
      <trkpt lat="46.39135" lon="5.94601">
        <ele>1065.6</ele>
        <time>2021-10-17T13:01:31Z</time>
      </trkpt>
      <trkpt lat="46.39137" lon="5.94604">
        <ele>1066</ele>
        <time>2021-10-17T13:01:32Z</time>
      </trkpt>
      <trkpt lat="46.39139" lon="5.94606">
        <ele>1066</ele>
        <time>2021-10-17T13:01:33Z</time>
      </trkpt>
      <trkpt lat="46.39141" lon="5.94609">
        <ele>1066.2</ele>
        <time>2021-10-17T13:01:34Z</time>
      </trkpt>
      <trkpt lat="46.39143" lon="5.94612">
        <ele>1066.2</ele>
        <time>2021-10-17T13:01:35Z</time>
      </trkpt>
      <trkpt lat="46.39146" lon="5.94615">
        <ele>1066.6</ele>
        <time>2021-10-17T13:01:36Z</time>
      </trkpt>
      <trkpt lat="46.39148" lon="5.94618">
        <ele>1066.6</ele>
        <time>2021-10-17T13:01:37Z</time>
      </trkpt>
      <trkpt lat="46.3915" lon="5.9462">
        <ele>1067</ele>
        <time>2021-10-17T13:01:38Z</time>
      </trkpt>
      <trkpt lat="46.39152" lon="5.94623">
        <ele>1067</ele>
        <time>2021-10-17T13:01:39Z</time>
      </trkpt>
      <trkpt lat="46.39155" lon="5.94626">
        <ele>1067.2</ele>
        <time>2021-10-17T13:01:40Z</time>
      </trkpt>
      <trkpt lat="46.39157" lon="5.94629">
        <ele>1067.2</ele>
        <time>2021-10-17T13:01:41Z</time>
      </trkpt>
      <trkpt lat="46.39159" lon="5.94632">
        <ele>1067.6</ele>
        <time>2021-10-17T13:01:42Z</time>
      </trkpt>
      <trkpt lat="46.39161" lon="5.94635">
        <ele>1067.6</ele>
        <time>2021-10-17T13:01:43Z</time>
      </trkpt>
      <trkpt lat="46.39164" lon="5.94639">
        <ele>1067.8</ele>
        <time>2021-10-17T13:01:44Z</time>
      </trkpt>
      <trkpt lat="46.39166" lon="5.94642">
        <ele>1067.8</ele>
        <time>2021-10-17T13:01:45Z</time>
      </trkpt>
      <trkpt lat="46.39168" lon="5.94645">
        <ele>1068.2</ele>
        <time>2021-10-17T13:01:46Z</time>
      </trkpt>
      <trkpt lat="46.39171" lon="5.94648">
        <ele>1068.4</ele>
        <time>2021-10-17T13:01:47Z</time>
      </trkpt>
      <trkpt lat="46.39173" lon="5.94652">
        <ele>1068.4</ele>
        <time>2021-10-17T13:01:48Z</time>
      </trkpt>
      <trkpt lat="46.39175" lon="5.94655">
        <ele>1068.8</ele>
        <time>2021-10-17T13:01:49Z</time>
      </trkpt>
      <trkpt lat="46.39177" lon="5.94658">
        <ele>1068.8</ele>
        <time>2021-10-17T13:01:50Z</time>
      </trkpt>
      <trkpt lat="46.39179" lon="5.94661">
        <ele>1069</ele>
        <time>2021-10-17T13:01:51Z</time>
      </trkpt>
      <trkpt lat="46.39181" lon="5.94664">
        <ele>1069</ele>
        <time>2021-10-17T13:01:52Z</time>
      </trkpt>
      <trkpt lat="46.39183" lon="5.94667">
        <ele>1069.4</ele>
        <time>2021-10-17T13:01:53Z</time>
      </trkpt>
      <trkpt lat="46.39185" lon="5.9467">
        <ele>1069.4</ele>
        <time>2021-10-17T13:01:54Z</time>
      </trkpt>
      <trkpt lat="46.39187" lon="5.94673">
        <ele>1069.8</ele>
        <time>2021-10-17T13:01:55Z</time>
      </trkpt>
      <trkpt lat="46.39189" lon="5.94677">
        <ele>1070</ele>
        <time>2021-10-17T13:01:56Z</time>
      </trkpt>
      <trkpt lat="46.39191" lon="5.9468">
        <ele>1070</ele>
        <time>2021-10-17T13:01:57Z</time>
      </trkpt>
      <trkpt lat="46.39192" lon="5.94683">
        <ele>1070.4</ele>
        <time>2021-10-17T13:01:58Z</time>
      </trkpt>
      <trkpt lat="46.39194" lon="5.94686">
        <ele>1070.6</ele>
        <time>2021-10-17T13:01:59Z</time>
      </trkpt>
      <trkpt lat="46.39196" lon="5.94689">
        <ele>1070.8</ele>
        <time>2021-10-17T13:02:00Z</time>
      </trkpt>
      <trkpt lat="46.39198" lon="5.94692">
        <ele>1071.2</ele>
        <time>2021-10-17T13:02:01Z</time>
      </trkpt>
      <trkpt lat="46.392" lon="5.94695">
        <ele>1071.2</ele>
        <time>2021-10-17T13:02:02Z</time>
      </trkpt>
      <trkpt lat="46.39201" lon="5.94699">
        <ele>1071.2</ele>
        <time>2021-10-17T13:02:03Z</time>
      </trkpt>
      <trkpt lat="46.39204" lon="5.94702">
        <ele>1071.4</ele>
        <time>2021-10-17T13:02:04Z</time>
      </trkpt>
      <trkpt lat="46.39206" lon="5.94706">
        <ele>1071.4</ele>
        <time>2021-10-17T13:02:05Z</time>
      </trkpt>
      <trkpt lat="46.39208" lon="5.94709">
        <ele>1071.8</ele>
        <time>2021-10-17T13:02:06Z</time>
      </trkpt>
      <trkpt lat="46.3921" lon="5.94713">
        <ele>1071.8</ele>
        <time>2021-10-17T13:02:07Z</time>
      </trkpt>
      <trkpt lat="46.39212" lon="5.94716">
        <ele>1072.2</ele>
        <time>2021-10-17T13:02:08Z</time>
      </trkpt>
      <trkpt lat="46.39214" lon="5.9472">
        <ele>1072.2</ele>
        <time>2021-10-17T13:02:09Z</time>
      </trkpt>
      <trkpt lat="46.39216" lon="5.94723">
        <ele>1072.6</ele>
        <time>2021-10-17T13:02:10Z</time>
      </trkpt>
      <trkpt lat="46.39218" lon="5.94727">
        <ele>1072.8</ele>
        <time>2021-10-17T13:02:11Z</time>
      </trkpt>
      <trkpt lat="46.3922" lon="5.9473">
        <ele>1073</ele>
        <time>2021-10-17T13:02:12Z</time>
      </trkpt>
      <trkpt lat="46.39221" lon="5.94733">
        <ele>1073.2</ele>
        <time>2021-10-17T13:02:13Z</time>
      </trkpt>
      <trkpt lat="46.39223" lon="5.94736">
        <ele>1073.2</ele>
        <time>2021-10-17T13:02:14Z</time>
      </trkpt>
      <trkpt lat="46.39225" lon="5.94739">
        <ele>1073.6</ele>
        <time>2021-10-17T13:02:15Z</time>
      </trkpt>
      <trkpt lat="46.39227" lon="5.94742">
        <ele>1073.6</ele>
        <time>2021-10-17T13:02:16Z</time>
      </trkpt>
      <trkpt lat="46.39229" lon="5.94746">
        <ele>1074</ele>
        <time>2021-10-17T13:02:17Z</time>
      </trkpt>
      <trkpt lat="46.39231" lon="5.94749">
        <ele>1074</ele>
        <time>2021-10-17T13:02:18Z</time>
      </trkpt>
      <trkpt lat="46.39232" lon="5.94752">
        <ele>1074.4</ele>
        <time>2021-10-17T13:02:19Z</time>
      </trkpt>
      <trkpt lat="46.39234" lon="5.94755">
        <ele>1074.6</ele>
        <time>2021-10-17T13:02:20Z</time>
      </trkpt>
      <trkpt lat="46.39236" lon="5.94759">
        <ele>1074.6</ele>
        <time>2021-10-17T13:02:21Z</time>
      </trkpt>
      <trkpt lat="46.39238" lon="5.94762">
        <ele>1074.8</ele>
        <time>2021-10-17T13:02:22Z</time>
      </trkpt>
      <trkpt lat="46.3924" lon="5.94766">
        <ele>1074.8</ele>
        <time>2021-10-17T13:02:23Z</time>
      </trkpt>
      <trkpt lat="46.39242" lon="5.94769">
        <ele>1075.2</ele>
        <time>2021-10-17T13:02:24Z</time>
      </trkpt>
      <trkpt lat="46.39244" lon="5.94772">
        <ele>1075.2</ele>
        <time>2021-10-17T13:02:25Z</time>
      </trkpt>
      <trkpt lat="46.39245" lon="5.94775">
        <ele>1075.6</ele>
        <time>2021-10-17T13:02:26Z</time>
      </trkpt>
      <trkpt lat="46.39247" lon="5.94778">
        <ele>1075.6</ele>
        <time>2021-10-17T13:02:27Z</time>
      </trkpt>
      <trkpt lat="46.39249" lon="5.94781">
        <ele>1076</ele>
        <time>2021-10-17T13:02:28Z</time>
      </trkpt>
      <trkpt lat="46.39251" lon="5.94784">
        <ele>1076</ele>
        <time>2021-10-17T13:02:29Z</time>
      </trkpt>
      <trkpt lat="46.39253" lon="5.94787">
        <ele>1076.2</ele>
        <time>2021-10-17T13:02:30Z</time>
      </trkpt>
      <trkpt lat="46.39255" lon="5.9479">
        <ele>1076.2</ele>
        <time>2021-10-17T13:02:31Z</time>
      </trkpt>
      <trkpt lat="46.39257" lon="5.94793">
        <ele>1076.6</ele>
        <time>2021-10-17T13:02:32Z</time>
      </trkpt>
      <trkpt lat="46.39259" lon="5.94796">
        <ele>1076.6</ele>
        <time>2021-10-17T13:02:33Z</time>
      </trkpt>
      <trkpt lat="46.39261" lon="5.94799">
        <ele>1077</ele>
        <time>2021-10-17T13:02:34Z</time>
      </trkpt>
      <trkpt lat="46.39263" lon="5.94802">
        <ele>1077.2</ele>
        <time>2021-10-17T13:02:35Z</time>
      </trkpt>
      <trkpt lat="46.39265" lon="5.94805">
        <ele>1077.4</ele>
        <time>2021-10-17T13:02:36Z</time>
      </trkpt>
      <trkpt lat="46.39267" lon="5.94808">
        <ele>1077.8</ele>
        <time>2021-10-17T13:02:37Z</time>
      </trkpt>
      <trkpt lat="46.3927" lon="5.94811">
        <ele>1077.8</ele>
        <time>2021-10-17T13:02:38Z</time>
      </trkpt>
      <trkpt lat="46.39272" lon="5.94813">
        <ele>1078.2</ele>
        <time>2021-10-17T13:02:39Z</time>
      </trkpt>
      <trkpt lat="46.39274" lon="5.94816">
        <ele>1078.2</ele>
        <time>2021-10-17T13:02:40Z</time>
      </trkpt>
      <trkpt lat="46.39276" lon="5.94819">
        <ele>1078.4</ele>
        <time>2021-10-17T13:02:41Z</time>
      </trkpt>
      <trkpt lat="46.39278" lon="5.94821">
        <ele>1078.4</ele>
        <time>2021-10-17T13:02:42Z</time>
      </trkpt>
      <trkpt lat="46.3928" lon="5.94824">
        <ele>1078.6</ele>
        <time>2021-10-17T13:02:43Z</time>
      </trkpt>
      <trkpt lat="46.39282" lon="5.94827">
        <ele>1078.6</ele>
        <time>2021-10-17T13:02:44Z</time>
      </trkpt>
      <trkpt lat="46.39284" lon="5.94829">
        <ele>1079</ele>
        <time>2021-10-17T13:02:45Z</time>
      </trkpt>
      <trkpt lat="46.39287" lon="5.94832">
        <ele>1079</ele>
        <time>2021-10-17T13:02:46Z</time>
      </trkpt>
      <trkpt lat="46.39289" lon="5.94835">
        <ele>1079.2</ele>
        <time>2021-10-17T13:02:47Z</time>
      </trkpt>
      <trkpt lat="46.39291" lon="5.94838">
        <ele>1079.2</ele>
        <time>2021-10-17T13:02:48Z</time>
      </trkpt>
      <trkpt lat="46.39293" lon="5.94841">
        <ele>1079.2</ele>
        <time>2021-10-17T13:02:49Z</time>
      </trkpt>
      <trkpt lat="46.39295" lon="5.94844">
        <ele>1079.6</ele>
        <time>2021-10-17T13:02:50Z</time>
      </trkpt>
      <trkpt lat="46.39297" lon="5.94847">
        <ele>1079.6</ele>
        <time>2021-10-17T13:02:51Z</time>
      </trkpt>
      <trkpt lat="46.393" lon="5.94849">
        <ele>1079.8</ele>
        <time>2021-10-17T13:02:52Z</time>
      </trkpt>
      <trkpt lat="46.39302" lon="5.94852">
        <ele>1079.8</ele>
        <time>2021-10-17T13:02:53Z</time>
      </trkpt>
      <trkpt lat="46.39304" lon="5.94855">
        <ele>1080.2</ele>
        <time>2021-10-17T13:02:54Z</time>
      </trkpt>
      <trkpt lat="46.39306" lon="5.94858">
        <ele>1080.2</ele>
        <time>2021-10-17T13:02:55Z</time>
      </trkpt>
      <trkpt lat="46.39309" lon="5.94861">
        <ele>1080.4</ele>
        <time>2021-10-17T13:02:56Z</time>
      </trkpt>
      <trkpt lat="46.39311" lon="5.94863">
        <ele>1080.4</ele>
        <time>2021-10-17T13:02:57Z</time>
      </trkpt>
      <trkpt lat="46.39313" lon="5.94866">
        <ele>1080.6</ele>
        <time>2021-10-17T13:02:58Z</time>
      </trkpt>
      <trkpt lat="46.39316" lon="5.94869">
        <ele>1080.6</ele>
        <time>2021-10-17T13:02:59Z</time>
      </trkpt>
      <trkpt lat="46.39318" lon="5.94871">
        <ele>1081</ele>
        <time>2021-10-17T13:03:00Z</time>
      </trkpt>
      <trkpt lat="46.3932" lon="5.94874">
        <ele>1081</ele>
        <time>2021-10-17T13:03:01Z</time>
      </trkpt>
      <trkpt lat="46.39323" lon="5.94877">
        <ele>1081</ele>
        <time>2021-10-17T13:03:02Z</time>
      </trkpt>
      <trkpt lat="46.39325" lon="5.9488">
        <ele>1081.2</ele>
        <time>2021-10-17T13:03:03Z</time>
      </trkpt>
      <trkpt lat="46.39327" lon="5.94883">
        <ele>1081.2</ele>
        <time>2021-10-17T13:03:04Z</time>
      </trkpt>
      <trkpt lat="46.39329" lon="5.94885">
        <ele>1081.4</ele>
        <time>2021-10-17T13:03:05Z</time>
      </trkpt>
      <trkpt lat="46.39331" lon="5.94888">
        <ele>1081.4</ele>
        <time>2021-10-17T13:03:06Z</time>
      </trkpt>
      <trkpt lat="46.39333" lon="5.94891">
        <ele>1081.6</ele>
        <time>2021-10-17T13:03:07Z</time>
      </trkpt>
      <trkpt lat="46.39335" lon="5.94894">
        <ele>1081.6</ele>
        <time>2021-10-17T13:03:08Z</time>
      </trkpt>
      <trkpt lat="46.39337" lon="5.94897">
        <ele>1082</ele>
        <time>2021-10-17T13:03:09Z</time>
      </trkpt>
      <trkpt lat="46.39339" lon="5.949">
        <ele>1082</ele>
        <time>2021-10-17T13:03:10Z</time>
      </trkpt>
      <trkpt lat="46.39341" lon="5.94903">
        <ele>1082</ele>
        <time>2021-10-17T13:03:11Z</time>
      </trkpt>
      <trkpt lat="46.39343" lon="5.94906">
        <ele>1082.2</ele>
        <time>2021-10-17T13:03:12Z</time>
      </trkpt>
      <trkpt lat="46.39345" lon="5.94909">
        <ele>1082.2</ele>
        <time>2021-10-17T13:03:13Z</time>
      </trkpt>
      <trkpt lat="46.39348" lon="5.94912">
        <ele>1082.4</ele>
        <time>2021-10-17T13:03:14Z</time>
      </trkpt>
      <trkpt lat="46.3935" lon="5.94915">
        <ele>1082.4</ele>
        <time>2021-10-17T13:03:15Z</time>
      </trkpt>
      <trkpt lat="46.39352" lon="5.94918">
        <ele>1082.4</ele>
        <time>2021-10-17T13:03:16Z</time>
      </trkpt>
      <trkpt lat="46.39354" lon="5.94921">
        <ele>1082.8</ele>
        <time>2021-10-17T13:03:17Z</time>
      </trkpt>
      <trkpt lat="46.39356" lon="5.94924">
        <ele>1082.8</ele>
        <time>2021-10-17T13:03:18Z</time>
      </trkpt>
      <trkpt lat="46.39358" lon="5.94927">
        <ele>1082.8</ele>
        <time>2021-10-17T13:03:19Z</time>
      </trkpt>
      <trkpt lat="46.39359" lon="5.9493">
        <ele>1083</ele>
        <time>2021-10-17T13:03:20Z</time>
      </trkpt>
      <trkpt lat="46.39361" lon="5.94934">
        <ele>1083</ele>
        <time>2021-10-17T13:03:21Z</time>
      </trkpt>
      <trkpt lat="46.39363" lon="5.94937">
        <ele>1083</ele>
        <time>2021-10-17T13:03:22Z</time>
      </trkpt>
      <trkpt lat="46.39365" lon="5.9494">
        <ele>1083.2</ele>
        <time>2021-10-17T13:03:23Z</time>
      </trkpt>
      <trkpt lat="46.39367" lon="5.94943">
        <ele>1083.2</ele>
        <time>2021-10-17T13:03:24Z</time>
      </trkpt>
      <trkpt lat="46.39369" lon="5.94947">
        <ele>1083.2</ele>
        <time>2021-10-17T13:03:25Z</time>
      </trkpt>
      <trkpt lat="46.3937" lon="5.9495">
        <ele>1083.6</ele>
        <time>2021-10-17T13:03:26Z</time>
      </trkpt>
      <trkpt lat="46.39372" lon="5.94953">
        <ele>1083.6</ele>
        <time>2021-10-17T13:03:27Z</time>
      </trkpt>
      <trkpt lat="46.39374" lon="5.94957">
        <ele>1083.6</ele>
        <time>2021-10-17T13:03:28Z</time>
      </trkpt>
      <trkpt lat="46.39376" lon="5.9496">
        <ele>1083.8</ele>
        <time>2021-10-17T13:03:29Z</time>
      </trkpt>
      <trkpt lat="46.39378" lon="5.94963">
        <ele>1083.8</ele>
        <time>2021-10-17T13:03:30Z</time>
      </trkpt>
      <trkpt lat="46.39379" lon="5.94966">
        <ele>1084.2</ele>
        <time>2021-10-17T13:03:31Z</time>
      </trkpt>
      <trkpt lat="46.39381" lon="5.9497">
        <ele>1084.2</ele>
        <time>2021-10-17T13:03:32Z</time>
      </trkpt>
      <trkpt lat="46.39383" lon="5.94973">
        <ele>1084.4</ele>
        <time>2021-10-17T13:03:33Z</time>
      </trkpt>
      <trkpt lat="46.39385" lon="5.94977">
        <ele>1084.4</ele>
        <time>2021-10-17T13:03:34Z</time>
      </trkpt>
      <trkpt lat="46.39386" lon="5.94981">
        <ele>1084.4</ele>
        <time>2021-10-17T13:03:35Z</time>
      </trkpt>
      <trkpt lat="46.39388" lon="5.94985">
        <ele>1084.6</ele>
        <time>2021-10-17T13:03:36Z</time>
      </trkpt>
      <trkpt lat="46.3939" lon="5.94988">
        <ele>1084.6</ele>
        <time>2021-10-17T13:03:37Z</time>
      </trkpt>
      <trkpt lat="46.39392" lon="5.94992">
        <ele>1085</ele>
        <time>2021-10-17T13:03:38Z</time>
      </trkpt>
      <trkpt lat="46.39393" lon="5.94995">
        <ele>1085</ele>
        <time>2021-10-17T13:03:39Z</time>
      </trkpt>
      <trkpt lat="46.39395" lon="5.94999">
        <ele>1085.2</ele>
        <time>2021-10-17T13:03:40Z</time>
      </trkpt>
      <trkpt lat="46.39397" lon="5.95002">
        <ele>1085.2</ele>
        <time>2021-10-17T13:03:41Z</time>
      </trkpt>
      <trkpt lat="46.39398" lon="5.95006">
        <ele>1085.8</ele>
        <time>2021-10-17T13:03:42Z</time>
      </trkpt>
      <trkpt lat="46.394" lon="5.9501">
        <ele>1085.8</ele>
        <time>2021-10-17T13:03:43Z</time>
      </trkpt>
      <trkpt lat="46.39402" lon="5.95013">
        <ele>1086</ele>
        <time>2021-10-17T13:03:44Z</time>
      </trkpt>
      <trkpt lat="46.39403" lon="5.95017">
        <ele>1086</ele>
        <time>2021-10-17T13:03:45Z</time>
      </trkpt>
      <trkpt lat="46.39404" lon="5.95021">
        <ele>1086.4</ele>
        <time>2021-10-17T13:03:46Z</time>
      </trkpt>
      <trkpt lat="46.39406" lon="5.95025">
        <ele>1086.4</ele>
        <time>2021-10-17T13:03:47Z</time>
      </trkpt>
      <trkpt lat="46.39407" lon="5.95029">
        <ele>1086.6</ele>
        <time>2021-10-17T13:03:48Z</time>
      </trkpt>
      <trkpt lat="46.39409" lon="5.95033">
        <ele>1086.6</ele>
        <time>2021-10-17T13:03:49Z</time>
      </trkpt>
      <trkpt lat="46.39411" lon="5.95037">
        <ele>1087</ele>
        <time>2021-10-17T13:03:50Z</time>
      </trkpt>
      <trkpt lat="46.39412" lon="5.95041">
        <ele>1087</ele>
        <time>2021-10-17T13:03:51Z</time>
      </trkpt>
      <trkpt lat="46.39414" lon="5.95044">
        <ele>1087.4</ele>
        <time>2021-10-17T13:03:52Z</time>
      </trkpt>
      <trkpt lat="46.39416" lon="5.95048">
        <ele>1087.4</ele>
        <time>2021-10-17T13:03:53Z</time>
      </trkpt>
      <trkpt lat="46.39417" lon="5.95052">
        <ele>1087.6</ele>
        <time>2021-10-17T13:03:54Z</time>
      </trkpt>
      <trkpt lat="46.39419" lon="5.95055">
        <ele>1087.6</ele>
        <time>2021-10-17T13:03:55Z</time>
      </trkpt>
      <trkpt lat="46.3942" lon="5.95059">
        <ele>1088</ele>
        <time>2021-10-17T13:03:56Z</time>
      </trkpt>
      <trkpt lat="46.39421" lon="5.95063">
        <ele>1088</ele>
        <time>2021-10-17T13:03:57Z</time>
      </trkpt>
      <trkpt lat="46.39422" lon="5.95068">
        <ele>1088.4</ele>
        <time>2021-10-17T13:03:58Z</time>
      </trkpt>
      <trkpt lat="46.39423" lon="5.95072">
        <ele>1088.4</ele>
        <time>2021-10-17T13:03:59Z</time>
      </trkpt>
      <trkpt lat="46.39425" lon="5.95076">
        <ele>1088.6</ele>
        <time>2021-10-17T13:04:00Z</time>
      </trkpt>
      <trkpt lat="46.39426" lon="5.9508">
        <ele>1088.6</ele>
        <time>2021-10-17T13:04:01Z</time>
      </trkpt>
      <trkpt lat="46.39428" lon="5.95084">
        <ele>1089</ele>
        <time>2021-10-17T13:04:02Z</time>
      </trkpt>
      <trkpt lat="46.39429" lon="5.95088">
        <ele>1089</ele>
        <time>2021-10-17T13:04:03Z</time>
      </trkpt>
      <trkpt lat="46.3943" lon="5.95092">
        <ele>1089</ele>
        <time>2021-10-17T13:04:04Z</time>
      </trkpt>
      <trkpt lat="46.39432" lon="5.95096">
        <ele>1089.4</ele>
        <time>2021-10-17T13:04:05Z</time>
      </trkpt>
      <trkpt lat="46.39433" lon="5.95101">
        <ele>1089.4</ele>
        <time>2021-10-17T13:04:06Z</time>
      </trkpt>
      <trkpt lat="46.39434" lon="5.95105">
        <ele>1089.8</ele>
        <time>2021-10-17T13:04:07Z</time>
      </trkpt>
      <trkpt lat="46.39436" lon="5.9511">
        <ele>1089.8</ele>
        <time>2021-10-17T13:04:08Z</time>
      </trkpt>
      <trkpt lat="46.39437" lon="5.95114">
        <ele>1090</ele>
        <time>2021-10-17T13:04:09Z</time>
      </trkpt>
      <trkpt lat="46.39438" lon="5.95119">
        <ele>1090.4</ele>
        <time>2021-10-17T13:04:10Z</time>
      </trkpt>
      <trkpt lat="46.3944" lon="5.95123">
        <ele>1090.4</ele>
        <time>2021-10-17T13:04:11Z</time>
      </trkpt>
      <trkpt lat="46.39441" lon="5.95127">
        <ele>1090.8</ele>
        <time>2021-10-17T13:04:12Z</time>
      </trkpt>
      <trkpt lat="46.39442" lon="5.95131">
        <ele>1091</ele>
        <time>2021-10-17T13:04:13Z</time>
      </trkpt>
      <trkpt lat="46.39444" lon="5.95136">
        <ele>1091.2</ele>
        <time>2021-10-17T13:04:14Z</time>
      </trkpt>
      <trkpt lat="46.39445" lon="5.95139">
        <ele>1091.2</ele>
        <time>2021-10-17T13:04:15Z</time>
      </trkpt>
      <trkpt lat="46.39446" lon="5.95143">
        <ele>1091.6</ele>
        <time>2021-10-17T13:04:16Z</time>
      </trkpt>
      <trkpt lat="46.39447" lon="5.95147">
        <ele>1091.8</ele>
        <time>2021-10-17T13:04:17Z</time>
      </trkpt>
      <trkpt lat="46.39448" lon="5.95151">
        <ele>1092</ele>
        <time>2021-10-17T13:04:18Z</time>
      </trkpt>
      <trkpt lat="46.39449" lon="5.95155">
        <ele>1092</ele>
        <time>2021-10-17T13:04:19Z</time>
      </trkpt>
      <trkpt lat="46.3945" lon="5.95159">
        <ele>1092.4</ele>
        <time>2021-10-17T13:04:20Z</time>
      </trkpt>
      <trkpt lat="46.39451" lon="5.95163">
        <ele>1092.8</ele>
        <time>2021-10-17T13:04:21Z</time>
      </trkpt>
      <trkpt lat="46.39452" lon="5.95167">
        <ele>1092.8</ele>
        <time>2021-10-17T13:04:22Z</time>
      </trkpt>
      <trkpt lat="46.39453" lon="5.9517">
        <ele>1093.2</ele>
        <time>2021-10-17T13:04:23Z</time>
      </trkpt>
      <trkpt lat="46.39454" lon="5.95174">
        <ele>1093.2</ele>
        <time>2021-10-17T13:04:24Z</time>
      </trkpt>
      <trkpt lat="46.39455" lon="5.95177">
        <ele>1093.4</ele>
        <time>2021-10-17T13:04:25Z</time>
      </trkpt>
      <trkpt lat="46.39456" lon="5.95181">
        <ele>1093.4</ele>
        <time>2021-10-17T13:04:26Z</time>
      </trkpt>
      <trkpt lat="46.39457" lon="5.95184">
        <ele>1093.8</ele>
        <time>2021-10-17T13:04:27Z</time>
      </trkpt>
      <trkpt lat="46.39458" lon="5.95188">
        <ele>1093.8</ele>
        <time>2021-10-17T13:04:28Z</time>
      </trkpt>
      <trkpt lat="46.39458" lon="5.95191">
        <ele>1094</ele>
        <time>2021-10-17T13:04:29Z</time>
      </trkpt>
      <trkpt lat="46.39459" lon="5.95194">
        <ele>1094</ele>
        <time>2021-10-17T13:04:30Z</time>
      </trkpt>
      <trkpt lat="46.3946" lon="5.95197">
        <ele>1094.4</ele>
        <time>2021-10-17T13:04:31Z</time>
      </trkpt>
      <trkpt lat="46.3946" lon="5.95197">
        <ele>1094.4</ele>
        <time>2021-10-17T13:04:32Z</time>
      </trkpt>
      <trkpt lat="46.39462" lon="5.95203">
        <ele>1094.8</ele>
        <time>2021-10-17T13:04:33Z</time>
      </trkpt>
      <trkpt lat="46.39463" lon="5.95207">
        <ele>1094.8</ele>
        <time>2021-10-17T13:04:34Z</time>
      </trkpt>
      <trkpt lat="46.39463" lon="5.95207">
        <ele>1095</ele>
        <time>2021-10-17T13:04:35Z</time>
      </trkpt>
      <trkpt lat="46.39464" lon="5.9521">
        <ele>1095</ele>
        <time>2021-10-17T13:04:36Z</time>
      </trkpt>
      <trkpt lat="46.39464" lon="5.95213">
        <ele>1095.4</ele>
        <time>2021-10-17T13:04:37Z</time>
      </trkpt>
      <trkpt lat="46.39465" lon="5.95216">
        <ele>1095.4</ele>
        <time>2021-10-17T13:04:38Z</time>
      </trkpt>
      <trkpt lat="46.39466" lon="5.95219">
        <ele>1095.6</ele>
        <time>2021-10-17T13:04:39Z</time>
      </trkpt>
      <trkpt lat="46.39467" lon="5.95223">
        <ele>1095.8</ele>
        <time>2021-10-17T13:04:40Z</time>
      </trkpt>
      <trkpt lat="46.39468" lon="5.95226">
        <ele>1095.8</ele>
        <time>2021-10-17T13:04:41Z</time>
      </trkpt>
      <trkpt lat="46.39468" lon="5.95229">
        <ele>1096.2</ele>
        <time>2021-10-17T13:04:42Z</time>
      </trkpt>
      <trkpt lat="46.39469" lon="5.95232">
        <ele>1096.2</ele>
        <time>2021-10-17T13:04:43Z</time>
      </trkpt>
      <trkpt lat="46.3947" lon="5.95236">
        <ele>1096.4</ele>
        <time>2021-10-17T13:04:44Z</time>
      </trkpt>
      <trkpt lat="46.39471" lon="5.95239">
        <ele>1096.4</ele>
        <time>2021-10-17T13:04:45Z</time>
      </trkpt>
      <trkpt lat="46.39471" lon="5.95242">
        <ele>1096.6</ele>
        <time>2021-10-17T13:04:46Z</time>
      </trkpt>
      <trkpt lat="46.39472" lon="5.95245">
        <ele>1096.6</ele>
        <time>2021-10-17T13:04:47Z</time>
      </trkpt>
      <trkpt lat="46.39473" lon="5.95248">
        <ele>1097</ele>
        <time>2021-10-17T13:04:48Z</time>
      </trkpt>
      <trkpt lat="46.39473" lon="5.95252">
        <ele>1097.2</ele>
        <time>2021-10-17T13:04:49Z</time>
      </trkpt>
      <trkpt lat="46.39474" lon="5.95255">
        <ele>1097.2</ele>
        <time>2021-10-17T13:04:50Z</time>
      </trkpt>
      <trkpt lat="46.39475" lon="5.95258">
        <ele>1097.6</ele>
        <time>2021-10-17T13:04:51Z</time>
      </trkpt>
      <trkpt lat="46.39475" lon="5.95261">
        <ele>1097.6</ele>
        <time>2021-10-17T13:04:52Z</time>
      </trkpt>
      <trkpt lat="46.39476" lon="5.95265">
        <ele>1098</ele>
        <time>2021-10-17T13:04:53Z</time>
      </trkpt>
      <trkpt lat="46.39477" lon="5.95268">
        <ele>1098</ele>
        <time>2021-10-17T13:04:54Z</time>
      </trkpt>
      <trkpt lat="46.39477" lon="5.95272">
        <ele>1098.2</ele>
        <time>2021-10-17T13:04:55Z</time>
      </trkpt>
      <trkpt lat="46.39478" lon="5.95276">
        <ele>1098.2</ele>
        <time>2021-10-17T13:04:56Z</time>
      </trkpt>
      <trkpt lat="46.39478" lon="5.95279">
        <ele>1098.6</ele>
        <time>2021-10-17T13:04:57Z</time>
      </trkpt>
      <trkpt lat="46.39479" lon="5.95283">
        <ele>1098.8</ele>
        <time>2021-10-17T13:04:58Z</time>
      </trkpt>
      <trkpt lat="46.3948" lon="5.95287">
        <ele>1099</ele>
        <time>2021-10-17T13:04:59Z</time>
      </trkpt>
      <trkpt lat="46.39481" lon="5.95291">
        <ele>1099</ele>
        <time>2021-10-17T13:05:00Z</time>
      </trkpt>
      <trkpt lat="46.39482" lon="5.95295">
        <ele>1099.4</ele>
        <time>2021-10-17T13:05:01Z</time>
      </trkpt>
      <trkpt lat="46.39483" lon="5.95299">
        <ele>1099.4</ele>
        <time>2021-10-17T13:05:02Z</time>
      </trkpt>
      <trkpt lat="46.39483" lon="5.95303">
        <ele>1099.8</ele>
        <time>2021-10-17T13:05:03Z</time>
      </trkpt>
      <trkpt lat="46.39485" lon="5.95312">
        <ele>1099.8</ele>
        <time>2021-10-17T13:05:04Z</time>
      </trkpt>
      <trkpt lat="46.39486" lon="5.95316">
        <ele>1100.2</ele>
        <time>2021-10-17T13:05:05Z</time>
      </trkpt>
      <trkpt lat="46.39487" lon="5.9532">
        <ele>1100.2</ele>
        <time>2021-10-17T13:05:06Z</time>
      </trkpt>
      <trkpt lat="46.39487" lon="5.95324">
        <ele>1100.4</ele>
        <time>2021-10-17T13:05:07Z</time>
      </trkpt>
      <trkpt lat="46.39488" lon="5.95328">
        <ele>1100.4</ele>
        <time>2021-10-17T13:05:08Z</time>
      </trkpt>
      <trkpt lat="46.39489" lon="5.95331">
        <ele>1100.8</ele>
        <time>2021-10-17T13:05:09Z</time>
      </trkpt>
      <trkpt lat="46.3949" lon="5.95335">
        <ele>1100.8</ele>
        <time>2021-10-17T13:05:10Z</time>
      </trkpt>
      <trkpt lat="46.3949" lon="5.95335">
        <ele>1100.8</ele>
        <time>2021-10-17T13:05:11Z</time>
      </trkpt>
      <trkpt lat="46.39491" lon="5.95338">
        <ele>1101.2</ele>
        <time>2021-10-17T13:05:12Z</time>
      </trkpt>
      <trkpt lat="46.39492" lon="5.95342">
        <ele>1101.2</ele>
        <time>2021-10-17T13:05:13Z</time>
      </trkpt>
      <trkpt lat="46.39493" lon="5.95345">
        <ele>1101.6</ele>
        <time>2021-10-17T13:05:14Z</time>
      </trkpt>
      <trkpt lat="46.39494" lon="5.95349">
        <ele>1101.6</ele>
        <time>2021-10-17T13:05:15Z</time>
      </trkpt>
      <trkpt lat="46.39495" lon="5.95352">
        <ele>1102</ele>
        <time>2021-10-17T13:05:16Z</time>
      </trkpt>
      <trkpt lat="46.39495" lon="5.95355">
        <ele>1102</ele>
        <time>2021-10-17T13:05:17Z</time>
      </trkpt>
      <trkpt lat="46.39496" lon="5.95359">
        <ele>1102.4</ele>
        <time>2021-10-17T13:05:18Z</time>
      </trkpt>
      <trkpt lat="46.39497" lon="5.95364">
        <ele>1102.4</ele>
        <time>2021-10-17T13:05:19Z</time>
      </trkpt>
      <trkpt lat="46.39497" lon="5.95366">
        <ele>1102.6</ele>
        <time>2021-10-17T13:05:20Z</time>
      </trkpt>
      <trkpt lat="46.39498" lon="5.95371">
        <ele>1102.6</ele>
        <time>2021-10-17T13:05:21Z</time>
      </trkpt>
      <trkpt lat="46.39499" lon="5.95373">
        <ele>1103</ele>
        <time>2021-10-17T13:05:22Z</time>
      </trkpt>
      <trkpt lat="46.39499" lon="5.95376">
        <ele>1103</ele>
        <time>2021-10-17T13:05:23Z</time>
      </trkpt>
      <trkpt lat="46.395" lon="5.9538">
        <ele>1103.2</ele>
        <time>2021-10-17T13:05:24Z</time>
      </trkpt>
      <trkpt lat="46.39501" lon="5.95383">
        <ele>1103.2</ele>
        <time>2021-10-17T13:05:25Z</time>
      </trkpt>
      <trkpt lat="46.39502" lon="5.95386">
        <ele>1103.6</ele>
        <time>2021-10-17T13:05:26Z</time>
      </trkpt>
      <trkpt lat="46.39503" lon="5.9539">
        <ele>1103.8</ele>
        <time>2021-10-17T13:05:27Z</time>
      </trkpt>
      <trkpt lat="46.39504" lon="5.95393">
        <ele>1104</ele>
        <time>2021-10-17T13:05:28Z</time>
      </trkpt>
      <trkpt lat="46.39504" lon="5.95397">
        <ele>1104</ele>
        <time>2021-10-17T13:05:29Z</time>
      </trkpt>
      <trkpt lat="46.39505" lon="5.954">
        <ele>1104.4</ele>
        <time>2021-10-17T13:05:30Z</time>
      </trkpt>
      <trkpt lat="46.39506" lon="5.95403">
        <ele>1104.4</ele>
        <time>2021-10-17T13:05:31Z</time>
      </trkpt>
      <trkpt lat="46.39507" lon="5.95407">
        <ele>1104.8</ele>
        <time>2021-10-17T13:05:32Z</time>
      </trkpt>
      <trkpt lat="46.39507" lon="5.9541">
        <ele>1104.8</ele>
        <time>2021-10-17T13:05:33Z</time>
      </trkpt>
      <trkpt lat="46.39508" lon="5.95413">
        <ele>1105</ele>
        <time>2021-10-17T13:05:34Z</time>
      </trkpt>
      <trkpt lat="46.39509" lon="5.95418">
        <ele>1105.2</ele>
        <time>2021-10-17T13:05:35Z</time>
      </trkpt>
      <trkpt lat="46.3951" lon="5.9542">
        <ele>1105.4</ele>
        <time>2021-10-17T13:05:36Z</time>
      </trkpt>
      <trkpt lat="46.39511" lon="5.95424">
        <ele>1105.6</ele>
        <time>2021-10-17T13:05:37Z</time>
      </trkpt>
      <trkpt lat="46.39512" lon="5.95427">
        <ele>1105.8</ele>
        <time>2021-10-17T13:05:38Z</time>
      </trkpt>
      <trkpt lat="46.39513" lon="5.9543">
        <ele>1105.8</ele>
        <time>2021-10-17T13:05:39Z</time>
      </trkpt>
      <trkpt lat="46.39514" lon="5.95435">
        <ele>1106.2</ele>
        <time>2021-10-17T13:05:40Z</time>
      </trkpt>
      <trkpt lat="46.39514" lon="5.95437">
        <ele>1106.2</ele>
        <time>2021-10-17T13:05:41Z</time>
      </trkpt>
      <trkpt lat="46.39515" lon="5.9544">
        <ele>1106.4</ele>
        <time>2021-10-17T13:05:42Z</time>
      </trkpt>
      <trkpt lat="46.39516" lon="5.95444">
        <ele>1106.6</ele>
        <time>2021-10-17T13:05:43Z</time>
      </trkpt>
      <trkpt lat="46.39517" lon="5.95447">
        <ele>1107</ele>
        <time>2021-10-17T13:05:44Z</time>
      </trkpt>
      <trkpt lat="46.39518" lon="5.9545">
        <ele>1107.2</ele>
        <time>2021-10-17T13:05:45Z</time>
      </trkpt>
      <trkpt lat="46.39519" lon="5.95455">
        <ele>1107.4</ele>
        <time>2021-10-17T13:05:46Z</time>
      </trkpt>
      <trkpt lat="46.3952" lon="5.95457">
        <ele>1107.4</ele>
        <time>2021-10-17T13:05:47Z</time>
      </trkpt>
      <trkpt lat="46.39521" lon="5.9546">
        <ele>1107.8</ele>
        <time>2021-10-17T13:05:48Z</time>
      </trkpt>
      <trkpt lat="46.39522" lon="5.95463">
        <ele>1107.8</ele>
        <time>2021-10-17T13:05:49Z</time>
      </trkpt>
      <trkpt lat="46.39523" lon="5.95466">
        <ele>1108</ele>
        <time>2021-10-17T13:05:50Z</time>
      </trkpt>
      <trkpt lat="46.39524" lon="5.95469">
        <ele>1108.4</ele>
        <time>2021-10-17T13:05:51Z</time>
      </trkpt>
      <trkpt lat="46.39525" lon="5.95472">
        <ele>1108.4</ele>
        <time>2021-10-17T13:05:52Z</time>
      </trkpt>
      <trkpt lat="46.39526" lon="5.95475">
        <ele>1108.6</ele>
        <time>2021-10-17T13:05:53Z</time>
      </trkpt>
      <trkpt lat="46.39527" lon="5.95478">
        <ele>1108.8</ele>
        <time>2021-10-17T13:05:54Z</time>
      </trkpt>
      <trkpt lat="46.39528" lon="5.95482">
        <ele>1108.8</ele>
        <time>2021-10-17T13:05:55Z</time>
      </trkpt>
      <trkpt lat="46.39529" lon="5.95485">
        <ele>1109.2</ele>
        <time>2021-10-17T13:05:56Z</time>
      </trkpt>
      <trkpt lat="46.3953" lon="5.95488">
        <ele>1109.2</ele>
        <time>2021-10-17T13:05:57Z</time>
      </trkpt>
      <trkpt lat="46.39531" lon="5.95491">
        <ele>1109.2</ele>
        <time>2021-10-17T13:05:58Z</time>
      </trkpt>
      <trkpt lat="46.39532" lon="5.95495">
        <ele>1109.4</ele>
        <time>2021-10-17T13:05:59Z</time>
      </trkpt>
      <trkpt lat="46.39534" lon="5.955">
        <ele>1109.4</ele>
        <time>2021-10-17T13:06:00Z</time>
      </trkpt>
      <trkpt lat="46.39534" lon="5.95501">
        <ele>1109.6</ele>
        <time>2021-10-17T13:06:01Z</time>
      </trkpt>
      <trkpt lat="46.39536" lon="5.95504">
        <ele>1109.6</ele>
        <time>2021-10-17T13:06:02Z</time>
      </trkpt>
      <trkpt lat="46.39537" lon="5.95508">
        <ele>1110</ele>
        <time>2021-10-17T13:06:03Z</time>
      </trkpt>
      <trkpt lat="46.39538" lon="5.95511">
        <ele>1110.2</ele>
        <time>2021-10-17T13:06:04Z</time>
      </trkpt>
      <trkpt lat="46.39539" lon="5.95516">
        <ele>1110.2</ele>
        <time>2021-10-17T13:06:05Z</time>
      </trkpt>
      <trkpt lat="46.3954" lon="5.95518">
        <ele>1110.4</ele>
        <time>2021-10-17T13:06:06Z</time>
      </trkpt>
      <trkpt lat="46.39541" lon="5.95521">
        <ele>1110.4</ele>
        <time>2021-10-17T13:06:07Z</time>
      </trkpt>
      <trkpt lat="46.39542" lon="5.95525">
        <ele>1110.8</ele>
        <time>2021-10-17T13:06:08Z</time>
      </trkpt>
      <trkpt lat="46.39543" lon="5.95528">
        <ele>1110.8</ele>
        <time>2021-10-17T13:06:09Z</time>
      </trkpt>
      <trkpt lat="46.39545" lon="5.95532">
        <ele>1111</ele>
        <time>2021-10-17T13:06:10Z</time>
      </trkpt>
      <trkpt lat="46.39546" lon="5.95536">
        <ele>1111.2</ele>
        <time>2021-10-17T13:06:11Z</time>
      </trkpt>
      <trkpt lat="46.39547" lon="5.95539">
        <ele>1111.2</ele>
        <time>2021-10-17T13:06:12Z</time>
      </trkpt>
      <trkpt lat="46.39548" lon="5.95543">
        <ele>1111.6</ele>
        <time>2021-10-17T13:06:13Z</time>
      </trkpt>
      <trkpt lat="46.39549" lon="5.95546">
        <ele>1111.6</ele>
        <time>2021-10-17T13:06:14Z</time>
      </trkpt>
      <trkpt lat="46.3955" lon="5.9555">
        <ele>1112</ele>
        <time>2021-10-17T13:06:15Z</time>
      </trkpt>
      <trkpt lat="46.39551" lon="5.95553">
        <ele>1112</ele>
        <time>2021-10-17T13:06:16Z</time>
      </trkpt>
      <trkpt lat="46.39553" lon="5.95557">
        <ele>1112.4</ele>
        <time>2021-10-17T13:06:17Z</time>
      </trkpt>
      <trkpt lat="46.39554" lon="5.95561">
        <ele>1112.6</ele>
        <time>2021-10-17T13:06:18Z</time>
      </trkpt>
      <trkpt lat="46.39556" lon="5.95566">
        <ele>1112.8</ele>
        <time>2021-10-17T13:06:19Z</time>
      </trkpt>
      <trkpt lat="46.39556" lon="5.95568">
        <ele>1113</ele>
        <time>2021-10-17T13:06:20Z</time>
      </trkpt>
      <trkpt lat="46.39557" lon="5.95574">
        <ele>1113</ele>
        <time>2021-10-17T13:06:21Z</time>
      </trkpt>
      <trkpt lat="46.39558" lon="5.95576">
        <ele>1113.4</ele>
        <time>2021-10-17T13:06:22Z</time>
      </trkpt>
      <trkpt lat="46.39559" lon="5.9558">
        <ele>1113.4</ele>
        <time>2021-10-17T13:06:23Z</time>
      </trkpt>
      <trkpt lat="46.3956" lon="5.95585">
        <ele>1113.6</ele>
        <time>2021-10-17T13:06:24Z</time>
      </trkpt>
      <trkpt lat="46.3956" lon="5.95587">
        <ele>1113.6</ele>
        <time>2021-10-17T13:06:25Z</time>
      </trkpt>
      <trkpt lat="46.39561" lon="5.95591">
        <ele>1114</ele>
        <time>2021-10-17T13:06:26Z</time>
      </trkpt>
      <trkpt lat="46.39562" lon="5.95595">
        <ele>1114</ele>
        <time>2021-10-17T13:06:27Z</time>
      </trkpt>
      <trkpt lat="46.39563" lon="5.95599">
        <ele>1114.2</ele>
        <time>2021-10-17T13:06:28Z</time>
      </trkpt>
      <trkpt lat="46.39564" lon="5.95604">
        <ele>1114.2</ele>
        <time>2021-10-17T13:06:29Z</time>
      </trkpt>
      <trkpt lat="46.39564" lon="5.95606">
        <ele>1114.6</ele>
        <time>2021-10-17T13:06:30Z</time>
      </trkpt>
      <trkpt lat="46.39565" lon="5.95609">
        <ele>1114.8</ele>
        <time>2021-10-17T13:06:31Z</time>
      </trkpt>
      <trkpt lat="46.39565" lon="5.95613">
        <ele>1115.2</ele>
        <time>2021-10-17T13:06:32Z</time>
      </trkpt>
      <trkpt lat="46.39566" lon="5.95616">
        <ele>1115.2</ele>
        <time>2021-10-17T13:06:33Z</time>
      </trkpt>
      <trkpt lat="46.39566" lon="5.9562">
        <ele>1115.4</ele>
        <time>2021-10-17T13:06:34Z</time>
      </trkpt>
      <trkpt lat="46.39566" lon="5.95625">
        <ele>1115.4</ele>
        <time>2021-10-17T13:06:35Z</time>
      </trkpt>
      <trkpt lat="46.39567" lon="5.95627">
        <ele>1115.8</ele>
        <time>2021-10-17T13:06:36Z</time>
      </trkpt>
      <trkpt lat="46.39567" lon="5.95633">
        <ele>1115.8</ele>
        <time>2021-10-17T13:06:37Z</time>
      </trkpt>
      <trkpt lat="46.39567" lon="5.95635">
        <ele>1116.2</ele>
        <time>2021-10-17T13:06:38Z</time>
      </trkpt>
      <trkpt lat="46.39568" lon="5.95638">
        <ele>1116.2</ele>
        <time>2021-10-17T13:06:39Z</time>
      </trkpt>
      <trkpt lat="46.39568" lon="5.95642">
        <ele>1116.4</ele>
        <time>2021-10-17T13:06:40Z</time>
      </trkpt>
      <trkpt lat="46.39568" lon="5.95646">
        <ele>1116.4</ele>
        <time>2021-10-17T13:06:41Z</time>
      </trkpt>
      <trkpt lat="46.39568" lon="5.95649">
        <ele>1116.8</ele>
        <time>2021-10-17T13:06:42Z</time>
      </trkpt>
      <trkpt lat="46.39568" lon="5.95653">
        <ele>1116.8</ele>
        <time>2021-10-17T13:06:43Z</time>
      </trkpt>
      <trkpt lat="46.39569" lon="5.95656">
        <ele>1117.2</ele>
        <time>2021-10-17T13:06:44Z</time>
      </trkpt>
      <trkpt lat="46.39569" lon="5.9566">
        <ele>1117.4</ele>
        <time>2021-10-17T13:06:45Z</time>
      </trkpt>
      <trkpt lat="46.39569" lon="5.95664">
        <ele>1117.4</ele>
        <time>2021-10-17T13:06:46Z</time>
      </trkpt>
      <trkpt lat="46.39568" lon="5.95667">
        <ele>1117.6</ele>
        <time>2021-10-17T13:06:47Z</time>
      </trkpt>
      <trkpt lat="46.39568" lon="5.95671">
        <ele>1117.6</ele>
        <time>2021-10-17T13:06:48Z</time>
      </trkpt>
      <trkpt lat="46.39568" lon="5.95675">
        <ele>1118</ele>
        <time>2021-10-17T13:06:49Z</time>
      </trkpt>
      <trkpt lat="46.39568" lon="5.95679">
        <ele>1118</ele>
        <time>2021-10-17T13:06:50Z</time>
      </trkpt>
      <trkpt lat="46.39568" lon="5.95683">
        <ele>1118.4</ele>
        <time>2021-10-17T13:06:51Z</time>
      </trkpt>
      <trkpt lat="46.39567" lon="5.95687">
        <ele>1118.4</ele>
        <time>2021-10-17T13:06:52Z</time>
      </trkpt>
      <trkpt lat="46.39567" lon="5.9569">
        <ele>1118.8</ele>
        <time>2021-10-17T13:06:53Z</time>
      </trkpt>
      <trkpt lat="46.39567" lon="5.95694">
        <ele>1118.8</ele>
        <time>2021-10-17T13:06:54Z</time>
      </trkpt>
      <trkpt lat="46.39567" lon="5.95697">
        <ele>1119</ele>
        <time>2021-10-17T13:06:55Z</time>
      </trkpt>
      <trkpt lat="46.39567" lon="5.95701">
        <ele>1119</ele>
        <time>2021-10-17T13:06:56Z</time>
      </trkpt>
      <trkpt lat="46.39567" lon="5.95704">
        <ele>1119.4</ele>
        <time>2021-10-17T13:06:57Z</time>
      </trkpt>
      <trkpt lat="46.39567" lon="5.95707">
        <ele>1119.4</ele>
        <time>2021-10-17T13:06:58Z</time>
      </trkpt>
      <trkpt lat="46.39566" lon="5.9571">
        <ele>1119.6</ele>
        <time>2021-10-17T13:06:59Z</time>
      </trkpt>
      <trkpt lat="46.39566" lon="5.95714">
        <ele>1119.6</ele>
        <time>2021-10-17T13:07:00Z</time>
      </trkpt>
      <trkpt lat="46.39566" lon="5.95717">
        <ele>1120</ele>
        <time>2021-10-17T13:07:01Z</time>
      </trkpt>
      <trkpt lat="46.39566" lon="5.9572">
        <ele>1120</ele>
        <time>2021-10-17T13:07:02Z</time>
      </trkpt>
      <trkpt lat="46.39566" lon="5.95723">
        <ele>1120.2</ele>
        <time>2021-10-17T13:07:03Z</time>
      </trkpt>
      <trkpt lat="46.39566" lon="5.95726">
        <ele>1120.2</ele>
        <time>2021-10-17T13:07:04Z</time>
      </trkpt>
      <trkpt lat="46.39565" lon="5.95729">
        <ele>1120.6</ele>
        <time>2021-10-17T13:07:05Z</time>
      </trkpt>
      <trkpt lat="46.39565" lon="5.95732">
        <ele>1120.6</ele>
        <time>2021-10-17T13:07:06Z</time>
      </trkpt>
      <trkpt lat="46.39565" lon="5.95735">
        <ele>1120.8</ele>
        <time>2021-10-17T13:07:07Z</time>
      </trkpt>
      <trkpt lat="46.39565" lon="5.9574">
        <ele>1120.8</ele>
        <time>2021-10-17T13:07:08Z</time>
      </trkpt>
      <trkpt lat="46.39565" lon="5.95742">
        <ele>1121</ele>
        <time>2021-10-17T13:07:09Z</time>
      </trkpt>
      <trkpt lat="46.39565" lon="5.95745">
        <ele>1121</ele>
        <time>2021-10-17T13:07:10Z</time>
      </trkpt>
      <trkpt lat="46.39564" lon="5.95749">
        <ele>1121.2</ele>
        <time>2021-10-17T13:07:11Z</time>
      </trkpt>
      <trkpt lat="46.39564" lon="5.95752">
        <ele>1121.2</ele>
        <time>2021-10-17T13:07:12Z</time>
      </trkpt>
      <trkpt lat="46.39564" lon="5.95758">
        <ele>1121.6</ele>
        <time>2021-10-17T13:07:13Z</time>
      </trkpt>
      <trkpt lat="46.39564" lon="5.95759">
        <ele>1121.6</ele>
        <time>2021-10-17T13:07:14Z</time>
      </trkpt>
      <trkpt lat="46.39565" lon="5.95763">
        <ele>1122</ele>
        <time>2021-10-17T13:07:15Z</time>
      </trkpt>
      <trkpt lat="46.39565" lon="5.95767">
        <ele>1122</ele>
        <time>2021-10-17T13:07:16Z</time>
      </trkpt>
      <trkpt lat="46.39565" lon="5.9577">
        <ele>1122.2</ele>
        <time>2021-10-17T13:07:17Z</time>
      </trkpt>
      <trkpt lat="46.39566" lon="5.95774">
        <ele>1122.2</ele>
        <time>2021-10-17T13:07:18Z</time>
      </trkpt>
      <trkpt lat="46.39566" lon="5.95777">
        <ele>1122.6</ele>
        <time>2021-10-17T13:07:19Z</time>
      </trkpt>
      <trkpt lat="46.39566" lon="5.95783">
        <ele>1122.6</ele>
        <time>2021-10-17T13:07:20Z</time>
      </trkpt>
      <trkpt lat="46.39567" lon="5.95784">
        <ele>1122.8</ele>
        <time>2021-10-17T13:07:21Z</time>
      </trkpt>
      <trkpt lat="46.39567" lon="5.9579">
        <ele>1123</ele>
        <time>2021-10-17T13:07:22Z</time>
      </trkpt>
      <trkpt lat="46.39567" lon="5.95792">
        <ele>1123</ele>
        <time>2021-10-17T13:07:23Z</time>
      </trkpt>
      <trkpt lat="46.39567" lon="5.95795">
        <ele>1123.4</ele>
        <time>2021-10-17T13:07:24Z</time>
      </trkpt>
      <trkpt lat="46.39568" lon="5.95799">
        <ele>1123.4</ele>
        <time>2021-10-17T13:07:25Z</time>
      </trkpt>
      <trkpt lat="46.39568" lon="5.95803">
        <ele>1123.8</ele>
        <time>2021-10-17T13:07:26Z</time>
      </trkpt>
      <trkpt lat="46.39569" lon="5.95807">
        <ele>1123.8</ele>
        <time>2021-10-17T13:07:27Z</time>
      </trkpt>
      <trkpt lat="46.39569" lon="5.95811">
        <ele>1124</ele>
        <time>2021-10-17T13:07:28Z</time>
      </trkpt>
      <trkpt lat="46.3957" lon="5.95817">
        <ele>1124</ele>
        <time>2021-10-17T13:07:29Z</time>
      </trkpt>
      <trkpt lat="46.3957" lon="5.95819">
        <ele>1124.4</ele>
        <time>2021-10-17T13:07:30Z</time>
      </trkpt>
      <trkpt lat="46.39571" lon="5.95825">
        <ele>1124.4</ele>
        <time>2021-10-17T13:07:31Z</time>
      </trkpt>
      <trkpt lat="46.39572" lon="5.95827">
        <ele>1124.8</ele>
        <time>2021-10-17T13:07:32Z</time>
      </trkpt>
      <trkpt lat="46.39573" lon="5.95833">
        <ele>1124.8</ele>
        <time>2021-10-17T13:07:33Z</time>
      </trkpt>
      <trkpt lat="46.39573" lon="5.95835">
        <ele>1125</ele>
        <time>2021-10-17T13:07:34Z</time>
      </trkpt>
      <trkpt lat="46.39574" lon="5.95841">
        <ele>1125</ele>
        <time>2021-10-17T13:07:35Z</time>
      </trkpt>
      <trkpt lat="46.39575" lon="5.95843">
        <ele>1125.4</ele>
        <time>2021-10-17T13:07:36Z</time>
      </trkpt>
      <trkpt lat="46.39576" lon="5.95847">
        <ele>1125.4</ele>
        <time>2021-10-17T13:07:37Z</time>
      </trkpt>
      <trkpt lat="46.39577" lon="5.95853">
        <ele>1125.6</ele>
        <time>2021-10-17T13:07:38Z</time>
      </trkpt>
      <trkpt lat="46.39578" lon="5.95855">
        <ele>1125.6</ele>
        <time>2021-10-17T13:07:39Z</time>
      </trkpt>
      <trkpt lat="46.39579" lon="5.95859">
        <ele>1125.8</ele>
        <time>2021-10-17T13:07:40Z</time>
      </trkpt>
      <trkpt lat="46.3958" lon="5.95863">
        <ele>1125.8</ele>
        <time>2021-10-17T13:07:41Z</time>
      </trkpt>
      <trkpt lat="46.39582" lon="5.95867">
        <ele>1126</ele>
        <time>2021-10-17T13:07:42Z</time>
      </trkpt>
      <trkpt lat="46.39583" lon="5.95871">
        <ele>1126</ele>
        <time>2021-10-17T13:07:43Z</time>
      </trkpt>
      <trkpt lat="46.39584" lon="5.95875">
        <ele>1126</ele>
        <time>2021-10-17T13:07:44Z</time>
      </trkpt>
      <trkpt lat="46.39586" lon="5.9588">
        <ele>1126.4</ele>
        <time>2021-10-17T13:07:45Z</time>
      </trkpt>
      <trkpt lat="46.39586" lon="5.95882">
        <ele>1126.4</ele>
        <time>2021-10-17T13:07:46Z</time>
      </trkpt>
      <trkpt lat="46.39589" lon="5.95888">
        <ele>1126.6</ele>
        <time>2021-10-17T13:07:47Z</time>
      </trkpt>
      <trkpt lat="46.39589" lon="5.9589">
        <ele>1126.6</ele>
        <time>2021-10-17T13:07:48Z</time>
      </trkpt>
      <trkpt lat="46.39592" lon="5.95896">
        <ele>1127</ele>
        <time>2021-10-17T13:07:49Z</time>
      </trkpt>
      <trkpt lat="46.39592" lon="5.95898">
        <ele>1127</ele>
        <time>2021-10-17T13:07:50Z</time>
      </trkpt>
      <trkpt lat="46.39594" lon="5.95902">
        <ele>1127.2</ele>
        <time>2021-10-17T13:07:51Z</time>
      </trkpt>
      <trkpt lat="46.39596" lon="5.95906">
        <ele>1127.2</ele>
        <time>2021-10-17T13:07:52Z</time>
      </trkpt>
      <trkpt lat="46.39597" lon="5.9591">
        <ele>1127.2</ele>
        <time>2021-10-17T13:07:53Z</time>
      </trkpt>
      <trkpt lat="46.39599" lon="5.95914">
        <ele>1127.4</ele>
        <time>2021-10-17T13:07:54Z</time>
      </trkpt>
      <trkpt lat="46.39601" lon="5.95918">
        <ele>1127.4</ele>
        <time>2021-10-17T13:07:55Z</time>
      </trkpt>
      <trkpt lat="46.39602" lon="5.95922">
        <ele>1127.8</ele>
        <time>2021-10-17T13:07:56Z</time>
      </trkpt>
      <trkpt lat="46.39604" lon="5.95926">
        <ele>1127.8</ele>
        <time>2021-10-17T13:07:57Z</time>
      </trkpt>
      <trkpt lat="46.39606" lon="5.9593">
        <ele>1128</ele>
        <time>2021-10-17T13:07:58Z</time>
      </trkpt>
      <trkpt lat="46.39608" lon="5.95934">
        <ele>1128</ele>
        <time>2021-10-17T13:07:59Z</time>
      </trkpt>
      <trkpt lat="46.3961" lon="5.95938">
        <ele>1128.2</ele>
        <time>2021-10-17T13:08:00Z</time>
      </trkpt>
      <trkpt lat="46.39613" lon="5.95944">
        <ele>1128.2</ele>
        <time>2021-10-17T13:08:01Z</time>
      </trkpt>
      <trkpt lat="46.39614" lon="5.95946">
        <ele>1128.6</ele>
        <time>2021-10-17T13:08:02Z</time>
      </trkpt>
      <trkpt lat="46.39616" lon="5.9595">
        <ele>1128.6</ele>
        <time>2021-10-17T13:08:03Z</time>
      </trkpt>
      <trkpt lat="46.39618" lon="5.95954">
        <ele>1128.6</ele>
        <time>2021-10-17T13:08:04Z</time>
      </trkpt>
      <trkpt lat="46.39621" lon="5.9596">
        <ele>1128.8</ele>
        <time>2021-10-17T13:08:05Z</time>
      </trkpt>
      <trkpt lat="46.39622" lon="5.95962">
        <ele>1128.8</ele>
        <time>2021-10-17T13:08:06Z</time>
      </trkpt>
      <trkpt lat="46.39624" lon="5.95966">
        <ele>1129</ele>
        <time>2021-10-17T13:08:07Z</time>
      </trkpt>
      <trkpt lat="46.39628" lon="5.95972">
        <ele>1129</ele>
        <time>2021-10-17T13:08:08Z</time>
      </trkpt>
      <trkpt lat="46.39629" lon="5.95974">
        <ele>1129</ele>
        <time>2021-10-17T13:08:09Z</time>
      </trkpt>
      <trkpt lat="46.39631" lon="5.95978">
        <ele>1129.2</ele>
        <time>2021-10-17T13:08:10Z</time>
      </trkpt>
      <trkpt lat="46.39634" lon="5.95984">
        <ele>1129.2</ele>
        <time>2021-10-17T13:08:11Z</time>
      </trkpt>
      <trkpt lat="46.39636" lon="5.95986">
        <ele>1129.2</ele>
        <time>2021-10-17T13:08:12Z</time>
      </trkpt>
      <trkpt lat="46.39638" lon="5.9599">
        <ele>1129.2</ele>
        <time>2021-10-17T13:08:13Z</time>
      </trkpt>
      <trkpt lat="46.3964" lon="5.95994">
        <ele>1129.6</ele>
        <time>2021-10-17T13:08:14Z</time>
      </trkpt>
      <trkpt lat="46.39642" lon="5.95998">
        <ele>1129.6</ele>
        <time>2021-10-17T13:08:15Z</time>
      </trkpt>
      <trkpt lat="46.39645" lon="5.96004">
        <ele>1129.8</ele>
        <time>2021-10-17T13:08:16Z</time>
      </trkpt>
      <trkpt lat="46.39646" lon="5.96006">
        <ele>1129.8</ele>
        <time>2021-10-17T13:08:17Z</time>
      </trkpt>
      <trkpt lat="46.39649" lon="5.96012">
        <ele>1129.8</ele>
        <time>2021-10-17T13:08:18Z</time>
      </trkpt>
      <trkpt lat="46.3965" lon="5.96014">
        <ele>1130</ele>
        <time>2021-10-17T13:08:19Z</time>
      </trkpt>
      <trkpt lat="46.39652" lon="5.96018">
        <ele>1130</ele>
        <time>2021-10-17T13:08:20Z</time>
      </trkpt>
      <trkpt lat="46.39654" lon="5.96022">
        <ele>1130</ele>
        <time>2021-10-17T13:08:21Z</time>
      </trkpt>
      <trkpt lat="46.39656" lon="5.96026">
        <ele>1130.2</ele>
        <time>2021-10-17T13:08:22Z</time>
      </trkpt>
      <trkpt lat="46.39658" lon="5.96031">
        <ele>1130.2</ele>
        <time>2021-10-17T13:08:23Z</time>
      </trkpt>
      <trkpt lat="46.39659" lon="5.96033">
        <ele>1130.4</ele>
        <time>2021-10-17T13:08:24Z</time>
      </trkpt>
      <trkpt lat="46.39661" lon="5.96037">
        <ele>1130.4</ele>
        <time>2021-10-17T13:08:25Z</time>
      </trkpt>
      <trkpt lat="46.39663" lon="5.96041">
        <ele>1130.8</ele>
        <time>2021-10-17T13:08:26Z</time>
      </trkpt>
      <trkpt lat="46.39665" lon="5.96045">
        <ele>1130.8</ele>
        <time>2021-10-17T13:08:27Z</time>
      </trkpt>
      <trkpt lat="46.39667" lon="5.96048">
        <ele>1131.2</ele>
        <time>2021-10-17T13:08:28Z</time>
      </trkpt>
      <trkpt lat="46.39668" lon="5.96052">
        <ele>1131.2</ele>
        <time>2021-10-17T13:08:29Z</time>
      </trkpt>
      <trkpt lat="46.3967" lon="5.96056">
        <ele>1131.4</ele>
        <time>2021-10-17T13:08:30Z</time>
      </trkpt>
      <trkpt lat="46.39672" lon="5.9606">
        <ele>1131.4</ele>
        <time>2021-10-17T13:08:31Z</time>
      </trkpt>
      <trkpt lat="46.39673" lon="5.96064">
        <ele>1131.6</ele>
        <time>2021-10-17T13:08:32Z</time>
      </trkpt>
      <trkpt lat="46.39675" lon="5.96068">
        <ele>1131.6</ele>
        <time>2021-10-17T13:08:33Z</time>
      </trkpt>
      <trkpt lat="46.39676" lon="5.96072">
        <ele>1131.8</ele>
        <time>2021-10-17T13:08:34Z</time>
      </trkpt>
      <trkpt lat="46.39679" lon="5.96078">
        <ele>1131.8</ele>
        <time>2021-10-17T13:08:35Z</time>
      </trkpt>
      <trkpt lat="46.3968" lon="5.96079">
        <ele>1132.2</ele>
        <time>2021-10-17T13:08:36Z</time>
      </trkpt>
      <trkpt lat="46.39682" lon="5.96083">
        <ele>1132.2</ele>
        <time>2021-10-17T13:08:37Z</time>
      </trkpt>
      <trkpt lat="46.39684" lon="5.96089">
        <ele>1132.4</ele>
        <time>2021-10-17T13:08:38Z</time>
      </trkpt>
      <trkpt lat="46.39685" lon="5.96091">
        <ele>1132.6</ele>
        <time>2021-10-17T13:08:39Z</time>
      </trkpt>
      <trkpt lat="46.39686" lon="5.96095">
        <ele>1133</ele>
        <time>2021-10-17T13:08:40Z</time>
      </trkpt>
      <trkpt lat="46.39688" lon="5.961">
        <ele>1133</ele>
        <time>2021-10-17T13:08:41Z</time>
      </trkpt>
      <trkpt lat="46.39689" lon="5.96101">
        <ele>1133.4</ele>
        <time>2021-10-17T13:08:42Z</time>
      </trkpt>
      <trkpt lat="46.3969" lon="5.96105">
        <ele>1133.6</ele>
        <time>2021-10-17T13:08:43Z</time>
      </trkpt>
      <trkpt lat="46.39692" lon="5.9611">
        <ele>1134</ele>
        <time>2021-10-17T13:08:44Z</time>
      </trkpt>
      <trkpt lat="46.39693" lon="5.96112">
        <ele>1134</ele>
        <time>2021-10-17T13:08:45Z</time>
      </trkpt>
      <trkpt lat="46.39694" lon="5.96115">
        <ele>1134.4</ele>
        <time>2021-10-17T13:08:46Z</time>
      </trkpt>
      <trkpt lat="46.39696" lon="5.96119">
        <ele>1134.4</ele>
        <time>2021-10-17T13:08:47Z</time>
      </trkpt>
      <trkpt lat="46.39697" lon="5.96122">
        <ele>1134.6</ele>
        <time>2021-10-17T13:08:48Z</time>
      </trkpt>
      <trkpt lat="46.39698" lon="5.96126">
        <ele>1134.6</ele>
        <time>2021-10-17T13:08:49Z</time>
      </trkpt>
      <trkpt lat="46.397" lon="5.96131">
        <ele>1135</ele>
        <time>2021-10-17T13:08:50Z</time>
      </trkpt>
      <trkpt lat="46.397" lon="5.96133">
        <ele>1135.2</ele>
        <time>2021-10-17T13:08:51Z</time>
      </trkpt>
      <trkpt lat="46.39701" lon="5.96137">
        <ele>1135.4</ele>
        <time>2021-10-17T13:08:52Z</time>
      </trkpt>
      <trkpt lat="46.39703" lon="5.9614">
        <ele>1135.6</ele>
        <time>2021-10-17T13:08:53Z</time>
      </trkpt>
      <trkpt lat="46.39704" lon="5.96145">
        <ele>1135.6</ele>
        <time>2021-10-17T13:08:54Z</time>
      </trkpt>
      <trkpt lat="46.39705" lon="5.96147">
        <ele>1136</ele>
        <time>2021-10-17T13:08:55Z</time>
      </trkpt>
      <trkpt lat="46.39707" lon="5.96153">
        <ele>1136</ele>
        <time>2021-10-17T13:08:56Z</time>
      </trkpt>
      <trkpt lat="46.39708" lon="5.96154">
        <ele>1136.4</ele>
        <time>2021-10-17T13:08:57Z</time>
      </trkpt>
      <trkpt lat="46.39709" lon="5.96157">
        <ele>1136.6</ele>
        <time>2021-10-17T13:08:58Z</time>
      </trkpt>
      <trkpt lat="46.3971" lon="5.96161">
        <ele>1136.6</ele>
        <time>2021-10-17T13:08:59Z</time>
      </trkpt>
      <trkpt lat="46.39712" lon="5.96164">
        <ele>1137</ele>
        <time>2021-10-17T13:09:00Z</time>
      </trkpt>
      <trkpt lat="46.39713" lon="5.96167">
        <ele>1137.2</ele>
        <time>2021-10-17T13:09:01Z</time>
      </trkpt>
      <trkpt lat="46.39713" lon="5.96171">
        <ele>1137.2</ele>
        <time>2021-10-17T13:09:02Z</time>
      </trkpt>
      <trkpt lat="46.39715" lon="5.96175">
        <ele>1137.4</ele>
        <time>2021-10-17T13:09:03Z</time>
      </trkpt>
      <trkpt lat="46.39716" lon="5.96179">
        <ele>1137.4</ele>
        <time>2021-10-17T13:09:04Z</time>
      </trkpt>
      <trkpt lat="46.39717" lon="5.96182">
        <ele>1137.8</ele>
        <time>2021-10-17T13:09:05Z</time>
      </trkpt>
      <trkpt lat="46.39718" lon="5.96186">
        <ele>1137.8</ele>
        <time>2021-10-17T13:09:06Z</time>
      </trkpt>
      <trkpt lat="46.3972" lon="5.96192">
        <ele>1138.2</ele>
        <time>2021-10-17T13:09:07Z</time>
      </trkpt>
      <trkpt lat="46.3972" lon="5.96194">
        <ele>1138.2</ele>
        <time>2021-10-17T13:09:08Z</time>
      </trkpt>
      <trkpt lat="46.39721" lon="5.96198">
        <ele>1138.6</ele>
        <time>2021-10-17T13:09:09Z</time>
      </trkpt>
      <trkpt lat="46.39722" lon="5.96201">
        <ele>1138.6</ele>
        <time>2021-10-17T13:09:10Z</time>
      </trkpt>
      <trkpt lat="46.39723" lon="5.96205">
        <ele>1138.8</ele>
        <time>2021-10-17T13:09:11Z</time>
      </trkpt>
      <trkpt lat="46.39724" lon="5.96209">
        <ele>1138.8</ele>
        <time>2021-10-17T13:09:12Z</time>
      </trkpt>
      <trkpt lat="46.39725" lon="5.96213">
        <ele>1139.2</ele>
        <time>2021-10-17T13:09:13Z</time>
      </trkpt>
      <trkpt lat="46.39726" lon="5.96217">
        <ele>1139.2</ele>
        <time>2021-10-17T13:09:14Z</time>
      </trkpt>
      <trkpt lat="46.39726" lon="5.96221">
        <ele>1139.6</ele>
        <time>2021-10-17T13:09:15Z</time>
      </trkpt>
      <trkpt lat="46.39727" lon="5.96227">
        <ele>1139.8</ele>
        <time>2021-10-17T13:09:16Z</time>
      </trkpt>
      <trkpt lat="46.39727" lon="5.96229">
        <ele>1140</ele>
        <time>2021-10-17T13:09:17Z</time>
      </trkpt>
      <trkpt lat="46.39728" lon="5.96233">
        <ele>1140</ele>
        <time>2021-10-17T13:09:18Z</time>
      </trkpt>
      <trkpt lat="46.39729" lon="5.96237">
        <ele>1140.4</ele>
        <time>2021-10-17T13:09:19Z</time>
      </trkpt>
      <trkpt lat="46.39729" lon="5.96241">
        <ele>1140.6</ele>
        <time>2021-10-17T13:09:20Z</time>
      </trkpt>
      <trkpt lat="46.3973" lon="5.96245">
        <ele>1140.6</ele>
        <time>2021-10-17T13:09:21Z</time>
      </trkpt>
      <trkpt lat="46.3973" lon="5.96249">
        <ele>1140.8</ele>
        <time>2021-10-17T13:09:22Z</time>
      </trkpt>
      <trkpt lat="46.39731" lon="5.96253">
        <ele>1140.8</ele>
        <time>2021-10-17T13:09:23Z</time>
      </trkpt>
      <trkpt lat="46.39731" lon="5.96257">
        <ele>1141.2</ele>
        <time>2021-10-17T13:09:24Z</time>
      </trkpt>
      <trkpt lat="46.39732" lon="5.96264">
        <ele>1141.2</ele>
        <time>2021-10-17T13:09:25Z</time>
      </trkpt>
      <trkpt lat="46.39732" lon="5.96266">
        <ele>1141.6</ele>
        <time>2021-10-17T13:09:26Z</time>
      </trkpt>
      <trkpt lat="46.39732" lon="5.9627">
        <ele>1141.6</ele>
        <time>2021-10-17T13:09:27Z</time>
      </trkpt>
      <trkpt lat="46.39732" lon="5.96274">
        <ele>1141.8</ele>
        <time>2021-10-17T13:09:28Z</time>
      </trkpt>
      <trkpt lat="46.39733" lon="5.96279">
        <ele>1141.8</ele>
        <time>2021-10-17T13:09:29Z</time>
      </trkpt>
      <trkpt lat="46.39733" lon="5.96285">
        <ele>1142</ele>
        <time>2021-10-17T13:09:30Z</time>
      </trkpt>
      <trkpt lat="46.39734" lon="5.96287">
        <ele>1142</ele>
        <time>2021-10-17T13:09:31Z</time>
      </trkpt>
      <trkpt lat="46.39734" lon="5.96292">
        <ele>1142</ele>
        <time>2021-10-17T13:09:32Z</time>
      </trkpt>
      <trkpt lat="46.39734" lon="5.96296">
        <ele>1142.2</ele>
        <time>2021-10-17T13:09:33Z</time>
      </trkpt>
      <trkpt lat="46.39735" lon="5.96301">
        <ele>1142.2</ele>
        <time>2021-10-17T13:09:34Z</time>
      </trkpt>
      <trkpt lat="46.39735" lon="5.96305">
        <ele>1142.6</ele>
        <time>2021-10-17T13:09:35Z</time>
      </trkpt>
      <trkpt lat="46.39735" lon="5.96311">
        <ele>1142.6</ele>
        <time>2021-10-17T13:09:36Z</time>
      </trkpt>
      <trkpt lat="46.39735" lon="5.96314">
        <ele>1142.8</ele>
        <time>2021-10-17T13:09:37Z</time>
      </trkpt>
      <trkpt lat="46.39736" lon="5.96318">
        <ele>1142.8</ele>
        <time>2021-10-17T13:09:38Z</time>
      </trkpt>
      <trkpt lat="46.39737" lon="5.96322">
        <ele>1142.8</ele>
        <time>2021-10-17T13:09:39Z</time>
      </trkpt>
      <trkpt lat="46.39737" lon="5.96327">
        <ele>1143.2</ele>
        <time>2021-10-17T13:09:40Z</time>
      </trkpt>
      <trkpt lat="46.39737" lon="5.96331">
        <ele>1143.2</ele>
        <time>2021-10-17T13:09:41Z</time>
      </trkpt>
      <trkpt lat="46.39738" lon="5.96336">
        <ele>1143.6</ele>
        <time>2021-10-17T13:09:42Z</time>
      </trkpt>
      <trkpt lat="46.39739" lon="5.9634">
        <ele>1143.6</ele>
        <time>2021-10-17T13:09:43Z</time>
      </trkpt>
      <trkpt lat="46.39739" lon="5.96344">
        <ele>1143.8</ele>
        <time>2021-10-17T13:09:44Z</time>
      </trkpt>
      <trkpt lat="46.3974" lon="5.96349">
        <ele>1143.8</ele>
        <time>2021-10-17T13:09:45Z</time>
      </trkpt>
      <trkpt lat="46.3974" lon="5.96353">
        <ele>1143.8</ele>
        <time>2021-10-17T13:09:46Z</time>
      </trkpt>
      <trkpt lat="46.39741" lon="5.96358">
        <ele>1144</ele>
        <time>2021-10-17T13:09:47Z</time>
      </trkpt>
      <trkpt lat="46.39742" lon="5.96363">
        <ele>1144</ele>
        <time>2021-10-17T13:09:48Z</time>
      </trkpt>
      <trkpt lat="46.39742" lon="5.96367">
        <ele>1144.2</ele>
        <time>2021-10-17T13:09:49Z</time>
      </trkpt>
      <trkpt lat="46.39743" lon="5.96372">
        <ele>1144.2</ele>
        <time>2021-10-17T13:09:50Z</time>
      </trkpt>
      <trkpt lat="46.39743" lon="5.96377">
        <ele>1144.6</ele>
        <time>2021-10-17T13:09:51Z</time>
      </trkpt>
      <trkpt lat="46.39744" lon="5.96381">
        <ele>1144.6</ele>
        <time>2021-10-17T13:09:52Z</time>
      </trkpt>
      <trkpt lat="46.39745" lon="5.96386">
        <ele>1144.8</ele>
        <time>2021-10-17T13:09:53Z</time>
      </trkpt>
      <trkpt lat="46.39745" lon="5.9639">
        <ele>1144.8</ele>
        <time>2021-10-17T13:09:54Z</time>
      </trkpt>
      <trkpt lat="46.39746" lon="5.96395">
        <ele>1144.8</ele>
        <time>2021-10-17T13:09:55Z</time>
      </trkpt>
      <trkpt lat="46.39746" lon="5.964">
        <ele>1144.8</ele>
        <time>2021-10-17T13:09:56Z</time>
      </trkpt>
      <trkpt lat="46.39746" lon="5.96405">
        <ele>1145</ele>
        <time>2021-10-17T13:09:57Z</time>
      </trkpt>
      <trkpt lat="46.39746" lon="5.9641">
        <ele>1145</ele>
        <time>2021-10-17T13:09:58Z</time>
      </trkpt>
      <trkpt lat="46.39746" lon="5.96415">
        <ele>1145</ele>
        <time>2021-10-17T13:09:59Z</time>
      </trkpt>
      <trkpt lat="46.39745" lon="5.9642">
        <ele>1145.4</ele>
        <time>2021-10-17T13:10:00Z</time>
      </trkpt>
      <trkpt lat="46.39744" lon="5.96424">
        <ele>1145.4</ele>
        <time>2021-10-17T13:10:01Z</time>
      </trkpt>
      <trkpt lat="46.39741" lon="5.9643">
        <ele>1145.4</ele>
        <time>2021-10-17T13:10:02Z</time>
      </trkpt>
      <trkpt lat="46.3974" lon="5.96432">
        <ele>1145.4</ele>
        <time>2021-10-17T13:10:03Z</time>
      </trkpt>
      <trkpt lat="46.39738" lon="5.96436">
        <ele>1145.4</ele>
        <time>2021-10-17T13:10:04Z</time>
      </trkpt>
      <trkpt lat="46.39736" lon="5.9644">
        <ele>1145.6</ele>
        <time>2021-10-17T13:10:05Z</time>
      </trkpt>
      <trkpt lat="46.39733" lon="5.96444">
        <ele>1145.6</ele>
        <time>2021-10-17T13:10:06Z</time>
      </trkpt>
      <trkpt lat="46.39731" lon="5.96447">
        <ele>1145.6</ele>
        <time>2021-10-17T13:10:07Z</time>
      </trkpt>
      <trkpt lat="46.39728" lon="5.96451">
        <ele>1146</ele>
        <time>2021-10-17T13:10:08Z</time>
      </trkpt>
      <trkpt lat="46.39725" lon="5.96456">
        <ele>1146</ele>
        <time>2021-10-17T13:10:09Z</time>
      </trkpt>
      <trkpt lat="46.39723" lon="5.96458">
        <ele>1146</ele>
        <time>2021-10-17T13:10:10Z</time>
      </trkpt>
      <trkpt lat="46.39721" lon="5.96462">
        <ele>1146.2</ele>
        <time>2021-10-17T13:10:11Z</time>
      </trkpt>
      <trkpt lat="46.39719" lon="5.96466">
        <ele>1146.2</ele>
        <time>2021-10-17T13:10:12Z</time>
      </trkpt>
      <trkpt lat="46.39717" lon="5.96469">
        <ele>1146.4</ele>
        <time>2021-10-17T13:10:13Z</time>
      </trkpt>
      <trkpt lat="46.39714" lon="5.96473">
        <ele>1146.4</ele>
        <time>2021-10-17T13:10:14Z</time>
      </trkpt>
      <trkpt lat="46.3971" lon="5.96478">
        <ele>1146.6</ele>
        <time>2021-10-17T13:10:15Z</time>
      </trkpt>
      <trkpt lat="46.39709" lon="5.9648">
        <ele>1146.6</ele>
        <time>2021-10-17T13:10:16Z</time>
      </trkpt>
      <trkpt lat="46.39707" lon="5.96484">
        <ele>1146.8</ele>
        <time>2021-10-17T13:10:17Z</time>
      </trkpt>
      <trkpt lat="46.39705" lon="5.96487">
        <ele>1146.8</ele>
        <time>2021-10-17T13:10:18Z</time>
      </trkpt>
      <trkpt lat="46.39703" lon="5.96491">
        <ele>1147.2</ele>
        <time>2021-10-17T13:10:19Z</time>
      </trkpt>
      <trkpt lat="46.397" lon="5.96494">
        <ele>1147.2</ele>
        <time>2021-10-17T13:10:20Z</time>
      </trkpt>
      <trkpt lat="46.39698" lon="5.96498">
        <ele>1147.4</ele>
        <time>2021-10-17T13:10:21Z</time>
      </trkpt>
      <trkpt lat="46.39696" lon="5.96502">
        <ele>1147.4</ele>
        <time>2021-10-17T13:10:22Z</time>
      </trkpt>
      <trkpt lat="46.39693" lon="5.96505">
        <ele>1147.6</ele>
        <time>2021-10-17T13:10:23Z</time>
      </trkpt>
      <trkpt lat="46.39691" lon="5.96509">
        <ele>1147.6</ele>
        <time>2021-10-17T13:10:24Z</time>
      </trkpt>
      <trkpt lat="46.39688" lon="5.96512">
        <ele>1147.8</ele>
        <time>2021-10-17T13:10:25Z</time>
      </trkpt>
      <trkpt lat="46.39685" lon="5.96518">
        <ele>1147.8</ele>
        <time>2021-10-17T13:10:26Z</time>
      </trkpt>
      <trkpt lat="46.39683" lon="5.9652">
        <ele>1148.2</ele>
        <time>2021-10-17T13:10:27Z</time>
      </trkpt>
      <trkpt lat="46.39681" lon="5.96523">
        <ele>1148.2</ele>
        <time>2021-10-17T13:10:28Z</time>
      </trkpt>
      <trkpt lat="46.39677" lon="5.9653">
        <ele>1148.4</ele>
        <time>2021-10-17T13:10:29Z</time>
      </trkpt>
      <trkpt lat="46.39676" lon="5.96532">
        <ele>1148.4</ele>
        <time>2021-10-17T13:10:30Z</time>
      </trkpt>
      <trkpt lat="46.39674" lon="5.96536">
        <ele>1148.4</ele>
        <time>2021-10-17T13:10:31Z</time>
      </trkpt>
      <trkpt lat="46.39671" lon="5.9654">
        <ele>1148.8</ele>
        <time>2021-10-17T13:10:32Z</time>
      </trkpt>
      <trkpt lat="46.3967" lon="5.96544">
        <ele>1148.8</ele>
        <time>2021-10-17T13:10:33Z</time>
      </trkpt>
      <trkpt lat="46.39668" lon="5.96547">
        <ele>1148.8</ele>
        <time>2021-10-17T13:10:34Z</time>
      </trkpt>
      <trkpt lat="46.39663" lon="5.96554">
        <ele>1149</ele>
        <time>2021-10-17T13:10:35Z</time>
      </trkpt>
      <trkpt lat="46.39661" lon="5.96558">
        <ele>1149</ele>
        <time>2021-10-17T13:10:36Z</time>
      </trkpt>
      <trkpt lat="46.39659" lon="5.96562">
        <ele>1149.2</ele>
        <time>2021-10-17T13:10:37Z</time>
      </trkpt>
      <trkpt lat="46.39657" lon="5.96568">
        <ele>1149.2</ele>
        <time>2021-10-17T13:10:38Z</time>
      </trkpt>
      <trkpt lat="46.39657" lon="5.9657">
        <ele>1149.4</ele>
        <time>2021-10-17T13:10:39Z</time>
      </trkpt>
      <trkpt lat="46.39657" lon="5.9657">
        <ele>1149.4</ele>
        <time>2021-10-17T13:10:40Z</time>
      </trkpt>
      <trkpt lat="46.39657" lon="5.96574">
        <ele>1149.4</ele>
        <time>2021-10-17T13:10:41Z</time>
      </trkpt>
      <trkpt lat="46.39658" lon="5.96578">
        <ele>1149.4</ele>
        <time>2021-10-17T13:10:42Z</time>
      </trkpt>
      <trkpt lat="46.3966" lon="5.9658">
        <ele>1149.4</ele>
        <time>2021-10-17T13:10:43Z</time>
      </trkpt>
      <trkpt lat="46.39662" lon="5.96583">
        <ele>1149.4</ele>
        <time>2021-10-17T13:10:44Z</time>
      </trkpt>
      <trkpt lat="46.39665" lon="5.96585">
        <ele>1149.4</ele>
        <time>2021-10-17T13:10:45Z</time>
      </trkpt>
      <trkpt lat="46.39668" lon="5.96588">
        <ele>1149.4</ele>
        <time>2021-10-17T13:10:46Z</time>
      </trkpt>
      <trkpt lat="46.39671" lon="5.9659">
        <ele>1149.4</ele>
        <time>2021-10-17T13:10:47Z</time>
      </trkpt>
      <trkpt lat="46.39675" lon="5.96594">
        <ele>1149.4</ele>
        <time>2021-10-17T13:10:48Z</time>
      </trkpt>
      <trkpt lat="46.3968" lon="5.96601">
        <ele>1149.2</ele>
        <time>2021-10-17T13:10:49Z</time>
      </trkpt>
      <trkpt lat="46.39682" lon="5.96603">
        <ele>1149</ele>
        <time>2021-10-17T13:10:50Z</time>
      </trkpt>
      <trkpt lat="46.39686" lon="5.96612">
        <ele>1149</ele>
        <time>2021-10-17T13:10:51Z</time>
      </trkpt>
      <trkpt lat="46.39688" lon="5.96615">
        <ele>1148.6</ele>
        <time>2021-10-17T13:10:52Z</time>
      </trkpt>
      <trkpt lat="46.3969" lon="5.96622">
        <ele>1148.4</ele>
        <time>2021-10-17T13:10:53Z</time>
      </trkpt>
      <trkpt lat="46.39693" lon="5.9663">
        <ele>1148</ele>
        <time>2021-10-17T13:10:54Z</time>
      </trkpt>
      <trkpt lat="46.39696" lon="5.96638">
        <ele>1147.8</ele>
        <time>2021-10-17T13:10:55Z</time>
      </trkpt>
      <trkpt lat="46.39701" lon="5.96649">
        <ele>1147.6</ele>
        <time>2021-10-17T13:10:56Z</time>
      </trkpt>
      <trkpt lat="46.39704" lon="5.96652">
        <ele>1147.2</ele>
        <time>2021-10-17T13:10:57Z</time>
      </trkpt>
      <trkpt lat="46.39709" lon="5.96658">
        <ele>1147</ele>
        <time>2021-10-17T13:10:58Z</time>
      </trkpt>
      <trkpt lat="46.39718" lon="5.96662">
        <ele>1147</ele>
        <time>2021-10-17T13:10:59Z</time>
      </trkpt>
      <trkpt lat="46.39722" lon="5.96664">
        <ele>1146.8</ele>
        <time>2021-10-17T13:11:00Z</time>
      </trkpt>
      <trkpt lat="46.39729" lon="5.96665">
        <ele>1146.6</ele>
        <time>2021-10-17T13:11:01Z</time>
      </trkpt>
      <trkpt lat="46.39737" lon="5.96664">
        <ele>1146.2</ele>
        <time>2021-10-17T13:11:02Z</time>
      </trkpt>
      <trkpt lat="46.39744" lon="5.96662">
        <ele>1146.2</ele>
        <time>2021-10-17T13:11:03Z</time>
      </trkpt>
      <trkpt lat="46.39751" lon="5.9666">
        <ele>1146</ele>
        <time>2021-10-17T13:11:04Z</time>
      </trkpt>
      <trkpt lat="46.39758" lon="5.96656">
        <ele>1146</ele>
        <time>2021-10-17T13:11:05Z</time>
      </trkpt>
      <trkpt lat="46.39767" lon="5.9665">
        <ele>1146</ele>
        <time>2021-10-17T13:11:06Z</time>
      </trkpt>
      <trkpt lat="46.3977" lon="5.96649">
        <ele>1146</ele>
        <time>2021-10-17T13:11:07Z</time>
      </trkpt>
      <trkpt lat="46.39776" lon="5.96645">
        <ele>1146</ele>
        <time>2021-10-17T13:11:08Z</time>
      </trkpt>
      <trkpt lat="46.39782" lon="5.96642">
        <ele>1146</ele>
        <time>2021-10-17T13:11:09Z</time>
      </trkpt>
      <trkpt lat="46.3979" lon="5.96637">
        <ele>1146</ele>
        <time>2021-10-17T13:11:10Z</time>
      </trkpt>
      <trkpt lat="46.39793" lon="5.96636">
        <ele>1146</ele>
        <time>2021-10-17T13:11:11Z</time>
      </trkpt>
      <trkpt lat="46.39798" lon="5.96633">
        <ele>1146</ele>
        <time>2021-10-17T13:11:12Z</time>
      </trkpt>
      <trkpt lat="46.39804" lon="5.96632">
        <ele>1146</ele>
        <time>2021-10-17T13:11:13Z</time>
      </trkpt>
      <trkpt lat="46.39812" lon="5.9663">
        <ele>1146</ele>
        <time>2021-10-17T13:11:14Z</time>
      </trkpt>
      <trkpt lat="46.39816" lon="5.9663">
        <ele>1145.6</ele>
        <time>2021-10-17T13:11:15Z</time>
      </trkpt>
      <trkpt lat="46.39825" lon="5.9663">
        <ele>1145.6</ele>
        <time>2021-10-17T13:11:16Z</time>
      </trkpt>
      <trkpt lat="46.39828" lon="5.9663">
        <ele>1145.6</ele>
        <time>2021-10-17T13:11:17Z</time>
      </trkpt>
      <trkpt lat="46.39834" lon="5.96631">
        <ele>1145.6</ele>
        <time>2021-10-17T13:11:18Z</time>
      </trkpt>
      <trkpt lat="46.3984" lon="5.96632">
        <ele>1145.4</ele>
        <time>2021-10-17T13:11:19Z</time>
      </trkpt>
      <trkpt lat="46.39846" lon="5.96634">
        <ele>1145.4</ele>
        <time>2021-10-17T13:11:20Z</time>
      </trkpt>
      <trkpt lat="46.39852" lon="5.96635">
        <ele>1145.4</ele>
        <time>2021-10-17T13:11:21Z</time>
      </trkpt>
      <trkpt lat="46.39861" lon="5.96636">
        <ele>1145.4</ele>
        <time>2021-10-17T13:11:22Z</time>
      </trkpt>
      <trkpt lat="46.39865" lon="5.96637">
        <ele>1145.4</ele>
        <time>2021-10-17T13:11:23Z</time>
      </trkpt>
      <trkpt lat="46.39871" lon="5.96638">
        <ele>1145.4</ele>
        <time>2021-10-17T13:11:24Z</time>
      </trkpt>
      <trkpt lat="46.39877" lon="5.96638">
        <ele>1145.4</ele>
        <time>2021-10-17T13:11:25Z</time>
      </trkpt>
      <trkpt lat="46.39886" lon="5.96638">
        <ele>1145.4</ele>
        <time>2021-10-17T13:11:26Z</time>
      </trkpt>
      <trkpt lat="46.39889" lon="5.96637">
        <ele>1145.4</ele>
        <time>2021-10-17T13:11:27Z</time>
      </trkpt>
      <trkpt lat="46.39895" lon="5.96636">
        <ele>1145.4</ele>
        <time>2021-10-17T13:11:28Z</time>
      </trkpt>
      <trkpt lat="46.39902" lon="5.96635">
        <ele>1145.4</ele>
        <time>2021-10-17T13:11:29Z</time>
      </trkpt>
      <trkpt lat="46.39911" lon="5.96632">
        <ele>1145.4</ele>
        <time>2021-10-17T13:11:30Z</time>
      </trkpt>
      <trkpt lat="46.39914" lon="5.9663">
        <ele>1145.4</ele>
        <time>2021-10-17T13:11:31Z</time>
      </trkpt>
      <trkpt lat="46.3992" lon="5.96627">
        <ele>1145.4</ele>
        <time>2021-10-17T13:11:32Z</time>
      </trkpt>
      <trkpt lat="46.39928" lon="5.96621">
        <ele>1145.4</ele>
        <time>2021-10-17T13:11:33Z</time>
      </trkpt>
      <trkpt lat="46.39931" lon="5.96619">
        <ele>1145.4</ele>
        <time>2021-10-17T13:11:34Z</time>
      </trkpt>
      <trkpt lat="46.39936" lon="5.96614">
        <ele>1145.4</ele>
        <time>2021-10-17T13:11:35Z</time>
      </trkpt>
      <trkpt lat="46.39942" lon="5.96606">
        <ele>1145.4</ele>
        <time>2021-10-17T13:11:36Z</time>
      </trkpt>
      <trkpt lat="46.39944" lon="5.96603">
        <ele>1145.8</ele>
        <time>2021-10-17T13:11:37Z</time>
      </trkpt>
      <trkpt lat="46.3995" lon="5.96596">
        <ele>1146</ele>
        <time>2021-10-17T13:11:38Z</time>
      </trkpt>
      <trkpt lat="46.39951" lon="5.96594">
        <ele>1146</ele>
        <time>2021-10-17T13:11:39Z</time>
      </trkpt>
      <trkpt lat="46.39955" lon="5.9659">
        <ele>1146.4</ele>
        <time>2021-10-17T13:11:40Z</time>
      </trkpt>
      <trkpt lat="46.39958" lon="5.96587">
        <ele>1146.6</ele>
        <time>2021-10-17T13:11:41Z</time>
      </trkpt>
      <trkpt lat="46.39961" lon="5.96584">
        <ele>1146.6</ele>
        <time>2021-10-17T13:11:42Z</time>
      </trkpt>
      <trkpt lat="46.39964" lon="5.96582">
        <ele>1147</ele>
        <time>2021-10-17T13:11:43Z</time>
      </trkpt>
      <trkpt lat="46.39967" lon="5.96581">
        <ele>1147.4</ele>
        <time>2021-10-17T13:11:44Z</time>
      </trkpt>
      <trkpt lat="46.3997" lon="5.96581">
        <ele>1147.8</ele>
        <time>2021-10-17T13:11:45Z</time>
      </trkpt>
      <trkpt lat="46.39973" lon="5.96581">
        <ele>1148.2</ele>
        <time>2021-10-17T13:11:46Z</time>
      </trkpt>
      <trkpt lat="46.39977" lon="5.96581">
        <ele>1148.4</ele>
        <time>2021-10-17T13:11:47Z</time>
      </trkpt>
      <trkpt lat="46.3998" lon="5.96581">
        <ele>1148.4</ele>
        <time>2021-10-17T13:11:48Z</time>
      </trkpt>
      <trkpt lat="46.39983" lon="5.96581">
        <ele>1148.8</ele>
        <time>2021-10-17T13:11:49Z</time>
      </trkpt>
      <trkpt lat="46.39986" lon="5.96581">
        <ele>1149</ele>
        <time>2021-10-17T13:11:50Z</time>
      </trkpt>
      <trkpt lat="46.39989" lon="5.96581">
        <ele>1149</ele>
        <time>2021-10-17T13:11:51Z</time>
      </trkpt>
      <trkpt lat="46.39992" lon="5.96581">
        <ele>1149.4</ele>
        <time>2021-10-17T13:11:52Z</time>
      </trkpt>
      <trkpt lat="46.39995" lon="5.9658">
        <ele>1149.6</ele>
        <time>2021-10-17T13:11:53Z</time>
      </trkpt>
      <trkpt lat="46.39997" lon="5.9658">
        <ele>1149.8</ele>
        <time>2021-10-17T13:11:54Z</time>
      </trkpt>
      <trkpt lat="46.4" lon="5.9658">
        <ele>1149.8</ele>
        <time>2021-10-17T13:11:55Z</time>
      </trkpt>
      <trkpt lat="46.40003" lon="5.9658">
        <ele>1150.2</ele>
        <time>2021-10-17T13:11:56Z</time>
      </trkpt>
      <trkpt lat="46.40006" lon="5.9658">
        <ele>1150.2</ele>
        <time>2021-10-17T13:11:57Z</time>
      </trkpt>
      <trkpt lat="46.40009" lon="5.96581">
        <ele>1150.4</ele>
        <time>2021-10-17T13:11:58Z</time>
      </trkpt>
      <trkpt lat="46.40012" lon="5.96581">
        <ele>1150.4</ele>
        <time>2021-10-17T13:11:59Z</time>
      </trkpt>
      <trkpt lat="46.40015" lon="5.96581">
        <ele>1150.6</ele>
        <time>2021-10-17T13:12:00Z</time>
      </trkpt>
      <trkpt lat="46.40019" lon="5.96581">
        <ele>1150.6</ele>
        <time>2021-10-17T13:12:01Z</time>
      </trkpt>
      <trkpt lat="46.40022" lon="5.96581">
        <ele>1150.8</ele>
        <time>2021-10-17T13:12:02Z</time>
      </trkpt>
      <trkpt lat="46.40026" lon="5.9658">
        <ele>1150.8</ele>
        <time>2021-10-17T13:12:03Z</time>
      </trkpt>
      <trkpt lat="46.4003" lon="5.9658">
        <ele>1150.8</ele>
        <time>2021-10-17T13:12:04Z</time>
      </trkpt>
      <trkpt lat="46.40033" lon="5.9658">
        <ele>1150.8</ele>
        <time>2021-10-17T13:12:05Z</time>
      </trkpt>
      <trkpt lat="46.40037" lon="5.9658">
        <ele>1151.2</ele>
        <time>2021-10-17T13:12:06Z</time>
      </trkpt>
      <trkpt lat="46.40041" lon="5.96579">
        <ele>1151.2</ele>
        <time>2021-10-17T13:12:07Z</time>
      </trkpt>
      <trkpt lat="46.40045" lon="5.96579">
        <ele>1151.2</ele>
        <time>2021-10-17T13:12:08Z</time>
      </trkpt>
      <trkpt lat="46.40051" lon="5.96579">
        <ele>1151.2</ele>
        <time>2021-10-17T13:12:09Z</time>
      </trkpt>
      <trkpt lat="46.40053" lon="5.96579">
        <ele>1151.4</ele>
        <time>2021-10-17T13:12:10Z</time>
      </trkpt>
      <trkpt lat="46.40057" lon="5.96579">
        <ele>1151.4</ele>
        <time>2021-10-17T13:12:11Z</time>
      </trkpt>
      <trkpt lat="46.40061" lon="5.96579">
        <ele>1151.6</ele>
        <time>2021-10-17T13:12:12Z</time>
      </trkpt>
      <trkpt lat="46.40065" lon="5.96579">
        <ele>1151.6</ele>
        <time>2021-10-17T13:12:13Z</time>
      </trkpt>
      <trkpt lat="46.40068" lon="5.96578">
        <ele>1151.8</ele>
        <time>2021-10-17T13:12:14Z</time>
      </trkpt>
      <trkpt lat="46.40071" lon="5.96578">
        <ele>1151.8</ele>
        <time>2021-10-17T13:12:15Z</time>
      </trkpt>
      <trkpt lat="46.40076" lon="5.96577">
        <ele>1152.2</ele>
        <time>2021-10-17T13:12:16Z</time>
      </trkpt>
      <trkpt lat="46.40077" lon="5.96577">
        <ele>1152.2</ele>
        <time>2021-10-17T13:12:17Z</time>
      </trkpt>
      <trkpt lat="46.4008" lon="5.96576">
        <ele>1152.6</ele>
        <time>2021-10-17T13:12:18Z</time>
      </trkpt>
      <trkpt lat="46.40083" lon="5.96576">
        <ele>1152.6</ele>
        <time>2021-10-17T13:12:19Z</time>
      </trkpt>
      <trkpt lat="46.40086" lon="5.96576">
        <ele>1152.8</ele>
        <time>2021-10-17T13:12:20Z</time>
      </trkpt>
      <trkpt lat="46.40089" lon="5.96576">
        <ele>1152.8</ele>
        <time>2021-10-17T13:12:21Z</time>
      </trkpt>
      <trkpt lat="46.40092" lon="5.96576">
        <ele>1153.2</ele>
        <time>2021-10-17T13:12:22Z</time>
      </trkpt>
      <trkpt lat="46.40095" lon="5.96576">
        <ele>1153.2</ele>
        <time>2021-10-17T13:12:23Z</time>
      </trkpt>
      <trkpt lat="46.40098" lon="5.96576">
        <ele>1153.4</ele>
        <time>2021-10-17T13:12:24Z</time>
      </trkpt>
      <trkpt lat="46.40101" lon="5.96576">
        <ele>1153.4</ele>
        <time>2021-10-17T13:12:25Z</time>
      </trkpt>
      <trkpt lat="46.40105" lon="5.96575">
        <ele>1153.8</ele>
        <time>2021-10-17T13:12:26Z</time>
      </trkpt>
      <trkpt lat="46.40108" lon="5.96575">
        <ele>1153.8</ele>
        <time>2021-10-17T13:12:27Z</time>
      </trkpt>
      <trkpt lat="46.40111" lon="5.96574">
        <ele>1154.2</ele>
        <time>2021-10-17T13:12:28Z</time>
      </trkpt>
      <trkpt lat="46.40114" lon="5.96573">
        <ele>1154.2</ele>
        <time>2021-10-17T13:12:29Z</time>
      </trkpt>
      <trkpt lat="46.40117" lon="5.96573">
        <ele>1154.4</ele>
        <time>2021-10-17T13:12:30Z</time>
      </trkpt>
      <trkpt lat="46.40121" lon="5.96571">
        <ele>1154.4</ele>
        <time>2021-10-17T13:12:31Z</time>
      </trkpt>
      <trkpt lat="46.40123" lon="5.9657">
        <ele>1154.8</ele>
        <time>2021-10-17T13:12:32Z</time>
      </trkpt>
      <trkpt lat="46.40126" lon="5.96568">
        <ele>1154.8</ele>
        <time>2021-10-17T13:12:33Z</time>
      </trkpt>
      <trkpt lat="46.4013" lon="5.96567">
        <ele>1155.2</ele>
        <time>2021-10-17T13:12:34Z</time>
      </trkpt>
      <trkpt lat="46.40133" lon="5.96566">
        <ele>1155.2</ele>
        <time>2021-10-17T13:12:35Z</time>
      </trkpt>
      <trkpt lat="46.40137" lon="5.96566">
        <ele>1155.6</ele>
        <time>2021-10-17T13:12:36Z</time>
      </trkpt>
      <trkpt lat="46.4014" lon="5.96565">
        <ele>1155.6</ele>
        <time>2021-10-17T13:12:37Z</time>
      </trkpt>
      <trkpt lat="46.40144" lon="5.96563">
        <ele>1156</ele>
        <time>2021-10-17T13:12:38Z</time>
      </trkpt>
      <trkpt lat="46.40146" lon="5.96563">
        <ele>1156</ele>
        <time>2021-10-17T13:12:39Z</time>
      </trkpt>
      <trkpt lat="46.40149" lon="5.96561">
        <ele>1156.2</ele>
        <time>2021-10-17T13:12:40Z</time>
      </trkpt>
      <trkpt lat="46.40151" lon="5.9656">
        <ele>1156.4</ele>
        <time>2021-10-17T13:12:41Z</time>
      </trkpt>
      <trkpt lat="46.40154" lon="5.96559">
        <ele>1156.4</ele>
        <time>2021-10-17T13:12:42Z</time>
      </trkpt>
      <trkpt lat="46.40157" lon="5.96558">
        <ele>1156.8</ele>
        <time>2021-10-17T13:12:43Z</time>
      </trkpt>
      <trkpt lat="46.4016" lon="5.96557">
        <ele>1156.8</ele>
        <time>2021-10-17T13:12:44Z</time>
      </trkpt>
      <trkpt lat="46.40163" lon="5.96556">
        <ele>1157</ele>
        <time>2021-10-17T13:12:45Z</time>
      </trkpt>
      <trkpt lat="46.40166" lon="5.96554">
        <ele>1157</ele>
        <time>2021-10-17T13:12:46Z</time>
      </trkpt>
      <trkpt lat="46.40169" lon="5.96552">
        <ele>1157.4</ele>
        <time>2021-10-17T13:12:47Z</time>
      </trkpt>
      <trkpt lat="46.40171" lon="5.96551">
        <ele>1157.6</ele>
        <time>2021-10-17T13:12:48Z</time>
      </trkpt>
      <trkpt lat="46.40174" lon="5.9655">
        <ele>1157.8</ele>
        <time>2021-10-17T13:12:49Z</time>
      </trkpt>
      <trkpt lat="46.40177" lon="5.96548">
        <ele>1157.8</ele>
        <time>2021-10-17T13:12:50Z</time>
      </trkpt>
      <trkpt lat="46.40179" lon="5.96547">
        <ele>1158.2</ele>
        <time>2021-10-17T13:12:51Z</time>
      </trkpt>
      <trkpt lat="46.40182" lon="5.96546">
        <ele>1158.2</ele>
        <time>2021-10-17T13:12:52Z</time>
      </trkpt>
      <trkpt lat="46.40184" lon="5.96545">
        <ele>1158.4</ele>
        <time>2021-10-17T13:12:53Z</time>
      </trkpt>
      <trkpt lat="46.40187" lon="5.96544">
        <ele>1158.4</ele>
        <time>2021-10-17T13:12:54Z</time>
      </trkpt>
      <trkpt lat="46.40189" lon="5.96544">
        <ele>1158.8</ele>
        <time>2021-10-17T13:12:55Z</time>
      </trkpt>
      <trkpt lat="46.40192" lon="5.96544">
        <ele>1158.8</ele>
        <time>2021-10-17T13:12:56Z</time>
      </trkpt>
      <trkpt lat="46.40195" lon="5.96543">
        <ele>1159</ele>
        <time>2021-10-17T13:12:57Z</time>
      </trkpt>
      <trkpt lat="46.40199" lon="5.96543">
        <ele>1159</ele>
        <time>2021-10-17T13:12:58Z</time>
      </trkpt>
      <trkpt lat="46.40201" lon="5.96542">
        <ele>1159.2</ele>
        <time>2021-10-17T13:12:59Z</time>
      </trkpt>
      <trkpt lat="46.40206" lon="5.96542">
        <ele>1159.2</ele>
        <time>2021-10-17T13:13:00Z</time>
      </trkpt>
      <trkpt lat="46.40207" lon="5.96542">
        <ele>1159.6</ele>
        <time>2021-10-17T13:13:01Z</time>
      </trkpt>
      <trkpt lat="46.4021" lon="5.96541">
        <ele>1159.8</ele>
        <time>2021-10-17T13:13:02Z</time>
      </trkpt>
      <trkpt lat="46.40213" lon="5.96541">
        <ele>1159.8</ele>
        <time>2021-10-17T13:13:03Z</time>
      </trkpt>
      <trkpt lat="46.40216" lon="5.9654">
        <ele>1160</ele>
        <time>2021-10-17T13:13:04Z</time>
      </trkpt>
      <trkpt lat="46.40218" lon="5.96539">
        <ele>1160</ele>
        <time>2021-10-17T13:13:05Z</time>
      </trkpt>
      <trkpt lat="46.40221" lon="5.96539">
        <ele>1160.4</ele>
        <time>2021-10-17T13:13:06Z</time>
      </trkpt>
      <trkpt lat="46.40224" lon="5.9654">
        <ele>1160.4</ele>
        <time>2021-10-17T13:13:07Z</time>
      </trkpt>
      <trkpt lat="46.40226" lon="5.96539">
        <ele>1160.8</ele>
        <time>2021-10-17T13:13:08Z</time>
      </trkpt>
      <trkpt lat="46.40228" lon="5.96539">
        <ele>1160.8</ele>
        <time>2021-10-17T13:13:09Z</time>
      </trkpt>
      <trkpt lat="46.40231" lon="5.96539">
        <ele>1161</ele>
        <time>2021-10-17T13:13:10Z</time>
      </trkpt>
      <trkpt lat="46.40233" lon="5.96538">
        <ele>1161</ele>
        <time>2021-10-17T13:13:11Z</time>
      </trkpt>
      <trkpt lat="46.40235" lon="5.96536">
        <ele>1161.4</ele>
        <time>2021-10-17T13:13:12Z</time>
      </trkpt>
      <trkpt lat="46.40238" lon="5.96535">
        <ele>1161.4</ele>
        <time>2021-10-17T13:13:13Z</time>
      </trkpt>
      <trkpt lat="46.40241" lon="5.96533">
        <ele>1161.6</ele>
        <time>2021-10-17T13:13:14Z</time>
      </trkpt>
      <trkpt lat="46.40244" lon="5.96531">
        <ele>1161.6</ele>
        <time>2021-10-17T13:13:15Z</time>
      </trkpt>
      <trkpt lat="46.40247" lon="5.96529">
        <ele>1161.6</ele>
        <time>2021-10-17T13:13:16Z</time>
      </trkpt>
      <trkpt lat="46.4025" lon="5.96527">
        <ele>1162</ele>
        <time>2021-10-17T13:13:17Z</time>
      </trkpt>
      <trkpt lat="46.40255" lon="5.96523">
        <ele>1162</ele>
        <time>2021-10-17T13:13:18Z</time>
      </trkpt>
      <trkpt lat="46.40257" lon="5.96522">
        <ele>1162</ele>
        <time>2021-10-17T13:13:19Z</time>
      </trkpt>
      <trkpt lat="46.40262" lon="5.9652">
        <ele>1162</ele>
        <time>2021-10-17T13:13:20Z</time>
      </trkpt>
      <trkpt lat="46.40264" lon="5.9652">
        <ele>1162</ele>
        <time>2021-10-17T13:13:21Z</time>
      </trkpt>
      <trkpt lat="46.40268" lon="5.96519">
        <ele>1162</ele>
        <time>2021-10-17T13:13:22Z</time>
      </trkpt>
      <trkpt lat="46.40272" lon="5.96518">
        <ele>1162</ele>
        <time>2021-10-17T13:13:23Z</time>
      </trkpt>
      <trkpt lat="46.40277" lon="5.96517">
        <ele>1162.2</ele>
        <time>2021-10-17T13:13:24Z</time>
      </trkpt>
      <trkpt lat="46.40283" lon="5.96516">
        <ele>1162.2</ele>
        <time>2021-10-17T13:13:25Z</time>
      </trkpt>
      <trkpt lat="46.40285" lon="5.96515">
        <ele>1162.2</ele>
        <time>2021-10-17T13:13:26Z</time>
      </trkpt>
      <trkpt lat="46.40289" lon="5.96514">
        <ele>1162.2</ele>
        <time>2021-10-17T13:13:27Z</time>
      </trkpt>
      <trkpt lat="46.40294" lon="5.96512">
        <ele>1162.4</ele>
        <time>2021-10-17T13:13:28Z</time>
      </trkpt>
      <trkpt lat="46.403" lon="5.9651">
        <ele>1162.4</ele>
        <time>2021-10-17T13:13:29Z</time>
      </trkpt>
      <trkpt lat="46.40302" lon="5.96509">
        <ele>1162.4</ele>
        <time>2021-10-17T13:13:30Z</time>
      </trkpt>
      <trkpt lat="46.40306" lon="5.96507">
        <ele>1162.4</ele>
        <time>2021-10-17T13:13:31Z</time>
      </trkpt>
      <trkpt lat="46.4031" lon="5.96504">
        <ele>1162.6</ele>
        <time>2021-10-17T13:13:32Z</time>
      </trkpt>
      <trkpt lat="46.40314" lon="5.965">
        <ele>1162.6</ele>
        <time>2021-10-17T13:13:33Z</time>
      </trkpt>
      <trkpt lat="46.40319" lon="5.96495">
        <ele>1162.6</ele>
        <time>2021-10-17T13:13:34Z</time>
      </trkpt>
      <trkpt lat="46.40321" lon="5.96493">
        <ele>1162.6</ele>
        <time>2021-10-17T13:13:35Z</time>
      </trkpt>
      <trkpt lat="46.40326" lon="5.96486">
        <ele>1162.8</ele>
        <time>2021-10-17T13:13:36Z</time>
      </trkpt>
      <trkpt lat="46.40328" lon="5.96484">
        <ele>1162.8</ele>
        <time>2021-10-17T13:13:37Z</time>
      </trkpt>
      <trkpt lat="46.40331" lon="5.9648">
        <ele>1162.8</ele>
        <time>2021-10-17T13:13:38Z</time>
      </trkpt>
      <trkpt lat="46.40336" lon="5.96474">
        <ele>1163.2</ele>
        <time>2021-10-17T13:13:39Z</time>
      </trkpt>
      <trkpt lat="46.40338" lon="5.96472">
        <ele>1163.2</ele>
        <time>2021-10-17T13:13:40Z</time>
      </trkpt>
      <trkpt lat="46.40343" lon="5.96466">
        <ele>1163.4</ele>
        <time>2021-10-17T13:13:41Z</time>
      </trkpt>
      <trkpt lat="46.40344" lon="5.96464">
        <ele>1163.4</ele>
        <time>2021-10-17T13:13:42Z</time>
      </trkpt>
      <trkpt lat="46.40349" lon="5.96459">
        <ele>1163.6</ele>
        <time>2021-10-17T13:13:43Z</time>
      </trkpt>
      <trkpt lat="46.40351" lon="5.96458">
        <ele>1163.6</ele>
        <time>2021-10-17T13:13:44Z</time>
      </trkpt>
      <trkpt lat="46.40354" lon="5.96455">
        <ele>1163.6</ele>
        <time>2021-10-17T13:13:45Z</time>
      </trkpt>
      <trkpt lat="46.4036" lon="5.96451">
        <ele>1163.6</ele>
        <time>2021-10-17T13:13:46Z</time>
      </trkpt>
      <trkpt lat="46.40361" lon="5.9645">
        <ele>1164</ele>
        <time>2021-10-17T13:13:47Z</time>
      </trkpt>
      <trkpt lat="46.40365" lon="5.96447">
        <ele>1164</ele>
        <time>2021-10-17T13:13:48Z</time>
      </trkpt>
      <trkpt lat="46.40371" lon="5.96444">
        <ele>1164.2</ele>
        <time>2021-10-17T13:13:49Z</time>
      </trkpt>
      <trkpt lat="46.40373" lon="5.96443">
        <ele>1164.2</ele>
        <time>2021-10-17T13:13:50Z</time>
      </trkpt>
      <trkpt lat="46.40378" lon="5.96441">
        <ele>1164.4</ele>
        <time>2021-10-17T13:13:51Z</time>
      </trkpt>
      <trkpt lat="46.4038" lon="5.96441">
        <ele>1164.4</ele>
        <time>2021-10-17T13:13:52Z</time>
      </trkpt>
      <trkpt lat="46.40384" lon="5.9644">
        <ele>1164.8</ele>
        <time>2021-10-17T13:13:53Z</time>
      </trkpt>
      <trkpt lat="46.40387" lon="5.96439">
        <ele>1164.8</ele>
        <time>2021-10-17T13:13:54Z</time>
      </trkpt>
      <trkpt lat="46.40392" lon="5.96438">
        <ele>1165.2</ele>
        <time>2021-10-17T13:13:55Z</time>
      </trkpt>
      <trkpt lat="46.40394" lon="5.96438">
        <ele>1165.2</ele>
        <time>2021-10-17T13:13:56Z</time>
      </trkpt>
      <trkpt lat="46.40397" lon="5.96437">
        <ele>1165.4</ele>
        <time>2021-10-17T13:13:57Z</time>
      </trkpt>
      <trkpt lat="46.40401" lon="5.96436">
        <ele>1165.6</ele>
        <time>2021-10-17T13:13:58Z</time>
      </trkpt>
      <trkpt lat="46.40404" lon="5.96434">
        <ele>1165.6</ele>
        <time>2021-10-17T13:13:59Z</time>
      </trkpt>
      <trkpt lat="46.40408" lon="5.96433">
        <ele>1166</ele>
        <time>2021-10-17T13:14:00Z</time>
      </trkpt>
      <trkpt lat="46.40411" lon="5.96431">
        <ele>1166</ele>
        <time>2021-10-17T13:14:01Z</time>
      </trkpt>
      <trkpt lat="46.40415" lon="5.9643">
        <ele>1166</ele>
        <time>2021-10-17T13:14:02Z</time>
      </trkpt>
      <trkpt lat="46.40418" lon="5.96428">
        <ele>1166</ele>
        <time>2021-10-17T13:14:03Z</time>
      </trkpt>
      <trkpt lat="46.40422" lon="5.96426">
        <ele>1166</ele>
        <time>2021-10-17T13:14:04Z</time>
      </trkpt>
      <trkpt lat="46.40426" lon="5.96424">
        <ele>1166</ele>
        <time>2021-10-17T13:14:05Z</time>
      </trkpt>
      <trkpt lat="46.40431" lon="5.96421">
        <ele>1166</ele>
        <time>2021-10-17T13:14:06Z</time>
      </trkpt>
      <trkpt lat="46.40433" lon="5.9642">
        <ele>1166</ele>
        <time>2021-10-17T13:14:07Z</time>
      </trkpt>
      <trkpt lat="46.40437" lon="5.96418">
        <ele>1166</ele>
        <time>2021-10-17T13:14:08Z</time>
      </trkpt>
      <trkpt lat="46.40441" lon="5.96416">
        <ele>1165.6</ele>
        <time>2021-10-17T13:14:09Z</time>
      </trkpt>
      <trkpt lat="46.40446" lon="5.96414">
        <ele>1165.6</ele>
        <time>2021-10-17T13:14:10Z</time>
      </trkpt>
      <trkpt lat="46.40451" lon="5.96411">
        <ele>1165.2</ele>
        <time>2021-10-17T13:14:11Z</time>
      </trkpt>
      <trkpt lat="46.40456" lon="5.96409">
        <ele>1165.2</ele>
        <time>2021-10-17T13:14:12Z</time>
      </trkpt>
      <trkpt lat="46.40464" lon="5.96405">
        <ele>1165</ele>
        <time>2021-10-17T13:14:13Z</time>
      </trkpt>
      <trkpt lat="46.40466" lon="5.96404">
        <ele>1165</ele>
        <time>2021-10-17T13:14:14Z</time>
      </trkpt>
      <trkpt lat="46.40472" lon="5.96402">
        <ele>1164.8</ele>
        <time>2021-10-17T13:14:15Z</time>
      </trkpt>
      <trkpt lat="46.40477" lon="5.96401">
        <ele>1164.8</ele>
        <time>2021-10-17T13:14:16Z</time>
      </trkpt>
      <trkpt lat="46.40485" lon="5.964">
        <ele>1164.8</ele>
        <time>2021-10-17T13:14:17Z</time>
      </trkpt>
      <trkpt lat="46.40487" lon="5.964">
        <ele>1164.8</ele>
        <time>2021-10-17T13:14:18Z</time>
      </trkpt>
      <trkpt lat="46.40495" lon="5.96399">
        <ele>1164.8</ele>
        <time>2021-10-17T13:14:19Z</time>
      </trkpt>
      <trkpt lat="46.40498" lon="5.96399">
        <ele>1164.8</ele>
        <time>2021-10-17T13:14:20Z</time>
      </trkpt>
      <trkpt lat="46.40506" lon="5.96399">
        <ele>1164.8</ele>
        <time>2021-10-17T13:14:21Z</time>
      </trkpt>
      <trkpt lat="46.40509" lon="5.96398">
        <ele>1164.8</ele>
        <time>2021-10-17T13:14:22Z</time>
      </trkpt>
      <trkpt lat="46.40515" lon="5.96398">
        <ele>1164.8</ele>
        <time>2021-10-17T13:14:23Z</time>
      </trkpt>
      <trkpt lat="46.40523" lon="5.96396">
        <ele>1164.8</ele>
        <time>2021-10-17T13:14:24Z</time>
      </trkpt>
      <trkpt lat="46.40526" lon="5.96395">
        <ele>1164.8</ele>
        <time>2021-10-17T13:14:25Z</time>
      </trkpt>
      <trkpt lat="46.40532" lon="5.96393">
        <ele>1164.8</ele>
        <time>2021-10-17T13:14:26Z</time>
      </trkpt>
      <trkpt lat="46.40538" lon="5.9639">
        <ele>1164.8</ele>
        <time>2021-10-17T13:14:27Z</time>
      </trkpt>
      <trkpt lat="46.40547" lon="5.96387">
        <ele>1164.8</ele>
        <time>2021-10-17T13:14:28Z</time>
      </trkpt>
      <trkpt lat="46.4055" lon="5.96385">
        <ele>1164.8</ele>
        <time>2021-10-17T13:14:29Z</time>
      </trkpt>
      <trkpt lat="46.40556" lon="5.96382">
        <ele>1164.8</ele>
        <time>2021-10-17T13:14:30Z</time>
      </trkpt>
      <trkpt lat="46.40565" lon="5.96378">
        <ele>1164.8</ele>
        <time>2021-10-17T13:14:31Z</time>
      </trkpt>
      <trkpt lat="46.40568" lon="5.96377">
        <ele>1164.8</ele>
        <time>2021-10-17T13:14:32Z</time>
      </trkpt>
      <trkpt lat="46.40574" lon="5.96375">
        <ele>1164.4</ele>
        <time>2021-10-17T13:14:33Z</time>
      </trkpt>
      <trkpt lat="46.4058" lon="5.96373">
        <ele>1164.4</ele>
        <time>2021-10-17T13:14:34Z</time>
      </trkpt>
      <trkpt lat="46.40587" lon="5.96371">
        <ele>1164.2</ele>
        <time>2021-10-17T13:14:35Z</time>
      </trkpt>
      <trkpt lat="46.40596" lon="5.9637">
        <ele>1164.2</ele>
        <time>2021-10-17T13:14:36Z</time>
      </trkpt>
      <trkpt lat="46.40599" lon="5.9637">
        <ele>1164.2</ele>
        <time>2021-10-17T13:14:37Z</time>
      </trkpt>
      <trkpt lat="46.40609" lon="5.96369">
        <ele>1164.2</ele>
        <time>2021-10-17T13:14:38Z</time>
      </trkpt>
      <trkpt lat="46.40612" lon="5.96369">
        <ele>1164</ele>
        <time>2021-10-17T13:14:39Z</time>
      </trkpt>
      <trkpt lat="46.40622" lon="5.9637">
        <ele>1164</ele>
        <time>2021-10-17T13:14:40Z</time>
      </trkpt>
      <trkpt lat="46.40625" lon="5.96371">
        <ele>1163.6</ele>
        <time>2021-10-17T13:14:41Z</time>
      </trkpt>
      <trkpt lat="46.40632" lon="5.96373">
        <ele>1163.6</ele>
        <time>2021-10-17T13:14:42Z</time>
      </trkpt>
      <trkpt lat="46.40639" lon="5.96376">
        <ele>1163.4</ele>
        <time>2021-10-17T13:14:43Z</time>
      </trkpt>
      <trkpt lat="46.40649" lon="5.9638">
        <ele>1163.4</ele>
        <time>2021-10-17T13:14:44Z</time>
      </trkpt>
      <trkpt lat="46.40653" lon="5.96382">
        <ele>1163.4</ele>
        <time>2021-10-17T13:14:45Z</time>
      </trkpt>
      <trkpt lat="46.40659" lon="5.96386">
        <ele>1163.2</ele>
        <time>2021-10-17T13:14:46Z</time>
      </trkpt>
      <trkpt lat="46.40666" lon="5.9639">
        <ele>1163.2</ele>
        <time>2021-10-17T13:14:47Z</time>
      </trkpt>
      <trkpt lat="46.40676" lon="5.96395">
        <ele>1163.2</ele>
        <time>2021-10-17T13:14:48Z</time>
      </trkpt>
      <trkpt lat="46.40679" lon="5.96398">
        <ele>1163.2</ele>
        <time>2021-10-17T13:14:49Z</time>
      </trkpt>
      <trkpt lat="46.40689" lon="5.96404">
        <ele>1163.2</ele>
        <time>2021-10-17T13:14:50Z</time>
      </trkpt>
      <trkpt lat="46.40692" lon="5.96406">
        <ele>1163.2</ele>
        <time>2021-10-17T13:14:51Z</time>
      </trkpt>
      <trkpt lat="46.40702" lon="5.96412">
        <ele>1163</ele>
        <time>2021-10-17T13:14:52Z</time>
      </trkpt>
      <trkpt lat="46.40705" lon="5.96414">
        <ele>1163</ele>
        <time>2021-10-17T13:14:53Z</time>
      </trkpt>
      <trkpt lat="46.40715" lon="5.9642">
        <ele>1163</ele>
        <time>2021-10-17T13:14:54Z</time>
      </trkpt>
      <trkpt lat="46.40718" lon="5.96422">
        <ele>1162.8</ele>
        <time>2021-10-17T13:14:55Z</time>
      </trkpt>
      <trkpt lat="46.40725" lon="5.96425">
        <ele>1162.8</ele>
        <time>2021-10-17T13:14:56Z</time>
      </trkpt>
      <trkpt lat="46.40735" lon="5.9643">
        <ele>1162.6</ele>
        <time>2021-10-17T13:14:57Z</time>
      </trkpt>
      <trkpt lat="46.40739" lon="5.96432">
        <ele>1162.6</ele>
        <time>2021-10-17T13:14:58Z</time>
      </trkpt>
      <trkpt lat="46.40746" lon="5.96435">
        <ele>1162.6</ele>
        <time>2021-10-17T13:14:59Z</time>
      </trkpt>
      <trkpt lat="46.40759" lon="5.9644">
        <ele>1162.2</ele>
        <time>2021-10-17T13:15:00Z</time>
      </trkpt>
      <trkpt lat="46.40766" lon="5.96442">
        <ele>1162.2</ele>
        <time>2021-10-17T13:15:01Z</time>
      </trkpt>
      <trkpt lat="46.40773" lon="5.96444">
        <ele>1162.2</ele>
        <time>2021-10-17T13:15:02Z</time>
      </trkpt>
      <trkpt lat="46.40781" lon="5.96445">
        <ele>1161.8</ele>
        <time>2021-10-17T13:15:03Z</time>
      </trkpt>
      <trkpt lat="46.40788" lon="5.96446">
        <ele>1161.6</ele>
        <time>2021-10-17T13:15:04Z</time>
      </trkpt>
      <trkpt lat="46.40795" lon="5.96447">
        <ele>1161.4</ele>
        <time>2021-10-17T13:15:05Z</time>
      </trkpt>
      <trkpt lat="46.40802" lon="5.96448">
        <ele>1161.2</ele>
        <time>2021-10-17T13:15:06Z</time>
      </trkpt>
      <trkpt lat="46.4081" lon="5.96449">
        <ele>1161</ele>
        <time>2021-10-17T13:15:07Z</time>
      </trkpt>
      <trkpt lat="46.40817" lon="5.9645">
        <ele>1161</ele>
        <time>2021-10-17T13:15:08Z</time>
      </trkpt>
      <trkpt lat="46.40824" lon="5.96451">
        <ele>1161</ele>
        <time>2021-10-17T13:15:09Z</time>
      </trkpt>
      <trkpt lat="46.40831" lon="5.96452">
        <ele>1160.6</ele>
        <time>2021-10-17T13:15:10Z</time>
      </trkpt>
      <trkpt lat="46.40838" lon="5.96453">
        <ele>1160.4</ele>
        <time>2021-10-17T13:15:11Z</time>
      </trkpt>
      <trkpt lat="46.40845" lon="5.96456">
        <ele>1160.4</ele>
        <time>2021-10-17T13:15:12Z</time>
      </trkpt>
      <trkpt lat="46.40852" lon="5.96459">
        <ele>1160.2</ele>
        <time>2021-10-17T13:15:13Z</time>
      </trkpt>
      <trkpt lat="46.40859" lon="5.96462">
        <ele>1160</ele>
        <time>2021-10-17T13:15:14Z</time>
      </trkpt>
      <trkpt lat="46.40866" lon="5.96467">
        <ele>1160</ele>
        <time>2021-10-17T13:15:15Z</time>
      </trkpt>
      <trkpt lat="46.40872" lon="5.96471">
        <ele>1159.6</ele>
        <time>2021-10-17T13:15:16Z</time>
      </trkpt>
      <trkpt lat="46.40879" lon="5.96477">
        <ele>1159.6</ele>
        <time>2021-10-17T13:15:17Z</time>
      </trkpt>
      <trkpt lat="46.40885" lon="5.96484">
        <ele>1159.6</ele>
        <time>2021-10-17T13:15:18Z</time>
      </trkpt>
      <trkpt lat="46.4089" lon="5.96492">
        <ele>1159.2</ele>
        <time>2021-10-17T13:15:19Z</time>
      </trkpt>
      <trkpt lat="46.40896" lon="5.96499">
        <ele>1159.2</ele>
        <time>2021-10-17T13:15:20Z</time>
      </trkpt>
      <trkpt lat="46.409" lon="5.96507">
        <ele>1159</ele>
        <time>2021-10-17T13:15:21Z</time>
      </trkpt>
      <trkpt lat="46.40905" lon="5.96516">
        <ele>1159</ele>
        <time>2021-10-17T13:15:22Z</time>
      </trkpt>
      <trkpt lat="46.4091" lon="5.96524">
        <ele>1159</ele>
        <time>2021-10-17T13:15:23Z</time>
      </trkpt>
      <trkpt lat="46.40914" lon="5.96532">
        <ele>1159</ele>
        <time>2021-10-17T13:15:24Z</time>
      </trkpt>
      <trkpt lat="46.4092" lon="5.9654">
        <ele>1159</ele>
        <time>2021-10-17T13:15:25Z</time>
      </trkpt>
      <trkpt lat="46.40925" lon="5.96547">
        <ele>1158.8</ele>
        <time>2021-10-17T13:15:26Z</time>
      </trkpt>
      <trkpt lat="46.40931" lon="5.96553">
        <ele>1158.8</ele>
        <time>2021-10-17T13:15:27Z</time>
      </trkpt>
      <trkpt lat="46.40937" lon="5.96559">
        <ele>1158.8</ele>
        <time>2021-10-17T13:15:28Z</time>
      </trkpt>
      <trkpt lat="46.40944" lon="5.96564">
        <ele>1158.8</ele>
        <time>2021-10-17T13:15:29Z</time>
      </trkpt>
      <trkpt lat="46.4095" lon="5.96568">
        <ele>1158.8</ele>
        <time>2021-10-17T13:15:30Z</time>
      </trkpt>
      <trkpt lat="46.40957" lon="5.96572">
        <ele>1158.8</ele>
        <time>2021-10-17T13:15:31Z</time>
      </trkpt>
      <trkpt lat="46.40963" lon="5.96576">
        <ele>1158.8</ele>
        <time>2021-10-17T13:15:32Z</time>
      </trkpt>
      <trkpt lat="46.4097" lon="5.96581">
        <ele>1158.8</ele>
        <time>2021-10-17T13:15:33Z</time>
      </trkpt>
      <trkpt lat="46.40976" lon="5.96586">
        <ele>1158.8</ele>
        <time>2021-10-17T13:15:34Z</time>
      </trkpt>
      <trkpt lat="46.40982" lon="5.96592">
        <ele>1159</ele>
        <time>2021-10-17T13:15:35Z</time>
      </trkpt>
      <trkpt lat="46.40988" lon="5.96598">
        <ele>1159</ele>
        <time>2021-10-17T13:15:36Z</time>
      </trkpt>
      <trkpt lat="46.40994" lon="5.96604">
        <ele>1159</ele>
        <time>2021-10-17T13:15:37Z</time>
      </trkpt>
      <trkpt lat="46.41" lon="5.9661">
        <ele>1159</ele>
        <time>2021-10-17T13:15:38Z</time>
      </trkpt>
      <trkpt lat="46.41006" lon="5.96615">
        <ele>1159</ele>
        <time>2021-10-17T13:15:39Z</time>
      </trkpt>
      <trkpt lat="46.41011" lon="5.96622">
        <ele>1159</ele>
        <time>2021-10-17T13:15:40Z</time>
      </trkpt>
      <trkpt lat="46.41017" lon="5.96628">
        <ele>1159</ele>
        <time>2021-10-17T13:15:41Z</time>
      </trkpt>
      <trkpt lat="46.41023" lon="5.96633">
        <ele>1159</ele>
        <time>2021-10-17T13:15:42Z</time>
      </trkpt>
      <trkpt lat="46.41029" lon="5.96639">
        <ele>1159</ele>
        <time>2021-10-17T13:15:43Z</time>
      </trkpt>
      <trkpt lat="46.41035" lon="5.96644">
        <ele>1159</ele>
        <time>2021-10-17T13:15:44Z</time>
      </trkpt>
      <trkpt lat="46.41041" lon="5.96649">
        <ele>1159</ele>
        <time>2021-10-17T13:15:45Z</time>
      </trkpt>
      <trkpt lat="46.41046" lon="5.96655">
        <ele>1159.2</ele>
        <time>2021-10-17T13:15:46Z</time>
      </trkpt>
      <trkpt lat="46.41051" lon="5.96662">
        <ele>1159.2</ele>
        <time>2021-10-17T13:15:47Z</time>
      </trkpt>
      <trkpt lat="46.41056" lon="5.96669">
        <ele>1159.2</ele>
        <time>2021-10-17T13:15:48Z</time>
      </trkpt>
      <trkpt lat="46.41061" lon="5.96676">
        <ele>1159.2</ele>
        <time>2021-10-17T13:15:49Z</time>
      </trkpt>
      <trkpt lat="46.41066" lon="5.96683">
        <ele>1159.2</ele>
        <time>2021-10-17T13:15:50Z</time>
      </trkpt>
      <trkpt lat="46.41071" lon="5.9669">
        <ele>1159.2</ele>
        <time>2021-10-17T13:15:51Z</time>
      </trkpt>
      <trkpt lat="46.41076" lon="5.96697">
        <ele>1159.4</ele>
        <time>2021-10-17T13:15:52Z</time>
      </trkpt>
      <trkpt lat="46.41081" lon="5.96704">
        <ele>1159.4</ele>
        <time>2021-10-17T13:15:53Z</time>
      </trkpt>
      <trkpt lat="46.41086" lon="5.9671">
        <ele>1159.4</ele>
        <time>2021-10-17T13:15:54Z</time>
      </trkpt>
      <trkpt lat="46.41091" lon="5.96717">
        <ele>1159.4</ele>
        <time>2021-10-17T13:15:55Z</time>
      </trkpt>
      <trkpt lat="46.41096" lon="5.96724">
        <ele>1159.4</ele>
        <time>2021-10-17T13:15:56Z</time>
      </trkpt>
      <trkpt lat="46.41101" lon="5.9673">
        <ele>1159.4</ele>
        <time>2021-10-17T13:15:57Z</time>
      </trkpt>
      <trkpt lat="46.41106" lon="5.96737">
        <ele>1159.8</ele>
        <time>2021-10-17T13:15:58Z</time>
      </trkpt>
      <trkpt lat="46.4111" lon="5.96743">
        <ele>1159.8</ele>
        <time>2021-10-17T13:15:59Z</time>
      </trkpt>
      <trkpt lat="46.41115" lon="5.96749">
        <ele>1160</ele>
        <time>2021-10-17T13:16:00Z</time>
      </trkpt>
      <trkpt lat="46.41119" lon="5.96755">
        <ele>1160.2</ele>
        <time>2021-10-17T13:16:01Z</time>
      </trkpt>
      <trkpt lat="46.41124" lon="5.96761">
        <ele>1160.2</ele>
        <time>2021-10-17T13:16:02Z</time>
      </trkpt>
      <trkpt lat="46.41129" lon="5.96767">
        <ele>1160.6</ele>
        <time>2021-10-17T13:16:03Z</time>
      </trkpt>
      <trkpt lat="46.41134" lon="5.96772">
        <ele>1160.6</ele>
        <time>2021-10-17T13:16:04Z</time>
      </trkpt>
      <trkpt lat="46.41139" lon="5.96778">
        <ele>1160.8</ele>
        <time>2021-10-17T13:16:05Z</time>
      </trkpt>
      <trkpt lat="46.41144" lon="5.96783">
        <ele>1160.8</ele>
        <time>2021-10-17T13:16:06Z</time>
      </trkpt>
      <trkpt lat="46.41149" lon="5.96788">
        <ele>1160.8</ele>
        <time>2021-10-17T13:16:07Z</time>
      </trkpt>
      <trkpt lat="46.41154" lon="5.96793">
        <ele>1161.2</ele>
        <time>2021-10-17T13:16:08Z</time>
      </trkpt>
      <trkpt lat="46.41158" lon="5.96798">
        <ele>1161.2</ele>
        <time>2021-10-17T13:16:09Z</time>
      </trkpt>
      <trkpt lat="46.41163" lon="5.96803">
        <ele>1161.6</ele>
        <time>2021-10-17T13:16:10Z</time>
      </trkpt>
      <trkpt lat="46.41168" lon="5.96807">
        <ele>1161.6</ele>
        <time>2021-10-17T13:16:11Z</time>
      </trkpt>
      <trkpt lat="46.41173" lon="5.96811">
        <ele>1161.8</ele>
        <time>2021-10-17T13:16:12Z</time>
      </trkpt>
      <trkpt lat="46.41178" lon="5.96815">
        <ele>1161.8</ele>
        <time>2021-10-17T13:16:13Z</time>
      </trkpt>
      <trkpt lat="46.41182" lon="5.9682">
        <ele>1162.4</ele>
        <time>2021-10-17T13:16:14Z</time>
      </trkpt>
      <trkpt lat="46.41187" lon="5.96824">
        <ele>1162.4</ele>
        <time>2021-10-17T13:16:15Z</time>
      </trkpt>
      <trkpt lat="46.41191" lon="5.96829">
        <ele>1162.6</ele>
        <time>2021-10-17T13:16:16Z</time>
      </trkpt>
      <trkpt lat="46.41195" lon="5.96834">
        <ele>1162.6</ele>
        <time>2021-10-17T13:16:17Z</time>
      </trkpt>
      <trkpt lat="46.41199" lon="5.9684">
        <ele>1162.6</ele>
        <time>2021-10-17T13:16:18Z</time>
      </trkpt>
      <trkpt lat="46.41203" lon="5.96845">
        <ele>1162.8</ele>
        <time>2021-10-17T13:16:19Z</time>
      </trkpt>
      <trkpt lat="46.41207" lon="5.9685">
        <ele>1162.8</ele>
        <time>2021-10-17T13:16:20Z</time>
      </trkpt>
      <trkpt lat="46.41211" lon="5.96856">
        <ele>1162.8</ele>
        <time>2021-10-17T13:16:21Z</time>
      </trkpt>
      <trkpt lat="46.41215" lon="5.96862">
        <ele>1162.8</ele>
        <time>2021-10-17T13:16:22Z</time>
      </trkpt>
      <trkpt lat="46.4122" lon="5.96868">
        <ele>1162.8</ele>
        <time>2021-10-17T13:16:23Z</time>
      </trkpt>
      <trkpt lat="46.41224" lon="5.96875">
        <ele>1162.8</ele>
        <time>2021-10-17T13:16:24Z</time>
      </trkpt>
      <trkpt lat="46.41229" lon="5.96882">
        <ele>1162.6</ele>
        <time>2021-10-17T13:16:25Z</time>
      </trkpt>
      <trkpt lat="46.41234" lon="5.9689">
        <ele>1162.4</ele>
        <time>2021-10-17T13:16:26Z</time>
      </trkpt>
      <trkpt lat="46.41239" lon="5.96898">
        <ele>1162</ele>
        <time>2021-10-17T13:16:27Z</time>
      </trkpt>
      <trkpt lat="46.41244" lon="5.96906">
        <ele>1161.8</ele>
        <time>2021-10-17T13:16:28Z</time>
      </trkpt>
      <trkpt lat="46.4125" lon="5.96913">
        <ele>1161.8</ele>
        <time>2021-10-17T13:16:29Z</time>
      </trkpt>
      <trkpt lat="46.41256" lon="5.96921">
        <ele>1161.4</ele>
        <time>2021-10-17T13:16:30Z</time>
      </trkpt>
      <trkpt lat="46.41263" lon="5.96928">
        <ele>1161</ele>
        <time>2021-10-17T13:16:31Z</time>
      </trkpt>
      <trkpt lat="46.4127" lon="5.96935">
        <ele>1160.6</ele>
        <time>2021-10-17T13:16:32Z</time>
      </trkpt>
      <trkpt lat="46.41278" lon="5.96942">
        <ele>1160</ele>
        <time>2021-10-17T13:16:33Z</time>
      </trkpt>
      <trkpt lat="46.41286" lon="5.96948">
        <ele>1159.6</ele>
        <time>2021-10-17T13:16:34Z</time>
      </trkpt>
      <trkpt lat="46.41296" lon="5.96953">
        <ele>1159</ele>
        <time>2021-10-17T13:16:35Z</time>
      </trkpt>
      <trkpt lat="46.41305" lon="5.96958">
        <ele>1158.2</ele>
        <time>2021-10-17T13:16:36Z</time>
      </trkpt>
      <trkpt lat="46.41315" lon="5.96963">
        <ele>1157.8</ele>
        <time>2021-10-17T13:16:37Z</time>
      </trkpt>
      <trkpt lat="46.41325" lon="5.96967">
        <ele>1157.2</ele>
        <time>2021-10-17T13:16:38Z</time>
      </trkpt>
      <trkpt lat="46.41335" lon="5.96971">
        <ele>1156.8</ele>
        <time>2021-10-17T13:16:39Z</time>
      </trkpt>
      <trkpt lat="46.41346" lon="5.96976">
        <ele>1156.4</ele>
        <time>2021-10-17T13:16:40Z</time>
      </trkpt>
      <trkpt lat="46.41356" lon="5.9698">
        <ele>1156.2</ele>
        <time>2021-10-17T13:16:41Z</time>
      </trkpt>
      <trkpt lat="46.41365" lon="5.96985">
        <ele>1156.2</ele>
        <time>2021-10-17T13:16:42Z</time>
      </trkpt>
      <trkpt lat="46.41375" lon="5.9699">
        <ele>1155.8</ele>
        <time>2021-10-17T13:16:43Z</time>
      </trkpt>
      <trkpt lat="46.41384" lon="5.96994">
        <ele>1155.8</ele>
        <time>2021-10-17T13:16:44Z</time>
      </trkpt>
      <trkpt lat="46.41392" lon="5.96997">
        <ele>1155.6</ele>
        <time>2021-10-17T13:16:45Z</time>
      </trkpt>
      <trkpt lat="46.414" lon="5.97001">
        <ele>1155.6</ele>
        <time>2021-10-17T13:16:46Z</time>
      </trkpt>
      <trkpt lat="46.41409" lon="5.97005">
        <ele>1155.6</ele>
        <time>2021-10-17T13:16:47Z</time>
      </trkpt>
      <trkpt lat="46.41417" lon="5.97009">
        <ele>1155.4</ele>
        <time>2021-10-17T13:16:48Z</time>
      </trkpt>
      <trkpt lat="46.41425" lon="5.97014">
        <ele>1155.4</ele>
        <time>2021-10-17T13:16:49Z</time>
      </trkpt>
      <trkpt lat="46.41433" lon="5.97018">
        <ele>1155</ele>
        <time>2021-10-17T13:16:50Z</time>
      </trkpt>
      <trkpt lat="46.41442" lon="5.97023">
        <ele>1154.8</ele>
        <time>2021-10-17T13:16:51Z</time>
      </trkpt>
      <trkpt lat="46.41451" lon="5.97027">
        <ele>1154.4</ele>
        <time>2021-10-17T13:16:52Z</time>
      </trkpt>
      <trkpt lat="46.41461" lon="5.97031">
        <ele>1154</ele>
        <time>2021-10-17T13:16:53Z</time>
      </trkpt>
      <trkpt lat="46.41471" lon="5.97033">
        <ele>1153.6</ele>
        <time>2021-10-17T13:16:54Z</time>
      </trkpt>
      <trkpt lat="46.41481" lon="5.97037">
        <ele>1153</ele>
        <time>2021-10-17T13:16:55Z</time>
      </trkpt>
      <trkpt lat="46.41491" lon="5.97042">
        <ele>1152.6</ele>
        <time>2021-10-17T13:16:56Z</time>
      </trkpt>
      <trkpt lat="46.41501" lon="5.97047">
        <ele>1152.2</ele>
        <time>2021-10-17T13:16:57Z</time>
      </trkpt>
      <trkpt lat="46.41512" lon="5.97052">
        <ele>1151.6</ele>
        <time>2021-10-17T13:16:58Z</time>
      </trkpt>
      <trkpt lat="46.41523" lon="5.97057">
        <ele>1151</ele>
        <time>2021-10-17T13:16:59Z</time>
      </trkpt>
      <trkpt lat="46.41534" lon="5.97062">
        <ele>1150.6</ele>
        <time>2021-10-17T13:17:00Z</time>
      </trkpt>
      <trkpt lat="46.41545" lon="5.97067">
        <ele>1150.2</ele>
        <time>2021-10-17T13:17:01Z</time>
      </trkpt>
      <trkpt lat="46.41555" lon="5.97072">
        <ele>1150</ele>
        <time>2021-10-17T13:17:02Z</time>
      </trkpt>
      <trkpt lat="46.41564" lon="5.97077">
        <ele>1150</ele>
        <time>2021-10-17T13:17:03Z</time>
      </trkpt>
      <trkpt lat="46.41573" lon="5.97082">
        <ele>1150</ele>
        <time>2021-10-17T13:17:04Z</time>
      </trkpt>
      <trkpt lat="46.41582" lon="5.97086">
        <ele>1150</ele>
        <time>2021-10-17T13:17:05Z</time>
      </trkpt>
      <trkpt lat="46.4159" lon="5.97091">
        <ele>1150</ele>
        <time>2021-10-17T13:17:06Z</time>
      </trkpt>
      <trkpt lat="46.41598" lon="5.97095">
        <ele>1150.4</ele>
        <time>2021-10-17T13:17:07Z</time>
      </trkpt>
      <trkpt lat="46.41606" lon="5.97098">
        <ele>1150.6</ele>
        <time>2021-10-17T13:17:08Z</time>
      </trkpt>
      <trkpt lat="46.41613" lon="5.97102">
        <ele>1151</ele>
        <time>2021-10-17T13:17:09Z</time>
      </trkpt>
      <trkpt lat="46.4162" lon="5.97105">
        <ele>1151.4</ele>
        <time>2021-10-17T13:17:10Z</time>
      </trkpt>
      <trkpt lat="46.41627" lon="5.97107">
        <ele>1151.8</ele>
        <time>2021-10-17T13:17:11Z</time>
      </trkpt>
      <trkpt lat="46.41633" lon="5.9711">
        <ele>1152</ele>
        <time>2021-10-17T13:17:12Z</time>
      </trkpt>
      <trkpt lat="46.41639" lon="5.97113">
        <ele>1152.2</ele>
        <time>2021-10-17T13:17:13Z</time>
      </trkpt>
      <trkpt lat="46.41645" lon="5.97115">
        <ele>1152.6</ele>
        <time>2021-10-17T13:17:14Z</time>
      </trkpt>
      <trkpt lat="46.41651" lon="5.97117">
        <ele>1152.8</ele>
        <time>2021-10-17T13:17:15Z</time>
      </trkpt>
      <trkpt lat="46.41656" lon="5.97119">
        <ele>1153.2</ele>
        <time>2021-10-17T13:17:16Z</time>
      </trkpt>
      <trkpt lat="46.41662" lon="5.97121">
        <ele>1153.4</ele>
        <time>2021-10-17T13:17:17Z</time>
      </trkpt>
      <trkpt lat="46.41667" lon="5.97122">
        <ele>1153.8</ele>
        <time>2021-10-17T13:17:18Z</time>
      </trkpt>
      <trkpt lat="46.41673" lon="5.97123">
        <ele>1154.2</ele>
        <time>2021-10-17T13:17:19Z</time>
      </trkpt>
      <trkpt lat="46.41678" lon="5.97123">
        <ele>1154.6</ele>
        <time>2021-10-17T13:17:20Z</time>
      </trkpt>
      <trkpt lat="46.41683" lon="5.97123">
        <ele>1155</ele>
        <time>2021-10-17T13:17:21Z</time>
      </trkpt>
      <trkpt lat="46.41688" lon="5.97123">
        <ele>1155.2</ele>
        <time>2021-10-17T13:17:22Z</time>
      </trkpt>
      <trkpt lat="46.41693" lon="5.97123">
        <ele>1155.2</ele>
        <time>2021-10-17T13:17:23Z</time>
      </trkpt>
      <trkpt lat="46.41699" lon="5.97123">
        <ele>1155.6</ele>
        <time>2021-10-17T13:17:24Z</time>
      </trkpt>
      <trkpt lat="46.41704" lon="5.97123">
        <ele>1155.8</ele>
        <time>2021-10-17T13:17:25Z</time>
      </trkpt>
      <trkpt lat="46.41708" lon="5.97122">
        <ele>1156</ele>
        <time>2021-10-17T13:17:26Z</time>
      </trkpt>
      <trkpt lat="46.41713" lon="5.9712">
        <ele>1156</ele>
        <time>2021-10-17T13:17:27Z</time>
      </trkpt>
      <trkpt lat="46.41718" lon="5.97118">
        <ele>1156.4</ele>
        <time>2021-10-17T13:17:28Z</time>
      </trkpt>
      <trkpt lat="46.41722" lon="5.97116">
        <ele>1156.4</ele>
        <time>2021-10-17T13:17:29Z</time>
      </trkpt>
      <trkpt lat="46.41727" lon="5.97113">
        <ele>1156.8</ele>
        <time>2021-10-17T13:17:30Z</time>
      </trkpt>
      <trkpt lat="46.41731" lon="5.9711">
        <ele>1156.8</ele>
        <time>2021-10-17T13:17:31Z</time>
      </trkpt>
      <trkpt lat="46.41735" lon="5.97107">
        <ele>1156.8</ele>
        <time>2021-10-17T13:17:32Z</time>
      </trkpt>
      <trkpt lat="46.41739" lon="5.97103">
        <ele>1157</ele>
        <time>2021-10-17T13:17:33Z</time>
      </trkpt>
      <trkpt lat="46.41743" lon="5.97099">
        <ele>1157</ele>
        <time>2021-10-17T13:17:34Z</time>
      </trkpt>
      <trkpt lat="46.41747" lon="5.97095">
        <ele>1157</ele>
        <time>2021-10-17T13:17:35Z</time>
      </trkpt>
      <trkpt lat="46.41751" lon="5.9709">
        <ele>1157</ele>
        <time>2021-10-17T13:17:36Z</time>
      </trkpt>
      <trkpt lat="46.41755" lon="5.97086">
        <ele>1157</ele>
        <time>2021-10-17T13:17:37Z</time>
      </trkpt>
      <trkpt lat="46.4176" lon="5.97082">
        <ele>1157</ele>
        <time>2021-10-17T13:17:38Z</time>
      </trkpt>
      <trkpt lat="46.41766" lon="5.97077">
        <ele>1157</ele>
        <time>2021-10-17T13:17:39Z</time>
      </trkpt>
      <trkpt lat="46.41771" lon="5.97073">
        <ele>1157</ele>
        <time>2021-10-17T13:17:40Z</time>
      </trkpt>
      <trkpt lat="46.41777" lon="5.97069">
        <ele>1156.6</ele>
        <time>2021-10-17T13:17:41Z</time>
      </trkpt>
      <trkpt lat="46.41783" lon="5.97064">
        <ele>1156.4</ele>
        <time>2021-10-17T13:17:42Z</time>
      </trkpt>
      <trkpt lat="46.4179" lon="5.97059">
        <ele>1156</ele>
        <time>2021-10-17T13:17:43Z</time>
      </trkpt>
      <trkpt lat="46.41797" lon="5.97054">
        <ele>1155.6</ele>
        <time>2021-10-17T13:17:44Z</time>
      </trkpt>
      <trkpt lat="46.41805" lon="5.97049">
        <ele>1155.2</ele>
        <time>2021-10-17T13:17:45Z</time>
      </trkpt>
      <trkpt lat="46.41813" lon="5.97044">
        <ele>1154.6</ele>
        <time>2021-10-17T13:17:46Z</time>
      </trkpt>
      <trkpt lat="46.41822" lon="5.97039">
        <ele>1154.2</ele>
        <time>2021-10-17T13:17:47Z</time>
      </trkpt>
      <trkpt lat="46.41831" lon="5.97033">
        <ele>1153.6</ele>
        <time>2021-10-17T13:17:48Z</time>
      </trkpt>
      <trkpt lat="46.4184" lon="5.97027">
        <ele>1153.2</ele>
        <time>2021-10-17T13:17:49Z</time>
      </trkpt>
      <trkpt lat="46.41849" lon="5.97021">
        <ele>1152.8</ele>
        <time>2021-10-17T13:17:50Z</time>
      </trkpt>
      <trkpt lat="46.41858" lon="5.97015">
        <ele>1152.4</ele>
        <time>2021-10-17T13:17:51Z</time>
      </trkpt>
      <trkpt lat="46.41867" lon="5.97009">
        <ele>1152.4</ele>
        <time>2021-10-17T13:17:52Z</time>
      </trkpt>
      <trkpt lat="46.41875" lon="5.97004">
        <ele>1152.2</ele>
        <time>2021-10-17T13:17:53Z</time>
      </trkpt>
      <trkpt lat="46.41883" lon="5.96998">
        <ele>1152.2</ele>
        <time>2021-10-17T13:17:54Z</time>
      </trkpt>
      <trkpt lat="46.41891" lon="5.96993">
        <ele>1152.2</ele>
        <time>2021-10-17T13:17:55Z</time>
      </trkpt>
      <trkpt lat="46.41899" lon="5.96988">
        <ele>1152.2</ele>
        <time>2021-10-17T13:17:56Z</time>
      </trkpt>
      <trkpt lat="46.41907" lon="5.96984">
        <ele>1152.2</ele>
        <time>2021-10-17T13:17:57Z</time>
      </trkpt>
      <trkpt lat="46.41914" lon="5.96979">
        <ele>1152.2</ele>
        <time>2021-10-17T13:17:58Z</time>
      </trkpt>
      <trkpt lat="46.41922" lon="5.96976">
        <ele>1152.2</ele>
        <time>2021-10-17T13:17:59Z</time>
      </trkpt>
      <trkpt lat="46.41929" lon="5.96972">
        <ele>1152.2</ele>
        <time>2021-10-17T13:18:00Z</time>
      </trkpt>
      <trkpt lat="46.41936" lon="5.9697">
        <ele>1152.4</ele>
        <time>2021-10-17T13:18:01Z</time>
      </trkpt>
      <trkpt lat="46.41943" lon="5.96967">
        <ele>1152.6</ele>
        <time>2021-10-17T13:18:02Z</time>
      </trkpt>
      <trkpt lat="46.4195" lon="5.96965">
        <ele>1153</ele>
        <time>2021-10-17T13:18:03Z</time>
      </trkpt>
      <trkpt lat="46.41956" lon="5.96963">
        <ele>1153</ele>
        <time>2021-10-17T13:18:04Z</time>
      </trkpt>
      <trkpt lat="46.41963" lon="5.96962">
        <ele>1153</ele>
        <time>2021-10-17T13:18:05Z</time>
      </trkpt>
      <trkpt lat="46.4197" lon="5.96961">
        <ele>1153.2</ele>
        <time>2021-10-17T13:18:06Z</time>
      </trkpt>
      <trkpt lat="46.41977" lon="5.9696">
        <ele>1153.2</ele>
        <time>2021-10-17T13:18:07Z</time>
      </trkpt>
      <trkpt lat="46.41983" lon="5.96959">
        <ele>1153.6</ele>
        <time>2021-10-17T13:18:08Z</time>
      </trkpt>
      <trkpt lat="46.4199" lon="5.96958">
        <ele>1153.6</ele>
        <time>2021-10-17T13:18:09Z</time>
      </trkpt>
      <trkpt lat="46.41996" lon="5.96957">
        <ele>1154</ele>
        <time>2021-10-17T13:18:10Z</time>
      </trkpt>
      <trkpt lat="46.42002" lon="5.96956">
        <ele>1154.2</ele>
        <time>2021-10-17T13:18:11Z</time>
      </trkpt>
      <trkpt lat="46.42007" lon="5.96956">
        <ele>1154.2</ele>
        <time>2021-10-17T13:18:12Z</time>
      </trkpt>
      <trkpt lat="46.42013" lon="5.96955">
        <ele>1154.6</ele>
        <time>2021-10-17T13:18:13Z</time>
      </trkpt>
      <trkpt lat="46.42018" lon="5.96955">
        <ele>1154.6</ele>
        <time>2021-10-17T13:18:14Z</time>
      </trkpt>
      <trkpt lat="46.42023" lon="5.96954">
        <ele>1154.6</ele>
        <time>2021-10-17T13:18:15Z</time>
      </trkpt>
      <trkpt lat="46.42028" lon="5.96953">
        <ele>1154.8</ele>
        <time>2021-10-17T13:18:16Z</time>
      </trkpt>
      <trkpt lat="46.42033" lon="5.96953">
        <ele>1154.8</ele>
        <time>2021-10-17T13:18:17Z</time>
      </trkpt>
      <trkpt lat="46.42038" lon="5.96952">
        <ele>1154.8</ele>
        <time>2021-10-17T13:18:18Z</time>
      </trkpt>
      <trkpt lat="46.42043" lon="5.96953">
        <ele>1154.8</ele>
        <time>2021-10-17T13:18:19Z</time>
      </trkpt>
      <trkpt lat="46.42049" lon="5.96953">
        <ele>1155</ele>
        <time>2021-10-17T13:18:20Z</time>
      </trkpt>
      <trkpt lat="46.42055" lon="5.96954">
        <ele>1155</ele>
        <time>2021-10-17T13:18:21Z</time>
      </trkpt>
      <trkpt lat="46.4206" lon="5.96954">
        <ele>1155.2</ele>
        <time>2021-10-17T13:18:22Z</time>
      </trkpt>
      <trkpt lat="46.42066" lon="5.96954">
        <ele>1155.2</ele>
        <time>2021-10-17T13:18:23Z</time>
      </trkpt>
      <trkpt lat="46.42071" lon="5.96954">
        <ele>1155.6</ele>
        <time>2021-10-17T13:18:24Z</time>
      </trkpt>
      <trkpt lat="46.42076" lon="5.96954">
        <ele>1155.8</ele>
        <time>2021-10-17T13:18:25Z</time>
      </trkpt>
      <trkpt lat="46.42081" lon="5.96953">
        <ele>1156</ele>
        <time>2021-10-17T13:18:26Z</time>
      </trkpt>
      <trkpt lat="46.42086" lon="5.96952">
        <ele>1156</ele>
        <time>2021-10-17T13:18:27Z</time>
      </trkpt>
      <trkpt lat="46.42091" lon="5.9695">
        <ele>1156.4</ele>
        <time>2021-10-17T13:18:28Z</time>
      </trkpt>
      <trkpt lat="46.42095" lon="5.96949">
        <ele>1156.8</ele>
        <time>2021-10-17T13:18:29Z</time>
      </trkpt>
      <trkpt lat="46.421" lon="5.96947">
        <ele>1157</ele>
        <time>2021-10-17T13:18:30Z</time>
      </trkpt>
      <trkpt lat="46.42105" lon="5.96944">
        <ele>1157.2</ele>
        <time>2021-10-17T13:18:31Z</time>
      </trkpt>
      <trkpt lat="46.42109" lon="5.9694">
        <ele>1157.2</ele>
        <time>2021-10-17T13:18:32Z</time>
      </trkpt>
      <trkpt lat="46.42113" lon="5.96937">
        <ele>1157.4</ele>
        <time>2021-10-17T13:18:33Z</time>
      </trkpt>
      <trkpt lat="46.42117" lon="5.96934">
        <ele>1157.6</ele>
        <time>2021-10-17T13:18:34Z</time>
      </trkpt>
      <trkpt lat="46.4212" lon="5.9693">
        <ele>1157.6</ele>
        <time>2021-10-17T13:18:35Z</time>
      </trkpt>
      <trkpt lat="46.42123" lon="5.96926">
        <ele>1158</ele>
        <time>2021-10-17T13:18:36Z</time>
      </trkpt>
      <trkpt lat="46.42125" lon="5.96922">
        <ele>1158</ele>
        <time>2021-10-17T13:18:37Z</time>
      </trkpt>
      <trkpt lat="46.42127" lon="5.96919">
        <ele>1158.4</ele>
        <time>2021-10-17T13:18:38Z</time>
      </trkpt>
      <trkpt lat="46.4213" lon="5.96916">
        <ele>1158.6</ele>
        <time>2021-10-17T13:18:39Z</time>
      </trkpt>
      <trkpt lat="46.42132" lon="5.96912">
        <ele>1158.6</ele>
        <time>2021-10-17T13:18:40Z</time>
      </trkpt>
      <trkpt lat="46.42133" lon="5.96908">
        <ele>1159</ele>
        <time>2021-10-17T13:18:41Z</time>
      </trkpt>
      <trkpt lat="46.42135" lon="5.96903">
        <ele>1159</ele>
        <time>2021-10-17T13:18:42Z</time>
      </trkpt>
      <trkpt lat="46.42136" lon="5.96899">
        <ele>1159.4</ele>
        <time>2021-10-17T13:18:43Z</time>
      </trkpt>
      <trkpt lat="46.42138" lon="5.96894">
        <ele>1159.6</ele>
        <time>2021-10-17T13:18:44Z</time>
      </trkpt>
      <trkpt lat="46.4214" lon="5.9689">
        <ele>1159.8</ele>
        <time>2021-10-17T13:18:45Z</time>
      </trkpt>
      <trkpt lat="46.42142" lon="5.96886">
        <ele>1159.8</ele>
        <time>2021-10-17T13:18:46Z</time>
      </trkpt>
      <trkpt lat="46.42143" lon="5.96882">
        <ele>1160.2</ele>
        <time>2021-10-17T13:18:47Z</time>
      </trkpt>
      <trkpt lat="46.42145" lon="5.96877">
        <ele>1160.2</ele>
        <time>2021-10-17T13:18:48Z</time>
      </trkpt>
      <trkpt lat="46.42146" lon="5.96873">
        <ele>1160.6</ele>
        <time>2021-10-17T13:18:49Z</time>
      </trkpt>
      <trkpt lat="46.42147" lon="5.96869">
        <ele>1160.6</ele>
        <time>2021-10-17T13:18:50Z</time>
      </trkpt>
      <trkpt lat="46.42148" lon="5.96864">
        <ele>1161</ele>
        <time>2021-10-17T13:18:51Z</time>
      </trkpt>
      <trkpt lat="46.42148" lon="5.96859">
        <ele>1161.2</ele>
        <time>2021-10-17T13:18:52Z</time>
      </trkpt>
      <trkpt lat="46.42149" lon="5.96854">
        <ele>1161.4</ele>
        <time>2021-10-17T13:18:53Z</time>
      </trkpt>
      <trkpt lat="46.4215" lon="5.96848">
        <ele>1161.4</ele>
        <time>2021-10-17T13:18:54Z</time>
      </trkpt>
      <trkpt lat="46.4215" lon="5.96842">
        <ele>1161.4</ele>
        <time>2021-10-17T13:18:55Z</time>
      </trkpt>
      <trkpt lat="46.42151" lon="5.96836">
        <ele>1161.6</ele>
        <time>2021-10-17T13:18:56Z</time>
      </trkpt>
      <trkpt lat="46.42152" lon="5.96829">
        <ele>1161.6</ele>
        <time>2021-10-17T13:18:57Z</time>
      </trkpt>
      <trkpt lat="46.42153" lon="5.96822">
        <ele>1161.4</ele>
        <time>2021-10-17T13:18:58Z</time>
      </trkpt>
      <trkpt lat="46.42154" lon="5.96813">
        <ele>1161.4</ele>
        <time>2021-10-17T13:18:59Z</time>
      </trkpt>
      <trkpt lat="46.42155" lon="5.96803">
        <ele>1161.2</ele>
        <time>2021-10-17T13:19:00Z</time>
      </trkpt>
      <trkpt lat="46.42156" lon="5.96794">
        <ele>1161.2</ele>
        <time>2021-10-17T13:19:01Z</time>
      </trkpt>
      <trkpt lat="46.42157" lon="5.96784">
        <ele>1160.8</ele>
        <time>2021-10-17T13:19:02Z</time>
      </trkpt>
      <trkpt lat="46.42158" lon="5.96774">
        <ele>1160.8</ele>
        <time>2021-10-17T13:19:03Z</time>
      </trkpt>
      <trkpt lat="46.42159" lon="5.96765">
        <ele>1160.6</ele>
        <time>2021-10-17T13:19:04Z</time>
      </trkpt>
      <trkpt lat="46.4216" lon="5.96755">
        <ele>1160.6</ele>
        <time>2021-10-17T13:19:05Z</time>
      </trkpt>
      <trkpt lat="46.42161" lon="5.96745">
        <ele>1160.4</ele>
        <time>2021-10-17T13:19:06Z</time>
      </trkpt>
      <trkpt lat="46.42162" lon="5.96735">
        <ele>1160.4</ele>
        <time>2021-10-17T13:19:07Z</time>
      </trkpt>
      <trkpt lat="46.42163" lon="5.96725">
        <ele>1160.4</ele>
        <time>2021-10-17T13:19:08Z</time>
      </trkpt>
      <trkpt lat="46.42164" lon="5.96715">
        <ele>1160.4</ele>
        <time>2021-10-17T13:19:09Z</time>
      </trkpt>
      <trkpt lat="46.42164" lon="5.96706">
        <ele>1160.4</ele>
        <time>2021-10-17T13:19:10Z</time>
      </trkpt>
      <trkpt lat="46.42164" lon="5.96697">
        <ele>1160.4</ele>
        <time>2021-10-17T13:19:11Z</time>
      </trkpt>
      <trkpt lat="46.42164" lon="5.96689">
        <ele>1160.8</ele>
        <time>2021-10-17T13:19:12Z</time>
      </trkpt>
      <trkpt lat="46.42163" lon="5.96682">
        <ele>1160.8</ele>
        <time>2021-10-17T13:19:13Z</time>
      </trkpt>
      <trkpt lat="46.42162" lon="5.96675">
        <ele>1161</ele>
        <time>2021-10-17T13:19:14Z</time>
      </trkpt>
      <trkpt lat="46.42161" lon="5.96668">
        <ele>1161</ele>
        <time>2021-10-17T13:19:15Z</time>
      </trkpt>
      <trkpt lat="46.42159" lon="5.96661">
        <ele>1161.2</ele>
        <time>2021-10-17T13:19:16Z</time>
      </trkpt>
      <trkpt lat="46.42157" lon="5.96654">
        <ele>1161.2</ele>
        <time>2021-10-17T13:19:17Z</time>
      </trkpt>
      <trkpt lat="46.42154" lon="5.96647">
        <ele>1161</ele>
        <time>2021-10-17T13:19:18Z</time>
      </trkpt>
      <trkpt lat="46.4215" lon="5.9664">
        <ele>1160.8</ele>
        <time>2021-10-17T13:19:19Z</time>
      </trkpt>
      <trkpt lat="46.42146" lon="5.96632">
        <ele>1160.4</ele>
        <time>2021-10-17T13:19:20Z</time>
      </trkpt>
      <trkpt lat="46.42142" lon="5.96623">
        <ele>1160</ele>
        <time>2021-10-17T13:19:21Z</time>
      </trkpt>
      <trkpt lat="46.42137" lon="5.96615">
        <ele>1159.6</ele>
        <time>2021-10-17T13:19:22Z</time>
      </trkpt>
      <trkpt lat="46.42132" lon="5.96606">
        <ele>1159.2</ele>
        <time>2021-10-17T13:19:23Z</time>
      </trkpt>
      <trkpt lat="46.42126" lon="5.96596">
        <ele>1158.6</ele>
        <time>2021-10-17T13:19:24Z</time>
      </trkpt>
      <trkpt lat="46.42121" lon="5.96586">
        <ele>1158.2</ele>
        <time>2021-10-17T13:19:25Z</time>
      </trkpt>
      <trkpt lat="46.42116" lon="5.96575">
        <ele>1157.8</ele>
        <time>2021-10-17T13:19:26Z</time>
      </trkpt>
      <trkpt lat="46.42111" lon="5.96563">
        <ele>1157.2</ele>
        <time>2021-10-17T13:19:27Z</time>
      </trkpt>
      <trkpt lat="46.42108" lon="5.96551">
        <ele>1156.6</ele>
        <time>2021-10-17T13:19:28Z</time>
      </trkpt>
      <trkpt lat="46.42105" lon="5.96538">
        <ele>1156</ele>
        <time>2021-10-17T13:19:29Z</time>
      </trkpt>
      <trkpt lat="46.42103" lon="5.96525">
        <ele>1155.4</ele>
        <time>2021-10-17T13:19:30Z</time>
      </trkpt>
      <trkpt lat="46.42101" lon="5.96512">
        <ele>1154.8</ele>
        <time>2021-10-17T13:19:31Z</time>
      </trkpt>
      <trkpt lat="46.42103" lon="5.965">
        <ele>1154.2</ele>
        <time>2021-10-17T13:19:32Z</time>
      </trkpt>
      <trkpt lat="46.42106" lon="5.96486">
        <ele>1153.6</ele>
        <time>2021-10-17T13:19:33Z</time>
      </trkpt>
      <trkpt lat="46.42112" lon="5.9647">
        <ele>1153</ele>
        <time>2021-10-17T13:19:34Z</time>
      </trkpt>
      <trkpt lat="46.42119" lon="5.96456">
        <ele>1152.2</ele>
        <time>2021-10-17T13:19:35Z</time>
      </trkpt>
      <trkpt lat="46.42127" lon="5.96443">
        <ele>1151.6</ele>
        <time>2021-10-17T13:19:36Z</time>
      </trkpt>
      <trkpt lat="46.42135" lon="5.96434">
        <ele>1151</ele>
        <time>2021-10-17T13:19:37Z</time>
      </trkpt>
      <trkpt lat="46.42143" lon="5.96424">
        <ele>1150.4</ele>
        <time>2021-10-17T13:19:38Z</time>
      </trkpt>
      <trkpt lat="46.42151" lon="5.96415">
        <ele>1150</ele>
        <time>2021-10-17T13:19:39Z</time>
      </trkpt>
      <trkpt lat="46.42159" lon="5.96406">
        <ele>1149.6</ele>
        <time>2021-10-17T13:19:40Z</time>
      </trkpt>
      <trkpt lat="46.42167" lon="5.96398">
        <ele>1149.4</ele>
        <time>2021-10-17T13:19:41Z</time>
      </trkpt>
      <trkpt lat="46.42174" lon="5.9639">
        <ele>1149</ele>
        <time>2021-10-17T13:19:42Z</time>
      </trkpt>
      <trkpt lat="46.42182" lon="5.96382">
        <ele>1148.8</ele>
        <time>2021-10-17T13:19:43Z</time>
      </trkpt>
      <trkpt lat="46.42189" lon="5.96375">
        <ele>1148.8</ele>
        <time>2021-10-17T13:19:44Z</time>
      </trkpt>
      <trkpt lat="46.42196" lon="5.96368">
        <ele>1148.4</ele>
        <time>2021-10-17T13:19:45Z</time>
      </trkpt>
      <trkpt lat="46.42203" lon="5.96362">
        <ele>1148.4</ele>
        <time>2021-10-17T13:19:46Z</time>
      </trkpt>
      <trkpt lat="46.4221" lon="5.96356">
        <ele>1148.4</ele>
        <time>2021-10-17T13:19:47Z</time>
      </trkpt>
      <trkpt lat="46.42218" lon="5.96352">
        <ele>1148.4</ele>
        <time>2021-10-17T13:19:48Z</time>
      </trkpt>
      <trkpt lat="46.42225" lon="5.96347">
        <ele>1148.6</ele>
        <time>2021-10-17T13:19:49Z</time>
      </trkpt>
      <trkpt lat="46.42232" lon="5.96343">
        <ele>1148.6</ele>
        <time>2021-10-17T13:19:50Z</time>
      </trkpt>
      <trkpt lat="46.42238" lon="5.96338">
        <ele>1148.6</ele>
        <time>2021-10-17T13:19:51Z</time>
      </trkpt>
      <trkpt lat="46.42245" lon="5.96333">
        <ele>1148.6</ele>
        <time>2021-10-17T13:19:52Z</time>
      </trkpt>
      <trkpt lat="46.42251" lon="5.96329">
        <ele>1148.6</ele>
        <time>2021-10-17T13:19:53Z</time>
      </trkpt>
      <trkpt lat="46.42257" lon="5.96325">
        <ele>1149</ele>
        <time>2021-10-17T13:19:54Z</time>
      </trkpt>
      <trkpt lat="46.42263" lon="5.96321">
        <ele>1149</ele>
        <time>2021-10-17T13:19:55Z</time>
      </trkpt>
      <trkpt lat="46.42268" lon="5.96316">
        <ele>1149.2</ele>
        <time>2021-10-17T13:19:56Z</time>
      </trkpt>
      <trkpt lat="46.42274" lon="5.96312">
        <ele>1149.2</ele>
        <time>2021-10-17T13:19:57Z</time>
      </trkpt>
      <trkpt lat="46.42279" lon="5.96308">
        <ele>1149.2</ele>
        <time>2021-10-17T13:19:58Z</time>
      </trkpt>
      <trkpt lat="46.42284" lon="5.96304">
        <ele>1149.2</ele>
        <time>2021-10-17T13:19:59Z</time>
      </trkpt>
      <trkpt lat="46.4229" lon="5.96302">
        <ele>1149.2</ele>
        <time>2021-10-17T13:20:00Z</time>
      </trkpt>
      <trkpt lat="46.42296" lon="5.963">
        <ele>1149.2</ele>
        <time>2021-10-17T13:20:01Z</time>
      </trkpt>
      <trkpt lat="46.42301" lon="5.963">
        <ele>1149.2</ele>
        <time>2021-10-17T13:20:02Z</time>
      </trkpt>
      <trkpt lat="46.42307" lon="5.963">
        <ele>1149.2</ele>
        <time>2021-10-17T13:20:03Z</time>
      </trkpt>
      <trkpt lat="46.42312" lon="5.96302">
        <ele>1149.2</ele>
        <time>2021-10-17T13:20:04Z</time>
      </trkpt>
      <trkpt lat="46.42318" lon="5.96303">
        <ele>1149.2</ele>
        <time>2021-10-17T13:20:05Z</time>
      </trkpt>
      <trkpt lat="46.42323" lon="5.96304">
        <ele>1148.8</ele>
        <time>2021-10-17T13:20:06Z</time>
      </trkpt>
      <trkpt lat="46.42329" lon="5.96303">
        <ele>1148.8</ele>
        <time>2021-10-17T13:20:07Z</time>
      </trkpt>
      <trkpt lat="46.42333" lon="5.96301">
        <ele>1148.8</ele>
        <time>2021-10-17T13:20:08Z</time>
      </trkpt>
      <trkpt lat="46.42337" lon="5.96294">
        <ele>1148.4</ele>
        <time>2021-10-17T13:20:09Z</time>
      </trkpt>
      <trkpt lat="46.4234" lon="5.96286">
        <ele>1148.2</ele>
        <time>2021-10-17T13:20:10Z</time>
      </trkpt>
      <trkpt lat="46.42341" lon="5.96277">
        <ele>1148</ele>
        <time>2021-10-17T13:20:11Z</time>
      </trkpt>
      <trkpt lat="46.42342" lon="5.96268">
        <ele>1148</ele>
        <time>2021-10-17T13:20:12Z</time>
      </trkpt>
      <trkpt lat="46.42342" lon="5.96259">
        <ele>1147.8</ele>
        <time>2021-10-17T13:20:13Z</time>
      </trkpt>
      <trkpt lat="46.42342" lon="5.9625">
        <ele>1147.8</ele>
        <time>2021-10-17T13:20:14Z</time>
      </trkpt>
      <trkpt lat="46.42342" lon="5.96241">
        <ele>1147.4</ele>
        <time>2021-10-17T13:20:15Z</time>
      </trkpt>
      <trkpt lat="46.42342" lon="5.96231">
        <ele>1147.2</ele>
        <time>2021-10-17T13:20:16Z</time>
      </trkpt>
      <trkpt lat="46.42344" lon="5.96221">
        <ele>1146.8</ele>
        <time>2021-10-17T13:20:17Z</time>
      </trkpt>
      <trkpt lat="46.42346" lon="5.9621">
        <ele>1146.4</ele>
        <time>2021-10-17T13:20:18Z</time>
      </trkpt>
      <trkpt lat="46.4235" lon="5.96199">
        <ele>1146</ele>
        <time>2021-10-17T13:20:19Z</time>
      </trkpt>
      <trkpt lat="46.42354" lon="5.96189">
        <ele>1145.6</ele>
        <time>2021-10-17T13:20:20Z</time>
      </trkpt>
      <trkpt lat="46.4236" lon="5.96179">
        <ele>1145</ele>
        <time>2021-10-17T13:20:21Z</time>
      </trkpt>
      <trkpt lat="46.42365" lon="5.96169">
        <ele>1144.4</ele>
        <time>2021-10-17T13:20:22Z</time>
      </trkpt>
      <trkpt lat="46.42372" lon="5.96161">
        <ele>1143.8</ele>
        <time>2021-10-17T13:20:23Z</time>
      </trkpt>
      <trkpt lat="46.42379" lon="5.96153">
        <ele>1143.2</ele>
        <time>2021-10-17T13:20:24Z</time>
      </trkpt>
      <trkpt lat="46.42386" lon="5.96146">
        <ele>1142.8</ele>
        <time>2021-10-17T13:20:25Z</time>
      </trkpt>
      <trkpt lat="46.42393" lon="5.9614">
        <ele>1142.2</ele>
        <time>2021-10-17T13:20:26Z</time>
      </trkpt>
      <trkpt lat="46.42401" lon="5.96134">
        <ele>1141.6</ele>
        <time>2021-10-17T13:20:27Z</time>
      </trkpt>
      <trkpt lat="46.42409" lon="5.9613">
        <ele>1140.8</ele>
        <time>2021-10-17T13:20:28Z</time>
      </trkpt>
      <trkpt lat="46.42418" lon="5.96127">
        <ele>1140.2</ele>
        <time>2021-10-17T13:20:29Z</time>
      </trkpt>
      <trkpt lat="46.42428" lon="5.96124">
        <ele>1139.4</ele>
        <time>2021-10-17T13:20:30Z</time>
      </trkpt>
      <trkpt lat="46.42437" lon="5.96125">
        <ele>1138.6</ele>
        <time>2021-10-17T13:20:31Z</time>
      </trkpt>
      <trkpt lat="46.42445" lon="5.96131">
        <ele>1138</ele>
        <time>2021-10-17T13:20:32Z</time>
      </trkpt>
      <trkpt lat="46.42454" lon="5.9614">
        <ele>1137.4</ele>
        <time>2021-10-17T13:20:33Z</time>
      </trkpt>
      <trkpt lat="46.4246" lon="5.96151">
        <ele>1136.8</ele>
        <time>2021-10-17T13:20:34Z</time>
      </trkpt>
      <trkpt lat="46.42464" lon="5.96163">
        <ele>1136.4</ele>
        <time>2021-10-17T13:20:35Z</time>
      </trkpt>
      <trkpt lat="46.42466" lon="5.96174">
        <ele>1136</ele>
        <time>2021-10-17T13:20:36Z</time>
      </trkpt>
      <trkpt lat="46.42468" lon="5.96185">
        <ele>1135.6</ele>
        <time>2021-10-17T13:20:37Z</time>
      </trkpt>
      <trkpt lat="46.42469" lon="5.96194">
        <ele>1135.2</ele>
        <time>2021-10-17T13:20:38Z</time>
      </trkpt>
      <trkpt lat="46.42471" lon="5.96203">
        <ele>1134.8</ele>
        <time>2021-10-17T13:20:39Z</time>
      </trkpt>
      <trkpt lat="46.42474" lon="5.9621">
        <ele>1134.4</ele>
        <time>2021-10-17T13:20:40Z</time>
      </trkpt>
      <trkpt lat="46.42477" lon="5.96217">
        <ele>1134</ele>
        <time>2021-10-17T13:20:41Z</time>
      </trkpt>
      <trkpt lat="46.42482" lon="5.96221">
        <ele>1133.6</ele>
        <time>2021-10-17T13:20:42Z</time>
      </trkpt>
      <trkpt lat="46.42487" lon="5.96224">
        <ele>1133.2</ele>
        <time>2021-10-17T13:20:43Z</time>
      </trkpt>
      <trkpt lat="46.42494" lon="5.96225">
        <ele>1132.8</ele>
        <time>2021-10-17T13:20:44Z</time>
      </trkpt>
      <trkpt lat="46.425" lon="5.96224">
        <ele>1132.4</ele>
        <time>2021-10-17T13:20:45Z</time>
      </trkpt>
      <trkpt lat="46.42506" lon="5.96221">
        <ele>1132.2</ele>
        <time>2021-10-17T13:20:46Z</time>
      </trkpt>
      <trkpt lat="46.42512" lon="5.96218">
        <ele>1132</ele>
        <time>2021-10-17T13:20:47Z</time>
      </trkpt>
      <trkpt lat="46.42518" lon="5.96213">
        <ele>1131.6</ele>
        <time>2021-10-17T13:20:48Z</time>
      </trkpt>
      <trkpt lat="46.42523" lon="5.96209">
        <ele>1131.4</ele>
        <time>2021-10-17T13:20:49Z</time>
      </trkpt>
      <trkpt lat="46.42527" lon="5.96205">
        <ele>1131.4</ele>
        <time>2021-10-17T13:20:50Z</time>
      </trkpt>
      <trkpt lat="46.42531" lon="5.96201">
        <ele>1131.2</ele>
        <time>2021-10-17T13:20:51Z</time>
      </trkpt>
      <trkpt lat="46.42534" lon="5.96198">
        <ele>1131</ele>
        <time>2021-10-17T13:20:52Z</time>
      </trkpt>
      <trkpt lat="46.42535" lon="5.96195">
        <ele>1131</ele>
        <time>2021-10-17T13:20:53Z</time>
      </trkpt>
      <trkpt lat="46.42536" lon="5.96192">
        <ele>1130.6</ele>
        <time>2021-10-17T13:20:54Z</time>
      </trkpt>
      <trkpt lat="46.42537" lon="5.9619">
        <ele>1130.6</ele>
        <time>2021-10-17T13:20:55Z</time>
      </trkpt>
      <trkpt lat="46.42537" lon="5.96188">
        <ele>1130.4</ele>
        <time>2021-10-17T13:20:56Z</time>
      </trkpt>
      <trkpt lat="46.42537" lon="5.96187">
        <ele>1130.4</ele>
        <time>2021-10-17T13:20:57Z</time>
      </trkpt>
      <trkpt lat="46.42537" lon="5.96186">
        <ele>1130</ele>
        <time>2021-10-17T13:20:58Z</time>
      </trkpt>
      <trkpt lat="46.4254" lon="5.96184">
        <ele>1129.8</ele>
        <time>2021-10-17T13:22:46Z</time>
      </trkpt>
      <trkpt lat="46.42541" lon="5.96182">
        <ele>1129.8</ele>
        <time>2021-10-17T13:22:47Z</time>
      </trkpt>
      <trkpt lat="46.42543" lon="5.9618">
        <ele>1129.6</ele>
        <time>2021-10-17T13:22:48Z</time>
      </trkpt>
      <trkpt lat="46.42544" lon="5.96178">
        <ele>1129.6</ele>
        <time>2021-10-17T13:22:49Z</time>
      </trkpt>
      <trkpt lat="46.42545" lon="5.96177">
        <ele>1129.2</ele>
        <time>2021-10-17T13:22:50Z</time>
      </trkpt>
      <trkpt lat="46.42546" lon="5.96177">
        <ele>1129.2</ele>
        <time>2021-10-17T13:22:51Z</time>
      </trkpt>
      <trkpt lat="46.42547" lon="5.96176">
        <ele>1128.8</ele>
        <time>2021-10-17T13:22:52Z</time>
      </trkpt>
      <trkpt lat="46.42549" lon="5.96176">
        <ele>1128.8</ele>
        <time>2021-10-17T13:22:53Z</time>
      </trkpt>
      <trkpt lat="46.4255" lon="5.96175">
        <ele>1128.8</ele>
        <time>2021-10-17T13:22:54Z</time>
      </trkpt>
      <trkpt lat="46.42552" lon="5.96174">
        <ele>1128.6</ele>
        <time>2021-10-17T13:22:55Z</time>
      </trkpt>
      <trkpt lat="46.42555" lon="5.96173">
        <ele>1128.6</ele>
        <time>2021-10-17T13:22:56Z</time>
      </trkpt>
      <trkpt lat="46.42558" lon="5.96171">
        <ele>1128.2</ele>
        <time>2021-10-17T13:22:57Z</time>
      </trkpt>
      <trkpt lat="46.42561" lon="5.96169">
        <ele>1128</ele>
        <time>2021-10-17T13:22:58Z</time>
      </trkpt>
      <trkpt lat="46.42566" lon="5.96165">
        <ele>1127.8</ele>
        <time>2021-10-17T13:22:59Z</time>
      </trkpt>
      <trkpt lat="46.4257" lon="5.96161">
        <ele>1127.4</ele>
        <time>2021-10-17T13:23:00Z</time>
      </trkpt>
      <trkpt lat="46.42575" lon="5.96155">
        <ele>1127</ele>
        <time>2021-10-17T13:23:01Z</time>
      </trkpt>
      <trkpt lat="46.42579" lon="5.96149">
        <ele>1126.8</ele>
        <time>2021-10-17T13:23:02Z</time>
      </trkpt>
      <trkpt lat="46.42584" lon="5.96143">
        <ele>1126.2</ele>
        <time>2021-10-17T13:23:03Z</time>
      </trkpt>
      <trkpt lat="46.42589" lon="5.96135">
        <ele>1125.8</ele>
        <time>2021-10-17T13:23:04Z</time>
      </trkpt>
      <trkpt lat="46.42593" lon="5.96126">
        <ele>1125.4</ele>
        <time>2021-10-17T13:23:05Z</time>
      </trkpt>
      <trkpt lat="46.42597" lon="5.96116">
        <ele>1124.8</ele>
        <time>2021-10-17T13:23:06Z</time>
      </trkpt>
      <trkpt lat="46.42601" lon="5.96105">
        <ele>1124.2</ele>
        <time>2021-10-17T13:23:07Z</time>
      </trkpt>
      <trkpt lat="46.42605" lon="5.96094">
        <ele>1123.8</ele>
        <time>2021-10-17T13:23:08Z</time>
      </trkpt>
      <trkpt lat="46.42608" lon="5.96082">
        <ele>1123.4</ele>
        <time>2021-10-17T13:23:09Z</time>
      </trkpt>
      <trkpt lat="46.42612" lon="5.96071">
        <ele>1123</ele>
        <time>2021-10-17T13:23:10Z</time>
      </trkpt>
      <trkpt lat="46.42615" lon="5.9606">
        <ele>1122.8</ele>
        <time>2021-10-17T13:23:11Z</time>
      </trkpt>
      <trkpt lat="46.42619" lon="5.96049">
        <ele>1122.4</ele>
        <time>2021-10-17T13:23:12Z</time>
      </trkpt>
      <trkpt lat="46.42623" lon="5.96038">
        <ele>1122.4</ele>
        <time>2021-10-17T13:23:13Z</time>
      </trkpt>
      <trkpt lat="46.42626" lon="5.96027">
        <ele>1122</ele>
        <time>2021-10-17T13:23:14Z</time>
      </trkpt>
      <trkpt lat="46.42629" lon="5.96016">
        <ele>1122</ele>
        <time>2021-10-17T13:23:15Z</time>
      </trkpt>
      <trkpt lat="46.42632" lon="5.96006">
        <ele>1121.6</ele>
        <time>2021-10-17T13:23:16Z</time>
      </trkpt>
      <trkpt lat="46.42635" lon="5.95994">
        <ele>1121.6</ele>
        <time>2021-10-17T13:23:17Z</time>
      </trkpt>
      <trkpt lat="46.42637" lon="5.95982">
        <ele>1121</ele>
        <time>2021-10-17T13:23:18Z</time>
      </trkpt>
      <trkpt lat="46.42639" lon="5.9597">
        <ele>1120.6</ele>
        <time>2021-10-17T13:23:19Z</time>
      </trkpt>
      <trkpt lat="46.4264" lon="5.95955">
        <ele>1120</ele>
        <time>2021-10-17T13:23:20Z</time>
      </trkpt>
      <trkpt lat="46.42641" lon="5.95941">
        <ele>1119.4</ele>
        <time>2021-10-17T13:23:21Z</time>
      </trkpt>
      <trkpt lat="46.4264" lon="5.95927">
        <ele>1119</ele>
        <time>2021-10-17T13:23:22Z</time>
      </trkpt>
      <trkpt lat="46.42637" lon="5.95914">
        <ele>1118.6</ele>
        <time>2021-10-17T13:23:23Z</time>
      </trkpt>
      <trkpt lat="46.42633" lon="5.95901">
        <ele>1118.2</ele>
        <time>2021-10-17T13:23:24Z</time>
      </trkpt>
      <trkpt lat="46.4263" lon="5.95887">
        <ele>1118</ele>
        <time>2021-10-17T13:23:25Z</time>
      </trkpt>
      <trkpt lat="46.42628" lon="5.95875">
        <ele>1117.6</ele>
        <time>2021-10-17T13:23:26Z</time>
      </trkpt>
      <trkpt lat="46.42626" lon="5.95862">
        <ele>1117.4</ele>
        <time>2021-10-17T13:23:27Z</time>
      </trkpt>
      <trkpt lat="46.42624" lon="5.95849">
        <ele>1117.4</ele>
        <time>2021-10-17T13:23:28Z</time>
      </trkpt>
      <trkpt lat="46.42622" lon="5.95836">
        <ele>1117</ele>
        <time>2021-10-17T13:23:29Z</time>
      </trkpt>
      <trkpt lat="46.42621" lon="5.95823">
        <ele>1116.8</ele>
        <time>2021-10-17T13:23:30Z</time>
      </trkpt>
      <trkpt lat="46.4262" lon="5.9581">
        <ele>1116.6</ele>
        <time>2021-10-17T13:23:31Z</time>
      </trkpt>
      <trkpt lat="46.42619" lon="5.95797">
        <ele>1116.4</ele>
        <time>2021-10-17T13:23:32Z</time>
      </trkpt>
      <trkpt lat="46.4262" lon="5.95785">
        <ele>1116.4</ele>
        <time>2021-10-17T13:23:33Z</time>
      </trkpt>
      <trkpt lat="46.42621" lon="5.95773">
        <ele>1116</ele>
        <time>2021-10-17T13:23:34Z</time>
      </trkpt>
      <trkpt lat="46.42622" lon="5.95762">
        <ele>1116</ele>
        <time>2021-10-17T13:23:35Z</time>
      </trkpt>
      <trkpt lat="46.42623" lon="5.95752">
        <ele>1115.6</ele>
        <time>2021-10-17T13:23:36Z</time>
      </trkpt>
      <trkpt lat="46.42626" lon="5.95744">
        <ele>1115.4</ele>
        <time>2021-10-17T13:23:37Z</time>
      </trkpt>
      <trkpt lat="46.4263" lon="5.95736">
        <ele>1115.2</ele>
        <time>2021-10-17T13:23:38Z</time>
      </trkpt>
      <trkpt lat="46.42635" lon="5.9573">
        <ele>1114.8</ele>
        <time>2021-10-17T13:23:39Z</time>
      </trkpt>
      <trkpt lat="46.42641" lon="5.95724">
        <ele>1114.2</ele>
        <time>2021-10-17T13:23:40Z</time>
      </trkpt>
      <trkpt lat="46.42649" lon="5.95719">
        <ele>1113.8</ele>
        <time>2021-10-17T13:23:41Z</time>
      </trkpt>
      <trkpt lat="46.42656" lon="5.95715">
        <ele>1113.2</ele>
        <time>2021-10-17T13:23:42Z</time>
      </trkpt>
      <trkpt lat="46.42664" lon="5.95709">
        <ele>1112.6</ele>
        <time>2021-10-17T13:23:43Z</time>
      </trkpt>
      <trkpt lat="46.42672" lon="5.95704">
        <ele>1112</ele>
        <time>2021-10-17T13:23:44Z</time>
      </trkpt>
      <trkpt lat="46.42681" lon="5.95701">
        <ele>1111.2</ele>
        <time>2021-10-17T13:23:45Z</time>
      </trkpt>
      <trkpt lat="46.4269" lon="5.95696">
        <ele>1110.4</ele>
        <time>2021-10-17T13:23:46Z</time>
      </trkpt>
      <trkpt lat="46.427" lon="5.9569">
        <ele>1109.8</ele>
        <time>2021-10-17T13:23:47Z</time>
      </trkpt>
      <trkpt lat="46.42709" lon="5.95685">
        <ele>1109.2</ele>
        <time>2021-10-17T13:23:48Z</time>
      </trkpt>
      <trkpt lat="46.42719" lon="5.95679">
        <ele>1108.6</ele>
        <time>2021-10-17T13:23:49Z</time>
      </trkpt>
      <trkpt lat="46.42729" lon="5.95674">
        <ele>1108</ele>
        <time>2021-10-17T13:23:50Z</time>
      </trkpt>
      <trkpt lat="46.42738" lon="5.95671">
        <ele>1107.2</ele>
        <time>2021-10-17T13:23:51Z</time>
      </trkpt>
      <trkpt lat="46.42747" lon="5.95668">
        <ele>1106.6</ele>
        <time>2021-10-17T13:23:52Z</time>
      </trkpt>
      <trkpt lat="46.42757" lon="5.95667">
        <ele>1106</ele>
        <time>2021-10-17T13:23:53Z</time>
      </trkpt>
      <trkpt lat="46.42766" lon="5.95668">
        <ele>1105.4</ele>
        <time>2021-10-17T13:23:54Z</time>
      </trkpt>
      <trkpt lat="46.42775" lon="5.95673">
        <ele>1104.8</ele>
        <time>2021-10-17T13:23:55Z</time>
      </trkpt>
      <trkpt lat="46.42784" lon="5.9568">
        <ele>1104.2</ele>
        <time>2021-10-17T13:23:56Z</time>
      </trkpt>
      <trkpt lat="46.42792" lon="5.9569">
        <ele>1103.6</ele>
        <time>2021-10-17T13:23:57Z</time>
      </trkpt>
      <trkpt lat="46.42799" lon="5.95701">
        <ele>1103</ele>
        <time>2021-10-17T13:23:58Z</time>
      </trkpt>
      <trkpt lat="46.42806" lon="5.95712">
        <ele>1102.4</ele>
        <time>2021-10-17T13:23:59Z</time>
      </trkpt>
      <trkpt lat="46.42812" lon="5.95725">
        <ele>1102</ele>
        <time>2021-10-17T13:24:00Z</time>
      </trkpt>
      <trkpt lat="46.42817" lon="5.95739">
        <ele>1101.4</ele>
        <time>2021-10-17T13:24:01Z</time>
      </trkpt>
      <trkpt lat="46.42822" lon="5.95753">
        <ele>1100.8</ele>
        <time>2021-10-17T13:24:02Z</time>
      </trkpt>
      <trkpt lat="46.42829" lon="5.95767">
        <ele>1100.2</ele>
        <time>2021-10-17T13:24:03Z</time>
      </trkpt>
      <trkpt lat="46.42835" lon="5.95781">
        <ele>1099.8</ele>
        <time>2021-10-17T13:24:04Z</time>
      </trkpt>
      <trkpt lat="46.42841" lon="5.95793">
        <ele>1099.2</ele>
        <time>2021-10-17T13:24:05Z</time>
      </trkpt>
      <trkpt lat="46.42848" lon="5.95805">
        <ele>1098.6</ele>
        <time>2021-10-17T13:24:06Z</time>
      </trkpt>
      <trkpt lat="46.42855" lon="5.95817">
        <ele>1097.8</ele>
        <time>2021-10-17T13:24:07Z</time>
      </trkpt>
      <trkpt lat="46.42863" lon="5.95828">
        <ele>1097.2</ele>
        <time>2021-10-17T13:24:08Z</time>
      </trkpt>
      <trkpt lat="46.42871" lon="5.95839">
        <ele>1096.6</ele>
        <time>2021-10-17T13:24:09Z</time>
      </trkpt>
      <trkpt lat="46.4288" lon="5.9585">
        <ele>1096</ele>
        <time>2021-10-17T13:24:10Z</time>
      </trkpt>
      <trkpt lat="46.4289" lon="5.95861">
        <ele>1095.2</ele>
        <time>2021-10-17T13:24:11Z</time>
      </trkpt>
      <trkpt lat="46.42899" lon="5.95872">
        <ele>1094.6</ele>
        <time>2021-10-17T13:24:12Z</time>
      </trkpt>
      <trkpt lat="46.42909" lon="5.95883">
        <ele>1094</ele>
        <time>2021-10-17T13:24:13Z</time>
      </trkpt>
      <trkpt lat="46.42919" lon="5.95894">
        <ele>1093.6</ele>
        <time>2021-10-17T13:24:14Z</time>
      </trkpt>
      <trkpt lat="46.42929" lon="5.95905">
        <ele>1092.8</ele>
        <time>2021-10-17T13:24:15Z</time>
      </trkpt>
      <trkpt lat="46.42938" lon="5.95916">
        <ele>1092.2</ele>
        <time>2021-10-17T13:24:16Z</time>
      </trkpt>
      <trkpt lat="46.42947" lon="5.95926">
        <ele>1091.4</ele>
        <time>2021-10-17T13:24:17Z</time>
      </trkpt>
      <trkpt lat="46.42957" lon="5.95937">
        <ele>1090.8</ele>
        <time>2021-10-17T13:24:18Z</time>
      </trkpt>
      <trkpt lat="46.42968" lon="5.95947">
        <ele>1090.2</ele>
        <time>2021-10-17T13:24:19Z</time>
      </trkpt>
      <trkpt lat="46.42979" lon="5.95956">
        <ele>1089.4</ele>
        <time>2021-10-17T13:24:20Z</time>
      </trkpt>
      <trkpt lat="46.4299" lon="5.95964">
        <ele>1088.8</ele>
        <time>2021-10-17T13:24:21Z</time>
      </trkpt>
      <trkpt lat="46.43002" lon="5.95971">
        <ele>1088</ele>
        <time>2021-10-17T13:24:22Z</time>
      </trkpt>
      <trkpt lat="46.43014" lon="5.95977">
        <ele>1087.4</ele>
        <time>2021-10-17T13:24:23Z</time>
      </trkpt>
      <trkpt lat="46.43026" lon="5.95982">
        <ele>1086.6</ele>
        <time>2021-10-17T13:24:24Z</time>
      </trkpt>
      <trkpt lat="46.43039" lon="5.95986">
        <ele>1086</ele>
        <time>2021-10-17T13:24:25Z</time>
      </trkpt>
      <trkpt lat="46.43051" lon="5.9599">
        <ele>1085.2</ele>
        <time>2021-10-17T13:24:26Z</time>
      </trkpt>
      <trkpt lat="46.43064" lon="5.95994">
        <ele>1084.8</ele>
        <time>2021-10-17T13:24:27Z</time>
      </trkpt>
      <trkpt lat="46.43076" lon="5.95999">
        <ele>1084</ele>
        <time>2021-10-17T13:24:28Z</time>
      </trkpt>
      <trkpt lat="46.43089" lon="5.96004">
        <ele>1083.2</ele>
        <time>2021-10-17T13:24:29Z</time>
      </trkpt>
      <trkpt lat="46.43102" lon="5.96008">
        <ele>1082.4</ele>
        <time>2021-10-17T13:24:30Z</time>
      </trkpt>
      <trkpt lat="46.43115" lon="5.96012">
        <ele>1081.6</ele>
        <time>2021-10-17T13:24:31Z</time>
      </trkpt>
      <trkpt lat="46.43129" lon="5.96015">
        <ele>1081</ele>
        <time>2021-10-17T13:24:32Z</time>
      </trkpt>
      <trkpt lat="46.43143" lon="5.96019">
        <ele>1080.2</ele>
        <time>2021-10-17T13:24:33Z</time>
      </trkpt>
      <trkpt lat="46.43157" lon="5.96023">
        <ele>1079.6</ele>
        <time>2021-10-17T13:24:34Z</time>
      </trkpt>
      <trkpt lat="46.4317" lon="5.96027">
        <ele>1078.8</ele>
        <time>2021-10-17T13:24:35Z</time>
      </trkpt>
      <trkpt lat="46.43184" lon="5.96031">
        <ele>1078.2</ele>
        <time>2021-10-17T13:24:36Z</time>
      </trkpt>
      <trkpt lat="46.43199" lon="5.96036">
        <ele>1077.8</ele>
        <time>2021-10-17T13:24:37Z</time>
      </trkpt>
      <trkpt lat="46.43211" lon="5.96038">
        <ele>1077.2</ele>
        <time>2021-10-17T13:24:38Z</time>
      </trkpt>
      <trkpt lat="46.43224" lon="5.9604">
        <ele>1076.8</ele>
        <time>2021-10-17T13:24:39Z</time>
      </trkpt>
      <trkpt lat="46.43237" lon="5.96042">
        <ele>1076.6</ele>
        <time>2021-10-17T13:24:40Z</time>
      </trkpt>
      <trkpt lat="46.43249" lon="5.96045">
        <ele>1076.2</ele>
        <time>2021-10-17T13:24:41Z</time>
      </trkpt>
      <trkpt lat="46.43259" lon="5.96048">
        <ele>1075.8</ele>
        <time>2021-10-17T13:24:42Z</time>
      </trkpt>
      <trkpt lat="46.4327" lon="5.96052">
        <ele>1075.8</ele>
        <time>2021-10-17T13:24:43Z</time>
      </trkpt>
      <trkpt lat="46.43279" lon="5.96058">
        <ele>1075.8</ele>
        <time>2021-10-17T13:24:44Z</time>
      </trkpt>
      <trkpt lat="46.43288" lon="5.96066">
        <ele>1075.8</ele>
        <time>2021-10-17T13:24:45Z</time>
      </trkpt>
      <trkpt lat="46.43297" lon="5.96073">
        <ele>1075.8</ele>
        <time>2021-10-17T13:24:46Z</time>
      </trkpt>
      <trkpt lat="46.43305" lon="5.96081">
        <ele>1075.8</ele>
        <time>2021-10-17T13:24:47Z</time>
      </trkpt>
      <trkpt lat="46.43313" lon="5.96086">
        <ele>1076.4</ele>
        <time>2021-10-17T13:24:48Z</time>
      </trkpt>
      <trkpt lat="46.43321" lon="5.96093">
        <ele>1076.6</ele>
        <time>2021-10-17T13:24:49Z</time>
      </trkpt>
      <trkpt lat="46.43327" lon="5.961">
        <ele>1076.8</ele>
        <time>2021-10-17T13:24:50Z</time>
      </trkpt>
      <trkpt lat="46.43334" lon="5.96106">
        <ele>1077.2</ele>
        <time>2021-10-17T13:24:51Z</time>
      </trkpt>
      <trkpt lat="46.4334" lon="5.96111">
        <ele>1077.4</ele>
        <time>2021-10-17T13:24:52Z</time>
      </trkpt>
      <trkpt lat="46.43345" lon="5.96117">
        <ele>1077.8</ele>
        <time>2021-10-17T13:24:53Z</time>
      </trkpt>
      <trkpt lat="46.4335" lon="5.96122">
        <ele>1078</ele>
        <time>2021-10-17T13:24:54Z</time>
      </trkpt>
      <trkpt lat="46.43355" lon="5.96128">
        <ele>1078.2</ele>
        <time>2021-10-17T13:24:55Z</time>
      </trkpt>
      <trkpt lat="46.4336" lon="5.96133">
        <ele>1078.6</ele>
        <time>2021-10-17T13:24:56Z</time>
      </trkpt>
      <trkpt lat="46.43364" lon="5.96139">
        <ele>1078.8</ele>
        <time>2021-10-17T13:24:57Z</time>
      </trkpt>
      <trkpt lat="46.43368" lon="5.96145">
        <ele>1079</ele>
        <time>2021-10-17T13:24:58Z</time>
      </trkpt>
      <trkpt lat="46.43372" lon="5.9615">
        <ele>1079.2</ele>
        <time>2021-10-17T13:24:59Z</time>
      </trkpt>
      <trkpt lat="46.43375" lon="5.96156">
        <ele>1079.2</ele>
        <time>2021-10-17T13:25:00Z</time>
      </trkpt>
      <trkpt lat="46.43378" lon="5.96161">
        <ele>1079.6</ele>
        <time>2021-10-17T13:25:01Z</time>
      </trkpt>
      <trkpt lat="46.43381" lon="5.96166">
        <ele>1080</ele>
        <time>2021-10-17T13:25:02Z</time>
      </trkpt>
      <trkpt lat="46.43384" lon="5.96171">
        <ele>1080.2</ele>
        <time>2021-10-17T13:25:03Z</time>
      </trkpt>
      <trkpt lat="46.43387" lon="5.96176">
        <ele>1080.2</ele>
        <time>2021-10-17T13:25:04Z</time>
      </trkpt>
      <trkpt lat="46.4339" lon="5.9618">
        <ele>1080.6</ele>
        <time>2021-10-17T13:25:05Z</time>
      </trkpt>
      <trkpt lat="46.43392" lon="5.96185">
        <ele>1080.6</ele>
        <time>2021-10-17T13:25:06Z</time>
      </trkpt>
      <trkpt lat="46.43394" lon="5.9619">
        <ele>1080.8</ele>
        <time>2021-10-17T13:25:07Z</time>
      </trkpt>
      <trkpt lat="46.43396" lon="5.96195">
        <ele>1081.2</ele>
        <time>2021-10-17T13:25:08Z</time>
      </trkpt>
      <trkpt lat="46.43397" lon="5.96199">
        <ele>1081.2</ele>
        <time>2021-10-17T13:25:09Z</time>
      </trkpt>
      <trkpt lat="46.43399" lon="5.96204">
        <ele>1081.4</ele>
        <time>2021-10-17T13:25:10Z</time>
      </trkpt>
      <trkpt lat="46.434" lon="5.96209">
        <ele>1081.8</ele>
        <time>2021-10-17T13:25:11Z</time>
      </trkpt>
      <trkpt lat="46.43401" lon="5.96214">
        <ele>1082</ele>
        <time>2021-10-17T13:25:12Z</time>
      </trkpt>
      <trkpt lat="46.43402" lon="5.96219">
        <ele>1082</ele>
        <time>2021-10-17T13:25:13Z</time>
      </trkpt>
      <trkpt lat="46.43402" lon="5.96224">
        <ele>1082.4</ele>
        <time>2021-10-17T13:25:14Z</time>
      </trkpt>
      <trkpt lat="46.43403" lon="5.96229">
        <ele>1082.4</ele>
        <time>2021-10-17T13:25:15Z</time>
      </trkpt>
      <trkpt lat="46.43404" lon="5.96234">
        <ele>1082.8</ele>
        <time>2021-10-17T13:25:16Z</time>
      </trkpt>
      <trkpt lat="46.43404" lon="5.9624">
        <ele>1083.2</ele>
        <time>2021-10-17T13:25:17Z</time>
      </trkpt>
      <trkpt lat="46.43405" lon="5.96245">
        <ele>1083.4</ele>
        <time>2021-10-17T13:25:18Z</time>
      </trkpt>
      <trkpt lat="46.43405" lon="5.96251">
        <ele>1083.6</ele>
        <time>2021-10-17T13:25:19Z</time>
      </trkpt>
      <trkpt lat="46.43406" lon="5.96256">
        <ele>1083.8</ele>
        <time>2021-10-17T13:25:20Z</time>
      </trkpt>
      <trkpt lat="46.43406" lon="5.96261">
        <ele>1084.2</ele>
        <time>2021-10-17T13:25:21Z</time>
      </trkpt>
      <trkpt lat="46.43406" lon="5.96266">
        <ele>1084.4</ele>
        <time>2021-10-17T13:25:22Z</time>
      </trkpt>
      <trkpt lat="46.43406" lon="5.9627">
        <ele>1084.6</ele>
        <time>2021-10-17T13:25:23Z</time>
      </trkpt>
      <trkpt lat="46.43406" lon="5.96275">
        <ele>1084.6</ele>
        <time>2021-10-17T13:25:24Z</time>
      </trkpt>
      <trkpt lat="46.43406" lon="5.96279">
        <ele>1085</ele>
        <time>2021-10-17T13:25:25Z</time>
      </trkpt>
      <trkpt lat="46.43406" lon="5.96284">
        <ele>1085.2</ele>
        <time>2021-10-17T13:25:26Z</time>
      </trkpt>
      <trkpt lat="46.43407" lon="5.96288">
        <ele>1085.2</ele>
        <time>2021-10-17T13:25:27Z</time>
      </trkpt>
      <trkpt lat="46.43407" lon="5.96293">
        <ele>1085.4</ele>
        <time>2021-10-17T13:25:28Z</time>
      </trkpt>
      <trkpt lat="46.43407" lon="5.96298">
        <ele>1085.4</ele>
        <time>2021-10-17T13:25:29Z</time>
      </trkpt>
      <trkpt lat="46.43407" lon="5.96302">
        <ele>1085.6</ele>
        <time>2021-10-17T13:25:30Z</time>
      </trkpt>
      <trkpt lat="46.43407" lon="5.96307">
        <ele>1085.6</ele>
        <time>2021-10-17T13:25:31Z</time>
      </trkpt>
      <trkpt lat="46.43407" lon="5.96311">
        <ele>1086</ele>
        <time>2021-10-17T13:25:32Z</time>
      </trkpt>
      <trkpt lat="46.43407" lon="5.96316">
        <ele>1086</ele>
        <time>2021-10-17T13:25:33Z</time>
      </trkpt>
      <trkpt lat="46.43407" lon="5.9632">
        <ele>1086.4</ele>
        <time>2021-10-17T13:25:34Z</time>
      </trkpt>
      <trkpt lat="46.43408" lon="5.96325">
        <ele>1086.4</ele>
        <time>2021-10-17T13:25:35Z</time>
      </trkpt>
      <trkpt lat="46.43409" lon="5.96329">
        <ele>1086.8</ele>
        <time>2021-10-17T13:25:36Z</time>
      </trkpt>
      <trkpt lat="46.43409" lon="5.96333">
        <ele>1086.8</ele>
        <time>2021-10-17T13:25:37Z</time>
      </trkpt>
      <trkpt lat="46.43409" lon="5.96338">
        <ele>1087</ele>
        <time>2021-10-17T13:25:38Z</time>
      </trkpt>
      <trkpt lat="46.4341" lon="5.96342">
        <ele>1087</ele>
        <time>2021-10-17T13:25:39Z</time>
      </trkpt>
      <trkpt lat="46.4341" lon="5.96347">
        <ele>1087.4</ele>
        <time>2021-10-17T13:25:40Z</time>
      </trkpt>
      <trkpt lat="46.4341" lon="5.96352">
        <ele>1087.4</ele>
        <time>2021-10-17T13:25:41Z</time>
      </trkpt>
      <trkpt lat="46.43411" lon="5.96356">
        <ele>1087.8</ele>
        <time>2021-10-17T13:25:42Z</time>
      </trkpt>
      <trkpt lat="46.43412" lon="5.96361">
        <ele>1087.8</ele>
        <time>2021-10-17T13:25:43Z</time>
      </trkpt>
      <trkpt lat="46.43413" lon="5.96365">
        <ele>1088.2</ele>
        <time>2021-10-17T13:25:44Z</time>
      </trkpt>
      <trkpt lat="46.43414" lon="5.9637">
        <ele>1088.2</ele>
        <time>2021-10-17T13:25:45Z</time>
      </trkpt>
      <trkpt lat="46.43415" lon="5.96375">
        <ele>1088.4</ele>
        <time>2021-10-17T13:25:46Z</time>
      </trkpt>
      <trkpt lat="46.43416" lon="5.9638">
        <ele>1088.6</ele>
        <time>2021-10-17T13:25:47Z</time>
      </trkpt>
      <trkpt lat="46.43417" lon="5.96385">
        <ele>1088.6</ele>
        <time>2021-10-17T13:25:48Z</time>
      </trkpt>
      <trkpt lat="46.43419" lon="5.96389">
        <ele>1089</ele>
        <time>2021-10-17T13:25:49Z</time>
      </trkpt>
      <trkpt lat="46.4342" lon="5.96394">
        <ele>1089</ele>
        <time>2021-10-17T13:25:50Z</time>
      </trkpt>
      <trkpt lat="46.43421" lon="5.96399">
        <ele>1089.2</ele>
        <time>2021-10-17T13:25:51Z</time>
      </trkpt>
      <trkpt lat="46.43422" lon="5.96404">
        <ele>1089.2</ele>
        <time>2021-10-17T13:25:52Z</time>
      </trkpt>
      <trkpt lat="46.43423" lon="5.96408">
        <ele>1089.6</ele>
        <time>2021-10-17T13:25:53Z</time>
      </trkpt>
      <trkpt lat="46.43424" lon="5.96413">
        <ele>1089.8</ele>
        <time>2021-10-17T13:25:54Z</time>
      </trkpt>
      <trkpt lat="46.43425" lon="5.96417">
        <ele>1089.8</ele>
        <time>2021-10-17T13:25:55Z</time>
      </trkpt>
      <trkpt lat="46.43427" lon="5.96422">
        <ele>1090.2</ele>
        <time>2021-10-17T13:25:56Z</time>
      </trkpt>
      <trkpt lat="46.43428" lon="5.96426">
        <ele>1090.2</ele>
        <time>2021-10-17T13:25:57Z</time>
      </trkpt>
      <trkpt lat="46.43429" lon="5.9643">
        <ele>1090.6</ele>
        <time>2021-10-17T13:25:58Z</time>
      </trkpt>
      <trkpt lat="46.4343" lon="5.96435">
        <ele>1090.6</ele>
        <time>2021-10-17T13:25:59Z</time>
      </trkpt>
      <trkpt lat="46.43431" lon="5.96439">
        <ele>1090.8</ele>
        <time>2021-10-17T13:26:00Z</time>
      </trkpt>
      <trkpt lat="46.43432" lon="5.96443">
        <ele>1090.8</ele>
        <time>2021-10-17T13:26:01Z</time>
      </trkpt>
      <trkpt lat="46.43433" lon="5.96447">
        <ele>1091.2</ele>
        <time>2021-10-17T13:26:02Z</time>
      </trkpt>
      <trkpt lat="46.43434" lon="5.96452">
        <ele>1091.2</ele>
        <time>2021-10-17T13:26:03Z</time>
      </trkpt>
      <trkpt lat="46.43435" lon="5.96455">
        <ele>1091.4</ele>
        <time>2021-10-17T13:26:04Z</time>
      </trkpt>
      <trkpt lat="46.43436" lon="5.96459">
        <ele>1091.4</ele>
        <time>2021-10-17T13:26:05Z</time>
      </trkpt>
      <trkpt lat="46.43437" lon="5.96463">
        <ele>1091.8</ele>
        <time>2021-10-17T13:26:06Z</time>
      </trkpt>
      <trkpt lat="46.43438" lon="5.96467">
        <ele>1092</ele>
        <time>2021-10-17T13:26:07Z</time>
      </trkpt>
      <trkpt lat="46.43439" lon="5.9647">
        <ele>1092.2</ele>
        <time>2021-10-17T13:26:08Z</time>
      </trkpt>
      <trkpt lat="46.4344" lon="5.96474">
        <ele>1092.2</ele>
        <time>2021-10-17T13:26:09Z</time>
      </trkpt>
      <trkpt lat="46.43441" lon="5.96478">
        <ele>1092.6</ele>
        <time>2021-10-17T13:26:10Z</time>
      </trkpt>
      <trkpt lat="46.43442" lon="5.96481">
        <ele>1092.8</ele>
        <time>2021-10-17T13:26:11Z</time>
      </trkpt>
      <trkpt lat="46.43444" lon="5.96484">
        <ele>1092.8</ele>
        <time>2021-10-17T13:26:12Z</time>
      </trkpt>
      <trkpt lat="46.43445" lon="5.96488">
        <ele>1093.2</ele>
        <time>2021-10-17T13:26:13Z</time>
      </trkpt>
      <trkpt lat="46.43445" lon="5.96492">
        <ele>1093.4</ele>
        <time>2021-10-17T13:26:14Z</time>
      </trkpt>
      <trkpt lat="46.43446" lon="5.96495">
        <ele>1093.4</ele>
        <time>2021-10-17T13:26:15Z</time>
      </trkpt>
      <trkpt lat="46.43447" lon="5.96499">
        <ele>1093.8</ele>
        <time>2021-10-17T13:26:16Z</time>
      </trkpt>
      <trkpt lat="46.43448" lon="5.96503">
        <ele>1093.8</ele>
        <time>2021-10-17T13:26:17Z</time>
      </trkpt>
      <trkpt lat="46.43449" lon="5.96506">
        <ele>1094.2</ele>
        <time>2021-10-17T13:26:18Z</time>
      </trkpt>
      <trkpt lat="46.4345" lon="5.9651">
        <ele>1094.2</ele>
        <time>2021-10-17T13:26:19Z</time>
      </trkpt>
      <trkpt lat="46.43451" lon="5.96513">
        <ele>1094.4</ele>
        <time>2021-10-17T13:26:20Z</time>
      </trkpt>
      <trkpt lat="46.43452" lon="5.96517">
        <ele>1094.4</ele>
        <time>2021-10-17T13:26:21Z</time>
      </trkpt>
      <trkpt lat="46.43454" lon="5.9652">
        <ele>1094.8</ele>
        <time>2021-10-17T13:26:22Z</time>
      </trkpt>
      <trkpt lat="46.43455" lon="5.96524">
        <ele>1094.8</ele>
        <time>2021-10-17T13:26:23Z</time>
      </trkpt>
      <trkpt lat="46.43457" lon="5.96527">
        <ele>1095</ele>
        <time>2021-10-17T13:26:24Z</time>
      </trkpt>
      <trkpt lat="46.43458" lon="5.9653">
        <ele>1095</ele>
        <time>2021-10-17T13:26:25Z</time>
      </trkpt>
      <trkpt lat="46.4346" lon="5.96533">
        <ele>1095.4</ele>
        <time>2021-10-17T13:26:26Z</time>
      </trkpt>
      <trkpt lat="46.43461" lon="5.96536">
        <ele>1095.4</ele>
        <time>2021-10-17T13:26:27Z</time>
      </trkpt>
      <trkpt lat="46.43463" lon="5.9654">
        <ele>1095.6</ele>
        <time>2021-10-17T13:26:28Z</time>
      </trkpt>
      <trkpt lat="46.43465" lon="5.96542">
        <ele>1095.6</ele>
        <time>2021-10-17T13:26:29Z</time>
      </trkpt>
      <trkpt lat="46.43466" lon="5.96545">
        <ele>1096</ele>
        <time>2021-10-17T13:26:30Z</time>
      </trkpt>
      <trkpt lat="46.43468" lon="5.96548">
        <ele>1096</ele>
        <time>2021-10-17T13:26:31Z</time>
      </trkpt>
      <trkpt lat="46.4347" lon="5.96551">
        <ele>1096.2</ele>
        <time>2021-10-17T13:26:32Z</time>
      </trkpt>
      <trkpt lat="46.43472" lon="5.96554">
        <ele>1096.4</ele>
        <time>2021-10-17T13:26:33Z</time>
      </trkpt>
      <trkpt lat="46.43474" lon="5.96556">
        <ele>1096.4</ele>
        <time>2021-10-17T13:26:34Z</time>
      </trkpt>
      <trkpt lat="46.43476" lon="5.96559">
        <ele>1096.4</ele>
        <time>2021-10-17T13:26:35Z</time>
      </trkpt>
      <trkpt lat="46.43478" lon="5.96562">
        <ele>1096.8</ele>
        <time>2021-10-17T13:26:36Z</time>
      </trkpt>
      <trkpt lat="46.43479" lon="5.96565">
        <ele>1096.8</ele>
        <time>2021-10-17T13:26:37Z</time>
      </trkpt>
      <trkpt lat="46.43481" lon="5.96568">
        <ele>1097</ele>
        <time>2021-10-17T13:26:38Z</time>
      </trkpt>
      <trkpt lat="46.43483" lon="5.96571">
        <ele>1097.4</ele>
        <time>2021-10-17T13:26:39Z</time>
      </trkpt>
      <trkpt lat="46.43485" lon="5.96573">
        <ele>1097.4</ele>
        <time>2021-10-17T13:26:40Z</time>
      </trkpt>
      <trkpt lat="46.43487" lon="5.96576">
        <ele>1097.6</ele>
        <time>2021-10-17T13:26:41Z</time>
      </trkpt>
      <trkpt lat="46.43489" lon="5.96578">
        <ele>1097.6</ele>
        <time>2021-10-17T13:26:42Z</time>
      </trkpt>
      <trkpt lat="46.43491" lon="5.9658">
        <ele>1098</ele>
        <time>2021-10-17T13:26:43Z</time>
      </trkpt>
      <trkpt lat="46.43493" lon="5.96582">
        <ele>1098.2</ele>
        <time>2021-10-17T13:26:44Z</time>
      </trkpt>
      <trkpt lat="46.43495" lon="5.96585">
        <ele>1098.4</ele>
        <time>2021-10-17T13:26:45Z</time>
      </trkpt>
      <trkpt lat="46.43497" lon="5.96587">
        <ele>1098.4</ele>
        <time>2021-10-17T13:26:46Z</time>
      </trkpt>
      <trkpt lat="46.43499" lon="5.96589">
        <ele>1098.8</ele>
        <time>2021-10-17T13:26:47Z</time>
      </trkpt>
      <trkpt lat="46.43501" lon="5.9659">
        <ele>1098.8</ele>
        <time>2021-10-17T13:26:48Z</time>
      </trkpt>
      <trkpt lat="46.43503" lon="5.96592">
        <ele>1099.2</ele>
        <time>2021-10-17T13:26:49Z</time>
      </trkpt>
      <trkpt lat="46.43505" lon="5.96595">
        <ele>1099.2</ele>
        <time>2021-10-17T13:26:50Z</time>
      </trkpt>
      <trkpt lat="46.43507" lon="5.96597">
        <ele>1099.4</ele>
        <time>2021-10-17T13:26:51Z</time>
      </trkpt>
      <trkpt lat="46.4351" lon="5.96599">
        <ele>1099.4</ele>
        <time>2021-10-17T13:26:52Z</time>
      </trkpt>
      <trkpt lat="46.43512" lon="5.96601">
        <ele>1099.6</ele>
        <time>2021-10-17T13:26:53Z</time>
      </trkpt>
      <trkpt lat="46.43514" lon="5.96603">
        <ele>1099.6</ele>
        <time>2021-10-17T13:26:54Z</time>
      </trkpt>
      <trkpt lat="46.43516" lon="5.96604">
        <ele>1099.6</ele>
        <time>2021-10-17T13:26:55Z</time>
      </trkpt>
      <trkpt lat="46.43518" lon="5.96606">
        <ele>1100</ele>
        <time>2021-10-17T13:26:56Z</time>
      </trkpt>
      <trkpt lat="46.43521" lon="5.96608">
        <ele>1100</ele>
        <time>2021-10-17T13:26:57Z</time>
      </trkpt>
      <trkpt lat="46.43523" lon="5.96609">
        <ele>1100.2</ele>
        <time>2021-10-17T13:26:58Z</time>
      </trkpt>
      <trkpt lat="46.43525" lon="5.96611">
        <ele>1100.2</ele>
        <time>2021-10-17T13:26:59Z</time>
      </trkpt>
      <trkpt lat="46.43527" lon="5.96613">
        <ele>1100.4</ele>
        <time>2021-10-17T13:27:00Z</time>
      </trkpt>
      <trkpt lat="46.43529" lon="5.96616">
        <ele>1100.4</ele>
        <time>2021-10-17T13:27:01Z</time>
      </trkpt>
      <trkpt lat="46.43532" lon="5.96618">
        <ele>1100.6</ele>
        <time>2021-10-17T13:27:02Z</time>
      </trkpt>
      <trkpt lat="46.43534" lon="5.9662">
        <ele>1100.6</ele>
        <time>2021-10-17T13:27:03Z</time>
      </trkpt>
      <trkpt lat="46.43536" lon="5.96622">
        <ele>1100.8</ele>
        <time>2021-10-17T13:27:04Z</time>
      </trkpt>
      <trkpt lat="46.43538" lon="5.96624">
        <ele>1100.8</ele>
        <time>2021-10-17T13:27:05Z</time>
      </trkpt>
      <trkpt lat="46.4354" lon="5.96626">
        <ele>1101.2</ele>
        <time>2021-10-17T13:27:06Z</time>
      </trkpt>
      <trkpt lat="46.43543" lon="5.96629">
        <ele>1101.4</ele>
        <time>2021-10-17T13:27:07Z</time>
      </trkpt>
      <trkpt lat="46.43545" lon="5.96631">
        <ele>1101.4</ele>
        <time>2021-10-17T13:27:08Z</time>
      </trkpt>
      <trkpt lat="46.43548" lon="5.96634">
        <ele>1101.6</ele>
        <time>2021-10-17T13:27:09Z</time>
      </trkpt>
      <trkpt lat="46.4355" lon="5.96636">
        <ele>1101.6</ele>
        <time>2021-10-17T13:27:10Z</time>
      </trkpt>
      <trkpt lat="46.43552" lon="5.96639">
        <ele>1102</ele>
        <time>2021-10-17T13:27:11Z</time>
      </trkpt>
      <trkpt lat="46.43555" lon="5.96642">
        <ele>1102</ele>
        <time>2021-10-17T13:27:12Z</time>
      </trkpt>
      <trkpt lat="46.43557" lon="5.96645">
        <ele>1102</ele>
        <time>2021-10-17T13:27:13Z</time>
      </trkpt>
      <trkpt lat="46.43559" lon="5.96647">
        <ele>1102.4</ele>
        <time>2021-10-17T13:27:14Z</time>
      </trkpt>
      <trkpt lat="46.43562" lon="5.9665">
        <ele>1102.4</ele>
        <time>2021-10-17T13:27:15Z</time>
      </trkpt>
      <trkpt lat="46.43564" lon="5.96652">
        <ele>1102.6</ele>
        <time>2021-10-17T13:27:16Z</time>
      </trkpt>
      <trkpt lat="46.43566" lon="5.96655">
        <ele>1102.6</ele>
        <time>2021-10-17T13:27:17Z</time>
      </trkpt>
      <trkpt lat="46.43568" lon="5.96657">
        <ele>1103</ele>
        <time>2021-10-17T13:27:18Z</time>
      </trkpt>
      <trkpt lat="46.43571" lon="5.9666">
        <ele>1103</ele>
        <time>2021-10-17T13:27:19Z</time>
      </trkpt>
      <trkpt lat="46.43573" lon="5.96662">
        <ele>1103.2</ele>
        <time>2021-10-17T13:27:20Z</time>
      </trkpt>
      <trkpt lat="46.43576" lon="5.96665">
        <ele>1103.2</ele>
        <time>2021-10-17T13:27:21Z</time>
      </trkpt>
      <trkpt lat="46.43578" lon="5.96667">
        <ele>1103.6</ele>
        <time>2021-10-17T13:27:22Z</time>
      </trkpt>
      <trkpt lat="46.4358" lon="5.9667">
        <ele>1103.8</ele>
        <time>2021-10-17T13:27:23Z</time>
      </trkpt>
      <trkpt lat="46.43582" lon="5.96672">
        <ele>1103.8</ele>
        <time>2021-10-17T13:27:24Z</time>
      </trkpt>
      <trkpt lat="46.43585" lon="5.96674">
        <ele>1104.2</ele>
        <time>2021-10-17T13:27:25Z</time>
      </trkpt>
      <trkpt lat="46.43587" lon="5.96677">
        <ele>1104.2</ele>
        <time>2021-10-17T13:27:26Z</time>
      </trkpt>
      <trkpt lat="46.4359" lon="5.96679">
        <ele>1104.4</ele>
        <time>2021-10-17T13:27:27Z</time>
      </trkpt>
      <trkpt lat="46.43592" lon="5.96681">
        <ele>1104.4</ele>
        <time>2021-10-17T13:27:28Z</time>
      </trkpt>
      <trkpt lat="46.43595" lon="5.96682">
        <ele>1104.8</ele>
        <time>2021-10-17T13:27:29Z</time>
      </trkpt>
      <trkpt lat="46.43597" lon="5.96685">
        <ele>1104.8</ele>
        <time>2021-10-17T13:27:30Z</time>
      </trkpt>
      <trkpt lat="46.436" lon="5.96687">
        <ele>1105</ele>
        <time>2021-10-17T13:27:31Z</time>
      </trkpt>
      <trkpt lat="46.43602" lon="5.96689">
        <ele>1105</ele>
        <time>2021-10-17T13:27:32Z</time>
      </trkpt>
      <trkpt lat="46.43604" lon="5.96691">
        <ele>1105.4</ele>
        <time>2021-10-17T13:27:33Z</time>
      </trkpt>
      <trkpt lat="46.43607" lon="5.96693">
        <ele>1105.4</ele>
        <time>2021-10-17T13:27:34Z</time>
      </trkpt>
      <trkpt lat="46.4361" lon="5.96695">
        <ele>1105.6</ele>
        <time>2021-10-17T13:27:35Z</time>
      </trkpt>
      <trkpt lat="46.43612" lon="5.96696">
        <ele>1105.6</ele>
        <time>2021-10-17T13:27:36Z</time>
      </trkpt>
      <trkpt lat="46.43615" lon="5.96697">
        <ele>1105.8</ele>
        <time>2021-10-17T13:27:37Z</time>
      </trkpt>
      <trkpt lat="46.43618" lon="5.96698">
        <ele>1105.8</ele>
        <time>2021-10-17T13:27:38Z</time>
      </trkpt>
      <trkpt lat="46.4362" lon="5.96699">
        <ele>1106.2</ele>
        <time>2021-10-17T13:27:39Z</time>
      </trkpt>
      <trkpt lat="46.43623" lon="5.967">
        <ele>1106.2</ele>
        <time>2021-10-17T13:27:40Z</time>
      </trkpt>
      <trkpt lat="46.43626" lon="5.96701">
        <ele>1106.4</ele>
        <time>2021-10-17T13:27:41Z</time>
      </trkpt>
      <trkpt lat="46.43628" lon="5.96702">
        <ele>1106.4</ele>
        <time>2021-10-17T13:27:42Z</time>
      </trkpt>
      <trkpt lat="46.4363" lon="5.96703">
        <ele>1106.8</ele>
        <time>2021-10-17T13:27:43Z</time>
      </trkpt>
      <trkpt lat="46.43633" lon="5.96703">
        <ele>1106.8</ele>
        <time>2021-10-17T13:27:44Z</time>
      </trkpt>
      <trkpt lat="46.43635" lon="5.96703">
        <ele>1107</ele>
        <time>2021-10-17T13:27:45Z</time>
      </trkpt>
      <trkpt lat="46.43638" lon="5.96703">
        <ele>1107</ele>
        <time>2021-10-17T13:27:46Z</time>
      </trkpt>
      <trkpt lat="46.4364" lon="5.96704">
        <ele>1107.2</ele>
        <time>2021-10-17T13:27:47Z</time>
      </trkpt>
      <trkpt lat="46.43643" lon="5.96705">
        <ele>1107.2</ele>
        <time>2021-10-17T13:27:48Z</time>
      </trkpt>
      <trkpt lat="46.43645" lon="5.96705">
        <ele>1107.6</ele>
        <time>2021-10-17T13:27:49Z</time>
      </trkpt>
      <trkpt lat="46.43648" lon="5.96704">
        <ele>1107.6</ele>
        <time>2021-10-17T13:27:50Z</time>
      </trkpt>
      <trkpt lat="46.43651" lon="5.96704">
        <ele>1107.8</ele>
        <time>2021-10-17T13:27:51Z</time>
      </trkpt>
      <trkpt lat="46.43654" lon="5.96703">
        <ele>1107.8</ele>
        <time>2021-10-17T13:27:52Z</time>
      </trkpt>
      <trkpt lat="46.43657" lon="5.96702">
        <ele>1107.8</ele>
        <time>2021-10-17T13:27:53Z</time>
      </trkpt>
      <trkpt lat="46.43661" lon="5.96702">
        <ele>1108.2</ele>
        <time>2021-10-17T13:27:54Z</time>
      </trkpt>
      <trkpt lat="46.43664" lon="5.96702">
        <ele>1108.2</ele>
        <time>2021-10-17T13:27:55Z</time>
      </trkpt>
      <trkpt lat="46.43667" lon="5.96702">
        <ele>1108.4</ele>
        <time>2021-10-17T13:27:56Z</time>
      </trkpt>
      <trkpt lat="46.43671" lon="5.96701">
        <ele>1108.4</ele>
        <time>2021-10-17T13:27:57Z</time>
      </trkpt>
      <trkpt lat="46.43674" lon="5.96701">
        <ele>1108.4</ele>
        <time>2021-10-17T13:27:58Z</time>
      </trkpt>
      <trkpt lat="46.43676" lon="5.96701">
        <ele>1108.8</ele>
        <time>2021-10-17T13:27:59Z</time>
      </trkpt>
      <trkpt lat="46.43679" lon="5.967">
        <ele>1108.8</ele>
        <time>2021-10-17T13:28:00Z</time>
      </trkpt>
      <trkpt lat="46.43682" lon="5.967">
        <ele>1109</ele>
        <time>2021-10-17T13:28:01Z</time>
      </trkpt>
      <trkpt lat="46.43685" lon="5.967">
        <ele>1109</ele>
        <time>2021-10-17T13:28:02Z</time>
      </trkpt>
      <trkpt lat="46.43687" lon="5.96699">
        <ele>1109.4</ele>
        <time>2021-10-17T13:28:03Z</time>
      </trkpt>
      <trkpt lat="46.4369" lon="5.96699">
        <ele>1109.4</ele>
        <time>2021-10-17T13:28:04Z</time>
      </trkpt>
      <trkpt lat="46.43693" lon="5.96698">
        <ele>1109.6</ele>
        <time>2021-10-17T13:28:05Z</time>
      </trkpt>
      <trkpt lat="46.43696" lon="5.96698">
        <ele>1109.6</ele>
        <time>2021-10-17T13:28:06Z</time>
      </trkpt>
      <trkpt lat="46.43699" lon="5.96698">
        <ele>1109.8</ele>
        <time>2021-10-17T13:28:07Z</time>
      </trkpt>
      <trkpt lat="46.43702" lon="5.96697">
        <ele>1109.8</ele>
        <time>2021-10-17T13:28:08Z</time>
      </trkpt>
      <trkpt lat="46.43706" lon="5.96697">
        <ele>1110.2</ele>
        <time>2021-10-17T13:28:09Z</time>
      </trkpt>
      <trkpt lat="46.43709" lon="5.96697">
        <ele>1110.2</ele>
        <time>2021-10-17T13:28:10Z</time>
      </trkpt>
      <trkpt lat="46.43713" lon="5.96697">
        <ele>1110.4</ele>
        <time>2021-10-17T13:28:11Z</time>
      </trkpt>
      <trkpt lat="46.43716" lon="5.96697">
        <ele>1110.4</ele>
        <time>2021-10-17T13:28:12Z</time>
      </trkpt>
      <trkpt lat="46.4372" lon="5.96698">
        <ele>1110.6</ele>
        <time>2021-10-17T13:28:13Z</time>
      </trkpt>
      <trkpt lat="46.43723" lon="5.96698">
        <ele>1110.6</ele>
        <time>2021-10-17T13:28:14Z</time>
      </trkpt>
      <trkpt lat="46.43726" lon="5.96699">
        <ele>1110.8</ele>
        <time>2021-10-17T13:28:15Z</time>
      </trkpt>
      <trkpt lat="46.43729" lon="5.967">
        <ele>1110.8</ele>
        <time>2021-10-17T13:28:16Z</time>
      </trkpt>
      <trkpt lat="46.43732" lon="5.96701">
        <ele>1111.2</ele>
        <time>2021-10-17T13:28:17Z</time>
      </trkpt>
      <trkpt lat="46.43735" lon="5.96703">
        <ele>1111.2</ele>
        <time>2021-10-17T13:28:18Z</time>
      </trkpt>
      <trkpt lat="46.43738" lon="5.96706">
        <ele>1111.6</ele>
        <time>2021-10-17T13:28:19Z</time>
      </trkpt>
      <trkpt lat="46.43741" lon="5.96709">
        <ele>1111.6</ele>
        <time>2021-10-17T13:28:20Z</time>
      </trkpt>
      <trkpt lat="46.43744" lon="5.96712">
        <ele>1111.8</ele>
        <time>2021-10-17T13:28:21Z</time>
      </trkpt>
      <trkpt lat="46.43747" lon="5.96715">
        <ele>1111.8</ele>
        <time>2021-10-17T13:28:22Z</time>
      </trkpt>
      <trkpt lat="46.43749" lon="5.96717">
        <ele>1112.2</ele>
        <time>2021-10-17T13:28:23Z</time>
      </trkpt>
      <trkpt lat="46.43752" lon="5.96719">
        <ele>1112.4</ele>
        <time>2021-10-17T13:28:24Z</time>
      </trkpt>
      <trkpt lat="46.43755" lon="5.96721">
        <ele>1112.6</ele>
        <time>2021-10-17T13:28:25Z</time>
      </trkpt>
      <trkpt lat="46.43757" lon="5.96724">
        <ele>1113</ele>
        <time>2021-10-17T13:28:26Z</time>
      </trkpt>
      <trkpt lat="46.43759" lon="5.96726">
        <ele>1113</ele>
        <time>2021-10-17T13:28:27Z</time>
      </trkpt>
      <trkpt lat="46.43761" lon="5.96728">
        <ele>1113.2</ele>
        <time>2021-10-17T13:28:28Z</time>
      </trkpt>
      <trkpt lat="46.43764" lon="5.96731">
        <ele>1113.4</ele>
        <time>2021-10-17T13:28:29Z</time>
      </trkpt>
      <trkpt lat="46.43766" lon="5.96733">
        <ele>1113.4</ele>
        <time>2021-10-17T13:28:30Z</time>
      </trkpt>
      <trkpt lat="46.43768" lon="5.96735">
        <ele>1113.6</ele>
        <time>2021-10-17T13:28:31Z</time>
      </trkpt>
      <trkpt lat="46.4377" lon="5.96738">
        <ele>1113.6</ele>
        <time>2021-10-17T13:28:32Z</time>
      </trkpt>
      <trkpt lat="46.43772" lon="5.9674">
        <ele>1114</ele>
        <time>2021-10-17T13:28:33Z</time>
      </trkpt>
      <trkpt lat="46.43775" lon="5.96742">
        <ele>1114.2</ele>
        <time>2021-10-17T13:28:34Z</time>
      </trkpt>
      <trkpt lat="46.43777" lon="5.96744">
        <ele>1114.6</ele>
        <time>2021-10-17T13:28:35Z</time>
      </trkpt>
      <trkpt lat="46.43779" lon="5.96747">
        <ele>1114.6</ele>
        <time>2021-10-17T13:28:36Z</time>
      </trkpt>
      <trkpt lat="46.43781" lon="5.9675">
        <ele>1114.8</ele>
        <time>2021-10-17T13:28:37Z</time>
      </trkpt>
      <trkpt lat="46.43783" lon="5.96753">
        <ele>1115</ele>
        <time>2021-10-17T13:28:38Z</time>
      </trkpt>
      <trkpt lat="46.43785" lon="5.96755">
        <ele>1115</ele>
        <time>2021-10-17T13:28:39Z</time>
      </trkpt>
      <trkpt lat="46.43788" lon="5.96757">
        <ele>1115.4</ele>
        <time>2021-10-17T13:28:40Z</time>
      </trkpt>
      <trkpt lat="46.4379" lon="5.9676">
        <ele>1115.4</ele>
        <time>2021-10-17T13:28:41Z</time>
      </trkpt>
      <trkpt lat="46.43792" lon="5.96762">
        <ele>1115.4</ele>
        <time>2021-10-17T13:28:42Z</time>
      </trkpt>
      <trkpt lat="46.43794" lon="5.96765">
        <ele>1115.6</ele>
        <time>2021-10-17T13:28:43Z</time>
      </trkpt>
      <trkpt lat="46.43796" lon="5.96767">
        <ele>1115.6</ele>
        <time>2021-10-17T13:28:44Z</time>
      </trkpt>
      <trkpt lat="46.43799" lon="5.9677">
        <ele>1116</ele>
        <time>2021-10-17T13:28:45Z</time>
      </trkpt>
      <trkpt lat="46.43801" lon="5.96773">
        <ele>1116</ele>
        <time>2021-10-17T13:28:46Z</time>
      </trkpt>
      <trkpt lat="46.43802" lon="5.96776">
        <ele>1116.2</ele>
        <time>2021-10-17T13:28:47Z</time>
      </trkpt>
      <trkpt lat="46.43804" lon="5.96779">
        <ele>1116.2</ele>
        <time>2021-10-17T13:28:48Z</time>
      </trkpt>
      <trkpt lat="46.43806" lon="5.96782">
        <ele>1116.6</ele>
        <time>2021-10-17T13:28:49Z</time>
      </trkpt>
      <trkpt lat="46.43807" lon="5.96784">
        <ele>1116.6</ele>
        <time>2021-10-17T13:28:50Z</time>
      </trkpt>
      <trkpt lat="46.43809" lon="5.96787">
        <ele>1116.8</ele>
        <time>2021-10-17T13:28:51Z</time>
      </trkpt>
      <trkpt lat="46.43811" lon="5.9679">
        <ele>1116.8</ele>
        <time>2021-10-17T13:28:52Z</time>
      </trkpt>
      <trkpt lat="46.43813" lon="5.96793">
        <ele>1117.2</ele>
        <time>2021-10-17T13:28:53Z</time>
      </trkpt>
      <trkpt lat="46.43815" lon="5.96797">
        <ele>1117.2</ele>
        <time>2021-10-17T13:28:54Z</time>
      </trkpt>
      <trkpt lat="46.43818" lon="5.96801">
        <ele>1117.4</ele>
        <time>2021-10-17T13:28:55Z</time>
      </trkpt>
      <trkpt lat="46.43819" lon="5.96805">
        <ele>1117.4</ele>
        <time>2021-10-17T13:28:56Z</time>
      </trkpt>
      <trkpt lat="46.43821" lon="5.96809">
        <ele>1117.8</ele>
        <time>2021-10-17T13:28:57Z</time>
      </trkpt>
      <trkpt lat="46.43822" lon="5.96813">
        <ele>1117.8</ele>
        <time>2021-10-17T13:28:58Z</time>
      </trkpt>
      <trkpt lat="46.43824" lon="5.96816">
        <ele>1118.2</ele>
        <time>2021-10-17T13:28:59Z</time>
      </trkpt>
      <trkpt lat="46.43825" lon="5.96819">
        <ele>1118.4</ele>
        <time>2021-10-17T13:29:00Z</time>
      </trkpt>
      <trkpt lat="46.43827" lon="5.96823">
        <ele>1118.4</ele>
        <time>2021-10-17T13:29:01Z</time>
      </trkpt>
      <trkpt lat="46.43828" lon="5.96826">
        <ele>1118.6</ele>
        <time>2021-10-17T13:29:02Z</time>
      </trkpt>
      <trkpt lat="46.43829" lon="5.9683">
        <ele>1119</ele>
        <time>2021-10-17T13:29:03Z</time>
      </trkpt>
      <trkpt lat="46.43831" lon="5.96833">
        <ele>1119</ele>
        <time>2021-10-17T13:29:04Z</time>
      </trkpt>
      <trkpt lat="46.43833" lon="5.96837">
        <ele>1119.2</ele>
        <time>2021-10-17T13:29:05Z</time>
      </trkpt>
      <trkpt lat="46.43834" lon="5.96841">
        <ele>1119.2</ele>
        <time>2021-10-17T13:29:06Z</time>
      </trkpt>
      <trkpt lat="46.43836" lon="5.96845">
        <ele>1119.6</ele>
        <time>2021-10-17T13:29:07Z</time>
      </trkpt>
      <trkpt lat="46.43837" lon="5.96849">
        <ele>1119.6</ele>
        <time>2021-10-17T13:29:08Z</time>
      </trkpt>
      <trkpt lat="46.43839" lon="5.96853">
        <ele>1119.8</ele>
        <time>2021-10-17T13:29:09Z</time>
      </trkpt>
      <trkpt lat="46.4384" lon="5.96857">
        <ele>1119.8</ele>
        <time>2021-10-17T13:29:10Z</time>
      </trkpt>
      <trkpt lat="46.43842" lon="5.96861">
        <ele>1120</ele>
        <time>2021-10-17T13:29:11Z</time>
      </trkpt>
      <trkpt lat="46.43843" lon="5.96865">
        <ele>1120</ele>
        <time>2021-10-17T13:29:12Z</time>
      </trkpt>
      <trkpt lat="46.43844" lon="5.96869">
        <ele>1120.4</ele>
        <time>2021-10-17T13:29:13Z</time>
      </trkpt>
      <trkpt lat="46.43845" lon="5.96872">
        <ele>1120.4</ele>
        <time>2021-10-17T13:29:14Z</time>
      </trkpt>
      <trkpt lat="46.43846" lon="5.96876">
        <ele>1120.6</ele>
        <time>2021-10-17T13:29:15Z</time>
      </trkpt>
      <trkpt lat="46.43847" lon="5.9688">
        <ele>1120.6</ele>
        <time>2021-10-17T13:29:16Z</time>
      </trkpt>
      <trkpt lat="46.43848" lon="5.96884">
        <ele>1121</ele>
        <time>2021-10-17T13:29:17Z</time>
      </trkpt>
      <trkpt lat="46.4385" lon="5.96888">
        <ele>1121.2</ele>
        <time>2021-10-17T13:29:18Z</time>
      </trkpt>
      <trkpt lat="46.43851" lon="5.96892">
        <ele>1121.2</ele>
        <time>2021-10-17T13:29:19Z</time>
      </trkpt>
      <trkpt lat="46.43852" lon="5.96896">
        <ele>1121.4</ele>
        <time>2021-10-17T13:29:20Z</time>
      </trkpt>
      <trkpt lat="46.43854" lon="5.969">
        <ele>1121.4</ele>
        <time>2021-10-17T13:29:21Z</time>
      </trkpt>
      <trkpt lat="46.43855" lon="5.96903">
        <ele>1121.8</ele>
        <time>2021-10-17T13:29:22Z</time>
      </trkpt>
      <trkpt lat="46.43856" lon="5.96907">
        <ele>1121.8</ele>
        <time>2021-10-17T13:29:23Z</time>
      </trkpt>
      <trkpt lat="46.43858" lon="5.96911">
        <ele>1122</ele>
        <time>2021-10-17T13:29:24Z</time>
      </trkpt>
      <trkpt lat="46.43859" lon="5.96914">
        <ele>1122</ele>
        <time>2021-10-17T13:29:25Z</time>
      </trkpt>
      <trkpt lat="46.43861" lon="5.96918">
        <ele>1122.4</ele>
        <time>2021-10-17T13:29:26Z</time>
      </trkpt>
      <trkpt lat="46.43862" lon="5.96922">
        <ele>1122.4</ele>
        <time>2021-10-17T13:29:27Z</time>
      </trkpt>
      <trkpt lat="46.43864" lon="5.96926">
        <ele>1122.6</ele>
        <time>2021-10-17T13:29:28Z</time>
      </trkpt>
      <trkpt lat="46.43866" lon="5.96929">
        <ele>1122.6</ele>
        <time>2021-10-17T13:29:29Z</time>
      </trkpt>
      <trkpt lat="46.43868" lon="5.96932">
        <ele>1122.6</ele>
        <time>2021-10-17T13:29:30Z</time>
      </trkpt>
      <trkpt lat="46.43869" lon="5.96936">
        <ele>1123</ele>
        <time>2021-10-17T13:29:31Z</time>
      </trkpt>
      <trkpt lat="46.43871" lon="5.96939">
        <ele>1123</ele>
        <time>2021-10-17T13:29:32Z</time>
      </trkpt>
      <trkpt lat="46.43873" lon="5.96942">
        <ele>1123.4</ele>
        <time>2021-10-17T13:29:33Z</time>
      </trkpt>
      <trkpt lat="46.43874" lon="5.96946">
        <ele>1123.4</ele>
        <time>2021-10-17T13:29:34Z</time>
      </trkpt>
      <trkpt lat="46.43876" lon="5.96949">
        <ele>1123.6</ele>
        <time>2021-10-17T13:29:35Z</time>
      </trkpt>
      <trkpt lat="46.43877" lon="5.96952">
        <ele>1123.6</ele>
        <time>2021-10-17T13:29:36Z</time>
      </trkpt>
      <trkpt lat="46.43879" lon="5.96956">
        <ele>1124</ele>
        <time>2021-10-17T13:29:37Z</time>
      </trkpt>
      <trkpt lat="46.4388" lon="5.96959">
        <ele>1124</ele>
        <time>2021-10-17T13:29:38Z</time>
      </trkpt>
      <trkpt lat="46.43882" lon="5.96962">
        <ele>1124.2</ele>
        <time>2021-10-17T13:29:39Z</time>
      </trkpt>
      <trkpt lat="46.43884" lon="5.96964">
        <ele>1124.6</ele>
        <time>2021-10-17T13:29:40Z</time>
      </trkpt>
      <trkpt lat="46.43886" lon="5.96967">
        <ele>1124.8</ele>
        <time>2021-10-17T13:29:41Z</time>
      </trkpt>
      <trkpt lat="46.43888" lon="5.9697">
        <ele>1125</ele>
        <time>2021-10-17T13:29:42Z</time>
      </trkpt>
      <trkpt lat="46.4389" lon="5.96973">
        <ele>1125</ele>
        <time>2021-10-17T13:29:43Z</time>
      </trkpt>
      <trkpt lat="46.43892" lon="5.96976">
        <ele>1125.4</ele>
        <time>2021-10-17T13:29:44Z</time>
      </trkpt>
      <trkpt lat="46.43894" lon="5.96979">
        <ele>1125.4</ele>
        <time>2021-10-17T13:29:45Z</time>
      </trkpt>
      <trkpt lat="46.43896" lon="5.96982">
        <ele>1125.6</ele>
        <time>2021-10-17T13:29:46Z</time>
      </trkpt>
      <trkpt lat="46.43899" lon="5.96985">
        <ele>1125.6</ele>
        <time>2021-10-17T13:29:47Z</time>
      </trkpt>
      <trkpt lat="46.43901" lon="5.96988">
        <ele>1126</ele>
        <time>2021-10-17T13:29:48Z</time>
      </trkpt>
      <trkpt lat="46.43903" lon="5.9699">
        <ele>1126</ele>
        <time>2021-10-17T13:29:49Z</time>
      </trkpt>
      <trkpt lat="46.43906" lon="5.96992">
        <ele>1126.4</ele>
        <time>2021-10-17T13:29:50Z</time>
      </trkpt>
      <trkpt lat="46.43908" lon="5.96995">
        <ele>1126.4</ele>
        <time>2021-10-17T13:29:51Z</time>
      </trkpt>
      <trkpt lat="46.4391" lon="5.96997">
        <ele>1126.6</ele>
        <time>2021-10-17T13:29:52Z</time>
      </trkpt>
      <trkpt lat="46.43912" lon="5.97001">
        <ele>1126.6</ele>
        <time>2021-10-17T13:29:53Z</time>
      </trkpt>
      <trkpt lat="46.43915" lon="5.97004">
        <ele>1127</ele>
        <time>2021-10-17T13:29:54Z</time>
      </trkpt>
      <trkpt lat="46.43917" lon="5.97006">
        <ele>1127</ele>
        <time>2021-10-17T13:29:55Z</time>
      </trkpt>
      <trkpt lat="46.43919" lon="5.97009">
        <ele>1127.4</ele>
        <time>2021-10-17T13:29:56Z</time>
      </trkpt>
      <trkpt lat="46.43922" lon="5.97012">
        <ele>1127.4</ele>
        <time>2021-10-17T13:29:57Z</time>
      </trkpt>
      <trkpt lat="46.43924" lon="5.97014">
        <ele>1127.6</ele>
        <time>2021-10-17T13:29:58Z</time>
      </trkpt>
      <trkpt lat="46.43926" lon="5.97016">
        <ele>1127.6</ele>
        <time>2021-10-17T13:29:59Z</time>
      </trkpt>
      <trkpt lat="46.43929" lon="5.97019">
        <ele>1128</ele>
        <time>2021-10-17T13:30:00Z</time>
      </trkpt>
      <trkpt lat="46.43931" lon="5.97021">
        <ele>1128</ele>
        <time>2021-10-17T13:30:01Z</time>
      </trkpt>
      <trkpt lat="46.43933" lon="5.97024">
        <ele>1128.4</ele>
        <time>2021-10-17T13:30:02Z</time>
      </trkpt>
      <trkpt lat="46.43936" lon="5.97027">
        <ele>1128.4</ele>
        <time>2021-10-17T13:30:03Z</time>
      </trkpt>
      <trkpt lat="46.43938" lon="5.9703">
        <ele>1128.6</ele>
        <time>2021-10-17T13:30:04Z</time>
      </trkpt>
      <trkpt lat="46.4394" lon="5.97032">
        <ele>1128.6</ele>
        <time>2021-10-17T13:30:05Z</time>
      </trkpt>
      <trkpt lat="46.43942" lon="5.97035">
        <ele>1128.8</ele>
        <time>2021-10-17T13:30:06Z</time>
      </trkpt>
      <trkpt lat="46.43945" lon="5.97037">
        <ele>1128.8</ele>
        <time>2021-10-17T13:30:07Z</time>
      </trkpt>
      <trkpt lat="46.43947" lon="5.97039">
        <ele>1129.2</ele>
        <time>2021-10-17T13:30:08Z</time>
      </trkpt>
      <trkpt lat="46.4395" lon="5.97042">
        <ele>1129.2</ele>
        <time>2021-10-17T13:30:09Z</time>
      </trkpt>
      <trkpt lat="46.43952" lon="5.97045">
        <ele>1129.4</ele>
        <time>2021-10-17T13:30:10Z</time>
      </trkpt>
      <trkpt lat="46.43954" lon="5.97047">
        <ele>1129.4</ele>
        <time>2021-10-17T13:30:11Z</time>
      </trkpt>
      <trkpt lat="46.43957" lon="5.9705">
        <ele>1129.6</ele>
        <time>2021-10-17T13:30:12Z</time>
      </trkpt>
      <trkpt lat="46.43959" lon="5.97053">
        <ele>1129.6</ele>
        <time>2021-10-17T13:30:13Z</time>
      </trkpt>
      <trkpt lat="46.43962" lon="5.97055">
        <ele>1130</ele>
        <time>2021-10-17T13:30:14Z</time>
      </trkpt>
      <trkpt lat="46.43964" lon="5.97058">
        <ele>1130</ele>
        <time>2021-10-17T13:30:15Z</time>
      </trkpt>
      <trkpt lat="46.43966" lon="5.97061">
        <ele>1130.4</ele>
        <time>2021-10-17T13:30:16Z</time>
      </trkpt>
      <trkpt lat="46.43969" lon="5.97064">
        <ele>1130.6</ele>
        <time>2021-10-17T13:30:17Z</time>
      </trkpt>
      <trkpt lat="46.43971" lon="5.97067">
        <ele>1130.6</ele>
        <time>2021-10-17T13:30:18Z</time>
      </trkpt>
      <trkpt lat="46.43974" lon="5.9707">
        <ele>1131</ele>
        <time>2021-10-17T13:30:19Z</time>
      </trkpt>
      <trkpt lat="46.43976" lon="5.97073">
        <ele>1131</ele>
        <time>2021-10-17T13:30:20Z</time>
      </trkpt>
      <trkpt lat="46.43978" lon="5.97076">
        <ele>1131.4</ele>
        <time>2021-10-17T13:30:21Z</time>
      </trkpt>
      <trkpt lat="46.43981" lon="5.97079">
        <ele>1131.4</ele>
        <time>2021-10-17T13:30:22Z</time>
      </trkpt>
      <trkpt lat="46.43983" lon="5.97082">
        <ele>1131.8</ele>
        <time>2021-10-17T13:30:23Z</time>
      </trkpt>
      <trkpt lat="46.43985" lon="5.97085">
        <ele>1131.8</ele>
        <time>2021-10-17T13:30:24Z</time>
      </trkpt>
      <trkpt lat="46.43986" lon="5.97089">
        <ele>1132</ele>
        <time>2021-10-17T13:30:25Z</time>
      </trkpt>
      <trkpt lat="46.43988" lon="5.97092">
        <ele>1132</ele>
        <time>2021-10-17T13:30:26Z</time>
      </trkpt>
      <trkpt lat="46.4399" lon="5.97096">
        <ele>1132.4</ele>
        <time>2021-10-17T13:30:27Z</time>
      </trkpt>
      <trkpt lat="46.43992" lon="5.971">
        <ele>1132.4</ele>
        <time>2021-10-17T13:30:28Z</time>
      </trkpt>
      <trkpt lat="46.43993" lon="5.97103">
        <ele>1132.4</ele>
        <time>2021-10-17T13:30:29Z</time>
      </trkpt>
      <trkpt lat="46.43995" lon="5.97107">
        <ele>1132.6</ele>
        <time>2021-10-17T13:30:30Z</time>
      </trkpt>
      <trkpt lat="46.43996" lon="5.97111">
        <ele>1132.6</ele>
        <time>2021-10-17T13:30:31Z</time>
      </trkpt>
      <trkpt lat="46.43997" lon="5.97116">
        <ele>1133</ele>
        <time>2021-10-17T13:30:32Z</time>
      </trkpt>
      <trkpt lat="46.43998" lon="5.9712">
        <ele>1133</ele>
        <time>2021-10-17T13:30:33Z</time>
      </trkpt>
      <trkpt lat="46.43999" lon="5.97124">
        <ele>1133.4</ele>
        <time>2021-10-17T13:30:34Z</time>
      </trkpt>
      <trkpt lat="46.44" lon="5.97128">
        <ele>1133.4</ele>
        <time>2021-10-17T13:30:35Z</time>
      </trkpt>
      <trkpt lat="46.44001" lon="5.97133">
        <ele>1133.6</ele>
        <time>2021-10-17T13:30:36Z</time>
      </trkpt>
      <trkpt lat="46.44002" lon="5.97137">
        <ele>1133.6</ele>
        <time>2021-10-17T13:30:37Z</time>
      </trkpt>
      <trkpt lat="46.44003" lon="5.97141">
        <ele>1133.8</ele>
        <time>2021-10-17T13:30:38Z</time>
      </trkpt>
      <trkpt lat="46.44004" lon="5.97145">
        <ele>1133.8</ele>
        <time>2021-10-17T13:30:39Z</time>
      </trkpt>
      <trkpt lat="46.44004" lon="5.9715">
        <ele>1134.2</ele>
        <time>2021-10-17T13:30:40Z</time>
      </trkpt>
      <trkpt lat="46.44005" lon="5.97154">
        <ele>1134.2</ele>
        <time>2021-10-17T13:30:41Z</time>
      </trkpt>
      <trkpt lat="46.44006" lon="5.97159">
        <ele>1134.4</ele>
        <time>2021-10-17T13:30:42Z</time>
      </trkpt>
      <trkpt lat="46.44006" lon="5.97163">
        <ele>1134.4</ele>
        <time>2021-10-17T13:30:43Z</time>
      </trkpt>
      <trkpt lat="46.44007" lon="5.97167">
        <ele>1134.8</ele>
        <time>2021-10-17T13:30:44Z</time>
      </trkpt>
      <trkpt lat="46.44007" lon="5.97172">
        <ele>1134.8</ele>
        <time>2021-10-17T13:30:45Z</time>
      </trkpt>
      <trkpt lat="46.44008" lon="5.97176">
        <ele>1135</ele>
        <time>2021-10-17T13:30:46Z</time>
      </trkpt>
      <trkpt lat="46.44008" lon="5.97181">
        <ele>1135</ele>
        <time>2021-10-17T13:30:47Z</time>
      </trkpt>
      <trkpt lat="46.44009" lon="5.97185">
        <ele>1135.2</ele>
        <time>2021-10-17T13:30:48Z</time>
      </trkpt>
      <trkpt lat="46.4401" lon="5.9719">
        <ele>1135.2</ele>
        <time>2021-10-17T13:30:49Z</time>
      </trkpt>
      <trkpt lat="46.4401" lon="5.97194">
        <ele>1135.6</ele>
        <time>2021-10-17T13:30:50Z</time>
      </trkpt>
      <trkpt lat="46.44011" lon="5.97199">
        <ele>1135.6</ele>
        <time>2021-10-17T13:30:51Z</time>
      </trkpt>
      <trkpt lat="46.44012" lon="5.97203">
        <ele>1135.8</ele>
        <time>2021-10-17T13:30:52Z</time>
      </trkpt>
      <trkpt lat="46.44014" lon="5.97207">
        <ele>1135.8</ele>
        <time>2021-10-17T13:30:53Z</time>
      </trkpt>
      <trkpt lat="46.44015" lon="5.97211">
        <ele>1136.2</ele>
        <time>2021-10-17T13:30:54Z</time>
      </trkpt>
      <trkpt lat="46.44017" lon="5.97215">
        <ele>1136.2</ele>
        <time>2021-10-17T13:30:55Z</time>
      </trkpt>
      <trkpt lat="46.44018" lon="5.97219">
        <ele>1136.4</ele>
        <time>2021-10-17T13:30:56Z</time>
      </trkpt>
      <trkpt lat="46.4402" lon="5.97223">
        <ele>1136.4</ele>
        <time>2021-10-17T13:30:57Z</time>
      </trkpt>
      <trkpt lat="46.44022" lon="5.97227">
        <ele>1136.6</ele>
        <time>2021-10-17T13:30:58Z</time>
      </trkpt>
      <trkpt lat="46.44023" lon="5.97231">
        <ele>1136.6</ele>
        <time>2021-10-17T13:30:59Z</time>
      </trkpt>
      <trkpt lat="46.44026" lon="5.97235">
        <ele>1137</ele>
        <time>2021-10-17T13:31:00Z</time>
      </trkpt>
      <trkpt lat="46.44028" lon="5.97239">
        <ele>1137</ele>
        <time>2021-10-17T13:31:01Z</time>
      </trkpt>
      <trkpt lat="46.4403" lon="5.97243">
        <ele>1137.2</ele>
        <time>2021-10-17T13:31:02Z</time>
      </trkpt>
      <trkpt lat="46.44032" lon="5.97247">
        <ele>1137.2</ele>
        <time>2021-10-17T13:31:03Z</time>
      </trkpt>
      <trkpt lat="46.44034" lon="5.9725">
        <ele>1137.4</ele>
        <time>2021-10-17T13:31:04Z</time>
      </trkpt>
      <trkpt lat="46.44036" lon="5.97254">
        <ele>1137.4</ele>
        <time>2021-10-17T13:31:05Z</time>
      </trkpt>
      <trkpt lat="46.44038" lon="5.97257">
        <ele>1137.8</ele>
        <time>2021-10-17T13:31:06Z</time>
      </trkpt>
      <trkpt lat="46.4404" lon="5.97261">
        <ele>1137.8</ele>
        <time>2021-10-17T13:31:07Z</time>
      </trkpt>
      <trkpt lat="46.44043" lon="5.97264">
        <ele>1138.2</ele>
        <time>2021-10-17T13:31:08Z</time>
      </trkpt>
      <trkpt lat="46.44045" lon="5.97267">
        <ele>1138.2</ele>
        <time>2021-10-17T13:31:09Z</time>
      </trkpt>
      <trkpt lat="46.44048" lon="5.9727">
        <ele>1138.4</ele>
        <time>2021-10-17T13:31:10Z</time>
      </trkpt>
      <trkpt lat="46.4405" lon="5.97273">
        <ele>1138.4</ele>
        <time>2021-10-17T13:31:11Z</time>
      </trkpt>
      <trkpt lat="46.44053" lon="5.97276">
        <ele>1138.8</ele>
        <time>2021-10-17T13:31:12Z</time>
      </trkpt>
      <trkpt lat="46.44055" lon="5.97279">
        <ele>1138.8</ele>
        <time>2021-10-17T13:31:13Z</time>
      </trkpt>
      <trkpt lat="46.44058" lon="5.97282">
        <ele>1139</ele>
        <time>2021-10-17T13:31:14Z</time>
      </trkpt>
      <trkpt lat="46.4406" lon="5.97285">
        <ele>1139</ele>
        <time>2021-10-17T13:31:15Z</time>
      </trkpt>
      <trkpt lat="46.44063" lon="5.97288">
        <ele>1139.2</ele>
        <time>2021-10-17T13:31:16Z</time>
      </trkpt>
      <trkpt lat="46.44066" lon="5.97291">
        <ele>1139.2</ele>
        <time>2021-10-17T13:31:17Z</time>
      </trkpt>
      <trkpt lat="46.44068" lon="5.97294">
        <ele>1139.6</ele>
        <time>2021-10-17T13:31:18Z</time>
      </trkpt>
      <trkpt lat="46.4407" lon="5.97298">
        <ele>1139.6</ele>
        <time>2021-10-17T13:31:19Z</time>
      </trkpt>
      <trkpt lat="46.44073" lon="5.973">
        <ele>1139.8</ele>
        <time>2021-10-17T13:31:20Z</time>
      </trkpt>
      <trkpt lat="46.44076" lon="5.97303">
        <ele>1139.8</ele>
        <time>2021-10-17T13:31:21Z</time>
      </trkpt>
      <trkpt lat="46.44078" lon="5.97307">
        <ele>1140</ele>
        <time>2021-10-17T13:31:22Z</time>
      </trkpt>
      <trkpt lat="46.4408" lon="5.97311">
        <ele>1140</ele>
        <time>2021-10-17T13:31:23Z</time>
      </trkpt>
      <trkpt lat="46.44082" lon="5.97315">
        <ele>1140</ele>
        <time>2021-10-17T13:31:24Z</time>
      </trkpt>
      <trkpt lat="46.44084" lon="5.97319">
        <ele>1140</ele>
        <time>2021-10-17T13:31:25Z</time>
      </trkpt>
      <trkpt lat="46.44086" lon="5.97323">
        <ele>1140.2</ele>
        <time>2021-10-17T13:31:26Z</time>
      </trkpt>
      <trkpt lat="46.44088" lon="5.97328">
        <ele>1140.2</ele>
        <time>2021-10-17T13:31:27Z</time>
      </trkpt>
      <trkpt lat="46.44089" lon="5.97332">
        <ele>1140.6</ele>
        <time>2021-10-17T13:31:28Z</time>
      </trkpt>
      <trkpt lat="46.44091" lon="5.97337">
        <ele>1140.6</ele>
        <time>2021-10-17T13:31:29Z</time>
      </trkpt>
      <trkpt lat="46.44092" lon="5.97341">
        <ele>1140.8</ele>
        <time>2021-10-17T13:31:30Z</time>
      </trkpt>
      <trkpt lat="46.44094" lon="5.97346">
        <ele>1140.8</ele>
        <time>2021-10-17T13:31:31Z</time>
      </trkpt>
      <trkpt lat="46.44095" lon="5.97351">
        <ele>1141.2</ele>
        <time>2021-10-17T13:31:32Z</time>
      </trkpt>
      <trkpt lat="46.44097" lon="5.97356">
        <ele>1141.2</ele>
        <time>2021-10-17T13:31:33Z</time>
      </trkpt>
      <trkpt lat="46.44098" lon="5.9736">
        <ele>1141.4</ele>
        <time>2021-10-17T13:31:34Z</time>
      </trkpt>
      <trkpt lat="46.44099" lon="5.97365">
        <ele>1141.4</ele>
        <time>2021-10-17T13:31:35Z</time>
      </trkpt>
      <trkpt lat="46.441" lon="5.97369">
        <ele>1141.8</ele>
        <time>2021-10-17T13:31:36Z</time>
      </trkpt>
      <trkpt lat="46.44101" lon="5.97374">
        <ele>1141.8</ele>
        <time>2021-10-17T13:31:37Z</time>
      </trkpt>
      <trkpt lat="46.44102" lon="5.97378">
        <ele>1142</ele>
        <time>2021-10-17T13:31:38Z</time>
      </trkpt>
      <trkpt lat="46.44104" lon="5.97383">
        <ele>1142</ele>
        <time>2021-10-17T13:31:39Z</time>
      </trkpt>
      <trkpt lat="46.44105" lon="5.97387">
        <ele>1142.2</ele>
        <time>2021-10-17T13:31:40Z</time>
      </trkpt>
      <trkpt lat="46.44106" lon="5.97391">
        <ele>1142.2</ele>
        <time>2021-10-17T13:31:41Z</time>
      </trkpt>
      <trkpt lat="46.44107" lon="5.97396">
        <ele>1142.6</ele>
        <time>2021-10-17T13:31:42Z</time>
      </trkpt>
      <trkpt lat="46.44109" lon="5.974">
        <ele>1142.6</ele>
        <time>2021-10-17T13:31:43Z</time>
      </trkpt>
      <trkpt lat="46.4411" lon="5.97404">
        <ele>1142.8</ele>
        <time>2021-10-17T13:31:44Z</time>
      </trkpt>
      <trkpt lat="46.44111" lon="5.97408">
        <ele>1142.8</ele>
        <time>2021-10-17T13:31:45Z</time>
      </trkpt>
      <trkpt lat="46.44112" lon="5.97412">
        <ele>1143.2</ele>
        <time>2021-10-17T13:31:46Z</time>
      </trkpt>
      <trkpt lat="46.44112" lon="5.97412">
        <ele>1143.2</ele>
        <time>2021-10-17T13:31:47Z</time>
      </trkpt>
      <trkpt lat="46.44114" lon="5.97416">
        <ele>1143.6</ele>
        <time>2021-10-17T13:31:48Z</time>
      </trkpt>
      <trkpt lat="46.44116" lon="5.9742">
        <ele>1143.6</ele>
        <time>2021-10-17T13:31:49Z</time>
      </trkpt>
      <trkpt lat="46.44117" lon="5.97423">
        <ele>1143.8</ele>
        <time>2021-10-17T13:31:50Z</time>
      </trkpt>
      <trkpt lat="46.44119" lon="5.97427">
        <ele>1143.8</ele>
        <time>2021-10-17T13:31:51Z</time>
      </trkpt>
      <trkpt lat="46.44121" lon="5.97431">
        <ele>1144</ele>
        <time>2021-10-17T13:31:52Z</time>
      </trkpt>
      <trkpt lat="46.44124" lon="5.97434">
        <ele>1144</ele>
        <time>2021-10-17T13:31:53Z</time>
      </trkpt>
      <trkpt lat="46.44126" lon="5.97437">
        <ele>1144.4</ele>
        <time>2021-10-17T13:31:54Z</time>
      </trkpt>
      <trkpt lat="46.44128" lon="5.97441">
        <ele>1144.4</ele>
        <time>2021-10-17T13:31:55Z</time>
      </trkpt>
      <trkpt lat="46.44131" lon="5.97444">
        <ele>1144.6</ele>
        <time>2021-10-17T13:31:56Z</time>
      </trkpt>
      <trkpt lat="46.44133" lon="5.97447">
        <ele>1144.6</ele>
        <time>2021-10-17T13:31:57Z</time>
      </trkpt>
      <trkpt lat="46.44136" lon="5.97451">
        <ele>1145</ele>
        <time>2021-10-17T13:31:58Z</time>
      </trkpt>
      <trkpt lat="46.44138" lon="5.97454">
        <ele>1145</ele>
        <time>2021-10-17T13:31:59Z</time>
      </trkpt>
      <trkpt lat="46.44141" lon="5.97456">
        <ele>1145.2</ele>
        <time>2021-10-17T13:32:00Z</time>
      </trkpt>
      <trkpt lat="46.44143" lon="5.97459">
        <ele>1145.2</ele>
        <time>2021-10-17T13:32:01Z</time>
      </trkpt>
      <trkpt lat="46.44146" lon="5.97462">
        <ele>1145.6</ele>
        <time>2021-10-17T13:32:02Z</time>
      </trkpt>
      <trkpt lat="46.44149" lon="5.97464">
        <ele>1145.8</ele>
        <time>2021-10-17T13:32:03Z</time>
      </trkpt>
      <trkpt lat="46.44151" lon="5.97467">
        <ele>1145.8</ele>
        <time>2021-10-17T13:32:04Z</time>
      </trkpt>
      <trkpt lat="46.44154" lon="5.97469">
        <ele>1146</ele>
        <time>2021-10-17T13:32:05Z</time>
      </trkpt>
      <trkpt lat="46.44157" lon="5.97472">
        <ele>1146</ele>
        <time>2021-10-17T13:32:06Z</time>
      </trkpt>
      <trkpt lat="46.4416" lon="5.97473">
        <ele>1146.2</ele>
        <time>2021-10-17T13:32:07Z</time>
      </trkpt>
      <trkpt lat="46.44163" lon="5.97475">
        <ele>1146.2</ele>
        <time>2021-10-17T13:32:08Z</time>
      </trkpt>
      <trkpt lat="46.44167" lon="5.97476">
        <ele>1146.4</ele>
        <time>2021-10-17T13:32:09Z</time>
      </trkpt>
      <trkpt lat="46.4417" lon="5.97477">
        <ele>1146.4</ele>
        <time>2021-10-17T13:32:10Z</time>
      </trkpt>
      <trkpt lat="46.44173" lon="5.97479">
        <ele>1146.8</ele>
        <time>2021-10-17T13:32:11Z</time>
      </trkpt>
      <trkpt lat="46.44176" lon="5.9748">
        <ele>1146.8</ele>
        <time>2021-10-17T13:32:12Z</time>
      </trkpt>
      <trkpt lat="46.44179" lon="5.97482">
        <ele>1146.8</ele>
        <time>2021-10-17T13:32:13Z</time>
      </trkpt>
      <trkpt lat="46.44182" lon="5.97484">
        <ele>1147</ele>
        <time>2021-10-17T13:32:14Z</time>
      </trkpt>
      <trkpt lat="46.44185" lon="5.97486">
        <ele>1147</ele>
        <time>2021-10-17T13:32:15Z</time>
      </trkpt>
      <trkpt lat="46.44188" lon="5.97488">
        <ele>1147</ele>
        <time>2021-10-17T13:32:16Z</time>
      </trkpt>
      <trkpt lat="46.44191" lon="5.9749">
        <ele>1147.2</ele>
        <time>2021-10-17T13:32:17Z</time>
      </trkpt>
      <trkpt lat="46.44194" lon="5.97493">
        <ele>1147.2</ele>
        <time>2021-10-17T13:32:18Z</time>
      </trkpt>
      <trkpt lat="46.44197" lon="5.97495">
        <ele>1147.6</ele>
        <time>2021-10-17T13:32:19Z</time>
      </trkpt>
      <trkpt lat="46.44201" lon="5.97498">
        <ele>1147.6</ele>
        <time>2021-10-17T13:32:20Z</time>
      </trkpt>
      <trkpt lat="46.44204" lon="5.97501">
        <ele>1147.6</ele>
        <time>2021-10-17T13:32:21Z</time>
      </trkpt>
      <trkpt lat="46.44207" lon="5.97504">
        <ele>1147.8</ele>
        <time>2021-10-17T13:32:22Z</time>
      </trkpt>
      <trkpt lat="46.44211" lon="5.97507">
        <ele>1147.8</ele>
        <time>2021-10-17T13:32:23Z</time>
      </trkpt>
      <trkpt lat="46.44214" lon="5.97511">
        <ele>1147.8</ele>
        <time>2021-10-17T13:32:24Z</time>
      </trkpt>
      <trkpt lat="46.44217" lon="5.97515">
        <ele>1148</ele>
        <time>2021-10-17T13:32:25Z</time>
      </trkpt>
      <trkpt lat="46.4422" lon="5.97519">
        <ele>1148</ele>
        <time>2021-10-17T13:32:26Z</time>
      </trkpt>
      <trkpt lat="46.44223" lon="5.97523">
        <ele>1148</ele>
        <time>2021-10-17T13:32:27Z</time>
      </trkpt>
      <trkpt lat="46.44226" lon="5.97527">
        <ele>1148</ele>
        <time>2021-10-17T13:32:28Z</time>
      </trkpt>
      <trkpt lat="46.44229" lon="5.97531">
        <ele>1148</ele>
        <time>2021-10-17T13:32:29Z</time>
      </trkpt>
      <trkpt lat="46.44232" lon="5.97536">
        <ele>1148</ele>
        <time>2021-10-17T13:32:30Z</time>
      </trkpt>
      <trkpt lat="46.44234" lon="5.9754">
        <ele>1148</ele>
        <time>2021-10-17T13:32:31Z</time>
      </trkpt>
      <trkpt lat="46.44237" lon="5.97545">
        <ele>1148</ele>
        <time>2021-10-17T13:32:32Z</time>
      </trkpt>
      <trkpt lat="46.4424" lon="5.9755">
        <ele>1147.8</ele>
        <time>2021-10-17T13:32:33Z</time>
      </trkpt>
      <trkpt lat="46.44243" lon="5.97555">
        <ele>1147.8</ele>
        <time>2021-10-17T13:32:34Z</time>
      </trkpt>
      <trkpt lat="46.44246" lon="5.97559">
        <ele>1147.8</ele>
        <time>2021-10-17T13:32:35Z</time>
      </trkpt>
      <trkpt lat="46.44249" lon="5.97563">
        <ele>1147.6</ele>
        <time>2021-10-17T13:32:36Z</time>
      </trkpt>
      <trkpt lat="46.44252" lon="5.97568">
        <ele>1147.6</ele>
        <time>2021-10-17T13:32:37Z</time>
      </trkpt>
      <trkpt lat="46.44256" lon="5.97572">
        <ele>1147.6</ele>
        <time>2021-10-17T13:32:38Z</time>
      </trkpt>
      <trkpt lat="46.44259" lon="5.97576">
        <ele>1147.2</ele>
        <time>2021-10-17T13:32:39Z</time>
      </trkpt>
      <trkpt lat="46.44263" lon="5.9758">
        <ele>1147.2</ele>
        <time>2021-10-17T13:32:40Z</time>
      </trkpt>
      <trkpt lat="46.44268" lon="5.97584">
        <ele>1146.8</ele>
        <time>2021-10-17T13:32:41Z</time>
      </trkpt>
      <trkpt lat="46.44273" lon="5.97588">
        <ele>1146.6</ele>
        <time>2021-10-17T13:32:42Z</time>
      </trkpt>
      <trkpt lat="46.44278" lon="5.9759">
        <ele>1146.4</ele>
        <time>2021-10-17T13:32:43Z</time>
      </trkpt>
      <trkpt lat="46.44285" lon="5.97591">
        <ele>1146.4</ele>
        <time>2021-10-17T13:32:44Z</time>
      </trkpt>
      <trkpt lat="46.44291" lon="5.97592">
        <ele>1145.8</ele>
        <time>2021-10-17T13:32:45Z</time>
      </trkpt>
      <trkpt lat="46.44298" lon="5.97593">
        <ele>1145.6</ele>
        <time>2021-10-17T13:32:46Z</time>
      </trkpt>
      <trkpt lat="46.44305" lon="5.97593">
        <ele>1145.4</ele>
        <time>2021-10-17T13:32:47Z</time>
      </trkpt>
      <trkpt lat="46.44312" lon="5.97594">
        <ele>1145.2</ele>
        <time>2021-10-17T13:32:48Z</time>
      </trkpt>
      <trkpt lat="46.4432" lon="5.97594">
        <ele>1144.8</ele>
        <time>2021-10-17T13:32:49Z</time>
      </trkpt>
      <trkpt lat="46.44327" lon="5.97594">
        <ele>1144.6</ele>
        <time>2021-10-17T13:32:50Z</time>
      </trkpt>
      <trkpt lat="46.44335" lon="5.97595">
        <ele>1144.4</ele>
        <time>2021-10-17T13:32:51Z</time>
      </trkpt>
      <trkpt lat="46.44342" lon="5.97596">
        <ele>1144.2</ele>
        <time>2021-10-17T13:32:52Z</time>
      </trkpt>
      <trkpt lat="46.4435" lon="5.97597">
        <ele>1143.8</ele>
        <time>2021-10-17T13:32:53Z</time>
      </trkpt>
      <trkpt lat="46.44358" lon="5.97598">
        <ele>1143.6</ele>
        <time>2021-10-17T13:32:54Z</time>
      </trkpt>
      <trkpt lat="46.44365" lon="5.97599">
        <ele>1143.6</ele>
        <time>2021-10-17T13:32:55Z</time>
      </trkpt>
      <trkpt lat="46.44373" lon="5.97599">
        <ele>1143.2</ele>
        <time>2021-10-17T13:32:56Z</time>
      </trkpt>
      <trkpt lat="46.44381" lon="5.97599">
        <ele>1143</ele>
        <time>2021-10-17T13:32:57Z</time>
      </trkpt>
      <trkpt lat="46.44389" lon="5.97597">
        <ele>1142.8</ele>
        <time>2021-10-17T13:32:58Z</time>
      </trkpt>
      <trkpt lat="46.44397" lon="5.97594">
        <ele>1142.6</ele>
        <time>2021-10-17T13:32:59Z</time>
      </trkpt>
      <trkpt lat="46.44405" lon="5.97591">
        <ele>1142.2</ele>
        <time>2021-10-17T13:33:00Z</time>
      </trkpt>
      <trkpt lat="46.44413" lon="5.97586">
        <ele>1141.8</ele>
        <time>2021-10-17T13:33:01Z</time>
      </trkpt>
      <trkpt lat="46.44421" lon="5.97582">
        <ele>1141.6</ele>
        <time>2021-10-17T13:33:02Z</time>
      </trkpt>
      <trkpt lat="46.44429" lon="5.97578">
        <ele>1141.2</ele>
        <time>2021-10-17T13:33:03Z</time>
      </trkpt>
      <trkpt lat="46.44437" lon="5.97574">
        <ele>1140.8</ele>
        <time>2021-10-17T13:33:04Z</time>
      </trkpt>
      <trkpt lat="46.44446" lon="5.9757">
        <ele>1140.4</ele>
        <time>2021-10-17T13:33:05Z</time>
      </trkpt>
      <trkpt lat="46.44455" lon="5.97567">
        <ele>1140</ele>
        <time>2021-10-17T13:33:06Z</time>
      </trkpt>
      <trkpt lat="46.44464" lon="5.97563">
        <ele>1139.4</ele>
        <time>2021-10-17T13:33:07Z</time>
      </trkpt>
      <trkpt lat="46.44473" lon="5.97561">
        <ele>1139</ele>
        <time>2021-10-17T13:33:08Z</time>
      </trkpt>
      <trkpt lat="46.44483" lon="5.9756">
        <ele>1138.6</ele>
        <time>2021-10-17T13:33:09Z</time>
      </trkpt>
      <trkpt lat="46.44492" lon="5.9756">
        <ele>1138</ele>
        <time>2021-10-17T13:33:10Z</time>
      </trkpt>
      <trkpt lat="46.44502" lon="5.9756">
        <ele>1137.6</ele>
        <time>2021-10-17T13:33:11Z</time>
      </trkpt>
      <trkpt lat="46.44512" lon="5.97559">
        <ele>1137.2</ele>
        <time>2021-10-17T13:33:12Z</time>
      </trkpt>
      <trkpt lat="46.44521" lon="5.97558">
        <ele>1136.8</ele>
        <time>2021-10-17T13:33:13Z</time>
      </trkpt>
      <trkpt lat="46.4453" lon="5.97554">
        <ele>1136.4</ele>
        <time>2021-10-17T13:33:14Z</time>
      </trkpt>
      <trkpt lat="46.44539" lon="5.97552">
        <ele>1136</ele>
        <time>2021-10-17T13:33:15Z</time>
      </trkpt>
      <trkpt lat="46.44548" lon="5.97548">
        <ele>1135.6</ele>
        <time>2021-10-17T13:33:16Z</time>
      </trkpt>
      <trkpt lat="46.44556" lon="5.97543">
        <ele>1135.2</ele>
        <time>2021-10-17T13:33:17Z</time>
      </trkpt>
      <trkpt lat="46.44566" lon="5.97539">
        <ele>1134.8</ele>
        <time>2021-10-17T13:33:18Z</time>
      </trkpt>
      <trkpt lat="46.44575" lon="5.97535">
        <ele>1134.4</ele>
        <time>2021-10-17T13:33:19Z</time>
      </trkpt>
      <trkpt lat="46.44584" lon="5.9753">
        <ele>1134</ele>
        <time>2021-10-17T13:33:20Z</time>
      </trkpt>
      <trkpt lat="46.44593" lon="5.97528">
        <ele>1133.4</ele>
        <time>2021-10-17T13:33:21Z</time>
      </trkpt>
      <trkpt lat="46.44604" lon="5.97529">
        <ele>1133</ele>
        <time>2021-10-17T13:33:22Z</time>
      </trkpt>
      <trkpt lat="46.44614" lon="5.97531">
        <ele>1132.6</ele>
        <time>2021-10-17T13:33:23Z</time>
      </trkpt>
      <trkpt lat="46.44625" lon="5.97535">
        <ele>1132</ele>
        <time>2021-10-17T13:33:24Z</time>
      </trkpt>
      <trkpt lat="46.44635" lon="5.97539">
        <ele>1131.6</ele>
        <time>2021-10-17T13:33:25Z</time>
      </trkpt>
      <trkpt lat="46.44644" lon="5.97541">
        <ele>1131.2</ele>
        <time>2021-10-17T13:33:26Z</time>
      </trkpt>
      <trkpt lat="46.44655" lon="5.97542">
        <ele>1130.8</ele>
        <time>2021-10-17T13:33:27Z</time>
      </trkpt>
      <trkpt lat="46.44665" lon="5.97542">
        <ele>1130.2</ele>
        <time>2021-10-17T13:33:28Z</time>
      </trkpt>
      <trkpt lat="46.44677" lon="5.97541">
        <ele>1129.8</ele>
        <time>2021-10-17T13:33:29Z</time>
      </trkpt>
      <trkpt lat="46.44688" lon="5.97544">
        <ele>1129.4</ele>
        <time>2021-10-17T13:33:30Z</time>
      </trkpt>
      <trkpt lat="46.44698" lon="5.97549">
        <ele>1129</ele>
        <time>2021-10-17T13:33:31Z</time>
      </trkpt>
      <trkpt lat="46.44709" lon="5.97555">
        <ele>1128.4</ele>
        <time>2021-10-17T13:33:32Z</time>
      </trkpt>
      <trkpt lat="46.44718" lon="5.97563">
        <ele>1128.2</ele>
        <time>2021-10-17T13:33:33Z</time>
      </trkpt>
      <trkpt lat="46.44725" lon="5.97569">
        <ele>1127.6</ele>
        <time>2021-10-17T13:33:34Z</time>
      </trkpt>
      <trkpt lat="46.44733" lon="5.97574">
        <ele>1127</ele>
        <time>2021-10-17T13:33:35Z</time>
      </trkpt>
      <trkpt lat="46.44741" lon="5.97577">
        <ele>1126.6</ele>
        <time>2021-10-17T13:33:36Z</time>
      </trkpt>
      <trkpt lat="46.4475" lon="5.97577">
        <ele>1126.2</ele>
        <time>2021-10-17T13:33:37Z</time>
      </trkpt>
      <trkpt lat="46.44758" lon="5.97575">
        <ele>1125.6</ele>
        <time>2021-10-17T13:33:38Z</time>
      </trkpt>
      <trkpt lat="46.44766" lon="5.9757">
        <ele>1125.2</ele>
        <time>2021-10-17T13:33:39Z</time>
      </trkpt>
      <trkpt lat="46.44773" lon="5.97564">
        <ele>1124.8</ele>
        <time>2021-10-17T13:33:40Z</time>
      </trkpt>
      <trkpt lat="46.44778" lon="5.97557">
        <ele>1124.2</ele>
        <time>2021-10-17T13:33:41Z</time>
      </trkpt>
      <trkpt lat="46.44782" lon="5.97548">
        <ele>1123.8</ele>
        <time>2021-10-17T13:33:42Z</time>
      </trkpt>
      <trkpt lat="46.44785" lon="5.97537">
        <ele>1123.2</ele>
        <time>2021-10-17T13:33:43Z</time>
      </trkpt>
      <trkpt lat="46.44785" lon="5.97525">
        <ele>1122.6</ele>
        <time>2021-10-17T13:33:44Z</time>
      </trkpt>
      <trkpt lat="46.44781" lon="5.97514">
        <ele>1122</ele>
        <time>2021-10-17T13:33:45Z</time>
      </trkpt>
      <trkpt lat="46.44776" lon="5.97504">
        <ele>1121.4</ele>
        <time>2021-10-17T13:33:46Z</time>
      </trkpt>
      <trkpt lat="46.4477" lon="5.97495">
        <ele>1121</ele>
        <time>2021-10-17T13:33:47Z</time>
      </trkpt>
      <trkpt lat="46.44763" lon="5.97487">
        <ele>1120.4</ele>
        <time>2021-10-17T13:33:48Z</time>
      </trkpt>
      <trkpt lat="46.44758" lon="5.97479">
        <ele>1120</ele>
        <time>2021-10-17T13:33:49Z</time>
      </trkpt>
      <trkpt lat="46.44754" lon="5.97471">
        <ele>1119.4</ele>
        <time>2021-10-17T13:33:50Z</time>
      </trkpt>
      <trkpt lat="46.44751" lon="5.97462">
        <ele>1119</ele>
        <time>2021-10-17T13:33:51Z</time>
      </trkpt>
      <trkpt lat="46.44749" lon="5.97452">
        <ele>1118.6</ele>
        <time>2021-10-17T13:33:52Z</time>
      </trkpt>
      <trkpt lat="46.4475" lon="5.97441">
        <ele>1118</ele>
        <time>2021-10-17T13:33:53Z</time>
      </trkpt>
      <trkpt lat="46.44752" lon="5.97431">
        <ele>1117.6</ele>
        <time>2021-10-17T13:33:54Z</time>
      </trkpt>
      <trkpt lat="46.44756" lon="5.9742">
        <ele>1117.2</ele>
        <time>2021-10-17T13:33:55Z</time>
      </trkpt>
      <trkpt lat="46.4476" lon="5.9741">
        <ele>1116.6</ele>
        <time>2021-10-17T13:33:56Z</time>
      </trkpt>
      <trkpt lat="46.44764" lon="5.974">
        <ele>1116.2</ele>
        <time>2021-10-17T13:33:57Z</time>
      </trkpt>
      <trkpt lat="46.44769" lon="5.9739">
        <ele>1115.6</ele>
        <time>2021-10-17T13:33:58Z</time>
      </trkpt>
      <trkpt lat="46.44774" lon="5.97379">
        <ele>1115</ele>
        <time>2021-10-17T13:33:59Z</time>
      </trkpt>
      <trkpt lat="46.4478" lon="5.97369">
        <ele>1114.6</ele>
        <time>2021-10-17T13:34:00Z</time>
      </trkpt>
      <trkpt lat="46.44787" lon="5.97358">
        <ele>1114.2</ele>
        <time>2021-10-17T13:34:01Z</time>
      </trkpt>
      <trkpt lat="46.44794" lon="5.97348">
        <ele>1113.6</ele>
        <time>2021-10-17T13:34:02Z</time>
      </trkpt>
      <trkpt lat="46.44802" lon="5.97339">
        <ele>1113</ele>
        <time>2021-10-17T13:34:03Z</time>
      </trkpt>
      <trkpt lat="46.44809" lon="5.97329">
        <ele>1112.4</ele>
        <time>2021-10-17T13:34:04Z</time>
      </trkpt>
      <trkpt lat="46.44817" lon="5.9732">
        <ele>1112</ele>
        <time>2021-10-17T13:34:05Z</time>
      </trkpt>
      <trkpt lat="46.44825" lon="5.9731">
        <ele>1111.4</ele>
        <time>2021-10-17T13:34:06Z</time>
      </trkpt>
      <trkpt lat="46.44833" lon="5.97301">
        <ele>1110.8</ele>
        <time>2021-10-17T13:34:07Z</time>
      </trkpt>
      <trkpt lat="46.44842" lon="5.97292">
        <ele>1110.2</ele>
        <time>2021-10-17T13:34:08Z</time>
      </trkpt>
      <trkpt lat="46.4485" lon="5.97283">
        <ele>1109.8</ele>
        <time>2021-10-17T13:34:09Z</time>
      </trkpt>
      <trkpt lat="46.44858" lon="5.97275">
        <ele>1109.2</ele>
        <time>2021-10-17T13:34:10Z</time>
      </trkpt>
      <trkpt lat="46.44867" lon="5.97267">
        <ele>1108.4</ele>
        <time>2021-10-17T13:34:11Z</time>
      </trkpt>
      <trkpt lat="46.44876" lon="5.97258">
        <ele>1108</ele>
        <time>2021-10-17T13:34:12Z</time>
      </trkpt>
      <trkpt lat="46.44885" lon="5.97249">
        <ele>1107.4</ele>
        <time>2021-10-17T13:34:13Z</time>
      </trkpt>
      <trkpt lat="46.44893" lon="5.97239">
        <ele>1106.8</ele>
        <time>2021-10-17T13:34:14Z</time>
      </trkpt>
      <trkpt lat="46.44901" lon="5.97228">
        <ele>1106.2</ele>
        <time>2021-10-17T13:34:15Z</time>
      </trkpt>
      <trkpt lat="46.44907" lon="5.97217">
        <ele>1105.8</ele>
        <time>2021-10-17T13:34:16Z</time>
      </trkpt>
      <trkpt lat="46.44914" lon="5.97204">
        <ele>1105.4</ele>
        <time>2021-10-17T13:34:17Z</time>
      </trkpt>
      <trkpt lat="46.4492" lon="5.97191">
        <ele>1105</ele>
        <time>2021-10-17T13:34:18Z</time>
      </trkpt>
      <trkpt lat="46.44925" lon="5.97178">
        <ele>1104.6</ele>
        <time>2021-10-17T13:34:19Z</time>
      </trkpt>
      <trkpt lat="46.44929" lon="5.97164">
        <ele>1104</ele>
        <time>2021-10-17T13:34:20Z</time>
      </trkpt>
      <trkpt lat="46.44933" lon="5.97152">
        <ele>1103.6</ele>
        <time>2021-10-17T13:34:21Z</time>
      </trkpt>
      <trkpt lat="46.44938" lon="5.97139">
        <ele>1103.2</ele>
        <time>2021-10-17T13:34:22Z</time>
      </trkpt>
      <trkpt lat="46.44942" lon="5.97126">
        <ele>1102.8</ele>
        <time>2021-10-17T13:34:23Z</time>
      </trkpt>
      <trkpt lat="46.44947" lon="5.97113">
        <ele>1102.4</ele>
        <time>2021-10-17T13:34:24Z</time>
      </trkpt>
      <trkpt lat="46.44951" lon="5.971">
        <ele>1102</ele>
        <time>2021-10-17T13:34:25Z</time>
      </trkpt>
      <trkpt lat="46.44956" lon="5.97088">
        <ele>1101.6</ele>
        <time>2021-10-17T13:34:26Z</time>
      </trkpt>
      <trkpt lat="46.44961" lon="5.97076">
        <ele>1101.2</ele>
        <time>2021-10-17T13:34:27Z</time>
      </trkpt>
      <trkpt lat="46.44967" lon="5.97064">
        <ele>1100.8</ele>
        <time>2021-10-17T13:34:28Z</time>
      </trkpt>
      <trkpt lat="46.44973" lon="5.97053">
        <ele>1100.4</ele>
        <time>2021-10-17T13:34:29Z</time>
      </trkpt>
      <trkpt lat="46.4498" lon="5.97042">
        <ele>1100</ele>
        <time>2021-10-17T13:34:30Z</time>
      </trkpt>
      <trkpt lat="46.44986" lon="5.97031">
        <ele>1099.4</ele>
        <time>2021-10-17T13:34:31Z</time>
      </trkpt>
      <trkpt lat="46.44993" lon="5.97019">
        <ele>1098.8</ele>
        <time>2021-10-17T13:34:32Z</time>
      </trkpt>
      <trkpt lat="46.45" lon="5.97008">
        <ele>1098.2</ele>
        <time>2021-10-17T13:34:33Z</time>
      </trkpt>
      <trkpt lat="46.45006" lon="5.96996">
        <ele>1097.8</ele>
        <time>2021-10-17T13:34:34Z</time>
      </trkpt>
      <trkpt lat="46.45013" lon="5.96984">
        <ele>1097.4</ele>
        <time>2021-10-17T13:34:35Z</time>
      </trkpt>
      <trkpt lat="46.4502" lon="5.96974">
        <ele>1096.8</ele>
        <time>2021-10-17T13:34:36Z</time>
      </trkpt>
      <trkpt lat="46.45028" lon="5.96963">
        <ele>1096.4</ele>
        <time>2021-10-17T13:34:37Z</time>
      </trkpt>
      <trkpt lat="46.45036" lon="5.96953">
        <ele>1095.8</ele>
        <time>2021-10-17T13:34:38Z</time>
      </trkpt>
      <trkpt lat="46.45043" lon="5.96941">
        <ele>1095.2</ele>
        <time>2021-10-17T13:34:39Z</time>
      </trkpt>
      <trkpt lat="46.45051" lon="5.9693">
        <ele>1094.8</ele>
        <time>2021-10-17T13:34:40Z</time>
      </trkpt>
      <trkpt lat="46.45057" lon="5.96918">
        <ele>1094.4</ele>
        <time>2021-10-17T13:34:41Z</time>
      </trkpt>
      <trkpt lat="46.45064" lon="5.96907">
        <ele>1093.8</ele>
        <time>2021-10-17T13:34:42Z</time>
      </trkpt>
      <trkpt lat="46.45071" lon="5.96895">
        <ele>1093.4</ele>
        <time>2021-10-17T13:34:43Z</time>
      </trkpt>
      <trkpt lat="46.45077" lon="5.96883">
        <ele>1093</ele>
        <time>2021-10-17T13:34:44Z</time>
      </trkpt>
      <trkpt lat="46.45082" lon="5.96869">
        <ele>1092.6</ele>
        <time>2021-10-17T13:34:45Z</time>
      </trkpt>
      <trkpt lat="46.45086" lon="5.96854">
        <ele>1092.2</ele>
        <time>2021-10-17T13:34:46Z</time>
      </trkpt>
      <trkpt lat="46.45088" lon="5.9684">
        <ele>1091.8</ele>
        <time>2021-10-17T13:34:47Z</time>
      </trkpt>
      <trkpt lat="46.45089" lon="5.96825">
        <ele>1091.4</ele>
        <time>2021-10-17T13:34:48Z</time>
      </trkpt>
      <trkpt lat="46.45089" lon="5.96811">
        <ele>1091</ele>
        <time>2021-10-17T13:34:49Z</time>
      </trkpt>
      <trkpt lat="46.45089" lon="5.96796">
        <ele>1090.6</ele>
        <time>2021-10-17T13:34:50Z</time>
      </trkpt>
      <trkpt lat="46.4509" lon="5.9678">
        <ele>1090.2</ele>
        <time>2021-10-17T13:34:51Z</time>
      </trkpt>
      <trkpt lat="46.4509" lon="5.96765">
        <ele>1089.8</ele>
        <time>2021-10-17T13:34:52Z</time>
      </trkpt>
      <trkpt lat="46.45091" lon="5.96751">
        <ele>1089.4</ele>
        <time>2021-10-17T13:34:53Z</time>
      </trkpt>
      <trkpt lat="46.45092" lon="5.96735">
        <ele>1088.8</ele>
        <time>2021-10-17T13:34:54Z</time>
      </trkpt>
      <trkpt lat="46.45094" lon="5.9672">
        <ele>1088.2</ele>
        <time>2021-10-17T13:34:55Z</time>
      </trkpt>
      <trkpt lat="46.45094" lon="5.96704">
        <ele>1087.6</ele>
        <time>2021-10-17T13:34:56Z</time>
      </trkpt>
      <trkpt lat="46.45095" lon="5.96688">
        <ele>1087</ele>
        <time>2021-10-17T13:34:57Z</time>
      </trkpt>
      <trkpt lat="46.45094" lon="5.96673">
        <ele>1086.4</ele>
        <time>2021-10-17T13:34:58Z</time>
      </trkpt>
      <trkpt lat="46.45095" lon="5.96657">
        <ele>1085.8</ele>
        <time>2021-10-17T13:34:59Z</time>
      </trkpt>
      <trkpt lat="46.45097" lon="5.96641">
        <ele>1085.2</ele>
        <time>2021-10-17T13:35:00Z</time>
      </trkpt>
      <trkpt lat="46.45097" lon="5.96625">
        <ele>1084.8</ele>
        <time>2021-10-17T13:35:01Z</time>
      </trkpt>
      <trkpt lat="46.45099" lon="5.96608">
        <ele>1084.2</ele>
        <time>2021-10-17T13:35:02Z</time>
      </trkpt>
      <trkpt lat="46.451" lon="5.96595">
        <ele>1083.6</ele>
        <time>2021-10-17T13:35:03Z</time>
      </trkpt>
      <trkpt lat="46.45103" lon="5.96583">
        <ele>1082.8</ele>
        <time>2021-10-17T13:35:04Z</time>
      </trkpt>
      <trkpt lat="46.45108" lon="5.96572">
        <ele>1082.2</ele>
        <time>2021-10-17T13:35:05Z</time>
      </trkpt>
      <trkpt lat="46.45115" lon="5.96562">
        <ele>1081.4</ele>
        <time>2021-10-17T13:35:06Z</time>
      </trkpt>
      <trkpt lat="46.45122" lon="5.96553">
        <ele>1080.6</ele>
        <time>2021-10-17T13:35:07Z</time>
      </trkpt>
      <trkpt lat="46.4513" lon="5.96545">
        <ele>1079.8</ele>
        <time>2021-10-17T13:35:08Z</time>
      </trkpt>
      <trkpt lat="46.45138" lon="5.96538">
        <ele>1079</ele>
        <time>2021-10-17T13:35:09Z</time>
      </trkpt>
      <trkpt lat="46.45146" lon="5.96532">
        <ele>1078.2</ele>
        <time>2021-10-17T13:35:10Z</time>
      </trkpt>
      <trkpt lat="46.45154" lon="5.96525">
        <ele>1077.6</ele>
        <time>2021-10-17T13:35:11Z</time>
      </trkpt>
      <trkpt lat="46.45161" lon="5.96516">
        <ele>1077</ele>
        <time>2021-10-17T13:35:12Z</time>
      </trkpt>
      <trkpt lat="46.45167" lon="5.96506">
        <ele>1076.2</ele>
        <time>2021-10-17T13:35:13Z</time>
      </trkpt>
      <trkpt lat="46.45172" lon="5.96494">
        <ele>1075.4</ele>
        <time>2021-10-17T13:35:14Z</time>
      </trkpt>
      <trkpt lat="46.45175" lon="5.96482">
        <ele>1074.6</ele>
        <time>2021-10-17T13:35:15Z</time>
      </trkpt>
      <trkpt lat="46.45175" lon="5.96469">
        <ele>1073.8</ele>
        <time>2021-10-17T13:35:16Z</time>
      </trkpt>
      <trkpt lat="46.45174" lon="5.96457">
        <ele>1073</ele>
        <time>2021-10-17T13:35:17Z</time>
      </trkpt>
      <trkpt lat="46.45172" lon="5.96444">
        <ele>1072.2</ele>
        <time>2021-10-17T13:35:18Z</time>
      </trkpt>
      <trkpt lat="46.45168" lon="5.96433">
        <ele>1071.6</ele>
        <time>2021-10-17T13:35:19Z</time>
      </trkpt>
      <trkpt lat="46.45163" lon="5.96422">
        <ele>1070.8</ele>
        <time>2021-10-17T13:35:20Z</time>
      </trkpt>
      <trkpt lat="46.45158" lon="5.96412">
        <ele>1070</ele>
        <time>2021-10-17T13:35:21Z</time>
      </trkpt>
      <trkpt lat="46.45152" lon="5.96403">
        <ele>1069</ele>
        <time>2021-10-17T13:35:22Z</time>
      </trkpt>
      <trkpt lat="46.45148" lon="5.96393">
        <ele>1068.2</ele>
        <time>2021-10-17T13:35:23Z</time>
      </trkpt>
      <trkpt lat="46.45145" lon="5.96381">
        <ele>1067.4</ele>
        <time>2021-10-17T13:35:24Z</time>
      </trkpt>
      <trkpt lat="46.45143" lon="5.96369">
        <ele>1066.4</ele>
        <time>2021-10-17T13:35:25Z</time>
      </trkpt>
      <trkpt lat="46.45145" lon="5.96356">
        <ele>1065.4</ele>
        <time>2021-10-17T13:35:26Z</time>
      </trkpt>
      <trkpt lat="46.45151" lon="5.96343">
        <ele>1064.4</ele>
        <time>2021-10-17T13:35:27Z</time>
      </trkpt>
      <trkpt lat="46.45158" lon="5.96331">
        <ele>1063.4</ele>
        <time>2021-10-17T13:35:28Z</time>
      </trkpt>
      <trkpt lat="46.45167" lon="5.96322">
        <ele>1062.4</ele>
        <time>2021-10-17T13:35:29Z</time>
      </trkpt>
      <trkpt lat="46.45177" lon="5.96316">
        <ele>1061.2</ele>
        <time>2021-10-17T13:35:30Z</time>
      </trkpt>
      <trkpt lat="46.45187" lon="5.9631">
        <ele>1060.2</ele>
        <time>2021-10-17T13:35:31Z</time>
      </trkpt>
      <trkpt lat="46.45198" lon="5.96308">
        <ele>1059.2</ele>
        <time>2021-10-17T13:35:32Z</time>
      </trkpt>
      <trkpt lat="46.4521" lon="5.96304">
        <ele>1058.2</ele>
        <time>2021-10-17T13:35:33Z</time>
      </trkpt>
      <trkpt lat="46.45222" lon="5.96302">
        <ele>1057.2</ele>
        <time>2021-10-17T13:35:34Z</time>
      </trkpt>
      <trkpt lat="46.45232" lon="5.96297">
        <ele>1056.4</ele>
        <time>2021-10-17T13:35:35Z</time>
      </trkpt>
      <trkpt lat="46.45242" lon="5.9629">
        <ele>1055.6</ele>
        <time>2021-10-17T13:35:36Z</time>
      </trkpt>
      <trkpt lat="46.45251" lon="5.96278">
        <ele>1054.6</ele>
        <time>2021-10-17T13:35:37Z</time>
      </trkpt>
      <trkpt lat="46.45258" lon="5.96267">
        <ele>1053.8</ele>
        <time>2021-10-17T13:35:38Z</time>
      </trkpt>
      <trkpt lat="46.45264" lon="5.96256">
        <ele>1053</ele>
        <time>2021-10-17T13:35:39Z</time>
      </trkpt>
      <trkpt lat="46.45269" lon="5.96242">
        <ele>1052.2</ele>
        <time>2021-10-17T13:35:40Z</time>
      </trkpt>
      <trkpt lat="46.45271" lon="5.96227">
        <ele>1051.4</ele>
        <time>2021-10-17T13:35:41Z</time>
      </trkpt>
      <trkpt lat="46.45274" lon="5.96212">
        <ele>1050.6</ele>
        <time>2021-10-17T13:35:42Z</time>
      </trkpt>
      <trkpt lat="46.45278" lon="5.96196">
        <ele>1049.6</ele>
        <time>2021-10-17T13:35:43Z</time>
      </trkpt>
      <trkpt lat="46.45283" lon="5.96181">
        <ele>1048.6</ele>
        <time>2021-10-17T13:35:44Z</time>
      </trkpt>
      <trkpt lat="46.4529" lon="5.96167">
        <ele>1046.8</ele>
        <time>2021-10-17T13:35:45Z</time>
      </trkpt>
      <trkpt lat="46.45296" lon="5.96153">
        <ele>1046</ele>
        <time>2021-10-17T13:35:46Z</time>
      </trkpt>
      <trkpt lat="46.45303" lon="5.96139">
        <ele>1045.4</ele>
        <time>2021-10-17T13:35:47Z</time>
      </trkpt>
      <trkpt lat="46.45309" lon="5.96126">
        <ele>1044.8</ele>
        <time>2021-10-17T13:35:48Z</time>
      </trkpt>
      <trkpt lat="46.45316" lon="5.96112">
        <ele>1044.2</ele>
        <time>2021-10-17T13:35:49Z</time>
      </trkpt>
      <trkpt lat="46.45323" lon="5.96099">
        <ele>1043.8</ele>
        <time>2021-10-17T13:35:50Z</time>
      </trkpt>
      <trkpt lat="46.4533" lon="5.96087">
        <ele>1043.6</ele>
        <time>2021-10-17T13:35:51Z</time>
      </trkpt>
      <trkpt lat="46.45337" lon="5.96076">
        <ele>1043.4</ele>
        <time>2021-10-17T13:35:52Z</time>
      </trkpt>
      <trkpt lat="46.45343" lon="5.96065">
        <ele>1043.4</ele>
        <time>2021-10-17T13:35:53Z</time>
      </trkpt>
      <trkpt lat="46.45349" lon="5.96054">
        <ele>1043</ele>
        <time>2021-10-17T13:35:54Z</time>
      </trkpt>
      <trkpt lat="46.45356" lon="5.96043">
        <ele>1043</ele>
        <time>2021-10-17T13:35:55Z</time>
      </trkpt>
      <trkpt lat="46.45361" lon="5.96032">
        <ele>1043</ele>
        <time>2021-10-17T13:35:56Z</time>
      </trkpt>
      <trkpt lat="46.45365" lon="5.96021">
        <ele>1043</ele>
        <time>2021-10-17T13:35:57Z</time>
      </trkpt>
      <trkpt lat="46.45369" lon="5.96009">
        <ele>1042.6</ele>
        <time>2021-10-17T13:35:58Z</time>
      </trkpt>
      <trkpt lat="46.45373" lon="5.95998">
        <ele>1042.4</ele>
        <time>2021-10-17T13:35:59Z</time>
      </trkpt>
      <trkpt lat="46.45378" lon="5.95989">
        <ele>1042</ele>
        <time>2021-10-17T13:36:00Z</time>
      </trkpt>
      <trkpt lat="46.45383" lon="5.95981">
        <ele>1041.8</ele>
        <time>2021-10-17T13:36:01Z</time>
      </trkpt>
      <trkpt lat="46.45389" lon="5.95975">
        <ele>1041.4</ele>
        <time>2021-10-17T13:36:02Z</time>
      </trkpt>
      <trkpt lat="46.45396" lon="5.9597">
        <ele>1040.8</ele>
        <time>2021-10-17T13:36:03Z</time>
      </trkpt>
      <trkpt lat="46.45403" lon="5.95967">
        <ele>1040.2</ele>
        <time>2021-10-17T13:36:04Z</time>
      </trkpt>
      <trkpt lat="46.45411" lon="5.95966">
        <ele>1039.8</ele>
        <time>2021-10-17T13:36:05Z</time>
      </trkpt>
      <trkpt lat="46.4542" lon="5.95966">
        <ele>1039.2</ele>
        <time>2021-10-17T13:36:06Z</time>
      </trkpt>
      <trkpt lat="46.45429" lon="5.95966">
        <ele>1039</ele>
        <time>2021-10-17T13:36:07Z</time>
      </trkpt>
      <trkpt lat="46.45439" lon="5.95965">
        <ele>1038.6</ele>
        <time>2021-10-17T13:36:08Z</time>
      </trkpt>
      <trkpt lat="46.45449" lon="5.95963">
        <ele>1038</ele>
        <time>2021-10-17T13:36:09Z</time>
      </trkpt>
      <trkpt lat="46.45458" lon="5.9596">
        <ele>1037.6</ele>
        <time>2021-10-17T13:36:10Z</time>
      </trkpt>
      <trkpt lat="46.45468" lon="5.95956">
        <ele>1036.8</ele>
        <time>2021-10-17T13:36:11Z</time>
      </trkpt>
      <trkpt lat="46.45479" lon="5.95951">
        <ele>1036</ele>
        <time>2021-10-17T13:36:12Z</time>
      </trkpt>
      <trkpt lat="46.45489" lon="5.95947">
        <ele>1035.2</ele>
        <time>2021-10-17T13:36:13Z</time>
      </trkpt>
      <trkpt lat="46.455" lon="5.95943">
        <ele>1034.6</ele>
        <time>2021-10-17T13:36:14Z</time>
      </trkpt>
      <trkpt lat="46.45511" lon="5.95939">
        <ele>1033.8</ele>
        <time>2021-10-17T13:36:15Z</time>
      </trkpt>
      <trkpt lat="46.45523" lon="5.95936">
        <ele>1033.2</ele>
        <time>2021-10-17T13:36:16Z</time>
      </trkpt>
      <trkpt lat="46.45535" lon="5.95933">
        <ele>1032.6</ele>
        <time>2021-10-17T13:36:17Z</time>
      </trkpt>
      <trkpt lat="46.45546" lon="5.95931">
        <ele>1031.8</ele>
        <time>2021-10-17T13:36:18Z</time>
      </trkpt>
      <trkpt lat="46.45558" lon="5.95929">
        <ele>1031.2</ele>
        <time>2021-10-17T13:36:19Z</time>
      </trkpt>
      <trkpt lat="46.45569" lon="5.95929">
        <ele>1030.6</ele>
        <time>2021-10-17T13:36:20Z</time>
      </trkpt>
      <trkpt lat="46.4558" lon="5.95928">
        <ele>1030</ele>
        <time>2021-10-17T13:36:21Z</time>
      </trkpt>
      <trkpt lat="46.45591" lon="5.95926">
        <ele>1029.6</ele>
        <time>2021-10-17T13:36:22Z</time>
      </trkpt>
      <trkpt lat="46.456" lon="5.95925">
        <ele>1029</ele>
        <time>2021-10-17T13:36:23Z</time>
      </trkpt>
      <trkpt lat="46.45609" lon="5.95923">
        <ele>1028.6</ele>
        <time>2021-10-17T13:36:24Z</time>
      </trkpt>
      <trkpt lat="46.45617" lon="5.95919">
        <ele>1028</ele>
        <time>2021-10-17T13:36:25Z</time>
      </trkpt>
      <trkpt lat="46.45625" lon="5.95913">
        <ele>1027.6</ele>
        <time>2021-10-17T13:36:26Z</time>
      </trkpt>
      <trkpt lat="46.45632" lon="5.95905">
        <ele>1027</ele>
        <time>2021-10-17T13:36:27Z</time>
      </trkpt>
      <trkpt lat="46.45638" lon="5.95896">
        <ele>1026.4</ele>
        <time>2021-10-17T13:36:28Z</time>
      </trkpt>
      <trkpt lat="46.45643" lon="5.95885">
        <ele>1026</ele>
        <time>2021-10-17T13:36:29Z</time>
      </trkpt>
      <trkpt lat="46.45646" lon="5.95873">
        <ele>1025.4</ele>
        <time>2021-10-17T13:36:30Z</time>
      </trkpt>
      <trkpt lat="46.45648" lon="5.95862">
        <ele>1025</ele>
        <time>2021-10-17T13:36:31Z</time>
      </trkpt>
      <trkpt lat="46.45648" lon="5.95849">
        <ele>1024.4</ele>
        <time>2021-10-17T13:36:32Z</time>
      </trkpt>
      <trkpt lat="46.45646" lon="5.95836">
        <ele>1024</ele>
        <time>2021-10-17T13:36:33Z</time>
      </trkpt>
      <trkpt lat="46.45645" lon="5.95823">
        <ele>1023.2</ele>
        <time>2021-10-17T13:36:34Z</time>
      </trkpt>
      <trkpt lat="46.45644" lon="5.9581">
        <ele>1022.6</ele>
        <time>2021-10-17T13:36:35Z</time>
      </trkpt>
      <trkpt lat="46.45643" lon="5.95798">
        <ele>1022</ele>
        <time>2021-10-17T13:36:36Z</time>
      </trkpt>
      <trkpt lat="46.45644" lon="5.95786">
        <ele>1021.4</ele>
        <time>2021-10-17T13:36:37Z</time>
      </trkpt>
      <trkpt lat="46.45646" lon="5.95773">
        <ele>1020.8</ele>
        <time>2021-10-17T13:36:38Z</time>
      </trkpt>
      <trkpt lat="46.45651" lon="5.95761">
        <ele>1020.2</ele>
        <time>2021-10-17T13:36:39Z</time>
      </trkpt>
      <trkpt lat="46.45656" lon="5.95751">
        <ele>1019.6</ele>
        <time>2021-10-17T13:36:40Z</time>
      </trkpt>
      <trkpt lat="46.45663" lon="5.95742">
        <ele>1019</ele>
        <time>2021-10-17T13:36:41Z</time>
      </trkpt>
      <trkpt lat="46.45671" lon="5.95735">
        <ele>1018.6</ele>
        <time>2021-10-17T13:36:42Z</time>
      </trkpt>
      <trkpt lat="46.45679" lon="5.9573">
        <ele>1018</ele>
        <time>2021-10-17T13:36:43Z</time>
      </trkpt>
      <trkpt lat="46.45687" lon="5.95725">
        <ele>1017.6</ele>
        <time>2021-10-17T13:36:44Z</time>
      </trkpt>
      <trkpt lat="46.45694" lon="5.95719">
        <ele>1017</ele>
        <time>2021-10-17T13:36:45Z</time>
      </trkpt>
      <trkpt lat="46.45701" lon="5.95713">
        <ele>1016.4</ele>
        <time>2021-10-17T13:36:46Z</time>
      </trkpt>
      <trkpt lat="46.45707" lon="5.95705">
        <ele>1016</ele>
        <time>2021-10-17T13:36:47Z</time>
      </trkpt>
      <trkpt lat="46.45711" lon="5.95695">
        <ele>1015.4</ele>
        <time>2021-10-17T13:36:48Z</time>
      </trkpt>
      <trkpt lat="46.45714" lon="5.95685">
        <ele>1015</ele>
        <time>2021-10-17T13:36:49Z</time>
      </trkpt>
      <trkpt lat="46.45716" lon="5.95674">
        <ele>1014.8</ele>
        <time>2021-10-17T13:36:50Z</time>
      </trkpt>
      <trkpt lat="46.45718" lon="5.95663">
        <ele>1014.4</ele>
        <time>2021-10-17T13:36:51Z</time>
      </trkpt>
      <trkpt lat="46.45718" lon="5.95652">
        <ele>1014.4</ele>
        <time>2021-10-17T13:36:52Z</time>
      </trkpt>
      <trkpt lat="46.45718" lon="5.9564">
        <ele>1014.2</ele>
        <time>2021-10-17T13:36:53Z</time>
      </trkpt>
      <trkpt lat="46.45717" lon="5.95629">
        <ele>1013.8</ele>
        <time>2021-10-17T13:36:54Z</time>
      </trkpt>
      <trkpt lat="46.45715" lon="5.95617">
        <ele>1013.6</ele>
        <time>2021-10-17T13:36:55Z</time>
      </trkpt>
      <trkpt lat="46.45713" lon="5.95606">
        <ele>1013.2</ele>
        <time>2021-10-17T13:36:56Z</time>
      </trkpt>
      <trkpt lat="46.4571" lon="5.95595">
        <ele>1013</ele>
        <time>2021-10-17T13:36:57Z</time>
      </trkpt>
      <trkpt lat="46.45708" lon="5.95584">
        <ele>1012.8</ele>
        <time>2021-10-17T13:36:58Z</time>
      </trkpt>
      <trkpt lat="46.45708" lon="5.95572">
        <ele>1012.4</ele>
        <time>2021-10-17T13:36:59Z</time>
      </trkpt>
      <trkpt lat="46.45708" lon="5.9556">
        <ele>1012.2</ele>
        <time>2021-10-17T13:37:00Z</time>
      </trkpt>
      <trkpt lat="46.45709" lon="5.95547">
        <ele>1011.8</ele>
        <time>2021-10-17T13:37:01Z</time>
      </trkpt>
      <trkpt lat="46.4571" lon="5.95534">
        <ele>1011.4</ele>
        <time>2021-10-17T13:37:02Z</time>
      </trkpt>
      <trkpt lat="46.45711" lon="5.95521">
        <ele>1011</ele>
        <time>2021-10-17T13:37:03Z</time>
      </trkpt>
      <trkpt lat="46.45711" lon="5.95508">
        <ele>1010.6</ele>
        <time>2021-10-17T13:37:04Z</time>
      </trkpt>
      <trkpt lat="46.45711" lon="5.95495">
        <ele>1010.2</ele>
        <time>2021-10-17T13:37:05Z</time>
      </trkpt>
      <trkpt lat="46.4571" lon="5.9548">
        <ele>1009.6</ele>
        <time>2021-10-17T13:37:06Z</time>
      </trkpt>
      <trkpt lat="46.45709" lon="5.95466">
        <ele>1009.2</ele>
        <time>2021-10-17T13:37:07Z</time>
      </trkpt>
      <trkpt lat="46.45708" lon="5.95451">
        <ele>1008.6</ele>
        <time>2021-10-17T13:37:08Z</time>
      </trkpt>
      <trkpt lat="46.45705" lon="5.95436">
        <ele>1008</ele>
        <time>2021-10-17T13:37:09Z</time>
      </trkpt>
      <trkpt lat="46.45702" lon="5.95422">
        <ele>1007.6</ele>
        <time>2021-10-17T13:37:10Z</time>
      </trkpt>
      <trkpt lat="46.45699" lon="5.95408">
        <ele>1007.2</ele>
        <time>2021-10-17T13:37:11Z</time>
      </trkpt>
      <trkpt lat="46.45697" lon="5.95394">
        <ele>1006.6</ele>
        <time>2021-10-17T13:37:12Z</time>
      </trkpt>
      <trkpt lat="46.45694" lon="5.9538">
        <ele>1006.2</ele>
        <time>2021-10-17T13:37:13Z</time>
      </trkpt>
      <trkpt lat="46.45691" lon="5.95366">
        <ele>1005.6</ele>
        <time>2021-10-17T13:37:14Z</time>
      </trkpt>
      <trkpt lat="46.45687" lon="5.95353">
        <ele>1005</ele>
        <time>2021-10-17T13:37:15Z</time>
      </trkpt>
      <trkpt lat="46.45683" lon="5.95339">
        <ele>1004.4</ele>
        <time>2021-10-17T13:37:16Z</time>
      </trkpt>
      <trkpt lat="46.4568" lon="5.95326">
        <ele>1004</ele>
        <time>2021-10-17T13:37:17Z</time>
      </trkpt>
      <trkpt lat="46.45677" lon="5.95312">
        <ele>1003.4</ele>
        <time>2021-10-17T13:37:18Z</time>
      </trkpt>
      <trkpt lat="46.45673" lon="5.95298">
        <ele>1002.8</ele>
        <time>2021-10-17T13:37:19Z</time>
      </trkpt>
      <trkpt lat="46.45669" lon="5.95282">
        <ele>1002.4</ele>
        <time>2021-10-17T13:37:20Z</time>
      </trkpt>
      <trkpt lat="46.45666" lon="5.95267">
        <ele>1001.8</ele>
        <time>2021-10-17T13:37:21Z</time>
      </trkpt>
      <trkpt lat="46.45662" lon="5.95253">
        <ele>1001.2</ele>
        <time>2021-10-17T13:37:22Z</time>
      </trkpt>
      <trkpt lat="46.45659" lon="5.95238">
        <ele>1000.4</ele>
        <time>2021-10-17T13:37:23Z</time>
      </trkpt>
      <trkpt lat="46.45656" lon="5.95222">
        <ele>999.8</ele>
        <time>2021-10-17T13:37:24Z</time>
      </trkpt>
      <trkpt lat="46.45653" lon="5.95207">
        <ele>999.2</ele>
        <time>2021-10-17T13:37:25Z</time>
      </trkpt>
      <trkpt lat="46.4565" lon="5.95192">
        <ele>998.6</ele>
        <time>2021-10-17T13:37:26Z</time>
      </trkpt>
      <trkpt lat="46.45648" lon="5.95176">
        <ele>997.8</ele>
        <time>2021-10-17T13:37:27Z</time>
      </trkpt>
      <trkpt lat="46.45647" lon="5.95161">
        <ele>997.2</ele>
        <time>2021-10-17T13:37:28Z</time>
      </trkpt>
      <trkpt lat="46.45646" lon="5.95144">
        <ele>996.6</ele>
        <time>2021-10-17T13:37:29Z</time>
      </trkpt>
      <trkpt lat="46.45647" lon="5.95127">
        <ele>996</ele>
        <time>2021-10-17T13:37:30Z</time>
      </trkpt>
      <trkpt lat="46.45647" lon="5.95111">
        <ele>995.4</ele>
        <time>2021-10-17T13:37:31Z</time>
      </trkpt>
      <trkpt lat="46.45646" lon="5.95095">
        <ele>994.8</ele>
        <time>2021-10-17T13:37:32Z</time>
      </trkpt>
      <trkpt lat="46.45647" lon="5.95078">
        <ele>994.2</ele>
        <time>2021-10-17T13:37:33Z</time>
      </trkpt>
      <trkpt lat="46.45647" lon="5.95062">
        <ele>993.6</ele>
        <time>2021-10-17T13:37:34Z</time>
      </trkpt>
      <trkpt lat="46.45647" lon="5.95046">
        <ele>993.2</ele>
        <time>2021-10-17T13:37:35Z</time>
      </trkpt>
      <trkpt lat="46.45647" lon="5.9503">
        <ele>992.6</ele>
        <time>2021-10-17T13:37:36Z</time>
      </trkpt>
      <trkpt lat="46.45647" lon="5.95015">
        <ele>992.2</ele>
        <time>2021-10-17T13:37:37Z</time>
      </trkpt>
      <trkpt lat="46.45648" lon="5.95">
        <ele>991.8</ele>
        <time>2021-10-17T13:37:38Z</time>
      </trkpt>
      <trkpt lat="46.45649" lon="5.94986">
        <ele>991.4</ele>
        <time>2021-10-17T13:37:39Z</time>
      </trkpt>
      <trkpt lat="46.45653" lon="5.94971">
        <ele>990.8</ele>
        <time>2021-10-17T13:37:40Z</time>
      </trkpt>
      <trkpt lat="46.45657" lon="5.94957">
        <ele>990.4</ele>
        <time>2021-10-17T13:37:41Z</time>
      </trkpt>
      <trkpt lat="46.45662" lon="5.94944">
        <ele>989.6</ele>
        <time>2021-10-17T13:37:42Z</time>
      </trkpt>
      <trkpt lat="46.45668" lon="5.94931">
        <ele>989</ele>
        <time>2021-10-17T13:37:43Z</time>
      </trkpt>
      <trkpt lat="46.45675" lon="5.94919">
        <ele>988.2</ele>
        <time>2021-10-17T13:37:44Z</time>
      </trkpt>
      <trkpt lat="46.45682" lon="5.94907">
        <ele>987.4</ele>
        <time>2021-10-17T13:37:45Z</time>
      </trkpt>
      <trkpt lat="46.45688" lon="5.94895">
        <ele>986.4</ele>
        <time>2021-10-17T13:37:46Z</time>
      </trkpt>
      <trkpt lat="46.45695" lon="5.94882">
        <ele>985.4</ele>
        <time>2021-10-17T13:37:47Z</time>
      </trkpt>
      <trkpt lat="46.45701" lon="5.94866">
        <ele>984.2</ele>
        <time>2021-10-17T13:37:48Z</time>
      </trkpt>
      <trkpt lat="46.45705" lon="5.94849">
        <ele>983.2</ele>
        <time>2021-10-17T13:37:49Z</time>
      </trkpt>
      <trkpt lat="46.45708" lon="5.94832">
        <ele>982.4</ele>
        <time>2021-10-17T13:37:50Z</time>
      </trkpt>
      <trkpt lat="46.45709" lon="5.94814">
        <ele>981.6</ele>
        <time>2021-10-17T13:37:51Z</time>
      </trkpt>
      <trkpt lat="46.4571" lon="5.94798">
        <ele>980.8</ele>
        <time>2021-10-17T13:37:52Z</time>
      </trkpt>
      <trkpt lat="46.4571" lon="5.94782">
        <ele>980.4</ele>
        <time>2021-10-17T13:37:53Z</time>
      </trkpt>
      <trkpt lat="46.4571" lon="5.94768">
        <ele>979.8</ele>
        <time>2021-10-17T13:37:54Z</time>
      </trkpt>
      <trkpt lat="46.4571" lon="5.94754">
        <ele>979.4</ele>
        <time>2021-10-17T13:37:55Z</time>
      </trkpt>
      <trkpt lat="46.45711" lon="5.9474">
        <ele>979</ele>
        <time>2021-10-17T13:37:56Z</time>
      </trkpt>
      <trkpt lat="46.45713" lon="5.94728">
        <ele>978.6</ele>
        <time>2021-10-17T13:37:57Z</time>
      </trkpt>
      <trkpt lat="46.45715" lon="5.94715">
        <ele>978</ele>
        <time>2021-10-17T13:37:58Z</time>
      </trkpt>
      <trkpt lat="46.45717" lon="5.94702">
        <ele>977.6</ele>
        <time>2021-10-17T13:37:59Z</time>
      </trkpt>
      <trkpt lat="46.4572" lon="5.94689">
        <ele>977</ele>
        <time>2021-10-17T13:38:00Z</time>
      </trkpt>
      <trkpt lat="46.45723" lon="5.94675">
        <ele>976.4</ele>
        <time>2021-10-17T13:38:01Z</time>
      </trkpt>
      <trkpt lat="46.45727" lon="5.94663">
        <ele>975.8</ele>
        <time>2021-10-17T13:38:02Z</time>
      </trkpt>
      <trkpt lat="46.45732" lon="5.94651">
        <ele>975.4</ele>
        <time>2021-10-17T13:38:03Z</time>
      </trkpt>
      <trkpt lat="46.45738" lon="5.94639">
        <ele>975</ele>
        <time>2021-10-17T13:38:04Z</time>
      </trkpt>
      <trkpt lat="46.45745" lon="5.94629">
        <ele>974.6</ele>
        <time>2021-10-17T13:38:05Z</time>
      </trkpt>
      <trkpt lat="46.45752" lon="5.94619">
        <ele>974.2</ele>
        <time>2021-10-17T13:38:06Z</time>
      </trkpt>
      <trkpt lat="46.45759" lon="5.9461">
        <ele>974</ele>
        <time>2021-10-17T13:38:07Z</time>
      </trkpt>
      <trkpt lat="46.45766" lon="5.94601">
        <ele>973.6</ele>
        <time>2021-10-17T13:38:08Z</time>
      </trkpt>
      <trkpt lat="46.45773" lon="5.94593">
        <ele>973.2</ele>
        <time>2021-10-17T13:38:09Z</time>
      </trkpt>
      <trkpt lat="46.45781" lon="5.94585">
        <ele>972.8</ele>
        <time>2021-10-17T13:38:10Z</time>
      </trkpt>
      <trkpt lat="46.45789" lon="5.94577">
        <ele>972.2</ele>
        <time>2021-10-17T13:38:11Z</time>
      </trkpt>
      <trkpt lat="46.45797" lon="5.9457">
        <ele>971.6</ele>
        <time>2021-10-17T13:38:12Z</time>
      </trkpt>
      <trkpt lat="46.45804" lon="5.94562">
        <ele>971.2</ele>
        <time>2021-10-17T13:38:13Z</time>
      </trkpt>
      <trkpt lat="46.4581" lon="5.94553">
        <ele>970.6</ele>
        <time>2021-10-17T13:38:14Z</time>
      </trkpt>
      <trkpt lat="46.45816" lon="5.94543">
        <ele>970</ele>
        <time>2021-10-17T13:38:15Z</time>
      </trkpt>
      <trkpt lat="46.45821" lon="5.94532">
        <ele>969.4</ele>
        <time>2021-10-17T13:38:16Z</time>
      </trkpt>
      <trkpt lat="46.45824" lon="5.9452">
        <ele>968.6</ele>
        <time>2021-10-17T13:38:17Z</time>
      </trkpt>
      <trkpt lat="46.45826" lon="5.94507">
        <ele>967.8</ele>
        <time>2021-10-17T13:38:18Z</time>
      </trkpt>
      <trkpt lat="46.45824" lon="5.94491">
        <ele>967.2</ele>
        <time>2021-10-17T13:38:19Z</time>
      </trkpt>
      <trkpt lat="46.45821" lon="5.94478">
        <ele>966.6</ele>
        <time>2021-10-17T13:38:20Z</time>
      </trkpt>
      <trkpt lat="46.45816" lon="5.94465">
        <ele>966</ele>
        <time>2021-10-17T13:38:21Z</time>
      </trkpt>
      <trkpt lat="46.45809" lon="5.94453">
        <ele>965.6</ele>
        <time>2021-10-17T13:38:22Z</time>
      </trkpt>
      <trkpt lat="46.45802" lon="5.94443">
        <ele>965.2</ele>
        <time>2021-10-17T13:38:23Z</time>
      </trkpt>
      <trkpt lat="46.45793" lon="5.94435">
        <ele>964.8</ele>
        <time>2021-10-17T13:38:24Z</time>
      </trkpt>
      <trkpt lat="46.45784" lon="5.94427">
        <ele>964.4</ele>
        <time>2021-10-17T13:38:25Z</time>
      </trkpt>
      <trkpt lat="46.45775" lon="5.9442">
        <ele>964</ele>
        <time>2021-10-17T13:38:26Z</time>
      </trkpt>
      <trkpt lat="46.45766" lon="5.94414">
        <ele>963.8</ele>
        <time>2021-10-17T13:38:27Z</time>
      </trkpt>
      <trkpt lat="46.45757" lon="5.94407">
        <ele>963.4</ele>
        <time>2021-10-17T13:38:28Z</time>
      </trkpt>
      <trkpt lat="46.45749" lon="5.944">
        <ele>963</ele>
        <time>2021-10-17T13:38:29Z</time>
      </trkpt>
      <trkpt lat="46.4574" lon="5.94392">
        <ele>962.8</ele>
        <time>2021-10-17T13:38:30Z</time>
      </trkpt>
      <trkpt lat="46.45733" lon="5.94384">
        <ele>962.4</ele>
        <time>2021-10-17T13:38:31Z</time>
      </trkpt>
      <trkpt lat="46.45726" lon="5.94375">
        <ele>962</ele>
        <time>2021-10-17T13:38:32Z</time>
      </trkpt>
      <trkpt lat="46.4572" lon="5.94367">
        <ele>961.8</ele>
        <time>2021-10-17T13:38:33Z</time>
      </trkpt>
      <trkpt lat="46.45713" lon="5.94357">
        <ele>961.4</ele>
        <time>2021-10-17T13:38:34Z</time>
      </trkpt>
      <trkpt lat="46.45708" lon="5.94346">
        <ele>961.2</ele>
        <time>2021-10-17T13:38:35Z</time>
      </trkpt>
      <trkpt lat="46.45703" lon="5.94334">
        <ele>960.8</ele>
        <time>2021-10-17T13:38:36Z</time>
      </trkpt>
      <trkpt lat="46.45698" lon="5.94322">
        <ele>960.6</ele>
        <time>2021-10-17T13:38:37Z</time>
      </trkpt>
      <trkpt lat="46.45694" lon="5.94309">
        <ele>960.4</ele>
        <time>2021-10-17T13:38:38Z</time>
      </trkpt>
      <trkpt lat="46.4569" lon="5.94296">
        <ele>960.2</ele>
        <time>2021-10-17T13:38:39Z</time>
      </trkpt>
      <trkpt lat="46.45687" lon="5.94283">
        <ele>959.8</ele>
        <time>2021-10-17T13:38:40Z</time>
      </trkpt>
      <trkpt lat="46.45684" lon="5.94271">
        <ele>959.6</ele>
        <time>2021-10-17T13:38:41Z</time>
      </trkpt>
      <trkpt lat="46.45681" lon="5.94259">
        <ele>959.2</ele>
        <time>2021-10-17T13:38:42Z</time>
      </trkpt>
      <trkpt lat="46.45678" lon="5.94246">
        <ele>958.8</ele>
        <time>2021-10-17T13:38:43Z</time>
      </trkpt>
      <trkpt lat="46.45675" lon="5.94234">
        <ele>958.4</ele>
        <time>2021-10-17T13:38:44Z</time>
      </trkpt>
      <trkpt lat="46.45672" lon="5.94222">
        <ele>958</ele>
        <time>2021-10-17T13:38:45Z</time>
      </trkpt>
      <trkpt lat="46.4567" lon="5.9421">
        <ele>957.6</ele>
        <time>2021-10-17T13:38:46Z</time>
      </trkpt>
      <trkpt lat="46.45667" lon="5.94196">
        <ele>957.2</ele>
        <time>2021-10-17T13:38:47Z</time>
      </trkpt>
      <trkpt lat="46.45664" lon="5.94181">
        <ele>956.6</ele>
        <time>2021-10-17T13:38:48Z</time>
      </trkpt>
      <trkpt lat="46.45662" lon="5.94168">
        <ele>956</ele>
        <time>2021-10-17T13:38:49Z</time>
      </trkpt>
      <trkpt lat="46.45658" lon="5.94154">
        <ele>955.4</ele>
        <time>2021-10-17T13:38:50Z</time>
      </trkpt>
      <trkpt lat="46.45654" lon="5.9414">
        <ele>955</ele>
        <time>2021-10-17T13:38:51Z</time>
      </trkpt>
      <trkpt lat="46.45651" lon="5.94126">
        <ele>954.6</ele>
        <time>2021-10-17T13:38:52Z</time>
      </trkpt>
      <trkpt lat="46.45647" lon="5.94113">
        <ele>954.2</ele>
        <time>2021-10-17T13:38:53Z</time>
      </trkpt>
      <trkpt lat="46.45643" lon="5.94099">
        <ele>953.8</ele>
        <time>2021-10-17T13:38:54Z</time>
      </trkpt>
      <trkpt lat="46.45639" lon="5.94086">
        <ele>953.4</ele>
        <time>2021-10-17T13:38:55Z</time>
      </trkpt>
      <trkpt lat="46.45636" lon="5.94073">
        <ele>953</ele>
        <time>2021-10-17T13:38:56Z</time>
      </trkpt>
      <trkpt lat="46.45634" lon="5.94061">
        <ele>952.4</ele>
        <time>2021-10-17T13:38:57Z</time>
      </trkpt>
      <trkpt lat="46.45632" lon="5.9405">
        <ele>952</ele>
        <time>2021-10-17T13:38:58Z</time>
      </trkpt>
      <trkpt lat="46.4563" lon="5.9404">
        <ele>951.6</ele>
        <time>2021-10-17T13:38:59Z</time>
      </trkpt>
      <trkpt lat="46.4563" lon="5.9403">
        <ele>951</ele>
        <time>2021-10-17T13:39:00Z</time>
      </trkpt>
      <trkpt lat="46.45632" lon="5.94021">
        <ele>950.6</ele>
        <time>2021-10-17T13:39:01Z</time>
      </trkpt>
      <trkpt lat="46.45635" lon="5.94011">
        <ele>950.2</ele>
        <time>2021-10-17T13:39:02Z</time>
      </trkpt>
      <trkpt lat="46.45639" lon="5.94004">
        <ele>949.6</ele>
        <time>2021-10-17T13:39:03Z</time>
      </trkpt>
      <trkpt lat="46.45644" lon="5.93998">
        <ele>949.2</ele>
        <time>2021-10-17T13:39:04Z</time>
      </trkpt>
      <trkpt lat="46.4565" lon="5.93994">
        <ele>948.6</ele>
        <time>2021-10-17T13:39:05Z</time>
      </trkpt>
      <trkpt lat="46.45656" lon="5.93992">
        <ele>948.2</ele>
        <time>2021-10-17T13:39:06Z</time>
      </trkpt>
      <trkpt lat="46.45662" lon="5.93992">
        <ele>947.6</ele>
        <time>2021-10-17T13:39:07Z</time>
      </trkpt>
      <trkpt lat="46.45669" lon="5.93995">
        <ele>947.2</ele>
        <time>2021-10-17T13:39:08Z</time>
      </trkpt>
      <trkpt lat="46.45675" lon="5.93999">
        <ele>946.8</ele>
        <time>2021-10-17T13:39:09Z</time>
      </trkpt>
      <trkpt lat="46.45682" lon="5.94006">
        <ele>946.4</ele>
        <time>2021-10-17T13:39:10Z</time>
      </trkpt>
      <trkpt lat="46.45687" lon="5.94014">
        <ele>946</ele>
        <time>2021-10-17T13:39:11Z</time>
      </trkpt>
      <trkpt lat="46.45692" lon="5.94023">
        <ele>945.6</ele>
        <time>2021-10-17T13:39:12Z</time>
      </trkpt>
      <trkpt lat="46.45697" lon="5.94033">
        <ele>945.2</ele>
        <time>2021-10-17T13:39:13Z</time>
      </trkpt>
      <trkpt lat="46.45703" lon="5.94042">
        <ele>944.6</ele>
        <time>2021-10-17T13:39:14Z</time>
      </trkpt>
      <trkpt lat="46.45708" lon="5.94052">
        <ele>944.2</ele>
        <time>2021-10-17T13:39:15Z</time>
      </trkpt>
      <trkpt lat="46.45713" lon="5.94063">
        <ele>943.8</ele>
        <time>2021-10-17T13:39:16Z</time>
      </trkpt>
      <trkpt lat="46.45719" lon="5.94073">
        <ele>943.4</ele>
        <time>2021-10-17T13:39:17Z</time>
      </trkpt>
      <trkpt lat="46.45725" lon="5.94083">
        <ele>943</ele>
        <time>2021-10-17T13:39:18Z</time>
      </trkpt>
      <trkpt lat="46.45732" lon="5.94093">
        <ele>942.6</ele>
        <time>2021-10-17T13:39:19Z</time>
      </trkpt>
      <trkpt lat="46.45739" lon="5.94102">
        <ele>942.2</ele>
        <time>2021-10-17T13:39:20Z</time>
      </trkpt>
      <trkpt lat="46.45748" lon="5.94109">
        <ele>941.6</ele>
        <time>2021-10-17T13:39:21Z</time>
      </trkpt>
      <trkpt lat="46.45756" lon="5.94114">
        <ele>941.2</ele>
        <time>2021-10-17T13:39:22Z</time>
      </trkpt>
      <trkpt lat="46.45766" lon="5.94118">
        <ele>940.8</ele>
        <time>2021-10-17T13:39:23Z</time>
      </trkpt>
      <trkpt lat="46.45776" lon="5.94121">
        <ele>940.4</ele>
        <time>2021-10-17T13:39:24Z</time>
      </trkpt>
      <trkpt lat="46.45785" lon="5.94121">
        <ele>940.2</ele>
        <time>2021-10-17T13:39:25Z</time>
      </trkpt>
      <trkpt lat="46.45795" lon="5.94121">
        <ele>940</ele>
        <time>2021-10-17T13:39:26Z</time>
      </trkpt>
      <trkpt lat="46.45805" lon="5.94119">
        <ele>939.6</ele>
        <time>2021-10-17T13:39:27Z</time>
      </trkpt>
      <trkpt lat="46.45815" lon="5.94115">
        <ele>939.4</ele>
        <time>2021-10-17T13:39:28Z</time>
      </trkpt>
      <trkpt lat="46.45823" lon="5.9411">
        <ele>939</ele>
        <time>2021-10-17T13:39:29Z</time>
      </trkpt>
      <trkpt lat="46.45832" lon="5.94104">
        <ele>938.8</ele>
        <time>2021-10-17T13:39:30Z</time>
      </trkpt>
      <trkpt lat="46.4584" lon="5.941">
        <ele>938.8</ele>
        <time>2021-10-17T13:39:31Z</time>
      </trkpt>
      <trkpt lat="46.45849" lon="5.94098">
        <ele>938.4</ele>
        <time>2021-10-17T13:39:32Z</time>
      </trkpt>
      <trkpt lat="46.45857" lon="5.94097">
        <ele>938.2</ele>
        <time>2021-10-17T13:39:33Z</time>
      </trkpt>
      <trkpt lat="46.45866" lon="5.94098">
        <ele>938</ele>
        <time>2021-10-17T13:39:34Z</time>
      </trkpt>
      <trkpt lat="46.45875" lon="5.941">
        <ele>938</ele>
        <time>2021-10-17T13:39:35Z</time>
      </trkpt>
      <trkpt lat="46.45883" lon="5.94105">
        <ele>937.6</ele>
        <time>2021-10-17T13:39:36Z</time>
      </trkpt>
      <trkpt lat="46.45892" lon="5.94109">
        <ele>937.6</ele>
        <time>2021-10-17T13:39:37Z</time>
      </trkpt>
      <trkpt lat="46.459" lon="5.94114">
        <ele>937.4</ele>
        <time>2021-10-17T13:39:38Z</time>
      </trkpt>
      <trkpt lat="46.45908" lon="5.94119">
        <ele>937.4</ele>
        <time>2021-10-17T13:39:39Z</time>
      </trkpt>
      <trkpt lat="46.45915" lon="5.94124">
        <ele>937</ele>
        <time>2021-10-17T13:39:40Z</time>
      </trkpt>
      <trkpt lat="46.45923" lon="5.94127">
        <ele>937</ele>
        <time>2021-10-17T13:39:41Z</time>
      </trkpt>
      <trkpt lat="46.45931" lon="5.94129">
        <ele>936.6</ele>
        <time>2021-10-17T13:39:42Z</time>
      </trkpt>
      <trkpt lat="46.45939" lon="5.9413">
        <ele>936.2</ele>
        <time>2021-10-17T13:39:43Z</time>
      </trkpt>
      <trkpt lat="46.45948" lon="5.94129">
        <ele>936</ele>
        <time>2021-10-17T13:39:44Z</time>
      </trkpt>
      <trkpt lat="46.45957" lon="5.94127">
        <ele>935.6</ele>
        <time>2021-10-17T13:39:45Z</time>
      </trkpt>
      <trkpt lat="46.45966" lon="5.94125">
        <ele>935.4</ele>
        <time>2021-10-17T13:39:46Z</time>
      </trkpt>
      <trkpt lat="46.45974" lon="5.94121">
        <ele>935.2</ele>
        <time>2021-10-17T13:39:47Z</time>
      </trkpt>
      <trkpt lat="46.45982" lon="5.94117">
        <ele>935.2</ele>
        <time>2021-10-17T13:39:48Z</time>
      </trkpt>
      <trkpt lat="46.4599" lon="5.94112">
        <ele>934.8</ele>
        <time>2021-10-17T13:39:49Z</time>
      </trkpt>
      <trkpt lat="46.45999" lon="5.94109">
        <ele>934.4</ele>
        <time>2021-10-17T13:39:50Z</time>
      </trkpt>
      <trkpt lat="46.46008" lon="5.94106">
        <ele>934.2</ele>
        <time>2021-10-17T13:39:51Z</time>
      </trkpt>
      <trkpt lat="46.46016" lon="5.94106">
        <ele>933.8</ele>
        <time>2021-10-17T13:39:52Z</time>
      </trkpt>
      <trkpt lat="46.46025" lon="5.94108">
        <ele>933.4</ele>
        <time>2021-10-17T13:39:53Z</time>
      </trkpt>
      <trkpt lat="46.46035" lon="5.94112">
        <ele>933</ele>
        <time>2021-10-17T13:39:54Z</time>
      </trkpt>
      <trkpt lat="46.46044" lon="5.94115">
        <ele>932.6</ele>
        <time>2021-10-17T13:39:55Z</time>
      </trkpt>
      <trkpt lat="46.46053" lon="5.94117">
        <ele>932.2</ele>
        <time>2021-10-17T13:39:56Z</time>
      </trkpt>
      <trkpt lat="46.46063" lon="5.94117">
        <ele>931.8</ele>
        <time>2021-10-17T13:39:57Z</time>
      </trkpt>
      <trkpt lat="46.46073" lon="5.94114">
        <ele>931.2</ele>
        <time>2021-10-17T13:39:58Z</time>
      </trkpt>
      <trkpt lat="46.46082" lon="5.94111">
        <ele>930.8</ele>
        <time>2021-10-17T13:39:59Z</time>
      </trkpt>
      <trkpt lat="46.4609" lon="5.94105">
        <ele>930.4</ele>
        <time>2021-10-17T13:40:00Z</time>
      </trkpt>
      <trkpt lat="46.46097" lon="5.94096">
        <ele>930.2</ele>
        <time>2021-10-17T13:40:01Z</time>
      </trkpt>
      <trkpt lat="46.46104" lon="5.94086">
        <ele>929.8</ele>
        <time>2021-10-17T13:40:02Z</time>
      </trkpt>
      <trkpt lat="46.46109" lon="5.94076">
        <ele>929.6</ele>
        <time>2021-10-17T13:40:03Z</time>
      </trkpt>
      <trkpt lat="46.46114" lon="5.94064">
        <ele>929</ele>
        <time>2021-10-17T13:40:04Z</time>
      </trkpt>
      <trkpt lat="46.46118" lon="5.94053">
        <ele>928.8</ele>
        <time>2021-10-17T13:40:05Z</time>
      </trkpt>
      <trkpt lat="46.46123" lon="5.94041">
        <ele>928.2</ele>
        <time>2021-10-17T13:40:06Z</time>
      </trkpt>
      <trkpt lat="46.46126" lon="5.94028">
        <ele>927.8</ele>
        <time>2021-10-17T13:40:07Z</time>
      </trkpt>
      <trkpt lat="46.46127" lon="5.94015">
        <ele>927.2</ele>
        <time>2021-10-17T13:40:08Z</time>
      </trkpt>
      <trkpt lat="46.46128" lon="5.94002">
        <ele>926.6</ele>
        <time>2021-10-17T13:40:09Z</time>
      </trkpt>
      <trkpt lat="46.46128" lon="5.93988">
        <ele>926</ele>
        <time>2021-10-17T13:40:10Z</time>
      </trkpt>
      <trkpt lat="46.46126" lon="5.93974">
        <ele>925.4</ele>
        <time>2021-10-17T13:40:11Z</time>
      </trkpt>
      <trkpt lat="46.46122" lon="5.93961">
        <ele>924.6</ele>
        <time>2021-10-17T13:40:12Z</time>
      </trkpt>
      <trkpt lat="46.46117" lon="5.93948">
        <ele>924</ele>
        <time>2021-10-17T13:40:13Z</time>
      </trkpt>
      <trkpt lat="46.4611" lon="5.93936">
        <ele>923.4</ele>
        <time>2021-10-17T13:40:14Z</time>
      </trkpt>
      <trkpt lat="46.46104" lon="5.93924">
        <ele>922.8</ele>
        <time>2021-10-17T13:40:15Z</time>
      </trkpt>
      <trkpt lat="46.46097" lon="5.93911">
        <ele>922.2</ele>
        <time>2021-10-17T13:40:16Z</time>
      </trkpt>
      <trkpt lat="46.4609" lon="5.93899">
        <ele>921.6</ele>
        <time>2021-10-17T13:40:17Z</time>
      </trkpt>
      <trkpt lat="46.46083" lon="5.93888">
        <ele>921</ele>
        <time>2021-10-17T13:40:18Z</time>
      </trkpt>
      <trkpt lat="46.46076" lon="5.93876">
        <ele>920.4</ele>
        <time>2021-10-17T13:40:19Z</time>
      </trkpt>
      <trkpt lat="46.46069" lon="5.93863">
        <ele>919.8</ele>
        <time>2021-10-17T13:40:20Z</time>
      </trkpt>
      <trkpt lat="46.46062" lon="5.93851">
        <ele>919</ele>
        <time>2021-10-17T13:40:21Z</time>
      </trkpt>
      <trkpt lat="46.46055" lon="5.93839">
        <ele>918.4</ele>
        <time>2021-10-17T13:40:22Z</time>
      </trkpt>
      <trkpt lat="46.46049" lon="5.93827">
        <ele>917.8</ele>
        <time>2021-10-17T13:40:23Z</time>
      </trkpt>
      <trkpt lat="46.46043" lon="5.93816">
        <ele>917.2</ele>
        <time>2021-10-17T13:40:24Z</time>
      </trkpt>
      <trkpt lat="46.46037" lon="5.93803">
        <ele>916.6</ele>
        <time>2021-10-17T13:40:25Z</time>
      </trkpt>
      <trkpt lat="46.46035" lon="5.93793">
        <ele>916</ele>
        <time>2021-10-17T13:40:26Z</time>
      </trkpt>
      <trkpt lat="46.46031" lon="5.93781">
        <ele>915.6</ele>
        <time>2021-10-17T13:40:27Z</time>
      </trkpt>
      <trkpt lat="46.46029" lon="5.93768">
        <ele>915</ele>
        <time>2021-10-17T13:40:28Z</time>
      </trkpt>
      <trkpt lat="46.46028" lon="5.93754">
        <ele>914.4</ele>
        <time>2021-10-17T13:40:29Z</time>
      </trkpt>
      <trkpt lat="46.46029" lon="5.9374">
        <ele>913.8</ele>
        <time>2021-10-17T13:40:30Z</time>
      </trkpt>
      <trkpt lat="46.46031" lon="5.93727">
        <ele>913.4</ele>
        <time>2021-10-17T13:40:31Z</time>
      </trkpt>
      <trkpt lat="46.46034" lon="5.93715">
        <ele>912.8</ele>
        <time>2021-10-17T13:40:32Z</time>
      </trkpt>
      <trkpt lat="46.46035" lon="5.93704">
        <ele>912.4</ele>
        <time>2021-10-17T13:40:33Z</time>
      </trkpt>
      <trkpt lat="46.46037" lon="5.93694">
        <ele>912</ele>
        <time>2021-10-17T13:40:34Z</time>
      </trkpt>
      <trkpt lat="46.46038" lon="5.93683">
        <ele>911.8</ele>
        <time>2021-10-17T13:40:35Z</time>
      </trkpt>
      <trkpt lat="46.46039" lon="5.93672">
        <ele>911.4</ele>
        <time>2021-10-17T13:40:36Z</time>
      </trkpt>
      <trkpt lat="46.46039" lon="5.93661">
        <ele>911</ele>
        <time>2021-10-17T13:40:37Z</time>
      </trkpt>
      <trkpt lat="46.4604" lon="5.93649">
        <ele>910.4</ele>
        <time>2021-10-17T13:40:38Z</time>
      </trkpt>
      <trkpt lat="46.4604" lon="5.93637">
        <ele>910</ele>
        <time>2021-10-17T13:40:39Z</time>
      </trkpt>
      <trkpt lat="46.4604" lon="5.93625">
        <ele>909.4</ele>
        <time>2021-10-17T13:40:40Z</time>
      </trkpt>
      <trkpt lat="46.46039" lon="5.93612">
        <ele>908.8</ele>
        <time>2021-10-17T13:40:41Z</time>
      </trkpt>
      <trkpt lat="46.46038" lon="5.936">
        <ele>908.4</ele>
        <time>2021-10-17T13:40:42Z</time>
      </trkpt>
      <trkpt lat="46.46036" lon="5.93586">
        <ele>907.8</ele>
        <time>2021-10-17T13:40:43Z</time>
      </trkpt>
      <trkpt lat="46.46033" lon="5.93573">
        <ele>907.4</ele>
        <time>2021-10-17T13:40:44Z</time>
      </trkpt>
      <trkpt lat="46.4603" lon="5.9356">
        <ele>907</ele>
        <time>2021-10-17T13:40:45Z</time>
      </trkpt>
      <trkpt lat="46.46026" lon="5.93547">
        <ele>906.2</ele>
        <time>2021-10-17T13:40:46Z</time>
      </trkpt>
      <trkpt lat="46.46024" lon="5.93532">
        <ele>905.8</ele>
        <time>2021-10-17T13:40:47Z</time>
      </trkpt>
      <trkpt lat="46.46022" lon="5.93519">
        <ele>905.2</ele>
        <time>2021-10-17T13:40:48Z</time>
      </trkpt>
      <trkpt lat="46.4602" lon="5.93506">
        <ele>904.8</ele>
        <time>2021-10-17T13:40:49Z</time>
      </trkpt>
      <trkpt lat="46.4602" lon="5.93495">
        <ele>904.4</ele>
        <time>2021-10-17T13:40:50Z</time>
      </trkpt>
      <trkpt lat="46.46021" lon="5.93484">
        <ele>904</ele>
        <time>2021-10-17T13:40:51Z</time>
      </trkpt>
      <trkpt lat="46.46024" lon="5.93475">
        <ele>903.8</ele>
        <time>2021-10-17T13:40:52Z</time>
      </trkpt>
      <trkpt lat="46.46027" lon="5.93466">
        <ele>903.4</ele>
        <time>2021-10-17T13:40:53Z</time>
      </trkpt>
      <trkpt lat="46.46033" lon="5.93458">
        <ele>903</ele>
        <time>2021-10-17T13:40:54Z</time>
      </trkpt>
      <trkpt lat="46.4604" lon="5.93452">
        <ele>902.4</ele>
        <time>2021-10-17T13:40:55Z</time>
      </trkpt>
      <trkpt lat="46.46046" lon="5.93448">
        <ele>902</ele>
        <time>2021-10-17T13:40:56Z</time>
      </trkpt>
      <trkpt lat="46.46054" lon="5.93445">
        <ele>901.6</ele>
        <time>2021-10-17T13:40:57Z</time>
      </trkpt>
      <trkpt lat="46.46062" lon="5.93444">
        <ele>901.2</ele>
        <time>2021-10-17T13:40:58Z</time>
      </trkpt>
      <trkpt lat="46.4607" lon="5.93445">
        <ele>900.6</ele>
        <time>2021-10-17T13:40:59Z</time>
      </trkpt>
      <trkpt lat="46.46078" lon="5.93449">
        <ele>900.2</ele>
        <time>2021-10-17T13:41:00Z</time>
      </trkpt>
      <trkpt lat="46.46086" lon="5.93454">
        <ele>899.8</ele>
        <time>2021-10-17T13:41:01Z</time>
      </trkpt>
      <trkpt lat="46.46093" lon="5.93458">
        <ele>899.2</ele>
        <time>2021-10-17T13:41:02Z</time>
      </trkpt>
      <trkpt lat="46.46101" lon="5.93462">
        <ele>899</ele>
        <time>2021-10-17T13:41:03Z</time>
      </trkpt>
      <trkpt lat="46.46109" lon="5.93463">
        <ele>898.6</ele>
        <time>2021-10-17T13:41:04Z</time>
      </trkpt>
      <trkpt lat="46.46117" lon="5.93462">
        <ele>898.2</ele>
        <time>2021-10-17T13:41:05Z</time>
      </trkpt>
      <trkpt lat="46.46126" lon="5.93459">
        <ele>897.8</ele>
        <time>2021-10-17T13:41:06Z</time>
      </trkpt>
      <trkpt lat="46.46134" lon="5.93455">
        <ele>897.4</ele>
        <time>2021-10-17T13:41:07Z</time>
      </trkpt>
      <trkpt lat="46.46142" lon="5.93452">
        <ele>897</ele>
        <time>2021-10-17T13:41:08Z</time>
      </trkpt>
      <trkpt lat="46.46151" lon="5.93448">
        <ele>896.8</ele>
        <time>2021-10-17T13:41:09Z</time>
      </trkpt>
      <trkpt lat="46.46159" lon="5.93444">
        <ele>896.4</ele>
        <time>2021-10-17T13:41:10Z</time>
      </trkpt>
      <trkpt lat="46.46166" lon="5.93439">
        <ele>896.2</ele>
        <time>2021-10-17T13:41:11Z</time>
      </trkpt>
      <trkpt lat="46.46174" lon="5.93435">
        <ele>895.8</ele>
        <time>2021-10-17T13:41:12Z</time>
      </trkpt>
      <trkpt lat="46.46182" lon="5.93431">
        <ele>895.6</ele>
        <time>2021-10-17T13:41:13Z</time>
      </trkpt>
      <trkpt lat="46.4619" lon="5.93428">
        <ele>895.6</ele>
        <time>2021-10-17T13:41:14Z</time>
      </trkpt>
      <trkpt lat="46.46196" lon="5.93425">
        <ele>895.4</ele>
        <time>2021-10-17T13:41:15Z</time>
      </trkpt>
      <trkpt lat="46.46203" lon="5.93421">
        <ele>895.4</ele>
        <time>2021-10-17T13:41:16Z</time>
      </trkpt>
      <trkpt lat="46.46208" lon="5.93419">
        <ele>895.4</ele>
        <time>2021-10-17T13:41:17Z</time>
      </trkpt>
      <trkpt lat="46.46213" lon="5.93417">
        <ele>895.4</ele>
        <time>2021-10-17T13:41:18Z</time>
      </trkpt>
      <trkpt lat="46.46218" lon="5.93416">
        <ele>895.4</ele>
        <time>2021-10-17T13:41:19Z</time>
      </trkpt>
      <trkpt lat="46.46222" lon="5.93416">
        <ele>895.4</ele>
        <time>2021-10-17T13:41:20Z</time>
      </trkpt>
      <trkpt lat="46.46225" lon="5.93417">
        <ele>895.4</ele>
        <time>2021-10-17T13:41:21Z</time>
      </trkpt>
      <trkpt lat="46.46228" lon="5.93419">
        <ele>895.4</ele>
        <time>2021-10-17T13:41:22Z</time>
      </trkpt>
      <trkpt lat="46.46231" lon="5.93421">
        <ele>895.4</ele>
        <time>2021-10-17T13:41:23Z</time>
      </trkpt>
      <trkpt lat="46.46233" lon="5.93424">
        <ele>895.4</ele>
        <time>2021-10-17T13:41:24Z</time>
      </trkpt>
      <trkpt lat="46.46236" lon="5.93429">
        <ele>895.4</ele>
        <time>2021-10-17T13:41:25Z</time>
      </trkpt>
      <trkpt lat="46.46239" lon="5.93433">
        <ele>895.4</ele>
        <time>2021-10-17T13:41:26Z</time>
      </trkpt>
      <trkpt lat="46.46242" lon="5.93438">
        <ele>895.4</ele>
        <time>2021-10-17T13:41:27Z</time>
      </trkpt>
      <trkpt lat="46.46245" lon="5.93444">
        <ele>895.4</ele>
        <time>2021-10-17T13:41:28Z</time>
      </trkpt>
      <trkpt lat="46.46247" lon="5.93449">
        <ele>895.4</ele>
        <time>2021-10-17T13:41:29Z</time>
      </trkpt>
      <trkpt lat="46.4625" lon="5.93454">
        <ele>895.6</ele>
        <time>2021-10-17T13:41:30Z</time>
      </trkpt>
      <trkpt lat="46.46253" lon="5.9346">
        <ele>895.6</ele>
        <time>2021-10-17T13:41:31Z</time>
      </trkpt>
      <trkpt lat="46.46256" lon="5.93465">
        <ele>895.6</ele>
        <time>2021-10-17T13:41:32Z</time>
      </trkpt>
      <trkpt lat="46.46259" lon="5.93471">
        <ele>895.6</ele>
        <time>2021-10-17T13:41:33Z</time>
      </trkpt>
      <trkpt lat="46.46261" lon="5.93478">
        <ele>895.6</ele>
        <time>2021-10-17T13:41:34Z</time>
      </trkpt>
      <trkpt lat="46.46264" lon="5.93484">
        <ele>895.6</ele>
        <time>2021-10-17T13:41:35Z</time>
      </trkpt>
      <trkpt lat="46.46267" lon="5.9349">
        <ele>895.6</ele>
        <time>2021-10-17T13:41:36Z</time>
      </trkpt>
      <trkpt lat="46.4627" lon="5.93496">
        <ele>895.8</ele>
        <time>2021-10-17T13:41:37Z</time>
      </trkpt>
      <trkpt lat="46.46273" lon="5.93502">
        <ele>895.8</ele>
        <time>2021-10-17T13:41:38Z</time>
      </trkpt>
      <trkpt lat="46.46277" lon="5.93508">
        <ele>895.8</ele>
        <time>2021-10-17T13:41:39Z</time>
      </trkpt>
      <trkpt lat="46.4628" lon="5.93514">
        <ele>896.2</ele>
        <time>2021-10-17T13:41:40Z</time>
      </trkpt>
      <trkpt lat="46.46283" lon="5.9352">
        <ele>896.2</ele>
        <time>2021-10-17T13:41:41Z</time>
      </trkpt>
      <trkpt lat="46.46287" lon="5.93526">
        <ele>896.4</ele>
        <time>2021-10-17T13:41:42Z</time>
      </trkpt>
      <trkpt lat="46.46291" lon="5.93531">
        <ele>896.4</ele>
        <time>2021-10-17T13:41:43Z</time>
      </trkpt>
      <trkpt lat="46.46295" lon="5.93536">
        <ele>896.4</ele>
        <time>2021-10-17T13:41:44Z</time>
      </trkpt>
      <trkpt lat="46.463" lon="5.93541">
        <ele>896.4</ele>
        <time>2021-10-17T13:41:45Z</time>
      </trkpt>
      <trkpt lat="46.46304" lon="5.93545">
        <ele>896.4</ele>
        <time>2021-10-17T13:41:46Z</time>
      </trkpt>
      <trkpt lat="46.46309" lon="5.93549">
        <ele>896.4</ele>
        <time>2021-10-17T13:41:47Z</time>
      </trkpt>
      <trkpt lat="46.46314" lon="5.93553">
        <ele>896.4</ele>
        <time>2021-10-17T13:41:48Z</time>
      </trkpt>
      <trkpt lat="46.4632" lon="5.93558">
        <ele>896.4</ele>
        <time>2021-10-17T13:41:49Z</time>
      </trkpt>
      <trkpt lat="46.46325" lon="5.93562">
        <ele>896.4</ele>
        <time>2021-10-17T13:41:50Z</time>
      </trkpt>
      <trkpt lat="46.46331" lon="5.93567">
        <ele>896.4</ele>
        <time>2021-10-17T13:41:51Z</time>
      </trkpt>
      <trkpt lat="46.46336" lon="5.93572">
        <ele>896.4</ele>
        <time>2021-10-17T13:41:52Z</time>
      </trkpt>
      <trkpt lat="46.46342" lon="5.93577">
        <ele>896.4</ele>
        <time>2021-10-17T13:41:53Z</time>
      </trkpt>
      <trkpt lat="46.46348" lon="5.93582">
        <ele>896.4</ele>
        <time>2021-10-17T13:41:54Z</time>
      </trkpt>
      <trkpt lat="46.46353" lon="5.93587">
        <ele>896.4</ele>
        <time>2021-10-17T13:41:55Z</time>
      </trkpt>
      <trkpt lat="46.46358" lon="5.93592">
        <ele>896.4</ele>
        <time>2021-10-17T13:41:56Z</time>
      </trkpt>
      <trkpt lat="46.46364" lon="5.93597">
        <ele>896.6</ele>
        <time>2021-10-17T13:41:57Z</time>
      </trkpt>
      <trkpt lat="46.46369" lon="5.93601">
        <ele>896.6</ele>
        <time>2021-10-17T13:41:58Z</time>
      </trkpt>
      <trkpt lat="46.46374" lon="5.93606">
        <ele>897</ele>
        <time>2021-10-17T13:41:59Z</time>
      </trkpt>
      <trkpt lat="46.46379" lon="5.9361">
        <ele>897</ele>
        <time>2021-10-17T13:42:00Z</time>
      </trkpt>
      <trkpt lat="46.46384" lon="5.93615">
        <ele>897</ele>
        <time>2021-10-17T13:42:01Z</time>
      </trkpt>
      <trkpt lat="46.46389" lon="5.9362">
        <ele>897.2</ele>
        <time>2021-10-17T13:42:02Z</time>
      </trkpt>
      <trkpt lat="46.46395" lon="5.93625">
        <ele>897.2</ele>
        <time>2021-10-17T13:42:03Z</time>
      </trkpt>
      <trkpt lat="46.464" lon="5.9363">
        <ele>897.2</ele>
        <time>2021-10-17T13:42:04Z</time>
      </trkpt>
      <trkpt lat="46.46405" lon="5.93635">
        <ele>897.2</ele>
        <time>2021-10-17T13:42:05Z</time>
      </trkpt>
      <trkpt lat="46.46411" lon="5.9364">
        <ele>897.2</ele>
        <time>2021-10-17T13:42:06Z</time>
      </trkpt>
      <trkpt lat="46.46417" lon="5.93645">
        <ele>897</ele>
        <time>2021-10-17T13:42:07Z</time>
      </trkpt>
      <trkpt lat="46.46423" lon="5.93651">
        <ele>897</ele>
        <time>2021-10-17T13:42:08Z</time>
      </trkpt>
      <trkpt lat="46.46429" lon="5.93657">
        <ele>896.8</ele>
        <time>2021-10-17T13:42:09Z</time>
      </trkpt>
      <trkpt lat="46.46435" lon="5.93662">
        <ele>896.8</ele>
        <time>2021-10-17T13:42:10Z</time>
      </trkpt>
      <trkpt lat="46.46441" lon="5.93668">
        <ele>896.8</ele>
        <time>2021-10-17T13:42:11Z</time>
      </trkpt>
      <trkpt lat="46.46447" lon="5.93674">
        <ele>896.4</ele>
        <time>2021-10-17T13:42:12Z</time>
      </trkpt>
      <trkpt lat="46.46452" lon="5.9368">
        <ele>896.4</ele>
        <time>2021-10-17T13:42:13Z</time>
      </trkpt>
      <trkpt lat="46.46458" lon="5.93685">
        <ele>896.4</ele>
        <time>2021-10-17T13:42:14Z</time>
      </trkpt>
      <trkpt lat="46.46464" lon="5.93691">
        <ele>896.4</ele>
        <time>2021-10-17T13:42:15Z</time>
      </trkpt>
      <trkpt lat="46.4647" lon="5.93697">
        <ele>896.4</ele>
        <time>2021-10-17T13:42:16Z</time>
      </trkpt>
      <trkpt lat="46.46477" lon="5.93703">
        <ele>896.2</ele>
        <time>2021-10-17T13:42:17Z</time>
      </trkpt>
      <trkpt lat="46.46483" lon="5.93709">
        <ele>896.2</ele>
        <time>2021-10-17T13:42:18Z</time>
      </trkpt>
      <trkpt lat="46.46489" lon="5.93715">
        <ele>896.2</ele>
        <time>2021-10-17T13:42:19Z</time>
      </trkpt>
      <trkpt lat="46.46495" lon="5.93721">
        <ele>896.2</ele>
        <time>2021-10-17T13:42:20Z</time>
      </trkpt>
      <trkpt lat="46.46501" lon="5.93727">
        <ele>896.2</ele>
        <time>2021-10-17T13:42:21Z</time>
      </trkpt>
      <trkpt lat="46.46507" lon="5.93733">
        <ele>896.2</ele>
        <time>2021-10-17T13:42:22Z</time>
      </trkpt>
      <trkpt lat="46.46513" lon="5.93738">
        <ele>896.2</ele>
        <time>2021-10-17T13:42:23Z</time>
      </trkpt>
      <trkpt lat="46.4652" lon="5.93744">
        <ele>896.2</ele>
        <time>2021-10-17T13:42:24Z</time>
      </trkpt>
      <trkpt lat="46.46526" lon="5.9375">
        <ele>896.2</ele>
        <time>2021-10-17T13:42:25Z</time>
      </trkpt>
      <trkpt lat="46.46532" lon="5.93756">
        <ele>896.4</ele>
        <time>2021-10-17T13:42:26Z</time>
      </trkpt>
      <trkpt lat="46.46537" lon="5.93763">
        <ele>896.4</ele>
        <time>2021-10-17T13:42:27Z</time>
      </trkpt>
      <trkpt lat="46.46543" lon="5.93769">
        <ele>896.4</ele>
        <time>2021-10-17T13:42:28Z</time>
      </trkpt>
      <trkpt lat="46.46549" lon="5.93775">
        <ele>896.6</ele>
        <time>2021-10-17T13:42:29Z</time>
      </trkpt>
      <trkpt lat="46.46555" lon="5.93782">
        <ele>896.6</ele>
        <time>2021-10-17T13:42:30Z</time>
      </trkpt>
      <trkpt lat="46.46561" lon="5.93788">
        <ele>896.6</ele>
        <time>2021-10-17T13:42:31Z</time>
      </trkpt>
      <trkpt lat="46.46567" lon="5.93794">
        <ele>896.6</ele>
        <time>2021-10-17T13:42:32Z</time>
      </trkpt>
      <trkpt lat="46.46572" lon="5.93799">
        <ele>896.6</ele>
        <time>2021-10-17T13:42:33Z</time>
      </trkpt>
      <trkpt lat="46.46578" lon="5.93806">
        <ele>896.8</ele>
        <time>2021-10-17T13:42:34Z</time>
      </trkpt>
      <trkpt lat="46.46584" lon="5.93812">
        <ele>896.8</ele>
        <time>2021-10-17T13:42:35Z</time>
      </trkpt>
      <trkpt lat="46.46589" lon="5.93818">
        <ele>896.8</ele>
        <time>2021-10-17T13:42:36Z</time>
      </trkpt>
      <trkpt lat="46.46595" lon="5.93825">
        <ele>896.8</ele>
        <time>2021-10-17T13:42:37Z</time>
      </trkpt>
      <trkpt lat="46.466" lon="5.93832">
        <ele>896.8</ele>
        <time>2021-10-17T13:42:38Z</time>
      </trkpt>
      <trkpt lat="46.46606" lon="5.9384">
        <ele>896.8</ele>
        <time>2021-10-17T13:42:39Z</time>
      </trkpt>
      <trkpt lat="46.46611" lon="5.93849">
        <ele>896.8</ele>
        <time>2021-10-17T13:42:40Z</time>
      </trkpt>
      <trkpt lat="46.46615" lon="5.93858">
        <ele>896.6</ele>
        <time>2021-10-17T13:42:41Z</time>
      </trkpt>
      <trkpt lat="46.4662" lon="5.93868">
        <ele>896.6</ele>
        <time>2021-10-17T13:42:42Z</time>
      </trkpt>
      <trkpt lat="46.46624" lon="5.93878">
        <ele>896.2</ele>
        <time>2021-10-17T13:42:43Z</time>
      </trkpt>
      <trkpt lat="46.46628" lon="5.93888">
        <ele>896.2</ele>
        <time>2021-10-17T13:42:44Z</time>
      </trkpt>
      <trkpt lat="46.46632" lon="5.93898">
        <ele>896.2</ele>
        <time>2021-10-17T13:42:45Z</time>
      </trkpt>
      <trkpt lat="46.46636" lon="5.93909">
        <ele>896.2</ele>
        <time>2021-10-17T13:42:46Z</time>
      </trkpt>
      <trkpt lat="46.4664" lon="5.93919">
        <ele>896</ele>
        <time>2021-10-17T13:42:47Z</time>
      </trkpt>
      <trkpt lat="46.46644" lon="5.9393">
        <ele>896</ele>
        <time>2021-10-17T13:42:48Z</time>
      </trkpt>
      <trkpt lat="46.46648" lon="5.93941">
        <ele>895.8</ele>
        <time>2021-10-17T13:42:49Z</time>
      </trkpt>
      <trkpt lat="46.46652" lon="5.93952">
        <ele>895.8</ele>
        <time>2021-10-17T13:42:50Z</time>
      </trkpt>
      <trkpt lat="46.46655" lon="5.93963">
        <ele>895.2</ele>
        <time>2021-10-17T13:42:51Z</time>
      </trkpt>
      <trkpt lat="46.46659" lon="5.93974">
        <ele>895</ele>
        <time>2021-10-17T13:42:52Z</time>
      </trkpt>
      <trkpt lat="46.46663" lon="5.93986">
        <ele>894.8</ele>
        <time>2021-10-17T13:42:53Z</time>
      </trkpt>
      <trkpt lat="46.46668" lon="5.93997">
        <ele>894.4</ele>
        <time>2021-10-17T13:42:54Z</time>
      </trkpt>
      <trkpt lat="46.46672" lon="5.94009">
        <ele>894.2</ele>
        <time>2021-10-17T13:42:55Z</time>
      </trkpt>
      <trkpt lat="46.46676" lon="5.94022">
        <ele>893.8</ele>
        <time>2021-10-17T13:42:56Z</time>
      </trkpt>
      <trkpt lat="46.46681" lon="5.94033">
        <ele>893.6</ele>
        <time>2021-10-17T13:42:57Z</time>
      </trkpt>
      <trkpt lat="46.46686" lon="5.94044">
        <ele>893.4</ele>
        <time>2021-10-17T13:42:58Z</time>
      </trkpt>
      <trkpt lat="46.46692" lon="5.94055">
        <ele>893</ele>
        <time>2021-10-17T13:42:59Z</time>
      </trkpt>
      <trkpt lat="46.46699" lon="5.94065">
        <ele>893</ele>
        <time>2021-10-17T13:43:00Z</time>
      </trkpt>
      <trkpt lat="46.46706" lon="5.94073">
        <ele>892.8</ele>
        <time>2021-10-17T13:43:01Z</time>
      </trkpt>
      <trkpt lat="46.46713" lon="5.9408">
        <ele>892.8</ele>
        <time>2021-10-17T13:43:02Z</time>
      </trkpt>
      <trkpt lat="46.4672" lon="5.94088">
        <ele>892.4</ele>
        <time>2021-10-17T13:43:03Z</time>
      </trkpt>
      <trkpt lat="46.46728" lon="5.94096">
        <ele>892.4</ele>
        <time>2021-10-17T13:43:04Z</time>
      </trkpt>
      <trkpt lat="46.46735" lon="5.94102">
        <ele>892</ele>
        <time>2021-10-17T13:43:05Z</time>
      </trkpt>
      <trkpt lat="46.46744" lon="5.94107">
        <ele>891.6</ele>
        <time>2021-10-17T13:43:06Z</time>
      </trkpt>
      <trkpt lat="46.46752" lon="5.94111">
        <ele>891.6</ele>
        <time>2021-10-17T13:43:07Z</time>
      </trkpt>
      <trkpt lat="46.4676" lon="5.94114">
        <ele>891.4</ele>
        <time>2021-10-17T13:43:08Z</time>
      </trkpt>
      <trkpt lat="46.46769" lon="5.94116">
        <ele>891.4</ele>
        <time>2021-10-17T13:43:09Z</time>
      </trkpt>
      <trkpt lat="46.46778" lon="5.94117">
        <ele>891.2</ele>
        <time>2021-10-17T13:43:10Z</time>
      </trkpt>
      <trkpt lat="46.46786" lon="5.94117">
        <ele>891.2</ele>
        <time>2021-10-17T13:43:11Z</time>
      </trkpt>
      <trkpt lat="46.46795" lon="5.94116">
        <ele>891.2</ele>
        <time>2021-10-17T13:43:12Z</time>
      </trkpt>
      <trkpt lat="46.46803" lon="5.94114">
        <ele>890.8</ele>
        <time>2021-10-17T13:43:13Z</time>
      </trkpt>
      <trkpt lat="46.46811" lon="5.94111">
        <ele>890.8</ele>
        <time>2021-10-17T13:43:14Z</time>
      </trkpt>
      <trkpt lat="46.46819" lon="5.94108">
        <ele>890.8</ele>
        <time>2021-10-17T13:43:15Z</time>
      </trkpt>
      <trkpt lat="46.46826" lon="5.94103">
        <ele>890.8</ele>
        <time>2021-10-17T13:43:16Z</time>
      </trkpt>
      <trkpt lat="46.46833" lon="5.94099">
        <ele>890.8</ele>
        <time>2021-10-17T13:43:17Z</time>
      </trkpt>
      <trkpt lat="46.4684" lon="5.94093">
        <ele>891</ele>
        <time>2021-10-17T13:43:18Z</time>
      </trkpt>
      <trkpt lat="46.46846" lon="5.94087">
        <ele>891</ele>
        <time>2021-10-17T13:43:19Z</time>
      </trkpt>
      <trkpt lat="46.46852" lon="5.94081">
        <ele>891</ele>
        <time>2021-10-17T13:43:20Z</time>
      </trkpt>
      <trkpt lat="46.46858" lon="5.94075">
        <ele>891.2</ele>
        <time>2021-10-17T13:43:21Z</time>
      </trkpt>
      <trkpt lat="46.46863" lon="5.94069">
        <ele>891.2</ele>
        <time>2021-10-17T13:43:22Z</time>
      </trkpt>
      <trkpt lat="46.46869" lon="5.94063">
        <ele>891.8</ele>
        <time>2021-10-17T13:43:23Z</time>
      </trkpt>
      <trkpt lat="46.46875" lon="5.94059">
        <ele>891.8</ele>
        <time>2021-10-17T13:43:24Z</time>
      </trkpt>
      <trkpt lat="46.46881" lon="5.94055">
        <ele>892</ele>
        <time>2021-10-17T13:43:25Z</time>
      </trkpt>
      <trkpt lat="46.46886" lon="5.94052">
        <ele>892.2</ele>
        <time>2021-10-17T13:43:26Z</time>
      </trkpt>
      <trkpt lat="46.46892" lon="5.9405">
        <ele>892.2</ele>
        <time>2021-10-17T13:43:27Z</time>
      </trkpt>
      <trkpt lat="46.46897" lon="5.94049">
        <ele>892.6</ele>
        <time>2021-10-17T13:43:28Z</time>
      </trkpt>
      <trkpt lat="46.46902" lon="5.94048">
        <ele>892.8</ele>
        <time>2021-10-17T13:43:29Z</time>
      </trkpt>
      <trkpt lat="46.46907" lon="5.94048">
        <ele>893.2</ele>
        <time>2021-10-17T13:43:30Z</time>
      </trkpt>
      <trkpt lat="46.46911" lon="5.94048">
        <ele>893.4</ele>
        <time>2021-10-17T13:43:31Z</time>
      </trkpt>
      <trkpt lat="46.46915" lon="5.94049">
        <ele>893.6</ele>
        <time>2021-10-17T13:43:32Z</time>
      </trkpt>
      <trkpt lat="46.46919" lon="5.9405">
        <ele>893.6</ele>
        <time>2021-10-17T13:43:33Z</time>
      </trkpt>
      <trkpt lat="46.46923" lon="5.94051">
        <ele>894</ele>
        <time>2021-10-17T13:43:34Z</time>
      </trkpt>
      <trkpt lat="46.46926" lon="5.94053">
        <ele>894.4</ele>
        <time>2021-10-17T13:43:35Z</time>
      </trkpt>
      <trkpt lat="46.46929" lon="5.94055">
        <ele>894.6</ele>
        <time>2021-10-17T13:43:36Z</time>
      </trkpt>
      <trkpt lat="46.46932" lon="5.94057">
        <ele>894.6</ele>
        <time>2021-10-17T13:43:37Z</time>
      </trkpt>
      <trkpt lat="46.46935" lon="5.9406">
        <ele>895</ele>
        <time>2021-10-17T13:43:38Z</time>
      </trkpt>
      <trkpt lat="46.46939" lon="5.94062">
        <ele>895</ele>
        <time>2021-10-17T13:43:39Z</time>
      </trkpt>
      <trkpt lat="46.46941" lon="5.94065">
        <ele>895.2</ele>
        <time>2021-10-17T13:43:40Z</time>
      </trkpt>
      <trkpt lat="46.46944" lon="5.94068">
        <ele>895.4</ele>
        <time>2021-10-17T13:43:41Z</time>
      </trkpt>
      <trkpt lat="46.46947" lon="5.94071">
        <ele>895.6</ele>
        <time>2021-10-17T13:43:42Z</time>
      </trkpt>
      <trkpt lat="46.46949" lon="5.94074">
        <ele>895.6</ele>
        <time>2021-10-17T13:43:43Z</time>
      </trkpt>
      <trkpt lat="46.46951" lon="5.94077">
        <ele>896</ele>
        <time>2021-10-17T13:43:44Z</time>
      </trkpt>
      <trkpt lat="46.46953" lon="5.94081">
        <ele>896.2</ele>
        <time>2021-10-17T13:43:45Z</time>
      </trkpt>
      <trkpt lat="46.46955" lon="5.94084">
        <ele>896.2</ele>
        <time>2021-10-17T13:43:46Z</time>
      </trkpt>
      <trkpt lat="46.46957" lon="5.94088">
        <ele>896.6</ele>
        <time>2021-10-17T13:43:47Z</time>
      </trkpt>
      <trkpt lat="46.46959" lon="5.94092">
        <ele>896.8</ele>
        <time>2021-10-17T13:43:48Z</time>
      </trkpt>
      <trkpt lat="46.46961" lon="5.94097">
        <ele>897</ele>
        <time>2021-10-17T13:43:49Z</time>
      </trkpt>
      <trkpt lat="46.46962" lon="5.94101">
        <ele>897</ele>
        <time>2021-10-17T13:43:50Z</time>
      </trkpt>
      <trkpt lat="46.46964" lon="5.94105">
        <ele>897.4</ele>
        <time>2021-10-17T13:43:51Z</time>
      </trkpt>
      <trkpt lat="46.46966" lon="5.9411">
        <ele>897.4</ele>
        <time>2021-10-17T13:43:52Z</time>
      </trkpt>
      <trkpt lat="46.46968" lon="5.94114">
        <ele>897.4</ele>
        <time>2021-10-17T13:43:53Z</time>
      </trkpt>
      <trkpt lat="46.46969" lon="5.94119">
        <ele>897.8</ele>
        <time>2021-10-17T13:43:54Z</time>
      </trkpt>
      <trkpt lat="46.46971" lon="5.94123">
        <ele>897.8</ele>
        <time>2021-10-17T13:43:55Z</time>
      </trkpt>
      <trkpt lat="46.46973" lon="5.94127">
        <ele>898</ele>
        <time>2021-10-17T13:43:56Z</time>
      </trkpt>
      <trkpt lat="46.46975" lon="5.94131">
        <ele>898</ele>
        <time>2021-10-17T13:43:57Z</time>
      </trkpt>
      <trkpt lat="46.46977" lon="5.94135">
        <ele>898.2</ele>
        <time>2021-10-17T13:43:58Z</time>
      </trkpt>
      <trkpt lat="46.46978" lon="5.94139">
        <ele>898.2</ele>
        <time>2021-10-17T13:43:59Z</time>
      </trkpt>
      <trkpt lat="46.4698" lon="5.94143">
        <ele>898.6</ele>
        <time>2021-10-17T13:44:00Z</time>
      </trkpt>
      <trkpt lat="46.46982" lon="5.94147">
        <ele>898.6</ele>
        <time>2021-10-17T13:44:01Z</time>
      </trkpt>
      <trkpt lat="46.46983" lon="5.94152">
        <ele>899</ele>
        <time>2021-10-17T13:44:02Z</time>
      </trkpt>
      <trkpt lat="46.46985" lon="5.94156">
        <ele>899</ele>
        <time>2021-10-17T13:44:03Z</time>
      </trkpt>
      <trkpt lat="46.46987" lon="5.9416">
        <ele>899.2</ele>
        <time>2021-10-17T13:44:04Z</time>
      </trkpt>
      <trkpt lat="46.46988" lon="5.94164">
        <ele>899.2</ele>
        <time>2021-10-17T13:44:05Z</time>
      </trkpt>
      <trkpt lat="46.4699" lon="5.94168">
        <ele>899.6</ele>
        <time>2021-10-17T13:44:06Z</time>
      </trkpt>
      <trkpt lat="46.46991" lon="5.94173">
        <ele>899.6</ele>
        <time>2021-10-17T13:44:07Z</time>
      </trkpt>
      <trkpt lat="46.46993" lon="5.94177">
        <ele>899.8</ele>
        <time>2021-10-17T13:44:08Z</time>
      </trkpt>
      <trkpt lat="46.46994" lon="5.94181">
        <ele>899.8</ele>
        <time>2021-10-17T13:44:09Z</time>
      </trkpt>
      <trkpt lat="46.46996" lon="5.94186">
        <ele>900</ele>
        <time>2021-10-17T13:44:10Z</time>
      </trkpt>
      <trkpt lat="46.46997" lon="5.9419">
        <ele>900.2</ele>
        <time>2021-10-17T13:44:11Z</time>
      </trkpt>
      <trkpt lat="46.46999" lon="5.94199">
        <ele>900.2</ele>
        <time>2021-10-17T13:44:12Z</time>
      </trkpt>
      <trkpt lat="46.47" lon="5.94203">
        <ele>900.6</ele>
        <time>2021-10-17T13:44:13Z</time>
      </trkpt>
      <trkpt lat="46.47001" lon="5.94207">
        <ele>900.6</ele>
        <time>2021-10-17T13:44:14Z</time>
      </trkpt>
      <trkpt lat="46.47002" lon="5.94212">
        <ele>901</ele>
        <time>2021-10-17T13:44:15Z</time>
      </trkpt>
      <trkpt lat="46.47003" lon="5.94216">
        <ele>901</ele>
        <time>2021-10-17T13:44:16Z</time>
      </trkpt>
      <trkpt lat="46.47004" lon="5.9422">
        <ele>901.2</ele>
        <time>2021-10-17T13:44:17Z</time>
      </trkpt>
      <trkpt lat="46.47005" lon="5.94224">
        <ele>901.2</ele>
        <time>2021-10-17T13:44:18Z</time>
      </trkpt>
      <trkpt lat="46.47006" lon="5.94229">
        <ele>901.4</ele>
        <time>2021-10-17T13:44:19Z</time>
      </trkpt>
      <trkpt lat="46.47007" lon="5.94233">
        <ele>901.6</ele>
        <time>2021-10-17T13:44:20Z</time>
      </trkpt>
      <trkpt lat="46.47008" lon="5.94237">
        <ele>901.6</ele>
        <time>2021-10-17T13:44:21Z</time>
      </trkpt>
      <trkpt lat="46.4701" lon="5.94242">
        <ele>902</ele>
        <time>2021-10-17T13:44:22Z</time>
      </trkpt>
      <trkpt lat="46.47011" lon="5.94246">
        <ele>902</ele>
        <time>2021-10-17T13:44:23Z</time>
      </trkpt>
      <trkpt lat="46.47012" lon="5.9425">
        <ele>902</ele>
        <time>2021-10-17T13:44:24Z</time>
      </trkpt>
      <trkpt lat="46.47013" lon="5.94255">
        <ele>902.4</ele>
        <time>2021-10-17T13:44:25Z</time>
      </trkpt>
      <trkpt lat="46.47015" lon="5.94259">
        <ele>902.4</ele>
        <time>2021-10-17T13:44:26Z</time>
      </trkpt>
      <trkpt lat="46.47016" lon="5.94263">
        <ele>902.6</ele>
        <time>2021-10-17T13:44:27Z</time>
      </trkpt>
      <trkpt lat="46.47018" lon="5.94267">
        <ele>902.8</ele>
        <time>2021-10-17T13:44:28Z</time>
      </trkpt>
      <trkpt lat="46.4702" lon="5.94272">
        <ele>902.8</ele>
        <time>2021-10-17T13:44:29Z</time>
      </trkpt>
      <trkpt lat="46.47021" lon="5.94276">
        <ele>903.2</ele>
        <time>2021-10-17T13:44:30Z</time>
      </trkpt>
      <trkpt lat="46.47023" lon="5.9428">
        <ele>903.4</ele>
        <time>2021-10-17T13:44:31Z</time>
      </trkpt>
      <trkpt lat="46.47025" lon="5.94284">
        <ele>903.6</ele>
        <time>2021-10-17T13:44:32Z</time>
      </trkpt>
      <trkpt lat="46.47027" lon="5.94288">
        <ele>904</ele>
        <time>2021-10-17T13:44:33Z</time>
      </trkpt>
      <trkpt lat="46.47029" lon="5.94292">
        <ele>904.2</ele>
        <time>2021-10-17T13:44:34Z</time>
      </trkpt>
      <trkpt lat="46.47031" lon="5.94296">
        <ele>904.2</ele>
        <time>2021-10-17T13:44:35Z</time>
      </trkpt>
      <trkpt lat="46.47033" lon="5.943">
        <ele>904.4</ele>
        <time>2021-10-17T13:44:36Z</time>
      </trkpt>
      <trkpt lat="46.47035" lon="5.94304">
        <ele>904.4</ele>
        <time>2021-10-17T13:44:37Z</time>
      </trkpt>
      <trkpt lat="46.47037" lon="5.94308">
        <ele>904.6</ele>
        <time>2021-10-17T13:44:38Z</time>
      </trkpt>
      <trkpt lat="46.47039" lon="5.94312">
        <ele>904.6</ele>
        <time>2021-10-17T13:44:39Z</time>
      </trkpt>
      <trkpt lat="46.47041" lon="5.94316">
        <ele>905</ele>
        <time>2021-10-17T13:44:40Z</time>
      </trkpt>
      <trkpt lat="46.47043" lon="5.94319">
        <ele>905</ele>
        <time>2021-10-17T13:44:41Z</time>
      </trkpt>
      <trkpt lat="46.47045" lon="5.94323">
        <ele>905.4</ele>
        <time>2021-10-17T13:44:42Z</time>
      </trkpt>
      <trkpt lat="46.47047" lon="5.94327">
        <ele>905.4</ele>
        <time>2021-10-17T13:44:43Z</time>
      </trkpt>
      <trkpt lat="46.47049" lon="5.9433">
        <ele>905.8</ele>
        <time>2021-10-17T13:44:44Z</time>
      </trkpt>
      <trkpt lat="46.47051" lon="5.94334">
        <ele>905.8</ele>
        <time>2021-10-17T13:44:45Z</time>
      </trkpt>
      <trkpt lat="46.47053" lon="5.94337">
        <ele>906</ele>
        <time>2021-10-17T13:44:46Z</time>
      </trkpt>
      <trkpt lat="46.47055" lon="5.9434">
        <ele>906</ele>
        <time>2021-10-17T13:44:47Z</time>
      </trkpt>
      <trkpt lat="46.47057" lon="5.94343">
        <ele>906.2</ele>
        <time>2021-10-17T13:44:48Z</time>
      </trkpt>
      <trkpt lat="46.4706" lon="5.94346">
        <ele>906.2</ele>
        <time>2021-10-17T13:44:49Z</time>
      </trkpt>
      <trkpt lat="46.47063" lon="5.94349">
        <ele>906.6</ele>
        <time>2021-10-17T13:44:50Z</time>
      </trkpt>
      <trkpt lat="46.47065" lon="5.94353">
        <ele>906.8</ele>
        <time>2021-10-17T13:44:51Z</time>
      </trkpt>
      <trkpt lat="46.47068" lon="5.94356">
        <ele>906.8</ele>
        <time>2021-10-17T13:44:52Z</time>
      </trkpt>
      <trkpt lat="46.4707" lon="5.94361">
        <ele>907</ele>
        <time>2021-10-17T13:44:53Z</time>
      </trkpt>
      <trkpt lat="46.47072" lon="5.94364">
        <ele>907</ele>
        <time>2021-10-17T13:44:54Z</time>
      </trkpt>
      <trkpt lat="46.47075" lon="5.94368">
        <ele>907</ele>
        <time>2021-10-17T13:44:55Z</time>
      </trkpt>
      <trkpt lat="46.47077" lon="5.94372">
        <ele>907.4</ele>
        <time>2021-10-17T13:44:56Z</time>
      </trkpt>
      <trkpt lat="46.47079" lon="5.94376">
        <ele>907.6</ele>
        <time>2021-10-17T13:44:57Z</time>
      </trkpt>
      <trkpt lat="46.47081" lon="5.9438">
        <ele>907.6</ele>
        <time>2021-10-17T13:44:58Z</time>
      </trkpt>
      <trkpt lat="46.47083" lon="5.94383">
        <ele>907.6</ele>
        <time>2021-10-17T13:44:59Z</time>
      </trkpt>
      <trkpt lat="46.47085" lon="5.94388">
        <ele>907.8</ele>
        <time>2021-10-17T13:45:00Z</time>
      </trkpt>
      <trkpt lat="46.47087" lon="5.94392">
        <ele>907.8</ele>
        <time>2021-10-17T13:45:01Z</time>
      </trkpt>
      <trkpt lat="46.47088" lon="5.94396">
        <ele>908</ele>
        <time>2021-10-17T13:45:02Z</time>
      </trkpt>
      <trkpt lat="46.4709" lon="5.94401">
        <ele>908.2</ele>
        <time>2021-10-17T13:45:03Z</time>
      </trkpt>
      <trkpt lat="46.47091" lon="5.94405">
        <ele>908.2</ele>
        <time>2021-10-17T13:45:04Z</time>
      </trkpt>
      <trkpt lat="46.47093" lon="5.9441">
        <ele>908.6</ele>
        <time>2021-10-17T13:45:05Z</time>
      </trkpt>
      <trkpt lat="46.47094" lon="5.94414">
        <ele>908.6</ele>
        <time>2021-10-17T13:45:06Z</time>
      </trkpt>
      <trkpt lat="46.47095" lon="5.94419">
        <ele>908.8</ele>
        <time>2021-10-17T13:45:07Z</time>
      </trkpt>
      <trkpt lat="46.47096" lon="5.94424">
        <ele>908.8</ele>
        <time>2021-10-17T13:45:08Z</time>
      </trkpt>
      <trkpt lat="46.47097" lon="5.94428">
        <ele>909.2</ele>
        <time>2021-10-17T13:45:09Z</time>
      </trkpt>
      <trkpt lat="46.47098" lon="5.94432">
        <ele>909.2</ele>
        <time>2021-10-17T13:45:10Z</time>
      </trkpt>
      <trkpt lat="46.471" lon="5.94436">
        <ele>909.6</ele>
        <time>2021-10-17T13:45:11Z</time>
      </trkpt>
      <trkpt lat="46.47101" lon="5.9444">
        <ele>909.8</ele>
        <time>2021-10-17T13:45:12Z</time>
      </trkpt>
      <trkpt lat="46.47102" lon="5.94445">
        <ele>909.8</ele>
        <time>2021-10-17T13:45:13Z</time>
      </trkpt>
      <trkpt lat="46.47103" lon="5.94449">
        <ele>910</ele>
        <time>2021-10-17T13:45:14Z</time>
      </trkpt>
      <trkpt lat="46.47105" lon="5.94453">
        <ele>910</ele>
        <time>2021-10-17T13:45:15Z</time>
      </trkpt>
      <trkpt lat="46.47106" lon="5.94457">
        <ele>910.4</ele>
        <time>2021-10-17T13:45:16Z</time>
      </trkpt>
      <trkpt lat="46.47107" lon="5.94461">
        <ele>910.4</ele>
        <time>2021-10-17T13:45:17Z</time>
      </trkpt>
      <trkpt lat="46.47109" lon="5.94466">
        <ele>910.6</ele>
        <time>2021-10-17T13:45:18Z</time>
      </trkpt>
      <trkpt lat="46.47111" lon="5.9447">
        <ele>910.6</ele>
        <time>2021-10-17T13:45:19Z</time>
      </trkpt>
      <trkpt lat="46.47112" lon="5.94475">
        <ele>910.6</ele>
        <time>2021-10-17T13:45:20Z</time>
      </trkpt>
      <trkpt lat="46.47114" lon="5.94479">
        <ele>911</ele>
        <time>2021-10-17T13:45:21Z</time>
      </trkpt>
      <trkpt lat="46.47115" lon="5.94483">
        <ele>911</ele>
        <time>2021-10-17T13:45:22Z</time>
      </trkpt>
      <trkpt lat="46.47117" lon="5.94487">
        <ele>911.2</ele>
        <time>2021-10-17T13:45:23Z</time>
      </trkpt>
      <trkpt lat="46.47119" lon="5.94491">
        <ele>911.2</ele>
        <time>2021-10-17T13:45:24Z</time>
      </trkpt>
      <trkpt lat="46.47121" lon="5.94495">
        <ele>911.6</ele>
        <time>2021-10-17T13:45:25Z</time>
      </trkpt>
      <trkpt lat="46.47122" lon="5.94499">
        <ele>911.6</ele>
        <time>2021-10-17T13:45:26Z</time>
      </trkpt>
      <trkpt lat="46.47124" lon="5.94502">
        <ele>911.8</ele>
        <time>2021-10-17T13:45:27Z</time>
      </trkpt>
      <trkpt lat="46.47127" lon="5.94506">
        <ele>911.8</ele>
        <time>2021-10-17T13:45:28Z</time>
      </trkpt>
      <trkpt lat="46.47129" lon="5.94509">
        <ele>911.8</ele>
        <time>2021-10-17T13:45:29Z</time>
      </trkpt>
      <trkpt lat="46.47131" lon="5.94512">
        <ele>912.2</ele>
        <time>2021-10-17T13:45:30Z</time>
      </trkpt>
      <trkpt lat="46.47133" lon="5.94516">
        <ele>912.2</ele>
        <time>2021-10-17T13:45:31Z</time>
      </trkpt>
      <trkpt lat="46.47135" lon="5.94518">
        <ele>912.4</ele>
        <time>2021-10-17T13:45:32Z</time>
      </trkpt>
      <trkpt lat="46.47137" lon="5.94521">
        <ele>912.4</ele>
        <time>2021-10-17T13:45:33Z</time>
      </trkpt>
      <trkpt lat="46.47139" lon="5.94524">
        <ele>912.8</ele>
        <time>2021-10-17T13:45:34Z</time>
      </trkpt>
      <trkpt lat="46.47141" lon="5.94527">
        <ele>912.8</ele>
        <time>2021-10-17T13:45:35Z</time>
      </trkpt>
      <trkpt lat="46.47143" lon="5.9453">
        <ele>913</ele>
        <time>2021-10-17T13:45:36Z</time>
      </trkpt>
      <trkpt lat="46.47145" lon="5.94533">
        <ele>913</ele>
        <time>2021-10-17T13:45:37Z</time>
      </trkpt>
      <trkpt lat="46.47148" lon="5.94535">
        <ele>913.2</ele>
        <time>2021-10-17T13:45:38Z</time>
      </trkpt>
      <trkpt lat="46.4715" lon="5.94538">
        <ele>913.6</ele>
        <time>2021-10-17T13:45:39Z</time>
      </trkpt>
      <trkpt lat="46.47152" lon="5.94541">
        <ele>913.6</ele>
        <time>2021-10-17T13:45:40Z</time>
      </trkpt>
      <trkpt lat="46.47155" lon="5.94543">
        <ele>913.8</ele>
        <time>2021-10-17T13:45:41Z</time>
      </trkpt>
      <trkpt lat="46.47157" lon="5.94546">
        <ele>913.8</ele>
        <time>2021-10-17T13:45:42Z</time>
      </trkpt>
      <trkpt lat="46.4716" lon="5.94548">
        <ele>914</ele>
        <time>2021-10-17T13:45:43Z</time>
      </trkpt>
      <trkpt lat="46.47163" lon="5.9455">
        <ele>914</ele>
        <time>2021-10-17T13:45:44Z</time>
      </trkpt>
      <trkpt lat="46.47165" lon="5.94552">
        <ele>914</ele>
        <time>2021-10-17T13:45:45Z</time>
      </trkpt>
      <trkpt lat="46.47168" lon="5.94554">
        <ele>914.4</ele>
        <time>2021-10-17T13:45:46Z</time>
      </trkpt>
      <trkpt lat="46.47171" lon="5.94556">
        <ele>914.4</ele>
        <time>2021-10-17T13:45:47Z</time>
      </trkpt>
      <trkpt lat="46.47174" lon="5.94558">
        <ele>914.6</ele>
        <time>2021-10-17T13:45:48Z</time>
      </trkpt>
      <trkpt lat="46.47176" lon="5.9456">
        <ele>915</ele>
        <time>2021-10-17T13:45:49Z</time>
      </trkpt>
      <trkpt lat="46.47179" lon="5.94562">
        <ele>915</ele>
        <time>2021-10-17T13:45:50Z</time>
      </trkpt>
      <trkpt lat="46.47182" lon="5.94564">
        <ele>915</ele>
        <time>2021-10-17T13:45:51Z</time>
      </trkpt>
      <trkpt lat="46.47185" lon="5.94565">
        <ele>915.2</ele>
        <time>2021-10-17T13:45:52Z</time>
      </trkpt>
      <trkpt lat="46.47188" lon="5.94566">
        <ele>915.4</ele>
        <time>2021-10-17T13:45:53Z</time>
      </trkpt>
      <trkpt lat="46.47191" lon="5.94567">
        <ele>915.4</ele>
        <time>2021-10-17T13:45:54Z</time>
      </trkpt>
      <trkpt lat="46.47194" lon="5.94569">
        <ele>915.8</ele>
        <time>2021-10-17T13:45:55Z</time>
      </trkpt>
      <trkpt lat="46.47196" lon="5.9457">
        <ele>916</ele>
        <time>2021-10-17T13:45:56Z</time>
      </trkpt>
      <trkpt lat="46.47199" lon="5.94571">
        <ele>916.2</ele>
        <time>2021-10-17T13:45:57Z</time>
      </trkpt>
      <trkpt lat="46.47202" lon="5.94572">
        <ele>916.2</ele>
        <time>2021-10-17T13:45:58Z</time>
      </trkpt>
      <trkpt lat="46.47205" lon="5.94572">
        <ele>916.6</ele>
        <time>2021-10-17T13:45:59Z</time>
      </trkpt>
      <trkpt lat="46.47208" lon="5.94573">
        <ele>916.6</ele>
        <time>2021-10-17T13:46:00Z</time>
      </trkpt>
      <trkpt lat="46.47211" lon="5.94573">
        <ele>916.8</ele>
        <time>2021-10-17T13:46:01Z</time>
      </trkpt>
      <trkpt lat="46.47214" lon="5.94573">
        <ele>916.8</ele>
        <time>2021-10-17T13:46:02Z</time>
      </trkpt>
      <trkpt lat="46.47217" lon="5.94574">
        <ele>917</ele>
        <time>2021-10-17T13:46:03Z</time>
      </trkpt>
      <trkpt lat="46.4722" lon="5.94575">
        <ele>917</ele>
        <time>2021-10-17T13:46:04Z</time>
      </trkpt>
      <trkpt lat="46.47223" lon="5.94575">
        <ele>917.4</ele>
        <time>2021-10-17T13:46:05Z</time>
      </trkpt>
      <trkpt lat="46.47226" lon="5.94576">
        <ele>917.4</ele>
        <time>2021-10-17T13:46:06Z</time>
      </trkpt>
      <trkpt lat="46.47229" lon="5.94577">
        <ele>917.6</ele>
        <time>2021-10-17T13:46:07Z</time>
      </trkpt>
      <trkpt lat="46.47232" lon="5.94577">
        <ele>917.6</ele>
        <time>2021-10-17T13:46:08Z</time>
      </trkpt>
      <trkpt lat="46.47235" lon="5.94578">
        <ele>917.8</ele>
        <time>2021-10-17T13:46:09Z</time>
      </trkpt>
      <trkpt lat="46.47238" lon="5.94579">
        <ele>917.8</ele>
        <time>2021-10-17T13:46:10Z</time>
      </trkpt>
      <trkpt lat="46.47241" lon="5.94579">
        <ele>918.2</ele>
        <time>2021-10-17T13:46:11Z</time>
      </trkpt>
      <trkpt lat="46.47243" lon="5.9458">
        <ele>918.2</ele>
        <time>2021-10-17T13:46:12Z</time>
      </trkpt>
      <trkpt lat="46.47246" lon="5.94582">
        <ele>918.6</ele>
        <time>2021-10-17T13:46:13Z</time>
      </trkpt>
      <trkpt lat="46.47249" lon="5.94583">
        <ele>918.6</ele>
        <time>2021-10-17T13:46:14Z</time>
      </trkpt>
      <trkpt lat="46.47252" lon="5.94584">
        <ele>918.8</ele>
        <time>2021-10-17T13:46:15Z</time>
      </trkpt>
      <trkpt lat="46.47255" lon="5.94584">
        <ele>918.8</ele>
        <time>2021-10-17T13:46:16Z</time>
      </trkpt>
      <trkpt lat="46.47258" lon="5.94585">
        <ele>919</ele>
        <time>2021-10-17T13:46:17Z</time>
      </trkpt>
      <trkpt lat="46.47261" lon="5.94586">
        <ele>919</ele>
        <time>2021-10-17T13:46:18Z</time>
      </trkpt>
      <trkpt lat="46.47264" lon="5.94587">
        <ele>919.2</ele>
        <time>2021-10-17T13:46:19Z</time>
      </trkpt>
      <trkpt lat="46.47268" lon="5.94587">
        <ele>919.2</ele>
        <time>2021-10-17T13:46:20Z</time>
      </trkpt>
      <trkpt lat="46.47271" lon="5.94588">
        <ele>919.4</ele>
        <time>2021-10-17T13:46:21Z</time>
      </trkpt>
      <trkpt lat="46.47274" lon="5.9459">
        <ele>919.4</ele>
        <time>2021-10-17T13:46:22Z</time>
      </trkpt>
      <trkpt lat="46.47277" lon="5.94591">
        <ele>919.8</ele>
        <time>2021-10-17T13:46:23Z</time>
      </trkpt>
      <trkpt lat="46.47281" lon="5.94592">
        <ele>919.8</ele>
        <time>2021-10-17T13:46:24Z</time>
      </trkpt>
      <trkpt lat="46.47284" lon="5.94592">
        <ele>920</ele>
        <time>2021-10-17T13:46:25Z</time>
      </trkpt>
      <trkpt lat="46.47287" lon="5.94593">
        <ele>920</ele>
        <time>2021-10-17T13:46:26Z</time>
      </trkpt>
      <trkpt lat="46.4729" lon="5.94594">
        <ele>920.2</ele>
        <time>2021-10-17T13:46:27Z</time>
      </trkpt>
      <trkpt lat="46.47294" lon="5.94594">
        <ele>920.2</ele>
        <time>2021-10-17T13:46:28Z</time>
      </trkpt>
      <trkpt lat="46.47297" lon="5.94595">
        <ele>920.6</ele>
        <time>2021-10-17T13:46:29Z</time>
      </trkpt>
      <trkpt lat="46.473" lon="5.94596">
        <ele>920.6</ele>
        <time>2021-10-17T13:46:30Z</time>
      </trkpt>
      <trkpt lat="46.47304" lon="5.94597">
        <ele>920.8</ele>
        <time>2021-10-17T13:46:31Z</time>
      </trkpt>
      <trkpt lat="46.47307" lon="5.94598">
        <ele>920.8</ele>
        <time>2021-10-17T13:46:32Z</time>
      </trkpt>
      <trkpt lat="46.4731" lon="5.94598">
        <ele>921</ele>
        <time>2021-10-17T13:46:33Z</time>
      </trkpt>
      <trkpt lat="46.47313" lon="5.94599">
        <ele>921</ele>
        <time>2021-10-17T13:46:34Z</time>
      </trkpt>
      <trkpt lat="46.47316" lon="5.94599">
        <ele>921.2</ele>
        <time>2021-10-17T13:46:35Z</time>
      </trkpt>
      <trkpt lat="46.4732" lon="5.946">
        <ele>921.2</ele>
        <time>2021-10-17T13:46:36Z</time>
      </trkpt>
      <trkpt lat="46.47323" lon="5.94601">
        <ele>921.6</ele>
        <time>2021-10-17T13:46:37Z</time>
      </trkpt>
      <trkpt lat="46.47326" lon="5.94601">
        <ele>921.6</ele>
        <time>2021-10-17T13:46:38Z</time>
      </trkpt>
      <trkpt lat="46.47329" lon="5.94602">
        <ele>922</ele>
        <time>2021-10-17T13:46:39Z</time>
      </trkpt>
      <trkpt lat="46.47333" lon="5.94603">
        <ele>922</ele>
        <time>2021-10-17T13:46:40Z</time>
      </trkpt>
      <trkpt lat="46.47336" lon="5.94603">
        <ele>922.2</ele>
        <time>2021-10-17T13:46:41Z</time>
      </trkpt>
      <trkpt lat="46.4734" lon="5.94604">
        <ele>922.2</ele>
        <time>2021-10-17T13:46:42Z</time>
      </trkpt>
      <trkpt lat="46.47343" lon="5.94604">
        <ele>922.6</ele>
        <time>2021-10-17T13:46:43Z</time>
      </trkpt>
      <trkpt lat="46.47346" lon="5.94604">
        <ele>922.6</ele>
        <time>2021-10-17T13:46:44Z</time>
      </trkpt>
      <trkpt lat="46.4735" lon="5.94604">
        <ele>922.8</ele>
        <time>2021-10-17T13:46:45Z</time>
      </trkpt>
      <trkpt lat="46.47353" lon="5.94604">
        <ele>922.8</ele>
        <time>2021-10-17T13:46:46Z</time>
      </trkpt>
      <trkpt lat="46.47357" lon="5.94605">
        <ele>923</ele>
        <time>2021-10-17T13:46:47Z</time>
      </trkpt>
      <trkpt lat="46.4736" lon="5.94605">
        <ele>923</ele>
        <time>2021-10-17T13:46:48Z</time>
      </trkpt>
      <trkpt lat="46.47363" lon="5.94605">
        <ele>923.2</ele>
        <time>2021-10-17T13:46:49Z</time>
      </trkpt>
      <trkpt lat="46.47367" lon="5.94605">
        <ele>923.4</ele>
        <time>2021-10-17T13:46:50Z</time>
      </trkpt>
      <trkpt lat="46.4737" lon="5.94604">
        <ele>923.4</ele>
        <time>2021-10-17T13:46:51Z</time>
      </trkpt>
      <trkpt lat="46.47373" lon="5.94604">
        <ele>923.8</ele>
        <time>2021-10-17T13:46:52Z</time>
      </trkpt>
      <trkpt lat="46.47377" lon="5.94603">
        <ele>923.8</ele>
        <time>2021-10-17T13:46:53Z</time>
      </trkpt>
      <trkpt lat="46.4738" lon="5.94603">
        <ele>923.8</ele>
        <time>2021-10-17T13:46:54Z</time>
      </trkpt>
      <trkpt lat="46.47384" lon="5.94603">
        <ele>924</ele>
        <time>2021-10-17T13:46:55Z</time>
      </trkpt>
      <trkpt lat="46.47387" lon="5.94603">
        <ele>924</ele>
        <time>2021-10-17T13:46:56Z</time>
      </trkpt>
      <trkpt lat="46.47391" lon="5.94602">
        <ele>924.4</ele>
        <time>2021-10-17T13:46:57Z</time>
      </trkpt>
      <trkpt lat="46.47394" lon="5.94602">
        <ele>924.4</ele>
        <time>2021-10-17T13:46:58Z</time>
      </trkpt>
      <trkpt lat="46.47397" lon="5.94601">
        <ele>924.8</ele>
        <time>2021-10-17T13:46:59Z</time>
      </trkpt>
      <trkpt lat="46.47401" lon="5.94601">
        <ele>924.8</ele>
        <time>2021-10-17T13:47:00Z</time>
      </trkpt>
      <trkpt lat="46.47404" lon="5.94601">
        <ele>925</ele>
        <time>2021-10-17T13:47:01Z</time>
      </trkpt>
      <trkpt lat="46.47407" lon="5.946">
        <ele>925</ele>
        <time>2021-10-17T13:47:02Z</time>
      </trkpt>
      <trkpt lat="46.4741" lon="5.946">
        <ele>925.4</ele>
        <time>2021-10-17T13:47:03Z</time>
      </trkpt>
      <trkpt lat="46.47414" lon="5.946">
        <ele>925.4</ele>
        <time>2021-10-17T13:47:04Z</time>
      </trkpt>
      <trkpt lat="46.47417" lon="5.946">
        <ele>925.6</ele>
        <time>2021-10-17T13:47:05Z</time>
      </trkpt>
      <trkpt lat="46.4742" lon="5.946">
        <ele>925.6</ele>
        <time>2021-10-17T13:47:06Z</time>
      </trkpt>
      <trkpt lat="46.47424" lon="5.946">
        <ele>925.8</ele>
        <time>2021-10-17T13:47:07Z</time>
      </trkpt>
      <trkpt lat="46.47427" lon="5.946">
        <ele>925.8</ele>
        <time>2021-10-17T13:47:08Z</time>
      </trkpt>
      <trkpt lat="46.47431" lon="5.946">
        <ele>926</ele>
        <time>2021-10-17T13:47:09Z</time>
      </trkpt>
      <trkpt lat="46.47434" lon="5.946">
        <ele>926</ele>
        <time>2021-10-17T13:47:10Z</time>
      </trkpt>
      <trkpt lat="46.47437" lon="5.94601">
        <ele>926.4</ele>
        <time>2021-10-17T13:47:11Z</time>
      </trkpt>
      <trkpt lat="46.4744" lon="5.94601">
        <ele>926.4</ele>
        <time>2021-10-17T13:47:12Z</time>
      </trkpt>
      <trkpt lat="46.47443" lon="5.94601">
        <ele>926.6</ele>
        <time>2021-10-17T13:47:13Z</time>
      </trkpt>
      <trkpt lat="46.47446" lon="5.94601">
        <ele>926.6</ele>
        <time>2021-10-17T13:47:14Z</time>
      </trkpt>
      <trkpt lat="46.47449" lon="5.94602">
        <ele>926.6</ele>
        <time>2021-10-17T13:47:15Z</time>
      </trkpt>
      <trkpt lat="46.47452" lon="5.94602">
        <ele>927</ele>
        <time>2021-10-17T13:47:16Z</time>
      </trkpt>
      <trkpt lat="46.47455" lon="5.94603">
        <ele>927</ele>
        <time>2021-10-17T13:47:17Z</time>
      </trkpt>
      <trkpt lat="46.47458" lon="5.94603">
        <ele>927.4</ele>
        <time>2021-10-17T13:47:18Z</time>
      </trkpt>
      <trkpt lat="46.47461" lon="5.94603">
        <ele>927.4</ele>
        <time>2021-10-17T13:47:19Z</time>
      </trkpt>
      <trkpt lat="46.47463" lon="5.94604">
        <ele>927.6</ele>
        <time>2021-10-17T13:47:20Z</time>
      </trkpt>
      <trkpt lat="46.47466" lon="5.94604">
        <ele>927.6</ele>
        <time>2021-10-17T13:47:21Z</time>
      </trkpt>
      <trkpt lat="46.47469" lon="5.94605">
        <ele>927.8</ele>
        <time>2021-10-17T13:47:22Z</time>
      </trkpt>
      <trkpt lat="46.47471" lon="5.94606">
        <ele>927.8</ele>
        <time>2021-10-17T13:47:23Z</time>
      </trkpt>
      <trkpt lat="46.47474" lon="5.94607">
        <ele>928.2</ele>
        <time>2021-10-17T13:47:24Z</time>
      </trkpt>
      <trkpt lat="46.47476" lon="5.94608">
        <ele>928.2</ele>
        <time>2021-10-17T13:47:25Z</time>
      </trkpt>
      <trkpt lat="46.47479" lon="5.94608">
        <ele>928.4</ele>
        <time>2021-10-17T13:47:26Z</time>
      </trkpt>
      <trkpt lat="46.47482" lon="5.94609">
        <ele>928.4</ele>
        <time>2021-10-17T13:47:27Z</time>
      </trkpt>
      <trkpt lat="46.47485" lon="5.94609">
        <ele>928.6</ele>
        <time>2021-10-17T13:47:28Z</time>
      </trkpt>
      <trkpt lat="46.47488" lon="5.9461">
        <ele>928.6</ele>
        <time>2021-10-17T13:47:29Z</time>
      </trkpt>
      <trkpt lat="46.4749" lon="5.9461">
        <ele>928.6</ele>
        <time>2021-10-17T13:47:30Z</time>
      </trkpt>
      <trkpt lat="46.47493" lon="5.9461">
        <ele>928.6</ele>
        <time>2021-10-17T13:47:31Z</time>
      </trkpt>
      <trkpt lat="46.47496" lon="5.94611">
        <ele>929</ele>
        <time>2021-10-17T13:47:32Z</time>
      </trkpt>
      <trkpt lat="46.47499" lon="5.94611">
        <ele>929</ele>
        <time>2021-10-17T13:47:33Z</time>
      </trkpt>
      <trkpt lat="46.47502" lon="5.94611">
        <ele>929</ele>
        <time>2021-10-17T13:47:34Z</time>
      </trkpt>
      <trkpt lat="46.47505" lon="5.94611">
        <ele>929.2</ele>
        <time>2021-10-17T13:47:35Z</time>
      </trkpt>
      <trkpt lat="46.47508" lon="5.9461">
        <ele>929.2</ele>
        <time>2021-10-17T13:47:36Z</time>
      </trkpt>
      <trkpt lat="46.4751" lon="5.9461">
        <ele>929.2</ele>
        <time>2021-10-17T13:47:37Z</time>
      </trkpt>
      <trkpt lat="46.47513" lon="5.94609">
        <ele>929.4</ele>
        <time>2021-10-17T13:47:38Z</time>
      </trkpt>
      <trkpt lat="46.47516" lon="5.94609">
        <ele>929.4</ele>
        <time>2021-10-17T13:47:39Z</time>
      </trkpt>
      <trkpt lat="46.47519" lon="5.94609">
        <ele>929.8</ele>
        <time>2021-10-17T13:47:40Z</time>
      </trkpt>
      <trkpt lat="46.47522" lon="5.94608">
        <ele>929.8</ele>
        <time>2021-10-17T13:47:41Z</time>
      </trkpt>
      <trkpt lat="46.47525" lon="5.94607">
        <ele>929.8</ele>
        <time>2021-10-17T13:47:42Z</time>
      </trkpt>
      <trkpt lat="46.47528" lon="5.94606">
        <ele>929.8</ele>
        <time>2021-10-17T13:47:43Z</time>
      </trkpt>
      <trkpt lat="46.47531" lon="5.94605">
        <ele>929.8</ele>
        <time>2021-10-17T13:47:44Z</time>
      </trkpt>
      <trkpt lat="46.47534" lon="5.94604">
        <ele>929.8</ele>
        <time>2021-10-17T13:47:45Z</time>
      </trkpt>
      <trkpt lat="46.47538" lon="5.94601">
        <ele>929.8</ele>
        <time>2021-10-17T13:47:46Z</time>
      </trkpt>
      <trkpt lat="46.47541" lon="5.94599">
        <ele>929.8</ele>
        <time>2021-10-17T13:47:47Z</time>
      </trkpt>
      <trkpt lat="46.47544" lon="5.94597">
        <ele>929.8</ele>
        <time>2021-10-17T13:47:48Z</time>
      </trkpt>
      <trkpt lat="46.47547" lon="5.94594">
        <ele>929.8</ele>
        <time>2021-10-17T13:47:49Z</time>
      </trkpt>
      <trkpt lat="46.47551" lon="5.94591">
        <ele>929.8</ele>
        <time>2021-10-17T13:47:50Z</time>
      </trkpt>
      <trkpt lat="46.47554" lon="5.94588">
        <ele>929.6</ele>
        <time>2021-10-17T13:47:51Z</time>
      </trkpt>
      <trkpt lat="46.47557" lon="5.94584">
        <ele>929.6</ele>
        <time>2021-10-17T13:47:52Z</time>
      </trkpt>
      <trkpt lat="46.47561" lon="5.94579">
        <ele>929.4</ele>
        <time>2021-10-17T13:47:53Z</time>
      </trkpt>
      <trkpt lat="46.47566" lon="5.94574">
        <ele>929.4</ele>
        <time>2021-10-17T13:47:54Z</time>
      </trkpt>
      <trkpt lat="46.4757" lon="5.94569">
        <ele>929</ele>
        <time>2021-10-17T13:47:55Z</time>
      </trkpt>
      <trkpt lat="46.47574" lon="5.94563">
        <ele>929</ele>
        <time>2021-10-17T13:47:56Z</time>
      </trkpt>
      <trkpt lat="46.47578" lon="5.94557">
        <ele>928.8</ele>
        <time>2021-10-17T13:47:57Z</time>
      </trkpt>
      <trkpt lat="46.47583" lon="5.94551">
        <ele>928.4</ele>
        <time>2021-10-17T13:47:58Z</time>
      </trkpt>
      <trkpt lat="46.47587" lon="5.94546">
        <ele>928.4</ele>
        <time>2021-10-17T13:47:59Z</time>
      </trkpt>
      <trkpt lat="46.47592" lon="5.9454">
        <ele>928</ele>
        <time>2021-10-17T13:48:00Z</time>
      </trkpt>
      <trkpt lat="46.47597" lon="5.94533">
        <ele>927.8</ele>
        <time>2021-10-17T13:48:01Z</time>
      </trkpt>
      <trkpt lat="46.47601" lon="5.94526">
        <ele>927.6</ele>
        <time>2021-10-17T13:48:02Z</time>
      </trkpt>
      <trkpt lat="46.47606" lon="5.94518">
        <ele>927.4</ele>
        <time>2021-10-17T13:48:03Z</time>
      </trkpt>
      <trkpt lat="46.47611" lon="5.94509">
        <ele>927</ele>
        <time>2021-10-17T13:48:04Z</time>
      </trkpt>
      <trkpt lat="46.47616" lon="5.945">
        <ele>926.8</ele>
        <time>2021-10-17T13:48:05Z</time>
      </trkpt>
      <trkpt lat="46.47622" lon="5.94492">
        <ele>926.6</ele>
        <time>2021-10-17T13:48:06Z</time>
      </trkpt>
      <trkpt lat="46.47629" lon="5.94484">
        <ele>926.2</ele>
        <time>2021-10-17T13:48:07Z</time>
      </trkpt>
      <trkpt lat="46.47635" lon="5.94477">
        <ele>925.8</ele>
        <time>2021-10-17T13:48:08Z</time>
      </trkpt>
      <trkpt lat="46.47643" lon="5.94471">
        <ele>925.4</ele>
        <time>2021-10-17T13:48:09Z</time>
      </trkpt>
      <trkpt lat="46.47652" lon="5.94465">
        <ele>925</ele>
        <time>2021-10-17T13:48:10Z</time>
      </trkpt>
      <trkpt lat="46.47661" lon="5.94459">
        <ele>924.4</ele>
        <time>2021-10-17T13:48:11Z</time>
      </trkpt>
      <trkpt lat="46.47671" lon="5.94453">
        <ele>924</ele>
        <time>2021-10-17T13:48:12Z</time>
      </trkpt>
      <trkpt lat="46.4768" lon="5.94446">
        <ele>923.6</ele>
        <time>2021-10-17T13:48:13Z</time>
      </trkpt>
      <trkpt lat="46.47688" lon="5.9444">
        <ele>923</ele>
        <time>2021-10-17T13:48:14Z</time>
      </trkpt>
      <trkpt lat="46.47697" lon="5.94436">
        <ele>922.6</ele>
        <time>2021-10-17T13:48:15Z</time>
      </trkpt>
      <trkpt lat="46.47707" lon="5.94435">
        <ele>922.2</ele>
        <time>2021-10-17T13:48:16Z</time>
      </trkpt>
      <trkpt lat="46.47718" lon="5.94436">
        <ele>921.6</ele>
        <time>2021-10-17T13:48:17Z</time>
      </trkpt>
      <trkpt lat="46.47727" lon="5.9444">
        <ele>921.2</ele>
        <time>2021-10-17T13:48:18Z</time>
      </trkpt>
      <trkpt lat="46.47736" lon="5.94446">
        <ele>920.8</ele>
        <time>2021-10-17T13:48:19Z</time>
      </trkpt>
      <trkpt lat="46.47744" lon="5.94454">
        <ele>920.4</ele>
        <time>2021-10-17T13:48:20Z</time>
      </trkpt>
      <trkpt lat="46.47752" lon="5.94464">
        <ele>920</ele>
        <time>2021-10-17T13:48:21Z</time>
      </trkpt>
      <trkpt lat="46.4776" lon="5.94474">
        <ele>919.8</ele>
        <time>2021-10-17T13:48:22Z</time>
      </trkpt>
      <trkpt lat="46.47767" lon="5.94485">
        <ele>919.8</ele>
        <time>2021-10-17T13:48:23Z</time>
      </trkpt>
      <trkpt lat="46.47774" lon="5.94495">
        <ele>919.2</ele>
        <time>2021-10-17T13:48:24Z</time>
      </trkpt>
      <trkpt lat="46.47781" lon="5.94506">
        <ele>919</ele>
        <time>2021-10-17T13:48:25Z</time>
      </trkpt>
      <trkpt lat="46.47789" lon="5.94517">
        <ele>919</ele>
        <time>2021-10-17T13:48:26Z</time>
      </trkpt>
      <trkpt lat="46.47796" lon="5.94528">
        <ele>918.6</ele>
        <time>2021-10-17T13:48:27Z</time>
      </trkpt>
      <trkpt lat="46.47802" lon="5.94538">
        <ele>918.2</ele>
        <time>2021-10-17T13:48:28Z</time>
      </trkpt>
      <trkpt lat="46.47809" lon="5.94549">
        <ele>917.8</ele>
        <time>2021-10-17T13:48:29Z</time>
      </trkpt>
      <trkpt lat="46.47816" lon="5.94559">
        <ele>917.4</ele>
        <time>2021-10-17T13:48:30Z</time>
      </trkpt>
      <trkpt lat="46.47823" lon="5.9457">
        <ele>917</ele>
        <time>2021-10-17T13:48:31Z</time>
      </trkpt>
      <trkpt lat="46.47831" lon="5.94581">
        <ele>916.8</ele>
        <time>2021-10-17T13:48:32Z</time>
      </trkpt>
      <trkpt lat="46.47837" lon="5.94592">
        <ele>916.4</ele>
        <time>2021-10-17T13:48:33Z</time>
      </trkpt>
      <trkpt lat="46.47844" lon="5.94603">
        <ele>916.4</ele>
        <time>2021-10-17T13:48:34Z</time>
      </trkpt>
      <trkpt lat="46.47851" lon="5.94612">
        <ele>916.2</ele>
        <time>2021-10-17T13:48:35Z</time>
      </trkpt>
      <trkpt lat="46.47858" lon="5.94621">
        <ele>916.2</ele>
        <time>2021-10-17T13:48:36Z</time>
      </trkpt>
      <trkpt lat="46.47865" lon="5.9463">
        <ele>916.2</ele>
        <time>2021-10-17T13:48:37Z</time>
      </trkpt>
      <trkpt lat="46.47871" lon="5.94638">
        <ele>916.2</ele>
        <time>2021-10-17T13:48:38Z</time>
      </trkpt>
      <trkpt lat="46.47879" lon="5.94646">
        <ele>916.2</ele>
        <time>2021-10-17T13:48:39Z</time>
      </trkpt>
      <trkpt lat="46.47887" lon="5.94653">
        <ele>916.2</ele>
        <time>2021-10-17T13:48:40Z</time>
      </trkpt>
      <trkpt lat="46.47894" lon="5.9466">
        <ele>916.2</ele>
        <time>2021-10-17T13:48:41Z</time>
      </trkpt>
      <trkpt lat="46.47901" lon="5.94665">
        <ele>916.2</ele>
        <time>2021-10-17T13:48:42Z</time>
      </trkpt>
      <trkpt lat="46.47909" lon="5.9467">
        <ele>916.2</ele>
        <time>2021-10-17T13:48:43Z</time>
      </trkpt>
      <trkpt lat="46.47916" lon="5.94675">
        <ele>916.2</ele>
        <time>2021-10-17T13:48:44Z</time>
      </trkpt>
      <trkpt lat="46.47923" lon="5.9468">
        <ele>916.2</ele>
        <time>2021-10-17T13:48:45Z</time>
      </trkpt>
      <trkpt lat="46.4793" lon="5.94685">
        <ele>916.2</ele>
        <time>2021-10-17T13:48:46Z</time>
      </trkpt>
      <trkpt lat="46.47936" lon="5.94691">
        <ele>916.2</ele>
        <time>2021-10-17T13:48:47Z</time>
      </trkpt>
      <trkpt lat="46.47943" lon="5.94696">
        <ele>916.2</ele>
        <time>2021-10-17T13:48:48Z</time>
      </trkpt>
      <trkpt lat="46.4795" lon="5.94702">
        <ele>916.2</ele>
        <time>2021-10-17T13:48:49Z</time>
      </trkpt>
      <trkpt lat="46.47956" lon="5.94708">
        <ele>916.2</ele>
        <time>2021-10-17T13:48:50Z</time>
      </trkpt>
      <trkpt lat="46.47962" lon="5.94715">
        <ele>916.2</ele>
        <time>2021-10-17T13:48:51Z</time>
      </trkpt>
      <trkpt lat="46.47968" lon="5.94724">
        <ele>916.2</ele>
        <time>2021-10-17T13:48:52Z</time>
      </trkpt>
      <trkpt lat="46.47973" lon="5.94733">
        <ele>916.2</ele>
        <time>2021-10-17T13:48:53Z</time>
      </trkpt>
      <trkpt lat="46.47977" lon="5.94743">
        <ele>916.2</ele>
        <time>2021-10-17T13:48:54Z</time>
      </trkpt>
      <trkpt lat="46.4798" lon="5.94753">
        <ele>916.2</ele>
        <time>2021-10-17T13:48:55Z</time>
      </trkpt>
      <trkpt lat="46.47983" lon="5.94764">
        <ele>916</ele>
        <time>2021-10-17T13:48:56Z</time>
      </trkpt>
      <trkpt lat="46.47986" lon="5.94774">
        <ele>916</ele>
        <time>2021-10-17T13:48:57Z</time>
      </trkpt>
      <trkpt lat="46.47988" lon="5.94785">
        <ele>916</ele>
        <time>2021-10-17T13:48:58Z</time>
      </trkpt>
      <trkpt lat="46.47991" lon="5.94796">
        <ele>916</ele>
        <time>2021-10-17T13:48:59Z</time>
      </trkpt>
      <trkpt lat="46.47994" lon="5.94806">
        <ele>916</ele>
        <time>2021-10-17T13:49:00Z</time>
      </trkpt>
      <trkpt lat="46.47996" lon="5.94817">
        <ele>915.8</ele>
        <time>2021-10-17T13:49:01Z</time>
      </trkpt>
      <trkpt lat="46.47999" lon="5.94827">
        <ele>915.8</ele>
        <time>2021-10-17T13:49:02Z</time>
      </trkpt>
      <trkpt lat="46.48002" lon="5.94838">
        <ele>915.4</ele>
        <time>2021-10-17T13:49:03Z</time>
      </trkpt>
      <trkpt lat="46.48004" lon="5.94849">
        <ele>915.4</ele>
        <time>2021-10-17T13:49:04Z</time>
      </trkpt>
      <trkpt lat="46.48007" lon="5.9486">
        <ele>915</ele>
        <time>2021-10-17T13:49:05Z</time>
      </trkpt>
      <trkpt lat="46.4801" lon="5.9487">
        <ele>915</ele>
        <time>2021-10-17T13:49:06Z</time>
      </trkpt>
      <trkpt lat="46.48012" lon="5.94881">
        <ele>914.8</ele>
        <time>2021-10-17T13:49:07Z</time>
      </trkpt>
      <trkpt lat="46.48015" lon="5.94892">
        <ele>914.8</ele>
        <time>2021-10-17T13:49:08Z</time>
      </trkpt>
      <trkpt lat="46.48018" lon="5.94903">
        <ele>914.4</ele>
        <time>2021-10-17T13:49:09Z</time>
      </trkpt>
      <trkpt lat="46.4802" lon="5.94915">
        <ele>914.4</ele>
        <time>2021-10-17T13:49:10Z</time>
      </trkpt>
      <trkpt lat="46.48023" lon="5.94926">
        <ele>914.4</ele>
        <time>2021-10-17T13:49:11Z</time>
      </trkpt>
      <trkpt lat="46.48026" lon="5.94937">
        <ele>914.4</ele>
        <time>2021-10-17T13:49:12Z</time>
      </trkpt>
      <trkpt lat="46.48028" lon="5.94949">
        <ele>914</ele>
        <time>2021-10-17T13:49:13Z</time>
      </trkpt>
      <trkpt lat="46.48031" lon="5.9496">
        <ele>914</ele>
        <time>2021-10-17T13:49:14Z</time>
      </trkpt>
      <trkpt lat="46.48033" lon="5.94972">
        <ele>913.8</ele>
        <time>2021-10-17T13:49:15Z</time>
      </trkpt>
      <trkpt lat="46.48036" lon="5.94983">
        <ele>913.4</ele>
        <time>2021-10-17T13:49:16Z</time>
      </trkpt>
      <trkpt lat="46.48039" lon="5.94994">
        <ele>913.4</ele>
        <time>2021-10-17T13:49:17Z</time>
      </trkpt>
      <trkpt lat="46.48041" lon="5.95006">
        <ele>913.2</ele>
        <time>2021-10-17T13:49:18Z</time>
      </trkpt>
      <trkpt lat="46.48044" lon="5.95017">
        <ele>913.2</ele>
        <time>2021-10-17T13:49:19Z</time>
      </trkpt>
      <trkpt lat="46.48046" lon="5.95029">
        <ele>912.8</ele>
        <time>2021-10-17T13:49:20Z</time>
      </trkpt>
      <trkpt lat="46.48049" lon="5.9504">
        <ele>912.8</ele>
        <time>2021-10-17T13:49:21Z</time>
      </trkpt>
      <trkpt lat="46.48052" lon="5.95051">
        <ele>912.6</ele>
        <time>2021-10-17T13:49:22Z</time>
      </trkpt>
      <trkpt lat="46.48054" lon="5.95062">
        <ele>912.6</ele>
        <time>2021-10-17T13:49:23Z</time>
      </trkpt>
      <trkpt lat="46.48057" lon="5.95074">
        <ele>912.2</ele>
        <time>2021-10-17T13:49:24Z</time>
      </trkpt>
      <trkpt lat="46.4806" lon="5.95085">
        <ele>912.2</ele>
        <time>2021-10-17T13:49:25Z</time>
      </trkpt>
      <trkpt lat="46.48062" lon="5.95096">
        <ele>912</ele>
        <time>2021-10-17T13:49:26Z</time>
      </trkpt>
      <trkpt lat="46.48065" lon="5.95108">
        <ele>912</ele>
        <time>2021-10-17T13:49:27Z</time>
      </trkpt>
      <trkpt lat="46.48067" lon="5.95119">
        <ele>911.6</ele>
        <time>2021-10-17T13:49:28Z</time>
      </trkpt>
      <trkpt lat="46.4807" lon="5.95131">
        <ele>911.4</ele>
        <time>2021-10-17T13:49:29Z</time>
      </trkpt>
      <trkpt lat="46.48073" lon="5.95142">
        <ele>911.4</ele>
        <time>2021-10-17T13:49:30Z</time>
      </trkpt>
      <trkpt lat="46.48076" lon="5.95154">
        <ele>911.2</ele>
        <time>2021-10-17T13:49:31Z</time>
      </trkpt>
      <trkpt lat="46.48079" lon="5.95165">
        <ele>911.2</ele>
        <time>2021-10-17T13:49:32Z</time>
      </trkpt>
      <trkpt lat="46.48083" lon="5.95176">
        <ele>910.8</ele>
        <time>2021-10-17T13:49:33Z</time>
      </trkpt>
      <trkpt lat="46.48087" lon="5.95186">
        <ele>910.8</ele>
        <time>2021-10-17T13:49:34Z</time>
      </trkpt>
      <trkpt lat="46.48092" lon="5.95196">
        <ele>910.4</ele>
        <time>2021-10-17T13:49:35Z</time>
      </trkpt>
      <trkpt lat="46.48098" lon="5.95207">
        <ele>910.2</ele>
        <time>2021-10-17T13:49:36Z</time>
      </trkpt>
      <trkpt lat="46.48105" lon="5.95216">
        <ele>909.8</ele>
        <time>2021-10-17T13:49:37Z</time>
      </trkpt>
      <trkpt lat="46.48112" lon="5.95224">
        <ele>909.6</ele>
        <time>2021-10-17T13:49:38Z</time>
      </trkpt>
      <trkpt lat="46.4812" lon="5.95233">
        <ele>909.2</ele>
        <time>2021-10-17T13:49:39Z</time>
      </trkpt>
      <trkpt lat="46.48129" lon="5.95243">
        <ele>908.8</ele>
        <time>2021-10-17T13:49:40Z</time>
      </trkpt>
      <trkpt lat="46.48137" lon="5.95251">
        <ele>908.4</ele>
        <time>2021-10-17T13:49:41Z</time>
      </trkpt>
      <trkpt lat="46.48145" lon="5.9526">
        <ele>907.8</ele>
        <time>2021-10-17T13:49:42Z</time>
      </trkpt>
      <trkpt lat="46.48153" lon="5.9527">
        <ele>907.4</ele>
        <time>2021-10-17T13:49:43Z</time>
      </trkpt>
      <trkpt lat="46.48162" lon="5.95279">
        <ele>906.8</ele>
        <time>2021-10-17T13:49:44Z</time>
      </trkpt>
      <trkpt lat="46.4817" lon="5.95289">
        <ele>906.8</ele>
        <time>2021-10-17T13:49:45Z</time>
      </trkpt>
      <trkpt lat="46.48179" lon="5.95299">
        <ele>906.2</ele>
        <time>2021-10-17T13:49:46Z</time>
      </trkpt>
      <trkpt lat="46.48189" lon="5.95309">
        <ele>905.6</ele>
        <time>2021-10-17T13:49:47Z</time>
      </trkpt>
      <trkpt lat="46.48199" lon="5.9532">
        <ele>905</ele>
        <time>2021-10-17T13:49:48Z</time>
      </trkpt>
      <trkpt lat="46.48208" lon="5.9533">
        <ele>904.4</ele>
        <time>2021-10-17T13:49:49Z</time>
      </trkpt>
      <trkpt lat="46.48217" lon="5.95339">
        <ele>904</ele>
        <time>2021-10-17T13:49:50Z</time>
      </trkpt>
      <trkpt lat="46.48225" lon="5.95348">
        <ele>903.6</ele>
        <time>2021-10-17T13:49:51Z</time>
      </trkpt>
      <trkpt lat="46.48234" lon="5.95357">
        <ele>903.4</ele>
        <time>2021-10-17T13:49:52Z</time>
      </trkpt>
      <trkpt lat="46.48242" lon="5.95366">
        <ele>903.4</ele>
        <time>2021-10-17T13:49:53Z</time>
      </trkpt>
      <trkpt lat="46.4825" lon="5.95375">
        <ele>903.4</ele>
        <time>2021-10-17T13:49:54Z</time>
      </trkpt>
      <trkpt lat="46.48256" lon="5.95382">
        <ele>903.4</ele>
        <time>2021-10-17T13:49:55Z</time>
      </trkpt>
      <trkpt lat="46.48263" lon="5.95391">
        <ele>903.4</ele>
        <time>2021-10-17T13:49:56Z</time>
      </trkpt>
      <trkpt lat="46.4827" lon="5.95399">
        <ele>903.6</ele>
        <time>2021-10-17T13:49:57Z</time>
      </trkpt>
      <trkpt lat="46.48277" lon="5.95406">
        <ele>903.6</ele>
        <time>2021-10-17T13:49:58Z</time>
      </trkpt>
      <trkpt lat="46.48283" lon="5.95413">
        <ele>903.8</ele>
        <time>2021-10-17T13:49:59Z</time>
      </trkpt>
      <trkpt lat="46.4829" lon="5.9542">
        <ele>903.8</ele>
        <time>2021-10-17T13:50:00Z</time>
      </trkpt>
      <trkpt lat="46.48297" lon="5.95427">
        <ele>904.2</ele>
        <time>2021-10-17T13:50:01Z</time>
      </trkpt>
      <trkpt lat="46.48303" lon="5.95434">
        <ele>904.2</ele>
        <time>2021-10-17T13:50:02Z</time>
      </trkpt>
      <trkpt lat="46.4831" lon="5.95441">
        <ele>904.4</ele>
        <time>2021-10-17T13:50:03Z</time>
      </trkpt>
      <trkpt lat="46.48316" lon="5.95448">
        <ele>904.4</ele>
        <time>2021-10-17T13:50:04Z</time>
      </trkpt>
      <trkpt lat="46.48322" lon="5.95455">
        <ele>904.4</ele>
        <time>2021-10-17T13:50:05Z</time>
      </trkpt>
      <trkpt lat="46.48329" lon="5.95462">
        <ele>904.4</ele>
        <time>2021-10-17T13:50:06Z</time>
      </trkpt>
      <trkpt lat="46.48335" lon="5.95469">
        <ele>904.4</ele>
        <time>2021-10-17T13:50:07Z</time>
      </trkpt>
      <trkpt lat="46.48341" lon="5.95475">
        <ele>904.6</ele>
        <time>2021-10-17T13:50:08Z</time>
      </trkpt>
      <trkpt lat="46.48347" lon="5.95481">
        <ele>904.6</ele>
        <time>2021-10-17T13:50:09Z</time>
      </trkpt>
      <trkpt lat="46.48352" lon="5.95487">
        <ele>904.6</ele>
        <time>2021-10-17T13:50:10Z</time>
      </trkpt>
      <trkpt lat="46.48358" lon="5.95493">
        <ele>905</ele>
        <time>2021-10-17T13:50:11Z</time>
      </trkpt>
      <trkpt lat="46.48364" lon="5.95499">
        <ele>905</ele>
        <time>2021-10-17T13:50:12Z</time>
      </trkpt>
      <trkpt lat="46.48369" lon="5.95505">
        <ele>905.2</ele>
        <time>2021-10-17T13:50:13Z</time>
      </trkpt>
      <trkpt lat="46.48375" lon="5.9551">
        <ele>905.2</ele>
        <time>2021-10-17T13:50:14Z</time>
      </trkpt>
      <trkpt lat="46.4838" lon="5.95515">
        <ele>905.4</ele>
        <time>2021-10-17T13:50:15Z</time>
      </trkpt>
      <trkpt lat="46.48385" lon="5.9552">
        <ele>905.4</ele>
        <time>2021-10-17T13:50:16Z</time>
      </trkpt>
      <trkpt lat="46.48391" lon="5.95526">
        <ele>905.8</ele>
        <time>2021-10-17T13:50:17Z</time>
      </trkpt>
      <trkpt lat="46.48396" lon="5.95532">
        <ele>906</ele>
        <time>2021-10-17T13:50:18Z</time>
      </trkpt>
      <trkpt lat="46.484" lon="5.95538">
        <ele>906.4</ele>
        <time>2021-10-17T13:50:19Z</time>
      </trkpt>
      <trkpt lat="46.48405" lon="5.95544">
        <ele>906.6</ele>
        <time>2021-10-17T13:50:20Z</time>
      </trkpt>
      <trkpt lat="46.4841" lon="5.95551">
        <ele>906.8</ele>
        <time>2021-10-17T13:50:21Z</time>
      </trkpt>
      <trkpt lat="46.48415" lon="5.95557">
        <ele>906.8</ele>
        <time>2021-10-17T13:50:22Z</time>
      </trkpt>
      <trkpt lat="46.4842" lon="5.95564">
        <ele>907.2</ele>
        <time>2021-10-17T13:50:23Z</time>
      </trkpt>
      <trkpt lat="46.48424" lon="5.9557">
        <ele>907.2</ele>
        <time>2021-10-17T13:50:24Z</time>
      </trkpt>
      <trkpt lat="46.48429" lon="5.95577">
        <ele>907.4</ele>
        <time>2021-10-17T13:50:25Z</time>
      </trkpt>
      <trkpt lat="46.48435" lon="5.95583">
        <ele>907.4</ele>
        <time>2021-10-17T13:50:26Z</time>
      </trkpt>
      <trkpt lat="46.4844" lon="5.9559">
        <ele>907.6</ele>
        <time>2021-10-17T13:50:27Z</time>
      </trkpt>
      <trkpt lat="46.48445" lon="5.95597">
        <ele>907.6</ele>
        <time>2021-10-17T13:50:28Z</time>
      </trkpt>
      <trkpt lat="46.4845" lon="5.95604">
        <ele>907.6</ele>
        <time>2021-10-17T13:50:29Z</time>
      </trkpt>
      <trkpt lat="46.48455" lon="5.95611">
        <ele>907.6</ele>
        <time>2021-10-17T13:50:30Z</time>
      </trkpt>
      <trkpt lat="46.4846" lon="5.95618">
        <ele>907.6</ele>
        <time>2021-10-17T13:50:31Z</time>
      </trkpt>
      <trkpt lat="46.48465" lon="5.95625">
        <ele>907.6</ele>
        <time>2021-10-17T13:50:32Z</time>
      </trkpt>
      <trkpt lat="46.48471" lon="5.95633">
        <ele>907.6</ele>
        <time>2021-10-17T13:50:33Z</time>
      </trkpt>
      <trkpt lat="46.48476" lon="5.9564">
        <ele>907.6</ele>
        <time>2021-10-17T13:50:34Z</time>
      </trkpt>
      <trkpt lat="46.48481" lon="5.95648">
        <ele>907.4</ele>
        <time>2021-10-17T13:50:35Z</time>
      </trkpt>
      <trkpt lat="46.48487" lon="5.95655">
        <ele>907.4</ele>
        <time>2021-10-17T13:50:36Z</time>
      </trkpt>
      <trkpt lat="46.48492" lon="5.95662">
        <ele>907.4</ele>
        <time>2021-10-17T13:50:37Z</time>
      </trkpt>
      <trkpt lat="46.48497" lon="5.9567">
        <ele>907.4</ele>
        <time>2021-10-17T13:50:38Z</time>
      </trkpt>
      <trkpt lat="46.48503" lon="5.95677">
        <ele>907.2</ele>
        <time>2021-10-17T13:50:39Z</time>
      </trkpt>
      <trkpt lat="46.48508" lon="5.95684">
        <ele>907.2</ele>
        <time>2021-10-17T13:50:40Z</time>
      </trkpt>
      <trkpt lat="46.48514" lon="5.95692">
        <ele>907.2</ele>
        <time>2021-10-17T13:50:41Z</time>
      </trkpt>
      <trkpt lat="46.48519" lon="5.957">
        <ele>907</ele>
        <time>2021-10-17T13:50:42Z</time>
      </trkpt>
      <trkpt lat="46.48525" lon="5.95708">
        <ele>906.8</ele>
        <time>2021-10-17T13:50:43Z</time>
      </trkpt>
      <trkpt lat="46.48531" lon="5.95716">
        <ele>906.8</ele>
        <time>2021-10-17T13:50:44Z</time>
      </trkpt>
      <trkpt lat="46.48536" lon="5.95724">
        <ele>906.8</ele>
        <time>2021-10-17T13:50:45Z</time>
      </trkpt>
      <trkpt lat="46.48542" lon="5.95732">
        <ele>906.6</ele>
        <time>2021-10-17T13:50:46Z</time>
      </trkpt>
      <trkpt lat="46.48547" lon="5.95739">
        <ele>906.6</ele>
        <time>2021-10-17T13:50:47Z</time>
      </trkpt>
      <trkpt lat="46.48547" lon="5.95739">
        <ele>906.6</ele>
        <time>2021-10-17T13:50:48Z</time>
      </trkpt>
      <trkpt lat="46.48553" lon="5.95747">
        <ele>906.6</ele>
        <time>2021-10-17T13:50:49Z</time>
      </trkpt>
      <trkpt lat="46.48558" lon="5.95754">
        <ele>906.6</ele>
        <time>2021-10-17T13:50:50Z</time>
      </trkpt>
      <trkpt lat="46.48563" lon="5.95761">
        <ele>906.6</ele>
        <time>2021-10-17T13:50:51Z</time>
      </trkpt>
      <trkpt lat="46.48568" lon="5.95767">
        <ele>906.6</ele>
        <time>2021-10-17T13:50:52Z</time>
      </trkpt>
      <trkpt lat="46.48573" lon="5.95774">
        <ele>906.6</ele>
        <time>2021-10-17T13:50:53Z</time>
      </trkpt>
      <trkpt lat="46.48578" lon="5.9578">
        <ele>906.8</ele>
        <time>2021-10-17T13:50:54Z</time>
      </trkpt>
      <trkpt lat="46.48583" lon="5.95786">
        <ele>906.8</ele>
        <time>2021-10-17T13:50:55Z</time>
      </trkpt>
      <trkpt lat="46.48587" lon="5.95792">
        <ele>907</ele>
        <time>2021-10-17T13:50:56Z</time>
      </trkpt>
      <trkpt lat="46.48592" lon="5.95798">
        <ele>907</ele>
        <time>2021-10-17T13:50:57Z</time>
      </trkpt>
      <trkpt lat="46.48596" lon="5.95804">
        <ele>907.4</ele>
        <time>2021-10-17T13:50:58Z</time>
      </trkpt>
      <trkpt lat="46.48601" lon="5.9581">
        <ele>907.4</ele>
        <time>2021-10-17T13:50:59Z</time>
      </trkpt>
      <trkpt lat="46.48606" lon="5.95817">
        <ele>907.4</ele>
        <time>2021-10-17T13:51:00Z</time>
      </trkpt>
      <trkpt lat="46.4861" lon="5.95824">
        <ele>907.4</ele>
        <time>2021-10-17T13:51:01Z</time>
      </trkpt>
      <trkpt lat="46.48615" lon="5.95831">
        <ele>907</ele>
        <time>2021-10-17T13:51:02Z</time>
      </trkpt>
      <trkpt lat="46.48623" lon="5.95843">
        <ele>907</ele>
        <time>2021-10-17T13:51:03Z</time>
      </trkpt>
      <trkpt lat="46.48626" lon="5.95847">
        <ele>906.8</ele>
        <time>2021-10-17T13:51:04Z</time>
      </trkpt>
      <trkpt lat="46.48631" lon="5.95855">
        <ele>906.4</ele>
        <time>2021-10-17T13:51:05Z</time>
      </trkpt>
      <trkpt lat="46.48637" lon="5.95864">
        <ele>906.2</ele>
        <time>2021-10-17T13:51:06Z</time>
      </trkpt>
      <trkpt lat="46.48643" lon="5.95873">
        <ele>906</ele>
        <time>2021-10-17T13:51:07Z</time>
      </trkpt>
      <trkpt lat="46.48648" lon="5.95882">
        <ele>905.6</ele>
        <time>2021-10-17T13:51:08Z</time>
      </trkpt>
      <trkpt lat="46.48654" lon="5.95892">
        <ele>905.4</ele>
        <time>2021-10-17T13:51:09Z</time>
      </trkpt>
      <trkpt lat="46.4866" lon="5.95901">
        <ele>905</ele>
        <time>2021-10-17T13:51:10Z</time>
      </trkpt>
      <trkpt lat="46.48666" lon="5.95911">
        <ele>904.6</ele>
        <time>2021-10-17T13:51:11Z</time>
      </trkpt>
      <trkpt lat="46.48673" lon="5.95921">
        <ele>904.4</ele>
        <time>2021-10-17T13:51:12Z</time>
      </trkpt>
      <trkpt lat="46.48679" lon="5.95931">
        <ele>904.2</ele>
        <time>2021-10-17T13:51:13Z</time>
      </trkpt>
      <trkpt lat="46.48685" lon="5.95941">
        <ele>903.8</ele>
        <time>2021-10-17T13:51:14Z</time>
      </trkpt>
      <trkpt lat="46.48692" lon="5.95952">
        <ele>903.8</ele>
        <time>2021-10-17T13:51:15Z</time>
      </trkpt>
      <trkpt lat="46.48698" lon="5.95961">
        <ele>903.6</ele>
        <time>2021-10-17T13:51:16Z</time>
      </trkpt>
      <trkpt lat="46.48704" lon="5.95971">
        <ele>903.6</ele>
        <time>2021-10-17T13:51:17Z</time>
      </trkpt>
      <trkpt lat="46.4871" lon="5.9598">
        <ele>903.4</ele>
        <time>2021-10-17T13:51:18Z</time>
      </trkpt>
      <trkpt lat="46.48716" lon="5.95989">
        <ele>903.4</ele>
        <time>2021-10-17T13:51:19Z</time>
      </trkpt>
      <trkpt lat="46.48722" lon="5.95998">
        <ele>903.4</ele>
        <time>2021-10-17T13:51:20Z</time>
      </trkpt>
      <trkpt lat="46.48728" lon="5.96007">
        <ele>903.4</ele>
        <time>2021-10-17T13:51:21Z</time>
      </trkpt>
      <trkpt lat="46.48734" lon="5.96015">
        <ele>903.4</ele>
        <time>2021-10-17T13:51:22Z</time>
      </trkpt>
      <trkpt lat="46.48739" lon="5.96024">
        <ele>903.4</ele>
        <time>2021-10-17T13:51:23Z</time>
      </trkpt>
      <trkpt lat="46.48745" lon="5.96032">
        <ele>903.4</ele>
        <time>2021-10-17T13:51:24Z</time>
      </trkpt>
      <trkpt lat="46.48751" lon="5.9604">
        <ele>903.4</ele>
        <time>2021-10-17T13:51:25Z</time>
      </trkpt>
      <trkpt lat="46.48757" lon="5.96049">
        <ele>903.4</ele>
        <time>2021-10-17T13:51:26Z</time>
      </trkpt>
      <trkpt lat="46.48769" lon="5.96066">
        <ele>903.2</ele>
        <time>2021-10-17T13:51:27Z</time>
      </trkpt>
      <trkpt lat="46.48775" lon="5.96075">
        <ele>903.2</ele>
        <time>2021-10-17T13:51:28Z</time>
      </trkpt>
      <trkpt lat="46.48781" lon="5.96083">
        <ele>903</ele>
        <time>2021-10-17T13:51:29Z</time>
      </trkpt>
      <trkpt lat="46.48787" lon="5.96092">
        <ele>903</ele>
        <time>2021-10-17T13:51:30Z</time>
      </trkpt>
      <trkpt lat="46.48793" lon="5.961">
        <ele>903</ele>
        <time>2021-10-17T13:51:31Z</time>
      </trkpt>
      <trkpt lat="46.48798" lon="5.96108">
        <ele>902.6</ele>
        <time>2021-10-17T13:51:32Z</time>
      </trkpt>
      <trkpt lat="46.48804" lon="5.96116">
        <ele>902.6</ele>
        <time>2021-10-17T13:51:33Z</time>
      </trkpt>
      <trkpt lat="46.4881" lon="5.96123">
        <ele>902.6</ele>
        <time>2021-10-17T13:51:34Z</time>
      </trkpt>
      <trkpt lat="46.48815" lon="5.96131">
        <ele>902.6</ele>
        <time>2021-10-17T13:51:35Z</time>
      </trkpt>
      <trkpt lat="46.4882" lon="5.96138">
        <ele>902.6</ele>
        <time>2021-10-17T13:51:36Z</time>
      </trkpt>
      <trkpt lat="46.48825" lon="5.96146">
        <ele>902.6</ele>
        <time>2021-10-17T13:51:37Z</time>
      </trkpt>
      <trkpt lat="46.4883" lon="5.96153">
        <ele>902.8</ele>
        <time>2021-10-17T13:51:38Z</time>
      </trkpt>
      <trkpt lat="46.48835" lon="5.9616">
        <ele>902.8</ele>
        <time>2021-10-17T13:51:39Z</time>
      </trkpt>
      <trkpt lat="46.4884" lon="5.96167">
        <ele>903.2</ele>
        <time>2021-10-17T13:51:40Z</time>
      </trkpt>
      <trkpt lat="46.48844" lon="5.96173">
        <ele>903.2</ele>
        <time>2021-10-17T13:51:41Z</time>
      </trkpt>
      <trkpt lat="46.48849" lon="5.96181">
        <ele>903.2</ele>
        <time>2021-10-17T13:51:42Z</time>
      </trkpt>
      <trkpt lat="46.48853" lon="5.96188">
        <ele>903.4</ele>
        <time>2021-10-17T13:51:43Z</time>
      </trkpt>
      <trkpt lat="46.48858" lon="5.96194">
        <ele>903.4</ele>
        <time>2021-10-17T13:51:44Z</time>
      </trkpt>
      <trkpt lat="46.48862" lon="5.96201">
        <ele>903.8</ele>
        <time>2021-10-17T13:51:45Z</time>
      </trkpt>
      <trkpt lat="46.48866" lon="5.96208">
        <ele>903.8</ele>
        <time>2021-10-17T13:51:46Z</time>
      </trkpt>
      <trkpt lat="46.4887" lon="5.96215">
        <ele>904</ele>
        <time>2021-10-17T13:51:47Z</time>
      </trkpt>
      <trkpt lat="46.48874" lon="5.96221">
        <ele>904</ele>
        <time>2021-10-17T13:51:48Z</time>
      </trkpt>
      <trkpt lat="46.48878" lon="5.96228">
        <ele>904</ele>
        <time>2021-10-17T13:51:49Z</time>
      </trkpt>
      <trkpt lat="46.48882" lon="5.96235">
        <ele>904</ele>
        <time>2021-10-17T13:51:50Z</time>
      </trkpt>
      <trkpt lat="46.48886" lon="5.96241">
        <ele>904.4</ele>
        <time>2021-10-17T13:51:51Z</time>
      </trkpt>
      <trkpt lat="46.48889" lon="5.96248">
        <ele>904.4</ele>
        <time>2021-10-17T13:51:52Z</time>
      </trkpt>
      <trkpt lat="46.48893" lon="5.96254">
        <ele>904.4</ele>
        <time>2021-10-17T13:51:53Z</time>
      </trkpt>
      <trkpt lat="46.48896" lon="5.96261">
        <ele>904.6</ele>
        <time>2021-10-17T13:51:54Z</time>
      </trkpt>
      <trkpt lat="46.489" lon="5.96267">
        <ele>904.6</ele>
        <time>2021-10-17T13:51:55Z</time>
      </trkpt>
      <trkpt lat="46.48903" lon="5.96273">
        <ele>904.8</ele>
        <time>2021-10-17T13:51:56Z</time>
      </trkpt>
      <trkpt lat="46.48906" lon="5.9628">
        <ele>904.8</ele>
        <time>2021-10-17T13:51:57Z</time>
      </trkpt>
      <trkpt lat="46.4891" lon="5.96286">
        <ele>904.8</ele>
        <time>2021-10-17T13:51:58Z</time>
      </trkpt>
      <trkpt lat="46.48913" lon="5.96292">
        <ele>905.2</ele>
        <time>2021-10-17T13:51:59Z</time>
      </trkpt>
      <trkpt lat="46.48916" lon="5.96297">
        <ele>905.2</ele>
        <time>2021-10-17T13:52:00Z</time>
      </trkpt>
      <trkpt lat="46.48919" lon="5.96302">
        <ele>905.6</ele>
        <time>2021-10-17T13:52:01Z</time>
      </trkpt>
      <trkpt lat="46.48921" lon="5.96306">
        <ele>905.8</ele>
        <time>2021-10-17T13:52:02Z</time>
      </trkpt>
      <trkpt lat="46.48924" lon="5.96311">
        <ele>906</ele>
        <time>2021-10-17T13:52:03Z</time>
      </trkpt>
      <trkpt lat="46.48927" lon="5.96316">
        <ele>906.2</ele>
        <time>2021-10-17T13:52:04Z</time>
      </trkpt>
      <trkpt lat="46.48929" lon="5.96321">
        <ele>906.2</ele>
        <time>2021-10-17T13:52:05Z</time>
      </trkpt>
      <trkpt lat="46.48932" lon="5.96326">
        <ele>906.6</ele>
        <time>2021-10-17T13:52:06Z</time>
      </trkpt>
      <trkpt lat="46.48935" lon="5.96331">
        <ele>906.8</ele>
        <time>2021-10-17T13:52:07Z</time>
      </trkpt>
      <trkpt lat="46.48938" lon="5.96335">
        <ele>906.8</ele>
        <time>2021-10-17T13:52:08Z</time>
      </trkpt>
      <trkpt lat="46.4894" lon="5.96339">
        <ele>907.2</ele>
        <time>2021-10-17T13:52:09Z</time>
      </trkpt>
      <trkpt lat="46.48942" lon="5.96343">
        <ele>907.2</ele>
        <time>2021-10-17T13:52:10Z</time>
      </trkpt>
      <trkpt lat="46.48944" lon="5.96347">
        <ele>907.6</ele>
        <time>2021-10-17T13:52:11Z</time>
      </trkpt>
      <trkpt lat="46.48947" lon="5.96351">
        <ele>907.6</ele>
        <time>2021-10-17T13:52:12Z</time>
      </trkpt>
      <trkpt lat="46.48949" lon="5.96355">
        <ele>908</ele>
        <time>2021-10-17T13:52:13Z</time>
      </trkpt>
      <trkpt lat="46.48952" lon="5.96359">
        <ele>908</ele>
        <time>2021-10-17T13:52:14Z</time>
      </trkpt>
      <trkpt lat="46.48955" lon="5.96363">
        <ele>908.2</ele>
        <time>2021-10-17T13:52:15Z</time>
      </trkpt>
      <trkpt lat="46.48957" lon="5.96368">
        <ele>908.2</ele>
        <time>2021-10-17T13:52:16Z</time>
      </trkpt>
      <trkpt lat="46.4896" lon="5.96373">
        <ele>908.6</ele>
        <time>2021-10-17T13:52:17Z</time>
      </trkpt>
      <trkpt lat="46.48962" lon="5.96378">
        <ele>908.6</ele>
        <time>2021-10-17T13:52:18Z</time>
      </trkpt>
      <trkpt lat="46.48965" lon="5.96382">
        <ele>908.8</ele>
        <time>2021-10-17T13:52:19Z</time>
      </trkpt>
      <trkpt lat="46.48968" lon="5.96387">
        <ele>908.8</ele>
        <time>2021-10-17T13:52:20Z</time>
      </trkpt>
      <trkpt lat="46.4897" lon="5.96392">
        <ele>909.2</ele>
        <time>2021-10-17T13:52:21Z</time>
      </trkpt>
      <trkpt lat="46.48973" lon="5.96397">
        <ele>909.2</ele>
        <time>2021-10-17T13:52:22Z</time>
      </trkpt>
      <trkpt lat="46.48976" lon="5.96402">
        <ele>909.2</ele>
        <time>2021-10-17T13:52:23Z</time>
      </trkpt>
      <trkpt lat="46.48978" lon="5.96407">
        <ele>909.2</ele>
        <time>2021-10-17T13:52:24Z</time>
      </trkpt>
      <trkpt lat="46.48981" lon="5.96411">
        <ele>909.4</ele>
        <time>2021-10-17T13:52:25Z</time>
      </trkpt>
      <trkpt lat="46.48984" lon="5.96416">
        <ele>909.4</ele>
        <time>2021-10-17T13:52:26Z</time>
      </trkpt>
      <trkpt lat="46.48986" lon="5.96421">
        <ele>909.8</ele>
        <time>2021-10-17T13:52:27Z</time>
      </trkpt>
      <trkpt lat="46.48989" lon="5.96426">
        <ele>909.8</ele>
        <time>2021-10-17T13:52:28Z</time>
      </trkpt>
      <trkpt lat="46.48992" lon="5.96432">
        <ele>910</ele>
        <time>2021-10-17T13:52:29Z</time>
      </trkpt>
      <trkpt lat="46.48995" lon="5.96437">
        <ele>910</ele>
        <time>2021-10-17T13:52:30Z</time>
      </trkpt>
      <trkpt lat="46.48998" lon="5.96443">
        <ele>910</ele>
        <time>2021-10-17T13:52:31Z</time>
      </trkpt>
      <trkpt lat="46.49001" lon="5.96449">
        <ele>910.2</ele>
        <time>2021-10-17T13:52:32Z</time>
      </trkpt>
      <trkpt lat="46.49004" lon="5.96455">
        <ele>910.2</ele>
        <time>2021-10-17T13:52:33Z</time>
      </trkpt>
      <trkpt lat="46.49007" lon="5.96461">
        <ele>910.2</ele>
        <time>2021-10-17T13:52:34Z</time>
      </trkpt>
      <trkpt lat="46.49011" lon="5.96467">
        <ele>910.4</ele>
        <time>2021-10-17T13:52:35Z</time>
      </trkpt>
      <trkpt lat="46.49014" lon="5.96473">
        <ele>910.4</ele>
        <time>2021-10-17T13:52:36Z</time>
      </trkpt>
      <trkpt lat="46.49018" lon="5.96479">
        <ele>910.4</ele>
        <time>2021-10-17T13:52:37Z</time>
      </trkpt>
      <trkpt lat="46.49021" lon="5.96485">
        <ele>910.6</ele>
        <time>2021-10-17T13:52:38Z</time>
      </trkpt>
      <trkpt lat="46.49025" lon="5.96491">
        <ele>910.6</ele>
        <time>2021-10-17T13:52:39Z</time>
      </trkpt>
      <trkpt lat="46.49028" lon="5.96497">
        <ele>910.6</ele>
        <time>2021-10-17T13:52:40Z</time>
      </trkpt>
      <trkpt lat="46.49031" lon="5.96503">
        <ele>910.6</ele>
        <time>2021-10-17T13:52:41Z</time>
      </trkpt>
      <trkpt lat="46.49035" lon="5.96509">
        <ele>911</ele>
        <time>2021-10-17T13:52:42Z</time>
      </trkpt>
      <trkpt lat="46.49038" lon="5.96515">
        <ele>911</ele>
        <time>2021-10-17T13:52:43Z</time>
      </trkpt>
      <trkpt lat="46.49041" lon="5.96521">
        <ele>911</ele>
        <time>2021-10-17T13:52:44Z</time>
      </trkpt>
      <trkpt lat="46.49044" lon="5.96527">
        <ele>911.4</ele>
        <time>2021-10-17T13:52:45Z</time>
      </trkpt>
      <trkpt lat="46.49047" lon="5.96533">
        <ele>911.4</ele>
        <time>2021-10-17T13:52:46Z</time>
      </trkpt>
      <trkpt lat="46.49051" lon="5.96539">
        <ele>911.6</ele>
        <time>2021-10-17T13:52:47Z</time>
      </trkpt>
      <trkpt lat="46.49054" lon="5.96544">
        <ele>911.6</ele>
        <time>2021-10-17T13:52:48Z</time>
      </trkpt>
      <trkpt lat="46.49058" lon="5.9655">
        <ele>912</ele>
        <time>2021-10-17T13:52:49Z</time>
      </trkpt>
      <trkpt lat="46.49061" lon="5.96556">
        <ele>912</ele>
        <time>2021-10-17T13:52:50Z</time>
      </trkpt>
      <trkpt lat="46.49063" lon="5.96562">
        <ele>912.4</ele>
        <time>2021-10-17T13:52:51Z</time>
      </trkpt>
      <trkpt lat="46.49066" lon="5.96567">
        <ele>912.4</ele>
        <time>2021-10-17T13:52:52Z</time>
      </trkpt>
      <trkpt lat="46.49069" lon="5.96572">
        <ele>912.6</ele>
        <time>2021-10-17T13:52:53Z</time>
      </trkpt>
      <trkpt lat="46.49071" lon="5.96577">
        <ele>912.6</ele>
        <time>2021-10-17T13:52:54Z</time>
      </trkpt>
      <trkpt lat="46.49075" lon="5.96583">
        <ele>913</ele>
        <time>2021-10-17T13:52:55Z</time>
      </trkpt>
      <trkpt lat="46.49078" lon="5.96589">
        <ele>913.2</ele>
        <time>2021-10-17T13:52:56Z</time>
      </trkpt>
      <trkpt lat="46.49081" lon="5.96594">
        <ele>913.6</ele>
        <time>2021-10-17T13:52:57Z</time>
      </trkpt>
      <trkpt lat="46.49084" lon="5.966">
        <ele>913.8</ele>
        <time>2021-10-17T13:52:58Z</time>
      </trkpt>
      <trkpt lat="46.49087" lon="5.96605">
        <ele>914.2</ele>
        <time>2021-10-17T13:52:59Z</time>
      </trkpt>
      <trkpt lat="46.4909" lon="5.96611">
        <ele>914.4</ele>
        <time>2021-10-17T13:53:00Z</time>
      </trkpt>
      <trkpt lat="46.49092" lon="5.96616">
        <ele>914.4</ele>
        <time>2021-10-17T13:53:01Z</time>
      </trkpt>
      <trkpt lat="46.49095" lon="5.96621">
        <ele>914.6</ele>
        <time>2021-10-17T13:53:02Z</time>
      </trkpt>
      <trkpt lat="46.49098" lon="5.96626">
        <ele>914.6</ele>
        <time>2021-10-17T13:53:03Z</time>
      </trkpt>
      <trkpt lat="46.491" lon="5.96631">
        <ele>914.6</ele>
        <time>2021-10-17T13:53:04Z</time>
      </trkpt>
      <trkpt lat="46.49103" lon="5.96636">
        <ele>915</ele>
        <time>2021-10-17T13:53:05Z</time>
      </trkpt>
      <trkpt lat="46.49106" lon="5.96641">
        <ele>915</ele>
        <time>2021-10-17T13:53:06Z</time>
      </trkpt>
      <trkpt lat="46.49109" lon="5.96647">
        <ele>915</ele>
        <time>2021-10-17T13:53:07Z</time>
      </trkpt>
      <trkpt lat="46.49111" lon="5.96652">
        <ele>915</ele>
        <time>2021-10-17T13:53:08Z</time>
      </trkpt>
      <trkpt lat="46.49114" lon="5.96658">
        <ele>915</ele>
        <time>2021-10-17T13:53:09Z</time>
      </trkpt>
      <trkpt lat="46.49117" lon="5.96663">
        <ele>915.4</ele>
        <time>2021-10-17T13:53:10Z</time>
      </trkpt>
      <trkpt lat="46.4912" lon="5.96669">
        <ele>915.4</ele>
        <time>2021-10-17T13:53:11Z</time>
      </trkpt>
      <trkpt lat="46.49123" lon="5.96674">
        <ele>915.4</ele>
        <time>2021-10-17T13:53:12Z</time>
      </trkpt>
      <trkpt lat="46.49126" lon="5.9668">
        <ele>915.4</ele>
        <time>2021-10-17T13:53:13Z</time>
      </trkpt>
      <trkpt lat="46.49129" lon="5.96686">
        <ele>915.4</ele>
        <time>2021-10-17T13:53:14Z</time>
      </trkpt>
      <trkpt lat="46.49131" lon="5.96692">
        <ele>915.4</ele>
        <time>2021-10-17T13:53:15Z</time>
      </trkpt>
      <trkpt lat="46.49134" lon="5.96697">
        <ele>915.4</ele>
        <time>2021-10-17T13:53:16Z</time>
      </trkpt>
      <trkpt lat="46.49137" lon="5.96703">
        <ele>915.4</ele>
        <time>2021-10-17T13:53:17Z</time>
      </trkpt>
      <trkpt lat="46.4914" lon="5.96709">
        <ele>915.4</ele>
        <time>2021-10-17T13:53:18Z</time>
      </trkpt>
      <trkpt lat="46.49144" lon="5.96715">
        <ele>915.6</ele>
        <time>2021-10-17T13:53:19Z</time>
      </trkpt>
      <trkpt lat="46.49147" lon="5.96722">
        <ele>915.6</ele>
        <time>2021-10-17T13:53:20Z</time>
      </trkpt>
      <trkpt lat="46.49151" lon="5.96729">
        <ele>915.6</ele>
        <time>2021-10-17T13:53:21Z</time>
      </trkpt>
      <trkpt lat="46.49155" lon="5.96736">
        <ele>915.6</ele>
        <time>2021-10-17T13:53:22Z</time>
      </trkpt>
      <trkpt lat="46.49158" lon="5.96743">
        <ele>915.6</ele>
        <time>2021-10-17T13:53:23Z</time>
      </trkpt>
      <trkpt lat="46.49162" lon="5.9675">
        <ele>915.6</ele>
        <time>2021-10-17T13:53:24Z</time>
      </trkpt>
      <trkpt lat="46.49166" lon="5.96756">
        <ele>915.6</ele>
        <time>2021-10-17T13:53:25Z</time>
      </trkpt>
      <trkpt lat="46.49169" lon="5.96763">
        <ele>915.6</ele>
        <time>2021-10-17T13:53:26Z</time>
      </trkpt>
      <trkpt lat="46.49173" lon="5.9677">
        <ele>915.6</ele>
        <time>2021-10-17T13:53:27Z</time>
      </trkpt>
      <trkpt lat="46.49177" lon="5.96777">
        <ele>915.6</ele>
        <time>2021-10-17T13:53:28Z</time>
      </trkpt>
      <trkpt lat="46.49181" lon="5.96783">
        <ele>915.6</ele>
        <time>2021-10-17T13:53:29Z</time>
      </trkpt>
      <trkpt lat="46.49184" lon="5.9679">
        <ele>915.6</ele>
        <time>2021-10-17T13:53:30Z</time>
      </trkpt>
      <trkpt lat="46.49188" lon="5.96798">
        <ele>915.6</ele>
        <time>2021-10-17T13:53:31Z</time>
      </trkpt>
      <trkpt lat="46.49193" lon="5.96805">
        <ele>915.6</ele>
        <time>2021-10-17T13:53:32Z</time>
      </trkpt>
      <trkpt lat="46.49197" lon="5.96812">
        <ele>915.6</ele>
        <time>2021-10-17T13:53:33Z</time>
      </trkpt>
      <trkpt lat="46.49201" lon="5.96819">
        <ele>915.2</ele>
        <time>2021-10-17T13:53:34Z</time>
      </trkpt>
      <trkpt lat="46.49204" lon="5.96827">
        <ele>915.2</ele>
        <time>2021-10-17T13:53:35Z</time>
      </trkpt>
      <trkpt lat="46.49208" lon="5.96834">
        <ele>915.2</ele>
        <time>2021-10-17T13:53:36Z</time>
      </trkpt>
      <trkpt lat="46.49212" lon="5.96841">
        <ele>915</ele>
        <time>2021-10-17T13:53:37Z</time>
      </trkpt>
      <trkpt lat="46.49216" lon="5.96847">
        <ele>915</ele>
        <time>2021-10-17T13:53:38Z</time>
      </trkpt>
      <trkpt lat="46.4922" lon="5.96854">
        <ele>915</ele>
        <time>2021-10-17T13:53:39Z</time>
      </trkpt>
      <trkpt lat="46.49224" lon="5.96862">
        <ele>915</ele>
        <time>2021-10-17T13:53:40Z</time>
      </trkpt>
      <trkpt lat="46.49229" lon="5.96869">
        <ele>914.8</ele>
        <time>2021-10-17T13:53:41Z</time>
      </trkpt>
      <trkpt lat="46.49233" lon="5.96877">
        <ele>914.8</ele>
        <time>2021-10-17T13:53:42Z</time>
      </trkpt>
      <trkpt lat="46.49237" lon="5.96884">
        <ele>914.8</ele>
        <time>2021-10-17T13:53:43Z</time>
      </trkpt>
      <trkpt lat="46.49241" lon="5.96892">
        <ele>914.6</ele>
        <time>2021-10-17T13:53:44Z</time>
      </trkpt>
      <trkpt lat="46.49245" lon="5.969">
        <ele>914.6</ele>
        <time>2021-10-17T13:53:45Z</time>
      </trkpt>
      <trkpt lat="46.49249" lon="5.96907">
        <ele>914.6</ele>
        <time>2021-10-17T13:53:46Z</time>
      </trkpt>
      <trkpt lat="46.49253" lon="5.96915">
        <ele>914.6</ele>
        <time>2021-10-17T13:53:47Z</time>
      </trkpt>
      <trkpt lat="46.49257" lon="5.96923">
        <ele>914.6</ele>
        <time>2021-10-17T13:53:48Z</time>
      </trkpt>
      <trkpt lat="46.49261" lon="5.96931">
        <ele>914.6</ele>
        <time>2021-10-17T13:53:49Z</time>
      </trkpt>
      <trkpt lat="46.49265" lon="5.96937">
        <ele>914.6</ele>
        <time>2021-10-17T13:53:50Z</time>
      </trkpt>
      <trkpt lat="46.49268" lon="5.96944">
        <ele>914.6</ele>
        <time>2021-10-17T13:53:51Z</time>
      </trkpt>
      <trkpt lat="46.49272" lon="5.9695">
        <ele>914.8</ele>
        <time>2021-10-17T13:53:52Z</time>
      </trkpt>
      <trkpt lat="46.49275" lon="5.96956">
        <ele>914.8</ele>
        <time>2021-10-17T13:53:53Z</time>
      </trkpt>
      <trkpt lat="46.49279" lon="5.96962">
        <ele>915</ele>
        <time>2021-10-17T13:53:54Z</time>
      </trkpt>
      <trkpt lat="46.49282" lon="5.96968">
        <ele>915</ele>
        <time>2021-10-17T13:53:55Z</time>
      </trkpt>
      <trkpt lat="46.49286" lon="5.96974">
        <ele>915.2</ele>
        <time>2021-10-17T13:53:56Z</time>
      </trkpt>
      <trkpt lat="46.49289" lon="5.9698">
        <ele>915.2</ele>
        <time>2021-10-17T13:53:57Z</time>
      </trkpt>
      <trkpt lat="46.49292" lon="5.96987">
        <ele>915.2</ele>
        <time>2021-10-17T13:53:58Z</time>
      </trkpt>
      <trkpt lat="46.49295" lon="5.96992">
        <ele>915.4</ele>
        <time>2021-10-17T13:53:59Z</time>
      </trkpt>
      <trkpt lat="46.49299" lon="5.96999">
        <ele>915.4</ele>
        <time>2021-10-17T13:54:00Z</time>
      </trkpt>
      <trkpt lat="46.49304" lon="5.97005">
        <ele>915.4</ele>
        <time>2021-10-17T13:54:01Z</time>
      </trkpt>
      <trkpt lat="46.49307" lon="5.97012">
        <ele>915.4</ele>
        <time>2021-10-17T13:54:02Z</time>
      </trkpt>
      <trkpt lat="46.49311" lon="5.97019">
        <ele>915.8</ele>
        <time>2021-10-17T13:54:03Z</time>
      </trkpt>
      <trkpt lat="46.49315" lon="5.97026">
        <ele>915.8</ele>
        <time>2021-10-17T13:54:04Z</time>
      </trkpt>
      <trkpt lat="46.49318" lon="5.97033">
        <ele>915.8</ele>
        <time>2021-10-17T13:54:05Z</time>
      </trkpt>
      <trkpt lat="46.49322" lon="5.97039">
        <ele>915.8</ele>
        <time>2021-10-17T13:54:06Z</time>
      </trkpt>
      <trkpt lat="46.49327" lon="5.97046">
        <ele>915.8</ele>
        <time>2021-10-17T13:54:07Z</time>
      </trkpt>
      <trkpt lat="46.4933" lon="5.97053">
        <ele>916</ele>
        <time>2021-10-17T13:54:08Z</time>
      </trkpt>
      <trkpt lat="46.49334" lon="5.9706">
        <ele>916</ele>
        <time>2021-10-17T13:54:09Z</time>
      </trkpt>
      <trkpt lat="46.49338" lon="5.97066">
        <ele>916</ele>
        <time>2021-10-17T13:54:10Z</time>
      </trkpt>
      <trkpt lat="46.49341" lon="5.97072">
        <ele>916.4</ele>
        <time>2021-10-17T13:54:11Z</time>
      </trkpt>
      <trkpt lat="46.49344" lon="5.97077">
        <ele>916.4</ele>
        <time>2021-10-17T13:54:12Z</time>
      </trkpt>
      <trkpt lat="46.49347" lon="5.97082">
        <ele>916.6</ele>
        <time>2021-10-17T13:54:13Z</time>
      </trkpt>
      <trkpt lat="46.4935" lon="5.97087">
        <ele>916.6</ele>
        <time>2021-10-17T13:54:14Z</time>
      </trkpt>
      <trkpt lat="46.49354" lon="5.97092">
        <ele>917</ele>
        <time>2021-10-17T13:54:15Z</time>
      </trkpt>
      <trkpt lat="46.49357" lon="5.97096">
        <ele>917.2</ele>
        <time>2021-10-17T13:54:16Z</time>
      </trkpt>
      <trkpt lat="46.4936" lon="5.97101">
        <ele>917.4</ele>
        <time>2021-10-17T13:54:17Z</time>
      </trkpt>
      <trkpt lat="46.49362" lon="5.97106">
        <ele>917.6</ele>
        <time>2021-10-17T13:54:18Z</time>
      </trkpt>
      <trkpt lat="46.49365" lon="5.97111">
        <ele>918</ele>
        <time>2021-10-17T13:54:19Z</time>
      </trkpt>
      <trkpt lat="46.49367" lon="5.97117">
        <ele>918.2</ele>
        <time>2021-10-17T13:54:20Z</time>
      </trkpt>
      <trkpt lat="46.4937" lon="5.97122">
        <ele>918.2</ele>
        <time>2021-10-17T13:54:21Z</time>
      </trkpt>
      <trkpt lat="46.49373" lon="5.97127">
        <ele>918.6</ele>
        <time>2021-10-17T13:54:22Z</time>
      </trkpt>
      <trkpt lat="46.49376" lon="5.97133">
        <ele>919</ele>
        <time>2021-10-17T13:54:23Z</time>
      </trkpt>
      <trkpt lat="46.49379" lon="5.97138">
        <ele>919.2</ele>
        <time>2021-10-17T13:54:24Z</time>
      </trkpt>
      <trkpt lat="46.49381" lon="5.97144">
        <ele>919.4</ele>
        <time>2021-10-17T13:54:25Z</time>
      </trkpt>
      <trkpt lat="46.49384" lon="5.97149">
        <ele>919.6</ele>
        <time>2021-10-17T13:54:26Z</time>
      </trkpt>
      <trkpt lat="46.49387" lon="5.97154">
        <ele>919.6</ele>
        <time>2021-10-17T13:54:27Z</time>
      </trkpt>
      <trkpt lat="46.4939" lon="5.9716">
        <ele>920.2</ele>
        <time>2021-10-17T13:54:28Z</time>
      </trkpt>
      <trkpt lat="46.49393" lon="5.97165">
        <ele>920.2</ele>
        <time>2021-10-17T13:54:29Z</time>
      </trkpt>
      <trkpt lat="46.49396" lon="5.97171">
        <ele>920.4</ele>
        <time>2021-10-17T13:54:30Z</time>
      </trkpt>
      <trkpt lat="46.49399" lon="5.97177">
        <ele>920.4</ele>
        <time>2021-10-17T13:54:31Z</time>
      </trkpt>
      <trkpt lat="46.49402" lon="5.97182">
        <ele>920.8</ele>
        <time>2021-10-17T13:54:32Z</time>
      </trkpt>
      <trkpt lat="46.49405" lon="5.97188">
        <ele>920.8</ele>
        <time>2021-10-17T13:54:33Z</time>
      </trkpt>
      <trkpt lat="46.49408" lon="5.97194">
        <ele>921</ele>
        <time>2021-10-17T13:54:34Z</time>
      </trkpt>
      <trkpt lat="46.49411" lon="5.97199">
        <ele>921</ele>
        <time>2021-10-17T13:54:35Z</time>
      </trkpt>
      <trkpt lat="46.49414" lon="5.97205">
        <ele>921.2</ele>
        <time>2021-10-17T13:54:36Z</time>
      </trkpt>
      <trkpt lat="46.49418" lon="5.9721">
        <ele>921.2</ele>
        <time>2021-10-17T13:54:37Z</time>
      </trkpt>
      <trkpt lat="46.49421" lon="5.97216">
        <ele>921.6</ele>
        <time>2021-10-17T13:54:38Z</time>
      </trkpt>
      <trkpt lat="46.49424" lon="5.97221">
        <ele>921.8</ele>
        <time>2021-10-17T13:54:39Z</time>
      </trkpt>
      <trkpt lat="46.49427" lon="5.97227">
        <ele>921.8</ele>
        <time>2021-10-17T13:54:40Z</time>
      </trkpt>
      <trkpt lat="46.49431" lon="5.97232">
        <ele>922</ele>
        <time>2021-10-17T13:54:41Z</time>
      </trkpt>
      <trkpt lat="46.49434" lon="5.97237">
        <ele>922</ele>
        <time>2021-10-17T13:54:42Z</time>
      </trkpt>
      <trkpt lat="46.49438" lon="5.97241">
        <ele>922.4</ele>
        <time>2021-10-17T13:54:43Z</time>
      </trkpt>
      <trkpt lat="46.49442" lon="5.97246">
        <ele>922.6</ele>
        <time>2021-10-17T13:54:44Z</time>
      </trkpt>
      <trkpt lat="46.49446" lon="5.9725">
        <ele>923</ele>
        <time>2021-10-17T13:54:45Z</time>
      </trkpt>
      <trkpt lat="46.4945" lon="5.97255">
        <ele>923</ele>
        <time>2021-10-17T13:54:46Z</time>
      </trkpt>
      <trkpt lat="46.49453" lon="5.97259">
        <ele>923.4</ele>
        <time>2021-10-17T13:54:47Z</time>
      </trkpt>
      <trkpt lat="46.49457" lon="5.97263">
        <ele>923.4</ele>
        <time>2021-10-17T13:54:48Z</time>
      </trkpt>
      <trkpt lat="46.49461" lon="5.97267">
        <ele>923.6</ele>
        <time>2021-10-17T13:54:49Z</time>
      </trkpt>
      <trkpt lat="46.49465" lon="5.97271">
        <ele>923.6</ele>
        <time>2021-10-17T13:54:50Z</time>
      </trkpt>
      <trkpt lat="46.49469" lon="5.97275">
        <ele>923.6</ele>
        <time>2021-10-17T13:54:51Z</time>
      </trkpt>
      <trkpt lat="46.49473" lon="5.97278">
        <ele>924</ele>
        <time>2021-10-17T13:54:52Z</time>
      </trkpt>
      <trkpt lat="46.49477" lon="5.97282">
        <ele>924</ele>
        <time>2021-10-17T13:54:53Z</time>
      </trkpt>
      <trkpt lat="46.49481" lon="5.97286">
        <ele>924</ele>
        <time>2021-10-17T13:54:54Z</time>
      </trkpt>
      <trkpt lat="46.49486" lon="5.9729">
        <ele>924</ele>
        <time>2021-10-17T13:54:55Z</time>
      </trkpt>
      <trkpt lat="46.4949" lon="5.97294">
        <ele>924.2</ele>
        <time>2021-10-17T13:54:56Z</time>
      </trkpt>
      <trkpt lat="46.49494" lon="5.97298">
        <ele>924.2</ele>
        <time>2021-10-17T13:54:57Z</time>
      </trkpt>
      <trkpt lat="46.49498" lon="5.97302">
        <ele>924.2</ele>
        <time>2021-10-17T13:54:58Z</time>
      </trkpt>
      <trkpt lat="46.49503" lon="5.97305">
        <ele>924.4</ele>
        <time>2021-10-17T13:54:59Z</time>
      </trkpt>
      <trkpt lat="46.49507" lon="5.97309">
        <ele>924.4</ele>
        <time>2021-10-17T13:55:00Z</time>
      </trkpt>
      <trkpt lat="46.49511" lon="5.97313">
        <ele>924.4</ele>
        <time>2021-10-17T13:55:01Z</time>
      </trkpt>
      <trkpt lat="46.49515" lon="5.97317">
        <ele>924.8</ele>
        <time>2021-10-17T13:55:02Z</time>
      </trkpt>
      <trkpt lat="46.49519" lon="5.97321">
        <ele>924.8</ele>
        <time>2021-10-17T13:55:03Z</time>
      </trkpt>
      <trkpt lat="46.49523" lon="5.97325">
        <ele>924.8</ele>
        <time>2021-10-17T13:55:04Z</time>
      </trkpt>
      <trkpt lat="46.49527" lon="5.97329">
        <ele>925</ele>
        <time>2021-10-17T13:55:05Z</time>
      </trkpt>
      <trkpt lat="46.49531" lon="5.97332">
        <ele>925</ele>
        <time>2021-10-17T13:55:06Z</time>
      </trkpt>
      <trkpt lat="46.49535" lon="5.97336">
        <ele>925.4</ele>
        <time>2021-10-17T13:55:07Z</time>
      </trkpt>
      <trkpt lat="46.49539" lon="5.9734">
        <ele>925.4</ele>
        <time>2021-10-17T13:55:08Z</time>
      </trkpt>
      <trkpt lat="46.49543" lon="5.97344">
        <ele>925.6</ele>
        <time>2021-10-17T13:55:09Z</time>
      </trkpt>
      <trkpt lat="46.49547" lon="5.97348">
        <ele>925.6</ele>
        <time>2021-10-17T13:55:10Z</time>
      </trkpt>
      <trkpt lat="46.49552" lon="5.97352">
        <ele>925.8</ele>
        <time>2021-10-17T13:55:11Z</time>
      </trkpt>
      <trkpt lat="46.49557" lon="5.97356">
        <ele>925.8</ele>
        <time>2021-10-17T13:55:12Z</time>
      </trkpt>
      <trkpt lat="46.49562" lon="5.97361">
        <ele>925.8</ele>
        <time>2021-10-17T13:55:13Z</time>
      </trkpt>
      <trkpt lat="46.49566" lon="5.97365">
        <ele>925.6</ele>
        <time>2021-10-17T13:55:14Z</time>
      </trkpt>
      <trkpt lat="46.49572" lon="5.9737">
        <ele>925.6</ele>
        <time>2021-10-17T13:55:15Z</time>
      </trkpt>
      <trkpt lat="46.49577" lon="5.97375">
        <ele>925.4</ele>
        <time>2021-10-17T13:55:16Z</time>
      </trkpt>
      <trkpt lat="46.49583" lon="5.9738">
        <ele>925.4</ele>
        <time>2021-10-17T13:55:17Z</time>
      </trkpt>
      <trkpt lat="46.49588" lon="5.97385">
        <ele>925.4</ele>
        <time>2021-10-17T13:55:18Z</time>
      </trkpt>
      <trkpt lat="46.49593" lon="5.97391">
        <ele>925</ele>
        <time>2021-10-17T13:55:19Z</time>
      </trkpt>
      <trkpt lat="46.49599" lon="5.97396">
        <ele>925</ele>
        <time>2021-10-17T13:55:20Z</time>
      </trkpt>
      <trkpt lat="46.49604" lon="5.97402">
        <ele>925</ele>
        <time>2021-10-17T13:55:21Z</time>
      </trkpt>
      <trkpt lat="46.49609" lon="5.97408">
        <ele>925</ele>
        <time>2021-10-17T13:55:22Z</time>
      </trkpt>
      <trkpt lat="46.49614" lon="5.97413">
        <ele>925</ele>
        <time>2021-10-17T13:55:23Z</time>
      </trkpt>
      <trkpt lat="46.49619" lon="5.97418">
        <ele>925</ele>
        <time>2021-10-17T13:55:24Z</time>
      </trkpt>
      <trkpt lat="46.49624" lon="5.97424">
        <ele>925</ele>
        <time>2021-10-17T13:55:25Z</time>
      </trkpt>
      <trkpt lat="46.49629" lon="5.97429">
        <ele>925</ele>
        <time>2021-10-17T13:55:26Z</time>
      </trkpt>
      <trkpt lat="46.49634" lon="5.97434">
        <ele>925</ele>
        <time>2021-10-17T13:55:27Z</time>
      </trkpt>
      <trkpt lat="46.49639" lon="5.97439">
        <ele>925</ele>
        <time>2021-10-17T13:55:28Z</time>
      </trkpt>
      <trkpt lat="46.49644" lon="5.97444">
        <ele>925.4</ele>
        <time>2021-10-17T13:55:29Z</time>
      </trkpt>
      <trkpt lat="46.49649" lon="5.97449">
        <ele>925.4</ele>
        <time>2021-10-17T13:55:30Z</time>
      </trkpt>
      <trkpt lat="46.49654" lon="5.97454">
        <ele>925.4</ele>
        <time>2021-10-17T13:55:31Z</time>
      </trkpt>
      <trkpt lat="46.49659" lon="5.97459">
        <ele>925.4</ele>
        <time>2021-10-17T13:55:32Z</time>
      </trkpt>
      <trkpt lat="46.49664" lon="5.97464">
        <ele>925.6</ele>
        <time>2021-10-17T13:55:33Z</time>
      </trkpt>
      <trkpt lat="46.49669" lon="5.97469">
        <ele>925.6</ele>
        <time>2021-10-17T13:55:34Z</time>
      </trkpt>
      <trkpt lat="46.49674" lon="5.97473">
        <ele>925.6</ele>
        <time>2021-10-17T13:55:35Z</time>
      </trkpt>
      <trkpt lat="46.49679" lon="5.97477">
        <ele>925.8</ele>
        <time>2021-10-17T13:55:36Z</time>
      </trkpt>
      <trkpt lat="46.49684" lon="5.97481">
        <ele>925.8</ele>
        <time>2021-10-17T13:55:37Z</time>
      </trkpt>
      <trkpt lat="46.49688" lon="5.97486">
        <ele>926</ele>
        <time>2021-10-17T13:55:38Z</time>
      </trkpt>
      <trkpt lat="46.49693" lon="5.9749">
        <ele>926</ele>
        <time>2021-10-17T13:55:39Z</time>
      </trkpt>
      <trkpt lat="46.49698" lon="5.97494">
        <ele>926</ele>
        <time>2021-10-17T13:55:40Z</time>
      </trkpt>
      <trkpt lat="46.49702" lon="5.97498">
        <ele>926.2</ele>
        <time>2021-10-17T13:55:41Z</time>
      </trkpt>
      <trkpt lat="46.49707" lon="5.97502">
        <ele>926.2</ele>
        <time>2021-10-17T13:55:42Z</time>
      </trkpt>
      <trkpt lat="46.49712" lon="5.97506">
        <ele>926.2</ele>
        <time>2021-10-17T13:55:43Z</time>
      </trkpt>
      <trkpt lat="46.49717" lon="5.97509">
        <ele>926.6</ele>
        <time>2021-10-17T13:55:44Z</time>
      </trkpt>
      <trkpt lat="46.49722" lon="5.97513">
        <ele>926.6</ele>
        <time>2021-10-17T13:55:45Z</time>
      </trkpt>
      <trkpt lat="46.49727" lon="5.97516">
        <ele>926.6</ele>
        <time>2021-10-17T13:55:46Z</time>
      </trkpt>
      <trkpt lat="46.49732" lon="5.9752">
        <ele>926.6</ele>
        <time>2021-10-17T13:55:47Z</time>
      </trkpt>
      <trkpt lat="46.49738" lon="5.97523">
        <ele>926.6</ele>
        <time>2021-10-17T13:55:48Z</time>
      </trkpt>
      <trkpt lat="46.49744" lon="5.97527">
        <ele>926.6</ele>
        <time>2021-10-17T13:55:49Z</time>
      </trkpt>
      <trkpt lat="46.4975" lon="5.97531">
        <ele>926.6</ele>
        <time>2021-10-17T13:55:50Z</time>
      </trkpt>
      <trkpt lat="46.49756" lon="5.97535">
        <ele>926.2</ele>
        <time>2021-10-17T13:55:51Z</time>
      </trkpt>
      <trkpt lat="46.49763" lon="5.97539">
        <ele>926.2</ele>
        <time>2021-10-17T13:55:52Z</time>
      </trkpt>
      <trkpt lat="46.49769" lon="5.97544">
        <ele>926</ele>
        <time>2021-10-17T13:55:53Z</time>
      </trkpt>
      <trkpt lat="46.49776" lon="5.97548">
        <ele>925.8</ele>
        <time>2021-10-17T13:55:54Z</time>
      </trkpt>
      <trkpt lat="46.49782" lon="5.97553">
        <ele>925.8</ele>
        <time>2021-10-17T13:55:55Z</time>
      </trkpt>
      <trkpt lat="46.49789" lon="5.97558">
        <ele>925.4</ele>
        <time>2021-10-17T13:55:56Z</time>
      </trkpt>
      <trkpt lat="46.49795" lon="5.97562">
        <ele>925.4</ele>
        <time>2021-10-17T13:55:57Z</time>
      </trkpt>
      <trkpt lat="46.49802" lon="5.97567">
        <ele>925</ele>
        <time>2021-10-17T13:55:58Z</time>
      </trkpt>
      <trkpt lat="46.49808" lon="5.97572">
        <ele>925</ele>
        <time>2021-10-17T13:55:59Z</time>
      </trkpt>
      <trkpt lat="46.49815" lon="5.97576">
        <ele>924.6</ele>
        <time>2021-10-17T13:56:00Z</time>
      </trkpt>
      <trkpt lat="46.49822" lon="5.97581">
        <ele>924.6</ele>
        <time>2021-10-17T13:56:01Z</time>
      </trkpt>
      <trkpt lat="46.49828" lon="5.97586">
        <ele>924.4</ele>
        <time>2021-10-17T13:56:02Z</time>
      </trkpt>
      <trkpt lat="46.49835" lon="5.97591">
        <ele>924.4</ele>
        <time>2021-10-17T13:56:03Z</time>
      </trkpt>
      <trkpt lat="46.49841" lon="5.97596">
        <ele>924</ele>
        <time>2021-10-17T13:56:04Z</time>
      </trkpt>
      <trkpt lat="46.49847" lon="5.97601">
        <ele>924</ele>
        <time>2021-10-17T13:56:05Z</time>
      </trkpt>
      <trkpt lat="46.49854" lon="5.97606">
        <ele>924</ele>
        <time>2021-10-17T13:56:06Z</time>
      </trkpt>
      <trkpt lat="46.4986" lon="5.9761">
        <ele>924</ele>
        <time>2021-10-17T13:56:07Z</time>
      </trkpt>
      <trkpt lat="46.49866" lon="5.97614">
        <ele>924</ele>
        <time>2021-10-17T13:56:08Z</time>
      </trkpt>
      <trkpt lat="46.49872" lon="5.97618">
        <ele>924.4</ele>
        <time>2021-10-17T13:56:09Z</time>
      </trkpt>
      <trkpt lat="46.49877" lon="5.97622">
        <ele>924.4</ele>
        <time>2021-10-17T13:56:10Z</time>
      </trkpt>
      <trkpt lat="46.49883" lon="5.97626">
        <ele>924.4</ele>
        <time>2021-10-17T13:56:11Z</time>
      </trkpt>
      <trkpt lat="46.49889" lon="5.9763">
        <ele>924.4</ele>
        <time>2021-10-17T13:56:12Z</time>
      </trkpt>
      <trkpt lat="46.49895" lon="5.97634">
        <ele>924.4</ele>
        <time>2021-10-17T13:56:13Z</time>
      </trkpt>
      <trkpt lat="46.499" lon="5.97639">
        <ele>924.4</ele>
        <time>2021-10-17T13:56:14Z</time>
      </trkpt>
      <trkpt lat="46.49906" lon="5.97643">
        <ele>924.4</ele>
        <time>2021-10-17T13:56:15Z</time>
      </trkpt>
      <trkpt lat="46.49911" lon="5.97648">
        <ele>924.4</ele>
        <time>2021-10-17T13:56:16Z</time>
      </trkpt>
      <trkpt lat="46.49917" lon="5.97652">
        <ele>924.4</ele>
        <time>2021-10-17T13:56:17Z</time>
      </trkpt>
      <trkpt lat="46.49922" lon="5.97657">
        <ele>924.4</ele>
        <time>2021-10-17T13:56:18Z</time>
      </trkpt>
      <trkpt lat="46.49928" lon="5.97662">
        <ele>924.4</ele>
        <time>2021-10-17T13:56:19Z</time>
      </trkpt>
      <trkpt lat="46.49934" lon="5.97666">
        <ele>924.4</ele>
        <time>2021-10-17T13:56:20Z</time>
      </trkpt>
      <trkpt lat="46.49941" lon="5.97671">
        <ele>924.4</ele>
        <time>2021-10-17T13:56:21Z</time>
      </trkpt>
      <trkpt lat="46.49947" lon="5.97676">
        <ele>924.2</ele>
        <time>2021-10-17T13:56:22Z</time>
      </trkpt>
      <trkpt lat="46.49954" lon="5.9768">
        <ele>924.2</ele>
        <time>2021-10-17T13:56:23Z</time>
      </trkpt>
      <trkpt lat="46.4996" lon="5.97685">
        <ele>923.8</ele>
        <time>2021-10-17T13:56:24Z</time>
      </trkpt>
      <trkpt lat="46.49967" lon="5.9769">
        <ele>923.8</ele>
        <time>2021-10-17T13:56:25Z</time>
      </trkpt>
      <trkpt lat="46.49974" lon="5.97696">
        <ele>923.6</ele>
        <time>2021-10-17T13:56:26Z</time>
      </trkpt>
      <trkpt lat="46.49982" lon="5.97701">
        <ele>923.2</ele>
        <time>2021-10-17T13:56:27Z</time>
      </trkpt>
      <trkpt lat="46.49989" lon="5.97707">
        <ele>923</ele>
        <time>2021-10-17T13:56:28Z</time>
      </trkpt>
      <trkpt lat="46.49997" lon="5.97713">
        <ele>922.8</ele>
        <time>2021-10-17T13:56:29Z</time>
      </trkpt>
      <trkpt lat="46.50005" lon="5.97719">
        <ele>922.4</ele>
        <time>2021-10-17T13:56:30Z</time>
      </trkpt>
      <trkpt lat="46.50013" lon="5.97725">
        <ele>922.2</ele>
        <time>2021-10-17T13:56:31Z</time>
      </trkpt>
      <trkpt lat="46.50022" lon="5.97731">
        <ele>921.6</ele>
        <time>2021-10-17T13:56:32Z</time>
      </trkpt>
      <trkpt lat="46.5003" lon="5.97736">
        <ele>921.4</ele>
        <time>2021-10-17T13:56:33Z</time>
      </trkpt>
      <trkpt lat="46.50039" lon="5.97741">
        <ele>921</ele>
        <time>2021-10-17T13:56:34Z</time>
      </trkpt>
      <trkpt lat="46.50047" lon="5.97747">
        <ele>920.6</ele>
        <time>2021-10-17T13:56:35Z</time>
      </trkpt>
      <trkpt lat="46.50056" lon="5.97754">
        <ele>920.2</ele>
        <time>2021-10-17T13:56:36Z</time>
      </trkpt>
      <trkpt lat="46.50064" lon="5.9776">
        <ele>920</ele>
        <time>2021-10-17T13:56:37Z</time>
      </trkpt>
      <trkpt lat="46.50073" lon="5.97767">
        <ele>919.6</ele>
        <time>2021-10-17T13:56:38Z</time>
      </trkpt>
      <trkpt lat="46.50082" lon="5.97774">
        <ele>919.4</ele>
        <time>2021-10-17T13:56:39Z</time>
      </trkpt>
      <trkpt lat="46.5009" lon="5.97779">
        <ele>919.2</ele>
        <time>2021-10-17T13:56:40Z</time>
      </trkpt>
      <trkpt lat="46.50098" lon="5.97785">
        <ele>918.8</ele>
        <time>2021-10-17T13:56:41Z</time>
      </trkpt>
      <trkpt lat="46.50106" lon="5.97791">
        <ele>918.8</ele>
        <time>2021-10-17T13:56:42Z</time>
      </trkpt>
      <trkpt lat="46.50114" lon="5.97797">
        <ele>918.4</ele>
        <time>2021-10-17T13:56:43Z</time>
      </trkpt>
      <trkpt lat="46.50122" lon="5.97802">
        <ele>918.4</ele>
        <time>2021-10-17T13:56:44Z</time>
      </trkpt>
      <trkpt lat="46.50129" lon="5.97807">
        <ele>918.4</ele>
        <time>2021-10-17T13:56:45Z</time>
      </trkpt>
      <trkpt lat="46.50137" lon="5.97812">
        <ele>918.4</ele>
        <time>2021-10-17T13:56:46Z</time>
      </trkpt>
      <trkpt lat="46.50144" lon="5.97817">
        <ele>918.4</ele>
        <time>2021-10-17T13:56:47Z</time>
      </trkpt>
      <trkpt lat="46.50151" lon="5.97822">
        <ele>918.4</ele>
        <time>2021-10-17T13:56:48Z</time>
      </trkpt>
      <trkpt lat="46.50158" lon="5.97828">
        <ele>918.4</ele>
        <time>2021-10-17T13:56:49Z</time>
      </trkpt>
      <trkpt lat="46.50165" lon="5.97833">
        <ele>918.4</ele>
        <time>2021-10-17T13:56:50Z</time>
      </trkpt>
      <trkpt lat="46.50172" lon="5.97837">
        <ele>918.4</ele>
        <time>2021-10-17T13:56:51Z</time>
      </trkpt>
      <trkpt lat="46.50179" lon="5.97842">
        <ele>918.8</ele>
        <time>2021-10-17T13:56:52Z</time>
      </trkpt>
      <trkpt lat="46.50182" lon="5.97844">
        <ele>918.8</ele>
        <time>2021-10-17T13:56:53Z</time>
      </trkpt>
      <trkpt lat="46.50185" lon="5.97847">
        <ele>918.8</ele>
        <time>2021-10-17T13:56:54Z</time>
      </trkpt>
      <trkpt lat="46.50192" lon="5.97851">
        <ele>918.8</ele>
        <time>2021-10-17T13:56:55Z</time>
      </trkpt>
      <trkpt lat="46.50198" lon="5.97856">
        <ele>918.8</ele>
        <time>2021-10-17T13:56:56Z</time>
      </trkpt>
      <trkpt lat="46.50205" lon="5.97861">
        <ele>918.8</ele>
        <time>2021-10-17T13:56:57Z</time>
      </trkpt>
      <trkpt lat="46.50211" lon="5.97865">
        <ele>918.8</ele>
        <time>2021-10-17T13:56:58Z</time>
      </trkpt>
      <trkpt lat="46.50218" lon="5.9787">
        <ele>918.8</ele>
        <time>2021-10-17T13:56:59Z</time>
      </trkpt>
      <trkpt lat="46.50224" lon="5.97874">
        <ele>918.8</ele>
        <time>2021-10-17T13:57:00Z</time>
      </trkpt>
      <trkpt lat="46.50231" lon="5.97878">
        <ele>918.8</ele>
        <time>2021-10-17T13:57:01Z</time>
      </trkpt>
      <trkpt lat="46.50237" lon="5.97883">
        <ele>918.8</ele>
        <time>2021-10-17T13:57:02Z</time>
      </trkpt>
      <trkpt lat="46.50243" lon="5.97887">
        <ele>918.8</ele>
        <time>2021-10-17T13:57:03Z</time>
      </trkpt>
      <trkpt lat="46.50249" lon="5.97891">
        <ele>919</ele>
        <time>2021-10-17T13:57:04Z</time>
      </trkpt>
      <trkpt lat="46.50255" lon="5.97895">
        <ele>919</ele>
        <time>2021-10-17T13:57:05Z</time>
      </trkpt>
      <trkpt lat="46.50261" lon="5.97899">
        <ele>919</ele>
        <time>2021-10-17T13:57:06Z</time>
      </trkpt>
      <trkpt lat="46.50267" lon="5.97903">
        <ele>919</ele>
        <time>2021-10-17T13:57:07Z</time>
      </trkpt>
      <trkpt lat="46.50273" lon="5.97907">
        <ele>919</ele>
        <time>2021-10-17T13:57:08Z</time>
      </trkpt>
      <trkpt lat="46.50279" lon="5.97912">
        <ele>919</ele>
        <time>2021-10-17T13:57:09Z</time>
      </trkpt>
      <trkpt lat="46.50285" lon="5.97916">
        <ele>919</ele>
        <time>2021-10-17T13:57:10Z</time>
      </trkpt>
      <trkpt lat="46.50291" lon="5.97921">
        <ele>919</ele>
        <time>2021-10-17T13:57:11Z</time>
      </trkpt>
      <trkpt lat="46.50298" lon="5.97925">
        <ele>919</ele>
        <time>2021-10-17T13:57:12Z</time>
      </trkpt>
      <trkpt lat="46.50304" lon="5.9793">
        <ele>919</ele>
        <time>2021-10-17T13:57:13Z</time>
      </trkpt>
      <trkpt lat="46.50311" lon="5.97935">
        <ele>918.8</ele>
        <time>2021-10-17T13:57:14Z</time>
      </trkpt>
      <trkpt lat="46.50318" lon="5.97939">
        <ele>918.8</ele>
        <time>2021-10-17T13:57:15Z</time>
      </trkpt>
      <trkpt lat="46.50324" lon="5.97944">
        <ele>918.8</ele>
        <time>2021-10-17T13:57:16Z</time>
      </trkpt>
      <trkpt lat="46.50331" lon="5.97949">
        <ele>918.4</ele>
        <time>2021-10-17T13:57:17Z</time>
      </trkpt>
      <trkpt lat="46.50338" lon="5.97953">
        <ele>918.4</ele>
        <time>2021-10-17T13:57:18Z</time>
      </trkpt>
      <trkpt lat="46.50345" lon="5.97957">
        <ele>918.2</ele>
        <time>2021-10-17T13:57:19Z</time>
      </trkpt>
      <trkpt lat="46.50352" lon="5.97962">
        <ele>918.2</ele>
        <time>2021-10-17T13:57:20Z</time>
      </trkpt>
      <trkpt lat="46.50359" lon="5.97965">
        <ele>917.8</ele>
        <time>2021-10-17T13:57:21Z</time>
      </trkpt>
      <trkpt lat="46.50366" lon="5.97969">
        <ele>917.6</ele>
        <time>2021-10-17T13:57:22Z</time>
      </trkpt>
      <trkpt lat="46.50374" lon="5.97972">
        <ele>917.2</ele>
        <time>2021-10-17T13:57:23Z</time>
      </trkpt>
      <trkpt lat="46.50382" lon="5.97975">
        <ele>916.8</ele>
        <time>2021-10-17T13:57:24Z</time>
      </trkpt>
      <trkpt lat="46.50389" lon="5.97976">
        <ele>916.8</ele>
        <time>2021-10-17T13:57:25Z</time>
      </trkpt>
      <trkpt lat="46.50397" lon="5.97978">
        <ele>916.4</ele>
        <time>2021-10-17T13:57:26Z</time>
      </trkpt>
      <trkpt lat="46.50405" lon="5.97979">
        <ele>916.2</ele>
        <time>2021-10-17T13:57:27Z</time>
      </trkpt>
      <trkpt lat="46.50412" lon="5.97981">
        <ele>915.8</ele>
        <time>2021-10-17T13:57:28Z</time>
      </trkpt>
      <trkpt lat="46.5042" lon="5.97982">
        <ele>915.6</ele>
        <time>2021-10-17T13:57:29Z</time>
      </trkpt>
      <trkpt lat="46.50428" lon="5.97984">
        <ele>915.6</ele>
        <time>2021-10-17T13:57:30Z</time>
      </trkpt>
      <trkpt lat="46.50436" lon="5.97988">
        <ele>915.2</ele>
        <time>2021-10-17T13:57:31Z</time>
      </trkpt>
      <trkpt lat="46.50443" lon="5.97992">
        <ele>915.2</ele>
        <time>2021-10-17T13:57:32Z</time>
      </trkpt>
      <trkpt lat="46.5045" lon="5.97996">
        <ele>915.2</ele>
        <time>2021-10-17T13:57:33Z</time>
      </trkpt>
      <trkpt lat="46.50457" lon="5.98">
        <ele>915</ele>
        <time>2021-10-17T13:57:34Z</time>
      </trkpt>
      <trkpt lat="46.50464" lon="5.98006">
        <ele>915</ele>
        <time>2021-10-17T13:57:35Z</time>
      </trkpt>
      <trkpt lat="46.50471" lon="5.98011">
        <ele>914.8</ele>
        <time>2021-10-17T13:57:36Z</time>
      </trkpt>
      <trkpt lat="46.50478" lon="5.98017">
        <ele>914.8</ele>
        <time>2021-10-17T13:57:37Z</time>
      </trkpt>
      <trkpt lat="46.50485" lon="5.98023">
        <ele>914.8</ele>
        <time>2021-10-17T13:57:38Z</time>
      </trkpt>
      <trkpt lat="46.50491" lon="5.98029">
        <ele>914.8</ele>
        <time>2021-10-17T13:57:39Z</time>
      </trkpt>
      <trkpt lat="46.50497" lon="5.98035">
        <ele>914.4</ele>
        <time>2021-10-17T13:57:40Z</time>
      </trkpt>
      <trkpt lat="46.50502" lon="5.98041">
        <ele>914.4</ele>
        <time>2021-10-17T13:57:41Z</time>
      </trkpt>
      <trkpt lat="46.50508" lon="5.98047">
        <ele>914.4</ele>
        <time>2021-10-17T13:57:42Z</time>
      </trkpt>
      <trkpt lat="46.50514" lon="5.98053">
        <ele>914.2</ele>
        <time>2021-10-17T13:57:43Z</time>
      </trkpt>
      <trkpt lat="46.50519" lon="5.9806">
        <ele>914.2</ele>
        <time>2021-10-17T13:57:44Z</time>
      </trkpt>
      <trkpt lat="46.50525" lon="5.98066">
        <ele>913.8</ele>
        <time>2021-10-17T13:57:45Z</time>
      </trkpt>
      <trkpt lat="46.50531" lon="5.98072">
        <ele>913.8</ele>
        <time>2021-10-17T13:57:46Z</time>
      </trkpt>
      <trkpt lat="46.50538" lon="5.98078">
        <ele>913.4</ele>
        <time>2021-10-17T13:57:47Z</time>
      </trkpt>
      <trkpt lat="46.50544" lon="5.98085">
        <ele>913.4</ele>
        <time>2021-10-17T13:57:48Z</time>
      </trkpt>
      <trkpt lat="46.5055" lon="5.98091">
        <ele>913.2</ele>
        <time>2021-10-17T13:57:49Z</time>
      </trkpt>
      <trkpt lat="46.50557" lon="5.98097">
        <ele>913.2</ele>
        <time>2021-10-17T13:57:50Z</time>
      </trkpt>
      <trkpt lat="46.50563" lon="5.98103">
        <ele>913.2</ele>
        <time>2021-10-17T13:57:51Z</time>
      </trkpt>
      <trkpt lat="46.5057" lon="5.98108">
        <ele>913</ele>
        <time>2021-10-17T13:57:52Z</time>
      </trkpt>
      <trkpt lat="46.50577" lon="5.98112">
        <ele>913</ele>
        <time>2021-10-17T13:57:53Z</time>
      </trkpt>
      <trkpt lat="46.50584" lon="5.98115">
        <ele>913</ele>
        <time>2021-10-17T13:57:54Z</time>
      </trkpt>
      <trkpt lat="46.50592" lon="5.98117">
        <ele>913</ele>
        <time>2021-10-17T13:57:55Z</time>
      </trkpt>
      <trkpt lat="46.50599" lon="5.98117">
        <ele>912.6</ele>
        <time>2021-10-17T13:57:56Z</time>
      </trkpt>
      <trkpt lat="46.50607" lon="5.98115">
        <ele>912.6</ele>
        <time>2021-10-17T13:57:57Z</time>
      </trkpt>
      <trkpt lat="46.50614" lon="5.98112">
        <ele>912.2</ele>
        <time>2021-10-17T13:57:58Z</time>
      </trkpt>
      <trkpt lat="46.50622" lon="5.98107">
        <ele>912</ele>
        <time>2021-10-17T13:57:59Z</time>
      </trkpt>
      <trkpt lat="46.50629" lon="5.98103">
        <ele>911.6</ele>
        <time>2021-10-17T13:58:00Z</time>
      </trkpt>
      <trkpt lat="46.50637" lon="5.98099">
        <ele>911.2</ele>
        <time>2021-10-17T13:58:01Z</time>
      </trkpt>
      <trkpt lat="46.50644" lon="5.98095">
        <ele>911</ele>
        <time>2021-10-17T13:58:02Z</time>
      </trkpt>
      <trkpt lat="46.50652" lon="5.9809">
        <ele>910.6</ele>
        <time>2021-10-17T13:58:03Z</time>
      </trkpt>
      <trkpt lat="46.50659" lon="5.98086">
        <ele>910.4</ele>
        <time>2021-10-17T13:58:04Z</time>
      </trkpt>
      <trkpt lat="46.50667" lon="5.98081">
        <ele>910</ele>
        <time>2021-10-17T13:58:05Z</time>
      </trkpt>
      <trkpt lat="46.50675" lon="5.98077">
        <ele>909.8</ele>
        <time>2021-10-17T13:58:06Z</time>
      </trkpt>
      <trkpt lat="46.50683" lon="5.98072">
        <ele>909.4</ele>
        <time>2021-10-17T13:58:07Z</time>
      </trkpt>
      <trkpt lat="46.50691" lon="5.98068">
        <ele>909.2</ele>
        <time>2021-10-17T13:58:08Z</time>
      </trkpt>
      <trkpt lat="46.50699" lon="5.98064">
        <ele>908.8</ele>
        <time>2021-10-17T13:58:09Z</time>
      </trkpt>
      <trkpt lat="46.50707" lon="5.98059">
        <ele>908.8</ele>
        <time>2021-10-17T13:58:10Z</time>
      </trkpt>
      <trkpt lat="46.50714" lon="5.98055">
        <ele>908.4</ele>
        <time>2021-10-17T13:58:11Z</time>
      </trkpt>
      <trkpt lat="46.50722" lon="5.9805">
        <ele>908.4</ele>
        <time>2021-10-17T13:58:12Z</time>
      </trkpt>
      <trkpt lat="46.5073" lon="5.98045">
        <ele>908</ele>
        <time>2021-10-17T13:58:13Z</time>
      </trkpt>
      <trkpt lat="46.50738" lon="5.98041">
        <ele>907.6</ele>
        <time>2021-10-17T13:58:14Z</time>
      </trkpt>
      <trkpt lat="46.50746" lon="5.98037">
        <ele>907.6</ele>
        <time>2021-10-17T13:58:15Z</time>
      </trkpt>
      <trkpt lat="46.50754" lon="5.98032">
        <ele>907.2</ele>
        <time>2021-10-17T13:58:16Z</time>
      </trkpt>
      <trkpt lat="46.50762" lon="5.98027">
        <ele>907</ele>
        <time>2021-10-17T13:58:17Z</time>
      </trkpt>
      <trkpt lat="46.50769" lon="5.98023">
        <ele>906.6</ele>
        <time>2021-10-17T13:58:18Z</time>
      </trkpt>
      <trkpt lat="46.50777" lon="5.98019">
        <ele>906.4</ele>
        <time>2021-10-17T13:58:19Z</time>
      </trkpt>
      <trkpt lat="46.50785" lon="5.98014">
        <ele>906.2</ele>
        <time>2021-10-17T13:58:20Z</time>
      </trkpt>
      <trkpt lat="46.50793" lon="5.9801">
        <ele>905.8</ele>
        <time>2021-10-17T13:58:21Z</time>
      </trkpt>
      <trkpt lat="46.50801" lon="5.98005">
        <ele>905.6</ele>
        <time>2021-10-17T13:58:22Z</time>
      </trkpt>
      <trkpt lat="46.5081" lon="5.98001">
        <ele>905.2</ele>
        <time>2021-10-17T13:58:23Z</time>
      </trkpt>
      <trkpt lat="46.50818" lon="5.97996">
        <ele>905.2</ele>
        <time>2021-10-17T13:58:24Z</time>
      </trkpt>
      <trkpt lat="46.50826" lon="5.97991">
        <ele>905</ele>
        <time>2021-10-17T13:58:25Z</time>
      </trkpt>
      <trkpt lat="46.50834" lon="5.97987">
        <ele>904.6</ele>
        <time>2021-10-17T13:58:26Z</time>
      </trkpt>
      <trkpt lat="46.50843" lon="5.97982">
        <ele>904.4</ele>
        <time>2021-10-17T13:58:27Z</time>
      </trkpt>
      <trkpt lat="46.50852" lon="5.97978">
        <ele>904.4</ele>
        <time>2021-10-17T13:58:28Z</time>
      </trkpt>
      <trkpt lat="46.50861" lon="5.97975">
        <ele>904.2</ele>
        <time>2021-10-17T13:58:29Z</time>
      </trkpt>
      <trkpt lat="46.50871" lon="5.97973">
        <ele>904</ele>
        <time>2021-10-17T13:58:30Z</time>
      </trkpt>
      <trkpt lat="46.50879" lon="5.97972">
        <ele>903.6</ele>
        <time>2021-10-17T13:58:31Z</time>
      </trkpt>
      <trkpt lat="46.50889" lon="5.97973">
        <ele>903.4</ele>
        <time>2021-10-17T13:58:32Z</time>
      </trkpt>
      <trkpt lat="46.50898" lon="5.97975">
        <ele>903.4</ele>
        <time>2021-10-17T13:58:33Z</time>
      </trkpt>
      <trkpt lat="46.50906" lon="5.97979">
        <ele>903.2</ele>
        <time>2021-10-17T13:58:34Z</time>
      </trkpt>
      <trkpt lat="46.50915" lon="5.97984">
        <ele>903</ele>
        <time>2021-10-17T13:58:35Z</time>
      </trkpt>
      <trkpt lat="46.50923" lon="5.97989">
        <ele>902.6</ele>
        <time>2021-10-17T13:58:36Z</time>
      </trkpt>
      <trkpt lat="46.50932" lon="5.97995">
        <ele>902.4</ele>
        <time>2021-10-17T13:58:37Z</time>
      </trkpt>
      <trkpt lat="46.50941" lon="5.98003">
        <ele>902</ele>
        <time>2021-10-17T13:58:38Z</time>
      </trkpt>
      <trkpt lat="46.50949" lon="5.9801">
        <ele>901.6</ele>
        <time>2021-10-17T13:58:39Z</time>
      </trkpt>
      <trkpt lat="46.50956" lon="5.9802">
        <ele>901.2</ele>
        <time>2021-10-17T13:58:40Z</time>
      </trkpt>
      <trkpt lat="46.50962" lon="5.98031">
        <ele>900.8</ele>
        <time>2021-10-17T13:58:41Z</time>
      </trkpt>
      <trkpt lat="46.50969" lon="5.98041">
        <ele>900.4</ele>
        <time>2021-10-17T13:58:42Z</time>
      </trkpt>
      <trkpt lat="46.50974" lon="5.98055">
        <ele>900</ele>
        <time>2021-10-17T13:58:43Z</time>
      </trkpt>
      <trkpt lat="46.50979" lon="5.98073">
        <ele>900</ele>
        <time>2021-10-17T13:58:44Z</time>
      </trkpt>
      <trkpt lat="46.5098" lon="5.9808">
        <ele>899.6</ele>
        <time>2021-10-17T13:58:45Z</time>
      </trkpt>
      <trkpt lat="46.50985" lon="5.98092">
        <ele>899.2</ele>
        <time>2021-10-17T13:58:46Z</time>
      </trkpt>
      <trkpt lat="46.50989" lon="5.98106">
        <ele>898.8</ele>
        <time>2021-10-17T13:58:47Z</time>
      </trkpt>
      <trkpt lat="46.50994" lon="5.9812">
        <ele>898.4</ele>
        <time>2021-10-17T13:58:48Z</time>
      </trkpt>
      <trkpt lat="46.50998" lon="5.98134">
        <ele>898.2</ele>
        <time>2021-10-17T13:58:49Z</time>
      </trkpt>
      <trkpt lat="46.51002" lon="5.98148">
        <ele>897.8</ele>
        <time>2021-10-17T13:58:50Z</time>
      </trkpt>
      <trkpt lat="46.51006" lon="5.98162">
        <ele>897.6</ele>
        <time>2021-10-17T13:58:51Z</time>
      </trkpt>
      <trkpt lat="46.5101" lon="5.98175">
        <ele>897.2</ele>
        <time>2021-10-17T13:58:52Z</time>
      </trkpt>
      <trkpt lat="46.51014" lon="5.98188">
        <ele>896.8</ele>
        <time>2021-10-17T13:58:53Z</time>
      </trkpt>
      <trkpt lat="46.51019" lon="5.98201">
        <ele>896.4</ele>
        <time>2021-10-17T13:58:54Z</time>
      </trkpt>
      <trkpt lat="46.51024" lon="5.98213">
        <ele>896.2</ele>
        <time>2021-10-17T13:58:55Z</time>
      </trkpt>
      <trkpt lat="46.51029" lon="5.98226">
        <ele>895.8</ele>
        <time>2021-10-17T13:58:56Z</time>
      </trkpt>
      <trkpt lat="46.51034" lon="5.98239">
        <ele>895.6</ele>
        <time>2021-10-17T13:58:57Z</time>
      </trkpt>
      <trkpt lat="46.51039" lon="5.98251">
        <ele>895.2</ele>
        <time>2021-10-17T13:58:58Z</time>
      </trkpt>
      <trkpt lat="46.51044" lon="5.98263">
        <ele>894.8</ele>
        <time>2021-10-17T13:58:59Z</time>
      </trkpt>
      <trkpt lat="46.51049" lon="5.98276">
        <ele>894.4</ele>
        <time>2021-10-17T13:59:00Z</time>
      </trkpt>
      <trkpt lat="46.51055" lon="5.98288">
        <ele>894</ele>
        <time>2021-10-17T13:59:01Z</time>
      </trkpt>
      <trkpt lat="46.5106" lon="5.98301">
        <ele>893.6</ele>
        <time>2021-10-17T13:59:02Z</time>
      </trkpt>
      <trkpt lat="46.51066" lon="5.98313">
        <ele>893.2</ele>
        <time>2021-10-17T13:59:03Z</time>
      </trkpt>
      <trkpt lat="46.51072" lon="5.98325">
        <ele>892.8</ele>
        <time>2021-10-17T13:59:04Z</time>
      </trkpt>
      <trkpt lat="46.51078" lon="5.98336">
        <ele>892.4</ele>
        <time>2021-10-17T13:59:05Z</time>
      </trkpt>
      <trkpt lat="46.51084" lon="5.98348">
        <ele>892</ele>
        <time>2021-10-17T13:59:06Z</time>
      </trkpt>
      <trkpt lat="46.5109" lon="5.9836">
        <ele>891.6</ele>
        <time>2021-10-17T13:59:07Z</time>
      </trkpt>
      <trkpt lat="46.51096" lon="5.98372">
        <ele>891.2</ele>
        <time>2021-10-17T13:59:08Z</time>
      </trkpt>
      <trkpt lat="46.51102" lon="5.98384">
        <ele>890.8</ele>
        <time>2021-10-17T13:59:09Z</time>
      </trkpt>
      <trkpt lat="46.51108" lon="5.98395">
        <ele>890.4</ele>
        <time>2021-10-17T13:59:10Z</time>
      </trkpt>
      <trkpt lat="46.51114" lon="5.98407">
        <ele>890</ele>
        <time>2021-10-17T13:59:11Z</time>
      </trkpt>
      <trkpt lat="46.5112" lon="5.98418">
        <ele>889.8</ele>
        <time>2021-10-17T13:59:12Z</time>
      </trkpt>
      <trkpt lat="46.51127" lon="5.98427">
        <ele>889.4</ele>
        <time>2021-10-17T13:59:13Z</time>
      </trkpt>
      <trkpt lat="46.51135" lon="5.98435">
        <ele>889.2</ele>
        <time>2021-10-17T13:59:14Z</time>
      </trkpt>
      <trkpt lat="46.51144" lon="5.98441">
        <ele>889</ele>
        <time>2021-10-17T13:59:15Z</time>
      </trkpt>
      <trkpt lat="46.51153" lon="5.98447">
        <ele>888.8</ele>
        <time>2021-10-17T13:59:16Z</time>
      </trkpt>
      <trkpt lat="46.51164" lon="5.98451">
        <ele>888.4</ele>
        <time>2021-10-17T13:59:17Z</time>
      </trkpt>
      <trkpt lat="46.51174" lon="5.98454">
        <ele>888</ele>
        <time>2021-10-17T13:59:18Z</time>
      </trkpt>
      <trkpt lat="46.51185" lon="5.98457">
        <ele>887.8</ele>
        <time>2021-10-17T13:59:19Z</time>
      </trkpt>
      <trkpt lat="46.51196" lon="5.9846">
        <ele>887.4</ele>
        <time>2021-10-17T13:59:20Z</time>
      </trkpt>
      <trkpt lat="46.51206" lon="5.98462">
        <ele>887.2</ele>
        <time>2021-10-17T13:59:21Z</time>
      </trkpt>
      <trkpt lat="46.51216" lon="5.98465">
        <ele>886.8</ele>
        <time>2021-10-17T13:59:22Z</time>
      </trkpt>
      <trkpt lat="46.51226" lon="5.98468">
        <ele>886.4</ele>
        <time>2021-10-17T13:59:23Z</time>
      </trkpt>
      <trkpt lat="46.51236" lon="5.98471">
        <ele>886</ele>
        <time>2021-10-17T13:59:24Z</time>
      </trkpt>
      <trkpt lat="46.51246" lon="5.98477">
        <ele>885.6</ele>
        <time>2021-10-17T13:59:25Z</time>
      </trkpt>
      <trkpt lat="46.51256" lon="5.98483">
        <ele>885.2</ele>
        <time>2021-10-17T13:59:26Z</time>
      </trkpt>
      <trkpt lat="46.51266" lon="5.98491">
        <ele>884.6</ele>
        <time>2021-10-17T13:59:27Z</time>
      </trkpt>
      <trkpt lat="46.51275" lon="5.985">
        <ele>884.2</ele>
        <time>2021-10-17T13:59:28Z</time>
      </trkpt>
      <trkpt lat="46.51284" lon="5.98509">
        <ele>883.6</ele>
        <time>2021-10-17T13:59:29Z</time>
      </trkpt>
      <trkpt lat="46.51293" lon="5.98519">
        <ele>883.2</ele>
        <time>2021-10-17T13:59:30Z</time>
      </trkpt>
      <trkpt lat="46.51301" lon="5.98529">
        <ele>882.8</ele>
        <time>2021-10-17T13:59:31Z</time>
      </trkpt>
      <trkpt lat="46.5131" lon="5.9854">
        <ele>882.2</ele>
        <time>2021-10-17T13:59:32Z</time>
      </trkpt>
      <trkpt lat="46.51317" lon="5.98551">
        <ele>881.6</ele>
        <time>2021-10-17T13:59:33Z</time>
      </trkpt>
      <trkpt lat="46.51325" lon="5.98563">
        <ele>881.2</ele>
        <time>2021-10-17T13:59:34Z</time>
      </trkpt>
      <trkpt lat="46.51333" lon="5.98574">
        <ele>880.6</ele>
        <time>2021-10-17T13:59:35Z</time>
      </trkpt>
      <trkpt lat="46.51341" lon="5.98586">
        <ele>880</ele>
        <time>2021-10-17T13:59:36Z</time>
      </trkpt>
      <trkpt lat="46.51349" lon="5.98598">
        <ele>879.6</ele>
        <time>2021-10-17T13:59:37Z</time>
      </trkpt>
      <trkpt lat="46.51357" lon="5.9861">
        <ele>879</ele>
        <time>2021-10-17T13:59:38Z</time>
      </trkpt>
      <trkpt lat="46.51366" lon="5.98621">
        <ele>878.4</ele>
        <time>2021-10-17T13:59:39Z</time>
      </trkpt>
      <trkpt lat="46.51374" lon="5.98631">
        <ele>877.8</ele>
        <time>2021-10-17T13:59:40Z</time>
      </trkpt>
      <trkpt lat="46.51383" lon="5.98642">
        <ele>877.2</ele>
        <time>2021-10-17T13:59:41Z</time>
      </trkpt>
      <trkpt lat="46.51392" lon="5.98652">
        <ele>876.8</ele>
        <time>2021-10-17T13:59:42Z</time>
      </trkpt>
      <trkpt lat="46.51401" lon="5.98662">
        <ele>876.2</ele>
        <time>2021-10-17T13:59:43Z</time>
      </trkpt>
      <trkpt lat="46.5141" lon="5.98672">
        <ele>875.8</ele>
        <time>2021-10-17T13:59:44Z</time>
      </trkpt>
      <trkpt lat="46.51418" lon="5.98682">
        <ele>875.2</ele>
        <time>2021-10-17T13:59:45Z</time>
      </trkpt>
      <trkpt lat="46.51427" lon="5.98692">
        <ele>874.8</ele>
        <time>2021-10-17T13:59:46Z</time>
      </trkpt>
      <trkpt lat="46.51436" lon="5.98702">
        <ele>874.2</ele>
        <time>2021-10-17T13:59:47Z</time>
      </trkpt>
      <trkpt lat="46.51445" lon="5.98713">
        <ele>873.8</ele>
        <time>2021-10-17T13:59:48Z</time>
      </trkpt>
      <trkpt lat="46.51454" lon="5.98723">
        <ele>873.4</ele>
        <time>2021-10-17T13:59:49Z</time>
      </trkpt>
      <trkpt lat="46.51463" lon="5.98733">
        <ele>872.8</ele>
        <time>2021-10-17T13:59:50Z</time>
      </trkpt>
      <trkpt lat="46.51472" lon="5.98741">
        <ele>872.4</ele>
        <time>2021-10-17T13:59:51Z</time>
      </trkpt>
      <trkpt lat="46.51482" lon="5.9875">
        <ele>872</ele>
        <time>2021-10-17T13:59:52Z</time>
      </trkpt>
      <trkpt lat="46.51491" lon="5.98759">
        <ele>871.6</ele>
        <time>2021-10-17T13:59:53Z</time>
      </trkpt>
      <trkpt lat="46.51501" lon="5.98767">
        <ele>871</ele>
        <time>2021-10-17T13:59:54Z</time>
      </trkpt>
      <trkpt lat="46.5151" lon="5.98774">
        <ele>870.6</ele>
        <time>2021-10-17T13:59:55Z</time>
      </trkpt>
      <trkpt lat="46.5152" lon="5.98781">
        <ele>870.2</ele>
        <time>2021-10-17T13:59:56Z</time>
      </trkpt>
      <trkpt lat="46.51529" lon="5.98788">
        <ele>869.8</ele>
        <time>2021-10-17T13:59:57Z</time>
      </trkpt>
      <trkpt lat="46.51539" lon="5.98794">
        <ele>869.4</ele>
        <time>2021-10-17T13:59:58Z</time>
      </trkpt>
      <trkpt lat="46.51549" lon="5.98799">
        <ele>869</ele>
        <time>2021-10-17T13:59:59Z</time>
      </trkpt>
      <trkpt lat="46.51558" lon="5.98804">
        <ele>868.6</ele>
        <time>2021-10-17T14:00:00Z</time>
      </trkpt>
      <trkpt lat="46.51568" lon="5.98809">
        <ele>868.2</ele>
        <time>2021-10-17T14:00:01Z</time>
      </trkpt>
      <trkpt lat="46.51579" lon="5.98814">
        <ele>867.8</ele>
        <time>2021-10-17T14:00:02Z</time>
      </trkpt>
      <trkpt lat="46.51589" lon="5.98818">
        <ele>867.4</ele>
        <time>2021-10-17T14:00:03Z</time>
      </trkpt>
      <trkpt lat="46.516" lon="5.98823">
        <ele>867</ele>
        <time>2021-10-17T14:00:04Z</time>
      </trkpt>
      <trkpt lat="46.5161" lon="5.98829">
        <ele>866.6</ele>
        <time>2021-10-17T14:00:05Z</time>
      </trkpt>
      <trkpt lat="46.51619" lon="5.98833">
        <ele>866.2</ele>
        <time>2021-10-17T14:00:06Z</time>
      </trkpt>
      <trkpt lat="46.5163" lon="5.9884">
        <ele>865.8</ele>
        <time>2021-10-17T14:00:07Z</time>
      </trkpt>
      <trkpt lat="46.5164" lon="5.98846">
        <ele>865.4</ele>
        <time>2021-10-17T14:00:08Z</time>
      </trkpt>
      <trkpt lat="46.5165" lon="5.98853">
        <ele>865.2</ele>
        <time>2021-10-17T14:00:09Z</time>
      </trkpt>
      <trkpt lat="46.5166" lon="5.98861">
        <ele>864.8</ele>
        <time>2021-10-17T14:00:10Z</time>
      </trkpt>
      <trkpt lat="46.5167" lon="5.9887">
        <ele>864.4</ele>
        <time>2021-10-17T14:00:11Z</time>
      </trkpt>
      <trkpt lat="46.51679" lon="5.98878">
        <ele>864</ele>
        <time>2021-10-17T14:00:12Z</time>
      </trkpt>
      <trkpt lat="46.51688" lon="5.98887">
        <ele>863.6</ele>
        <time>2021-10-17T14:00:13Z</time>
      </trkpt>
      <trkpt lat="46.51697" lon="5.98895">
        <ele>863.2</ele>
        <time>2021-10-17T14:00:14Z</time>
      </trkpt>
      <trkpt lat="46.51706" lon="5.98903">
        <ele>863</ele>
        <time>2021-10-17T14:00:15Z</time>
      </trkpt>
      <trkpt lat="46.51716" lon="5.98911">
        <ele>862.6</ele>
        <time>2021-10-17T14:00:16Z</time>
      </trkpt>
      <trkpt lat="46.51725" lon="5.9892">
        <ele>862.2</ele>
        <time>2021-10-17T14:00:17Z</time>
      </trkpt>
      <trkpt lat="46.51734" lon="5.98928">
        <ele>861.8</ele>
        <time>2021-10-17T14:00:18Z</time>
      </trkpt>
      <trkpt lat="46.51744" lon="5.98935">
        <ele>861.4</ele>
        <time>2021-10-17T14:00:19Z</time>
      </trkpt>
      <trkpt lat="46.51753" lon="5.98943">
        <ele>860.8</ele>
        <time>2021-10-17T14:00:20Z</time>
      </trkpt>
      <trkpt lat="46.51762" lon="5.98951">
        <ele>860.4</ele>
        <time>2021-10-17T14:00:21Z</time>
      </trkpt>
      <trkpt lat="46.51771" lon="5.98959">
        <ele>860.2</ele>
        <time>2021-10-17T14:00:22Z</time>
      </trkpt>
      <trkpt lat="46.5178" lon="5.98967">
        <ele>859.8</ele>
        <time>2021-10-17T14:00:23Z</time>
      </trkpt>
      <trkpt lat="46.51789" lon="5.98975">
        <ele>859.4</ele>
        <time>2021-10-17T14:00:24Z</time>
      </trkpt>
      <trkpt lat="46.51798" lon="5.98982">
        <ele>859</ele>
        <time>2021-10-17T14:00:25Z</time>
      </trkpt>
      <trkpt lat="46.51807" lon="5.9899">
        <ele>858.6</ele>
        <time>2021-10-17T14:00:26Z</time>
      </trkpt>
      <trkpt lat="46.51816" lon="5.98997">
        <ele>858.2</ele>
        <time>2021-10-17T14:00:27Z</time>
      </trkpt>
      <trkpt lat="46.51825" lon="5.99006">
        <ele>857.6</ele>
        <time>2021-10-17T14:00:28Z</time>
      </trkpt>
      <trkpt lat="46.51834" lon="5.99014">
        <ele>857.4</ele>
        <time>2021-10-17T14:00:29Z</time>
      </trkpt>
      <trkpt lat="46.51843" lon="5.99023">
        <ele>857</ele>
        <time>2021-10-17T14:00:30Z</time>
      </trkpt>
      <trkpt lat="46.51851" lon="5.99031">
        <ele>856.6</ele>
        <time>2021-10-17T14:00:31Z</time>
      </trkpt>
      <trkpt lat="46.5186" lon="5.9904">
        <ele>856.4</ele>
        <time>2021-10-17T14:00:32Z</time>
      </trkpt>
      <trkpt lat="46.51869" lon="5.99048">
        <ele>856</ele>
        <time>2021-10-17T14:00:33Z</time>
      </trkpt>
      <trkpt lat="46.51877" lon="5.99057">
        <ele>855.6</ele>
        <time>2021-10-17T14:00:34Z</time>
      </trkpt>
      <trkpt lat="46.51885" lon="5.99067">
        <ele>855.2</ele>
        <time>2021-10-17T14:00:35Z</time>
      </trkpt>
      <trkpt lat="46.51893" lon="5.99077">
        <ele>854.8</ele>
        <time>2021-10-17T14:00:36Z</time>
      </trkpt>
      <trkpt lat="46.51901" lon="5.99088">
        <ele>854.4</ele>
        <time>2021-10-17T14:00:37Z</time>
      </trkpt>
      <trkpt lat="46.51909" lon="5.99098">
        <ele>854</ele>
        <time>2021-10-17T14:00:38Z</time>
      </trkpt>
      <trkpt lat="46.51916" lon="5.99109">
        <ele>853.4</ele>
        <time>2021-10-17T14:00:39Z</time>
      </trkpt>
      <trkpt lat="46.51924" lon="5.9912">
        <ele>853</ele>
        <time>2021-10-17T14:00:40Z</time>
      </trkpt>
      <trkpt lat="46.51931" lon="5.9913">
        <ele>852.6</ele>
        <time>2021-10-17T14:00:41Z</time>
      </trkpt>
      <trkpt lat="46.5194" lon="5.99141">
        <ele>852</ele>
        <time>2021-10-17T14:00:42Z</time>
      </trkpt>
      <trkpt lat="46.51948" lon="5.99151">
        <ele>851.6</ele>
        <time>2021-10-17T14:00:43Z</time>
      </trkpt>
      <trkpt lat="46.51956" lon="5.99162">
        <ele>851</ele>
        <time>2021-10-17T14:00:44Z</time>
      </trkpt>
      <trkpt lat="46.51964" lon="5.99174">
        <ele>850.6</ele>
        <time>2021-10-17T14:00:45Z</time>
      </trkpt>
      <trkpt lat="46.51972" lon="5.99186">
        <ele>850.2</ele>
        <time>2021-10-17T14:00:46Z</time>
      </trkpt>
      <trkpt lat="46.51981" lon="5.99198">
        <ele>849.6</ele>
        <time>2021-10-17T14:00:47Z</time>
      </trkpt>
      <trkpt lat="46.51989" lon="5.99209">
        <ele>849.2</ele>
        <time>2021-10-17T14:00:48Z</time>
      </trkpt>
      <trkpt lat="46.51997" lon="5.99221">
        <ele>848.8</ele>
        <time>2021-10-17T14:00:49Z</time>
      </trkpt>
      <trkpt lat="46.52005" lon="5.99233">
        <ele>848.2</ele>
        <time>2021-10-17T14:00:50Z</time>
      </trkpt>
      <trkpt lat="46.52013" lon="5.99244">
        <ele>847.8</ele>
        <time>2021-10-17T14:00:51Z</time>
      </trkpt>
      <trkpt lat="46.5202" lon="5.99255">
        <ele>847.4</ele>
        <time>2021-10-17T14:00:52Z</time>
      </trkpt>
      <trkpt lat="46.52027" lon="5.99267">
        <ele>847</ele>
        <time>2021-10-17T14:00:53Z</time>
      </trkpt>
      <trkpt lat="46.52034" lon="5.9928">
        <ele>846.6</ele>
        <time>2021-10-17T14:00:54Z</time>
      </trkpt>
      <trkpt lat="46.5204" lon="5.99294">
        <ele>846.2</ele>
        <time>2021-10-17T14:00:55Z</time>
      </trkpt>
      <trkpt lat="46.52046" lon="5.99308">
        <ele>845.8</ele>
        <time>2021-10-17T14:00:56Z</time>
      </trkpt>
      <trkpt lat="46.52052" lon="5.99322">
        <ele>845.4</ele>
        <time>2021-10-17T14:00:57Z</time>
      </trkpt>
      <trkpt lat="46.52057" lon="5.99338">
        <ele>844.8</ele>
        <time>2021-10-17T14:00:58Z</time>
      </trkpt>
      <trkpt lat="46.52062" lon="5.99354">
        <ele>844.2</ele>
        <time>2021-10-17T14:00:59Z</time>
      </trkpt>
      <trkpt lat="46.52067" lon="5.99371">
        <ele>844.2</ele>
        <time>2021-10-17T14:01:00Z</time>
      </trkpt>
      <trkpt lat="46.52072" lon="5.99388">
        <ele>843.6</ele>
        <time>2021-10-17T14:01:01Z</time>
      </trkpt>
      <trkpt lat="46.52076" lon="5.99406">
        <ele>843.2</ele>
        <time>2021-10-17T14:01:02Z</time>
      </trkpt>
      <trkpt lat="46.52079" lon="5.99423">
        <ele>842.8</ele>
        <time>2021-10-17T14:01:03Z</time>
      </trkpt>
      <trkpt lat="46.52083" lon="5.99439">
        <ele>842.2</ele>
        <time>2021-10-17T14:01:04Z</time>
      </trkpt>
      <trkpt lat="46.52088" lon="5.99453">
        <ele>841.8</ele>
        <time>2021-10-17T14:01:05Z</time>
      </trkpt>
      <trkpt lat="46.52091" lon="5.99468">
        <ele>841.4</ele>
        <time>2021-10-17T14:01:06Z</time>
      </trkpt>
      <trkpt lat="46.52096" lon="5.99483">
        <ele>841</ele>
        <time>2021-10-17T14:01:07Z</time>
      </trkpt>
      <trkpt lat="46.52101" lon="5.99499">
        <ele>840.6</ele>
        <time>2021-10-17T14:01:08Z</time>
      </trkpt>
      <trkpt lat="46.52107" lon="5.99514">
        <ele>840.2</ele>
        <time>2021-10-17T14:01:09Z</time>
      </trkpt>
      <trkpt lat="46.52113" lon="5.99528">
        <ele>839.8</ele>
        <time>2021-10-17T14:01:10Z</time>
      </trkpt>
      <trkpt lat="46.52119" lon="5.99543">
        <ele>839.2</ele>
        <time>2021-10-17T14:01:11Z</time>
      </trkpt>
      <trkpt lat="46.52125" lon="5.99557">
        <ele>838.6</ele>
        <time>2021-10-17T14:01:12Z</time>
      </trkpt>
      <trkpt lat="46.5213" lon="5.99571">
        <ele>838.2</ele>
        <time>2021-10-17T14:01:13Z</time>
      </trkpt>
      <trkpt lat="46.52136" lon="5.99585">
        <ele>837.8</ele>
        <time>2021-10-17T14:01:14Z</time>
      </trkpt>
      <trkpt lat="46.52141" lon="5.99598">
        <ele>837.4</ele>
        <time>2021-10-17T14:01:15Z</time>
      </trkpt>
      <trkpt lat="46.52147" lon="5.99612">
        <ele>837</ele>
        <time>2021-10-17T14:01:16Z</time>
      </trkpt>
      <trkpt lat="46.52153" lon="5.99627">
        <ele>836.6</ele>
        <time>2021-10-17T14:01:17Z</time>
      </trkpt>
      <trkpt lat="46.5216" lon="5.99642">
        <ele>836.2</ele>
        <time>2021-10-17T14:01:18Z</time>
      </trkpt>
      <trkpt lat="46.52166" lon="5.99655">
        <ele>835.8</ele>
        <time>2021-10-17T14:01:19Z</time>
      </trkpt>
      <trkpt lat="46.52173" lon="5.99668">
        <ele>835.2</ele>
        <time>2021-10-17T14:01:20Z</time>
      </trkpt>
      <trkpt lat="46.5218" lon="5.9968">
        <ele>834.8</ele>
        <time>2021-10-17T14:01:21Z</time>
      </trkpt>
      <trkpt lat="46.52188" lon="5.9969">
        <ele>834.4</ele>
        <time>2021-10-17T14:01:22Z</time>
      </trkpt>
      <trkpt lat="46.52197" lon="5.99701">
        <ele>834</ele>
        <time>2021-10-17T14:01:23Z</time>
      </trkpt>
      <trkpt lat="46.52206" lon="5.9971">
        <ele>833.4</ele>
        <time>2021-10-17T14:01:24Z</time>
      </trkpt>
      <trkpt lat="46.52215" lon="5.99719">
        <ele>832.8</ele>
        <time>2021-10-17T14:01:25Z</time>
      </trkpt>
      <trkpt lat="46.52225" lon="5.99725">
        <ele>832.4</ele>
        <time>2021-10-17T14:01:26Z</time>
      </trkpt>
      <trkpt lat="46.52235" lon="5.9973">
        <ele>832</ele>
        <time>2021-10-17T14:01:27Z</time>
      </trkpt>
      <trkpt lat="46.52246" lon="5.99734">
        <ele>831.6</ele>
        <time>2021-10-17T14:01:28Z</time>
      </trkpt>
      <trkpt lat="46.52257" lon="5.99738">
        <ele>831</ele>
        <time>2021-10-17T14:01:29Z</time>
      </trkpt>
      <trkpt lat="46.52268" lon="5.99741">
        <ele>830.6</ele>
        <time>2021-10-17T14:01:30Z</time>
      </trkpt>
      <trkpt lat="46.5228" lon="5.99744">
        <ele>830.2</ele>
        <time>2021-10-17T14:01:31Z</time>
      </trkpt>
      <trkpt lat="46.52291" lon="5.99747">
        <ele>829.6</ele>
        <time>2021-10-17T14:01:32Z</time>
      </trkpt>
      <trkpt lat="46.52302" lon="5.99753">
        <ele>829.2</ele>
        <time>2021-10-17T14:01:33Z</time>
      </trkpt>
      <trkpt lat="46.52312" lon="5.99759">
        <ele>828.6</ele>
        <time>2021-10-17T14:01:34Z</time>
      </trkpt>
      <trkpt lat="46.52323" lon="5.99767">
        <ele>828</ele>
        <time>2021-10-17T14:01:35Z</time>
      </trkpt>
      <trkpt lat="46.52333" lon="5.99775">
        <ele>827.6</ele>
        <time>2021-10-17T14:01:36Z</time>
      </trkpt>
      <trkpt lat="46.52344" lon="5.99782">
        <ele>827</ele>
        <time>2021-10-17T14:01:37Z</time>
      </trkpt>
      <trkpt lat="46.52354" lon="5.99789">
        <ele>826.4</ele>
        <time>2021-10-17T14:01:38Z</time>
      </trkpt>
      <trkpt lat="46.52366" lon="5.99796">
        <ele>825.8</ele>
        <time>2021-10-17T14:01:39Z</time>
      </trkpt>
      <trkpt lat="46.52377" lon="5.998">
        <ele>825.2</ele>
        <time>2021-10-17T14:01:40Z</time>
      </trkpt>
      <trkpt lat="46.52389" lon="5.99804">
        <ele>824.6</ele>
        <time>2021-10-17T14:01:41Z</time>
      </trkpt>
      <trkpt lat="46.52401" lon="5.99806">
        <ele>823.8</ele>
        <time>2021-10-17T14:01:42Z</time>
      </trkpt>
      <trkpt lat="46.52413" lon="5.99808">
        <ele>823.2</ele>
        <time>2021-10-17T14:01:43Z</time>
      </trkpt>
      <trkpt lat="46.52425" lon="5.99807">
        <ele>822.6</ele>
        <time>2021-10-17T14:01:44Z</time>
      </trkpt>
      <trkpt lat="46.52437" lon="5.99807">
        <ele>822</ele>
        <time>2021-10-17T14:01:45Z</time>
      </trkpt>
      <trkpt lat="46.52449" lon="5.99806">
        <ele>821.4</ele>
        <time>2021-10-17T14:01:46Z</time>
      </trkpt>
      <trkpt lat="46.52463" lon="5.99805">
        <ele>821</ele>
        <time>2021-10-17T14:01:47Z</time>
      </trkpt>
      <trkpt lat="46.52475" lon="5.99802">
        <ele>820.6</ele>
        <time>2021-10-17T14:01:48Z</time>
      </trkpt>
      <trkpt lat="46.52487" lon="5.99801">
        <ele>820.2</ele>
        <time>2021-10-17T14:01:49Z</time>
      </trkpt>
      <trkpt lat="46.52499" lon="5.99799">
        <ele>819.6</ele>
        <time>2021-10-17T14:01:50Z</time>
      </trkpt>
      <trkpt lat="46.52511" lon="5.99797">
        <ele>819.2</ele>
        <time>2021-10-17T14:01:51Z</time>
      </trkpt>
      <trkpt lat="46.52523" lon="5.99796">
        <ele>818.8</ele>
        <time>2021-10-17T14:01:52Z</time>
      </trkpt>
      <trkpt lat="46.52535" lon="5.99794">
        <ele>818.2</ele>
        <time>2021-10-17T14:01:53Z</time>
      </trkpt>
      <trkpt lat="46.52548" lon="5.99796">
        <ele>817.6</ele>
        <time>2021-10-17T14:01:54Z</time>
      </trkpt>
      <trkpt lat="46.52561" lon="5.99801">
        <ele>817.2</ele>
        <time>2021-10-17T14:01:55Z</time>
      </trkpt>
      <trkpt lat="46.52571" lon="5.99808">
        <ele>816.6</ele>
        <time>2021-10-17T14:01:56Z</time>
      </trkpt>
      <trkpt lat="46.52582" lon="5.99817">
        <ele>816</ele>
        <time>2021-10-17T14:01:57Z</time>
      </trkpt>
      <trkpt lat="46.52592" lon="5.99826">
        <ele>815.6</ele>
        <time>2021-10-17T14:01:58Z</time>
      </trkpt>
      <trkpt lat="46.52603" lon="5.99836">
        <ele>815.2</ele>
        <time>2021-10-17T14:01:59Z</time>
      </trkpt>
      <trkpt lat="46.52613" lon="5.99846">
        <ele>814.8</ele>
        <time>2021-10-17T14:02:00Z</time>
      </trkpt>
      <trkpt lat="46.52622" lon="5.99857">
        <ele>814.4</ele>
        <time>2021-10-17T14:02:01Z</time>
      </trkpt>
      <trkpt lat="46.52631" lon="5.99867">
        <ele>814</ele>
        <time>2021-10-17T14:02:02Z</time>
      </trkpt>
      <trkpt lat="46.5264" lon="5.99878">
        <ele>813.4</ele>
        <time>2021-10-17T14:02:03Z</time>
      </trkpt>
      <trkpt lat="46.5265" lon="5.99888">
        <ele>812.8</ele>
        <time>2021-10-17T14:02:04Z</time>
      </trkpt>
      <trkpt lat="46.52659" lon="5.99899">
        <ele>812.4</ele>
        <time>2021-10-17T14:02:05Z</time>
      </trkpt>
      <trkpt lat="46.52668" lon="5.9991">
        <ele>812</ele>
        <time>2021-10-17T14:02:06Z</time>
      </trkpt>
      <trkpt lat="46.52676" lon="5.99922">
        <ele>811.4</ele>
        <time>2021-10-17T14:02:07Z</time>
      </trkpt>
      <trkpt lat="46.52685" lon="5.99934">
        <ele>811</ele>
        <time>2021-10-17T14:02:08Z</time>
      </trkpt>
      <trkpt lat="46.52693" lon="5.99946">
        <ele>810.6</ele>
        <time>2021-10-17T14:02:09Z</time>
      </trkpt>
      <trkpt lat="46.52701" lon="5.99957">
        <ele>810</ele>
        <time>2021-10-17T14:02:10Z</time>
      </trkpt>
      <trkpt lat="46.52709" lon="5.99969">
        <ele>809.8</ele>
        <time>2021-10-17T14:02:11Z</time>
      </trkpt>
      <trkpt lat="46.52717" lon="5.9998">
        <ele>809.2</ele>
        <time>2021-10-17T14:02:12Z</time>
      </trkpt>
      <trkpt lat="46.52725" lon="5.99992">
        <ele>808.8</ele>
        <time>2021-10-17T14:02:13Z</time>
      </trkpt>
      <trkpt lat="46.52734" lon="6.00003">
        <ele>808.4</ele>
        <time>2021-10-17T14:02:14Z</time>
      </trkpt>
      <trkpt lat="46.52742" lon="6.00014">
        <ele>807.8</ele>
        <time>2021-10-17T14:02:15Z</time>
      </trkpt>
      <trkpt lat="46.5275" lon="6.00025">
        <ele>807.4</ele>
        <time>2021-10-17T14:02:16Z</time>
      </trkpt>
      <trkpt lat="46.52759" lon="6.00035">
        <ele>807</ele>
        <time>2021-10-17T14:02:17Z</time>
      </trkpt>
      <trkpt lat="46.52767" lon="6.00045">
        <ele>806.4</ele>
        <time>2021-10-17T14:02:18Z</time>
      </trkpt>
      <trkpt lat="46.52775" lon="6.00055">
        <ele>806</ele>
        <time>2021-10-17T14:02:19Z</time>
      </trkpt>
      <trkpt lat="46.52783" lon="6.00065">
        <ele>805.4</ele>
        <time>2021-10-17T14:02:20Z</time>
      </trkpt>
      <trkpt lat="46.52791" lon="6.00076">
        <ele>805</ele>
        <time>2021-10-17T14:02:21Z</time>
      </trkpt>
      <trkpt lat="46.52799" lon="6.00086">
        <ele>804.6</ele>
        <time>2021-10-17T14:02:22Z</time>
      </trkpt>
      <trkpt lat="46.52807" lon="6.00097">
        <ele>804.2</ele>
        <time>2021-10-17T14:02:23Z</time>
      </trkpt>
      <trkpt lat="46.52816" lon="6.00107">
        <ele>803.6</ele>
        <time>2021-10-17T14:02:24Z</time>
      </trkpt>
      <trkpt lat="46.52825" lon="6.00116">
        <ele>803.2</ele>
        <time>2021-10-17T14:02:25Z</time>
      </trkpt>
      <trkpt lat="46.52834" lon="6.00125">
        <ele>802.8</ele>
        <time>2021-10-17T14:02:26Z</time>
      </trkpt>
      <trkpt lat="46.52844" lon="6.00133">
        <ele>802.2</ele>
        <time>2021-10-17T14:02:27Z</time>
      </trkpt>
      <trkpt lat="46.52854" lon="6.00141">
        <ele>801.8</ele>
        <time>2021-10-17T14:02:28Z</time>
      </trkpt>
      <trkpt lat="46.52863" lon="6.00149">
        <ele>801.4</ele>
        <time>2021-10-17T14:02:29Z</time>
      </trkpt>
      <trkpt lat="46.52873" lon="6.00158">
        <ele>801</ele>
        <time>2021-10-17T14:02:30Z</time>
      </trkpt>
      <trkpt lat="46.52882" lon="6.00168">
        <ele>800.4</ele>
        <time>2021-10-17T14:02:31Z</time>
      </trkpt>
      <trkpt lat="46.52889" lon="6.0018">
        <ele>800</ele>
        <time>2021-10-17T14:02:32Z</time>
      </trkpt>
      <trkpt lat="46.52895" lon="6.00194">
        <ele>799.4</ele>
        <time>2021-10-17T14:02:33Z</time>
      </trkpt>
      <trkpt lat="46.529" lon="6.00208">
        <ele>799</ele>
        <time>2021-10-17T14:02:34Z</time>
      </trkpt>
      <trkpt lat="46.52905" lon="6.00223">
        <ele>798.6</ele>
        <time>2021-10-17T14:02:35Z</time>
      </trkpt>
      <trkpt lat="46.52907" lon="6.00238">
        <ele>798.2</ele>
        <time>2021-10-17T14:02:36Z</time>
      </trkpt>
      <trkpt lat="46.52909" lon="6.00254">
        <ele>798</ele>
        <time>2021-10-17T14:02:37Z</time>
      </trkpt>
      <trkpt lat="46.5291" lon="6.00269">
        <ele>797.6</ele>
        <time>2021-10-17T14:02:38Z</time>
      </trkpt>
      <trkpt lat="46.5291" lon="6.00285">
        <ele>797.2</ele>
        <time>2021-10-17T14:02:39Z</time>
      </trkpt>
      <trkpt lat="46.52911" lon="6.003">
        <ele>796.8</ele>
        <time>2021-10-17T14:02:40Z</time>
      </trkpt>
      <trkpt lat="46.52912" lon="6.00315">
        <ele>796.4</ele>
        <time>2021-10-17T14:02:41Z</time>
      </trkpt>
      <trkpt lat="46.52914" lon="6.0033">
        <ele>796</ele>
        <time>2021-10-17T14:02:42Z</time>
      </trkpt>
      <trkpt lat="46.52916" lon="6.00345">
        <ele>795.6</ele>
        <time>2021-10-17T14:02:43Z</time>
      </trkpt>
      <trkpt lat="46.52919" lon="6.00359">
        <ele>795.2</ele>
        <time>2021-10-17T14:02:44Z</time>
      </trkpt>
      <trkpt lat="46.52922" lon="6.00374">
        <ele>794.8</ele>
        <time>2021-10-17T14:02:45Z</time>
      </trkpt>
      <trkpt lat="46.52926" lon="6.00389">
        <ele>794.2</ele>
        <time>2021-10-17T14:02:46Z</time>
      </trkpt>
      <trkpt lat="46.52928" lon="6.00404">
        <ele>793.8</ele>
        <time>2021-10-17T14:02:47Z</time>
      </trkpt>
      <trkpt lat="46.52931" lon="6.00419">
        <ele>793.4</ele>
        <time>2021-10-17T14:02:48Z</time>
      </trkpt>
      <trkpt lat="46.52932" lon="6.00434">
        <ele>793</ele>
        <time>2021-10-17T14:02:49Z</time>
      </trkpt>
      <trkpt lat="46.52932" lon="6.0045">
        <ele>792.4</ele>
        <time>2021-10-17T14:02:50Z</time>
      </trkpt>
      <trkpt lat="46.52932" lon="6.00465">
        <ele>792</ele>
        <time>2021-10-17T14:02:51Z</time>
      </trkpt>
      <trkpt lat="46.52933" lon="6.00481">
        <ele>791.8</ele>
        <time>2021-10-17T14:02:52Z</time>
      </trkpt>
      <trkpt lat="46.52934" lon="6.00494">
        <ele>791.2</ele>
        <time>2021-10-17T14:02:53Z</time>
      </trkpt>
      <trkpt lat="46.52936" lon="6.00505">
        <ele>791</ele>
        <time>2021-10-17T14:02:54Z</time>
      </trkpt>
      <trkpt lat="46.52941" lon="6.00515">
        <ele>790.6</ele>
        <time>2021-10-17T14:02:55Z</time>
      </trkpt>
      <trkpt lat="46.52945" lon="6.00525">
        <ele>790.2</ele>
        <time>2021-10-17T14:02:56Z</time>
      </trkpt>
      <trkpt lat="46.52951" lon="6.00533">
        <ele>789.8</ele>
        <time>2021-10-17T14:02:57Z</time>
      </trkpt>
      <trkpt lat="46.52957" lon="6.00541">
        <ele>789.6</ele>
        <time>2021-10-17T14:02:58Z</time>
      </trkpt>
      <trkpt lat="46.52965" lon="6.00546">
        <ele>789.4</ele>
        <time>2021-10-17T14:02:59Z</time>
      </trkpt>
      <trkpt lat="46.52972" lon="6.00552">
        <ele>789</ele>
        <time>2021-10-17T14:03:00Z</time>
      </trkpt>
      <trkpt lat="46.52979" lon="6.00558">
        <ele>788.6</ele>
        <time>2021-10-17T14:03:01Z</time>
      </trkpt>
      <trkpt lat="46.52987" lon="6.00563">
        <ele>788.4</ele>
        <time>2021-10-17T14:03:02Z</time>
      </trkpt>
      <trkpt lat="46.52995" lon="6.00569">
        <ele>788</ele>
        <time>2021-10-17T14:03:03Z</time>
      </trkpt>
      <trkpt lat="46.53002" lon="6.00576">
        <ele>787.6</ele>
        <time>2021-10-17T14:03:04Z</time>
      </trkpt>
      <trkpt lat="46.5301" lon="6.00583">
        <ele>787.2</ele>
        <time>2021-10-17T14:03:05Z</time>
      </trkpt>
      <trkpt lat="46.53016" lon="6.00592">
        <ele>787</ele>
        <time>2021-10-17T14:03:06Z</time>
      </trkpt>
      <trkpt lat="46.53023" lon="6.00602">
        <ele>786.6</ele>
        <time>2021-10-17T14:03:07Z</time>
      </trkpt>
      <trkpt lat="46.53029" lon="6.00612">
        <ele>786.2</ele>
        <time>2021-10-17T14:03:08Z</time>
      </trkpt>
      <trkpt lat="46.53034" lon="6.00622">
        <ele>785.8</ele>
        <time>2021-10-17T14:03:09Z</time>
      </trkpt>
      <trkpt lat="46.53039" lon="6.00632">
        <ele>785.4</ele>
        <time>2021-10-17T14:03:10Z</time>
      </trkpt>
      <trkpt lat="46.53045" lon="6.00643">
        <ele>785</ele>
        <time>2021-10-17T14:03:11Z</time>
      </trkpt>
      <trkpt lat="46.5305" lon="6.00653">
        <ele>784.6</ele>
        <time>2021-10-17T14:03:12Z</time>
      </trkpt>
      <trkpt lat="46.53056" lon="6.00664">
        <ele>784.2</ele>
        <time>2021-10-17T14:03:13Z</time>
      </trkpt>
      <trkpt lat="46.53062" lon="6.00675">
        <ele>783.8</ele>
        <time>2021-10-17T14:03:14Z</time>
      </trkpt>
      <trkpt lat="46.53068" lon="6.00686">
        <ele>783.4</ele>
        <time>2021-10-17T14:03:15Z</time>
      </trkpt>
      <trkpt lat="46.53074" lon="6.00697">
        <ele>783</ele>
        <time>2021-10-17T14:03:16Z</time>
      </trkpt>
      <trkpt lat="46.5308" lon="6.00708">
        <ele>782.8</ele>
        <time>2021-10-17T14:03:17Z</time>
      </trkpt>
      <trkpt lat="46.53086" lon="6.00719">
        <ele>782.4</ele>
        <time>2021-10-17T14:03:18Z</time>
      </trkpt>
      <trkpt lat="46.53092" lon="6.0073">
        <ele>781.8</ele>
        <time>2021-10-17T14:03:19Z</time>
      </trkpt>
      <trkpt lat="46.53098" lon="6.00741">
        <ele>781.6</ele>
        <time>2021-10-17T14:03:20Z</time>
      </trkpt>
      <trkpt lat="46.53104" lon="6.00752">
        <ele>781.2</ele>
        <time>2021-10-17T14:03:21Z</time>
      </trkpt>
      <trkpt lat="46.5311" lon="6.00764">
        <ele>780.8</ele>
        <time>2021-10-17T14:03:22Z</time>
      </trkpt>
      <trkpt lat="46.53116" lon="6.00775">
        <ele>780.4</ele>
        <time>2021-10-17T14:03:23Z</time>
      </trkpt>
      <trkpt lat="46.53123" lon="6.00785">
        <ele>780</ele>
        <time>2021-10-17T14:03:24Z</time>
      </trkpt>
      <trkpt lat="46.5313" lon="6.00796">
        <ele>779.6</ele>
        <time>2021-10-17T14:03:25Z</time>
      </trkpt>
      <trkpt lat="46.53137" lon="6.00806">
        <ele>779.2</ele>
        <time>2021-10-17T14:03:26Z</time>
      </trkpt>
      <trkpt lat="46.53144" lon="6.00817">
        <ele>779</ele>
        <time>2021-10-17T14:03:27Z</time>
      </trkpt>
      <trkpt lat="46.53151" lon="6.00828">
        <ele>778.6</ele>
        <time>2021-10-17T14:03:28Z</time>
      </trkpt>
      <trkpt lat="46.53158" lon="6.00839">
        <ele>778.4</ele>
        <time>2021-10-17T14:03:29Z</time>
      </trkpt>
      <trkpt lat="46.53165" lon="6.0085">
        <ele>778</ele>
        <time>2021-10-17T14:03:30Z</time>
      </trkpt>
      <trkpt lat="46.53172" lon="6.0086">
        <ele>777.6</ele>
        <time>2021-10-17T14:03:31Z</time>
      </trkpt>
      <trkpt lat="46.5318" lon="6.0087">
        <ele>777.2</ele>
        <time>2021-10-17T14:03:32Z</time>
      </trkpt>
      <trkpt lat="46.53187" lon="6.0088">
        <ele>776.8</ele>
        <time>2021-10-17T14:03:33Z</time>
      </trkpt>
      <trkpt lat="46.53194" lon="6.00893">
        <ele>776.4</ele>
        <time>2021-10-17T14:03:34Z</time>
      </trkpt>
      <trkpt lat="46.53199" lon="6.00906">
        <ele>776</ele>
        <time>2021-10-17T14:03:35Z</time>
      </trkpt>
      <trkpt lat="46.53204" lon="6.00919">
        <ele>775.6</ele>
        <time>2021-10-17T14:03:36Z</time>
      </trkpt>
      <trkpt lat="46.53207" lon="6.00933">
        <ele>775.2</ele>
        <time>2021-10-17T14:03:37Z</time>
      </trkpt>
      <trkpt lat="46.5321" lon="6.00948">
        <ele>774.8</ele>
        <time>2021-10-17T14:03:38Z</time>
      </trkpt>
      <trkpt lat="46.53211" lon="6.00962">
        <ele>774.4</ele>
        <time>2021-10-17T14:03:39Z</time>
      </trkpt>
      <trkpt lat="46.53213" lon="6.00977">
        <ele>774</ele>
        <time>2021-10-17T14:03:40Z</time>
      </trkpt>
      <trkpt lat="46.53214" lon="6.00991">
        <ele>773.4</ele>
        <time>2021-10-17T14:03:41Z</time>
      </trkpt>
      <trkpt lat="46.53215" lon="6.01005">
        <ele>773.2</ele>
        <time>2021-10-17T14:03:42Z</time>
      </trkpt>
      <trkpt lat="46.53215" lon="6.01005">
        <ele>772.8</ele>
        <time>2021-10-17T14:03:43Z</time>
      </trkpt>
      <trkpt lat="46.53215" lon="6.01034">
        <ele>772.2</ele>
        <time>2021-10-17T14:03:44Z</time>
      </trkpt>
      <trkpt lat="46.53214" lon="6.01048">
        <ele>771.8</ele>
        <time>2021-10-17T14:03:45Z</time>
      </trkpt>
      <trkpt lat="46.53213" lon="6.01062">
        <ele>771.2</ele>
        <time>2021-10-17T14:03:46Z</time>
      </trkpt>
      <trkpt lat="46.53213" lon="6.01062">
        <ele>770.8</ele>
        <time>2021-10-17T14:03:47Z</time>
      </trkpt>
      <trkpt lat="46.53208" lon="6.01091">
        <ele>770.4</ele>
        <time>2021-10-17T14:03:48Z</time>
      </trkpt>
      <trkpt lat="46.53206" lon="6.01106">
        <ele>769.8</ele>
        <time>2021-10-17T14:03:49Z</time>
      </trkpt>
      <trkpt lat="46.53204" lon="6.01121">
        <ele>769.4</ele>
        <time>2021-10-17T14:03:50Z</time>
      </trkpt>
      <trkpt lat="46.53201" lon="6.01135">
        <ele>769</ele>
        <time>2021-10-17T14:03:51Z</time>
      </trkpt>
      <trkpt lat="46.53198" lon="6.01149">
        <ele>768.6</ele>
        <time>2021-10-17T14:03:52Z</time>
      </trkpt>
      <trkpt lat="46.53194" lon="6.01163">
        <ele>768.2</ele>
        <time>2021-10-17T14:03:53Z</time>
      </trkpt>
      <trkpt lat="46.5319" lon="6.01176">
        <ele>767.8</ele>
        <time>2021-10-17T14:03:54Z</time>
      </trkpt>
      <trkpt lat="46.53185" lon="6.0119">
        <ele>767.2</ele>
        <time>2021-10-17T14:03:55Z</time>
      </trkpt>
      <trkpt lat="46.5318" lon="6.01202">
        <ele>767</ele>
        <time>2021-10-17T14:03:56Z</time>
      </trkpt>
      <trkpt lat="46.53175" lon="6.01215">
        <ele>766.6</ele>
        <time>2021-10-17T14:03:57Z</time>
      </trkpt>
      <trkpt lat="46.53169" lon="6.01227">
        <ele>766.2</ele>
        <time>2021-10-17T14:03:58Z</time>
      </trkpt>
      <trkpt lat="46.53163" lon="6.01239">
        <ele>765.8</ele>
        <time>2021-10-17T14:03:59Z</time>
      </trkpt>
      <trkpt lat="46.53157" lon="6.0125">
        <ele>765.2</ele>
        <time>2021-10-17T14:04:00Z</time>
      </trkpt>
      <trkpt lat="46.5315" lon="6.01261">
        <ele>764.8</ele>
        <time>2021-10-17T14:04:01Z</time>
      </trkpt>
      <trkpt lat="46.53143" lon="6.01271">
        <ele>764.4</ele>
        <time>2021-10-17T14:04:02Z</time>
      </trkpt>
      <trkpt lat="46.53136" lon="6.01281">
        <ele>764</ele>
        <time>2021-10-17T14:04:03Z</time>
      </trkpt>
      <trkpt lat="46.53128" lon="6.0129">
        <ele>763.6</ele>
        <time>2021-10-17T14:04:04Z</time>
      </trkpt>
      <trkpt lat="46.53128" lon="6.0129">
        <ele>763.2</ele>
        <time>2021-10-17T14:04:05Z</time>
      </trkpt>
      <trkpt lat="46.53111" lon="6.01305">
        <ele>762.8</ele>
        <time>2021-10-17T14:04:06Z</time>
      </trkpt>
      <trkpt lat="46.53102" lon="6.01312">
        <ele>762.4</ele>
        <time>2021-10-17T14:04:07Z</time>
      </trkpt>
      <trkpt lat="46.53094" lon="6.0132">
        <ele>762</ele>
        <time>2021-10-17T14:04:08Z</time>
      </trkpt>
      <trkpt lat="46.53094" lon="6.0132">
        <ele>761.8</ele>
        <time>2021-10-17T14:04:09Z</time>
      </trkpt>
      <trkpt lat="46.53085" lon="6.01327">
        <ele>761.4</ele>
        <time>2021-10-17T14:04:10Z</time>
      </trkpt>
      <trkpt lat="46.5307" lon="6.01346">
        <ele>761.2</ele>
        <time>2021-10-17T14:04:11Z</time>
      </trkpt>
      <trkpt lat="46.5307" lon="6.01346">
        <ele>760.8</ele>
        <time>2021-10-17T14:04:12Z</time>
      </trkpt>
      <trkpt lat="46.53063" lon="6.01355">
        <ele>760.4</ele>
        <time>2021-10-17T14:04:13Z</time>
      </trkpt>
      <trkpt lat="46.53056" lon="6.01364">
        <ele>760</ele>
        <time>2021-10-17T14:04:14Z</time>
      </trkpt>
      <trkpt lat="46.53049" lon="6.01375">
        <ele>759.6</ele>
        <time>2021-10-17T14:04:15Z</time>
      </trkpt>
      <trkpt lat="46.53042" lon="6.01385">
        <ele>759.4</ele>
        <time>2021-10-17T14:04:16Z</time>
      </trkpt>
      <trkpt lat="46.53036" lon="6.01396">
        <ele>758.8</ele>
        <time>2021-10-17T14:04:17Z</time>
      </trkpt>
      <trkpt lat="46.53029" lon="6.01408">
        <ele>758.4</ele>
        <time>2021-10-17T14:04:18Z</time>
      </trkpt>
      <trkpt lat="46.53023" lon="6.0142">
        <ele>758.2</ele>
        <time>2021-10-17T14:04:19Z</time>
      </trkpt>
      <trkpt lat="46.53018" lon="6.01433">
        <ele>757.6</ele>
        <time>2021-10-17T14:04:20Z</time>
      </trkpt>
      <trkpt lat="46.53012" lon="6.01446">
        <ele>757.2</ele>
        <time>2021-10-17T14:04:21Z</time>
      </trkpt>
      <trkpt lat="46.53007" lon="6.01459">
        <ele>756.8</ele>
        <time>2021-10-17T14:04:22Z</time>
      </trkpt>
      <trkpt lat="46.53002" lon="6.01472">
        <ele>756.4</ele>
        <time>2021-10-17T14:04:23Z</time>
      </trkpt>
      <trkpt lat="46.52997" lon="6.01485">
        <ele>756</ele>
        <time>2021-10-17T14:04:24Z</time>
      </trkpt>
      <trkpt lat="46.52992" lon="6.01498">
        <ele>755.6</ele>
        <time>2021-10-17T14:04:25Z</time>
      </trkpt>
      <trkpt lat="46.52987" lon="6.01512">
        <ele>755.2</ele>
        <time>2021-10-17T14:04:26Z</time>
      </trkpt>
      <trkpt lat="46.52982" lon="6.01525">
        <ele>754.8</ele>
        <time>2021-10-17T14:04:27Z</time>
      </trkpt>
      <trkpt lat="46.52977" lon="6.01538">
        <ele>754.4</ele>
        <time>2021-10-17T14:04:28Z</time>
      </trkpt>
      <trkpt lat="46.52973" lon="6.01552">
        <ele>754</ele>
        <time>2021-10-17T14:04:29Z</time>
      </trkpt>
      <trkpt lat="46.52969" lon="6.01565">
        <ele>753.6</ele>
        <time>2021-10-17T14:04:30Z</time>
      </trkpt>
      <trkpt lat="46.52965" lon="6.01578">
        <ele>753.2</ele>
        <time>2021-10-17T14:04:31Z</time>
      </trkpt>
      <trkpt lat="46.52962" lon="6.01591">
        <ele>752.6</ele>
        <time>2021-10-17T14:04:32Z</time>
      </trkpt>
      <trkpt lat="46.52958" lon="6.01604">
        <ele>752.2</ele>
        <time>2021-10-17T14:04:33Z</time>
      </trkpt>
      <trkpt lat="46.52954" lon="6.01617">
        <ele>751.8</ele>
        <time>2021-10-17T14:04:34Z</time>
      </trkpt>
      <trkpt lat="46.5295" lon="6.01629">
        <ele>751.4</ele>
        <time>2021-10-17T14:04:35Z</time>
      </trkpt>
      <trkpt lat="46.52944" lon="6.01642">
        <ele>751</ele>
        <time>2021-10-17T14:04:36Z</time>
      </trkpt>
      <trkpt lat="46.52937" lon="6.01653">
        <ele>750.6</ele>
        <time>2021-10-17T14:04:37Z</time>
      </trkpt>
      <trkpt lat="46.5293" lon="6.01664">
        <ele>750.4</ele>
        <time>2021-10-17T14:04:38Z</time>
      </trkpt>
      <trkpt lat="46.52923" lon="6.01676">
        <ele>750</ele>
        <time>2021-10-17T14:04:39Z</time>
      </trkpt>
      <trkpt lat="46.52916" lon="6.01687">
        <ele>749.6</ele>
        <time>2021-10-17T14:04:40Z</time>
      </trkpt>
      <trkpt lat="46.52909" lon="6.01698">
        <ele>749.2</ele>
        <time>2021-10-17T14:04:41Z</time>
      </trkpt>
      <trkpt lat="46.52903" lon="6.01709">
        <ele>748.8</ele>
        <time>2021-10-17T14:04:42Z</time>
      </trkpt>
      <trkpt lat="46.52896" lon="6.0172">
        <ele>748.4</ele>
        <time>2021-10-17T14:04:43Z</time>
      </trkpt>
      <trkpt lat="46.52889" lon="6.01731">
        <ele>748</ele>
        <time>2021-10-17T14:04:44Z</time>
      </trkpt>
      <trkpt lat="46.52883" lon="6.01744">
        <ele>747.6</ele>
        <time>2021-10-17T14:04:45Z</time>
      </trkpt>
      <trkpt lat="46.52876" lon="6.01756">
        <ele>747.2</ele>
        <time>2021-10-17T14:04:46Z</time>
      </trkpt>
      <trkpt lat="46.5287" lon="6.01767">
        <ele>746.8</ele>
        <time>2021-10-17T14:04:47Z</time>
      </trkpt>
      <trkpt lat="46.52864" lon="6.01779">
        <ele>746.4</ele>
        <time>2021-10-17T14:04:48Z</time>
      </trkpt>
      <trkpt lat="46.52857" lon="6.0179">
        <ele>746.2</ele>
        <time>2021-10-17T14:04:49Z</time>
      </trkpt>
      <trkpt lat="46.52851" lon="6.01802">
        <ele>745.8</ele>
        <time>2021-10-17T14:04:50Z</time>
      </trkpt>
      <trkpt lat="46.52845" lon="6.01813">
        <ele>745.4</ele>
        <time>2021-10-17T14:04:51Z</time>
      </trkpt>
      <trkpt lat="46.52839" lon="6.01825">
        <ele>745.2</ele>
        <time>2021-10-17T14:04:52Z</time>
      </trkpt>
      <trkpt lat="46.52834" lon="6.01838">
        <ele>744.8</ele>
        <time>2021-10-17T14:04:53Z</time>
      </trkpt>
      <trkpt lat="46.52829" lon="6.0185">
        <ele>744.4</ele>
        <time>2021-10-17T14:04:54Z</time>
      </trkpt>
      <trkpt lat="46.52825" lon="6.01863">
        <ele>744</ele>
        <time>2021-10-17T14:04:55Z</time>
      </trkpt>
      <trkpt lat="46.52821" lon="6.01875">
        <ele>743.6</ele>
        <time>2021-10-17T14:04:56Z</time>
      </trkpt>
      <trkpt lat="46.52818" lon="6.01887">
        <ele>743.2</ele>
        <time>2021-10-17T14:04:57Z</time>
      </trkpt>
      <trkpt lat="46.52815" lon="6.01898">
        <ele>742.8</ele>
        <time>2021-10-17T14:04:58Z</time>
      </trkpt>
      <trkpt lat="46.52812" lon="6.01908">
        <ele>742.4</ele>
        <time>2021-10-17T14:04:59Z</time>
      </trkpt>
      <trkpt lat="46.5281" lon="6.01917">
        <ele>742</ele>
        <time>2021-10-17T14:05:00Z</time>
      </trkpt>
      <trkpt lat="46.52808" lon="6.01926">
        <ele>741.6</ele>
        <time>2021-10-17T14:05:01Z</time>
      </trkpt>
      <trkpt lat="46.52807" lon="6.01934">
        <ele>741.2</ele>
        <time>2021-10-17T14:05:02Z</time>
      </trkpt>
      <trkpt lat="46.52806" lon="6.01941">
        <ele>740.8</ele>
        <time>2021-10-17T14:05:03Z</time>
      </trkpt>
      <trkpt lat="46.52805" lon="6.01948">
        <ele>740.8</ele>
        <time>2021-10-17T14:05:04Z</time>
      </trkpt>
      <trkpt lat="46.52805" lon="6.01954">
        <ele>740.4</ele>
        <time>2021-10-17T14:05:05Z</time>
      </trkpt>
      <trkpt lat="46.52806" lon="6.0196">
        <ele>740.2</ele>
        <time>2021-10-17T14:05:06Z</time>
      </trkpt>
      <trkpt lat="46.52806" lon="6.01965">
        <ele>740.2</ele>
        <time>2021-10-17T14:05:07Z</time>
      </trkpt>
      <trkpt lat="46.52807" lon="6.01969">
        <ele>740</ele>
        <time>2021-10-17T14:05:08Z</time>
      </trkpt>
      <trkpt lat="46.52807" lon="6.01973">
        <ele>740</ele>
        <time>2021-10-17T14:05:09Z</time>
      </trkpt>
      <trkpt lat="46.52807" lon="6.01977">
        <ele>740</ele>
        <time>2021-10-17T14:05:10Z</time>
      </trkpt>
      <trkpt lat="46.52807" lon="6.01979">
        <ele>739.6</ele>
        <time>2021-10-17T14:05:11Z</time>
      </trkpt>
      <trkpt lat="46.52807" lon="6.01982">
        <ele>739.6</ele>
        <time>2021-10-17T14:05:12Z</time>
      </trkpt>
      <trkpt lat="46.52806" lon="6.01989">
        <ele>739.2</ele>
        <time>2021-10-17T14:34:48Z</time>
      </trkpt>
      <trkpt lat="46.52806" lon="6.01989">
        <ele>738.8</ele>
        <time>2021-10-17T14:34:49Z</time>
      </trkpt>
      <trkpt lat="46.52804" lon="6.01989">
        <ele>738.8</ele>
        <time>2021-10-17T14:34:50Z</time>
      </trkpt>
      <trkpt lat="46.52801" lon="6.01989">
        <ele>738.6</ele>
        <time>2021-10-17T14:34:58Z</time>
      </trkpt>
      <trkpt lat="46.52799" lon="6.01989">
        <ele>738.4</ele>
        <time>2021-10-17T14:34:59Z</time>
      </trkpt>
      <trkpt lat="46.52796" lon="6.0199">
        <ele>738.4</ele>
        <time>2021-10-17T14:35:00Z</time>
      </trkpt>
      <trkpt lat="46.52793" lon="6.01991">
        <ele>738.2</ele>
        <time>2021-10-17T14:35:01Z</time>
      </trkpt>
      <trkpt lat="46.52789" lon="6.01993">
        <ele>738.2</ele>
        <time>2021-10-17T14:35:02Z</time>
      </trkpt>
      <trkpt lat="46.52786" lon="6.01996">
        <ele>737.8</ele>
        <time>2021-10-17T14:35:03Z</time>
      </trkpt>
      <trkpt lat="46.52782" lon="6.02">
        <ele>737.8</ele>
        <time>2021-10-17T14:35:04Z</time>
      </trkpt>
      <trkpt lat="46.52779" lon="6.02005">
        <ele>737.6</ele>
        <time>2021-10-17T14:35:05Z</time>
      </trkpt>
      <trkpt lat="46.52775" lon="6.02009">
        <ele>737.6</ele>
        <time>2021-10-17T14:35:06Z</time>
      </trkpt>
      <trkpt lat="46.5277" lon="6.02013">
        <ele>737.2</ele>
        <time>2021-10-17T14:35:07Z</time>
      </trkpt>
      <trkpt lat="46.52765" lon="6.02015">
        <ele>737</ele>
        <time>2021-10-17T14:35:08Z</time>
      </trkpt>
      <trkpt lat="46.5276" lon="6.02017">
        <ele>737</ele>
        <time>2021-10-17T14:35:09Z</time>
      </trkpt>
      <trkpt lat="46.52755" lon="6.02019">
        <ele>736.6</ele>
        <time>2021-10-17T14:35:10Z</time>
      </trkpt>
      <trkpt lat="46.52749" lon="6.02021">
        <ele>736.6</ele>
        <time>2021-10-17T14:35:11Z</time>
      </trkpt>
      <trkpt lat="46.52743" lon="6.02024">
        <ele>736.2</ele>
        <time>2021-10-17T14:35:12Z</time>
      </trkpt>
      <trkpt lat="46.52737" lon="6.02025">
        <ele>736.2</ele>
        <time>2021-10-17T14:35:13Z</time>
      </trkpt>
      <trkpt lat="46.52731" lon="6.02027">
        <ele>735.8</ele>
        <time>2021-10-17T14:35:14Z</time>
      </trkpt>
      <trkpt lat="46.52724" lon="6.02029">
        <ele>735.6</ele>
        <time>2021-10-17T14:35:15Z</time>
      </trkpt>
      <trkpt lat="46.52717" lon="6.02032">
        <ele>735.2</ele>
        <time>2021-10-17T14:35:16Z</time>
      </trkpt>
      <trkpt lat="46.5271" lon="6.02034">
        <ele>734.8</ele>
        <time>2021-10-17T14:35:17Z</time>
      </trkpt>
      <trkpt lat="46.52702" lon="6.02037">
        <ele>734.4</ele>
        <time>2021-10-17T14:35:18Z</time>
      </trkpt>
      <trkpt lat="46.52694" lon="6.02039">
        <ele>734</ele>
        <time>2021-10-17T14:35:19Z</time>
      </trkpt>
      <trkpt lat="46.52686" lon="6.02041">
        <ele>733.4</ele>
        <time>2021-10-17T14:35:20Z</time>
      </trkpt>
      <trkpt lat="46.52677" lon="6.02043">
        <ele>733</ele>
        <time>2021-10-17T14:35:21Z</time>
      </trkpt>
      <trkpt lat="46.52669" lon="6.02044">
        <ele>732.6</ele>
        <time>2021-10-17T14:35:22Z</time>
      </trkpt>
      <trkpt lat="46.52659" lon="6.02045">
        <ele>732.2</ele>
        <time>2021-10-17T14:35:23Z</time>
      </trkpt>
      <trkpt lat="46.5265" lon="6.02044">
        <ele>731.6</ele>
        <time>2021-10-17T14:35:24Z</time>
      </trkpt>
      <trkpt lat="46.52641" lon="6.02042">
        <ele>731.2</ele>
        <time>2021-10-17T14:35:25Z</time>
      </trkpt>
      <trkpt lat="46.52632" lon="6.0204">
        <ele>730.8</ele>
        <time>2021-10-17T14:35:26Z</time>
      </trkpt>
      <trkpt lat="46.52622" lon="6.02037">
        <ele>730.4</ele>
        <time>2021-10-17T14:35:27Z</time>
      </trkpt>
      <trkpt lat="46.52613" lon="6.02036">
        <ele>730</ele>
        <time>2021-10-17T14:35:28Z</time>
      </trkpt>
      <trkpt lat="46.52603" lon="6.02035">
        <ele>729.6</ele>
        <time>2021-10-17T14:35:29Z</time>
      </trkpt>
      <trkpt lat="46.52594" lon="6.02034">
        <ele>729.2</ele>
        <time>2021-10-17T14:35:30Z</time>
      </trkpt>
      <trkpt lat="46.52584" lon="6.02034">
        <ele>728.6</ele>
        <time>2021-10-17T14:35:31Z</time>
      </trkpt>
      <trkpt lat="46.52574" lon="6.02032">
        <ele>728.2</ele>
        <time>2021-10-17T14:35:32Z</time>
      </trkpt>
      <trkpt lat="46.52564" lon="6.0203">
        <ele>727.8</ele>
        <time>2021-10-17T14:35:33Z</time>
      </trkpt>
      <trkpt lat="46.52555" lon="6.02026">
        <ele>727.4</ele>
        <time>2021-10-17T14:35:34Z</time>
      </trkpt>
      <trkpt lat="46.52545" lon="6.02023">
        <ele>727</ele>
        <time>2021-10-17T14:35:35Z</time>
      </trkpt>
      <trkpt lat="46.52535" lon="6.0202">
        <ele>726.6</ele>
        <time>2021-10-17T14:35:36Z</time>
      </trkpt>
      <trkpt lat="46.52525" lon="6.02017">
        <ele>726</ele>
        <time>2021-10-17T14:35:37Z</time>
      </trkpt>
      <trkpt lat="46.52514" lon="6.02014">
        <ele>725.4</ele>
        <time>2021-10-17T14:35:38Z</time>
      </trkpt>
      <trkpt lat="46.52504" lon="6.02011">
        <ele>725</ele>
        <time>2021-10-17T14:35:39Z</time>
      </trkpt>
      <trkpt lat="46.52494" lon="6.02009">
        <ele>724.4</ele>
        <time>2021-10-17T14:35:40Z</time>
      </trkpt>
      <trkpt lat="46.52483" lon="6.02008">
        <ele>724</ele>
        <time>2021-10-17T14:35:41Z</time>
      </trkpt>
      <trkpt lat="46.52473" lon="6.02006">
        <ele>723.4</ele>
        <time>2021-10-17T14:35:42Z</time>
      </trkpt>
      <trkpt lat="46.52462" lon="6.02006">
        <ele>722.8</ele>
        <time>2021-10-17T14:35:43Z</time>
      </trkpt>
      <trkpt lat="46.52451" lon="6.02005">
        <ele>722.2</ele>
        <time>2021-10-17T14:35:44Z</time>
      </trkpt>
      <trkpt lat="46.52441" lon="6.02006">
        <ele>721.6</ele>
        <time>2021-10-17T14:35:45Z</time>
      </trkpt>
      <trkpt lat="46.5243" lon="6.02006">
        <ele>721</ele>
        <time>2021-10-17T14:35:46Z</time>
      </trkpt>
      <trkpt lat="46.52419" lon="6.02007">
        <ele>720.6</ele>
        <time>2021-10-17T14:35:47Z</time>
      </trkpt>
      <trkpt lat="46.52408" lon="6.02008">
        <ele>720</ele>
        <time>2021-10-17T14:35:48Z</time>
      </trkpt>
      <trkpt lat="46.52397" lon="6.02009">
        <ele>719.4</ele>
        <time>2021-10-17T14:35:49Z</time>
      </trkpt>
      <trkpt lat="46.52386" lon="6.0201">
        <ele>718.8</ele>
        <time>2021-10-17T14:35:50Z</time>
      </trkpt>
      <trkpt lat="46.52375" lon="6.0201">
        <ele>718.4</ele>
        <time>2021-10-17T14:35:51Z</time>
      </trkpt>
      <trkpt lat="46.52364" lon="6.02011">
        <ele>718</ele>
        <time>2021-10-17T14:35:52Z</time>
      </trkpt>
      <trkpt lat="46.52354" lon="6.02012">
        <ele>717.6</ele>
        <time>2021-10-17T14:35:53Z</time>
      </trkpt>
      <trkpt lat="46.52343" lon="6.02012">
        <ele>717</ele>
        <time>2021-10-17T14:35:54Z</time>
      </trkpt>
      <trkpt lat="46.52332" lon="6.02013">
        <ele>716.6</ele>
        <time>2021-10-17T14:35:55Z</time>
      </trkpt>
      <trkpt lat="46.52322" lon="6.02014">
        <ele>716</ele>
        <time>2021-10-17T14:35:56Z</time>
      </trkpt>
      <trkpt lat="46.52311" lon="6.02014">
        <ele>715.6</ele>
        <time>2021-10-17T14:35:57Z</time>
      </trkpt>
      <trkpt lat="46.523" lon="6.02015">
        <ele>715</ele>
        <time>2021-10-17T14:35:58Z</time>
      </trkpt>
      <trkpt lat="46.52289" lon="6.02016">
        <ele>714.4</ele>
        <time>2021-10-17T14:35:59Z</time>
      </trkpt>
      <trkpt lat="46.52278" lon="6.02017">
        <ele>714</ele>
        <time>2021-10-17T14:36:00Z</time>
      </trkpt>
      <trkpt lat="46.52267" lon="6.02018">
        <ele>713.4</ele>
        <time>2021-10-17T14:36:01Z</time>
      </trkpt>
      <trkpt lat="46.52257" lon="6.02021">
        <ele>712.8</ele>
        <time>2021-10-17T14:36:02Z</time>
      </trkpt>
      <trkpt lat="46.52247" lon="6.02025">
        <ele>712.4</ele>
        <time>2021-10-17T14:36:03Z</time>
      </trkpt>
      <trkpt lat="46.52237" lon="6.0203">
        <ele>711.8</ele>
        <time>2021-10-17T14:36:04Z</time>
      </trkpt>
      <trkpt lat="46.52227" lon="6.02036">
        <ele>711.2</ele>
        <time>2021-10-17T14:36:05Z</time>
      </trkpt>
      <trkpt lat="46.52218" lon="6.02042">
        <ele>710.6</ele>
        <time>2021-10-17T14:36:06Z</time>
      </trkpt>
      <trkpt lat="46.5221" lon="6.02049">
        <ele>710.2</ele>
        <time>2021-10-17T14:36:07Z</time>
      </trkpt>
      <trkpt lat="46.52203" lon="6.02055">
        <ele>709.6</ele>
        <time>2021-10-17T14:36:08Z</time>
      </trkpt>
      <trkpt lat="46.52196" lon="6.02061">
        <ele>709.2</ele>
        <time>2021-10-17T14:36:09Z</time>
      </trkpt>
      <trkpt lat="46.5219" lon="6.02067">
        <ele>708.8</ele>
        <time>2021-10-17T14:36:10Z</time>
      </trkpt>
      <trkpt lat="46.52186" lon="6.02074">
        <ele>708.4</ele>
        <time>2021-10-17T14:36:11Z</time>
      </trkpt>
      <trkpt lat="46.52183" lon="6.02079">
        <ele>708</ele>
        <time>2021-10-17T14:36:12Z</time>
      </trkpt>
      <trkpt lat="46.52181" lon="6.02085">
        <ele>707.8</ele>
        <time>2021-10-17T14:36:13Z</time>
      </trkpt>
      <trkpt lat="46.5218" lon="6.0209">
        <ele>707.8</ele>
        <time>2021-10-17T14:36:14Z</time>
      </trkpt>
      <trkpt lat="46.52179" lon="6.02095">
        <ele>707.4</ele>
        <time>2021-10-17T14:36:15Z</time>
      </trkpt>
      <trkpt lat="46.5218" lon="6.02101">
        <ele>707.4</ele>
        <time>2021-10-17T14:36:16Z</time>
      </trkpt>
      <trkpt lat="46.52181" lon="6.02105">
        <ele>707</ele>
        <time>2021-10-17T14:36:17Z</time>
      </trkpt>
      <trkpt lat="46.52181" lon="6.0211">
        <ele>707</ele>
        <time>2021-10-17T14:36:18Z</time>
      </trkpt>
      <trkpt lat="46.52182" lon="6.02115">
        <ele>706.8</ele>
        <time>2021-10-17T14:36:19Z</time>
      </trkpt>
      <trkpt lat="46.52185" lon="6.02119">
        <ele>706.8</ele>
        <time>2021-10-17T14:36:20Z</time>
      </trkpt>
      <trkpt lat="46.52188" lon="6.02122">
        <ele>706.4</ele>
        <time>2021-10-17T14:36:21Z</time>
      </trkpt>
      <trkpt lat="46.52192" lon="6.02122">
        <ele>706.4</ele>
        <time>2021-10-17T14:36:22Z</time>
      </trkpt>
      <trkpt lat="46.52195" lon="6.02122">
        <ele>706</ele>
        <time>2021-10-17T14:36:23Z</time>
      </trkpt>
      <trkpt lat="46.52198" lon="6.02122">
        <ele>706</ele>
        <time>2021-10-17T14:36:24Z</time>
      </trkpt>
      <trkpt lat="46.52201" lon="6.02121">
        <ele>706</ele>
        <time>2021-10-17T14:36:25Z</time>
      </trkpt>
      <trkpt lat="46.52205" lon="6.0212">
        <ele>706</ele>
        <time>2021-10-17T14:36:26Z</time>
      </trkpt>
      <trkpt lat="46.52208" lon="6.02119">
        <ele>706</ele>
        <time>2021-10-17T14:36:27Z</time>
      </trkpt>
      <trkpt lat="46.52211" lon="6.02119">
        <ele>705.8</ele>
        <time>2021-10-17T14:36:28Z</time>
      </trkpt>
      <trkpt lat="46.52214" lon="6.02119">
        <ele>705.8</ele>
        <time>2021-10-17T14:36:29Z</time>
      </trkpt>
      <trkpt lat="46.52218" lon="6.02118">
        <ele>705.6</ele>
        <time>2021-10-17T14:36:30Z</time>
      </trkpt>
      <trkpt lat="46.52221" lon="6.02117">
        <ele>705.6</ele>
        <time>2021-10-17T14:36:31Z</time>
      </trkpt>
      <trkpt lat="46.52224" lon="6.02114">
        <ele>705.4</ele>
        <time>2021-10-17T14:36:32Z</time>
      </trkpt>
      <trkpt lat="46.52226" lon="6.02111">
        <ele>705.4</ele>
        <time>2021-10-17T14:36:33Z</time>
      </trkpt>
      <trkpt lat="46.52228" lon="6.02106">
        <ele>705.4</ele>
        <time>2021-10-17T14:36:34Z</time>
      </trkpt>
      <trkpt lat="46.52229" lon="6.021">
        <ele>705.4</ele>
        <time>2021-10-17T14:36:35Z</time>
      </trkpt>
      <trkpt lat="46.5223" lon="6.02094">
        <ele>705.2</ele>
        <time>2021-10-17T14:36:36Z</time>
      </trkpt>
      <trkpt lat="46.52232" lon="6.02088">
        <ele>705.2</ele>
        <time>2021-10-17T14:36:37Z</time>
      </trkpt>
      <trkpt lat="46.52233" lon="6.02083">
        <ele>705.2</ele>
        <time>2021-10-17T14:36:38Z</time>
      </trkpt>
      <trkpt lat="46.52235" lon="6.02078">
        <ele>705.2</ele>
        <time>2021-10-17T14:36:39Z</time>
      </trkpt>
      <trkpt lat="46.52238" lon="6.02074">
        <ele>705</ele>
        <time>2021-10-17T14:36:40Z</time>
      </trkpt>
      <trkpt lat="46.52241" lon="6.02072">
        <ele>705</ele>
        <time>2021-10-17T14:36:41Z</time>
      </trkpt>
      <trkpt lat="46.52244" lon="6.0207">
        <ele>704.8</ele>
        <time>2021-10-17T14:36:42Z</time>
      </trkpt>
      <trkpt lat="46.52247" lon="6.02068">
        <ele>704.8</ele>
        <time>2021-10-17T14:36:43Z</time>
      </trkpt>
      <trkpt lat="46.52251" lon="6.02066">
        <ele>704.4</ele>
        <time>2021-10-17T14:36:44Z</time>
      </trkpt>
      <trkpt lat="46.52256" lon="6.02064">
        <ele>704.2</ele>
        <time>2021-10-17T14:36:45Z</time>
      </trkpt>
      <trkpt lat="46.5226" lon="6.02062">
        <ele>703.8</ele>
        <time>2021-10-17T14:36:46Z</time>
      </trkpt>
      <trkpt lat="46.52265" lon="6.02059">
        <ele>703.8</ele>
        <time>2021-10-17T14:36:47Z</time>
      </trkpt>
      <trkpt lat="46.52269" lon="6.02056">
        <ele>703.4</ele>
        <time>2021-10-17T14:36:48Z</time>
      </trkpt>
      <trkpt lat="46.52274" lon="6.02054">
        <ele>703.4</ele>
        <time>2021-10-17T14:36:49Z</time>
      </trkpt>
      <trkpt lat="46.52279" lon="6.02053">
        <ele>703.2</ele>
        <time>2021-10-17T14:36:50Z</time>
      </trkpt>
      <trkpt lat="46.52284" lon="6.02053">
        <ele>703.2</ele>
        <time>2021-10-17T14:36:51Z</time>
      </trkpt>
      <trkpt lat="46.52289" lon="6.02052">
        <ele>703.2</ele>
        <time>2021-10-17T14:36:52Z</time>
      </trkpt>
      <trkpt lat="46.52293" lon="6.02052">
        <ele>703.2</ele>
        <time>2021-10-17T14:36:53Z</time>
      </trkpt>
      <trkpt lat="46.52298" lon="6.02052">
        <ele>703</ele>
        <time>2021-10-17T14:36:54Z</time>
      </trkpt>
      <trkpt lat="46.52302" lon="6.02052">
        <ele>703</ele>
        <time>2021-10-17T14:36:55Z</time>
      </trkpt>
      <trkpt lat="46.52306" lon="6.02052">
        <ele>703</ele>
        <time>2021-10-17T14:36:56Z</time>
      </trkpt>
      <trkpt lat="46.52312" lon="6.02051">
        <ele>702.8</ele>
        <time>2021-10-17T14:36:57Z</time>
      </trkpt>
      <trkpt lat="46.52316" lon="6.0205">
        <ele>702.8</ele>
        <time>2021-10-17T14:36:58Z</time>
      </trkpt>
      <trkpt lat="46.5232" lon="6.0205">
        <ele>702.8</ele>
        <time>2021-10-17T14:36:59Z</time>
      </trkpt>
      <trkpt lat="46.52324" lon="6.0205">
        <ele>702.6</ele>
        <time>2021-10-17T14:37:00Z</time>
      </trkpt>
      <trkpt lat="46.52326" lon="6.02049">
        <ele>702.6</ele>
        <time>2021-10-17T14:37:01Z</time>
      </trkpt>
      <trkpt lat="46.52328" lon="6.02048">
        <ele>702.6</ele>
        <time>2021-10-17T14:37:02Z</time>
      </trkpt>
      <trkpt lat="46.5233" lon="6.02047">
        <ele>702.6</ele>
        <time>2021-10-17T14:37:03Z</time>
      </trkpt>
      <trkpt lat="46.52332" lon="6.02047">
        <ele>702.6</ele>
        <time>2021-10-17T14:37:04Z</time>
      </trkpt>
      <trkpt lat="46.52334" lon="6.02055">
        <ele>702.6</ele>
        <time>2021-10-17T14:37:07Z</time>
      </trkpt>
      <trkpt lat="46.52336" lon="6.0206">
        <ele>702.6</ele>
        <time>2021-10-17T14:37:08Z</time>
      </trkpt>
      <trkpt lat="46.52337" lon="6.02065">
        <ele>702.6</ele>
        <time>2021-10-17T14:37:09Z</time>
      </trkpt>
      <trkpt lat="46.52339" lon="6.0207">
        <ele>702.6</ele>
        <time>2021-10-17T14:37:10Z</time>
      </trkpt>
      <trkpt lat="46.5234" lon="6.02074">
        <ele>702.6</ele>
        <time>2021-10-17T14:37:11Z</time>
      </trkpt>
      <trkpt lat="46.52341" lon="6.02079">
        <ele>702.6</ele>
        <time>2021-10-17T14:37:12Z</time>
      </trkpt>
      <trkpt lat="46.52342" lon="6.02084">
        <ele>702.6</ele>
        <time>2021-10-17T14:37:13Z</time>
      </trkpt>
      <trkpt lat="46.52342" lon="6.02089">
        <ele>702.6</ele>
        <time>2021-10-17T14:37:14Z</time>
      </trkpt>
      <trkpt lat="46.52343" lon="6.02095">
        <ele>702.6</ele>
        <time>2021-10-17T14:37:15Z</time>
      </trkpt>
      <trkpt lat="46.52343" lon="6.02101">
        <ele>702.6</ele>
        <time>2021-10-17T14:37:16Z</time>
      </trkpt>
      <trkpt lat="46.52344" lon="6.02106">
        <ele>702.6</ele>
        <time>2021-10-17T14:37:17Z</time>
      </trkpt>
      <trkpt lat="46.52345" lon="6.0211">
        <ele>702.6</ele>
        <time>2021-10-17T14:37:18Z</time>
      </trkpt>
      <trkpt lat="46.52346" lon="6.02114">
        <ele>702.6</ele>
        <time>2021-10-17T14:37:19Z</time>
      </trkpt>
      <trkpt lat="46.52346" lon="6.02118">
        <ele>702.6</ele>
        <time>2021-10-17T14:37:20Z</time>
      </trkpt>
      <trkpt lat="46.52346" lon="6.02123">
        <ele>702.8</ele>
        <time>2021-10-17T14:37:21Z</time>
      </trkpt>
      <trkpt lat="46.52346" lon="6.02126">
        <ele>702.8</ele>
        <time>2021-10-17T14:37:22Z</time>
      </trkpt>
      <trkpt lat="46.52346" lon="6.0213">
        <ele>702.8</ele>
        <time>2021-10-17T14:37:23Z</time>
      </trkpt>
      <trkpt lat="46.52345" lon="6.02133">
        <ele>702.8</ele>
        <time>2021-10-17T14:37:24Z</time>
      </trkpt>
      <trkpt lat="46.52345" lon="6.02137">
        <ele>703.2</ele>
        <time>2021-10-17T14:37:25Z</time>
      </trkpt>
      <trkpt lat="46.52345" lon="6.0214">
        <ele>703.2</ele>
        <time>2021-10-17T14:37:26Z</time>
      </trkpt>
      <trkpt lat="46.52345" lon="6.02142">
        <ele>703.2</ele>
        <time>2021-10-17T14:37:27Z</time>
      </trkpt>
      <trkpt lat="46.52346" lon="6.02143">
        <ele>703.2</ele>
        <time>2021-10-17T14:37:28Z</time>
      </trkpt>
      <trkpt lat="46.52346" lon="6.02143">
        <ele>703.2</ele>
        <time>2021-10-17T14:37:29Z</time>
      </trkpt>
      <trkpt lat="46.52353" lon="6.02148">
        <ele>703.4</ele>
        <time>2021-10-17T14:37:35Z</time>
      </trkpt>
      <trkpt lat="46.52356" lon="6.02149">
        <ele>703.4</ele>
        <time>2021-10-17T14:37:36Z</time>
      </trkpt>
      <trkpt lat="46.5236" lon="6.02148">
        <ele>703.4</ele>
        <time>2021-10-17T14:37:37Z</time>
      </trkpt>
      <trkpt lat="46.52364" lon="6.02148">
        <ele>703.4</ele>
        <time>2021-10-17T14:37:38Z</time>
      </trkpt>
      <trkpt lat="46.52369" lon="6.02147">
        <ele>703.4</ele>
        <time>2021-10-17T14:37:39Z</time>
      </trkpt>
      <trkpt lat="46.52374" lon="6.02146">
        <ele>703.4</ele>
        <time>2021-10-17T14:37:40Z</time>
      </trkpt>
      <trkpt lat="46.5238" lon="6.02145">
        <ele>703.4</ele>
        <time>2021-10-17T14:37:41Z</time>
      </trkpt>
      <trkpt lat="46.52385" lon="6.02144">
        <ele>703.4</ele>
        <time>2021-10-17T14:37:42Z</time>
      </trkpt>
      <trkpt lat="46.52391" lon="6.02143">
        <ele>703.4</ele>
        <time>2021-10-17T14:37:43Z</time>
      </trkpt>
      <trkpt lat="46.52397" lon="6.02141">
        <ele>703.6</ele>
        <time>2021-10-17T14:37:44Z</time>
      </trkpt>
      <trkpt lat="46.52402" lon="6.0214">
        <ele>703.6</ele>
        <time>2021-10-17T14:37:45Z</time>
      </trkpt>
      <trkpt lat="46.52407" lon="6.02139">
        <ele>703.6</ele>
        <time>2021-10-17T14:37:46Z</time>
      </trkpt>
      <trkpt lat="46.52412" lon="6.02139">
        <ele>703.6</ele>
        <time>2021-10-17T14:37:47Z</time>
      </trkpt>
      <trkpt lat="46.52417" lon="6.02138">
        <ele>703.6</ele>
        <time>2021-10-17T14:37:48Z</time>
      </trkpt>
      <trkpt lat="46.52422" lon="6.02139">
        <ele>703.6</ele>
        <time>2021-10-17T14:37:49Z</time>
      </trkpt>
      <trkpt lat="46.52428" lon="6.02139">
        <ele>703.6</ele>
        <time>2021-10-17T14:37:50Z</time>
      </trkpt>
      <trkpt lat="46.52434" lon="6.0214">
        <ele>703.6</ele>
        <time>2021-10-17T14:37:51Z</time>
      </trkpt>
      <trkpt lat="46.52439" lon="6.02141">
        <ele>703.6</ele>
        <time>2021-10-17T14:37:52Z</time>
      </trkpt>
      <trkpt lat="46.52444" lon="6.02142">
        <ele>703.6</ele>
        <time>2021-10-17T14:37:53Z</time>
      </trkpt>
      <trkpt lat="46.5245" lon="6.02143">
        <ele>703.2</ele>
        <time>2021-10-17T14:37:54Z</time>
      </trkpt>
      <trkpt lat="46.52455" lon="6.02144">
        <ele>703.2</ele>
        <time>2021-10-17T14:37:55Z</time>
      </trkpt>
      <trkpt lat="46.52461" lon="6.02144">
        <ele>703.2</ele>
        <time>2021-10-17T14:37:56Z</time>
      </trkpt>
      <trkpt lat="46.52467" lon="6.02145">
        <ele>703</ele>
        <time>2021-10-17T14:37:57Z</time>
      </trkpt>
      <trkpt lat="46.52473" lon="6.02145">
        <ele>703</ele>
        <time>2021-10-17T14:37:58Z</time>
      </trkpt>
      <trkpt lat="46.52478" lon="6.02145">
        <ele>702.8</ele>
        <time>2021-10-17T14:37:59Z</time>
      </trkpt>
      <trkpt lat="46.52484" lon="6.02145">
        <ele>702.8</ele>
        <time>2021-10-17T14:38:00Z</time>
      </trkpt>
      <trkpt lat="46.5249" lon="6.02146">
        <ele>702.6</ele>
        <time>2021-10-17T14:38:01Z</time>
      </trkpt>
      <trkpt lat="46.52496" lon="6.02147">
        <ele>702.6</ele>
        <time>2021-10-17T14:38:02Z</time>
      </trkpt>
      <trkpt lat="46.52503" lon="6.02147">
        <ele>702.2</ele>
        <time>2021-10-17T14:38:03Z</time>
      </trkpt>
      <trkpt lat="46.52509" lon="6.02148">
        <ele>702.2</ele>
        <time>2021-10-17T14:38:04Z</time>
      </trkpt>
      <trkpt lat="46.52516" lon="6.02149">
        <ele>702</ele>
        <time>2021-10-17T14:38:05Z</time>
      </trkpt>
      <trkpt lat="46.52524" lon="6.0215">
        <ele>702</ele>
        <time>2021-10-17T14:38:06Z</time>
      </trkpt>
      <trkpt lat="46.52531" lon="6.0215">
        <ele>701.6</ele>
        <time>2021-10-17T14:38:07Z</time>
      </trkpt>
      <trkpt lat="46.52537" lon="6.02151">
        <ele>701.6</ele>
        <time>2021-10-17T14:38:08Z</time>
      </trkpt>
      <trkpt lat="46.52545" lon="6.02153">
        <ele>701.2</ele>
        <time>2021-10-17T14:38:09Z</time>
      </trkpt>
      <trkpt lat="46.52552" lon="6.02155">
        <ele>701.2</ele>
        <time>2021-10-17T14:38:10Z</time>
      </trkpt>
      <trkpt lat="46.5256" lon="6.02157">
        <ele>701</ele>
        <time>2021-10-17T14:38:11Z</time>
      </trkpt>
      <trkpt lat="46.52568" lon="6.02158">
        <ele>701</ele>
        <time>2021-10-17T14:38:12Z</time>
      </trkpt>
      <trkpt lat="46.52575" lon="6.0216">
        <ele>700.6</ele>
        <time>2021-10-17T14:38:13Z</time>
      </trkpt>
      <trkpt lat="46.52582" lon="6.02161">
        <ele>700.6</ele>
        <time>2021-10-17T14:38:14Z</time>
      </trkpt>
      <trkpt lat="46.52589" lon="6.02162">
        <ele>700.6</ele>
        <time>2021-10-17T14:38:15Z</time>
      </trkpt>
      <trkpt lat="46.52596" lon="6.02163">
        <ele>700.2</ele>
        <time>2021-10-17T14:38:16Z</time>
      </trkpt>
      <trkpt lat="46.52603" lon="6.02164">
        <ele>700.2</ele>
        <time>2021-10-17T14:38:17Z</time>
      </trkpt>
      <trkpt lat="46.5261" lon="6.02165">
        <ele>700</ele>
        <time>2021-10-17T14:38:18Z</time>
      </trkpt>
      <trkpt lat="46.52617" lon="6.02165">
        <ele>700</ele>
        <time>2021-10-17T14:38:19Z</time>
      </trkpt>
      <trkpt lat="46.52624" lon="6.02166">
        <ele>699.8</ele>
        <time>2021-10-17T14:38:20Z</time>
      </trkpt>
      <trkpt lat="46.5263" lon="6.02165">
        <ele>699.8</ele>
        <time>2021-10-17T14:38:21Z</time>
      </trkpt>
      <trkpt lat="46.52638" lon="6.02167">
        <ele>699.4</ele>
        <time>2021-10-17T14:38:22Z</time>
      </trkpt>
      <trkpt lat="46.52645" lon="6.02169">
        <ele>699.4</ele>
        <time>2021-10-17T14:38:23Z</time>
      </trkpt>
      <trkpt lat="46.52653" lon="6.0217">
        <ele>699.2</ele>
        <time>2021-10-17T14:38:24Z</time>
      </trkpt>
      <trkpt lat="46.5266" lon="6.02172">
        <ele>699.2</ele>
        <time>2021-10-17T14:38:25Z</time>
      </trkpt>
      <trkpt lat="46.52667" lon="6.02174">
        <ele>699.2</ele>
        <time>2021-10-17T14:38:26Z</time>
      </trkpt>
      <trkpt lat="46.52674" lon="6.02175">
        <ele>699</ele>
        <time>2021-10-17T14:38:27Z</time>
      </trkpt>
      <trkpt lat="46.52681" lon="6.02175">
        <ele>699</ele>
        <time>2021-10-17T14:38:28Z</time>
      </trkpt>
      <trkpt lat="46.52687" lon="6.02175">
        <ele>699</ele>
        <time>2021-10-17T14:38:29Z</time>
      </trkpt>
      <trkpt lat="46.52694" lon="6.02174">
        <ele>699</ele>
        <time>2021-10-17T14:38:30Z</time>
      </trkpt>
      <trkpt lat="46.52701" lon="6.02174">
        <ele>699</ele>
        <time>2021-10-17T14:38:31Z</time>
      </trkpt>
      <trkpt lat="46.52708" lon="6.02173">
        <ele>699</ele>
        <time>2021-10-17T14:38:32Z</time>
      </trkpt>
      <trkpt lat="46.52714" lon="6.02172">
        <ele>699</ele>
        <time>2021-10-17T14:38:33Z</time>
      </trkpt>
      <trkpt lat="46.52721" lon="6.02171">
        <ele>699</ele>
        <time>2021-10-17T14:38:34Z</time>
      </trkpt>
      <trkpt lat="46.52727" lon="6.0217">
        <ele>699.4</ele>
        <time>2021-10-17T14:38:35Z</time>
      </trkpt>
      <trkpt lat="46.52733" lon="6.02169">
        <ele>699.4</ele>
        <time>2021-10-17T14:38:36Z</time>
      </trkpt>
      <trkpt lat="46.52739" lon="6.02169">
        <ele>699.6</ele>
        <time>2021-10-17T14:38:37Z</time>
      </trkpt>
      <trkpt lat="46.52745" lon="6.02168">
        <ele>699.6</ele>
        <time>2021-10-17T14:38:38Z</time>
      </trkpt>
      <trkpt lat="46.5275" lon="6.02166">
        <ele>699.8</ele>
        <time>2021-10-17T14:38:39Z</time>
      </trkpt>
      <trkpt lat="46.52756" lon="6.02165">
        <ele>699.8</ele>
        <time>2021-10-17T14:38:40Z</time>
      </trkpt>
      <trkpt lat="46.52762" lon="6.02163">
        <ele>699.8</ele>
        <time>2021-10-17T14:38:41Z</time>
      </trkpt>
      <trkpt lat="46.52768" lon="6.02162">
        <ele>699.8</ele>
        <time>2021-10-17T14:38:42Z</time>
      </trkpt>
      <trkpt lat="46.52775" lon="6.0216">
        <ele>700</ele>
        <time>2021-10-17T14:38:43Z</time>
      </trkpt>
      <trkpt lat="46.52781" lon="6.02158">
        <ele>700</ele>
        <time>2021-10-17T14:38:44Z</time>
      </trkpt>
      <trkpt lat="46.52786" lon="6.02156">
        <ele>700</ele>
        <time>2021-10-17T14:38:45Z</time>
      </trkpt>
      <trkpt lat="46.52792" lon="6.02154">
        <ele>700</ele>
        <time>2021-10-17T14:38:46Z</time>
      </trkpt>
      <trkpt lat="46.52798" lon="6.02152">
        <ele>700.4</ele>
        <time>2021-10-17T14:38:47Z</time>
      </trkpt>
      <trkpt lat="46.52804" lon="6.0215">
        <ele>700.4</ele>
        <time>2021-10-17T14:38:48Z</time>
      </trkpt>
      <trkpt lat="46.5281" lon="6.02147">
        <ele>700.4</ele>
        <time>2021-10-17T14:38:49Z</time>
      </trkpt>
      <trkpt lat="46.52815" lon="6.02144">
        <ele>700.6</ele>
        <time>2021-10-17T14:38:50Z</time>
      </trkpt>
      <trkpt lat="46.52822" lon="6.02142">
        <ele>700.6</ele>
        <time>2021-10-17T14:38:51Z</time>
      </trkpt>
      <trkpt lat="46.52828" lon="6.0214">
        <ele>700.6</ele>
        <time>2021-10-17T14:38:52Z</time>
      </trkpt>
      <trkpt lat="46.52834" lon="6.02138">
        <ele>700.6</ele>
        <time>2021-10-17T14:38:53Z</time>
      </trkpt>
      <trkpt lat="46.52839" lon="6.02135">
        <ele>700.6</ele>
        <time>2021-10-17T14:38:54Z</time>
      </trkpt>
      <trkpt lat="46.52844" lon="6.02132">
        <ele>700.6</ele>
        <time>2021-10-17T14:38:55Z</time>
      </trkpt>
      <trkpt lat="46.5285" lon="6.02129">
        <ele>700.6</ele>
        <time>2021-10-17T14:38:56Z</time>
      </trkpt>
      <trkpt lat="46.52855" lon="6.02126">
        <ele>700.6</ele>
        <time>2021-10-17T14:38:57Z</time>
      </trkpt>
      <trkpt lat="46.52861" lon="6.02122">
        <ele>700.6</ele>
        <time>2021-10-17T14:38:58Z</time>
      </trkpt>
      <trkpt lat="46.52866" lon="6.0212">
        <ele>700.6</ele>
        <time>2021-10-17T14:38:59Z</time>
      </trkpt>
      <trkpt lat="46.52872" lon="6.02117">
        <ele>700.8</ele>
        <time>2021-10-17T14:39:00Z</time>
      </trkpt>
      <trkpt lat="46.52878" lon="6.02114">
        <ele>700.8</ele>
        <time>2021-10-17T14:39:01Z</time>
      </trkpt>
      <trkpt lat="46.52884" lon="6.02112">
        <ele>700.8</ele>
        <time>2021-10-17T14:39:02Z</time>
      </trkpt>
      <trkpt lat="46.5289" lon="6.02109">
        <ele>700.8</ele>
        <time>2021-10-17T14:39:03Z</time>
      </trkpt>
      <trkpt lat="46.52896" lon="6.02107">
        <ele>701</ele>
        <time>2021-10-17T14:39:04Z</time>
      </trkpt>
      <trkpt lat="46.52901" lon="6.02104">
        <ele>701</ele>
        <time>2021-10-17T14:39:05Z</time>
      </trkpt>
      <trkpt lat="46.52907" lon="6.02102">
        <ele>701</ele>
        <time>2021-10-17T14:39:06Z</time>
      </trkpt>
      <trkpt lat="46.52913" lon="6.021">
        <ele>701</ele>
        <time>2021-10-17T14:39:07Z</time>
      </trkpt>
      <trkpt lat="46.52919" lon="6.02097">
        <ele>701</ele>
        <time>2021-10-17T14:39:08Z</time>
      </trkpt>
      <trkpt lat="46.52925" lon="6.02095">
        <ele>701</ele>
        <time>2021-10-17T14:39:09Z</time>
      </trkpt>
      <trkpt lat="46.52931" lon="6.02093">
        <ele>701</ele>
        <time>2021-10-17T14:39:10Z</time>
      </trkpt>
      <trkpt lat="46.52936" lon="6.02091">
        <ele>701</ele>
        <time>2021-10-17T14:39:11Z</time>
      </trkpt>
      <trkpt lat="46.52942" lon="6.02089">
        <ele>701.2</ele>
        <time>2021-10-17T14:39:12Z</time>
      </trkpt>
      <trkpt lat="46.52947" lon="6.02087">
        <ele>701.2</ele>
        <time>2021-10-17T14:39:13Z</time>
      </trkpt>
      <trkpt lat="46.52952" lon="6.02086">
        <ele>701.2</ele>
        <time>2021-10-17T14:39:14Z</time>
      </trkpt>
      <trkpt lat="46.52956" lon="6.02084">
        <ele>701.2</ele>
        <time>2021-10-17T14:39:15Z</time>
      </trkpt>
      <trkpt lat="46.52961" lon="6.02082">
        <ele>701.4</ele>
        <time>2021-10-17T14:39:16Z</time>
      </trkpt>
      <trkpt lat="46.52965" lon="6.02081">
        <ele>701.4</ele>
        <time>2021-10-17T14:39:17Z</time>
      </trkpt>
      <trkpt lat="46.52969" lon="6.02079">
        <ele>701.6</ele>
        <time>2021-10-17T14:39:18Z</time>
      </trkpt>
      <trkpt lat="46.52973" lon="6.02078">
        <ele>701.6</ele>
        <time>2021-10-17T14:39:19Z</time>
      </trkpt>
      <trkpt lat="46.52978" lon="6.02077">
        <ele>701.6</ele>
        <time>2021-10-17T14:39:20Z</time>
      </trkpt>
      <trkpt lat="46.52983" lon="6.02076">
        <ele>701.6</ele>
        <time>2021-10-17T14:39:21Z</time>
      </trkpt>
      <trkpt lat="46.52988" lon="6.02075">
        <ele>701.6</ele>
        <time>2021-10-17T14:39:22Z</time>
      </trkpt>
      <trkpt lat="46.52994" lon="6.02074">
        <ele>701.6</ele>
        <time>2021-10-17T14:39:23Z</time>
      </trkpt>
      <trkpt lat="46.52999" lon="6.02073">
        <ele>701.6</ele>
        <time>2021-10-17T14:39:24Z</time>
      </trkpt>
      <trkpt lat="46.53004" lon="6.02072">
        <ele>701.6</ele>
        <time>2021-10-17T14:39:25Z</time>
      </trkpt>
      <trkpt lat="46.53009" lon="6.02071">
        <ele>701.6</ele>
        <time>2021-10-17T14:39:26Z</time>
      </trkpt>
      <trkpt lat="46.53014" lon="6.02071">
        <ele>701.4</ele>
        <time>2021-10-17T14:39:27Z</time>
      </trkpt>
      <trkpt lat="46.53019" lon="6.0207">
        <ele>701.4</ele>
        <time>2021-10-17T14:39:28Z</time>
      </trkpt>
      <trkpt lat="46.53024" lon="6.0207">
        <ele>701.4</ele>
        <time>2021-10-17T14:39:29Z</time>
      </trkpt>
      <trkpt lat="46.53029" lon="6.02071">
        <ele>701.2</ele>
        <time>2021-10-17T14:39:30Z</time>
      </trkpt>
      <trkpt lat="46.53033" lon="6.02071">
        <ele>701.2</ele>
        <time>2021-10-17T14:39:31Z</time>
      </trkpt>
      <trkpt lat="46.53037" lon="6.02072">
        <ele>701.2</ele>
        <time>2021-10-17T14:39:32Z</time>
      </trkpt>
      <trkpt lat="46.5304" lon="6.02073">
        <ele>701.2</ele>
        <time>2021-10-17T14:39:33Z</time>
      </trkpt>
      <trkpt lat="46.53044" lon="6.02073">
        <ele>701.2</ele>
        <time>2021-10-17T14:39:34Z</time>
      </trkpt>
      <trkpt lat="46.53047" lon="6.02072">
        <ele>701</ele>
        <time>2021-10-17T14:39:35Z</time>
      </trkpt>
      <trkpt lat="46.53049" lon="6.02071">
        <ele>701</ele>
        <time>2021-10-17T14:39:36Z</time>
      </trkpt>
      <trkpt lat="46.53052" lon="6.0207">
        <ele>701</ele>
        <time>2021-10-17T14:39:37Z</time>
      </trkpt>
      <trkpt lat="46.53055" lon="6.02068">
        <ele>700.8</ele>
        <time>2021-10-17T14:39:38Z</time>
      </trkpt>
      <trkpt lat="46.53059" lon="6.02066">
        <ele>700.8</ele>
        <time>2021-10-17T14:39:39Z</time>
      </trkpt>
      <trkpt lat="46.53062" lon="6.02065">
        <ele>700.6</ele>
        <time>2021-10-17T14:39:40Z</time>
      </trkpt>
      <trkpt lat="46.53066" lon="6.02065">
        <ele>700.6</ele>
        <time>2021-10-17T14:39:41Z</time>
      </trkpt>
      <trkpt lat="46.5307" lon="6.02064">
        <ele>700.6</ele>
        <time>2021-10-17T14:39:42Z</time>
      </trkpt>
      <trkpt lat="46.53074" lon="6.02063">
        <ele>700.4</ele>
        <time>2021-10-17T14:39:43Z</time>
      </trkpt>
      <trkpt lat="46.53077" lon="6.02063">
        <ele>700.4</ele>
        <time>2021-10-17T14:39:44Z</time>
      </trkpt>
      <trkpt lat="46.5308" lon="6.02063">
        <ele>700.4</ele>
        <time>2021-10-17T14:39:45Z</time>
      </trkpt>
      <trkpt lat="46.53082" lon="6.02064">
        <ele>700.4</ele>
        <time>2021-10-17T14:39:46Z</time>
      </trkpt>
      <trkpt lat="46.53084" lon="6.02063">
        <ele>700</ele>
        <time>2021-10-17T14:39:47Z</time>
      </trkpt>
      <trkpt lat="46.53086" lon="6.02063">
        <ele>700</ele>
        <time>2021-10-17T14:39:48Z</time>
      </trkpt>
      <trkpt lat="46.53088" lon="6.02062">
        <ele>700</ele>
        <time>2021-10-17T14:39:49Z</time>
      </trkpt>
      <trkpt lat="46.53089" lon="6.02061">
        <ele>700</ele>
        <time>2021-10-17T14:39:50Z</time>
      </trkpt>
      <trkpt lat="46.53089" lon="6.02058">
        <ele>700</ele>
        <time>2021-10-17T14:39:51Z</time>
      </trkpt>
      <trkpt lat="46.53089" lon="6.02055">
        <ele>699.8</ele>
        <time>2021-10-17T14:39:52Z</time>
      </trkpt>
      <trkpt lat="46.53087" lon="6.02051">
        <ele>699.8</ele>
        <time>2021-10-17T14:39:53Z</time>
      </trkpt>
      <trkpt lat="46.53086" lon="6.02047">
        <ele>699.8</ele>
        <time>2021-10-17T14:39:54Z</time>
      </trkpt>
      <trkpt lat="46.53085" lon="6.02043">
        <ele>699.8</ele>
        <time>2021-10-17T14:39:55Z</time>
      </trkpt>
      <trkpt lat="46.53084" lon="6.02037">
        <ele>699.8</ele>
        <time>2021-10-17T14:39:56Z</time>
      </trkpt>
      <trkpt lat="46.53083" lon="6.02031">
        <ele>699.8</ele>
        <time>2021-10-17T14:39:57Z</time>
      </trkpt>
      <trkpt lat="46.53081" lon="6.02025">
        <ele>699.8</ele>
        <time>2021-10-17T14:39:58Z</time>
      </trkpt>
      <trkpt lat="46.5308" lon="6.02019">
        <ele>699.8</ele>
        <time>2021-10-17T14:39:59Z</time>
      </trkpt>
      <trkpt lat="46.53078" lon="6.02013">
        <ele>699.8</ele>
        <time>2021-10-17T14:40:00Z</time>
      </trkpt>
      <trkpt lat="46.53077" lon="6.02007">
        <ele>699.8</ele>
        <time>2021-10-17T14:40:01Z</time>
      </trkpt>
      <trkpt lat="46.53076" lon="6.02001">
        <ele>699.8</ele>
        <time>2021-10-17T14:40:02Z</time>
      </trkpt>
      <trkpt lat="46.53075" lon="6.01994">
        <ele>699.8</ele>
        <time>2021-10-17T14:40:03Z</time>
      </trkpt>
      <trkpt lat="46.53073" lon="6.01988">
        <ele>699.8</ele>
        <time>2021-10-17T14:40:04Z</time>
      </trkpt>
      <trkpt lat="46.53072" lon="6.01983">
        <ele>699.8</ele>
        <time>2021-10-17T14:40:05Z</time>
      </trkpt>
      <trkpt lat="46.53071" lon="6.01977">
        <ele>699.8</ele>
        <time>2021-10-17T14:40:06Z</time>
      </trkpt>
      <trkpt lat="46.5307" lon="6.01971">
        <ele>700</ele>
        <time>2021-10-17T14:40:07Z</time>
      </trkpt>
      <trkpt lat="46.53069" lon="6.01964">
        <ele>700</ele>
        <time>2021-10-17T14:40:08Z</time>
      </trkpt>
      <trkpt lat="46.53069" lon="6.01957">
        <ele>700</ele>
        <time>2021-10-17T14:40:09Z</time>
      </trkpt>
      <trkpt lat="46.53069" lon="6.0195">
        <ele>700</ele>
        <time>2021-10-17T14:40:10Z</time>
      </trkpt>
      <trkpt lat="46.53068" lon="6.01943">
        <ele>700</ele>
        <time>2021-10-17T14:40:11Z</time>
      </trkpt>
      <trkpt lat="46.53067" lon="6.01936">
        <ele>700</ele>
        <time>2021-10-17T14:40:12Z</time>
      </trkpt>
      <trkpt lat="46.53067" lon="6.01929">
        <ele>700</ele>
        <time>2021-10-17T14:40:13Z</time>
      </trkpt>
      <trkpt lat="46.53066" lon="6.01922">
        <ele>700</ele>
        <time>2021-10-17T14:40:14Z</time>
      </trkpt>
      <trkpt lat="46.53066" lon="6.01914">
        <ele>700</ele>
        <time>2021-10-17T14:40:15Z</time>
      </trkpt>
      <trkpt lat="46.53066" lon="6.01906">
        <ele>700</ele>
        <time>2021-10-17T14:40:16Z</time>
      </trkpt>
      <trkpt lat="46.53066" lon="6.01898">
        <ele>700.2</ele>
        <time>2021-10-17T14:40:17Z</time>
      </trkpt>
      <trkpt lat="46.53066" lon="6.0189">
        <ele>700.2</ele>
        <time>2021-10-17T14:40:18Z</time>
      </trkpt>
      <trkpt lat="46.53065" lon="6.01882">
        <ele>700.2</ele>
        <time>2021-10-17T14:40:19Z</time>
      </trkpt>
      <trkpt lat="46.53064" lon="6.01874">
        <ele>700.4</ele>
        <time>2021-10-17T14:40:20Z</time>
      </trkpt>
      <trkpt lat="46.53064" lon="6.01866">
        <ele>700.4</ele>
        <time>2021-10-17T14:40:21Z</time>
      </trkpt>
      <trkpt lat="46.53064" lon="6.01858">
        <ele>700.4</ele>
        <time>2021-10-17T14:40:22Z</time>
      </trkpt>
      <trkpt lat="46.53065" lon="6.0185">
        <ele>700.4</ele>
        <time>2021-10-17T14:40:23Z</time>
      </trkpt>
      <trkpt lat="46.53066" lon="6.01843">
        <ele>700.4</ele>
        <time>2021-10-17T14:40:24Z</time>
      </trkpt>
      <trkpt lat="46.53067" lon="6.01835">
        <ele>700.4</ele>
        <time>2021-10-17T14:40:25Z</time>
      </trkpt>
      <trkpt lat="46.53068" lon="6.01828">
        <ele>700.4</ele>
        <time>2021-10-17T14:40:26Z</time>
      </trkpt>
      <trkpt lat="46.53069" lon="6.0182">
        <ele>700.4</ele>
        <time>2021-10-17T14:40:27Z</time>
      </trkpt>
      <trkpt lat="46.5307" lon="6.01813">
        <ele>700.4</ele>
        <time>2021-10-17T14:40:28Z</time>
      </trkpt>
      <trkpt lat="46.53071" lon="6.01805">
        <ele>700.4</ele>
        <time>2021-10-17T14:40:29Z</time>
      </trkpt>
      <trkpt lat="46.53071" lon="6.01798">
        <ele>700.4</ele>
        <time>2021-10-17T14:40:30Z</time>
      </trkpt>
      <trkpt lat="46.53072" lon="6.01792">
        <ele>700.6</ele>
        <time>2021-10-17T14:40:31Z</time>
      </trkpt>
      <trkpt lat="46.53073" lon="6.01785">
        <ele>700.6</ele>
        <time>2021-10-17T14:40:32Z</time>
      </trkpt>
      <trkpt lat="46.53074" lon="6.01779">
        <ele>700.6</ele>
        <time>2021-10-17T14:40:33Z</time>
      </trkpt>
      <trkpt lat="46.53074" lon="6.01774">
        <ele>700.6</ele>
        <time>2021-10-17T14:40:34Z</time>
      </trkpt>
      <trkpt lat="46.53074" lon="6.01768">
        <ele>700.6</ele>
        <time>2021-10-17T14:40:35Z</time>
      </trkpt>
      <trkpt lat="46.53074" lon="6.01763">
        <ele>700.6</ele>
        <time>2021-10-17T14:40:36Z</time>
      </trkpt>
      <trkpt lat="46.53074" lon="6.01758">
        <ele>701</ele>
        <time>2021-10-17T14:40:37Z</time>
      </trkpt>
      <trkpt lat="46.53074" lon="6.01753">
        <ele>701</ele>
        <time>2021-10-17T14:40:38Z</time>
      </trkpt>
      <trkpt lat="46.53075" lon="6.01749">
        <ele>701</ele>
        <time>2021-10-17T14:40:39Z</time>
      </trkpt>
      <trkpt lat="46.53075" lon="6.01745">
        <ele>701</ele>
        <time>2021-10-17T14:40:40Z</time>
      </trkpt>
      <trkpt lat="46.53076" lon="6.01741">
        <ele>701</ele>
        <time>2021-10-17T14:40:41Z</time>
      </trkpt>
      <trkpt lat="46.53077" lon="6.01737">
        <ele>701</ele>
        <time>2021-10-17T14:40:42Z</time>
      </trkpt>
      <trkpt lat="46.53078" lon="6.01734">
        <ele>701</ele>
        <time>2021-10-17T14:40:43Z</time>
      </trkpt>
      <trkpt lat="46.53079" lon="6.0173">
        <ele>701</ele>
        <time>2021-10-17T14:40:44Z</time>
      </trkpt>
      <trkpt lat="46.5308" lon="6.01727">
        <ele>701</ele>
        <time>2021-10-17T14:40:45Z</time>
      </trkpt>
      <trkpt lat="46.53081" lon="6.01723">
        <ele>701</ele>
        <time>2021-10-17T14:40:46Z</time>
      </trkpt>
      <trkpt lat="46.53082" lon="6.01719">
        <ele>701</ele>
        <time>2021-10-17T14:40:47Z</time>
      </trkpt>
      <trkpt lat="46.53084" lon="6.01715">
        <ele>701</ele>
        <time>2021-10-17T14:40:48Z</time>
      </trkpt>
      <trkpt lat="46.53087" lon="6.0171">
        <ele>701</ele>
        <time>2021-10-17T14:40:49Z</time>
      </trkpt>
      <trkpt lat="46.5309" lon="6.01705">
        <ele>701</ele>
        <time>2021-10-17T14:40:50Z</time>
      </trkpt>
      <trkpt lat="46.53093" lon="6.017">
        <ele>701</ele>
        <time>2021-10-17T14:40:51Z</time>
      </trkpt>
      <trkpt lat="46.53097" lon="6.01695">
        <ele>701</ele>
        <time>2021-10-17T14:40:52Z</time>
      </trkpt>
      <trkpt lat="46.531" lon="6.01691">
        <ele>701</ele>
        <time>2021-10-17T14:40:53Z</time>
      </trkpt>
      <trkpt lat="46.53104" lon="6.01686">
        <ele>701</ele>
        <time>2021-10-17T14:40:54Z</time>
      </trkpt>
      <trkpt lat="46.53107" lon="6.01681">
        <ele>701</ele>
        <time>2021-10-17T14:40:55Z</time>
      </trkpt>
      <trkpt lat="46.53111" lon="6.01676">
        <ele>701</ele>
        <time>2021-10-17T14:40:56Z</time>
      </trkpt>
      <trkpt lat="46.53115" lon="6.01671">
        <ele>701.2</ele>
        <time>2021-10-17T14:40:57Z</time>
      </trkpt>
      <trkpt lat="46.53119" lon="6.01666">
        <ele>701.2</ele>
        <time>2021-10-17T14:40:58Z</time>
      </trkpt>
      <trkpt lat="46.53122" lon="6.0166">
        <ele>701.2</ele>
        <time>2021-10-17T14:40:59Z</time>
      </trkpt>
      <trkpt lat="46.53126" lon="6.01655">
        <ele>701.2</ele>
        <time>2021-10-17T14:41:00Z</time>
      </trkpt>
      <trkpt lat="46.5313" lon="6.0165">
        <ele>701.2</ele>
        <time>2021-10-17T14:41:01Z</time>
      </trkpt>
      <trkpt lat="46.53134" lon="6.01644">
        <ele>701.2</ele>
        <time>2021-10-17T14:41:02Z</time>
      </trkpt>
      <trkpt lat="46.53138" lon="6.01639">
        <ele>701.4</ele>
        <time>2021-10-17T14:41:03Z</time>
      </trkpt>
      <trkpt lat="46.53142" lon="6.01633">
        <ele>701.4</ele>
        <time>2021-10-17T14:41:04Z</time>
      </trkpt>
      <trkpt lat="46.53146" lon="6.01628">
        <ele>701.4</ele>
        <time>2021-10-17T14:41:05Z</time>
      </trkpt>
      <trkpt lat="46.5315" lon="6.01622">
        <ele>701.4</ele>
        <time>2021-10-17T14:41:06Z</time>
      </trkpt>
      <trkpt lat="46.53154" lon="6.01616">
        <ele>701.6</ele>
        <time>2021-10-17T14:41:07Z</time>
      </trkpt>
      <trkpt lat="46.53157" lon="6.01611">
        <ele>701.6</ele>
        <time>2021-10-17T14:41:08Z</time>
      </trkpt>
      <trkpt lat="46.53161" lon="6.01605">
        <ele>701.6</ele>
        <time>2021-10-17T14:41:09Z</time>
      </trkpt>
      <trkpt lat="46.53164" lon="6.01598">
        <ele>701.6</ele>
        <time>2021-10-17T14:41:10Z</time>
      </trkpt>
      <trkpt lat="46.53167" lon="6.01592">
        <ele>701.6</ele>
        <time>2021-10-17T14:41:11Z</time>
      </trkpt>
      <trkpt lat="46.5317" lon="6.01584">
        <ele>701.8</ele>
        <time>2021-10-17T14:41:12Z</time>
      </trkpt>
      <trkpt lat="46.53174" lon="6.01576">
        <ele>701.8</ele>
        <time>2021-10-17T14:41:13Z</time>
      </trkpt>
      <trkpt lat="46.53177" lon="6.01568">
        <ele>701.8</ele>
        <time>2021-10-17T14:41:14Z</time>
      </trkpt>
      <trkpt lat="46.5318" lon="6.0156">
        <ele>701.8</ele>
        <time>2021-10-17T14:41:15Z</time>
      </trkpt>
      <trkpt lat="46.53184" lon="6.01553">
        <ele>702.2</ele>
        <time>2021-10-17T14:41:16Z</time>
      </trkpt>
      <trkpt lat="46.53187" lon="6.01545">
        <ele>702.2</ele>
        <time>2021-10-17T14:41:17Z</time>
      </trkpt>
      <trkpt lat="46.5319" lon="6.01538">
        <ele>702.2</ele>
        <time>2021-10-17T14:41:18Z</time>
      </trkpt>
      <trkpt lat="46.53194" lon="6.0153">
        <ele>702.2</ele>
        <time>2021-10-17T14:41:19Z</time>
      </trkpt>
      <trkpt lat="46.53198" lon="6.01524">
        <ele>702.2</ele>
        <time>2021-10-17T14:41:20Z</time>
      </trkpt>
      <trkpt lat="46.53202" lon="6.01519">
        <ele>702.4</ele>
        <time>2021-10-17T14:41:21Z</time>
      </trkpt>
      <trkpt lat="46.53207" lon="6.01513">
        <ele>702.4</ele>
        <time>2021-10-17T14:41:22Z</time>
      </trkpt>
      <trkpt lat="46.53212" lon="6.01508">
        <ele>702.4</ele>
        <time>2021-10-17T14:41:23Z</time>
      </trkpt>
      <trkpt lat="46.53217" lon="6.01503">
        <ele>702.4</ele>
        <time>2021-10-17T14:41:24Z</time>
      </trkpt>
      <trkpt lat="46.53222" lon="6.01499">
        <ele>702.4</ele>
        <time>2021-10-17T14:41:25Z</time>
      </trkpt>
      <trkpt lat="46.53227" lon="6.01494">
        <ele>702.4</ele>
        <time>2021-10-17T14:41:26Z</time>
      </trkpt>
      <trkpt lat="46.53232" lon="6.01489">
        <ele>702.4</ele>
        <time>2021-10-17T14:41:27Z</time>
      </trkpt>
      <trkpt lat="46.53237" lon="6.01485">
        <ele>702.6</ele>
        <time>2021-10-17T14:41:28Z</time>
      </trkpt>
      <trkpt lat="46.53241" lon="6.0148">
        <ele>702.6</ele>
        <time>2021-10-17T14:41:29Z</time>
      </trkpt>
      <trkpt lat="46.53246" lon="6.01475">
        <ele>702.6</ele>
        <time>2021-10-17T14:41:30Z</time>
      </trkpt>
      <trkpt lat="46.53251" lon="6.0147">
        <ele>702.6</ele>
        <time>2021-10-17T14:41:31Z</time>
      </trkpt>
      <trkpt lat="46.53256" lon="6.01465">
        <ele>702.6</ele>
        <time>2021-10-17T14:41:32Z</time>
      </trkpt>
      <trkpt lat="46.53261" lon="6.0146">
        <ele>702.6</ele>
        <time>2021-10-17T14:41:33Z</time>
      </trkpt>
      <trkpt lat="46.53266" lon="6.01455">
        <ele>702.6</ele>
        <time>2021-10-17T14:41:34Z</time>
      </trkpt>
      <trkpt lat="46.5327" lon="6.0145">
        <ele>702.6</ele>
        <time>2021-10-17T14:41:35Z</time>
      </trkpt>
      <trkpt lat="46.53275" lon="6.01445">
        <ele>703</ele>
        <time>2021-10-17T14:41:36Z</time>
      </trkpt>
      <trkpt lat="46.5328" lon="6.0144">
        <ele>703</ele>
        <time>2021-10-17T14:41:37Z</time>
      </trkpt>
      <trkpt lat="46.53284" lon="6.01434">
        <ele>703</ele>
        <time>2021-10-17T14:41:38Z</time>
      </trkpt>
      <trkpt lat="46.53288" lon="6.01429">
        <ele>703</ele>
        <time>2021-10-17T14:41:39Z</time>
      </trkpt>
      <trkpt lat="46.53291" lon="6.01422">
        <ele>703</ele>
        <time>2021-10-17T14:41:40Z</time>
      </trkpt>
      <trkpt lat="46.53294" lon="6.01414">
        <ele>703</ele>
        <time>2021-10-17T14:41:41Z</time>
      </trkpt>
      <trkpt lat="46.53296" lon="6.01406">
        <ele>703.2</ele>
        <time>2021-10-17T14:41:42Z</time>
      </trkpt>
      <trkpt lat="46.53297" lon="6.01398">
        <ele>703.2</ele>
        <time>2021-10-17T14:41:43Z</time>
      </trkpt>
      <trkpt lat="46.53298" lon="6.01389">
        <ele>703.2</ele>
        <time>2021-10-17T14:41:44Z</time>
      </trkpt>
      <trkpt lat="46.53299" lon="6.0138">
        <ele>703.2</ele>
        <time>2021-10-17T14:41:45Z</time>
      </trkpt>
      <trkpt lat="46.53301" lon="6.01371">
        <ele>703.4</ele>
        <time>2021-10-17T14:41:46Z</time>
      </trkpt>
      <trkpt lat="46.53303" lon="6.01363">
        <ele>703.4</ele>
        <time>2021-10-17T14:41:47Z</time>
      </trkpt>
      <trkpt lat="46.53305" lon="6.01355">
        <ele>703.6</ele>
        <time>2021-10-17T14:41:48Z</time>
      </trkpt>
      <trkpt lat="46.53307" lon="6.01348">
        <ele>703.6</ele>
        <time>2021-10-17T14:41:49Z</time>
      </trkpt>
      <trkpt lat="46.53309" lon="6.0134">
        <ele>704</ele>
        <time>2021-10-17T14:41:50Z</time>
      </trkpt>
      <trkpt lat="46.53311" lon="6.01333">
        <ele>704</ele>
        <time>2021-10-17T14:41:51Z</time>
      </trkpt>
      <trkpt lat="46.53313" lon="6.01325">
        <ele>704.2</ele>
        <time>2021-10-17T14:41:52Z</time>
      </trkpt>
      <trkpt lat="46.53315" lon="6.01318">
        <ele>704.2</ele>
        <time>2021-10-17T14:41:53Z</time>
      </trkpt>
      <trkpt lat="46.53317" lon="6.01311">
        <ele>704.4</ele>
        <time>2021-10-17T14:41:54Z</time>
      </trkpt>
      <trkpt lat="46.53319" lon="6.01303">
        <ele>704.4</ele>
        <time>2021-10-17T14:41:55Z</time>
      </trkpt>
      <trkpt lat="46.53321" lon="6.01296">
        <ele>704.8</ele>
        <time>2021-10-17T14:41:56Z</time>
      </trkpt>
      <trkpt lat="46.53324" lon="6.01289">
        <ele>704.8</ele>
        <time>2021-10-17T14:41:57Z</time>
      </trkpt>
      <trkpt lat="46.53326" lon="6.01281">
        <ele>705</ele>
        <time>2021-10-17T14:41:58Z</time>
      </trkpt>
      <trkpt lat="46.53327" lon="6.01274">
        <ele>705</ele>
        <time>2021-10-17T14:41:59Z</time>
      </trkpt>
      <trkpt lat="46.53329" lon="6.01266">
        <ele>705.2</ele>
        <time>2021-10-17T14:42:00Z</time>
      </trkpt>
      <trkpt lat="46.5333" lon="6.01259">
        <ele>705.2</ele>
        <time>2021-10-17T14:42:01Z</time>
      </trkpt>
      <trkpt lat="46.53332" lon="6.01252">
        <ele>705.2</ele>
        <time>2021-10-17T14:42:02Z</time>
      </trkpt>
      <trkpt lat="46.53334" lon="6.01244">
        <ele>705.6</ele>
        <time>2021-10-17T14:42:03Z</time>
      </trkpt>
      <trkpt lat="46.53335" lon="6.01237">
        <ele>705.6</ele>
        <time>2021-10-17T14:42:04Z</time>
      </trkpt>
      <trkpt lat="46.53337" lon="6.0123">
        <ele>705.8</ele>
        <time>2021-10-17T14:42:05Z</time>
      </trkpt>
      <trkpt lat="46.53338" lon="6.01223">
        <ele>705.8</ele>
        <time>2021-10-17T14:42:06Z</time>
      </trkpt>
      <trkpt lat="46.5334" lon="6.01216">
        <ele>705.8</ele>
        <time>2021-10-17T14:42:07Z</time>
      </trkpt>
      <trkpt lat="46.53342" lon="6.01209">
        <ele>705.8</ele>
        <time>2021-10-17T14:42:08Z</time>
      </trkpt>
      <trkpt lat="46.53343" lon="6.01202">
        <ele>705.8</ele>
        <time>2021-10-17T14:42:09Z</time>
      </trkpt>
      <trkpt lat="46.53345" lon="6.01195">
        <ele>706</ele>
        <time>2021-10-17T14:42:10Z</time>
      </trkpt>
      <trkpt lat="46.53346" lon="6.01188">
        <ele>706</ele>
        <time>2021-10-17T14:42:11Z</time>
      </trkpt>
      <trkpt lat="46.53348" lon="6.01181">
        <ele>706</ele>
        <time>2021-10-17T14:42:12Z</time>
      </trkpt>
      <trkpt lat="46.5335" lon="6.01174">
        <ele>706.2</ele>
        <time>2021-10-17T14:42:13Z</time>
      </trkpt>
      <trkpt lat="46.53352" lon="6.01167">
        <ele>706.2</ele>
        <time>2021-10-17T14:42:14Z</time>
      </trkpt>
      <trkpt lat="46.53354" lon="6.0116">
        <ele>706.6</ele>
        <time>2021-10-17T14:42:15Z</time>
      </trkpt>
      <trkpt lat="46.53356" lon="6.01153">
        <ele>706.6</ele>
        <time>2021-10-17T14:42:16Z</time>
      </trkpt>
      <trkpt lat="46.53358" lon="6.01146">
        <ele>706.8</ele>
        <time>2021-10-17T14:42:17Z</time>
      </trkpt>
      <trkpt lat="46.5336" lon="6.0114">
        <ele>706.8</ele>
        <time>2021-10-17T14:42:18Z</time>
      </trkpt>
      <trkpt lat="46.53363" lon="6.01134">
        <ele>707.2</ele>
        <time>2021-10-17T14:42:19Z</time>
      </trkpt>
      <trkpt lat="46.53365" lon="6.01127">
        <ele>707.2</ele>
        <time>2021-10-17T14:42:20Z</time>
      </trkpt>
      <trkpt lat="46.53367" lon="6.0112">
        <ele>707.4</ele>
        <time>2021-10-17T14:42:21Z</time>
      </trkpt>
      <trkpt lat="46.53369" lon="6.01113">
        <ele>707.4</ele>
        <time>2021-10-17T14:42:22Z</time>
      </trkpt>
      <trkpt lat="46.53371" lon="6.01106">
        <ele>707.6</ele>
        <time>2021-10-17T14:42:23Z</time>
      </trkpt>
      <trkpt lat="46.53373" lon="6.01099">
        <ele>707.6</ele>
        <time>2021-10-17T14:42:24Z</time>
      </trkpt>
      <trkpt lat="46.53374" lon="6.01092">
        <ele>707.6</ele>
        <time>2021-10-17T14:42:25Z</time>
      </trkpt>
      <trkpt lat="46.53376" lon="6.01085">
        <ele>707.8</ele>
        <time>2021-10-17T14:42:26Z</time>
      </trkpt>
      <trkpt lat="46.53377" lon="6.01078">
        <ele>708</ele>
        <time>2021-10-17T14:42:27Z</time>
      </trkpt>
      <trkpt lat="46.53378" lon="6.01071">
        <ele>708</ele>
        <time>2021-10-17T14:42:28Z</time>
      </trkpt>
      <trkpt lat="46.53381" lon="6.01066">
        <ele>708.4</ele>
        <time>2021-10-17T14:42:29Z</time>
      </trkpt>
      <trkpt lat="46.53384" lon="6.01062">
        <ele>708.4</ele>
        <time>2021-10-17T14:42:30Z</time>
      </trkpt>
      <trkpt lat="46.53386" lon="6.01056">
        <ele>708.4</ele>
        <time>2021-10-17T14:42:31Z</time>
      </trkpt>
      <trkpt lat="46.5339" lon="6.01051">
        <ele>708.6</ele>
        <time>2021-10-17T14:42:32Z</time>
      </trkpt>
      <trkpt lat="46.53393" lon="6.01046">
        <ele>708.6</ele>
        <time>2021-10-17T14:42:33Z</time>
      </trkpt>
      <trkpt lat="46.53398" lon="6.01043">
        <ele>708.8</ele>
        <time>2021-10-17T14:42:34Z</time>
      </trkpt>
      <trkpt lat="46.53402" lon="6.0104">
        <ele>708.8</ele>
        <time>2021-10-17T14:42:35Z</time>
      </trkpt>
      <trkpt lat="46.53407" lon="6.01038">
        <ele>709</ele>
        <time>2021-10-17T14:42:36Z</time>
      </trkpt>
      <trkpt lat="46.53412" lon="6.01037">
        <ele>709</ele>
        <time>2021-10-17T14:42:37Z</time>
      </trkpt>
      <trkpt lat="46.53417" lon="6.01037">
        <ele>709</ele>
        <time>2021-10-17T14:42:38Z</time>
      </trkpt>
      <trkpt lat="46.53422" lon="6.01037">
        <ele>709.4</ele>
        <time>2021-10-17T14:42:39Z</time>
      </trkpt>
      <trkpt lat="46.53426" lon="6.01037">
        <ele>709.4</ele>
        <time>2021-10-17T14:42:40Z</time>
      </trkpt>
      <trkpt lat="46.53431" lon="6.01038">
        <ele>709.6</ele>
        <time>2021-10-17T14:42:41Z</time>
      </trkpt>
      <trkpt lat="46.53436" lon="6.01039">
        <ele>709.6</ele>
        <time>2021-10-17T14:42:42Z</time>
      </trkpt>
      <trkpt lat="46.5344" lon="6.01041">
        <ele>709.6</ele>
        <time>2021-10-17T14:42:43Z</time>
      </trkpt>
      <trkpt lat="46.53444" lon="6.01042">
        <ele>710</ele>
        <time>2021-10-17T14:42:44Z</time>
      </trkpt>
      <trkpt lat="46.53448" lon="6.01041">
        <ele>710</ele>
        <time>2021-10-17T14:42:45Z</time>
      </trkpt>
      <trkpt lat="46.53452" lon="6.01039">
        <ele>710</ele>
        <time>2021-10-17T14:42:46Z</time>
      </trkpt>
      <trkpt lat="46.53454" lon="6.01036">
        <ele>710.2</ele>
        <time>2021-10-17T14:42:47Z</time>
      </trkpt>
      <trkpt lat="46.53456" lon="6.01033">
        <ele>710.2</ele>
        <time>2021-10-17T14:42:48Z</time>
      </trkpt>
      <trkpt lat="46.53458" lon="6.01029">
        <ele>710.2</ele>
        <time>2021-10-17T14:42:49Z</time>
      </trkpt>
      <trkpt lat="46.53459" lon="6.01025">
        <ele>710.2</ele>
        <time>2021-10-17T14:42:50Z</time>
      </trkpt>
      <trkpt lat="46.53459" lon="6.01021">
        <ele>710.2</ele>
        <time>2021-10-17T14:42:51Z</time>
      </trkpt>
      <trkpt lat="46.53458" lon="6.01015">
        <ele>710.4</ele>
        <time>2021-10-17T14:42:52Z</time>
      </trkpt>
      <trkpt lat="46.53456" lon="6.01011">
        <ele>710.4</ele>
        <time>2021-10-17T14:42:53Z</time>
      </trkpt>
      <trkpt lat="46.53454" lon="6.01007">
        <ele>710.6</ele>
        <time>2021-10-17T14:42:54Z</time>
      </trkpt>
      <trkpt lat="46.5345" lon="6.01001">
        <ele>710.6</ele>
        <time>2021-10-17T14:42:55Z</time>
      </trkpt>
      <trkpt lat="46.53447" lon="6.00996">
        <ele>710.6</ele>
        <time>2021-10-17T14:42:56Z</time>
      </trkpt>
      <trkpt lat="46.53443" lon="6.00992">
        <ele>710.6</ele>
        <time>2021-10-17T14:42:57Z</time>
      </trkpt>
      <trkpt lat="46.53438" lon="6.00988">
        <ele>710.6</ele>
        <time>2021-10-17T14:42:58Z</time>
      </trkpt>
      <trkpt lat="46.53433" lon="6.00984">
        <ele>710.6</ele>
        <time>2021-10-17T14:42:59Z</time>
      </trkpt>
      <trkpt lat="46.53429" lon="6.00979">
        <ele>710.6</ele>
        <time>2021-10-17T14:43:00Z</time>
      </trkpt>
      <trkpt lat="46.53425" lon="6.00972">
        <ele>710.6</ele>
        <time>2021-10-17T14:43:01Z</time>
      </trkpt>
      <trkpt lat="46.5342" lon="6.00964">
        <ele>710.6</ele>
        <time>2021-10-17T14:43:02Z</time>
      </trkpt>
      <trkpt lat="46.53415" lon="6.00957">
        <ele>710.2</ele>
        <time>2021-10-17T14:43:03Z</time>
      </trkpt>
      <trkpt lat="46.53411" lon="6.00948">
        <ele>710.2</ele>
        <time>2021-10-17T14:43:04Z</time>
      </trkpt>
      <trkpt lat="46.53408" lon="6.00939">
        <ele>710</ele>
        <time>2021-10-17T14:43:05Z</time>
      </trkpt>
      <trkpt lat="46.53405" lon="6.00929">
        <ele>710</ele>
        <time>2021-10-17T14:43:06Z</time>
      </trkpt>
      <trkpt lat="46.53404" lon="6.00919">
        <ele>710</ele>
        <time>2021-10-17T14:43:07Z</time>
      </trkpt>
      <trkpt lat="46.53403" lon="6.0091">
        <ele>710</ele>
        <time>2021-10-17T14:43:08Z</time>
      </trkpt>
      <trkpt lat="46.53403" lon="6.009">
        <ele>709.8</ele>
        <time>2021-10-17T14:43:09Z</time>
      </trkpt>
      <trkpt lat="46.53403" lon="6.0089">
        <ele>709.8</ele>
        <time>2021-10-17T14:43:10Z</time>
      </trkpt>
      <trkpt lat="46.53403" lon="6.00881">
        <ele>709.8</ele>
        <time>2021-10-17T14:43:11Z</time>
      </trkpt>
      <trkpt lat="46.53401" lon="6.00872">
        <ele>709.8</ele>
        <time>2021-10-17T14:43:12Z</time>
      </trkpt>
      <trkpt lat="46.53399" lon="6.00864">
        <ele>709.8</ele>
        <time>2021-10-17T14:43:13Z</time>
      </trkpt>
      <trkpt lat="46.53397" lon="6.00855">
        <ele>709.8</ele>
        <time>2021-10-17T14:43:14Z</time>
      </trkpt>
      <trkpt lat="46.53394" lon="6.00847">
        <ele>709.8</ele>
        <time>2021-10-17T14:43:15Z</time>
      </trkpt>
      <trkpt lat="46.5339" lon="6.00838">
        <ele>709.8</ele>
        <time>2021-10-17T14:43:16Z</time>
      </trkpt>
      <trkpt lat="46.53387" lon="6.0083">
        <ele>709.8</ele>
        <time>2021-10-17T14:43:17Z</time>
      </trkpt>
      <trkpt lat="46.53385" lon="6.00821">
        <ele>709.8</ele>
        <time>2021-10-17T14:43:18Z</time>
      </trkpt>
      <trkpt lat="46.53383" lon="6.00813">
        <ele>709.8</ele>
        <time>2021-10-17T14:43:19Z</time>
      </trkpt>
      <trkpt lat="46.5338" lon="6.00805">
        <ele>709.8</ele>
        <time>2021-10-17T14:43:20Z</time>
      </trkpt>
      <trkpt lat="46.53377" lon="6.00796">
        <ele>709.8</ele>
        <time>2021-10-17T14:43:21Z</time>
      </trkpt>
      <trkpt lat="46.53374" lon="6.00788">
        <ele>709.8</ele>
        <time>2021-10-17T14:43:22Z</time>
      </trkpt>
      <trkpt lat="46.53371" lon="6.0078">
        <ele>709.8</ele>
        <time>2021-10-17T14:43:23Z</time>
      </trkpt>
      <trkpt lat="46.53368" lon="6.00772">
        <ele>709.8</ele>
        <time>2021-10-17T14:43:24Z</time>
      </trkpt>
      <trkpt lat="46.53365" lon="6.00764">
        <ele>709.8</ele>
        <time>2021-10-17T14:43:25Z</time>
      </trkpt>
      <trkpt lat="46.53362" lon="6.00757">
        <ele>709.8</ele>
        <time>2021-10-17T14:43:26Z</time>
      </trkpt>
      <trkpt lat="46.5336" lon="6.00749">
        <ele>709.8</ele>
        <time>2021-10-17T14:43:27Z</time>
      </trkpt>
      <trkpt lat="46.53358" lon="6.00741">
        <ele>709.8</ele>
        <time>2021-10-17T14:43:28Z</time>
      </trkpt>
      <trkpt lat="46.53358" lon="6.00733">
        <ele>709.8</ele>
        <time>2021-10-17T14:43:29Z</time>
      </trkpt>
      <trkpt lat="46.53357" lon="6.00726">
        <ele>709.8</ele>
        <time>2021-10-17T14:43:30Z</time>
      </trkpt>
      <trkpt lat="46.53357" lon="6.00718">
        <ele>709.8</ele>
        <time>2021-10-17T14:43:31Z</time>
      </trkpt>
      <trkpt lat="46.53355" lon="6.00711">
        <ele>709.8</ele>
        <time>2021-10-17T14:43:32Z</time>
      </trkpt>
      <trkpt lat="46.53353" lon="6.00704">
        <ele>709.8</ele>
        <time>2021-10-17T14:43:33Z</time>
      </trkpt>
      <trkpt lat="46.53349" lon="6.00697">
        <ele>709.8</ele>
        <time>2021-10-17T14:43:34Z</time>
      </trkpt>
      <trkpt lat="46.53345" lon="6.00692">
        <ele>709.8</ele>
        <time>2021-10-17T14:43:35Z</time>
      </trkpt>
      <trkpt lat="46.5334" lon="6.00687">
        <ele>709.8</ele>
        <time>2021-10-17T14:43:36Z</time>
      </trkpt>
      <trkpt lat="46.53335" lon="6.00682">
        <ele>709.8</ele>
        <time>2021-10-17T14:43:37Z</time>
      </trkpt>
      <trkpt lat="46.53331" lon="6.00677">
        <ele>710</ele>
        <time>2021-10-17T14:43:38Z</time>
      </trkpt>
      <trkpt lat="46.53327" lon="6.00672">
        <ele>710</ele>
        <time>2021-10-17T14:43:39Z</time>
      </trkpt>
      <trkpt lat="46.53323" lon="6.00666">
        <ele>710</ele>
        <time>2021-10-17T14:43:40Z</time>
      </trkpt>
      <trkpt lat="46.53319" lon="6.00659">
        <ele>710</ele>
        <time>2021-10-17T14:43:41Z</time>
      </trkpt>
      <trkpt lat="46.53315" lon="6.00653">
        <ele>710</ele>
        <time>2021-10-17T14:43:42Z</time>
      </trkpt>
      <trkpt lat="46.5331" lon="6.00647">
        <ele>710</ele>
        <time>2021-10-17T14:43:43Z</time>
      </trkpt>
      <trkpt lat="46.53305" lon="6.00642">
        <ele>710</ele>
        <time>2021-10-17T14:43:44Z</time>
      </trkpt>
      <trkpt lat="46.533" lon="6.00637">
        <ele>710</ele>
        <time>2021-10-17T14:43:45Z</time>
      </trkpt>
      <trkpt lat="46.53295" lon="6.00632">
        <ele>710</ele>
        <time>2021-10-17T14:43:46Z</time>
      </trkpt>
      <trkpt lat="46.5329" lon="6.00628">
        <ele>710</ele>
        <time>2021-10-17T14:43:47Z</time>
      </trkpt>
      <trkpt lat="46.53285" lon="6.00622">
        <ele>710</ele>
        <time>2021-10-17T14:43:48Z</time>
      </trkpt>
      <trkpt lat="46.53281" lon="6.00615">
        <ele>710</ele>
        <time>2021-10-17T14:43:49Z</time>
      </trkpt>
      <trkpt lat="46.53277" lon="6.00608">
        <ele>709.8</ele>
        <time>2021-10-17T14:43:50Z</time>
      </trkpt>
      <trkpt lat="46.53273" lon="6.00601">
        <ele>709.8</ele>
        <time>2021-10-17T14:43:51Z</time>
      </trkpt>
      <trkpt lat="46.5327" lon="6.00594">
        <ele>709.8</ele>
        <time>2021-10-17T14:43:52Z</time>
      </trkpt>
      <trkpt lat="46.53268" lon="6.00586">
        <ele>709.8</ele>
        <time>2021-10-17T14:43:53Z</time>
      </trkpt>
      <trkpt lat="46.53266" lon="6.00578">
        <ele>709.8</ele>
        <time>2021-10-17T14:43:54Z</time>
      </trkpt>
      <trkpt lat="46.53264" lon="6.0057">
        <ele>709.8</ele>
        <time>2021-10-17T14:43:55Z</time>
      </trkpt>
      <trkpt lat="46.53263" lon="6.00563">
        <ele>709.8</ele>
        <time>2021-10-17T14:43:56Z</time>
      </trkpt>
      <trkpt lat="46.53263" lon="6.00555">
        <ele>709.8</ele>
        <time>2021-10-17T14:43:57Z</time>
      </trkpt>
      <trkpt lat="46.53262" lon="6.00547">
        <ele>709.8</ele>
        <time>2021-10-17T14:43:58Z</time>
      </trkpt>
      <trkpt lat="46.5326" lon="6.00538">
        <ele>710</ele>
        <time>2021-10-17T14:43:59Z</time>
      </trkpt>
      <trkpt lat="46.53259" lon="6.0053">
        <ele>710</ele>
        <time>2021-10-17T14:44:00Z</time>
      </trkpt>
      <trkpt lat="46.53256" lon="6.00522">
        <ele>710</ele>
        <time>2021-10-17T14:44:01Z</time>
      </trkpt>
      <trkpt lat="46.53252" lon="6.00515">
        <ele>710</ele>
        <time>2021-10-17T14:44:02Z</time>
      </trkpt>
      <trkpt lat="46.53249" lon="6.00509">
        <ele>710.4</ele>
        <time>2021-10-17T14:44:03Z</time>
      </trkpt>
      <trkpt lat="46.53244" lon="6.00501">
        <ele>710.4</ele>
        <time>2021-10-17T14:44:04Z</time>
      </trkpt>
      <trkpt lat="46.5324" lon="6.00494">
        <ele>710.4</ele>
        <time>2021-10-17T14:44:05Z</time>
      </trkpt>
      <trkpt lat="46.53237" lon="6.00487">
        <ele>710.4</ele>
        <time>2021-10-17T14:44:06Z</time>
      </trkpt>
      <trkpt lat="46.53234" lon="6.0048">
        <ele>710.4</ele>
        <time>2021-10-17T14:44:07Z</time>
      </trkpt>
      <trkpt lat="46.53232" lon="6.00473">
        <ele>710.6</ele>
        <time>2021-10-17T14:44:08Z</time>
      </trkpt>
      <trkpt lat="46.5323" lon="6.00466">
        <ele>710.6</ele>
        <time>2021-10-17T14:44:09Z</time>
      </trkpt>
      <trkpt lat="46.53228" lon="6.00458">
        <ele>710.6</ele>
        <time>2021-10-17T14:44:10Z</time>
      </trkpt>
      <trkpt lat="46.53226" lon="6.0045">
        <ele>710.6</ele>
        <time>2021-10-17T14:44:11Z</time>
      </trkpt>
      <trkpt lat="46.53225" lon="6.00442">
        <ele>710.6</ele>
        <time>2021-10-17T14:44:12Z</time>
      </trkpt>
      <trkpt lat="46.53225" lon="6.00434">
        <ele>710.8</ele>
        <time>2021-10-17T14:44:13Z</time>
      </trkpt>
      <trkpt lat="46.53225" lon="6.00425">
        <ele>710.8</ele>
        <time>2021-10-17T14:44:14Z</time>
      </trkpt>
      <trkpt lat="46.53226" lon="6.00416">
        <ele>710.8</ele>
        <time>2021-10-17T14:44:15Z</time>
      </trkpt>
      <trkpt lat="46.53228" lon="6.00407">
        <ele>710.8</ele>
        <time>2021-10-17T14:44:16Z</time>
      </trkpt>
      <trkpt lat="46.5323" lon="6.00398">
        <ele>710.8</ele>
        <time>2021-10-17T14:44:17Z</time>
      </trkpt>
      <trkpt lat="46.53231" lon="6.00388">
        <ele>710.8</ele>
        <time>2021-10-17T14:44:18Z</time>
      </trkpt>
      <trkpt lat="46.53232" lon="6.0038">
        <ele>710.8</ele>
        <time>2021-10-17T14:44:19Z</time>
      </trkpt>
      <trkpt lat="46.53234" lon="6.00371">
        <ele>710.8</ele>
        <time>2021-10-17T14:44:20Z</time>
      </trkpt>
      <trkpt lat="46.53235" lon="6.00362">
        <ele>710.8</ele>
        <time>2021-10-17T14:44:21Z</time>
      </trkpt>
      <trkpt lat="46.53236" lon="6.00353">
        <ele>710.8</ele>
        <time>2021-10-17T14:44:22Z</time>
      </trkpt>
      <trkpt lat="46.53238" lon="6.00344">
        <ele>710.8</ele>
        <time>2021-10-17T14:44:23Z</time>
      </trkpt>
      <trkpt lat="46.53239" lon="6.00335">
        <ele>710.8</ele>
        <time>2021-10-17T14:44:24Z</time>
      </trkpt>
      <trkpt lat="46.5324" lon="6.00325">
        <ele>711</ele>
        <time>2021-10-17T14:44:25Z</time>
      </trkpt>
      <trkpt lat="46.53241" lon="6.00315">
        <ele>711</ele>
        <time>2021-10-17T14:44:26Z</time>
      </trkpt>
      <trkpt lat="46.53242" lon="6.00306">
        <ele>711</ele>
        <time>2021-10-17T14:44:27Z</time>
      </trkpt>
      <trkpt lat="46.53244" lon="6.00298">
        <ele>711.2</ele>
        <time>2021-10-17T14:44:28Z</time>
      </trkpt>
      <trkpt lat="46.53246" lon="6.00289">
        <ele>711.2</ele>
        <time>2021-10-17T14:44:29Z</time>
      </trkpt>
      <trkpt lat="46.53246" lon="6.00281">
        <ele>711.2</ele>
        <time>2021-10-17T14:44:30Z</time>
      </trkpt>
      <trkpt lat="46.53245" lon="6.00272">
        <ele>711.6</ele>
        <time>2021-10-17T14:44:31Z</time>
      </trkpt>
      <trkpt lat="46.53243" lon="6.00264">
        <ele>711.6</ele>
        <time>2021-10-17T14:44:32Z</time>
      </trkpt>
      <trkpt lat="46.53239" lon="6.00257">
        <ele>711.8</ele>
        <time>2021-10-17T14:44:33Z</time>
      </trkpt>
      <trkpt lat="46.53235" lon="6.00251">
        <ele>711.8</ele>
        <time>2021-10-17T14:44:34Z</time>
      </trkpt>
      <trkpt lat="46.5323" lon="6.00246">
        <ele>711.8</ele>
        <time>2021-10-17T14:44:35Z</time>
      </trkpt>
      <trkpt lat="46.53225" lon="6.00241">
        <ele>712</ele>
        <time>2021-10-17T14:44:36Z</time>
      </trkpt>
      <trkpt lat="46.5322" lon="6.00238">
        <ele>712</ele>
        <time>2021-10-17T14:44:37Z</time>
      </trkpt>
      <trkpt lat="46.53215" lon="6.00235">
        <ele>712</ele>
        <time>2021-10-17T14:44:38Z</time>
      </trkpt>
      <trkpt lat="46.53209" lon="6.00232">
        <ele>712</ele>
        <time>2021-10-17T14:44:39Z</time>
      </trkpt>
      <trkpt lat="46.53204" lon="6.00229">
        <ele>712</ele>
        <time>2021-10-17T14:44:40Z</time>
      </trkpt>
      <trkpt lat="46.53198" lon="6.00224">
        <ele>712</ele>
        <time>2021-10-17T14:44:41Z</time>
      </trkpt>
      <trkpt lat="46.53193" lon="6.00219">
        <ele>712</ele>
        <time>2021-10-17T14:44:42Z</time>
      </trkpt>
      <trkpt lat="46.53189" lon="6.00213">
        <ele>711.8</ele>
        <time>2021-10-17T14:44:43Z</time>
      </trkpt>
      <trkpt lat="46.53185" lon="6.00208">
        <ele>711.8</ele>
        <time>2021-10-17T14:44:44Z</time>
      </trkpt>
      <trkpt lat="46.53182" lon="6.00202">
        <ele>711.6</ele>
        <time>2021-10-17T14:44:45Z</time>
      </trkpt>
      <trkpt lat="46.53179" lon="6.00196">
        <ele>711.6</ele>
        <time>2021-10-17T14:44:46Z</time>
      </trkpt>
      <trkpt lat="46.53177" lon="6.0019">
        <ele>711.6</ele>
        <time>2021-10-17T14:44:47Z</time>
      </trkpt>
      <trkpt lat="46.53175" lon="6.00183">
        <ele>711.4</ele>
        <time>2021-10-17T14:44:48Z</time>
      </trkpt>
      <trkpt lat="46.53175" lon="6.00174">
        <ele>711.4</ele>
        <time>2021-10-17T14:44:49Z</time>
      </trkpt>
      <trkpt lat="46.53175" lon="6.00165">
        <ele>711.4</ele>
        <time>2021-10-17T14:44:50Z</time>
      </trkpt>
      <trkpt lat="46.53175" lon="6.00156">
        <ele>711.4</ele>
        <time>2021-10-17T14:44:51Z</time>
      </trkpt>
      <trkpt lat="46.53177" lon="6.00147">
        <ele>711.4</ele>
        <time>2021-10-17T14:44:52Z</time>
      </trkpt>
      <trkpt lat="46.53177" lon="6.00138">
        <ele>711.2</ele>
        <time>2021-10-17T14:44:53Z</time>
      </trkpt>
      <trkpt lat="46.53176" lon="6.00129">
        <ele>711.2</ele>
        <time>2021-10-17T14:44:54Z</time>
      </trkpt>
      <trkpt lat="46.53176" lon="6.00119">
        <ele>711.2</ele>
        <time>2021-10-17T14:44:55Z</time>
      </trkpt>
      <trkpt lat="46.53177" lon="6.00109">
        <ele>711.2</ele>
        <time>2021-10-17T14:44:56Z</time>
      </trkpt>
      <trkpt lat="46.53178" lon="6.00099">
        <ele>710.8</ele>
        <time>2021-10-17T14:44:57Z</time>
      </trkpt>
      <trkpt lat="46.53179" lon="6.0009">
        <ele>710.8</ele>
        <time>2021-10-17T14:44:58Z</time>
      </trkpt>
      <trkpt lat="46.5318" lon="6.0008">
        <ele>710.8</ele>
        <time>2021-10-17T14:44:59Z</time>
      </trkpt>
      <trkpt lat="46.53182" lon="6.00071">
        <ele>710.6</ele>
        <time>2021-10-17T14:45:00Z</time>
      </trkpt>
      <trkpt lat="46.53184" lon="6.00062">
        <ele>710.6</ele>
        <time>2021-10-17T14:45:01Z</time>
      </trkpt>
      <trkpt lat="46.53186" lon="6.00052">
        <ele>710.6</ele>
        <time>2021-10-17T14:45:02Z</time>
      </trkpt>
      <trkpt lat="46.53188" lon="6.00043">
        <ele>710.4</ele>
        <time>2021-10-17T14:45:03Z</time>
      </trkpt>
      <trkpt lat="46.53189" lon="6.00034">
        <ele>710.4</ele>
        <time>2021-10-17T14:45:04Z</time>
      </trkpt>
      <trkpt lat="46.53191" lon="6.00025">
        <ele>710.4</ele>
        <time>2021-10-17T14:45:05Z</time>
      </trkpt>
      <trkpt lat="46.53194" lon="6.00015">
        <ele>710.4</ele>
        <time>2021-10-17T14:45:06Z</time>
      </trkpt>
      <trkpt lat="46.53196" lon="6.00006">
        <ele>710.4</ele>
        <time>2021-10-17T14:45:07Z</time>
      </trkpt>
      <trkpt lat="46.53199" lon="5.99997">
        <ele>710.4</ele>
        <time>2021-10-17T14:45:08Z</time>
      </trkpt>
      <trkpt lat="46.53202" lon="5.99988">
        <ele>710</ele>
        <time>2021-10-17T14:45:09Z</time>
      </trkpt>
      <trkpt lat="46.53204" lon="5.99979">
        <ele>710</ele>
        <time>2021-10-17T14:45:10Z</time>
      </trkpt>
      <trkpt lat="46.53206" lon="5.9997">
        <ele>710</ele>
        <time>2021-10-17T14:45:11Z</time>
      </trkpt>
      <trkpt lat="46.53207" lon="5.9996">
        <ele>710</ele>
        <time>2021-10-17T14:45:12Z</time>
      </trkpt>
      <trkpt lat="46.53207" lon="5.9995">
        <ele>709.8</ele>
        <time>2021-10-17T14:45:13Z</time>
      </trkpt>
      <trkpt lat="46.53208" lon="5.99941">
        <ele>709.8</ele>
        <time>2021-10-17T14:45:14Z</time>
      </trkpt>
      <trkpt lat="46.53208" lon="5.99931">
        <ele>709.8</ele>
        <time>2021-10-17T14:45:15Z</time>
      </trkpt>
      <trkpt lat="46.53208" lon="5.99922">
        <ele>709.8</ele>
        <time>2021-10-17T14:45:16Z</time>
      </trkpt>
      <trkpt lat="46.53208" lon="5.99913">
        <ele>709.8</ele>
        <time>2021-10-17T14:45:17Z</time>
      </trkpt>
      <trkpt lat="46.53207" lon="5.99903">
        <ele>709.8</ele>
        <time>2021-10-17T14:45:18Z</time>
      </trkpt>
      <trkpt lat="46.53206" lon="5.99895">
        <ele>709.6</ele>
        <time>2021-10-17T14:45:19Z</time>
      </trkpt>
      <trkpt lat="46.53205" lon="5.99886">
        <ele>709.6</ele>
        <time>2021-10-17T14:45:20Z</time>
      </trkpt>
      <trkpt lat="46.53203" lon="5.99878">
        <ele>709.6</ele>
        <time>2021-10-17T14:45:21Z</time>
      </trkpt>
      <trkpt lat="46.53201" lon="5.9987">
        <ele>709.6</ele>
        <time>2021-10-17T14:45:22Z</time>
      </trkpt>
      <trkpt lat="46.53199" lon="5.99861">
        <ele>709.6</ele>
        <time>2021-10-17T14:45:23Z</time>
      </trkpt>
      <trkpt lat="46.53197" lon="5.99853">
        <ele>709.6</ele>
        <time>2021-10-17T14:45:24Z</time>
      </trkpt>
      <trkpt lat="46.53194" lon="5.99844">
        <ele>709.6</ele>
        <time>2021-10-17T14:45:25Z</time>
      </trkpt>
      <trkpt lat="46.53191" lon="5.99836">
        <ele>709.4</ele>
        <time>2021-10-17T14:45:26Z</time>
      </trkpt>
      <trkpt lat="46.53186" lon="5.9983">
        <ele>709.4</ele>
        <time>2021-10-17T14:45:27Z</time>
      </trkpt>
      <trkpt lat="46.53181" lon="5.99824">
        <ele>709.4</ele>
        <time>2021-10-17T14:45:28Z</time>
      </trkpt>
      <trkpt lat="46.53175" lon="5.99821">
        <ele>709.2</ele>
        <time>2021-10-17T14:45:29Z</time>
      </trkpt>
      <trkpt lat="46.53169" lon="5.99818">
        <ele>709.2</ele>
        <time>2021-10-17T14:45:30Z</time>
      </trkpt>
      <trkpt lat="46.53164" lon="5.99816">
        <ele>709.2</ele>
        <time>2021-10-17T14:45:31Z</time>
      </trkpt>
      <trkpt lat="46.53158" lon="5.99813">
        <ele>709.2</ele>
        <time>2021-10-17T14:45:32Z</time>
      </trkpt>
      <trkpt lat="46.53152" lon="5.9981">
        <ele>709.2</ele>
        <time>2021-10-17T14:45:33Z</time>
      </trkpt>
      <trkpt lat="46.53147" lon="5.99806">
        <ele>709.2</ele>
        <time>2021-10-17T14:45:34Z</time>
      </trkpt>
      <trkpt lat="46.53142" lon="5.99803">
        <ele>709.2</ele>
        <time>2021-10-17T14:45:35Z</time>
      </trkpt>
      <trkpt lat="46.53137" lon="5.998">
        <ele>709.2</ele>
        <time>2021-10-17T14:45:36Z</time>
      </trkpt>
      <trkpt lat="46.53133" lon="5.99796">
        <ele>709.4</ele>
        <time>2021-10-17T14:45:37Z</time>
      </trkpt>
      <trkpt lat="46.53128" lon="5.99793">
        <ele>709.4</ele>
        <time>2021-10-17T14:45:38Z</time>
      </trkpt>
      <trkpt lat="46.53123" lon="5.99789">
        <ele>709.4</ele>
        <time>2021-10-17T14:45:39Z</time>
      </trkpt>
      <trkpt lat="46.53118" lon="5.99787">
        <ele>709.4</ele>
        <time>2021-10-17T14:45:40Z</time>
      </trkpt>
      <trkpt lat="46.53113" lon="5.99783">
        <ele>709.6</ele>
        <time>2021-10-17T14:45:41Z</time>
      </trkpt>
      <trkpt lat="46.53109" lon="5.9978">
        <ele>709.6</ele>
        <time>2021-10-17T14:45:42Z</time>
      </trkpt>
      <trkpt lat="46.53104" lon="5.99776">
        <ele>709.6</ele>
        <time>2021-10-17T14:45:43Z</time>
      </trkpt>
      <trkpt lat="46.531" lon="5.99772">
        <ele>709.8</ele>
        <time>2021-10-17T14:45:44Z</time>
      </trkpt>
      <trkpt lat="46.53096" lon="5.99769">
        <ele>709.8</ele>
        <time>2021-10-17T14:45:45Z</time>
      </trkpt>
      <trkpt lat="46.53091" lon="5.99766">
        <ele>709.8</ele>
        <time>2021-10-17T14:45:46Z</time>
      </trkpt>
      <trkpt lat="46.53086" lon="5.99764">
        <ele>710</ele>
        <time>2021-10-17T14:45:47Z</time>
      </trkpt>
      <trkpt lat="46.53082" lon="5.99762">
        <ele>710</ele>
        <time>2021-10-17T14:45:48Z</time>
      </trkpt>
      <trkpt lat="46.53077" lon="5.99761">
        <ele>710</ele>
        <time>2021-10-17T14:45:49Z</time>
      </trkpt>
      <trkpt lat="46.53073" lon="5.9976">
        <ele>710</ele>
        <time>2021-10-17T14:45:50Z</time>
      </trkpt>
      <trkpt lat="46.53068" lon="5.99758">
        <ele>710.2</ele>
        <time>2021-10-17T14:45:51Z</time>
      </trkpt>
      <trkpt lat="46.53064" lon="5.99758">
        <ele>710.2</ele>
        <time>2021-10-17T14:45:52Z</time>
      </trkpt>
      <trkpt lat="46.53059" lon="5.99757">
        <ele>710.4</ele>
        <time>2021-10-17T14:45:53Z</time>
      </trkpt>
      <trkpt lat="46.53053" lon="5.99757">
        <ele>710.4</ele>
        <time>2021-10-17T14:45:54Z</time>
      </trkpt>
      <trkpt lat="46.53047" lon="5.99757">
        <ele>710.4</ele>
        <time>2021-10-17T14:45:55Z</time>
      </trkpt>
      <trkpt lat="46.53042" lon="5.99757">
        <ele>710.6</ele>
        <time>2021-10-17T14:45:56Z</time>
      </trkpt>
      <trkpt lat="46.53036" lon="5.99758">
        <ele>710.6</ele>
        <time>2021-10-17T14:45:57Z</time>
      </trkpt>
      <trkpt lat="46.5303" lon="5.99759">
        <ele>710.6</ele>
        <time>2021-10-17T14:45:58Z</time>
      </trkpt>
      <trkpt lat="46.53025" lon="5.9976">
        <ele>711</ele>
        <time>2021-10-17T14:45:59Z</time>
      </trkpt>
      <trkpt lat="46.5302" lon="5.99761">
        <ele>711</ele>
        <time>2021-10-17T14:46:00Z</time>
      </trkpt>
      <trkpt lat="46.53015" lon="5.99761">
        <ele>711</ele>
        <time>2021-10-17T14:46:01Z</time>
      </trkpt>
      <trkpt lat="46.53009" lon="5.99759">
        <ele>711</ele>
        <time>2021-10-17T14:46:02Z</time>
      </trkpt>
      <trkpt lat="46.53004" lon="5.99756">
        <ele>711</ele>
        <time>2021-10-17T14:46:03Z</time>
      </trkpt>
      <trkpt lat="46.53" lon="5.99751">
        <ele>711</ele>
        <time>2021-10-17T14:46:04Z</time>
      </trkpt>
      <trkpt lat="46.52996" lon="5.99746">
        <ele>711.2</ele>
        <time>2021-10-17T14:46:05Z</time>
      </trkpt>
      <trkpt lat="46.52992" lon="5.99741">
        <ele>711.2</ele>
        <time>2021-10-17T14:46:06Z</time>
      </trkpt>
      <trkpt lat="46.52989" lon="5.99735">
        <ele>711.2</ele>
        <time>2021-10-17T14:46:07Z</time>
      </trkpt>
      <trkpt lat="46.52987" lon="5.99727">
        <ele>711.4</ele>
        <time>2021-10-17T14:46:08Z</time>
      </trkpt>
      <trkpt lat="46.52986" lon="5.9972">
        <ele>711.4</ele>
        <time>2021-10-17T14:46:09Z</time>
      </trkpt>
      <trkpt lat="46.52986" lon="5.99713">
        <ele>711.4</ele>
        <time>2021-10-17T14:46:10Z</time>
      </trkpt>
      <trkpt lat="46.52986" lon="5.99705">
        <ele>711.4</ele>
        <time>2021-10-17T14:46:11Z</time>
      </trkpt>
      <trkpt lat="46.52986" lon="5.99698">
        <ele>711.4</ele>
        <time>2021-10-17T14:46:12Z</time>
      </trkpt>
      <trkpt lat="46.52987" lon="5.9969">
        <ele>711.4</ele>
        <time>2021-10-17T14:46:13Z</time>
      </trkpt>
      <trkpt lat="46.52987" lon="5.99683">
        <ele>711.4</ele>
        <time>2021-10-17T14:46:14Z</time>
      </trkpt>
      <trkpt lat="46.52988" lon="5.99675">
        <ele>711.4</ele>
        <time>2021-10-17T14:46:15Z</time>
      </trkpt>
      <trkpt lat="46.52988" lon="5.99667">
        <ele>711.4</ele>
        <time>2021-10-17T14:46:16Z</time>
      </trkpt>
      <trkpt lat="46.52988" lon="5.99659">
        <ele>711.6</ele>
        <time>2021-10-17T14:46:17Z</time>
      </trkpt>
      <trkpt lat="46.52988" lon="5.99651">
        <ele>711.6</ele>
        <time>2021-10-17T14:46:18Z</time>
      </trkpt>
      <trkpt lat="46.52988" lon="5.99645">
        <ele>711.6</ele>
        <time>2021-10-17T14:46:19Z</time>
      </trkpt>
      <trkpt lat="46.52988" lon="5.99637">
        <ele>711.6</ele>
        <time>2021-10-17T14:46:20Z</time>
      </trkpt>
      <trkpt lat="46.52989" lon="5.9963">
        <ele>711.6</ele>
        <time>2021-10-17T14:46:21Z</time>
      </trkpt>
      <trkpt lat="46.52989" lon="5.99622">
        <ele>711.6</ele>
        <time>2021-10-17T14:46:22Z</time>
      </trkpt>
      <trkpt lat="46.52989" lon="5.99615">
        <ele>711.8</ele>
        <time>2021-10-17T14:46:23Z</time>
      </trkpt>
      <trkpt lat="46.52989" lon="5.99608">
        <ele>711.8</ele>
        <time>2021-10-17T14:46:24Z</time>
      </trkpt>
      <trkpt lat="46.5299" lon="5.99601">
        <ele>711.8</ele>
        <time>2021-10-17T14:46:25Z</time>
      </trkpt>
      <trkpt lat="46.5299" lon="5.99593">
        <ele>711.8</ele>
        <time>2021-10-17T14:46:26Z</time>
      </trkpt>
      <trkpt lat="46.5299" lon="5.99587">
        <ele>712.2</ele>
        <time>2021-10-17T14:46:27Z</time>
      </trkpt>
      <trkpt lat="46.5299" lon="5.9958">
        <ele>712.2</ele>
        <time>2021-10-17T14:46:28Z</time>
      </trkpt>
      <trkpt lat="46.5299" lon="5.99573">
        <ele>712.2</ele>
        <time>2021-10-17T14:46:29Z</time>
      </trkpt>
      <trkpt lat="46.52989" lon="5.99566">
        <ele>712.4</ele>
        <time>2021-10-17T14:46:30Z</time>
      </trkpt>
      <trkpt lat="46.52988" lon="5.99559">
        <ele>712.4</ele>
        <time>2021-10-17T14:46:31Z</time>
      </trkpt>
      <trkpt lat="46.52987" lon="5.99553">
        <ele>712.4</ele>
        <time>2021-10-17T14:46:32Z</time>
      </trkpt>
      <trkpt lat="46.52986" lon="5.99545">
        <ele>712.4</ele>
        <time>2021-10-17T14:46:33Z</time>
      </trkpt>
      <trkpt lat="46.52985" lon="5.99538">
        <ele>712.6</ele>
        <time>2021-10-17T14:46:34Z</time>
      </trkpt>
      <trkpt lat="46.52984" lon="5.99531">
        <ele>712.6</ele>
        <time>2021-10-17T14:46:35Z</time>
      </trkpt>
      <trkpt lat="46.52983" lon="5.99524">
        <ele>712.6</ele>
        <time>2021-10-17T14:46:36Z</time>
      </trkpt>
      <trkpt lat="46.52981" lon="5.99517">
        <ele>712.8</ele>
        <time>2021-10-17T14:46:37Z</time>
      </trkpt>
      <trkpt lat="46.52978" lon="5.99512">
        <ele>712.8</ele>
        <time>2021-10-17T14:46:38Z</time>
      </trkpt>
      <trkpt lat="46.52975" lon="5.99506">
        <ele>712.8</ele>
        <time>2021-10-17T14:46:39Z</time>
      </trkpt>
      <trkpt lat="46.52971" lon="5.99501">
        <ele>712.8</ele>
        <time>2021-10-17T14:46:40Z</time>
      </trkpt>
      <trkpt lat="46.52967" lon="5.99495">
        <ele>712.8</ele>
        <time>2021-10-17T14:46:41Z</time>
      </trkpt>
      <trkpt lat="46.52959" lon="5.99483">
        <ele>713.2</ele>
        <time>2021-10-17T14:46:42Z</time>
      </trkpt>
      <trkpt lat="46.52957" lon="5.99477">
        <ele>713.2</ele>
        <time>2021-10-17T14:46:43Z</time>
      </trkpt>
      <trkpt lat="46.52954" lon="5.9947">
        <ele>713.2</ele>
        <time>2021-10-17T14:46:44Z</time>
      </trkpt>
      <trkpt lat="46.52953" lon="5.99462">
        <ele>713.2</ele>
        <time>2021-10-17T14:46:45Z</time>
      </trkpt>
      <trkpt lat="46.52952" lon="5.99456">
        <ele>713.4</ele>
        <time>2021-10-17T14:46:46Z</time>
      </trkpt>
      <trkpt lat="46.52952" lon="5.99449">
        <ele>713.4</ele>
        <time>2021-10-17T14:46:47Z</time>
      </trkpt>
      <trkpt lat="46.52951" lon="5.9944">
        <ele>713.4</ele>
        <time>2021-10-17T14:46:48Z</time>
      </trkpt>
      <trkpt lat="46.5295" lon="5.99433">
        <ele>713.4</ele>
        <time>2021-10-17T14:46:49Z</time>
      </trkpt>
      <trkpt lat="46.52948" lon="5.99425">
        <ele>713.4</ele>
        <time>2021-10-17T14:46:50Z</time>
      </trkpt>
      <trkpt lat="46.52945" lon="5.99417">
        <ele>713.4</ele>
        <time>2021-10-17T14:46:51Z</time>
      </trkpt>
      <trkpt lat="46.52939" lon="5.99411">
        <ele>713.6</ele>
        <time>2021-10-17T14:46:52Z</time>
      </trkpt>
      <trkpt lat="46.52934" lon="5.99407">
        <ele>713.6</ele>
        <time>2021-10-17T14:46:53Z</time>
      </trkpt>
      <trkpt lat="46.52929" lon="5.99403">
        <ele>713.6</ele>
        <time>2021-10-17T14:46:54Z</time>
      </trkpt>
      <trkpt lat="46.52923" lon="5.99401">
        <ele>713.6</ele>
        <time>2021-10-17T14:46:55Z</time>
      </trkpt>
      <trkpt lat="46.52918" lon="5.99399">
        <ele>713.6</ele>
        <time>2021-10-17T14:46:56Z</time>
      </trkpt>
      <trkpt lat="46.52913" lon="5.99397">
        <ele>713.6</ele>
        <time>2021-10-17T14:46:57Z</time>
      </trkpt>
      <trkpt lat="46.52907" lon="5.99397">
        <ele>713.6</ele>
        <time>2021-10-17T14:46:58Z</time>
      </trkpt>
      <trkpt lat="46.52902" lon="5.99396">
        <ele>713.8</ele>
        <time>2021-10-17T14:46:59Z</time>
      </trkpt>
      <trkpt lat="46.52897" lon="5.99393">
        <ele>713.8</ele>
        <time>2021-10-17T14:47:00Z</time>
      </trkpt>
      <trkpt lat="46.52892" lon="5.99388">
        <ele>713.8</ele>
        <time>2021-10-17T14:47:01Z</time>
      </trkpt>
      <trkpt lat="46.52887" lon="5.99383">
        <ele>713.8</ele>
        <time>2021-10-17T14:47:02Z</time>
      </trkpt>
      <trkpt lat="46.52883" lon="5.99378">
        <ele>713.8</ele>
        <time>2021-10-17T14:47:03Z</time>
      </trkpt>
      <trkpt lat="46.52878" lon="5.99374">
        <ele>713.6</ele>
        <time>2021-10-17T14:47:04Z</time>
      </trkpt>
      <trkpt lat="46.52872" lon="5.99371">
        <ele>713.6</ele>
        <time>2021-10-17T14:47:05Z</time>
      </trkpt>
      <trkpt lat="46.52867" lon="5.99371">
        <ele>713.6</ele>
        <time>2021-10-17T14:47:06Z</time>
      </trkpt>
      <trkpt lat="46.52862" lon="5.99373">
        <ele>713.6</ele>
        <time>2021-10-17T14:47:07Z</time>
      </trkpt>
      <trkpt lat="46.52857" lon="5.99375">
        <ele>713.6</ele>
        <time>2021-10-17T14:47:08Z</time>
      </trkpt>
      <trkpt lat="46.52852" lon="5.99377">
        <ele>713.4</ele>
        <time>2021-10-17T14:47:09Z</time>
      </trkpt>
      <trkpt lat="46.52847" lon="5.99379">
        <ele>713.4</ele>
        <time>2021-10-17T14:47:10Z</time>
      </trkpt>
      <trkpt lat="46.52841" lon="5.9938">
        <ele>713.4</ele>
        <time>2021-10-17T14:47:11Z</time>
      </trkpt>
      <trkpt lat="46.52835" lon="5.9938">
        <ele>713.4</ele>
        <time>2021-10-17T14:47:12Z</time>
      </trkpt>
      <trkpt lat="46.52828" lon="5.99381">
        <ele>713.2</ele>
        <time>2021-10-17T14:47:13Z</time>
      </trkpt>
      <trkpt lat="46.52823" lon="5.99383">
        <ele>713.2</ele>
        <time>2021-10-17T14:47:14Z</time>
      </trkpt>
      <trkpt lat="46.52817" lon="5.99385">
        <ele>713.2</ele>
        <time>2021-10-17T14:47:15Z</time>
      </trkpt>
      <trkpt lat="46.5281" lon="5.99388">
        <ele>713.2</ele>
        <time>2021-10-17T14:47:16Z</time>
      </trkpt>
      <trkpt lat="46.52804" lon="5.99391">
        <ele>713.2</ele>
        <time>2021-10-17T14:47:17Z</time>
      </trkpt>
      <trkpt lat="46.52798" lon="5.99395">
        <ele>712.8</ele>
        <time>2021-10-17T14:47:18Z</time>
      </trkpt>
      <trkpt lat="46.52792" lon="5.99399">
        <ele>712.8</ele>
        <time>2021-10-17T14:47:19Z</time>
      </trkpt>
      <trkpt lat="46.52786" lon="5.99402">
        <ele>712.8</ele>
        <time>2021-10-17T14:47:20Z</time>
      </trkpt>
      <trkpt lat="46.5278" lon="5.99406">
        <ele>712.6</ele>
        <time>2021-10-17T14:47:21Z</time>
      </trkpt>
      <trkpt lat="46.52774" lon="5.9941">
        <ele>712.6</ele>
        <time>2021-10-17T14:47:22Z</time>
      </trkpt>
      <trkpt lat="46.52768" lon="5.99414">
        <ele>712.6</ele>
        <time>2021-10-17T14:47:23Z</time>
      </trkpt>
      <trkpt lat="46.52763" lon="5.99418">
        <ele>712.6</ele>
        <time>2021-10-17T14:47:24Z</time>
      </trkpt>
      <trkpt lat="46.52756" lon="5.99421">
        <ele>712.4</ele>
        <time>2021-10-17T14:47:25Z</time>
      </trkpt>
      <trkpt lat="46.5275" lon="5.99423">
        <ele>712.4</ele>
        <time>2021-10-17T14:47:26Z</time>
      </trkpt>
      <trkpt lat="46.52743" lon="5.99423">
        <ele>712.4</ele>
        <time>2021-10-17T14:47:27Z</time>
      </trkpt>
      <trkpt lat="46.52737" lon="5.99421">
        <ele>712.2</ele>
        <time>2021-10-17T14:47:28Z</time>
      </trkpt>
      <trkpt lat="46.5273" lon="5.99419">
        <ele>712.2</ele>
        <time>2021-10-17T14:47:29Z</time>
      </trkpt>
      <trkpt lat="46.52724" lon="5.99416">
        <ele>712.2</ele>
        <time>2021-10-17T14:47:30Z</time>
      </trkpt>
      <trkpt lat="46.52719" lon="5.99411">
        <ele>712</ele>
        <time>2021-10-17T14:47:31Z</time>
      </trkpt>
      <trkpt lat="46.52713" lon="5.99406">
        <ele>712</ele>
        <time>2021-10-17T14:47:32Z</time>
      </trkpt>
      <trkpt lat="46.52708" lon="5.99399">
        <ele>712</ele>
        <time>2021-10-17T14:47:33Z</time>
      </trkpt>
      <trkpt lat="46.52703" lon="5.99392">
        <ele>711.8</ele>
        <time>2021-10-17T14:47:34Z</time>
      </trkpt>
      <trkpt lat="46.52699" lon="5.99384">
        <ele>711.8</ele>
        <time>2021-10-17T14:47:35Z</time>
      </trkpt>
      <trkpt lat="46.52694" lon="5.99377">
        <ele>711.8</ele>
        <time>2021-10-17T14:47:36Z</time>
      </trkpt>
      <trkpt lat="46.5269" lon="5.99369">
        <ele>711.8</ele>
        <time>2021-10-17T14:47:37Z</time>
      </trkpt>
      <trkpt lat="46.52687" lon="5.99361">
        <ele>711.4</ele>
        <time>2021-10-17T14:47:38Z</time>
      </trkpt>
      <trkpt lat="46.52683" lon="5.99353">
        <ele>711.4</ele>
        <time>2021-10-17T14:47:39Z</time>
      </trkpt>
      <trkpt lat="46.5268" lon="5.99346">
        <ele>711.4</ele>
        <time>2021-10-17T14:47:40Z</time>
      </trkpt>
      <trkpt lat="46.52678" lon="5.99339">
        <ele>711.4</ele>
        <time>2021-10-17T14:47:41Z</time>
      </trkpt>
      <trkpt lat="46.52676" lon="5.99332">
        <ele>711.2</ele>
        <time>2021-10-17T14:47:42Z</time>
      </trkpt>
      <trkpt lat="46.52673" lon="5.99325">
        <ele>711.2</ele>
        <time>2021-10-17T14:47:43Z</time>
      </trkpt>
      <trkpt lat="46.52671" lon="5.99316">
        <ele>711.2</ele>
        <time>2021-10-17T14:47:44Z</time>
      </trkpt>
      <trkpt lat="46.52669" lon="5.99307">
        <ele>711.2</ele>
        <time>2021-10-17T14:47:45Z</time>
      </trkpt>
      <trkpt lat="46.52667" lon="5.99298">
        <ele>711</ele>
        <time>2021-10-17T14:47:46Z</time>
      </trkpt>
      <trkpt lat="46.52664" lon="5.99289">
        <ele>711</ele>
        <time>2021-10-17T14:47:47Z</time>
      </trkpt>
      <trkpt lat="46.5266" lon="5.99281">
        <ele>711</ele>
        <time>2021-10-17T14:47:48Z</time>
      </trkpt>
      <trkpt lat="46.52654" lon="5.99274">
        <ele>711</ele>
        <time>2021-10-17T14:47:49Z</time>
      </trkpt>
      <trkpt lat="46.52648" lon="5.99268">
        <ele>711</ele>
        <time>2021-10-17T14:47:50Z</time>
      </trkpt>
      <trkpt lat="46.52641" lon="5.99263">
        <ele>710.8</ele>
        <time>2021-10-17T14:47:51Z</time>
      </trkpt>
      <trkpt lat="46.52635" lon="5.9926">
        <ele>710.8</ele>
        <time>2021-10-17T14:47:52Z</time>
      </trkpt>
      <trkpt lat="46.52628" lon="5.99258">
        <ele>710.8</ele>
        <time>2021-10-17T14:47:53Z</time>
      </trkpt>
      <trkpt lat="46.52621" lon="5.99255">
        <ele>710.8</ele>
        <time>2021-10-17T14:47:54Z</time>
      </trkpt>
      <trkpt lat="46.52614" lon="5.99251">
        <ele>710.8</ele>
        <time>2021-10-17T14:47:55Z</time>
      </trkpt>
      <trkpt lat="46.52608" lon="5.99247">
        <ele>710.8</ele>
        <time>2021-10-17T14:47:56Z</time>
      </trkpt>
      <trkpt lat="46.52601" lon="5.99244">
        <ele>710.4</ele>
        <time>2021-10-17T14:47:57Z</time>
      </trkpt>
      <trkpt lat="46.52594" lon="5.99241">
        <ele>710.4</ele>
        <time>2021-10-17T14:47:58Z</time>
      </trkpt>
      <trkpt lat="46.52587" lon="5.99239">
        <ele>710.4</ele>
        <time>2021-10-17T14:47:59Z</time>
      </trkpt>
      <trkpt lat="46.5258" lon="5.99237">
        <ele>710.2</ele>
        <time>2021-10-17T14:48:00Z</time>
      </trkpt>
      <trkpt lat="46.52573" lon="5.99236">
        <ele>710.2</ele>
        <time>2021-10-17T14:48:01Z</time>
      </trkpt>
      <trkpt lat="46.52567" lon="5.99236">
        <ele>710.2</ele>
        <time>2021-10-17T14:48:02Z</time>
      </trkpt>
      <trkpt lat="46.5256" lon="5.99235">
        <ele>710.2</ele>
        <time>2021-10-17T14:48:03Z</time>
      </trkpt>
      <trkpt lat="46.52553" lon="5.99235">
        <ele>710.2</ele>
        <time>2021-10-17T14:48:04Z</time>
      </trkpt>
      <trkpt lat="46.52546" lon="5.99234">
        <ele>710.2</ele>
        <time>2021-10-17T14:48:05Z</time>
      </trkpt>
      <trkpt lat="46.5254" lon="5.99234">
        <ele>710.2</ele>
        <time>2021-10-17T14:48:06Z</time>
      </trkpt>
      <trkpt lat="46.52533" lon="5.99234">
        <ele>710.2</ele>
        <time>2021-10-17T14:48:07Z</time>
      </trkpt>
      <trkpt lat="46.52526" lon="5.99235">
        <ele>710.2</ele>
        <time>2021-10-17T14:48:08Z</time>
      </trkpt>
      <trkpt lat="46.52518" lon="5.99237">
        <ele>710</ele>
        <time>2021-10-17T14:48:09Z</time>
      </trkpt>
      <trkpt lat="46.52511" lon="5.99239">
        <ele>710</ele>
        <time>2021-10-17T14:48:10Z</time>
      </trkpt>
      <trkpt lat="46.52504" lon="5.99241">
        <ele>709.8</ele>
        <time>2021-10-17T14:48:11Z</time>
      </trkpt>
      <trkpt lat="46.52497" lon="5.99242">
        <ele>709.8</ele>
        <time>2021-10-17T14:48:12Z</time>
      </trkpt>
      <trkpt lat="46.5249" lon="5.99243">
        <ele>709.4</ele>
        <time>2021-10-17T14:48:13Z</time>
      </trkpt>
      <trkpt lat="46.52483" lon="5.99243">
        <ele>709.2</ele>
        <time>2021-10-17T14:48:14Z</time>
      </trkpt>
      <trkpt lat="46.52483" lon="5.99243">
        <ele>709.2</ele>
        <time>2021-10-17T14:48:15Z</time>
      </trkpt>
      <trkpt lat="46.52471" lon="5.99242">
        <ele>709.2</ele>
        <time>2021-10-17T14:48:16Z</time>
      </trkpt>
      <trkpt lat="46.52466" lon="5.9924">
        <ele>709.2</ele>
        <time>2021-10-17T14:48:17Z</time>
      </trkpt>
      <trkpt lat="46.52462" lon="5.99238">
        <ele>709</ele>
        <time>2021-10-17T14:48:18Z</time>
      </trkpt>
      <trkpt lat="46.52457" lon="5.99232">
        <ele>709</ele>
        <time>2021-10-17T14:48:19Z</time>
      </trkpt>
      <trkpt lat="46.52453" lon="5.99226">
        <ele>709</ele>
        <time>2021-10-17T14:48:20Z</time>
      </trkpt>
      <trkpt lat="46.52449" lon="5.99219">
        <ele>709</ele>
        <time>2021-10-17T14:48:21Z</time>
      </trkpt>
      <trkpt lat="46.52446" lon="5.99212">
        <ele>709</ele>
        <time>2021-10-17T14:48:22Z</time>
      </trkpt>
      <trkpt lat="46.52443" lon="5.99206">
        <ele>709</ele>
        <time>2021-10-17T14:48:23Z</time>
      </trkpt>
      <trkpt lat="46.5244" lon="5.99199">
        <ele>709</ele>
        <time>2021-10-17T14:48:24Z</time>
      </trkpt>
      <trkpt lat="46.52437" lon="5.99192">
        <ele>709</ele>
        <time>2021-10-17T14:48:25Z</time>
      </trkpt>
      <trkpt lat="46.52434" lon="5.99185">
        <ele>709</ele>
        <time>2021-10-17T14:48:26Z</time>
      </trkpt>
      <trkpt lat="46.52432" lon="5.99178">
        <ele>709</ele>
        <time>2021-10-17T14:48:27Z</time>
      </trkpt>
      <trkpt lat="46.52429" lon="5.99171">
        <ele>709</ele>
        <time>2021-10-17T14:48:28Z</time>
      </trkpt>
      <trkpt lat="46.52429" lon="5.99171">
        <ele>708.8</ele>
        <time>2021-10-17T14:48:29Z</time>
      </trkpt>
      <trkpt lat="46.52427" lon="5.99162">
        <ele>708.8</ele>
        <time>2021-10-17T14:48:30Z</time>
      </trkpt>
      <trkpt lat="46.52425" lon="5.99154">
        <ele>708.8</ele>
        <time>2021-10-17T14:48:31Z</time>
      </trkpt>
      <trkpt lat="46.52423" lon="5.99147">
        <ele>708.8</ele>
        <time>2021-10-17T14:48:32Z</time>
      </trkpt>
      <trkpt lat="46.52421" lon="5.9914">
        <ele>708.6</ele>
        <time>2021-10-17T14:48:33Z</time>
      </trkpt>
      <trkpt lat="46.52419" lon="5.99133">
        <ele>708.6</ele>
        <time>2021-10-17T14:48:34Z</time>
      </trkpt>
      <trkpt lat="46.52417" lon="5.99125">
        <ele>708.6</ele>
        <time>2021-10-17T14:48:35Z</time>
      </trkpt>
      <trkpt lat="46.52415" lon="5.99118">
        <ele>708.6</ele>
        <time>2021-10-17T14:48:36Z</time>
      </trkpt>
      <trkpt lat="46.52413" lon="5.99109">
        <ele>708.6</ele>
        <time>2021-10-17T14:48:37Z</time>
      </trkpt>
      <trkpt lat="46.5241" lon="5.99102">
        <ele>708.6</ele>
        <time>2021-10-17T14:48:38Z</time>
      </trkpt>
      <trkpt lat="46.52408" lon="5.99094">
        <ele>708.8</ele>
        <time>2021-10-17T14:48:39Z</time>
      </trkpt>
      <trkpt lat="46.52407" lon="5.99086">
        <ele>708.8</ele>
        <time>2021-10-17T14:48:40Z</time>
      </trkpt>
      <trkpt lat="46.52405" lon="5.99079">
        <ele>708.8</ele>
        <time>2021-10-17T14:48:41Z</time>
      </trkpt>
      <trkpt lat="46.52404" lon="5.99072">
        <ele>708.8</ele>
        <time>2021-10-17T14:48:42Z</time>
      </trkpt>
      <trkpt lat="46.52402" lon="5.99065">
        <ele>708.8</ele>
        <time>2021-10-17T14:48:43Z</time>
      </trkpt>
      <trkpt lat="46.524" lon="5.99058">
        <ele>709</ele>
        <time>2021-10-17T14:48:44Z</time>
      </trkpt>
      <trkpt lat="46.52398" lon="5.99051">
        <ele>709</ele>
        <time>2021-10-17T14:48:45Z</time>
      </trkpt>
      <trkpt lat="46.52394" lon="5.99042">
        <ele>709</ele>
        <time>2021-10-17T14:48:46Z</time>
      </trkpt>
      <trkpt lat="46.5239" lon="5.99033">
        <ele>709</ele>
        <time>2021-10-17T14:48:47Z</time>
      </trkpt>
      <trkpt lat="46.52387" lon="5.99026">
        <ele>709.2</ele>
        <time>2021-10-17T14:48:48Z</time>
      </trkpt>
      <trkpt lat="46.52384" lon="5.99019">
        <ele>709.2</ele>
        <time>2021-10-17T14:48:49Z</time>
      </trkpt>
      <trkpt lat="46.52383" lon="5.99012">
        <ele>709.2</ele>
        <time>2021-10-17T14:48:50Z</time>
      </trkpt>
      <trkpt lat="46.52381" lon="5.99005">
        <ele>709.2</ele>
        <time>2021-10-17T14:48:51Z</time>
      </trkpt>
      <trkpt lat="46.5238" lon="5.98996">
        <ele>709.2</ele>
        <time>2021-10-17T14:48:52Z</time>
      </trkpt>
      <trkpt lat="46.5238" lon="5.98987">
        <ele>709.2</ele>
        <time>2021-10-17T14:48:53Z</time>
      </trkpt>
      <trkpt lat="46.52379" lon="5.98978">
        <ele>709.2</ele>
        <time>2021-10-17T14:48:54Z</time>
      </trkpt>
      <trkpt lat="46.52378" lon="5.98969">
        <ele>709.2</ele>
        <time>2021-10-17T14:48:55Z</time>
      </trkpt>
      <trkpt lat="46.52377" lon="5.98958">
        <ele>709.2</ele>
        <time>2021-10-17T14:48:56Z</time>
      </trkpt>
      <trkpt lat="46.52374" lon="5.98949">
        <ele>709.6</ele>
        <time>2021-10-17T14:48:57Z</time>
      </trkpt>
      <trkpt lat="46.52369" lon="5.98941">
        <ele>709.6</ele>
        <time>2021-10-17T14:48:58Z</time>
      </trkpt>
      <trkpt lat="46.52364" lon="5.98934">
        <ele>709.6</ele>
        <time>2021-10-17T14:48:59Z</time>
      </trkpt>
      <trkpt lat="46.52358" lon="5.98929">
        <ele>709.8</ele>
        <time>2021-10-17T14:49:00Z</time>
      </trkpt>
      <trkpt lat="46.52353" lon="5.98927">
        <ele>709.8</ele>
        <time>2021-10-17T14:49:01Z</time>
      </trkpt>
      <trkpt lat="46.52348" lon="5.98925">
        <ele>709.8</ele>
        <time>2021-10-17T14:49:02Z</time>
      </trkpt>
      <trkpt lat="46.52342" lon="5.98923">
        <ele>710.2</ele>
        <time>2021-10-17T14:49:03Z</time>
      </trkpt>
      <trkpt lat="46.52337" lon="5.98922">
        <ele>710.2</ele>
        <time>2021-10-17T14:49:04Z</time>
      </trkpt>
      <trkpt lat="46.52332" lon="5.98918">
        <ele>710.2</ele>
        <time>2021-10-17T14:49:05Z</time>
      </trkpt>
      <trkpt lat="46.52327" lon="5.98912">
        <ele>710.2</ele>
        <time>2021-10-17T14:49:06Z</time>
      </trkpt>
      <trkpt lat="46.52323" lon="5.98905">
        <ele>710.4</ele>
        <time>2021-10-17T14:49:07Z</time>
      </trkpt>
      <trkpt lat="46.52319" lon="5.98898">
        <ele>710.4</ele>
        <time>2021-10-17T14:49:08Z</time>
      </trkpt>
      <trkpt lat="46.52315" lon="5.98891">
        <ele>710.4</ele>
        <time>2021-10-17T14:49:09Z</time>
      </trkpt>
      <trkpt lat="46.52311" lon="5.98884">
        <ele>710.6</ele>
        <time>2021-10-17T14:49:10Z</time>
      </trkpt>
      <trkpt lat="46.52308" lon="5.98877">
        <ele>710.6</ele>
        <time>2021-10-17T14:49:11Z</time>
      </trkpt>
      <trkpt lat="46.52304" lon="5.9887">
        <ele>710.6</ele>
        <time>2021-10-17T14:49:12Z</time>
      </trkpt>
      <trkpt lat="46.52301" lon="5.98863">
        <ele>710.6</ele>
        <time>2021-10-17T14:49:13Z</time>
      </trkpt>
      <trkpt lat="46.52298" lon="5.98855">
        <ele>710.6</ele>
        <time>2021-10-17T14:49:14Z</time>
      </trkpt>
      <trkpt lat="46.52295" lon="5.98847">
        <ele>710.8</ele>
        <time>2021-10-17T14:49:15Z</time>
      </trkpt>
      <trkpt lat="46.52293" lon="5.98839">
        <ele>710.8</ele>
        <time>2021-10-17T14:49:16Z</time>
      </trkpt>
      <trkpt lat="46.5229" lon="5.98832">
        <ele>710.8</ele>
        <time>2021-10-17T14:49:17Z</time>
      </trkpt>
      <trkpt lat="46.52286" lon="5.98824">
        <ele>710.8</ele>
        <time>2021-10-17T14:49:18Z</time>
      </trkpt>
      <trkpt lat="46.52283" lon="5.98817">
        <ele>710.8</ele>
        <time>2021-10-17T14:49:19Z</time>
      </trkpt>
      <trkpt lat="46.5228" lon="5.98809">
        <ele>710.8</ele>
        <time>2021-10-17T14:49:20Z</time>
      </trkpt>
      <trkpt lat="46.52277" lon="5.988">
        <ele>710.8</ele>
        <time>2021-10-17T14:49:21Z</time>
      </trkpt>
      <trkpt lat="46.52274" lon="5.98792">
        <ele>711.2</ele>
        <time>2021-10-17T14:49:22Z</time>
      </trkpt>
      <trkpt lat="46.52271" lon="5.98784">
        <ele>711.2</ele>
        <time>2021-10-17T14:49:23Z</time>
      </trkpt>
      <trkpt lat="46.52268" lon="5.98776">
        <ele>711.2</ele>
        <time>2021-10-17T14:49:24Z</time>
      </trkpt>
      <trkpt lat="46.52265" lon="5.98768">
        <ele>711.4</ele>
        <time>2021-10-17T14:49:25Z</time>
      </trkpt>
      <trkpt lat="46.52261" lon="5.98761">
        <ele>711.4</ele>
        <time>2021-10-17T14:49:26Z</time>
      </trkpt>
      <trkpt lat="46.52258" lon="5.98753">
        <ele>711.4</ele>
        <time>2021-10-17T14:49:27Z</time>
      </trkpt>
      <trkpt lat="46.52254" lon="5.98746">
        <ele>711.4</ele>
        <time>2021-10-17T14:49:28Z</time>
      </trkpt>
      <trkpt lat="46.5225" lon="5.98738">
        <ele>711.6</ele>
        <time>2021-10-17T14:49:29Z</time>
      </trkpt>
      <trkpt lat="46.52246" lon="5.98731">
        <ele>711.6</ele>
        <time>2021-10-17T14:49:30Z</time>
      </trkpt>
      <trkpt lat="46.52243" lon="5.98723">
        <ele>711.6</ele>
        <time>2021-10-17T14:49:31Z</time>
      </trkpt>
      <trkpt lat="46.52238" lon="5.98716">
        <ele>711.6</ele>
        <time>2021-10-17T14:49:32Z</time>
      </trkpt>
      <trkpt lat="46.52235" lon="5.98709">
        <ele>711.6</ele>
        <time>2021-10-17T14:49:33Z</time>
      </trkpt>
      <trkpt lat="46.52231" lon="5.98701">
        <ele>711.6</ele>
        <time>2021-10-17T14:49:34Z</time>
      </trkpt>
      <trkpt lat="46.52227" lon="5.98693">
        <ele>711.6</ele>
        <time>2021-10-17T14:49:35Z</time>
      </trkpt>
      <trkpt lat="46.52224" lon="5.98685">
        <ele>711.6</ele>
        <time>2021-10-17T14:49:36Z</time>
      </trkpt>
      <trkpt lat="46.5222" lon="5.98677">
        <ele>711.6</ele>
        <time>2021-10-17T14:49:37Z</time>
      </trkpt>
      <trkpt lat="46.52218" lon="5.98669">
        <ele>711.6</ele>
        <time>2021-10-17T14:49:38Z</time>
      </trkpt>
      <trkpt lat="46.52215" lon="5.9866">
        <ele>711.6</ele>
        <time>2021-10-17T14:49:39Z</time>
      </trkpt>
      <trkpt lat="46.52213" lon="5.98652">
        <ele>711.6</ele>
        <time>2021-10-17T14:49:40Z</time>
      </trkpt>
      <trkpt lat="46.52212" lon="5.98644">
        <ele>711.6</ele>
        <time>2021-10-17T14:49:41Z</time>
      </trkpt>
      <trkpt lat="46.5221" lon="5.98635">
        <ele>711.6</ele>
        <time>2021-10-17T14:49:42Z</time>
      </trkpt>
      <trkpt lat="46.52208" lon="5.98626">
        <ele>711.6</ele>
        <time>2021-10-17T14:49:43Z</time>
      </trkpt>
      <trkpt lat="46.52205" lon="5.98616">
        <ele>711.2</ele>
        <time>2021-10-17T14:49:44Z</time>
      </trkpt>
      <trkpt lat="46.52202" lon="5.98607">
        <ele>711.2</ele>
        <time>2021-10-17T14:49:45Z</time>
      </trkpt>
      <trkpt lat="46.52198" lon="5.98599">
        <ele>711.2</ele>
        <time>2021-10-17T14:49:46Z</time>
      </trkpt>
      <trkpt lat="46.52194" lon="5.98591">
        <ele>711.2</ele>
        <time>2021-10-17T14:49:47Z</time>
      </trkpt>
      <trkpt lat="46.52189" lon="5.98583">
        <ele>711.2</ele>
        <time>2021-10-17T14:49:48Z</time>
      </trkpt>
      <trkpt lat="46.52184" lon="5.98575">
        <ele>711</ele>
        <time>2021-10-17T14:49:49Z</time>
      </trkpt>
      <trkpt lat="46.52179" lon="5.98567">
        <ele>711</ele>
        <time>2021-10-17T14:49:50Z</time>
      </trkpt>
      <trkpt lat="46.52174" lon="5.98559">
        <ele>711</ele>
        <time>2021-10-17T14:49:51Z</time>
      </trkpt>
      <trkpt lat="46.5217" lon="5.98552">
        <ele>711</ele>
        <time>2021-10-17T14:49:52Z</time>
      </trkpt>
      <trkpt lat="46.52165" lon="5.98544">
        <ele>710.8</ele>
        <time>2021-10-17T14:49:53Z</time>
      </trkpt>
      <trkpt lat="46.52161" lon="5.98536">
        <ele>710.8</ele>
        <time>2021-10-17T14:49:54Z</time>
      </trkpt>
      <trkpt lat="46.52157" lon="5.98527">
        <ele>710.8</ele>
        <time>2021-10-17T14:49:55Z</time>
      </trkpt>
      <trkpt lat="46.52153" lon="5.98518">
        <ele>710.4</ele>
        <time>2021-10-17T14:49:56Z</time>
      </trkpt>
      <trkpt lat="46.5215" lon="5.98509">
        <ele>710.4</ele>
        <time>2021-10-17T14:49:57Z</time>
      </trkpt>
      <trkpt lat="46.52147" lon="5.985">
        <ele>710.4</ele>
        <time>2021-10-17T14:49:58Z</time>
      </trkpt>
      <trkpt lat="46.52145" lon="5.98491">
        <ele>710.4</ele>
        <time>2021-10-17T14:49:59Z</time>
      </trkpt>
      <trkpt lat="46.52143" lon="5.98482">
        <ele>710.2</ele>
        <time>2021-10-17T14:50:00Z</time>
      </trkpt>
      <trkpt lat="46.52141" lon="5.98473">
        <ele>710.2</ele>
        <time>2021-10-17T14:50:01Z</time>
      </trkpt>
      <trkpt lat="46.5214" lon="5.98464">
        <ele>710.2</ele>
        <time>2021-10-17T14:50:02Z</time>
      </trkpt>
      <trkpt lat="46.52139" lon="5.98455">
        <ele>710</ele>
        <time>2021-10-17T14:50:03Z</time>
      </trkpt>
      <trkpt lat="46.52138" lon="5.98448">
        <ele>710</ele>
        <time>2021-10-17T14:50:04Z</time>
      </trkpt>
      <trkpt lat="46.52138" lon="5.98441">
        <ele>710</ele>
        <time>2021-10-17T14:50:05Z</time>
      </trkpt>
      <trkpt lat="46.52139" lon="5.98435">
        <ele>710</ele>
        <time>2021-10-17T14:50:06Z</time>
      </trkpt>
      <trkpt lat="46.52141" lon="5.98429">
        <ele>710</ele>
        <time>2021-10-17T14:50:07Z</time>
      </trkpt>
      <trkpt lat="46.52143" lon="5.98424">
        <ele>710</ele>
        <time>2021-10-17T14:50:08Z</time>
      </trkpt>
      <trkpt lat="46.52144" lon="5.9842">
        <ele>710</ele>
        <time>2021-10-17T14:50:09Z</time>
      </trkpt>
      <trkpt lat="46.52145" lon="5.98416">
        <ele>710.2</ele>
        <time>2021-10-17T14:50:10Z</time>
      </trkpt>
      <trkpt lat="46.52145" lon="5.98411">
        <ele>710.2</ele>
        <time>2021-10-17T14:50:11Z</time>
      </trkpt>
      <trkpt lat="46.52144" lon="5.98407">
        <ele>710.6</ele>
        <time>2021-10-17T14:50:12Z</time>
      </trkpt>
      <trkpt lat="46.52143" lon="5.98403">
        <ele>710.8</ele>
        <time>2021-10-17T14:50:13Z</time>
      </trkpt>
      <trkpt lat="46.5214" lon="5.98399">
        <ele>710.8</ele>
        <time>2021-10-17T14:50:14Z</time>
      </trkpt>
      <trkpt lat="46.52138" lon="5.98397">
        <ele>711</ele>
        <time>2021-10-17T14:50:15Z</time>
      </trkpt>
      <trkpt lat="46.52134" lon="5.98395">
        <ele>711</ele>
        <time>2021-10-17T14:50:16Z</time>
      </trkpt>
      <trkpt lat="46.5213" lon="5.98395">
        <ele>711</ele>
        <time>2021-10-17T14:50:17Z</time>
      </trkpt>
      <trkpt lat="46.52126" lon="5.98396">
        <ele>710.8</ele>
        <time>2021-10-17T14:50:18Z</time>
      </trkpt>
      <trkpt lat="46.52121" lon="5.98399">
        <ele>710.6</ele>
        <time>2021-10-17T14:50:19Z</time>
      </trkpt>
      <trkpt lat="46.52116" lon="5.98401">
        <ele>710.2</ele>
        <time>2021-10-17T14:50:20Z</time>
      </trkpt>
      <trkpt lat="46.52111" lon="5.98402">
        <ele>710</ele>
        <time>2021-10-17T14:50:21Z</time>
      </trkpt>
      <trkpt lat="46.52105" lon="5.98401">
        <ele>709.8</ele>
        <time>2021-10-17T14:50:22Z</time>
      </trkpt>
      <trkpt lat="46.52099" lon="5.98398">
        <ele>709.8</ele>
        <time>2021-10-17T14:50:23Z</time>
      </trkpt>
      <trkpt lat="46.52093" lon="5.98394">
        <ele>709.4</ele>
        <time>2021-10-17T14:50:24Z</time>
      </trkpt>
      <trkpt lat="46.52088" lon="5.9839">
        <ele>709.4</ele>
        <time>2021-10-17T14:50:25Z</time>
      </trkpt>
      <trkpt lat="46.52082" lon="5.98385">
        <ele>709.2</ele>
        <time>2021-10-17T14:50:26Z</time>
      </trkpt>
      <trkpt lat="46.52077" lon="5.98381">
        <ele>709.2</ele>
        <time>2021-10-17T14:50:27Z</time>
      </trkpt>
      <trkpt lat="46.52073" lon="5.98375">
        <ele>709.2</ele>
        <time>2021-10-17T14:50:28Z</time>
      </trkpt>
      <trkpt lat="46.52068" lon="5.98368">
        <ele>708.8</ele>
        <time>2021-10-17T14:50:29Z</time>
      </trkpt>
      <trkpt lat="46.52062" lon="5.98361">
        <ele>708.8</ele>
        <time>2021-10-17T14:50:30Z</time>
      </trkpt>
      <trkpt lat="46.52058" lon="5.98353">
        <ele>708.6</ele>
        <time>2021-10-17T14:50:31Z</time>
      </trkpt>
      <trkpt lat="46.52054" lon="5.98346">
        <ele>708.6</ele>
        <time>2021-10-17T14:50:32Z</time>
      </trkpt>
      <trkpt lat="46.5205" lon="5.98339">
        <ele>708.6</ele>
        <time>2021-10-17T14:50:33Z</time>
      </trkpt>
      <trkpt lat="46.52046" lon="5.9833">
        <ele>708.4</ele>
        <time>2021-10-17T14:50:34Z</time>
      </trkpt>
      <trkpt lat="46.52042" lon="5.98322">
        <ele>708.4</ele>
        <time>2021-10-17T14:50:35Z</time>
      </trkpt>
      <trkpt lat="46.52037" lon="5.98316">
        <ele>708</ele>
        <time>2021-10-17T14:50:36Z</time>
      </trkpt>
      <trkpt lat="46.52031" lon="5.98311">
        <ele>708</ele>
        <time>2021-10-17T14:50:37Z</time>
      </trkpt>
      <trkpt lat="46.52026" lon="5.98307">
        <ele>708</ele>
        <time>2021-10-17T14:50:38Z</time>
      </trkpt>
      <trkpt lat="46.52019" lon="5.98305">
        <ele>708</ele>
        <time>2021-10-17T14:50:39Z</time>
      </trkpt>
      <trkpt lat="46.52013" lon="5.98303">
        <ele>707.8</ele>
        <time>2021-10-17T14:50:40Z</time>
      </trkpt>
      <trkpt lat="46.52006" lon="5.98301">
        <ele>707.8</ele>
        <time>2021-10-17T14:50:41Z</time>
      </trkpt>
      <trkpt lat="46.51999" lon="5.98299">
        <ele>707.8</ele>
        <time>2021-10-17T14:50:42Z</time>
      </trkpt>
      <trkpt lat="46.51992" lon="5.98297">
        <ele>707.8</ele>
        <time>2021-10-17T14:50:43Z</time>
      </trkpt>
      <trkpt lat="46.51986" lon="5.98294">
        <ele>707.8</ele>
        <time>2021-10-17T14:50:44Z</time>
      </trkpt>
      <trkpt lat="46.51979" lon="5.98291">
        <ele>707.6</ele>
        <time>2021-10-17T14:50:45Z</time>
      </trkpt>
      <trkpt lat="46.51972" lon="5.98288">
        <ele>707.6</ele>
        <time>2021-10-17T14:50:46Z</time>
      </trkpt>
      <trkpt lat="46.51966" lon="5.98285">
        <ele>707.6</ele>
        <time>2021-10-17T14:50:47Z</time>
      </trkpt>
      <trkpt lat="46.5196" lon="5.98281">
        <ele>707.4</ele>
        <time>2021-10-17T14:50:48Z</time>
      </trkpt>
      <trkpt lat="46.51954" lon="5.98277">
        <ele>707.4</ele>
        <time>2021-10-17T14:50:49Z</time>
      </trkpt>
      <trkpt lat="46.51948" lon="5.98273">
        <ele>707.4</ele>
        <time>2021-10-17T14:50:50Z</time>
      </trkpt>
      <trkpt lat="46.51942" lon="5.98269">
        <ele>707.2</ele>
        <time>2021-10-17T14:50:51Z</time>
      </trkpt>
      <trkpt lat="46.51935" lon="5.98265">
        <ele>707.2</ele>
        <time>2021-10-17T14:50:52Z</time>
      </trkpt>
      <trkpt lat="46.51929" lon="5.98261">
        <ele>707.2</ele>
        <time>2021-10-17T14:50:53Z</time>
      </trkpt>
      <trkpt lat="46.51923" lon="5.98257">
        <ele>707.2</ele>
        <time>2021-10-17T14:50:54Z</time>
      </trkpt>
      <trkpt lat="46.51917" lon="5.98254">
        <ele>706.8</ele>
        <time>2021-10-17T14:50:55Z</time>
      </trkpt>
      <trkpt lat="46.51911" lon="5.9825">
        <ele>706.8</ele>
        <time>2021-10-17T14:50:56Z</time>
      </trkpt>
      <trkpt lat="46.51905" lon="5.98246">
        <ele>706.6</ele>
        <time>2021-10-17T14:50:57Z</time>
      </trkpt>
      <trkpt lat="46.519" lon="5.98242">
        <ele>706.6</ele>
        <time>2021-10-17T14:50:58Z</time>
      </trkpt>
      <trkpt lat="46.51894" lon="5.98237">
        <ele>706.6</ele>
        <time>2021-10-17T14:50:59Z</time>
      </trkpt>
      <trkpt lat="46.51889" lon="5.98232">
        <ele>706.4</ele>
        <time>2021-10-17T14:51:00Z</time>
      </trkpt>
      <trkpt lat="46.51884" lon="5.98227">
        <ele>706.4</ele>
        <time>2021-10-17T14:51:01Z</time>
      </trkpt>
      <trkpt lat="46.51879" lon="5.98222">
        <ele>706.4</ele>
        <time>2021-10-17T14:51:02Z</time>
      </trkpt>
      <trkpt lat="46.51873" lon="5.98217">
        <ele>706.4</ele>
        <time>2021-10-17T14:51:03Z</time>
      </trkpt>
      <trkpt lat="46.51868" lon="5.98212">
        <ele>706.4</ele>
        <time>2021-10-17T14:51:04Z</time>
      </trkpt>
      <trkpt lat="46.51863" lon="5.98208">
        <ele>706.4</ele>
        <time>2021-10-17T14:51:05Z</time>
      </trkpt>
      <trkpt lat="46.51858" lon="5.98203">
        <ele>706.4</ele>
        <time>2021-10-17T14:51:06Z</time>
      </trkpt>
      <trkpt lat="46.51852" lon="5.98199">
        <ele>706.4</ele>
        <time>2021-10-17T14:51:07Z</time>
      </trkpt>
      <trkpt lat="46.51847" lon="5.98195">
        <ele>706.4</ele>
        <time>2021-10-17T14:51:08Z</time>
      </trkpt>
      <trkpt lat="46.51842" lon="5.9819">
        <ele>706.4</ele>
        <time>2021-10-17T14:51:09Z</time>
      </trkpt>
      <trkpt lat="46.51837" lon="5.98186">
        <ele>706.4</ele>
        <time>2021-10-17T14:51:10Z</time>
      </trkpt>
      <trkpt lat="46.51831" lon="5.98182">
        <ele>706.6</ele>
        <time>2021-10-17T14:51:11Z</time>
      </trkpt>
      <trkpt lat="46.51826" lon="5.98178">
        <ele>706.6</ele>
        <time>2021-10-17T14:51:12Z</time>
      </trkpt>
      <trkpt lat="46.5182" lon="5.98174">
        <ele>706.6</ele>
        <time>2021-10-17T14:51:13Z</time>
      </trkpt>
      <trkpt lat="46.51815" lon="5.9817">
        <ele>706.6</ele>
        <time>2021-10-17T14:51:14Z</time>
      </trkpt>
      <trkpt lat="46.5181" lon="5.98166">
        <ele>706.6</ele>
        <time>2021-10-17T14:51:15Z</time>
      </trkpt>
      <trkpt lat="46.51805" lon="5.98163">
        <ele>706.8</ele>
        <time>2021-10-17T14:51:16Z</time>
      </trkpt>
      <trkpt lat="46.51799" lon="5.98159">
        <ele>706.8</ele>
        <time>2021-10-17T14:51:17Z</time>
      </trkpt>
      <trkpt lat="46.51794" lon="5.98156">
        <ele>707.2</ele>
        <time>2021-10-17T14:51:18Z</time>
      </trkpt>
      <trkpt lat="46.51789" lon="5.98152">
        <ele>707.2</ele>
        <time>2021-10-17T14:51:19Z</time>
      </trkpt>
      <trkpt lat="46.51785" lon="5.98149">
        <ele>707.4</ele>
        <time>2021-10-17T14:51:20Z</time>
      </trkpt>
      <trkpt lat="46.5178" lon="5.98145">
        <ele>707.4</ele>
        <time>2021-10-17T14:51:21Z</time>
      </trkpt>
      <trkpt lat="46.51775" lon="5.98142">
        <ele>707.4</ele>
        <time>2021-10-17T14:51:22Z</time>
      </trkpt>
      <trkpt lat="46.51771" lon="5.98139">
        <ele>707.6</ele>
        <time>2021-10-17T14:51:23Z</time>
      </trkpt>
      <trkpt lat="46.51768" lon="5.98134">
        <ele>707.6</ele>
        <time>2021-10-17T14:51:24Z</time>
      </trkpt>
      <trkpt lat="46.51765" lon="5.98128">
        <ele>708</ele>
        <time>2021-10-17T14:51:25Z</time>
      </trkpt>
      <trkpt lat="46.51763" lon="5.98122">
        <ele>708</ele>
        <time>2021-10-17T14:51:26Z</time>
      </trkpt>
      <trkpt lat="46.51761" lon="5.98115">
        <ele>708.2</ele>
        <time>2021-10-17T14:51:27Z</time>
      </trkpt>
      <trkpt lat="46.5176" lon="5.98107">
        <ele>708.2</ele>
        <time>2021-10-17T14:51:28Z</time>
      </trkpt>
      <trkpt lat="46.51758" lon="5.981">
        <ele>708.6</ele>
        <time>2021-10-17T14:51:29Z</time>
      </trkpt>
      <trkpt lat="46.51756" lon="5.98092">
        <ele>708.6</ele>
        <time>2021-10-17T14:51:30Z</time>
      </trkpt>
      <trkpt lat="46.51754" lon="5.98085">
        <ele>708.6</ele>
        <time>2021-10-17T14:51:31Z</time>
      </trkpt>
      <trkpt lat="46.51752" lon="5.98079">
        <ele>708.8</ele>
        <time>2021-10-17T14:51:32Z</time>
      </trkpt>
      <trkpt lat="46.5175" lon="5.98072">
        <ele>708.8</ele>
        <time>2021-10-17T14:51:33Z</time>
      </trkpt>
      <trkpt lat="46.51748" lon="5.98064">
        <ele>709</ele>
        <time>2021-10-17T14:51:34Z</time>
      </trkpt>
      <trkpt lat="46.51745" lon="5.98057">
        <ele>709</ele>
        <time>2021-10-17T14:51:35Z</time>
      </trkpt>
      <trkpt lat="46.51743" lon="5.98049">
        <ele>709</ele>
        <time>2021-10-17T14:51:36Z</time>
      </trkpt>
      <trkpt lat="46.51741" lon="5.98043">
        <ele>709</ele>
        <time>2021-10-17T14:51:37Z</time>
      </trkpt>
      <trkpt lat="46.5174" lon="5.98037">
        <ele>709.2</ele>
        <time>2021-10-17T14:51:38Z</time>
      </trkpt>
      <trkpt lat="46.51738" lon="5.9803">
        <ele>709.2</ele>
        <time>2021-10-17T14:51:39Z</time>
      </trkpt>
      <trkpt lat="46.51736" lon="5.98023">
        <ele>709.2</ele>
        <time>2021-10-17T14:51:40Z</time>
      </trkpt>
      <trkpt lat="46.51734" lon="5.98015">
        <ele>709.6</ele>
        <time>2021-10-17T14:51:41Z</time>
      </trkpt>
      <trkpt lat="46.51732" lon="5.98009">
        <ele>709.6</ele>
        <time>2021-10-17T14:51:42Z</time>
      </trkpt>
      <trkpt lat="46.5173" lon="5.98002">
        <ele>709.6</ele>
        <time>2021-10-17T14:51:43Z</time>
      </trkpt>
      <trkpt lat="46.51728" lon="5.97995">
        <ele>709.8</ele>
        <time>2021-10-17T14:51:44Z</time>
      </trkpt>
      <trkpt lat="46.51726" lon="5.97988">
        <ele>709.8</ele>
        <time>2021-10-17T14:51:45Z</time>
      </trkpt>
      <trkpt lat="46.51725" lon="5.97981">
        <ele>709.8</ele>
        <time>2021-10-17T14:51:46Z</time>
      </trkpt>
      <trkpt lat="46.51723" lon="5.97974">
        <ele>709.8</ele>
        <time>2021-10-17T14:51:47Z</time>
      </trkpt>
      <trkpt lat="46.51722" lon="5.97967">
        <ele>710</ele>
        <time>2021-10-17T14:51:48Z</time>
      </trkpt>
      <trkpt lat="46.51721" lon="5.97958">
        <ele>710</ele>
        <time>2021-10-17T14:51:49Z</time>
      </trkpt>
      <trkpt lat="46.51721" lon="5.9795">
        <ele>710</ele>
        <time>2021-10-17T14:51:50Z</time>
      </trkpt>
      <trkpt lat="46.51721" lon="5.9794">
        <ele>710.2</ele>
        <time>2021-10-17T14:51:51Z</time>
      </trkpt>
      <trkpt lat="46.51723" lon="5.97932">
        <ele>710.2</ele>
        <time>2021-10-17T14:51:52Z</time>
      </trkpt>
      <trkpt lat="46.51724" lon="5.97923">
        <ele>710.2</ele>
        <time>2021-10-17T14:51:53Z</time>
      </trkpt>
      <trkpt lat="46.51724" lon="5.97915">
        <ele>710.4</ele>
        <time>2021-10-17T14:51:54Z</time>
      </trkpt>
      <trkpt lat="46.51724" lon="5.97906">
        <ele>710.4</ele>
        <time>2021-10-17T14:51:55Z</time>
      </trkpt>
      <trkpt lat="46.51722" lon="5.97898">
        <ele>710.6</ele>
        <time>2021-10-17T14:51:56Z</time>
      </trkpt>
      <trkpt lat="46.51718" lon="5.9789">
        <ele>710.6</ele>
        <time>2021-10-17T14:51:57Z</time>
      </trkpt>
      <trkpt lat="46.51714" lon="5.97884">
        <ele>710.6</ele>
        <time>2021-10-17T14:51:58Z</time>
      </trkpt>
      <trkpt lat="46.5171" lon="5.97877">
        <ele>710.6</ele>
        <time>2021-10-17T14:51:59Z</time>
      </trkpt>
      <trkpt lat="46.51707" lon="5.97871">
        <ele>711</ele>
        <time>2021-10-17T14:52:00Z</time>
      </trkpt>
      <trkpt lat="46.51703" lon="5.97864">
        <ele>711</ele>
        <time>2021-10-17T14:52:01Z</time>
      </trkpt>
      <trkpt lat="46.517" lon="5.97857">
        <ele>711.2</ele>
        <time>2021-10-17T14:52:02Z</time>
      </trkpt>
      <trkpt lat="46.51698" lon="5.9785">
        <ele>711.2</ele>
        <time>2021-10-17T14:52:03Z</time>
      </trkpt>
      <trkpt lat="46.51697" lon="5.97842">
        <ele>711.2</ele>
        <time>2021-10-17T14:52:04Z</time>
      </trkpt>
      <trkpt lat="46.51696" lon="5.97834">
        <ele>711.2</ele>
        <time>2021-10-17T14:52:05Z</time>
      </trkpt>
      <trkpt lat="46.51695" lon="5.97826">
        <ele>711.4</ele>
        <time>2021-10-17T14:52:06Z</time>
      </trkpt>
      <trkpt lat="46.51695" lon="5.97817">
        <ele>711.4</ele>
        <time>2021-10-17T14:52:07Z</time>
      </trkpt>
      <trkpt lat="46.51695" lon="5.97809">
        <ele>711.4</ele>
        <time>2021-10-17T14:52:08Z</time>
      </trkpt>
      <trkpt lat="46.51696" lon="5.97801">
        <ele>711.8</ele>
        <time>2021-10-17T14:52:09Z</time>
      </trkpt>
      <trkpt lat="46.51697" lon="5.97793">
        <ele>711.8</ele>
        <time>2021-10-17T14:52:10Z</time>
      </trkpt>
      <trkpt lat="46.51698" lon="5.97785">
        <ele>711.8</ele>
        <time>2021-10-17T14:52:11Z</time>
      </trkpt>
      <trkpt lat="46.51699" lon="5.97776">
        <ele>712</ele>
        <time>2021-10-17T14:52:12Z</time>
      </trkpt>
      <trkpt lat="46.517" lon="5.97768">
        <ele>712</ele>
        <time>2021-10-17T14:52:13Z</time>
      </trkpt>
      <trkpt lat="46.51702" lon="5.9776">
        <ele>712.4</ele>
        <time>2021-10-17T14:52:14Z</time>
      </trkpt>
      <trkpt lat="46.51703" lon="5.97753">
        <ele>712.4</ele>
        <time>2021-10-17T14:52:15Z</time>
      </trkpt>
      <trkpt lat="46.51704" lon="5.97745">
        <ele>712.4</ele>
        <time>2021-10-17T14:52:16Z</time>
      </trkpt>
      <trkpt lat="46.51705" lon="5.97738">
        <ele>712.4</ele>
        <time>2021-10-17T14:52:17Z</time>
      </trkpt>
      <trkpt lat="46.51706" lon="5.97731">
        <ele>712.4</ele>
        <time>2021-10-17T14:52:18Z</time>
      </trkpt>
      <trkpt lat="46.51708" lon="5.97723">
        <ele>712.6</ele>
        <time>2021-10-17T14:52:19Z</time>
      </trkpt>
      <trkpt lat="46.51709" lon="5.97716">
        <ele>712.6</ele>
        <time>2021-10-17T14:52:20Z</time>
      </trkpt>
      <trkpt lat="46.5171" lon="5.97708">
        <ele>712.6</ele>
        <time>2021-10-17T14:52:21Z</time>
      </trkpt>
      <trkpt lat="46.51711" lon="5.977">
        <ele>712.6</ele>
        <time>2021-10-17T14:52:22Z</time>
      </trkpt>
      <trkpt lat="46.51713" lon="5.97692">
        <ele>712.6</ele>
        <time>2021-10-17T14:52:23Z</time>
      </trkpt>
      <trkpt lat="46.51714" lon="5.97684">
        <ele>712.6</ele>
        <time>2021-10-17T14:52:24Z</time>
      </trkpt>
      <trkpt lat="46.51716" lon="5.97677">
        <ele>712.6</ele>
        <time>2021-10-17T14:52:25Z</time>
      </trkpt>
      <trkpt lat="46.51717" lon="5.9767">
        <ele>712.8</ele>
        <time>2021-10-17T14:52:26Z</time>
      </trkpt>
      <trkpt lat="46.51719" lon="5.97662">
        <ele>712.8</ele>
        <time>2021-10-17T14:52:27Z</time>
      </trkpt>
      <trkpt lat="46.5172" lon="5.97655">
        <ele>712.8</ele>
        <time>2021-10-17T14:52:28Z</time>
      </trkpt>
      <trkpt lat="46.51722" lon="5.97647">
        <ele>713</ele>
        <time>2021-10-17T14:52:29Z</time>
      </trkpt>
      <trkpt lat="46.51723" lon="5.9764">
        <ele>713</ele>
        <time>2021-10-17T14:52:30Z</time>
      </trkpt>
      <trkpt lat="46.51725" lon="5.97632">
        <ele>713</ele>
        <time>2021-10-17T14:52:31Z</time>
      </trkpt>
      <trkpt lat="46.51726" lon="5.97624">
        <ele>713.2</ele>
        <time>2021-10-17T14:52:32Z</time>
      </trkpt>
      <trkpt lat="46.51727" lon="5.97616">
        <ele>713.2</ele>
        <time>2021-10-17T14:52:33Z</time>
      </trkpt>
      <trkpt lat="46.51728" lon="5.97608">
        <ele>713.4</ele>
        <time>2021-10-17T14:52:34Z</time>
      </trkpt>
      <trkpt lat="46.51728" lon="5.97601">
        <ele>713.4</ele>
        <time>2021-10-17T14:52:35Z</time>
      </trkpt>
      <trkpt lat="46.51729" lon="5.97592">
        <ele>713.4</ele>
        <time>2021-10-17T14:52:36Z</time>
      </trkpt>
      <trkpt lat="46.5173" lon="5.97584">
        <ele>713.4</ele>
        <time>2021-10-17T14:52:37Z</time>
      </trkpt>
      <trkpt lat="46.51731" lon="5.97576">
        <ele>713.4</ele>
        <time>2021-10-17T14:52:38Z</time>
      </trkpt>
      <trkpt lat="46.51731" lon="5.97568">
        <ele>713.6</ele>
        <time>2021-10-17T14:52:39Z</time>
      </trkpt>
      <trkpt lat="46.51732" lon="5.9756">
        <ele>713.6</ele>
        <time>2021-10-17T14:52:40Z</time>
      </trkpt>
      <trkpt lat="46.51733" lon="5.97552">
        <ele>713.6</ele>
        <time>2021-10-17T14:52:41Z</time>
      </trkpt>
      <trkpt lat="46.51733" lon="5.97543">
        <ele>713.6</ele>
        <time>2021-10-17T14:52:42Z</time>
      </trkpt>
      <trkpt lat="46.51733" lon="5.97535">
        <ele>713.6</ele>
        <time>2021-10-17T14:52:43Z</time>
      </trkpt>
      <trkpt lat="46.51732" lon="5.97527">
        <ele>713.6</ele>
        <time>2021-10-17T14:52:44Z</time>
      </trkpt>
      <trkpt lat="46.51731" lon="5.97518">
        <ele>713.6</ele>
        <time>2021-10-17T14:52:45Z</time>
      </trkpt>
      <trkpt lat="46.51729" lon="5.9751">
        <ele>713.6</ele>
        <time>2021-10-17T14:52:46Z</time>
      </trkpt>
      <trkpt lat="46.51728" lon="5.97501">
        <ele>713.6</ele>
        <time>2021-10-17T14:52:47Z</time>
      </trkpt>
      <trkpt lat="46.51726" lon="5.97493">
        <ele>713.6</ele>
        <time>2021-10-17T14:52:48Z</time>
      </trkpt>
      <trkpt lat="46.51724" lon="5.97484">
        <ele>713.6</ele>
        <time>2021-10-17T14:52:49Z</time>
      </trkpt>
      <trkpt lat="46.51721" lon="5.97476">
        <ele>713.6</ele>
        <time>2021-10-17T14:52:50Z</time>
      </trkpt>
      <trkpt lat="46.51717" lon="5.97468">
        <ele>713.6</ele>
        <time>2021-10-17T14:52:51Z</time>
      </trkpt>
      <trkpt lat="46.51713" lon="5.97461">
        <ele>713.6</ele>
        <time>2021-10-17T14:52:52Z</time>
      </trkpt>
      <trkpt lat="46.51709" lon="5.97453">
        <ele>713.6</ele>
        <time>2021-10-17T14:52:53Z</time>
      </trkpt>
      <trkpt lat="46.51705" lon="5.97445">
        <ele>713.4</ele>
        <time>2021-10-17T14:52:54Z</time>
      </trkpt>
      <trkpt lat="46.51702" lon="5.97437">
        <ele>713.4</ele>
        <time>2021-10-17T14:52:55Z</time>
      </trkpt>
      <trkpt lat="46.51699" lon="5.97428">
        <ele>713.4</ele>
        <time>2021-10-17T14:52:56Z</time>
      </trkpt>
      <trkpt lat="46.51696" lon="5.97418">
        <ele>713.4</ele>
        <time>2021-10-17T14:52:57Z</time>
      </trkpt>
      <trkpt lat="46.51692" lon="5.97409">
        <ele>713</ele>
        <time>2021-10-17T14:52:58Z</time>
      </trkpt>
      <trkpt lat="46.51688" lon="5.974">
        <ele>713</ele>
        <time>2021-10-17T14:52:59Z</time>
      </trkpt>
      <trkpt lat="46.51684" lon="5.97392">
        <ele>713</ele>
        <time>2021-10-17T14:53:00Z</time>
      </trkpt>
      <trkpt lat="46.51679" lon="5.97384">
        <ele>712.8</ele>
        <time>2021-10-17T14:53:01Z</time>
      </trkpt>
      <trkpt lat="46.51674" lon="5.97376">
        <ele>712.8</ele>
        <time>2021-10-17T14:53:02Z</time>
      </trkpt>
      <trkpt lat="46.51669" lon="5.97368">
        <ele>712.8</ele>
        <time>2021-10-17T14:53:03Z</time>
      </trkpt>
      <trkpt lat="46.51665" lon="5.97361">
        <ele>712.6</ele>
        <time>2021-10-17T14:53:04Z</time>
      </trkpt>
      <trkpt lat="46.5166" lon="5.97353">
        <ele>712.6</ele>
        <time>2021-10-17T14:53:05Z</time>
      </trkpt>
      <trkpt lat="46.51655" lon="5.97346">
        <ele>712.2</ele>
        <time>2021-10-17T14:53:06Z</time>
      </trkpt>
      <trkpt lat="46.5165" lon="5.9734">
        <ele>712.2</ele>
        <time>2021-10-17T14:53:07Z</time>
      </trkpt>
      <trkpt lat="46.51644" lon="5.97334">
        <ele>712.2</ele>
        <time>2021-10-17T14:53:08Z</time>
      </trkpt>
      <trkpt lat="46.51639" lon="5.97329">
        <ele>712</ele>
        <time>2021-10-17T14:53:09Z</time>
      </trkpt>
      <trkpt lat="46.51633" lon="5.97324">
        <ele>712</ele>
        <time>2021-10-17T14:53:10Z</time>
      </trkpt>
      <trkpt lat="46.51627" lon="5.97318">
        <ele>712</ele>
        <time>2021-10-17T14:53:11Z</time>
      </trkpt>
      <trkpt lat="46.51621" lon="5.97313">
        <ele>711.8</ele>
        <time>2021-10-17T14:53:12Z</time>
      </trkpt>
      <trkpt lat="46.51616" lon="5.97309">
        <ele>711.8</ele>
        <time>2021-10-17T14:53:13Z</time>
      </trkpt>
      <trkpt lat="46.5161" lon="5.97304">
        <ele>711.8</ele>
        <time>2021-10-17T14:53:14Z</time>
      </trkpt>
      <trkpt lat="46.51605" lon="5.97299">
        <ele>711.8</ele>
        <time>2021-10-17T14:53:15Z</time>
      </trkpt>
      <trkpt lat="46.51599" lon="5.97295">
        <ele>711.6</ele>
        <time>2021-10-17T14:53:16Z</time>
      </trkpt>
      <trkpt lat="46.51593" lon="5.97292">
        <ele>711.6</ele>
        <time>2021-10-17T14:53:17Z</time>
      </trkpt>
      <trkpt lat="46.51588" lon="5.97289">
        <ele>711.4</ele>
        <time>2021-10-17T14:53:18Z</time>
      </trkpt>
      <trkpt lat="46.51582" lon="5.97287">
        <ele>711.4</ele>
        <time>2021-10-17T14:53:19Z</time>
      </trkpt>
      <trkpt lat="46.51575" lon="5.97286">
        <ele>711.2</ele>
        <time>2021-10-17T14:53:20Z</time>
      </trkpt>
      <trkpt lat="46.51569" lon="5.97284">
        <ele>711.2</ele>
        <time>2021-10-17T14:53:21Z</time>
      </trkpt>
      <trkpt lat="46.51563" lon="5.97282">
        <ele>711.2</ele>
        <time>2021-10-17T14:53:22Z</time>
      </trkpt>
      <trkpt lat="46.51556" lon="5.9728">
        <ele>711</ele>
        <time>2021-10-17T14:53:23Z</time>
      </trkpt>
      <trkpt lat="46.5155" lon="5.97279">
        <ele>711</ele>
        <time>2021-10-17T14:53:24Z</time>
      </trkpt>
      <trkpt lat="46.51545" lon="5.97278">
        <ele>710.8</ele>
        <time>2021-10-17T14:53:25Z</time>
      </trkpt>
      <trkpt lat="46.5154" lon="5.97276">
        <ele>710.8</ele>
        <time>2021-10-17T14:53:26Z</time>
      </trkpt>
      <trkpt lat="46.51535" lon="5.97273">
        <ele>710.8</ele>
        <time>2021-10-17T14:53:27Z</time>
      </trkpt>
      <trkpt lat="46.51531" lon="5.97268">
        <ele>710.4</ele>
        <time>2021-10-17T14:53:28Z</time>
      </trkpt>
      <trkpt lat="46.51527" lon="5.97262">
        <ele>710.4</ele>
        <time>2021-10-17T14:53:29Z</time>
      </trkpt>
      <trkpt lat="46.51524" lon="5.97255">
        <ele>710.4</ele>
        <time>2021-10-17T14:53:30Z</time>
      </trkpt>
      <trkpt lat="46.51521" lon="5.97248">
        <ele>710.4</ele>
        <time>2021-10-17T14:53:31Z</time>
      </trkpt>
      <trkpt lat="46.51518" lon="5.9724">
        <ele>710.2</ele>
        <time>2021-10-17T14:53:32Z</time>
      </trkpt>
      <trkpt lat="46.51515" lon="5.97232">
        <ele>710.2</ele>
        <time>2021-10-17T14:53:33Z</time>
      </trkpt>
      <trkpt lat="46.51512" lon="5.97225">
        <ele>710.2</ele>
        <time>2021-10-17T14:53:34Z</time>
      </trkpt>
      <trkpt lat="46.51509" lon="5.97217">
        <ele>710</ele>
        <time>2021-10-17T14:53:35Z</time>
      </trkpt>
      <trkpt lat="46.51505" lon="5.97209">
        <ele>710</ele>
        <time>2021-10-17T14:53:36Z</time>
      </trkpt>
      <trkpt lat="46.51501" lon="5.97201">
        <ele>710</ele>
        <time>2021-10-17T14:53:37Z</time>
      </trkpt>
      <trkpt lat="46.51498" lon="5.97194">
        <ele>709.6</ele>
        <time>2021-10-17T14:53:38Z</time>
      </trkpt>
      <trkpt lat="46.51494" lon="5.97186">
        <ele>709.6</ele>
        <time>2021-10-17T14:53:39Z</time>
      </trkpt>
      <trkpt lat="46.51491" lon="5.97178">
        <ele>709.6</ele>
        <time>2021-10-17T14:53:40Z</time>
      </trkpt>
      <trkpt lat="46.51489" lon="5.9717">
        <ele>709.4</ele>
        <time>2021-10-17T14:53:41Z</time>
      </trkpt>
      <trkpt lat="46.51486" lon="5.97161">
        <ele>709.4</ele>
        <time>2021-10-17T14:53:42Z</time>
      </trkpt>
      <trkpt lat="46.51484" lon="5.97153">
        <ele>709.4</ele>
        <time>2021-10-17T14:53:43Z</time>
      </trkpt>
      <trkpt lat="46.51481" lon="5.97145">
        <ele>709</ele>
        <time>2021-10-17T14:53:44Z</time>
      </trkpt>
      <trkpt lat="46.51479" lon="5.97137">
        <ele>709</ele>
        <time>2021-10-17T14:53:45Z</time>
      </trkpt>
      <trkpt lat="46.51477" lon="5.97128">
        <ele>709</ele>
        <time>2021-10-17T14:53:46Z</time>
      </trkpt>
      <trkpt lat="46.51475" lon="5.97119">
        <ele>708.8</ele>
        <time>2021-10-17T14:53:47Z</time>
      </trkpt>
      <trkpt lat="46.51473" lon="5.9711">
        <ele>708.8</ele>
        <time>2021-10-17T14:53:48Z</time>
      </trkpt>
      <trkpt lat="46.51471" lon="5.97101">
        <ele>708.8</ele>
        <time>2021-10-17T14:53:49Z</time>
      </trkpt>
      <trkpt lat="46.51469" lon="5.97093">
        <ele>708.4</ele>
        <time>2021-10-17T14:53:50Z</time>
      </trkpt>
      <trkpt lat="46.51466" lon="5.97084">
        <ele>708.4</ele>
        <time>2021-10-17T14:53:51Z</time>
      </trkpt>
      <trkpt lat="46.51463" lon="5.97075">
        <ele>708.4</ele>
        <time>2021-10-17T14:53:52Z</time>
      </trkpt>
      <trkpt lat="46.51461" lon="5.97066">
        <ele>708.4</ele>
        <time>2021-10-17T14:53:53Z</time>
      </trkpt>
      <trkpt lat="46.51458" lon="5.97058">
        <ele>708.4</ele>
        <time>2021-10-17T14:53:54Z</time>
      </trkpt>
      <trkpt lat="46.51455" lon="5.9705">
        <ele>708.4</ele>
        <time>2021-10-17T14:53:55Z</time>
      </trkpt>
      <trkpt lat="46.51451" lon="5.97042">
        <ele>708.4</ele>
        <time>2021-10-17T14:53:56Z</time>
      </trkpt>
      <trkpt lat="46.51447" lon="5.97036">
        <ele>708.4</ele>
        <time>2021-10-17T14:53:57Z</time>
      </trkpt>
      <trkpt lat="46.51443" lon="5.9703">
        <ele>708.4</ele>
        <time>2021-10-17T14:53:58Z</time>
      </trkpt>
      <trkpt lat="46.51439" lon="5.97025">
        <ele>708.4</ele>
        <time>2021-10-17T14:53:59Z</time>
      </trkpt>
      <trkpt lat="46.51435" lon="5.97019">
        <ele>708.4</ele>
        <time>2021-10-17T14:54:00Z</time>
      </trkpt>
      <trkpt lat="46.51432" lon="5.97014">
        <ele>708.4</ele>
        <time>2021-10-17T14:54:01Z</time>
      </trkpt>
      <trkpt lat="46.51428" lon="5.97008">
        <ele>708.4</ele>
        <time>2021-10-17T14:54:02Z</time>
      </trkpt>
      <trkpt lat="46.51425" lon="5.97002">
        <ele>708.4</ele>
        <time>2021-10-17T14:54:03Z</time>
      </trkpt>
      <trkpt lat="46.51423" lon="5.96996">
        <ele>708.4</ele>
        <time>2021-10-17T14:54:04Z</time>
      </trkpt>
      <trkpt lat="46.51421" lon="5.9699">
        <ele>708.4</ele>
        <time>2021-10-17T14:54:05Z</time>
      </trkpt>
      <trkpt lat="46.5142" lon="5.96984">
        <ele>708.4</ele>
        <time>2021-10-17T14:54:06Z</time>
      </trkpt>
      <trkpt lat="46.5142" lon="5.96978">
        <ele>708.4</ele>
        <time>2021-10-17T14:54:07Z</time>
      </trkpt>
      <trkpt lat="46.51419" lon="5.9697">
        <ele>708.4</ele>
        <time>2021-10-17T14:54:08Z</time>
      </trkpt>
      <trkpt lat="46.51419" lon="5.96963">
        <ele>708.4</ele>
        <time>2021-10-17T14:54:09Z</time>
      </trkpt>
      <trkpt lat="46.51419" lon="5.96956">
        <ele>708.8</ele>
        <time>2021-10-17T14:54:10Z</time>
      </trkpt>
      <trkpt lat="46.51418" lon="5.96948">
        <ele>708.8</ele>
        <time>2021-10-17T14:54:11Z</time>
      </trkpt>
      <trkpt lat="46.51418" lon="5.96941">
        <ele>708.8</ele>
        <time>2021-10-17T14:54:12Z</time>
      </trkpt>
      <trkpt lat="46.51418" lon="5.96934">
        <ele>708.8</ele>
        <time>2021-10-17T14:54:13Z</time>
      </trkpt>
      <trkpt lat="46.51418" lon="5.96927">
        <ele>708.8</ele>
        <time>2021-10-17T14:54:14Z</time>
      </trkpt>
      <trkpt lat="46.51418" lon="5.96919">
        <ele>709</ele>
        <time>2021-10-17T14:54:15Z</time>
      </trkpt>
      <trkpt lat="46.51417" lon="5.96912">
        <ele>709</ele>
        <time>2021-10-17T14:54:16Z</time>
      </trkpt>
      <trkpt lat="46.51417" lon="5.96904">
        <ele>709</ele>
        <time>2021-10-17T14:54:17Z</time>
      </trkpt>
      <trkpt lat="46.51417" lon="5.96896">
        <ele>709</ele>
        <time>2021-10-17T14:54:18Z</time>
      </trkpt>
      <trkpt lat="46.51417" lon="5.96889">
        <ele>709.2</ele>
        <time>2021-10-17T14:54:19Z</time>
      </trkpt>
      <trkpt lat="46.51417" lon="5.96881">
        <ele>709.2</ele>
        <time>2021-10-17T14:54:20Z</time>
      </trkpt>
      <trkpt lat="46.51416" lon="5.96874">
        <ele>709.2</ele>
        <time>2021-10-17T14:54:21Z</time>
      </trkpt>
      <trkpt lat="46.51415" lon="5.96866">
        <ele>709.2</ele>
        <time>2021-10-17T14:54:22Z</time>
      </trkpt>
      <trkpt lat="46.51415" lon="5.96859">
        <ele>709.4</ele>
        <time>2021-10-17T14:54:23Z</time>
      </trkpt>
      <trkpt lat="46.51414" lon="5.96852">
        <ele>709.4</ele>
        <time>2021-10-17T14:54:24Z</time>
      </trkpt>
      <trkpt lat="46.51414" lon="5.96844">
        <ele>709.4</ele>
        <time>2021-10-17T14:54:25Z</time>
      </trkpt>
      <trkpt lat="46.51413" lon="5.96837">
        <ele>709.4</ele>
        <time>2021-10-17T14:54:26Z</time>
      </trkpt>
      <trkpt lat="46.51413" lon="5.96829">
        <ele>709.4</ele>
        <time>2021-10-17T14:54:27Z</time>
      </trkpt>
      <trkpt lat="46.51412" lon="5.96822">
        <ele>709.4</ele>
        <time>2021-10-17T14:54:28Z</time>
      </trkpt>
      <trkpt lat="46.51411" lon="5.96814">
        <ele>709.6</ele>
        <time>2021-10-17T14:54:29Z</time>
      </trkpt>
      <trkpt lat="46.5141" lon="5.96807">
        <ele>709.6</ele>
        <time>2021-10-17T14:54:30Z</time>
      </trkpt>
      <trkpt lat="46.51408" lon="5.968">
        <ele>709.6</ele>
        <time>2021-10-17T14:54:31Z</time>
      </trkpt>
      <trkpt lat="46.51407" lon="5.96793">
        <ele>709.6</ele>
        <time>2021-10-17T14:54:32Z</time>
      </trkpt>
      <trkpt lat="46.51405" lon="5.96785">
        <ele>709.8</ele>
        <time>2021-10-17T14:54:33Z</time>
      </trkpt>
      <trkpt lat="46.51404" lon="5.96778">
        <ele>709.8</ele>
        <time>2021-10-17T14:54:34Z</time>
      </trkpt>
      <trkpt lat="46.51402" lon="5.9677">
        <ele>709.8</ele>
        <time>2021-10-17T14:54:35Z</time>
      </trkpt>
      <trkpt lat="46.514" lon="5.96763">
        <ele>709.8</ele>
        <time>2021-10-17T14:54:36Z</time>
      </trkpt>
      <trkpt lat="46.51399" lon="5.96755">
        <ele>710</ele>
        <time>2021-10-17T14:54:37Z</time>
      </trkpt>
      <trkpt lat="46.51396" lon="5.96748">
        <ele>710</ele>
        <time>2021-10-17T14:54:38Z</time>
      </trkpt>
      <trkpt lat="46.51394" lon="5.96741">
        <ele>710</ele>
        <time>2021-10-17T14:54:39Z</time>
      </trkpt>
      <trkpt lat="46.51392" lon="5.96734">
        <ele>710</ele>
        <time>2021-10-17T14:54:40Z</time>
      </trkpt>
      <trkpt lat="46.51389" lon="5.96727">
        <ele>710.4</ele>
        <time>2021-10-17T14:54:41Z</time>
      </trkpt>
      <trkpt lat="46.51386" lon="5.96721">
        <ele>710.4</ele>
        <time>2021-10-17T14:54:42Z</time>
      </trkpt>
      <trkpt lat="46.51383" lon="5.96714">
        <ele>710.4</ele>
        <time>2021-10-17T14:54:43Z</time>
      </trkpt>
      <trkpt lat="46.5138" lon="5.96708">
        <ele>710.4</ele>
        <time>2021-10-17T14:54:44Z</time>
      </trkpt>
      <trkpt lat="46.51377" lon="5.96701">
        <ele>710.4</ele>
        <time>2021-10-17T14:54:45Z</time>
      </trkpt>
      <trkpt lat="46.51373" lon="5.96694">
        <ele>710.4</ele>
        <time>2021-10-17T14:54:46Z</time>
      </trkpt>
      <trkpt lat="46.5137" lon="5.96686">
        <ele>710.4</ele>
        <time>2021-10-17T14:54:47Z</time>
      </trkpt>
      <trkpt lat="46.51367" lon="5.96679">
        <ele>710.4</ele>
        <time>2021-10-17T14:54:48Z</time>
      </trkpt>
      <trkpt lat="46.51364" lon="5.96672">
        <ele>710.4</ele>
        <time>2021-10-17T14:54:49Z</time>
      </trkpt>
      <trkpt lat="46.5136" lon="5.96665">
        <ele>710.4</ele>
        <time>2021-10-17T14:54:50Z</time>
      </trkpt>
      <trkpt lat="46.51357" lon="5.96657">
        <ele>710.4</ele>
        <time>2021-10-17T14:54:51Z</time>
      </trkpt>
      <trkpt lat="46.51353" lon="5.9665">
        <ele>710.4</ele>
        <time>2021-10-17T14:54:52Z</time>
      </trkpt>
      <trkpt lat="46.51348" lon="5.96644">
        <ele>710.4</ele>
        <time>2021-10-17T14:54:53Z</time>
      </trkpt>
      <trkpt lat="46.51344" lon="5.96637">
        <ele>710.4</ele>
        <time>2021-10-17T14:54:54Z</time>
      </trkpt>
      <trkpt lat="46.51339" lon="5.9663">
        <ele>710.4</ele>
        <time>2021-10-17T14:54:55Z</time>
      </trkpt>
      <trkpt lat="46.51335" lon="5.96622">
        <ele>710.4</ele>
        <time>2021-10-17T14:54:56Z</time>
      </trkpt>
      <trkpt lat="46.51332" lon="5.96615">
        <ele>710.4</ele>
        <time>2021-10-17T14:54:57Z</time>
      </trkpt>
      <trkpt lat="46.51328" lon="5.96607">
        <ele>710</ele>
        <time>2021-10-17T14:54:58Z</time>
      </trkpt>
      <trkpt lat="46.51325" lon="5.96599">
        <ele>710</ele>
        <time>2021-10-17T14:54:59Z</time>
      </trkpt>
      <trkpt lat="46.51322" lon="5.96591">
        <ele>710</ele>
        <time>2021-10-17T14:55:00Z</time>
      </trkpt>
      <trkpt lat="46.51318" lon="5.96583">
        <ele>710</ele>
        <time>2021-10-17T14:55:01Z</time>
      </trkpt>
      <trkpt lat="46.51314" lon="5.96576">
        <ele>710</ele>
        <time>2021-10-17T14:55:02Z</time>
      </trkpt>
      <trkpt lat="46.5131" lon="5.96569">
        <ele>710</ele>
        <time>2021-10-17T14:55:03Z</time>
      </trkpt>
      <trkpt lat="46.51305" lon="5.96563">
        <ele>710</ele>
        <time>2021-10-17T14:55:04Z</time>
      </trkpt>
      <trkpt lat="46.51299" lon="5.96557">
        <ele>709.8</ele>
        <time>2021-10-17T14:55:05Z</time>
      </trkpt>
      <trkpt lat="46.51294" lon="5.96552">
        <ele>709.8</ele>
        <time>2021-10-17T14:55:06Z</time>
      </trkpt>
      <trkpt lat="46.51288" lon="5.96547">
        <ele>709.8</ele>
        <time>2021-10-17T14:55:07Z</time>
      </trkpt>
      <trkpt lat="46.51282" lon="5.96541">
        <ele>709.8</ele>
        <time>2021-10-17T14:55:08Z</time>
      </trkpt>
      <trkpt lat="46.51277" lon="5.96536">
        <ele>709.8</ele>
        <time>2021-10-17T14:55:09Z</time>
      </trkpt>
      <trkpt lat="46.51271" lon="5.96531">
        <ele>709.6</ele>
        <time>2021-10-17T14:55:10Z</time>
      </trkpt>
      <trkpt lat="46.51266" lon="5.96526">
        <ele>709.6</ele>
        <time>2021-10-17T14:55:11Z</time>
      </trkpt>
      <trkpt lat="46.5126" lon="5.96521">
        <ele>709.6</ele>
        <time>2021-10-17T14:55:12Z</time>
      </trkpt>
      <trkpt lat="46.51254" lon="5.96516">
        <ele>709.6</ele>
        <time>2021-10-17T14:55:13Z</time>
      </trkpt>
      <trkpt lat="46.51249" lon="5.96511">
        <ele>709.6</ele>
        <time>2021-10-17T14:55:14Z</time>
      </trkpt>
      <trkpt lat="46.51243" lon="5.96505">
        <ele>709.2</ele>
        <time>2021-10-17T14:55:15Z</time>
      </trkpt>
      <trkpt lat="46.51237" lon="5.965">
        <ele>709.2</ele>
        <time>2021-10-17T14:55:16Z</time>
      </trkpt>
      <trkpt lat="46.51232" lon="5.96494">
        <ele>709.2</ele>
        <time>2021-10-17T14:55:17Z</time>
      </trkpt>
      <trkpt lat="46.51226" lon="5.96489">
        <ele>709</ele>
        <time>2021-10-17T14:55:18Z</time>
      </trkpt>
      <trkpt lat="46.5122" lon="5.96484">
        <ele>709</ele>
        <time>2021-10-17T14:55:19Z</time>
      </trkpt>
      <trkpt lat="46.51214" lon="5.96479">
        <ele>709</ele>
        <time>2021-10-17T14:55:20Z</time>
      </trkpt>
      <trkpt lat="46.51209" lon="5.96474">
        <ele>709</ele>
        <time>2021-10-17T14:55:21Z</time>
      </trkpt>
      <trkpt lat="46.51203" lon="5.96469">
        <ele>709</ele>
        <time>2021-10-17T14:55:22Z</time>
      </trkpt>
      <trkpt lat="46.51198" lon="5.96463">
        <ele>709</ele>
        <time>2021-10-17T14:55:23Z</time>
      </trkpt>
      <trkpt lat="46.51192" lon="5.96457">
        <ele>708.8</ele>
        <time>2021-10-17T14:55:24Z</time>
      </trkpt>
      <trkpt lat="46.51187" lon="5.96452">
        <ele>708.8</ele>
        <time>2021-10-17T14:55:25Z</time>
      </trkpt>
      <trkpt lat="46.51181" lon="5.96446">
        <ele>708.8</ele>
        <time>2021-10-17T14:55:26Z</time>
      </trkpt>
      <trkpt lat="46.51176" lon="5.96441">
        <ele>708.8</ele>
        <time>2021-10-17T14:55:27Z</time>
      </trkpt>
      <trkpt lat="46.51171" lon="5.96435">
        <ele>708.8</ele>
        <time>2021-10-17T14:55:28Z</time>
      </trkpt>
      <trkpt lat="46.51165" lon="5.9643">
        <ele>708.8</ele>
        <time>2021-10-17T14:55:29Z</time>
      </trkpt>
      <trkpt lat="46.51159" lon="5.96425">
        <ele>708.8</ele>
        <time>2021-10-17T14:55:30Z</time>
      </trkpt>
      <trkpt lat="46.51154" lon="5.9642">
        <ele>708.4</ele>
        <time>2021-10-17T14:55:31Z</time>
      </trkpt>
      <trkpt lat="46.51148" lon="5.96415">
        <ele>708.4</ele>
        <time>2021-10-17T14:55:32Z</time>
      </trkpt>
      <trkpt lat="46.51143" lon="5.9641">
        <ele>708.4</ele>
        <time>2021-10-17T14:55:33Z</time>
      </trkpt>
      <trkpt lat="46.51137" lon="5.96405">
        <ele>708.4</ele>
        <time>2021-10-17T14:55:34Z</time>
      </trkpt>
      <trkpt lat="46.51131" lon="5.964">
        <ele>708.2</ele>
        <time>2021-10-17T14:55:35Z</time>
      </trkpt>
      <trkpt lat="46.51125" lon="5.96395">
        <ele>708.2</ele>
        <time>2021-10-17T14:55:36Z</time>
      </trkpt>
      <trkpt lat="46.5112" lon="5.96388">
        <ele>708.2</ele>
        <time>2021-10-17T14:55:37Z</time>
      </trkpt>
      <trkpt lat="46.51115" lon="5.96381">
        <ele>707.8</ele>
        <time>2021-10-17T14:55:38Z</time>
      </trkpt>
      <trkpt lat="46.51111" lon="5.96374">
        <ele>707.8</ele>
        <time>2021-10-17T14:55:39Z</time>
      </trkpt>
      <trkpt lat="46.51108" lon="5.96367">
        <ele>707.8</ele>
        <time>2021-10-17T14:55:40Z</time>
      </trkpt>
      <trkpt lat="46.51105" lon="5.96359">
        <ele>707.8</ele>
        <time>2021-10-17T14:55:41Z</time>
      </trkpt>
      <trkpt lat="46.51102" lon="5.96351">
        <ele>707.8</ele>
        <time>2021-10-17T14:55:42Z</time>
      </trkpt>
      <trkpt lat="46.511" lon="5.96343">
        <ele>707.8</ele>
        <time>2021-10-17T14:55:43Z</time>
      </trkpt>
      <trkpt lat="46.51098" lon="5.96335">
        <ele>707.6</ele>
        <time>2021-10-17T14:55:44Z</time>
      </trkpt>
      <trkpt lat="46.51096" lon="5.96326">
        <ele>707.6</ele>
        <time>2021-10-17T14:55:45Z</time>
      </trkpt>
      <trkpt lat="46.51093" lon="5.96317">
        <ele>707.6</ele>
        <time>2021-10-17T14:55:46Z</time>
      </trkpt>
      <trkpt lat="46.51091" lon="5.96307">
        <ele>707.6</ele>
        <time>2021-10-17T14:55:47Z</time>
      </trkpt>
      <trkpt lat="46.51089" lon="5.96298">
        <ele>707.6</ele>
        <time>2021-10-17T14:55:48Z</time>
      </trkpt>
      <trkpt lat="46.51087" lon="5.96289">
        <ele>707.6</ele>
        <time>2021-10-17T14:55:49Z</time>
      </trkpt>
      <trkpt lat="46.51086" lon="5.9628">
        <ele>707.4</ele>
        <time>2021-10-17T14:55:50Z</time>
      </trkpt>
      <trkpt lat="46.51084" lon="5.9627">
        <ele>707.4</ele>
        <time>2021-10-17T14:55:51Z</time>
      </trkpt>
      <trkpt lat="46.51083" lon="5.9626">
        <ele>707.4</ele>
        <time>2021-10-17T14:55:52Z</time>
      </trkpt>
      <trkpt lat="46.51082" lon="5.9625">
        <ele>707.4</ele>
        <time>2021-10-17T14:55:53Z</time>
      </trkpt>
      <trkpt lat="46.51082" lon="5.9624">
        <ele>707</ele>
        <time>2021-10-17T14:55:54Z</time>
      </trkpt>
      <trkpt lat="46.51081" lon="5.9623">
        <ele>707</ele>
        <time>2021-10-17T14:55:55Z</time>
      </trkpt>
      <trkpt lat="46.51082" lon="5.96221">
        <ele>707</ele>
        <time>2021-10-17T14:55:56Z</time>
      </trkpt>
      <trkpt lat="46.51081" lon="5.96212">
        <ele>707</ele>
        <time>2021-10-17T14:55:57Z</time>
      </trkpt>
      <trkpt lat="46.51081" lon="5.96202">
        <ele>707</ele>
        <time>2021-10-17T14:55:58Z</time>
      </trkpt>
      <trkpt lat="46.5108" lon="5.96193">
        <ele>707</ele>
        <time>2021-10-17T14:55:59Z</time>
      </trkpt>
      <trkpt lat="46.51078" lon="5.96184">
        <ele>706.8</ele>
        <time>2021-10-17T14:56:00Z</time>
      </trkpt>
      <trkpt lat="46.51075" lon="5.96175">
        <ele>706.8</ele>
        <time>2021-10-17T14:56:01Z</time>
      </trkpt>
      <trkpt lat="46.51072" lon="5.96167">
        <ele>706.4</ele>
        <time>2021-10-17T14:56:02Z</time>
      </trkpt>
      <trkpt lat="46.51067" lon="5.96161">
        <ele>706.4</ele>
        <time>2021-10-17T14:56:03Z</time>
      </trkpt>
      <trkpt lat="46.51061" lon="5.96157">
        <ele>706.4</ele>
        <time>2021-10-17T14:56:04Z</time>
      </trkpt>
      <trkpt lat="46.51055" lon="5.96156">
        <ele>706.4</ele>
        <time>2021-10-17T14:56:05Z</time>
      </trkpt>
      <trkpt lat="46.5105" lon="5.96155">
        <ele>706.4</ele>
        <time>2021-10-17T14:56:06Z</time>
      </trkpt>
      <trkpt lat="46.51044" lon="5.96155">
        <ele>706.4</ele>
        <time>2021-10-17T14:56:07Z</time>
      </trkpt>
      <trkpt lat="46.51038" lon="5.96155">
        <ele>706.4</ele>
        <time>2021-10-17T14:56:08Z</time>
      </trkpt>
      <trkpt lat="46.51032" lon="5.96155">
        <ele>706.4</ele>
        <time>2021-10-17T14:56:09Z</time>
      </trkpt>
      <trkpt lat="46.51025" lon="5.96154">
        <ele>706.2</ele>
        <time>2021-10-17T14:56:10Z</time>
      </trkpt>
      <trkpt lat="46.51019" lon="5.96152">
        <ele>706.2</ele>
        <time>2021-10-17T14:56:11Z</time>
      </trkpt>
      <trkpt lat="46.51012" lon="5.9615">
        <ele>706.2</ele>
        <time>2021-10-17T14:56:12Z</time>
      </trkpt>
      <trkpt lat="46.51006" lon="5.96148">
        <ele>706.2</ele>
        <time>2021-10-17T14:56:13Z</time>
      </trkpt>
      <trkpt lat="46.50999" lon="5.96146">
        <ele>705.8</ele>
        <time>2021-10-17T14:56:14Z</time>
      </trkpt>
      <trkpt lat="46.50993" lon="5.96145">
        <ele>705.8</ele>
        <time>2021-10-17T14:56:15Z</time>
      </trkpt>
      <trkpt lat="46.50986" lon="5.96145">
        <ele>705.8</ele>
        <time>2021-10-17T14:56:16Z</time>
      </trkpt>
      <trkpt lat="46.5098" lon="5.96144">
        <ele>705.8</ele>
        <time>2021-10-17T14:56:17Z</time>
      </trkpt>
      <trkpt lat="46.50974" lon="5.96144">
        <ele>705.8</ele>
        <time>2021-10-17T14:56:18Z</time>
      </trkpt>
      <trkpt lat="46.50967" lon="5.96142">
        <ele>705.8</ele>
        <time>2021-10-17T14:56:19Z</time>
      </trkpt>
      <trkpt lat="46.50961" lon="5.96139">
        <ele>705.8</ele>
        <time>2021-10-17T14:56:20Z</time>
      </trkpt>
      <trkpt lat="46.50955" lon="5.96135">
        <ele>705.8</ele>
        <time>2021-10-17T14:56:21Z</time>
      </trkpt>
      <trkpt lat="46.50949" lon="5.96131">
        <ele>705.6</ele>
        <time>2021-10-17T14:56:22Z</time>
      </trkpt>
      <trkpt lat="46.50945" lon="5.96127">
        <ele>705.6</ele>
        <time>2021-10-17T14:56:23Z</time>
      </trkpt>
      <trkpt lat="46.5094" lon="5.96124">
        <ele>705.6</ele>
        <time>2021-10-17T14:56:24Z</time>
      </trkpt>
      <trkpt lat="46.50935" lon="5.96123">
        <ele>705.6</ele>
        <time>2021-10-17T14:56:25Z</time>
      </trkpt>
      <trkpt lat="46.50931" lon="5.96124">
        <ele>705.6</ele>
        <time>2021-10-17T14:56:26Z</time>
      </trkpt>
      <trkpt lat="46.50926" lon="5.96126">
        <ele>705.6</ele>
        <time>2021-10-17T14:56:27Z</time>
      </trkpt>
      <trkpt lat="46.50922" lon="5.96129">
        <ele>705.6</ele>
        <time>2021-10-17T14:56:28Z</time>
      </trkpt>
      <trkpt lat="46.50918" lon="5.96135">
        <ele>705.6</ele>
        <time>2021-10-17T14:56:29Z</time>
      </trkpt>
      <trkpt lat="46.50914" lon="5.9614">
        <ele>705.6</ele>
        <time>2021-10-17T14:56:30Z</time>
      </trkpt>
      <trkpt lat="46.5091" lon="5.96144">
        <ele>705.6</ele>
        <time>2021-10-17T14:56:31Z</time>
      </trkpt>
      <trkpt lat="46.50905" lon="5.96147">
        <ele>705.6</ele>
        <time>2021-10-17T14:56:32Z</time>
      </trkpt>
      <trkpt lat="46.50899" lon="5.9615">
        <ele>705.8</ele>
        <time>2021-10-17T14:56:33Z</time>
      </trkpt>
      <trkpt lat="46.50894" lon="5.96153">
        <ele>705.8</ele>
        <time>2021-10-17T14:56:34Z</time>
      </trkpt>
      <trkpt lat="46.50888" lon="5.96154">
        <ele>705.8</ele>
        <time>2021-10-17T14:56:35Z</time>
      </trkpt>
      <trkpt lat="46.50883" lon="5.96155">
        <ele>705.8</ele>
        <time>2021-10-17T14:56:36Z</time>
      </trkpt>
      <trkpt lat="46.50877" lon="5.96156">
        <ele>705.8</ele>
        <time>2021-10-17T14:56:37Z</time>
      </trkpt>
      <trkpt lat="46.50872" lon="5.96157">
        <ele>705.8</ele>
        <time>2021-10-17T14:56:38Z</time>
      </trkpt>
      <trkpt lat="46.50866" lon="5.96158">
        <ele>705.8</ele>
        <time>2021-10-17T14:56:39Z</time>
      </trkpt>
      <trkpt lat="46.5086" lon="5.96159">
        <ele>705.8</ele>
        <time>2021-10-17T14:56:40Z</time>
      </trkpt>
      <trkpt lat="46.50855" lon="5.96159">
        <ele>705.8</ele>
        <time>2021-10-17T14:56:41Z</time>
      </trkpt>
      <trkpt lat="46.50849" lon="5.9616">
        <ele>706.2</ele>
        <time>2021-10-17T14:56:42Z</time>
      </trkpt>
      <trkpt lat="46.50838" lon="5.96158">
        <ele>706.2</ele>
        <time>2021-10-17T14:56:43Z</time>
      </trkpt>
      <trkpt lat="46.50832" lon="5.96155">
        <ele>706.2</ele>
        <time>2021-10-17T14:56:44Z</time>
      </trkpt>
      <trkpt lat="46.50828" lon="5.96151">
        <ele>706.2</ele>
        <time>2021-10-17T14:56:45Z</time>
      </trkpt>
      <trkpt lat="46.50823" lon="5.96146">
        <ele>706.2</ele>
        <time>2021-10-17T14:56:46Z</time>
      </trkpt>
      <trkpt lat="46.50819" lon="5.9614">
        <ele>706.2</ele>
        <time>2021-10-17T14:56:47Z</time>
      </trkpt>
      <trkpt lat="46.50815" lon="5.96134">
        <ele>706.4</ele>
        <time>2021-10-17T14:56:48Z</time>
      </trkpt>
      <trkpt lat="46.50811" lon="5.96129">
        <ele>706.4</ele>
        <time>2021-10-17T14:56:49Z</time>
      </trkpt>
      <trkpt lat="46.50807" lon="5.96124">
        <ele>706.4</ele>
        <time>2021-10-17T14:56:50Z</time>
      </trkpt>
      <trkpt lat="46.50802" lon="5.96119">
        <ele>706.4</ele>
        <time>2021-10-17T14:56:51Z</time>
      </trkpt>
      <trkpt lat="46.50797" lon="5.96116">
        <ele>706.4</ele>
        <time>2021-10-17T14:56:52Z</time>
      </trkpt>
      <trkpt lat="46.50791" lon="5.96113">
        <ele>706.4</ele>
        <time>2021-10-17T14:56:53Z</time>
      </trkpt>
      <trkpt lat="46.50785" lon="5.96111">
        <ele>706.4</ele>
        <time>2021-10-17T14:56:54Z</time>
      </trkpt>
      <trkpt lat="46.5078" lon="5.9611">
        <ele>706.4</ele>
        <time>2021-10-17T14:56:55Z</time>
      </trkpt>
      <trkpt lat="46.50775" lon="5.9611">
        <ele>706.6</ele>
        <time>2021-10-17T14:56:56Z</time>
      </trkpt>
      <trkpt lat="46.5077" lon="5.9611">
        <ele>706.8</ele>
        <time>2021-10-17T14:56:57Z</time>
      </trkpt>
      <trkpt lat="46.50765" lon="5.96111">
        <ele>706.8</ele>
        <time>2021-10-17T14:56:58Z</time>
      </trkpt>
      <trkpt lat="46.5076" lon="5.96111">
        <ele>707</ele>
        <time>2021-10-17T14:56:59Z</time>
      </trkpt>
      <trkpt lat="46.50755" lon="5.96112">
        <ele>707</ele>
        <time>2021-10-17T14:57:00Z</time>
      </trkpt>
      <trkpt lat="46.5075" lon="5.96113">
        <ele>707.4</ele>
        <time>2021-10-17T14:57:01Z</time>
      </trkpt>
      <trkpt lat="46.50745" lon="5.96114">
        <ele>707.4</ele>
        <time>2021-10-17T14:57:02Z</time>
      </trkpt>
      <trkpt lat="46.5074" lon="5.96115">
        <ele>707.4</ele>
        <time>2021-10-17T14:57:03Z</time>
      </trkpt>
      <trkpt lat="46.50734" lon="5.96117">
        <ele>707.6</ele>
        <time>2021-10-17T14:57:04Z</time>
      </trkpt>
      <trkpt lat="46.50729" lon="5.96119">
        <ele>707.6</ele>
        <time>2021-10-17T14:57:05Z</time>
      </trkpt>
      <trkpt lat="46.50724" lon="5.96121">
        <ele>707.6</ele>
        <time>2021-10-17T14:57:06Z</time>
      </trkpt>
      <trkpt lat="46.50718" lon="5.96123">
        <ele>707.6</ele>
        <time>2021-10-17T14:57:07Z</time>
      </trkpt>
      <trkpt lat="46.50713" lon="5.96124">
        <ele>707.6</ele>
        <time>2021-10-17T14:57:08Z</time>
      </trkpt>
      <trkpt lat="46.50708" lon="5.96126">
        <ele>707.8</ele>
        <time>2021-10-17T14:57:09Z</time>
      </trkpt>
      <trkpt lat="46.50702" lon="5.96128">
        <ele>707.8</ele>
        <time>2021-10-17T14:57:10Z</time>
      </trkpt>
      <trkpt lat="46.50697" lon="5.96129">
        <ele>708</ele>
        <time>2021-10-17T14:57:11Z</time>
      </trkpt>
      <trkpt lat="46.50692" lon="5.96131">
        <ele>708</ele>
        <time>2021-10-17T14:57:12Z</time>
      </trkpt>
      <trkpt lat="46.50686" lon="5.96132">
        <ele>708</ele>
        <time>2021-10-17T14:57:13Z</time>
      </trkpt>
      <trkpt lat="46.50681" lon="5.96133">
        <ele>708.2</ele>
        <time>2021-10-17T14:57:14Z</time>
      </trkpt>
      <trkpt lat="46.50675" lon="5.96133">
        <ele>708.2</ele>
        <time>2021-10-17T14:57:15Z</time>
      </trkpt>
      <trkpt lat="46.5067" lon="5.96134">
        <ele>708.2</ele>
        <time>2021-10-17T14:57:16Z</time>
      </trkpt>
      <trkpt lat="46.50665" lon="5.96135">
        <ele>708.4</ele>
        <time>2021-10-17T14:57:17Z</time>
      </trkpt>
      <trkpt lat="46.5066" lon="5.96136">
        <ele>708.4</ele>
        <time>2021-10-17T14:57:18Z</time>
      </trkpt>
      <trkpt lat="46.50655" lon="5.96137">
        <ele>708.4</ele>
        <time>2021-10-17T14:57:19Z</time>
      </trkpt>
      <trkpt lat="46.5065" lon="5.96139">
        <ele>708.4</ele>
        <time>2021-10-17T14:57:20Z</time>
      </trkpt>
      <trkpt lat="46.50645" lon="5.96141">
        <ele>708.4</ele>
        <time>2021-10-17T14:57:21Z</time>
      </trkpt>
      <trkpt lat="46.5064" lon="5.96143">
        <ele>708.6</ele>
        <time>2021-10-17T14:57:22Z</time>
      </trkpt>
      <trkpt lat="46.50635" lon="5.96146">
        <ele>708.6</ele>
        <time>2021-10-17T14:57:23Z</time>
      </trkpt>
      <trkpt lat="46.50631" lon="5.96148">
        <ele>708.6</ele>
        <time>2021-10-17T14:57:24Z</time>
      </trkpt>
      <trkpt lat="46.50626" lon="5.96151">
        <ele>709</ele>
        <time>2021-10-17T14:57:25Z</time>
      </trkpt>
      <trkpt lat="46.50622" lon="5.96153">
        <ele>709</ele>
        <time>2021-10-17T14:57:26Z</time>
      </trkpt>
      <trkpt lat="46.50617" lon="5.96156">
        <ele>709.2</ele>
        <time>2021-10-17T14:57:27Z</time>
      </trkpt>
      <trkpt lat="46.50612" lon="5.96158">
        <ele>709.2</ele>
        <time>2021-10-17T14:57:28Z</time>
      </trkpt>
      <trkpt lat="46.50607" lon="5.96161">
        <ele>709.4</ele>
        <time>2021-10-17T14:57:29Z</time>
      </trkpt>
      <trkpt lat="46.50602" lon="5.96164">
        <ele>709.4</ele>
        <time>2021-10-17T14:57:30Z</time>
      </trkpt>
      <trkpt lat="46.50597" lon="5.96168">
        <ele>709.4</ele>
        <time>2021-10-17T14:57:31Z</time>
      </trkpt>
      <trkpt lat="46.50592" lon="5.96171">
        <ele>709.4</ele>
        <time>2021-10-17T14:57:32Z</time>
      </trkpt>
      <trkpt lat="46.50587" lon="5.96174">
        <ele>709.4</ele>
        <time>2021-10-17T14:57:33Z</time>
      </trkpt>
      <trkpt lat="46.50581" lon="5.96178">
        <ele>709.4</ele>
        <time>2021-10-17T14:57:34Z</time>
      </trkpt>
      <trkpt lat="46.50577" lon="5.96182">
        <ele>709.4</ele>
        <time>2021-10-17T14:57:35Z</time>
      </trkpt>
      <trkpt lat="46.50572" lon="5.96185">
        <ele>709.6</ele>
        <time>2021-10-17T14:57:36Z</time>
      </trkpt>
      <trkpt lat="46.50567" lon="5.96189">
        <ele>709.6</ele>
        <time>2021-10-17T14:57:37Z</time>
      </trkpt>
      <trkpt lat="46.50562" lon="5.96192">
        <ele>709.8</ele>
        <time>2021-10-17T14:57:38Z</time>
      </trkpt>
      <trkpt lat="46.50557" lon="5.96196">
        <ele>709.8</ele>
        <time>2021-10-17T14:57:39Z</time>
      </trkpt>
      <trkpt lat="46.50552" lon="5.962">
        <ele>709.8</ele>
        <time>2021-10-17T14:57:40Z</time>
      </trkpt>
      <trkpt lat="46.50547" lon="5.96203">
        <ele>710.2</ele>
        <time>2021-10-17T14:57:41Z</time>
      </trkpt>
      <trkpt lat="46.50542" lon="5.96206">
        <ele>710.2</ele>
        <time>2021-10-17T14:57:42Z</time>
      </trkpt>
      <trkpt lat="46.50537" lon="5.96209">
        <ele>710.2</ele>
        <time>2021-10-17T14:57:43Z</time>
      </trkpt>
      <trkpt lat="46.50533" lon="5.96213">
        <ele>710.4</ele>
        <time>2021-10-17T14:57:44Z</time>
      </trkpt>
      <trkpt lat="46.50528" lon="5.96217">
        <ele>710.4</ele>
        <time>2021-10-17T14:57:45Z</time>
      </trkpt>
      <trkpt lat="46.50523" lon="5.9622">
        <ele>710.6</ele>
        <time>2021-10-17T14:57:46Z</time>
      </trkpt>
      <trkpt lat="46.50519" lon="5.96225">
        <ele>710.6</ele>
        <time>2021-10-17T14:57:47Z</time>
      </trkpt>
      <trkpt lat="46.50515" lon="5.9623">
        <ele>710.6</ele>
        <time>2021-10-17T14:57:48Z</time>
      </trkpt>
      <trkpt lat="46.50511" lon="5.96235">
        <ele>710.6</ele>
        <time>2021-10-17T14:57:49Z</time>
      </trkpt>
      <trkpt lat="46.50507" lon="5.96241">
        <ele>710.6</ele>
        <time>2021-10-17T14:57:50Z</time>
      </trkpt>
      <trkpt lat="46.50502" lon="5.96247">
        <ele>710.8</ele>
        <time>2021-10-17T14:57:51Z</time>
      </trkpt>
      <trkpt lat="46.50498" lon="5.96253">
        <ele>710.8</ele>
        <time>2021-10-17T14:57:52Z</time>
      </trkpt>
      <trkpt lat="46.50493" lon="5.96258">
        <ele>710.8</ele>
        <time>2021-10-17T14:57:53Z</time>
      </trkpt>
      <trkpt lat="46.50488" lon="5.96263">
        <ele>710.8</ele>
        <time>2021-10-17T14:57:54Z</time>
      </trkpt>
      <trkpt lat="46.50483" lon="5.96267">
        <ele>710.8</ele>
        <time>2021-10-17T14:57:55Z</time>
      </trkpt>
      <trkpt lat="46.50478" lon="5.9627">
        <ele>711.2</ele>
        <time>2021-10-17T14:57:56Z</time>
      </trkpt>
      <trkpt lat="46.50473" lon="5.96274">
        <ele>711.2</ele>
        <time>2021-10-17T14:57:57Z</time>
      </trkpt>
      <trkpt lat="46.50468" lon="5.96279">
        <ele>711.2</ele>
        <time>2021-10-17T14:57:58Z</time>
      </trkpt>
      <trkpt lat="46.50463" lon="5.96283">
        <ele>711.2</ele>
        <time>2021-10-17T14:57:59Z</time>
      </trkpt>
      <trkpt lat="46.50458" lon="5.96287">
        <ele>711.4</ele>
        <time>2021-10-17T14:58:00Z</time>
      </trkpt>
      <trkpt lat="46.50453" lon="5.96291">
        <ele>711.4</ele>
        <time>2021-10-17T14:58:01Z</time>
      </trkpt>
      <trkpt lat="46.50448" lon="5.96295">
        <ele>711.4</ele>
        <time>2021-10-17T14:58:02Z</time>
      </trkpt>
      <trkpt lat="46.50443" lon="5.96299">
        <ele>711.6</ele>
        <time>2021-10-17T14:58:03Z</time>
      </trkpt>
      <trkpt lat="46.50438" lon="5.96302">
        <ele>711.6</ele>
        <time>2021-10-17T14:58:04Z</time>
      </trkpt>
      <trkpt lat="46.50433" lon="5.96306">
        <ele>711.6</ele>
        <time>2021-10-17T14:58:05Z</time>
      </trkpt>
      <trkpt lat="46.50428" lon="5.9631">
        <ele>711.6</ele>
        <time>2021-10-17T14:58:06Z</time>
      </trkpt>
      <trkpt lat="46.50424" lon="5.96314">
        <ele>711.8</ele>
        <time>2021-10-17T14:58:07Z</time>
      </trkpt>
      <trkpt lat="46.50419" lon="5.96317">
        <ele>711.8</ele>
        <time>2021-10-17T14:58:08Z</time>
      </trkpt>
      <trkpt lat="46.50415" lon="5.96321">
        <ele>712.2</ele>
        <time>2021-10-17T14:58:09Z</time>
      </trkpt>
      <trkpt lat="46.50411" lon="5.96325">
        <ele>712.2</ele>
        <time>2021-10-17T14:58:10Z</time>
      </trkpt>
      <trkpt lat="46.50407" lon="5.9633">
        <ele>712.2</ele>
        <time>2021-10-17T14:58:11Z</time>
      </trkpt>
      <trkpt lat="46.50402" lon="5.96334">
        <ele>712.4</ele>
        <time>2021-10-17T14:58:12Z</time>
      </trkpt>
      <trkpt lat="46.50398" lon="5.96339">
        <ele>712.4</ele>
        <time>2021-10-17T14:58:13Z</time>
      </trkpt>
      <trkpt lat="46.50394" lon="5.96345">
        <ele>712.6</ele>
        <time>2021-10-17T14:58:14Z</time>
      </trkpt>
      <trkpt lat="46.50391" lon="5.9635">
        <ele>712.6</ele>
        <time>2021-10-17T14:58:15Z</time>
      </trkpt>
      <trkpt lat="46.50387" lon="5.96355">
        <ele>712.6</ele>
        <time>2021-10-17T14:58:16Z</time>
      </trkpt>
      <trkpt lat="46.50383" lon="5.96361">
        <ele>712.6</ele>
        <time>2021-10-17T14:58:17Z</time>
      </trkpt>
      <trkpt lat="46.50379" lon="5.96367">
        <ele>712.8</ele>
        <time>2021-10-17T14:58:18Z</time>
      </trkpt>
      <trkpt lat="46.50375" lon="5.96373">
        <ele>712.8</ele>
        <time>2021-10-17T14:58:19Z</time>
      </trkpt>
      <trkpt lat="46.50371" lon="5.96379">
        <ele>713.2</ele>
        <time>2021-10-17T14:58:20Z</time>
      </trkpt>
      <trkpt lat="46.50367" lon="5.96384">
        <ele>713.2</ele>
        <time>2021-10-17T14:58:21Z</time>
      </trkpt>
      <trkpt lat="46.50363" lon="5.96388">
        <ele>713.2</ele>
        <time>2021-10-17T14:58:22Z</time>
      </trkpt>
      <trkpt lat="46.50359" lon="5.96393">
        <ele>713.2</ele>
        <time>2021-10-17T14:58:23Z</time>
      </trkpt>
      <trkpt lat="46.50354" lon="5.96397">
        <ele>713.4</ele>
        <time>2021-10-17T14:58:24Z</time>
      </trkpt>
      <trkpt lat="46.50349" lon="5.96401">
        <ele>713.4</ele>
        <time>2021-10-17T14:58:25Z</time>
      </trkpt>
      <trkpt lat="46.50344" lon="5.96404">
        <ele>713.4</ele>
        <time>2021-10-17T14:58:26Z</time>
      </trkpt>
      <trkpt lat="46.50339" lon="5.96407">
        <ele>713.6</ele>
        <time>2021-10-17T14:58:27Z</time>
      </trkpt>
      <trkpt lat="46.50334" lon="5.96409">
        <ele>713.6</ele>
        <time>2021-10-17T14:58:28Z</time>
      </trkpt>
      <trkpt lat="46.50328" lon="5.96411">
        <ele>713.8</ele>
        <time>2021-10-17T14:58:29Z</time>
      </trkpt>
      <trkpt lat="46.50323" lon="5.96412">
        <ele>713.8</ele>
        <time>2021-10-17T14:58:30Z</time>
      </trkpt>
      <trkpt lat="46.50317" lon="5.96412">
        <ele>714.2</ele>
        <time>2021-10-17T14:58:31Z</time>
      </trkpt>
      <trkpt lat="46.50311" lon="5.96411">
        <ele>714.2</ele>
        <time>2021-10-17T14:58:32Z</time>
      </trkpt>
      <trkpt lat="46.50306" lon="5.9641">
        <ele>714.2</ele>
        <time>2021-10-17T14:58:33Z</time>
      </trkpt>
      <trkpt lat="46.50301" lon="5.96409">
        <ele>714.4</ele>
        <time>2021-10-17T14:58:34Z</time>
      </trkpt>
      <trkpt lat="46.50295" lon="5.96408">
        <ele>714.4</ele>
        <time>2021-10-17T14:58:35Z</time>
      </trkpt>
      <trkpt lat="46.5029" lon="5.96407">
        <ele>714.6</ele>
        <time>2021-10-17T14:58:36Z</time>
      </trkpt>
      <trkpt lat="46.50285" lon="5.96407">
        <ele>714.6</ele>
        <time>2021-10-17T14:58:37Z</time>
      </trkpt>
      <trkpt lat="46.5028" lon="5.96406">
        <ele>714.8</ele>
        <time>2021-10-17T14:58:38Z</time>
      </trkpt>
      <trkpt lat="46.50275" lon="5.96405">
        <ele>714.8</ele>
        <time>2021-10-17T14:58:39Z</time>
      </trkpt>
      <trkpt lat="46.50269" lon="5.96404">
        <ele>715.2</ele>
        <time>2021-10-17T14:58:40Z</time>
      </trkpt>
      <trkpt lat="46.50263" lon="5.96403">
        <ele>715.2</ele>
        <time>2021-10-17T14:58:41Z</time>
      </trkpt>
      <trkpt lat="46.50258" lon="5.96401">
        <ele>715.2</ele>
        <time>2021-10-17T14:58:42Z</time>
      </trkpt>
      <trkpt lat="46.50253" lon="5.964">
        <ele>715.2</ele>
        <time>2021-10-17T14:58:43Z</time>
      </trkpt>
      <trkpt lat="46.50249" lon="5.96399">
        <ele>715.4</ele>
        <time>2021-10-17T14:58:44Z</time>
      </trkpt>
      <trkpt lat="46.50244" lon="5.96398">
        <ele>715.4</ele>
        <time>2021-10-17T14:58:45Z</time>
      </trkpt>
      <trkpt lat="46.5024" lon="5.96397">
        <ele>715.4</ele>
        <time>2021-10-17T14:58:46Z</time>
      </trkpt>
      <trkpt lat="46.50235" lon="5.96396">
        <ele>715.4</ele>
        <time>2021-10-17T14:58:47Z</time>
      </trkpt>
      <trkpt lat="46.5023" lon="5.96394">
        <ele>715.6</ele>
        <time>2021-10-17T14:58:48Z</time>
      </trkpt>
      <trkpt lat="46.50225" lon="5.96392">
        <ele>715.6</ele>
        <time>2021-10-17T14:58:49Z</time>
      </trkpt>
      <trkpt lat="46.5022" lon="5.9639">
        <ele>715.6</ele>
        <time>2021-10-17T14:58:50Z</time>
      </trkpt>
      <trkpt lat="46.50215" lon="5.96389">
        <ele>716</ele>
        <time>2021-10-17T14:58:51Z</time>
      </trkpt>
      <trkpt lat="46.5021" lon="5.96388">
        <ele>716</ele>
        <time>2021-10-17T14:58:52Z</time>
      </trkpt>
      <trkpt lat="46.50204" lon="5.96386">
        <ele>716</ele>
        <time>2021-10-17T14:58:53Z</time>
      </trkpt>
      <trkpt lat="46.50199" lon="5.96383">
        <ele>716.4</ele>
        <time>2021-10-17T14:58:54Z</time>
      </trkpt>
      <trkpt lat="46.50194" lon="5.96382">
        <ele>716.4</ele>
        <time>2021-10-17T14:58:55Z</time>
      </trkpt>
      <trkpt lat="46.5019" lon="5.96379">
        <ele>716.6</ele>
        <time>2021-10-17T14:58:56Z</time>
      </trkpt>
      <trkpt lat="46.50185" lon="5.96375">
        <ele>716.6</ele>
        <time>2021-10-17T14:58:57Z</time>
      </trkpt>
      <trkpt lat="46.50181" lon="5.9637">
        <ele>716.8</ele>
        <time>2021-10-17T14:58:58Z</time>
      </trkpt>
      <trkpt lat="46.50177" lon="5.96365">
        <ele>716.8</ele>
        <time>2021-10-17T14:58:59Z</time>
      </trkpt>
      <trkpt lat="46.50174" lon="5.9636">
        <ele>716.8</ele>
        <time>2021-10-17T14:59:00Z</time>
      </trkpt>
      <trkpt lat="46.50171" lon="5.96355">
        <ele>716.8</ele>
        <time>2021-10-17T14:59:01Z</time>
      </trkpt>
      <trkpt lat="46.50167" lon="5.9635">
        <ele>717</ele>
        <time>2021-10-17T14:59:02Z</time>
      </trkpt>
      <trkpt lat="46.50164" lon="5.96344">
        <ele>717</ele>
        <time>2021-10-17T14:59:03Z</time>
      </trkpt>
      <trkpt lat="46.5016" lon="5.96339">
        <ele>717</ele>
        <time>2021-10-17T14:59:04Z</time>
      </trkpt>
      <trkpt lat="46.50157" lon="5.96334">
        <ele>717.2</ele>
        <time>2021-10-17T14:59:05Z</time>
      </trkpt>
      <trkpt lat="46.50153" lon="5.96328">
        <ele>717.2</ele>
        <time>2021-10-17T14:59:06Z</time>
      </trkpt>
      <trkpt lat="46.5015" lon="5.96322">
        <ele>717.2</ele>
        <time>2021-10-17T14:59:07Z</time>
      </trkpt>
      <trkpt lat="46.50147" lon="5.96316">
        <ele>717.6</ele>
        <time>2021-10-17T14:59:08Z</time>
      </trkpt>
      <trkpt lat="46.50145" lon="5.9631">
        <ele>717.6</ele>
        <time>2021-10-17T14:59:09Z</time>
      </trkpt>
      <trkpt lat="46.50143" lon="5.96304">
        <ele>717.6</ele>
        <time>2021-10-17T14:59:10Z</time>
      </trkpt>
      <trkpt lat="46.5014" lon="5.96297">
        <ele>717.8</ele>
        <time>2021-10-17T14:59:11Z</time>
      </trkpt>
      <trkpt lat="46.50138" lon="5.96291">
        <ele>717.8</ele>
        <time>2021-10-17T14:59:12Z</time>
      </trkpt>
      <trkpt lat="46.50136" lon="5.96285">
        <ele>717.8</ele>
        <time>2021-10-17T14:59:13Z</time>
      </trkpt>
      <trkpt lat="46.50134" lon="5.96278">
        <ele>717.8</ele>
        <time>2021-10-17T14:59:14Z</time>
      </trkpt>
      <trkpt lat="46.50132" lon="5.96271">
        <ele>717.8</ele>
        <time>2021-10-17T14:59:15Z</time>
      </trkpt>
      <trkpt lat="46.5013" lon="5.96264">
        <ele>717.8</ele>
        <time>2021-10-17T14:59:16Z</time>
      </trkpt>
      <trkpt lat="46.50128" lon="5.96258">
        <ele>717.8</ele>
        <time>2021-10-17T14:59:17Z</time>
      </trkpt>
      <trkpt lat="46.50126" lon="5.96251">
        <ele>717.8</ele>
        <time>2021-10-17T14:59:18Z</time>
      </trkpt>
      <trkpt lat="46.50124" lon="5.96245">
        <ele>717.8</ele>
        <time>2021-10-17T14:59:19Z</time>
      </trkpt>
      <trkpt lat="46.50121" lon="5.96238">
        <ele>717.8</ele>
        <time>2021-10-17T14:59:20Z</time>
      </trkpt>
      <trkpt lat="46.50119" lon="5.96231">
        <ele>717.8</ele>
        <time>2021-10-17T14:59:21Z</time>
      </trkpt>
      <trkpt lat="46.50115" lon="5.96225">
        <ele>717.8</ele>
        <time>2021-10-17T14:59:22Z</time>
      </trkpt>
      <trkpt lat="46.50112" lon="5.96218">
        <ele>717.8</ele>
        <time>2021-10-17T14:59:23Z</time>
      </trkpt>
      <trkpt lat="46.50109" lon="5.96211">
        <ele>717.8</ele>
        <time>2021-10-17T14:59:24Z</time>
      </trkpt>
      <trkpt lat="46.50106" lon="5.96204">
        <ele>717.8</ele>
        <time>2021-10-17T14:59:25Z</time>
      </trkpt>
      <trkpt lat="46.50102" lon="5.96198">
        <ele>717.8</ele>
        <time>2021-10-17T14:59:26Z</time>
      </trkpt>
      <trkpt lat="46.50099" lon="5.96191">
        <ele>717.8</ele>
        <time>2021-10-17T14:59:27Z</time>
      </trkpt>
      <trkpt lat="46.50095" lon="5.96184">
        <ele>717.8</ele>
        <time>2021-10-17T14:59:28Z</time>
      </trkpt>
      <trkpt lat="46.50091" lon="5.96176">
        <ele>717.6</ele>
        <time>2021-10-17T14:59:29Z</time>
      </trkpt>
      <trkpt lat="46.50088" lon="5.96169">
        <ele>717.6</ele>
        <time>2021-10-17T14:59:30Z</time>
      </trkpt>
      <trkpt lat="46.50084" lon="5.96162">
        <ele>717.6</ele>
        <time>2021-10-17T14:59:31Z</time>
      </trkpt>
      <trkpt lat="46.50081" lon="5.96154">
        <ele>717.6</ele>
        <time>2021-10-17T14:59:32Z</time>
      </trkpt>
      <trkpt lat="46.50077" lon="5.96146">
        <ele>717.4</ele>
        <time>2021-10-17T14:59:33Z</time>
      </trkpt>
      <trkpt lat="46.50074" lon="5.96138">
        <ele>717.4</ele>
        <time>2021-10-17T14:59:34Z</time>
      </trkpt>
      <trkpt lat="46.5007" lon="5.96131">
        <ele>717.4</ele>
        <time>2021-10-17T14:59:35Z</time>
      </trkpt>
      <trkpt lat="46.50066" lon="5.96123">
        <ele>717</ele>
        <time>2021-10-17T14:59:36Z</time>
      </trkpt>
      <trkpt lat="46.50063" lon="5.96115">
        <ele>717</ele>
        <time>2021-10-17T14:59:37Z</time>
      </trkpt>
      <trkpt lat="46.50059" lon="5.96107">
        <ele>717</ele>
        <time>2021-10-17T14:59:38Z</time>
      </trkpt>
      <trkpt lat="46.50056" lon="5.96099">
        <ele>717</ele>
        <time>2021-10-17T14:59:39Z</time>
      </trkpt>
      <trkpt lat="46.50053" lon="5.96091">
        <ele>716.8</ele>
        <time>2021-10-17T14:59:40Z</time>
      </trkpt>
      <trkpt lat="46.5005" lon="5.96083">
        <ele>716.8</ele>
        <time>2021-10-17T14:59:41Z</time>
      </trkpt>
      <trkpt lat="46.50046" lon="5.96076">
        <ele>716.8</ele>
        <time>2021-10-17T14:59:42Z</time>
      </trkpt>
      <trkpt lat="46.50042" lon="5.96068">
        <ele>716.8</ele>
        <time>2021-10-17T14:59:43Z</time>
      </trkpt>
      <trkpt lat="46.50038" lon="5.9606">
        <ele>716.8</ele>
        <time>2021-10-17T14:59:44Z</time>
      </trkpt>
      <trkpt lat="46.50034" lon="5.96051">
        <ele>716.6</ele>
        <time>2021-10-17T14:59:45Z</time>
      </trkpt>
      <trkpt lat="46.50031" lon="5.96043">
        <ele>716.6</ele>
        <time>2021-10-17T14:59:46Z</time>
      </trkpt>
      <trkpt lat="46.50027" lon="5.96036">
        <ele>716.6</ele>
        <time>2021-10-17T14:59:47Z</time>
      </trkpt>
      <trkpt lat="46.50024" lon="5.96028">
        <ele>716.6</ele>
        <time>2021-10-17T14:59:48Z</time>
      </trkpt>
      <trkpt lat="46.50021" lon="5.96021">
        <ele>716.4</ele>
        <time>2021-10-17T14:59:49Z</time>
      </trkpt>
      <trkpt lat="46.50018" lon="5.96014">
        <ele>716.4</ele>
        <time>2021-10-17T14:59:50Z</time>
      </trkpt>
      <trkpt lat="46.50014" lon="5.96007">
        <ele>716.4</ele>
        <time>2021-10-17T14:59:51Z</time>
      </trkpt>
      <trkpt lat="46.50011" lon="5.96">
        <ele>716.4</ele>
        <time>2021-10-17T14:59:52Z</time>
      </trkpt>
      <trkpt lat="46.50008" lon="5.95993">
        <ele>716.4</ele>
        <time>2021-10-17T14:59:53Z</time>
      </trkpt>
      <trkpt lat="46.50004" lon="5.95986">
        <ele>716.2</ele>
        <time>2021-10-17T14:59:54Z</time>
      </trkpt>
      <trkpt lat="46.5" lon="5.95978">
        <ele>716.2</ele>
        <time>2021-10-17T14:59:55Z</time>
      </trkpt>
      <trkpt lat="46.49996" lon="5.95969">
        <ele>716.2</ele>
        <time>2021-10-17T14:59:56Z</time>
      </trkpt>
      <trkpt lat="46.49992" lon="5.95961">
        <ele>715.8</ele>
        <time>2021-10-17T14:59:57Z</time>
      </trkpt>
      <trkpt lat="46.49987" lon="5.95953">
        <ele>715.8</ele>
        <time>2021-10-17T14:59:58Z</time>
      </trkpt>
      <trkpt lat="46.49983" lon="5.95944">
        <ele>715.8</ele>
        <time>2021-10-17T14:59:59Z</time>
      </trkpt>
      <trkpt lat="46.49978" lon="5.95936">
        <ele>715.6</ele>
        <time>2021-10-17T15:00:00Z</time>
      </trkpt>
      <trkpt lat="46.49973" lon="5.95928">
        <ele>715.6</ele>
        <time>2021-10-17T15:00:01Z</time>
      </trkpt>
      <trkpt lat="46.49968" lon="5.9592">
        <ele>715.6</ele>
        <time>2021-10-17T15:00:02Z</time>
      </trkpt>
      <trkpt lat="46.49964" lon="5.95912">
        <ele>715.6</ele>
        <time>2021-10-17T15:00:03Z</time>
      </trkpt>
      <trkpt lat="46.49961" lon="5.95904">
        <ele>715.6</ele>
        <time>2021-10-17T15:00:04Z</time>
      </trkpt>
      <trkpt lat="46.49958" lon="5.95896">
        <ele>715.4</ele>
        <time>2021-10-17T15:00:05Z</time>
      </trkpt>
      <trkpt lat="46.49955" lon="5.95887">
        <ele>715.4</ele>
        <time>2021-10-17T15:00:06Z</time>
      </trkpt>
      <trkpt lat="46.49952" lon="5.95879">
        <ele>715.4</ele>
        <time>2021-10-17T15:00:07Z</time>
      </trkpt>
      <trkpt lat="46.49949" lon="5.95871">
        <ele>715.2</ele>
        <time>2021-10-17T15:00:08Z</time>
      </trkpt>
      <trkpt lat="46.49944" lon="5.95864">
        <ele>715.2</ele>
        <time>2021-10-17T15:00:09Z</time>
      </trkpt>
      <trkpt lat="46.49939" lon="5.95859">
        <ele>715.2</ele>
        <time>2021-10-17T15:00:10Z</time>
      </trkpt>
      <trkpt lat="46.49934" lon="5.95856">
        <ele>715.2</ele>
        <time>2021-10-17T15:00:11Z</time>
      </trkpt>
      <trkpt lat="46.49929" lon="5.95854">
        <ele>715.2</ele>
        <time>2021-10-17T15:00:12Z</time>
      </trkpt>
      <trkpt lat="46.49924" lon="5.95853">
        <ele>715.2</ele>
        <time>2021-10-17T15:00:13Z</time>
      </trkpt>
      <trkpt lat="46.49918" lon="5.95853">
        <ele>715.2</ele>
        <time>2021-10-17T15:00:14Z</time>
      </trkpt>
      <trkpt lat="46.49913" lon="5.95852">
        <ele>715</ele>
        <time>2021-10-17T15:00:15Z</time>
      </trkpt>
      <trkpt lat="46.49907" lon="5.9585">
        <ele>715</ele>
        <time>2021-10-17T15:00:16Z</time>
      </trkpt>
      <trkpt lat="46.49901" lon="5.95847">
        <ele>715</ele>
        <time>2021-10-17T15:00:17Z</time>
      </trkpt>
      <trkpt lat="46.49896" lon="5.95842">
        <ele>715</ele>
        <time>2021-10-17T15:00:18Z</time>
      </trkpt>
      <trkpt lat="46.49891" lon="5.95836">
        <ele>715</ele>
        <time>2021-10-17T15:00:19Z</time>
      </trkpt>
      <trkpt lat="46.49886" lon="5.9583">
        <ele>715</ele>
        <time>2021-10-17T15:00:20Z</time>
      </trkpt>
      <trkpt lat="46.49882" lon="5.95824">
        <ele>715</ele>
        <time>2021-10-17T15:00:21Z</time>
      </trkpt>
      <trkpt lat="46.49876" lon="5.95818">
        <ele>715</ele>
        <time>2021-10-17T15:00:22Z</time>
      </trkpt>
      <trkpt lat="46.49871" lon="5.95814">
        <ele>715</ele>
        <time>2021-10-17T15:00:23Z</time>
      </trkpt>
      <trkpt lat="46.49865" lon="5.9581">
        <ele>715</ele>
        <time>2021-10-17T15:00:24Z</time>
      </trkpt>
      <trkpt lat="46.49859" lon="5.95807">
        <ele>715</ele>
        <time>2021-10-17T15:00:25Z</time>
      </trkpt>
      <trkpt lat="46.49853" lon="5.95806">
        <ele>715</ele>
        <time>2021-10-17T15:00:26Z</time>
      </trkpt>
      <trkpt lat="46.49847" lon="5.95805">
        <ele>715.2</ele>
        <time>2021-10-17T15:00:27Z</time>
      </trkpt>
      <trkpt lat="46.49841" lon="5.95806">
        <ele>715.2</ele>
        <time>2021-10-17T15:00:28Z</time>
      </trkpt>
      <trkpt lat="46.49835" lon="5.95806">
        <ele>715.2</ele>
        <time>2021-10-17T15:00:29Z</time>
      </trkpt>
      <trkpt lat="46.4983" lon="5.95806">
        <ele>715.2</ele>
        <time>2021-10-17T15:00:30Z</time>
      </trkpt>
      <trkpt lat="46.49825" lon="5.95804">
        <ele>715.4</ele>
        <time>2021-10-17T15:00:31Z</time>
      </trkpt>
      <trkpt lat="46.4982" lon="5.95801">
        <ele>715.4</ele>
        <time>2021-10-17T15:00:32Z</time>
      </trkpt>
      <trkpt lat="46.49815" lon="5.95799">
        <ele>715.4</ele>
        <time>2021-10-17T15:00:33Z</time>
      </trkpt>
      <trkpt lat="46.4981" lon="5.95796">
        <ele>715.8</ele>
        <time>2021-10-17T15:00:34Z</time>
      </trkpt>
      <trkpt lat="46.49804" lon="5.95793">
        <ele>715.8</ele>
        <time>2021-10-17T15:00:35Z</time>
      </trkpt>
      <trkpt lat="46.49799" lon="5.95789">
        <ele>716</ele>
        <time>2021-10-17T15:00:36Z</time>
      </trkpt>
      <trkpt lat="46.49794" lon="5.95786">
        <ele>716</ele>
        <time>2021-10-17T15:00:37Z</time>
      </trkpt>
      <trkpt lat="46.49789" lon="5.95782">
        <ele>716.2</ele>
        <time>2021-10-17T15:00:38Z</time>
      </trkpt>
      <trkpt lat="46.49784" lon="5.95779">
        <ele>716.2</ele>
        <time>2021-10-17T15:00:39Z</time>
      </trkpt>
      <trkpt lat="46.49778" lon="5.95776">
        <ele>716.2</ele>
        <time>2021-10-17T15:00:40Z</time>
      </trkpt>
      <trkpt lat="46.49774" lon="5.95773">
        <ele>716.2</ele>
        <time>2021-10-17T15:00:41Z</time>
      </trkpt>
      <trkpt lat="46.49769" lon="5.9577">
        <ele>716.2</ele>
        <time>2021-10-17T15:00:42Z</time>
      </trkpt>
      <trkpt lat="46.49764" lon="5.95767">
        <ele>716.2</ele>
        <time>2021-10-17T15:00:43Z</time>
      </trkpt>
      <trkpt lat="46.49759" lon="5.95765">
        <ele>716.4</ele>
        <time>2021-10-17T15:00:44Z</time>
      </trkpt>
      <trkpt lat="46.49754" lon="5.95762">
        <ele>716.4</ele>
        <time>2021-10-17T15:00:45Z</time>
      </trkpt>
      <trkpt lat="46.49749" lon="5.95758">
        <ele>716.4</ele>
        <time>2021-10-17T15:00:46Z</time>
      </trkpt>
      <trkpt lat="46.49743" lon="5.95754">
        <ele>716.4</ele>
        <time>2021-10-17T15:00:47Z</time>
      </trkpt>
      <trkpt lat="46.49738" lon="5.9575">
        <ele>716.4</ele>
        <time>2021-10-17T15:00:48Z</time>
      </trkpt>
      <trkpt lat="46.49732" lon="5.95746">
        <ele>716.4</ele>
        <time>2021-10-17T15:00:49Z</time>
      </trkpt>
      <trkpt lat="46.49727" lon="5.95741">
        <ele>716.8</ele>
        <time>2021-10-17T15:00:50Z</time>
      </trkpt>
      <trkpt lat="46.49722" lon="5.95737">
        <ele>716.8</ele>
        <time>2021-10-17T15:00:51Z</time>
      </trkpt>
      <trkpt lat="46.49717" lon="5.95732">
        <ele>716.8</ele>
        <time>2021-10-17T15:00:52Z</time>
      </trkpt>
      <trkpt lat="46.49712" lon="5.95727">
        <ele>717</ele>
        <time>2021-10-17T15:00:53Z</time>
      </trkpt>
      <trkpt lat="46.49707" lon="5.95723">
        <ele>717</ele>
        <time>2021-10-17T15:00:54Z</time>
      </trkpt>
      <trkpt lat="46.49702" lon="5.95718">
        <ele>717</ele>
        <time>2021-10-17T15:00:55Z</time>
      </trkpt>
      <trkpt lat="46.49697" lon="5.95714">
        <ele>717.2</ele>
        <time>2021-10-17T15:00:56Z</time>
      </trkpt>
      <trkpt lat="46.49692" lon="5.95709">
        <ele>717.2</ele>
        <time>2021-10-17T15:00:57Z</time>
      </trkpt>
      <trkpt lat="46.49687" lon="5.95704">
        <ele>717.4</ele>
        <time>2021-10-17T15:00:58Z</time>
      </trkpt>
      <trkpt lat="46.49683" lon="5.95699">
        <ele>717.4</ele>
        <time>2021-10-17T15:00:59Z</time>
      </trkpt>
      <trkpt lat="46.49678" lon="5.95693">
        <ele>717.4</ele>
        <time>2021-10-17T15:01:00Z</time>
      </trkpt>
      <trkpt lat="46.49674" lon="5.95687">
        <ele>717.4</ele>
        <time>2021-10-17T15:01:01Z</time>
      </trkpt>
      <trkpt lat="46.4967" lon="5.95682">
        <ele>717.4</ele>
        <time>2021-10-17T15:01:02Z</time>
      </trkpt>
      <trkpt lat="46.49666" lon="5.95676">
        <ele>717.6</ele>
        <time>2021-10-17T15:01:03Z</time>
      </trkpt>
      <trkpt lat="46.49662" lon="5.9567">
        <ele>717.6</ele>
        <time>2021-10-17T15:01:04Z</time>
      </trkpt>
      <trkpt lat="46.49658" lon="5.95663">
        <ele>717.6</ele>
        <time>2021-10-17T15:01:05Z</time>
      </trkpt>
      <trkpt lat="46.49654" lon="5.95656">
        <ele>717.8</ele>
        <time>2021-10-17T15:01:06Z</time>
      </trkpt>
      <trkpt lat="46.49651" lon="5.95649">
        <ele>717.8</ele>
        <time>2021-10-17T15:01:07Z</time>
      </trkpt>
      <trkpt lat="46.49648" lon="5.95642">
        <ele>717.8</ele>
        <time>2021-10-17T15:01:08Z</time>
      </trkpt>
      <trkpt lat="46.49645" lon="5.95635">
        <ele>718.2</ele>
        <time>2021-10-17T15:01:09Z</time>
      </trkpt>
      <trkpt lat="46.49642" lon="5.95629">
        <ele>718.2</ele>
        <time>2021-10-17T15:01:10Z</time>
      </trkpt>
      <trkpt lat="46.4964" lon="5.95622">
        <ele>718.2</ele>
        <time>2021-10-17T15:01:11Z</time>
      </trkpt>
      <trkpt lat="46.49637" lon="5.95616">
        <ele>718.4</ele>
        <time>2021-10-17T15:01:12Z</time>
      </trkpt>
      <trkpt lat="46.49634" lon="5.95609">
        <ele>718.4</ele>
        <time>2021-10-17T15:01:13Z</time>
      </trkpt>
      <trkpt lat="46.49631" lon="5.95603">
        <ele>718.4</ele>
        <time>2021-10-17T15:01:14Z</time>
      </trkpt>
      <trkpt lat="46.49629" lon="5.95597">
        <ele>718.4</ele>
        <time>2021-10-17T15:01:15Z</time>
      </trkpt>
      <trkpt lat="46.49626" lon="5.9559">
        <ele>718.4</ele>
        <time>2021-10-17T15:01:16Z</time>
      </trkpt>
      <trkpt lat="46.49623" lon="5.95583">
        <ele>718.4</ele>
        <time>2021-10-17T15:01:17Z</time>
      </trkpt>
      <trkpt lat="46.49621" lon="5.95576">
        <ele>718.4</ele>
        <time>2021-10-17T15:01:18Z</time>
      </trkpt>
      <trkpt lat="46.49618" lon="5.95569">
        <ele>718.6</ele>
        <time>2021-10-17T15:01:19Z</time>
      </trkpt>
      <trkpt lat="46.49616" lon="5.95562">
        <ele>718.6</ele>
        <time>2021-10-17T15:01:20Z</time>
      </trkpt>
      <trkpt lat="46.49613" lon="5.95555">
        <ele>718.6</ele>
        <time>2021-10-17T15:01:21Z</time>
      </trkpt>
      <trkpt lat="46.49611" lon="5.95548">
        <ele>718.6</ele>
        <time>2021-10-17T15:01:22Z</time>
      </trkpt>
      <trkpt lat="46.49609" lon="5.95541">
        <ele>718.8</ele>
        <time>2021-10-17T15:01:23Z</time>
      </trkpt>
      <trkpt lat="46.49607" lon="5.95534">
        <ele>718.8</ele>
        <time>2021-10-17T15:01:24Z</time>
      </trkpt>
      <trkpt lat="46.49605" lon="5.95528">
        <ele>718.8</ele>
        <time>2021-10-17T15:01:25Z</time>
      </trkpt>
      <trkpt lat="46.49603" lon="5.95521">
        <ele>719</ele>
        <time>2021-10-17T15:01:26Z</time>
      </trkpt>
      <trkpt lat="46.49601" lon="5.95515">
        <ele>719</ele>
        <time>2021-10-17T15:01:27Z</time>
      </trkpt>
      <trkpt lat="46.49598" lon="5.95509">
        <ele>719</ele>
        <time>2021-10-17T15:01:28Z</time>
      </trkpt>
      <trkpt lat="46.49596" lon="5.95502">
        <ele>719.2</ele>
        <time>2021-10-17T15:01:29Z</time>
      </trkpt>
      <trkpt lat="46.49593" lon="5.95495">
        <ele>719.2</ele>
        <time>2021-10-17T15:01:30Z</time>
      </trkpt>
      <trkpt lat="46.49591" lon="5.95488">
        <ele>719.2</ele>
        <time>2021-10-17T15:01:31Z</time>
      </trkpt>
      <trkpt lat="46.49588" lon="5.95481">
        <ele>719.2</ele>
        <time>2021-10-17T15:01:32Z</time>
      </trkpt>
      <trkpt lat="46.49584" lon="5.95474">
        <ele>719.2</ele>
        <time>2021-10-17T15:01:33Z</time>
      </trkpt>
      <trkpt lat="46.49581" lon="5.95467">
        <ele>719.2</ele>
        <time>2021-10-17T15:01:34Z</time>
      </trkpt>
      <trkpt lat="46.49578" lon="5.9546">
        <ele>719.2</ele>
        <time>2021-10-17T15:01:35Z</time>
      </trkpt>
      <trkpt lat="46.49575" lon="5.95453">
        <ele>719.2</ele>
        <time>2021-10-17T15:01:36Z</time>
      </trkpt>
      <trkpt lat="46.49572" lon="5.95447">
        <ele>719.2</ele>
        <time>2021-10-17T15:01:37Z</time>
      </trkpt>
      <trkpt lat="46.49568" lon="5.9544">
        <ele>719.2</ele>
        <time>2021-10-17T15:01:38Z</time>
      </trkpt>
      <trkpt lat="46.49566" lon="5.95434">
        <ele>719.2</ele>
        <time>2021-10-17T15:01:39Z</time>
      </trkpt>
      <trkpt lat="46.49562" lon="5.95427">
        <ele>719.2</ele>
        <time>2021-10-17T15:01:40Z</time>
      </trkpt>
      <trkpt lat="46.49559" lon="5.95421">
        <ele>719.6</ele>
        <time>2021-10-17T15:01:41Z</time>
      </trkpt>
      <trkpt lat="46.49556" lon="5.95414">
        <ele>719.6</ele>
        <time>2021-10-17T15:01:42Z</time>
      </trkpt>
      <trkpt lat="46.49552" lon="5.95407">
        <ele>719.6</ele>
        <time>2021-10-17T15:01:43Z</time>
      </trkpt>
      <trkpt lat="46.49549" lon="5.95401">
        <ele>719.6</ele>
        <time>2021-10-17T15:01:44Z</time>
      </trkpt>
      <trkpt lat="46.49546" lon="5.95394">
        <ele>719.6</ele>
        <time>2021-10-17T15:01:45Z</time>
      </trkpt>
      <trkpt lat="46.49542" lon="5.95387">
        <ele>719.6</ele>
        <time>2021-10-17T15:01:46Z</time>
      </trkpt>
      <trkpt lat="46.49539" lon="5.9538">
        <ele>719.6</ele>
        <time>2021-10-17T15:01:47Z</time>
      </trkpt>
      <trkpt lat="46.49536" lon="5.95374">
        <ele>719.6</ele>
        <time>2021-10-17T15:01:48Z</time>
      </trkpt>
      <trkpt lat="46.49532" lon="5.95368">
        <ele>719.6</ele>
        <time>2021-10-17T15:01:49Z</time>
      </trkpt>
      <trkpt lat="46.49529" lon="5.9536">
        <ele>719.6</ele>
        <time>2021-10-17T15:01:50Z</time>
      </trkpt>
      <trkpt lat="46.49525" lon="5.95353">
        <ele>719.6</ele>
        <time>2021-10-17T15:01:51Z</time>
      </trkpt>
      <trkpt lat="46.49522" lon="5.95346">
        <ele>719.6</ele>
        <time>2021-10-17T15:01:52Z</time>
      </trkpt>
      <trkpt lat="46.49518" lon="5.95338">
        <ele>719.2</ele>
        <time>2021-10-17T15:01:53Z</time>
      </trkpt>
      <trkpt lat="46.49514" lon="5.95331">
        <ele>719.2</ele>
        <time>2021-10-17T15:01:54Z</time>
      </trkpt>
      <trkpt lat="46.49511" lon="5.95322">
        <ele>719.2</ele>
        <time>2021-10-17T15:01:55Z</time>
      </trkpt>
      <trkpt lat="46.49508" lon="5.95314">
        <ele>719</ele>
        <time>2021-10-17T15:01:56Z</time>
      </trkpt>
      <trkpt lat="46.49504" lon="5.95306">
        <ele>719</ele>
        <time>2021-10-17T15:01:57Z</time>
      </trkpt>
      <trkpt lat="46.49501" lon="5.95297">
        <ele>719</ele>
        <time>2021-10-17T15:01:58Z</time>
      </trkpt>
      <trkpt lat="46.49498" lon="5.95288">
        <ele>719</ele>
        <time>2021-10-17T15:01:59Z</time>
      </trkpt>
      <trkpt lat="46.49495" lon="5.9528">
        <ele>718.8</ele>
        <time>2021-10-17T15:02:00Z</time>
      </trkpt>
      <trkpt lat="46.49491" lon="5.95271">
        <ele>718.8</ele>
        <time>2021-10-17T15:02:01Z</time>
      </trkpt>
      <trkpt lat="46.49489" lon="5.95262">
        <ele>718.8</ele>
        <time>2021-10-17T15:02:02Z</time>
      </trkpt>
      <trkpt lat="46.49486" lon="5.95251">
        <ele>718.8</ele>
        <time>2021-10-17T15:02:03Z</time>
      </trkpt>
      <trkpt lat="46.49483" lon="5.9524">
        <ele>718.4</ele>
        <time>2021-10-17T15:02:04Z</time>
      </trkpt>
      <trkpt lat="46.49481" lon="5.95229">
        <ele>718.4</ele>
        <time>2021-10-17T15:02:05Z</time>
      </trkpt>
      <trkpt lat="46.4948" lon="5.95219">
        <ele>718.4</ele>
        <time>2021-10-17T15:02:06Z</time>
      </trkpt>
      <trkpt lat="46.49479" lon="5.9521">
        <ele>718.4</ele>
        <time>2021-10-17T15:02:07Z</time>
      </trkpt>
      <trkpt lat="46.49478" lon="5.952">
        <ele>718</ele>
        <time>2021-10-17T15:02:08Z</time>
      </trkpt>
      <trkpt lat="46.49478" lon="5.9519">
        <ele>718</ele>
        <time>2021-10-17T15:02:09Z</time>
      </trkpt>
      <trkpt lat="46.49479" lon="5.95179">
        <ele>717.8</ele>
        <time>2021-10-17T15:02:10Z</time>
      </trkpt>
      <trkpt lat="46.4948" lon="5.95169">
        <ele>717.8</ele>
        <time>2021-10-17T15:02:11Z</time>
      </trkpt>
      <trkpt lat="46.49481" lon="5.95157">
        <ele>717.8</ele>
        <time>2021-10-17T15:02:12Z</time>
      </trkpt>
      <trkpt lat="46.49482" lon="5.95146">
        <ele>717.6</ele>
        <time>2021-10-17T15:02:13Z</time>
      </trkpt>
      <trkpt lat="46.49484" lon="5.95135">
        <ele>717.6</ele>
        <time>2021-10-17T15:02:14Z</time>
      </trkpt>
      <trkpt lat="46.49485" lon="5.95124">
        <ele>717.6</ele>
        <time>2021-10-17T15:02:15Z</time>
      </trkpt>
      <trkpt lat="46.49487" lon="5.95114">
        <ele>717.6</ele>
        <time>2021-10-17T15:02:16Z</time>
      </trkpt>
      <trkpt lat="46.49489" lon="5.95104">
        <ele>717.6</ele>
        <time>2021-10-17T15:02:17Z</time>
      </trkpt>
      <trkpt lat="46.49492" lon="5.95094">
        <ele>717.2</ele>
        <time>2021-10-17T15:02:18Z</time>
      </trkpt>
      <trkpt lat="46.49496" lon="5.95085">
        <ele>717.2</ele>
        <time>2021-10-17T15:02:19Z</time>
      </trkpt>
      <trkpt lat="46.495" lon="5.95076">
        <ele>717.2</ele>
        <time>2021-10-17T15:02:20Z</time>
      </trkpt>
      <trkpt lat="46.49504" lon="5.95068">
        <ele>717</ele>
        <time>2021-10-17T15:02:21Z</time>
      </trkpt>
      <trkpt lat="46.49509" lon="5.9506">
        <ele>717</ele>
        <time>2021-10-17T15:02:22Z</time>
      </trkpt>
      <trkpt lat="46.49513" lon="5.95053">
        <ele>716.8</ele>
        <time>2021-10-17T15:02:23Z</time>
      </trkpt>
      <trkpt lat="46.49518" lon="5.95046">
        <ele>716.8</ele>
        <time>2021-10-17T15:02:24Z</time>
      </trkpt>
      <trkpt lat="46.49524" lon="5.95039">
        <ele>716.6</ele>
        <time>2021-10-17T15:02:25Z</time>
      </trkpt>
      <trkpt lat="46.49529" lon="5.95034">
        <ele>716.6</ele>
        <time>2021-10-17T15:02:26Z</time>
      </trkpt>
      <trkpt lat="46.49535" lon="5.95028">
        <ele>716.6</ele>
        <time>2021-10-17T15:02:27Z</time>
      </trkpt>
      <trkpt lat="46.49541" lon="5.95023">
        <ele>716.4</ele>
        <time>2021-10-17T15:02:28Z</time>
      </trkpt>
      <trkpt lat="46.49547" lon="5.95018">
        <ele>716.4</ele>
        <time>2021-10-17T15:02:29Z</time>
      </trkpt>
      <trkpt lat="46.49553" lon="5.95014">
        <ele>716</ele>
        <time>2021-10-17T15:02:30Z</time>
      </trkpt>
      <trkpt lat="46.49559" lon="5.9501">
        <ele>716</ele>
        <time>2021-10-17T15:02:31Z</time>
      </trkpt>
      <trkpt lat="46.49565" lon="5.95005">
        <ele>715.8</ele>
        <time>2021-10-17T15:02:32Z</time>
      </trkpt>
      <trkpt lat="46.49571" lon="5.95001">
        <ele>715.8</ele>
        <time>2021-10-17T15:02:33Z</time>
      </trkpt>
      <trkpt lat="46.49577" lon="5.94997">
        <ele>715.8</ele>
        <time>2021-10-17T15:02:34Z</time>
      </trkpt>
      <trkpt lat="46.49584" lon="5.94992">
        <ele>715.8</ele>
        <time>2021-10-17T15:02:35Z</time>
      </trkpt>
      <trkpt lat="46.4959" lon="5.94987">
        <ele>715.6</ele>
        <time>2021-10-17T15:02:36Z</time>
      </trkpt>
      <trkpt lat="46.49596" lon="5.9498">
        <ele>715.6</ele>
        <time>2021-10-17T15:02:37Z</time>
      </trkpt>
      <trkpt lat="46.49601" lon="5.94974">
        <ele>715.6</ele>
        <time>2021-10-17T15:02:38Z</time>
      </trkpt>
      <trkpt lat="46.49606" lon="5.94967">
        <ele>715.6</ele>
        <time>2021-10-17T15:02:39Z</time>
      </trkpt>
      <trkpt lat="46.49611" lon="5.9496">
        <ele>715.4</ele>
        <time>2021-10-17T15:02:40Z</time>
      </trkpt>
      <trkpt lat="46.49616" lon="5.94952">
        <ele>715.4</ele>
        <time>2021-10-17T15:02:41Z</time>
      </trkpt>
      <trkpt lat="46.49622" lon="5.94945">
        <ele>715.4</ele>
        <time>2021-10-17T15:02:42Z</time>
      </trkpt>
      <trkpt lat="46.49627" lon="5.94937">
        <ele>715.4</ele>
        <time>2021-10-17T15:02:43Z</time>
      </trkpt>
      <trkpt lat="46.49632" lon="5.94929">
        <ele>715.2</ele>
        <time>2021-10-17T15:02:44Z</time>
      </trkpt>
      <trkpt lat="46.49637" lon="5.94921">
        <ele>715.2</ele>
        <time>2021-10-17T15:02:45Z</time>
      </trkpt>
      <trkpt lat="46.49643" lon="5.94913">
        <ele>714.8</ele>
        <time>2021-10-17T15:02:46Z</time>
      </trkpt>
      <trkpt lat="46.49648" lon="5.94906">
        <ele>714.8</ele>
        <time>2021-10-17T15:02:47Z</time>
      </trkpt>
      <trkpt lat="46.49653" lon="5.94898">
        <ele>714.8</ele>
        <time>2021-10-17T15:02:48Z</time>
      </trkpt>
      <trkpt lat="46.49658" lon="5.9489">
        <ele>714.8</ele>
        <time>2021-10-17T15:02:49Z</time>
      </trkpt>
      <trkpt lat="46.49664" lon="5.94882">
        <ele>714.6</ele>
        <time>2021-10-17T15:02:50Z</time>
      </trkpt>
      <trkpt lat="46.49669" lon="5.94874">
        <ele>714.6</ele>
        <time>2021-10-17T15:02:51Z</time>
      </trkpt>
      <trkpt lat="46.49674" lon="5.94867">
        <ele>714.6</ele>
        <time>2021-10-17T15:02:52Z</time>
      </trkpt>
      <trkpt lat="46.49678" lon="5.94859">
        <ele>714.4</ele>
        <time>2021-10-17T15:02:53Z</time>
      </trkpt>
      <trkpt lat="46.49683" lon="5.94851">
        <ele>714.4</ele>
        <time>2021-10-17T15:02:54Z</time>
      </trkpt>
      <trkpt lat="46.49688" lon="5.94843">
        <ele>714.4</ele>
        <time>2021-10-17T15:02:55Z</time>
      </trkpt>
      <trkpt lat="46.49693" lon="5.94835">
        <ele>714</ele>
        <time>2021-10-17T15:02:56Z</time>
      </trkpt>
      <trkpt lat="46.49698" lon="5.94827">
        <ele>714</ele>
        <time>2021-10-17T15:02:57Z</time>
      </trkpt>
      <trkpt lat="46.49703" lon="5.94819">
        <ele>713.8</ele>
        <time>2021-10-17T15:02:58Z</time>
      </trkpt>
      <trkpt lat="46.49708" lon="5.94812">
        <ele>713.8</ele>
        <time>2021-10-17T15:02:59Z</time>
      </trkpt>
      <trkpt lat="46.49714" lon="5.94805">
        <ele>713.8</ele>
        <time>2021-10-17T15:03:00Z</time>
      </trkpt>
      <trkpt lat="46.49719" lon="5.94799">
        <ele>713.8</ele>
        <time>2021-10-17T15:03:01Z</time>
      </trkpt>
      <trkpt lat="46.49725" lon="5.94792">
        <ele>713.6</ele>
        <time>2021-10-17T15:03:02Z</time>
      </trkpt>
      <trkpt lat="46.49731" lon="5.94785">
        <ele>713.6</ele>
        <time>2021-10-17T15:03:03Z</time>
      </trkpt>
      <trkpt lat="46.49736" lon="5.94779">
        <ele>713.2</ele>
        <time>2021-10-17T15:03:04Z</time>
      </trkpt>
      <trkpt lat="46.49742" lon="5.94772">
        <ele>713.2</ele>
        <time>2021-10-17T15:03:05Z</time>
      </trkpt>
      <trkpt lat="46.49748" lon="5.94766">
        <ele>713</ele>
        <time>2021-10-17T15:03:06Z</time>
      </trkpt>
      <trkpt lat="46.49754" lon="5.94759">
        <ele>713</ele>
        <time>2021-10-17T15:03:07Z</time>
      </trkpt>
      <trkpt lat="46.4976" lon="5.94753">
        <ele>713</ele>
        <time>2021-10-17T15:03:08Z</time>
      </trkpt>
      <trkpt lat="46.49766" lon="5.94748">
        <ele>713</ele>
        <time>2021-10-17T15:03:09Z</time>
      </trkpt>
      <trkpt lat="46.49772" lon="5.94742">
        <ele>713</ele>
        <time>2021-10-17T15:03:10Z</time>
      </trkpt>
      <trkpt lat="46.49779" lon="5.94736">
        <ele>713</ele>
        <time>2021-10-17T15:03:11Z</time>
      </trkpt>
      <trkpt lat="46.49785" lon="5.9473">
        <ele>712.8</ele>
        <time>2021-10-17T15:03:12Z</time>
      </trkpt>
      <trkpt lat="46.49791" lon="5.94722">
        <ele>712.8</ele>
        <time>2021-10-17T15:03:13Z</time>
      </trkpt>
      <trkpt lat="46.49796" lon="5.94715">
        <ele>712.8</ele>
        <time>2021-10-17T15:03:14Z</time>
      </trkpt>
      <trkpt lat="46.49802" lon="5.94707">
        <ele>712.8</ele>
        <time>2021-10-17T15:03:15Z</time>
      </trkpt>
      <trkpt lat="46.49807" lon="5.947">
        <ele>712.6</ele>
        <time>2021-10-17T15:03:16Z</time>
      </trkpt>
      <trkpt lat="46.49813" lon="5.94691">
        <ele>712.6</ele>
        <time>2021-10-17T15:03:17Z</time>
      </trkpt>
      <trkpt lat="46.49817" lon="5.94683">
        <ele>712.4</ele>
        <time>2021-10-17T15:03:18Z</time>
      </trkpt>
      <trkpt lat="46.49822" lon="5.94675">
        <ele>712.4</ele>
        <time>2021-10-17T15:03:19Z</time>
      </trkpt>
      <trkpt lat="46.49828" lon="5.94667">
        <ele>712.4</ele>
        <time>2021-10-17T15:03:20Z</time>
      </trkpt>
      <trkpt lat="46.49833" lon="5.9466">
        <ele>712.4</ele>
        <time>2021-10-17T15:03:21Z</time>
      </trkpt>
      <trkpt lat="46.49839" lon="5.94653">
        <ele>712.2</ele>
        <time>2021-10-17T15:03:22Z</time>
      </trkpt>
      <trkpt lat="46.49845" lon="5.94647">
        <ele>712.2</ele>
        <time>2021-10-17T15:03:23Z</time>
      </trkpt>
      <trkpt lat="46.4985" lon="5.94642">
        <ele>712.2</ele>
        <time>2021-10-17T15:03:24Z</time>
      </trkpt>
      <trkpt lat="46.49857" lon="5.94636">
        <ele>712.2</ele>
        <time>2021-10-17T15:03:25Z</time>
      </trkpt>
      <trkpt lat="46.49863" lon="5.94631">
        <ele>712</ele>
        <time>2021-10-17T15:03:26Z</time>
      </trkpt>
      <trkpt lat="46.49869" lon="5.94626">
        <ele>712</ele>
        <time>2021-10-17T15:03:27Z</time>
      </trkpt>
      <trkpt lat="46.49876" lon="5.94622">
        <ele>712</ele>
        <time>2021-10-17T15:03:28Z</time>
      </trkpt>
      <trkpt lat="46.49882" lon="5.94618">
        <ele>712</ele>
        <time>2021-10-17T15:03:29Z</time>
      </trkpt>
      <trkpt lat="46.49888" lon="5.94613">
        <ele>712</ele>
        <time>2021-10-17T15:03:30Z</time>
      </trkpt>
      <trkpt lat="46.49895" lon="5.94609">
        <ele>712</ele>
        <time>2021-10-17T15:03:31Z</time>
      </trkpt>
      <trkpt lat="46.49901" lon="5.94605">
        <ele>712.2</ele>
        <time>2021-10-17T15:03:32Z</time>
      </trkpt>
      <trkpt lat="46.49907" lon="5.94602">
        <ele>712.2</ele>
        <time>2021-10-17T15:03:33Z</time>
      </trkpt>
      <trkpt lat="46.49914" lon="5.946">
        <ele>712.4</ele>
        <time>2021-10-17T15:03:34Z</time>
      </trkpt>
      <trkpt lat="46.4992" lon="5.94599">
        <ele>712.4</ele>
        <time>2021-10-17T15:03:35Z</time>
      </trkpt>
      <trkpt lat="46.49926" lon="5.94599">
        <ele>712.8</ele>
        <time>2021-10-17T15:03:36Z</time>
      </trkpt>
      <trkpt lat="46.49932" lon="5.94599">
        <ele>712.8</ele>
        <time>2021-10-17T15:03:37Z</time>
      </trkpt>
      <trkpt lat="46.49938" lon="5.94599">
        <ele>713</ele>
        <time>2021-10-17T15:03:38Z</time>
      </trkpt>
      <trkpt lat="46.49943" lon="5.94599">
        <ele>713</ele>
        <time>2021-10-17T15:03:39Z</time>
      </trkpt>
      <trkpt lat="46.49949" lon="5.94598">
        <ele>713</ele>
        <time>2021-10-17T15:03:40Z</time>
      </trkpt>
      <trkpt lat="46.49955" lon="5.94597">
        <ele>713</ele>
        <time>2021-10-17T15:03:41Z</time>
      </trkpt>
      <trkpt lat="46.4996" lon="5.94594">
        <ele>713</ele>
        <time>2021-10-17T15:03:42Z</time>
      </trkpt>
      <trkpt lat="46.49966" lon="5.94591">
        <ele>713.2</ele>
        <time>2021-10-17T15:03:43Z</time>
      </trkpt>
      <trkpt lat="46.49972" lon="5.94588">
        <ele>713.2</ele>
        <time>2021-10-17T15:03:44Z</time>
      </trkpt>
      <trkpt lat="46.49977" lon="5.94584">
        <ele>713.6</ele>
        <time>2021-10-17T15:03:45Z</time>
      </trkpt>
      <trkpt lat="46.49981" lon="5.94579">
        <ele>713.6</ele>
        <time>2021-10-17T15:03:46Z</time>
      </trkpt>
      <trkpt lat="46.49985" lon="5.94573">
        <ele>714</ele>
        <time>2021-10-17T15:03:47Z</time>
      </trkpt>
      <trkpt lat="46.49989" lon="5.94567">
        <ele>714</ele>
        <time>2021-10-17T15:03:48Z</time>
      </trkpt>
      <trkpt lat="46.49993" lon="5.94561">
        <ele>714.2</ele>
        <time>2021-10-17T15:03:49Z</time>
      </trkpt>
      <trkpt lat="46.49996" lon="5.94555">
        <ele>714.2</ele>
        <time>2021-10-17T15:03:50Z</time>
      </trkpt>
      <trkpt lat="46.49999" lon="5.94548">
        <ele>714.2</ele>
        <time>2021-10-17T15:03:51Z</time>
      </trkpt>
      <trkpt lat="46.50001" lon="5.94541">
        <ele>714.4</ele>
        <time>2021-10-17T15:03:52Z</time>
      </trkpt>
      <trkpt lat="46.50003" lon="5.94534">
        <ele>714.4</ele>
        <time>2021-10-17T15:03:53Z</time>
      </trkpt>
      <trkpt lat="46.50005" lon="5.94527">
        <ele>714.6</ele>
        <time>2021-10-17T15:03:54Z</time>
      </trkpt>
      <trkpt lat="46.50007" lon="5.94521">
        <ele>714.6</ele>
        <time>2021-10-17T15:03:55Z</time>
      </trkpt>
      <trkpt lat="46.5001" lon="5.94514">
        <ele>715</ele>
        <time>2021-10-17T15:03:56Z</time>
      </trkpt>
      <trkpt lat="46.50012" lon="5.94507">
        <ele>715</ele>
        <time>2021-10-17T15:03:57Z</time>
      </trkpt>
      <trkpt lat="46.50015" lon="5.94501">
        <ele>715.2</ele>
        <time>2021-10-17T15:03:58Z</time>
      </trkpt>
      <trkpt lat="46.50018" lon="5.94494">
        <ele>715.2</ele>
        <time>2021-10-17T15:03:59Z</time>
      </trkpt>
      <trkpt lat="46.5002" lon="5.94488">
        <ele>715.4</ele>
        <time>2021-10-17T15:04:00Z</time>
      </trkpt>
      <trkpt lat="46.50023" lon="5.94482">
        <ele>715.4</ele>
        <time>2021-10-17T15:04:01Z</time>
      </trkpt>
      <trkpt lat="46.50026" lon="5.94476">
        <ele>715.8</ele>
        <time>2021-10-17T15:04:02Z</time>
      </trkpt>
      <trkpt lat="46.50029" lon="5.9447">
        <ele>715.8</ele>
        <time>2021-10-17T15:04:03Z</time>
      </trkpt>
      <trkpt lat="46.50032" lon="5.94464">
        <ele>716</ele>
        <time>2021-10-17T15:04:04Z</time>
      </trkpt>
      <trkpt lat="46.50036" lon="5.94458">
        <ele>716</ele>
        <time>2021-10-17T15:04:05Z</time>
      </trkpt>
      <trkpt lat="46.50039" lon="5.94453">
        <ele>716.2</ele>
        <time>2021-10-17T15:04:06Z</time>
      </trkpt>
      <trkpt lat="46.50042" lon="5.94447">
        <ele>716.2</ele>
        <time>2021-10-17T15:04:07Z</time>
      </trkpt>
      <trkpt lat="46.50046" lon="5.94441">
        <ele>716.4</ele>
        <time>2021-10-17T15:04:08Z</time>
      </trkpt>
      <trkpt lat="46.50049" lon="5.94435">
        <ele>716.4</ele>
        <time>2021-10-17T15:04:09Z</time>
      </trkpt>
      <trkpt lat="46.50052" lon="5.94429">
        <ele>716.4</ele>
        <time>2021-10-17T15:04:10Z</time>
      </trkpt>
      <trkpt lat="46.50055" lon="5.94422">
        <ele>716.4</ele>
        <time>2021-10-17T15:04:11Z</time>
      </trkpt>
      <trkpt lat="46.50058" lon="5.94415">
        <ele>716.4</ele>
        <time>2021-10-17T15:04:12Z</time>
      </trkpt>
      <trkpt lat="46.5006" lon="5.94409">
        <ele>716.6</ele>
        <time>2021-10-17T15:04:13Z</time>
      </trkpt>
      <trkpt lat="46.50062" lon="5.94401">
        <ele>716.6</ele>
        <time>2021-10-17T15:04:14Z</time>
      </trkpt>
      <trkpt lat="46.50063" lon="5.94394">
        <ele>716.6</ele>
        <time>2021-10-17T15:04:15Z</time>
      </trkpt>
      <trkpt lat="46.50064" lon="5.94387">
        <ele>716.6</ele>
        <time>2021-10-17T15:04:16Z</time>
      </trkpt>
      <trkpt lat="46.50063" lon="5.9438">
        <ele>717</ele>
        <time>2021-10-17T15:04:17Z</time>
      </trkpt>
      <trkpt lat="46.50062" lon="5.94374">
        <ele>717</ele>
        <time>2021-10-17T15:04:18Z</time>
      </trkpt>
      <trkpt lat="46.5006" lon="5.94367">
        <ele>717</ele>
        <time>2021-10-17T15:04:19Z</time>
      </trkpt>
      <trkpt lat="46.50058" lon="5.9436">
        <ele>717.2</ele>
        <time>2021-10-17T15:04:20Z</time>
      </trkpt>
      <trkpt lat="46.50056" lon="5.94355">
        <ele>717.2</ele>
        <time>2021-10-17T15:04:21Z</time>
      </trkpt>
      <trkpt lat="46.50053" lon="5.94349">
        <ele>717.6</ele>
        <time>2021-10-17T15:04:22Z</time>
      </trkpt>
      <trkpt lat="46.5005" lon="5.94343">
        <ele>717.6</ele>
        <time>2021-10-17T15:04:23Z</time>
      </trkpt>
      <trkpt lat="46.50048" lon="5.94336">
        <ele>717.6</ele>
        <time>2021-10-17T15:04:24Z</time>
      </trkpt>
      <trkpt lat="46.50045" lon="5.9433">
        <ele>717.6</ele>
        <time>2021-10-17T15:04:25Z</time>
      </trkpt>
      <trkpt lat="46.50043" lon="5.94324">
        <ele>717.6</ele>
        <time>2021-10-17T15:04:26Z</time>
      </trkpt>
      <trkpt lat="46.50041" lon="5.94318">
        <ele>717.8</ele>
        <time>2021-10-17T15:04:27Z</time>
      </trkpt>
      <trkpt lat="46.50039" lon="5.94312">
        <ele>717.8</ele>
        <time>2021-10-17T15:04:28Z</time>
      </trkpt>
      <trkpt lat="46.50036" lon="5.94305">
        <ele>718</ele>
        <time>2021-10-17T15:04:29Z</time>
      </trkpt>
      <trkpt lat="46.50034" lon="5.94299">
        <ele>718</ele>
        <time>2021-10-17T15:04:30Z</time>
      </trkpt>
      <trkpt lat="46.50032" lon="5.94293">
        <ele>718</ele>
        <time>2021-10-17T15:04:31Z</time>
      </trkpt>
      <trkpt lat="46.5003" lon="5.94286">
        <ele>718.2</ele>
        <time>2021-10-17T15:04:32Z</time>
      </trkpt>
      <trkpt lat="46.50028" lon="5.94279">
        <ele>718.2</ele>
        <time>2021-10-17T15:04:33Z</time>
      </trkpt>
      <trkpt lat="46.50026" lon="5.94273">
        <ele>718.2</ele>
        <time>2021-10-17T15:04:34Z</time>
      </trkpt>
      <trkpt lat="46.50025" lon="5.94267">
        <ele>718.6</ele>
        <time>2021-10-17T15:04:35Z</time>
      </trkpt>
      <trkpt lat="46.50023" lon="5.9426">
        <ele>718.6</ele>
        <time>2021-10-17T15:04:36Z</time>
      </trkpt>
      <trkpt lat="46.50021" lon="5.94253">
        <ele>718.6</ele>
        <time>2021-10-17T15:04:37Z</time>
      </trkpt>
      <trkpt lat="46.50019" lon="5.94247">
        <ele>718.8</ele>
        <time>2021-10-17T15:04:38Z</time>
      </trkpt>
      <trkpt lat="46.50018" lon="5.9424">
        <ele>718.8</ele>
        <time>2021-10-17T15:04:39Z</time>
      </trkpt>
      <trkpt lat="46.50017" lon="5.94233">
        <ele>718.8</ele>
        <time>2021-10-17T15:04:40Z</time>
      </trkpt>
      <trkpt lat="46.50016" lon="5.94226">
        <ele>718.8</ele>
        <time>2021-10-17T15:04:41Z</time>
      </trkpt>
      <trkpt lat="46.50015" lon="5.94218">
        <ele>719</ele>
        <time>2021-10-17T15:04:42Z</time>
      </trkpt>
      <trkpt lat="46.50015" lon="5.94211">
        <ele>719</ele>
        <time>2021-10-17T15:04:43Z</time>
      </trkpt>
      <trkpt lat="46.50015" lon="5.94203">
        <ele>719</ele>
        <time>2021-10-17T15:04:44Z</time>
      </trkpt>
      <trkpt lat="46.50015" lon="5.94195">
        <ele>719</ele>
        <time>2021-10-17T15:04:45Z</time>
      </trkpt>
      <trkpt lat="46.50015" lon="5.94188">
        <ele>719</ele>
        <time>2021-10-17T15:04:46Z</time>
      </trkpt>
      <trkpt lat="46.50016" lon="5.94181">
        <ele>719.2</ele>
        <time>2021-10-17T15:04:47Z</time>
      </trkpt>
      <trkpt lat="46.50017" lon="5.94173">
        <ele>719.2</ele>
        <time>2021-10-17T15:04:48Z</time>
      </trkpt>
      <trkpt lat="46.50018" lon="5.94166">
        <ele>719.2</ele>
        <time>2021-10-17T15:04:49Z</time>
      </trkpt>
      <trkpt lat="46.50018" lon="5.94159">
        <ele>719.2</ele>
        <time>2021-10-17T15:04:50Z</time>
      </trkpt>
      <trkpt lat="46.50019" lon="5.94151">
        <ele>719.2</ele>
        <time>2021-10-17T15:04:51Z</time>
      </trkpt>
      <trkpt lat="46.5002" lon="5.94144">
        <ele>719.6</ele>
        <time>2021-10-17T15:04:52Z</time>
      </trkpt>
      <trkpt lat="46.50022" lon="5.94137">
        <ele>719.6</ele>
        <time>2021-10-17T15:04:53Z</time>
      </trkpt>
      <trkpt lat="46.50024" lon="5.9413">
        <ele>719.6</ele>
        <time>2021-10-17T15:04:54Z</time>
      </trkpt>
      <trkpt lat="46.50026" lon="5.94123">
        <ele>719.6</ele>
        <time>2021-10-17T15:04:55Z</time>
      </trkpt>
      <trkpt lat="46.50027" lon="5.94116">
        <ele>719.6</ele>
        <time>2021-10-17T15:04:56Z</time>
      </trkpt>
      <trkpt lat="46.50029" lon="5.94109">
        <ele>719.8</ele>
        <time>2021-10-17T15:04:57Z</time>
      </trkpt>
      <trkpt lat="46.50031" lon="5.94102">
        <ele>719.8</ele>
        <time>2021-10-17T15:04:58Z</time>
      </trkpt>
      <trkpt lat="46.50033" lon="5.94095">
        <ele>719.8</ele>
        <time>2021-10-17T15:04:59Z</time>
      </trkpt>
      <trkpt lat="46.50035" lon="5.94088">
        <ele>720</ele>
        <time>2021-10-17T15:05:00Z</time>
      </trkpt>
      <trkpt lat="46.50037" lon="5.94081">
        <ele>720</ele>
        <time>2021-10-17T15:05:01Z</time>
      </trkpt>
      <trkpt lat="46.50039" lon="5.94074">
        <ele>720</ele>
        <time>2021-10-17T15:05:02Z</time>
      </trkpt>
      <trkpt lat="46.50042" lon="5.94067">
        <ele>720</ele>
        <time>2021-10-17T15:05:03Z</time>
      </trkpt>
      <trkpt lat="46.50044" lon="5.9406">
        <ele>720.2</ele>
        <time>2021-10-17T15:05:04Z</time>
      </trkpt>
      <trkpt lat="46.50046" lon="5.94053">
        <ele>720.2</ele>
        <time>2021-10-17T15:05:05Z</time>
      </trkpt>
      <trkpt lat="46.50049" lon="5.94047">
        <ele>720.4</ele>
        <time>2021-10-17T15:05:06Z</time>
      </trkpt>
      <trkpt lat="46.50051" lon="5.9404">
        <ele>720.4</ele>
        <time>2021-10-17T15:05:07Z</time>
      </trkpt>
      <trkpt lat="46.50053" lon="5.94033">
        <ele>720.8</ele>
        <time>2021-10-17T15:05:08Z</time>
      </trkpt>
      <trkpt lat="46.50056" lon="5.94025">
        <ele>720.8</ele>
        <time>2021-10-17T15:05:09Z</time>
      </trkpt>
      <trkpt lat="46.50058" lon="5.94018">
        <ele>720.8</ele>
        <time>2021-10-17T15:05:10Z</time>
      </trkpt>
      <trkpt lat="46.5006" lon="5.94012">
        <ele>721</ele>
        <time>2021-10-17T15:05:11Z</time>
      </trkpt>
      <trkpt lat="46.50062" lon="5.94005">
        <ele>721</ele>
        <time>2021-10-17T15:05:12Z</time>
      </trkpt>
      <trkpt lat="46.50063" lon="5.93998">
        <ele>721</ele>
        <time>2021-10-17T15:05:13Z</time>
      </trkpt>
      <trkpt lat="46.50065" lon="5.93991">
        <ele>721.2</ele>
        <time>2021-10-17T15:05:14Z</time>
      </trkpt>
      <trkpt lat="46.50066" lon="5.93984">
        <ele>721.2</ele>
        <time>2021-10-17T15:05:15Z</time>
      </trkpt>
      <trkpt lat="46.50067" lon="5.93977">
        <ele>721.2</ele>
        <time>2021-10-17T15:05:16Z</time>
      </trkpt>
      <trkpt lat="46.50068" lon="5.9397">
        <ele>721.2</ele>
        <time>2021-10-17T15:05:17Z</time>
      </trkpt>
      <trkpt lat="46.50069" lon="5.93963">
        <ele>721.6</ele>
        <time>2021-10-17T15:05:18Z</time>
      </trkpt>
      <trkpt lat="46.50069" lon="5.93955">
        <ele>721.6</ele>
        <time>2021-10-17T15:05:19Z</time>
      </trkpt>
      <trkpt lat="46.5007" lon="5.93948">
        <ele>721.6</ele>
        <time>2021-10-17T15:05:20Z</time>
      </trkpt>
      <trkpt lat="46.5007" lon="5.93941">
        <ele>721.6</ele>
        <time>2021-10-17T15:05:21Z</time>
      </trkpt>
      <trkpt lat="46.5007" lon="5.93935">
        <ele>721.6</ele>
        <time>2021-10-17T15:05:22Z</time>
      </trkpt>
      <trkpt lat="46.50069" lon="5.93927">
        <ele>721.6</ele>
        <time>2021-10-17T15:05:23Z</time>
      </trkpt>
      <trkpt lat="46.50068" lon="5.9392">
        <ele>721.8</ele>
        <time>2021-10-17T15:05:24Z</time>
      </trkpt>
      <trkpt lat="46.50065" lon="5.93912">
        <ele>721.8</ele>
        <time>2021-10-17T15:05:25Z</time>
      </trkpt>
      <trkpt lat="46.50062" lon="5.93906">
        <ele>721.8</ele>
        <time>2021-10-17T15:05:26Z</time>
      </trkpt>
      <trkpt lat="46.50059" lon="5.93899">
        <ele>722</ele>
        <time>2021-10-17T15:05:27Z</time>
      </trkpt>
      <trkpt lat="46.50055" lon="5.93894">
        <ele>722</ele>
        <time>2021-10-17T15:05:28Z</time>
      </trkpt>
      <trkpt lat="46.50051" lon="5.93889">
        <ele>722</ele>
        <time>2021-10-17T15:05:29Z</time>
      </trkpt>
      <trkpt lat="46.50047" lon="5.93885">
        <ele>722.2</ele>
        <time>2021-10-17T15:05:30Z</time>
      </trkpt>
      <trkpt lat="46.50043" lon="5.9388">
        <ele>722.2</ele>
        <time>2021-10-17T15:05:31Z</time>
      </trkpt>
      <trkpt lat="46.50039" lon="5.93876">
        <ele>722.4</ele>
        <time>2021-10-17T15:05:32Z</time>
      </trkpt>
      <trkpt lat="46.50035" lon="5.93872">
        <ele>722.4</ele>
        <time>2021-10-17T15:05:33Z</time>
      </trkpt>
      <trkpt lat="46.50031" lon="5.93867">
        <ele>722.4</ele>
        <time>2021-10-17T15:05:34Z</time>
      </trkpt>
      <trkpt lat="46.50027" lon="5.93861">
        <ele>722.8</ele>
        <time>2021-10-17T15:05:35Z</time>
      </trkpt>
      <trkpt lat="46.50023" lon="5.93856">
        <ele>722.8</ele>
        <time>2021-10-17T15:05:36Z</time>
      </trkpt>
      <trkpt lat="46.5002" lon="5.93851">
        <ele>722.8</ele>
        <time>2021-10-17T15:05:37Z</time>
      </trkpt>
      <trkpt lat="46.50016" lon="5.93846">
        <ele>723</ele>
        <time>2021-10-17T15:05:38Z</time>
      </trkpt>
      <trkpt lat="46.50013" lon="5.93841">
        <ele>723</ele>
        <time>2021-10-17T15:05:39Z</time>
      </trkpt>
      <trkpt lat="46.5001" lon="5.93835">
        <ele>723</ele>
        <time>2021-10-17T15:05:40Z</time>
      </trkpt>
      <trkpt lat="46.50006" lon="5.9383">
        <ele>723.2</ele>
        <time>2021-10-17T15:05:41Z</time>
      </trkpt>
      <trkpt lat="46.50003" lon="5.93824">
        <ele>723.2</ele>
        <time>2021-10-17T15:05:42Z</time>
      </trkpt>
      <trkpt lat="46.5" lon="5.93819">
        <ele>723.2</ele>
        <time>2021-10-17T15:05:43Z</time>
      </trkpt>
      <trkpt lat="46.49996" lon="5.93813">
        <ele>723.2</ele>
        <time>2021-10-17T15:05:44Z</time>
      </trkpt>
      <trkpt lat="46.49993" lon="5.93808">
        <ele>723.4</ele>
        <time>2021-10-17T15:05:45Z</time>
      </trkpt>
      <trkpt lat="46.4999" lon="5.93803">
        <ele>723.4</ele>
        <time>2021-10-17T15:05:46Z</time>
      </trkpt>
      <trkpt lat="46.49986" lon="5.93798">
        <ele>723.4</ele>
        <time>2021-10-17T15:05:47Z</time>
      </trkpt>
      <trkpt lat="46.49982" lon="5.93793">
        <ele>723.4</ele>
        <time>2021-10-17T15:05:48Z</time>
      </trkpt>
      <trkpt lat="46.49979" lon="5.93788">
        <ele>723.6</ele>
        <time>2021-10-17T15:05:49Z</time>
      </trkpt>
      <trkpt lat="46.49975" lon="5.93783">
        <ele>723.6</ele>
        <time>2021-10-17T15:05:50Z</time>
      </trkpt>
      <trkpt lat="46.49972" lon="5.93778">
        <ele>723.6</ele>
        <time>2021-10-17T15:05:51Z</time>
      </trkpt>
      <trkpt lat="46.49968" lon="5.93773">
        <ele>723.6</ele>
        <time>2021-10-17T15:05:52Z</time>
      </trkpt>
      <trkpt lat="46.49965" lon="5.93768">
        <ele>723.8</ele>
        <time>2021-10-17T15:05:53Z</time>
      </trkpt>
      <trkpt lat="46.49962" lon="5.93763">
        <ele>723.8</ele>
        <time>2021-10-17T15:05:54Z</time>
      </trkpt>
      <trkpt lat="46.49959" lon="5.93758">
        <ele>723.8</ele>
        <time>2021-10-17T15:05:55Z</time>
      </trkpt>
      <trkpt lat="46.49956" lon="5.93754">
        <ele>723.8</ele>
        <time>2021-10-17T15:05:56Z</time>
      </trkpt>
      <trkpt lat="46.49954" lon="5.93749">
        <ele>724.2</ele>
        <time>2021-10-17T15:05:57Z</time>
      </trkpt>
      <trkpt lat="46.49952" lon="5.93745">
        <ele>724.2</ele>
        <time>2021-10-17T15:05:58Z</time>
      </trkpt>
      <trkpt lat="46.49949" lon="5.9374">
        <ele>724.2</ele>
        <time>2021-10-17T15:05:59Z</time>
      </trkpt>
      <trkpt lat="46.49947" lon="5.93737">
        <ele>724.2</ele>
        <time>2021-10-17T15:06:00Z</time>
      </trkpt>
      <trkpt lat="46.49945" lon="5.93733">
        <ele>724.2</ele>
        <time>2021-10-17T15:06:01Z</time>
      </trkpt>
      <trkpt lat="46.49944" lon="5.93729">
        <ele>724.2</ele>
        <time>2021-10-17T15:06:02Z</time>
      </trkpt>
      <trkpt lat="46.49944" lon="5.93726">
        <ele>724.4</ele>
        <time>2021-10-17T15:06:03Z</time>
      </trkpt>
      <trkpt lat="46.49946" lon="5.93724">
        <ele>724.4</ele>
        <time>2021-10-17T15:06:04Z</time>
      </trkpt>
      <trkpt lat="46.49947" lon="5.93723">
        <ele>724.4</ele>
        <time>2021-10-17T15:06:05Z</time>
      </trkpt>
      <trkpt lat="46.49949" lon="5.93724">
        <ele>724.4</ele>
        <time>2021-10-17T15:06:06Z</time>
      </trkpt>
      <trkpt lat="46.49951" lon="5.93727">
        <ele>724.4</ele>
        <time>2021-10-17T15:06:07Z</time>
      </trkpt>
      <trkpt lat="46.49952" lon="5.93729">
        <ele>724.4</ele>
        <time>2021-10-17T15:06:08Z</time>
      </trkpt>
      <trkpt lat="46.49954" lon="5.93732">
        <ele>724.6</ele>
        <time>2021-10-17T15:06:09Z</time>
      </trkpt>
      <trkpt lat="46.49955" lon="5.93735">
        <ele>724.6</ele>
        <time>2021-10-17T15:06:10Z</time>
      </trkpt>
      <trkpt lat="46.49957" lon="5.93738">
        <ele>724.8</ele>
        <time>2021-10-17T15:06:11Z</time>
      </trkpt>
      <trkpt lat="46.49959" lon="5.9374">
        <ele>725</ele>
        <time>2021-10-17T15:06:12Z</time>
      </trkpt>
      <trkpt lat="46.4996" lon="5.93743">
        <ele>725</ele>
        <time>2021-10-17T15:06:13Z</time>
      </trkpt>
      <trkpt lat="46.49962" lon="5.93746">
        <ele>725.6</ele>
        <time>2021-10-17T15:06:14Z</time>
      </trkpt>
      <trkpt lat="46.49963" lon="5.93749">
        <ele>725.6</ele>
        <time>2021-10-17T15:06:15Z</time>
      </trkpt>
      <trkpt lat="46.49965" lon="5.93753">
        <ele>726</ele>
        <time>2021-10-17T15:06:16Z</time>
      </trkpt>
      <trkpt lat="46.49966" lon="5.93756">
        <ele>726</ele>
        <time>2021-10-17T15:06:17Z</time>
      </trkpt>
      <trkpt lat="46.49968" lon="5.93759">
        <ele>726.4</ele>
        <time>2021-10-17T15:06:18Z</time>
      </trkpt>
      <trkpt lat="46.4997" lon="5.93762">
        <ele>726.6</ele>
        <time>2021-10-17T15:06:19Z</time>
      </trkpt>
      <trkpt lat="46.49972" lon="5.93764">
        <ele>727</ele>
        <time>2021-10-17T15:06:20Z</time>
      </trkpt>
      <trkpt lat="46.49974" lon="5.93766">
        <ele>727.2</ele>
        <time>2021-10-17T15:06:21Z</time>
      </trkpt>
      <trkpt lat="46.49976" lon="5.93769">
        <ele>727.4</ele>
        <time>2021-10-17T15:06:22Z</time>
      </trkpt>
      <trkpt lat="46.49979" lon="5.93771">
        <ele>727.8</ele>
        <time>2021-10-17T15:06:23Z</time>
      </trkpt>
      <trkpt lat="46.49981" lon="5.93773">
        <ele>728.2</ele>
        <time>2021-10-17T15:06:24Z</time>
      </trkpt>
      <trkpt lat="46.49984" lon="5.93775">
        <ele>728.4</ele>
        <time>2021-10-17T15:06:25Z</time>
      </trkpt>
      <trkpt lat="46.49986" lon="5.93777">
        <ele>728.8</ele>
        <time>2021-10-17T15:06:26Z</time>
      </trkpt>
      <trkpt lat="46.49989" lon="5.93779">
        <ele>729</ele>
        <time>2021-10-17T15:06:27Z</time>
      </trkpt>
      <trkpt lat="46.49992" lon="5.93781">
        <ele>729.4</ele>
        <time>2021-10-17T15:06:28Z</time>
      </trkpt>
      <trkpt lat="46.49995" lon="5.93783">
        <ele>729.6</ele>
        <time>2021-10-17T15:06:29Z</time>
      </trkpt>
      <trkpt lat="46.49997" lon="5.93786">
        <ele>729.6</ele>
        <time>2021-10-17T15:06:30Z</time>
      </trkpt>
      <trkpt lat="46.49999" lon="5.93788">
        <ele>730</ele>
        <time>2021-10-17T15:06:31Z</time>
      </trkpt>
      <trkpt lat="46.50002" lon="5.93791">
        <ele>730</ele>
        <time>2021-10-17T15:06:32Z</time>
      </trkpt>
      <trkpt lat="46.50004" lon="5.93793">
        <ele>730.6</ele>
        <time>2021-10-17T15:06:33Z</time>
      </trkpt>
      <trkpt lat="46.50007" lon="5.93795">
        <ele>730.8</ele>
        <time>2021-10-17T15:06:34Z</time>
      </trkpt>
      <trkpt lat="46.50009" lon="5.93798">
        <ele>731</ele>
        <time>2021-10-17T15:06:35Z</time>
      </trkpt>
      <trkpt lat="46.50011" lon="5.93801">
        <ele>731.4</ele>
        <time>2021-10-17T15:06:36Z</time>
      </trkpt>
      <trkpt lat="46.50013" lon="5.93803">
        <ele>731.4</ele>
        <time>2021-10-17T15:06:37Z</time>
      </trkpt>
      <trkpt lat="46.50015" lon="5.93806">
        <ele>731.6</ele>
        <time>2021-10-17T15:06:38Z</time>
      </trkpt>
      <trkpt lat="46.50017" lon="5.93809">
        <ele>731.6</ele>
        <time>2021-10-17T15:06:39Z</time>
      </trkpt>
      <trkpt lat="46.50019" lon="5.93812">
        <ele>732</ele>
        <time>2021-10-17T15:06:40Z</time>
      </trkpt>
      <trkpt lat="46.50021" lon="5.93814">
        <ele>732.4</ele>
        <time>2021-10-17T15:06:41Z</time>
      </trkpt>
      <trkpt lat="46.50023" lon="5.93817">
        <ele>732.6</ele>
        <time>2021-10-17T15:06:42Z</time>
      </trkpt>
      <trkpt lat="46.50025" lon="5.9382">
        <ele>732.8</ele>
        <time>2021-10-17T15:06:43Z</time>
      </trkpt>
      <trkpt lat="46.50027" lon="5.93822">
        <ele>733</ele>
        <time>2021-10-17T15:06:44Z</time>
      </trkpt>
      <trkpt lat="46.50029" lon="5.93825">
        <ele>733.4</ele>
        <time>2021-10-17T15:06:45Z</time>
      </trkpt>
      <trkpt lat="46.50031" lon="5.93828">
        <ele>733.4</ele>
        <time>2021-10-17T15:06:46Z</time>
      </trkpt>
      <trkpt lat="46.50034" lon="5.9383">
        <ele>733.8</ele>
        <time>2021-10-17T15:06:47Z</time>
      </trkpt>
      <trkpt lat="46.50036" lon="5.93832">
        <ele>734</ele>
        <time>2021-10-17T15:06:48Z</time>
      </trkpt>
      <trkpt lat="46.50038" lon="5.93834">
        <ele>734.2</ele>
        <time>2021-10-17T15:06:49Z</time>
      </trkpt>
      <trkpt lat="46.5004" lon="5.93836">
        <ele>734.6</ele>
        <time>2021-10-17T15:06:50Z</time>
      </trkpt>
      <trkpt lat="46.50043" lon="5.93838">
        <ele>734.8</ele>
        <time>2021-10-17T15:06:51Z</time>
      </trkpt>
      <trkpt lat="46.50045" lon="5.9384">
        <ele>735</ele>
        <time>2021-10-17T15:06:52Z</time>
      </trkpt>
      <trkpt lat="46.50048" lon="5.93842">
        <ele>735</ele>
        <time>2021-10-17T15:06:53Z</time>
      </trkpt>
      <trkpt lat="46.5005" lon="5.93843">
        <ele>735.4</ele>
        <time>2021-10-17T15:06:54Z</time>
      </trkpt>
      <trkpt lat="46.50053" lon="5.93845">
        <ele>735.6</ele>
        <time>2021-10-17T15:06:55Z</time>
      </trkpt>
      <trkpt lat="46.50055" lon="5.93847">
        <ele>736</ele>
        <time>2021-10-17T15:06:56Z</time>
      </trkpt>
      <trkpt lat="46.50057" lon="5.93849">
        <ele>736.2</ele>
        <time>2021-10-17T15:06:57Z</time>
      </trkpt>
      <trkpt lat="46.5006" lon="5.9385">
        <ele>736.2</ele>
        <time>2021-10-17T15:06:58Z</time>
      </trkpt>
      <trkpt lat="46.50063" lon="5.93852">
        <ele>736.4</ele>
        <time>2021-10-17T15:06:59Z</time>
      </trkpt>
      <trkpt lat="46.50065" lon="5.93853">
        <ele>736.4</ele>
        <time>2021-10-17T15:07:00Z</time>
      </trkpt>
      <trkpt lat="46.50068" lon="5.93855">
        <ele>736.8</ele>
        <time>2021-10-17T15:07:01Z</time>
      </trkpt>
      <trkpt lat="46.5007" lon="5.93856">
        <ele>737.2</ele>
        <time>2021-10-17T15:07:02Z</time>
      </trkpt>
      <trkpt lat="46.50073" lon="5.93857">
        <ele>737.2</ele>
        <time>2021-10-17T15:07:03Z</time>
      </trkpt>
      <trkpt lat="46.50075" lon="5.93859">
        <ele>737.4</ele>
        <time>2021-10-17T15:07:04Z</time>
      </trkpt>
      <trkpt lat="46.50078" lon="5.93861">
        <ele>737.4</ele>
        <time>2021-10-17T15:07:05Z</time>
      </trkpt>
      <trkpt lat="46.5008" lon="5.93863">
        <ele>737.8</ele>
        <time>2021-10-17T15:07:06Z</time>
      </trkpt>
      <trkpt lat="46.50083" lon="5.93865">
        <ele>738</ele>
        <time>2021-10-17T15:07:07Z</time>
      </trkpt>
      <trkpt lat="46.50085" lon="5.93867">
        <ele>738</ele>
        <time>2021-10-17T15:07:08Z</time>
      </trkpt>
      <trkpt lat="46.50088" lon="5.93868">
        <ele>738.4</ele>
        <time>2021-10-17T15:07:09Z</time>
      </trkpt>
      <trkpt lat="46.5009" lon="5.93869">
        <ele>738.4</ele>
        <time>2021-10-17T15:07:10Z</time>
      </trkpt>
      <trkpt lat="46.50093" lon="5.93871">
        <ele>738.8</ele>
        <time>2021-10-17T15:07:11Z</time>
      </trkpt>
      <trkpt lat="46.50095" lon="5.93872">
        <ele>739</ele>
        <time>2021-10-17T15:07:12Z</time>
      </trkpt>
      <trkpt lat="46.50098" lon="5.93873">
        <ele>739.2</ele>
        <time>2021-10-17T15:07:13Z</time>
      </trkpt>
      <trkpt lat="46.501" lon="5.93874">
        <ele>739.6</ele>
        <time>2021-10-17T15:07:14Z</time>
      </trkpt>
      <trkpt lat="46.50103" lon="5.93875">
        <ele>739.8</ele>
        <time>2021-10-17T15:07:15Z</time>
      </trkpt>
      <trkpt lat="46.50105" lon="5.93877">
        <ele>740</ele>
        <time>2021-10-17T15:07:16Z</time>
      </trkpt>
      <trkpt lat="46.50107" lon="5.93878">
        <ele>740</ele>
        <time>2021-10-17T15:07:17Z</time>
      </trkpt>
      <trkpt lat="46.5011" lon="5.93879">
        <ele>740.4</ele>
        <time>2021-10-17T15:07:18Z</time>
      </trkpt>
      <trkpt lat="46.50112" lon="5.9388">
        <ele>740.8</ele>
        <time>2021-10-17T15:07:19Z</time>
      </trkpt>
      <trkpt lat="46.50114" lon="5.93881">
        <ele>741</ele>
        <time>2021-10-17T15:07:20Z</time>
      </trkpt>
      <trkpt lat="46.50116" lon="5.93883">
        <ele>741.2</ele>
        <time>2021-10-17T15:07:21Z</time>
      </trkpt>
      <trkpt lat="46.50118" lon="5.93884">
        <ele>741.2</ele>
        <time>2021-10-17T15:07:22Z</time>
      </trkpt>
      <trkpt lat="46.5012" lon="5.93885">
        <ele>741.8</ele>
        <time>2021-10-17T15:07:23Z</time>
      </trkpt>
      <trkpt lat="46.50122" lon="5.93887">
        <ele>742</ele>
        <time>2021-10-17T15:07:24Z</time>
      </trkpt>
      <trkpt lat="46.50124" lon="5.93888">
        <ele>742.2</ele>
        <time>2021-10-17T15:07:25Z</time>
      </trkpt>
      <trkpt lat="46.50125" lon="5.93891">
        <ele>742.6</ele>
        <time>2021-10-17T15:07:26Z</time>
      </trkpt>
      <trkpt lat="46.50127" lon="5.93893">
        <ele>742.8</ele>
        <time>2021-10-17T15:07:27Z</time>
      </trkpt>
      <trkpt lat="46.50128" lon="5.93897">
        <ele>743</ele>
        <time>2021-10-17T15:07:28Z</time>
      </trkpt>
      <trkpt lat="46.50129" lon="5.93901">
        <ele>743.2</ele>
        <time>2021-10-17T15:07:29Z</time>
      </trkpt>
      <trkpt lat="46.5013" lon="5.93904">
        <ele>743.6</ele>
        <time>2021-10-17T15:07:30Z</time>
      </trkpt>
      <trkpt lat="46.50131" lon="5.93908">
        <ele>743.8</ele>
        <time>2021-10-17T15:07:31Z</time>
      </trkpt>
      <trkpt lat="46.50131" lon="5.93911">
        <ele>744</ele>
        <time>2021-10-17T15:07:32Z</time>
      </trkpt>
      <trkpt lat="46.5013" lon="5.93915">
        <ele>744.4</ele>
        <time>2021-10-17T15:07:33Z</time>
      </trkpt>
      <trkpt lat="46.50129" lon="5.93918">
        <ele>744.6</ele>
        <time>2021-10-17T15:07:34Z</time>
      </trkpt>
      <trkpt lat="46.50128" lon="5.93922">
        <ele>745</ele>
        <time>2021-10-17T15:07:35Z</time>
      </trkpt>
      <trkpt lat="46.50127" lon="5.93925">
        <ele>745.4</ele>
        <time>2021-10-17T15:07:36Z</time>
      </trkpt>
      <trkpt lat="46.50125" lon="5.93928">
        <ele>745.6</ele>
        <time>2021-10-17T15:07:37Z</time>
      </trkpt>
      <trkpt lat="46.50123" lon="5.93931">
        <ele>746</ele>
        <time>2021-10-17T15:07:38Z</time>
      </trkpt>
      <trkpt lat="46.50122" lon="5.93934">
        <ele>746.2</ele>
        <time>2021-10-17T15:07:39Z</time>
      </trkpt>
      <trkpt lat="46.50121" lon="5.93937">
        <ele>746.6</ele>
        <time>2021-10-17T15:07:40Z</time>
      </trkpt>
      <trkpt lat="46.5012" lon="5.9394">
        <ele>747</ele>
        <time>2021-10-17T15:07:41Z</time>
      </trkpt>
      <trkpt lat="46.50119" lon="5.93943">
        <ele>747.4</ele>
        <time>2021-10-17T15:07:42Z</time>
      </trkpt>
      <trkpt lat="46.50119" lon="5.93946">
        <ele>747.6</ele>
        <time>2021-10-17T15:07:43Z</time>
      </trkpt>
      <trkpt lat="46.50118" lon="5.93949">
        <ele>748</ele>
        <time>2021-10-17T15:07:44Z</time>
      </trkpt>
      <trkpt lat="46.50117" lon="5.93953">
        <ele>748.6</ele>
        <time>2021-10-17T15:07:45Z</time>
      </trkpt>
      <trkpt lat="46.50116" lon="5.93956">
        <ele>748.8</ele>
        <time>2021-10-17T15:07:46Z</time>
      </trkpt>
      <trkpt lat="46.50116" lon="5.93959">
        <ele>749.4</ele>
        <time>2021-10-17T15:07:47Z</time>
      </trkpt>
      <trkpt lat="46.50116" lon="5.93963">
        <ele>749.8</ele>
        <time>2021-10-17T15:07:48Z</time>
      </trkpt>
      <trkpt lat="46.50116" lon="5.93966">
        <ele>750.2</ele>
        <time>2021-10-17T15:07:49Z</time>
      </trkpt>
      <trkpt lat="46.50117" lon="5.9397">
        <ele>750.6</ele>
        <time>2021-10-17T15:07:50Z</time>
      </trkpt>
      <trkpt lat="46.50117" lon="5.93974">
        <ele>751</ele>
        <time>2021-10-17T15:07:51Z</time>
      </trkpt>
      <trkpt lat="46.50118" lon="5.93977">
        <ele>751.4</ele>
        <time>2021-10-17T15:07:52Z</time>
      </trkpt>
      <trkpt lat="46.50118" lon="5.9398">
        <ele>751.8</ele>
        <time>2021-10-17T15:07:53Z</time>
      </trkpt>
      <trkpt lat="46.50119" lon="5.93984">
        <ele>752</ele>
        <time>2021-10-17T15:07:54Z</time>
      </trkpt>
      <trkpt lat="46.5012" lon="5.93987">
        <ele>752.4</ele>
        <time>2021-10-17T15:07:55Z</time>
      </trkpt>
      <trkpt lat="46.5012" lon="5.9399">
        <ele>752.8</ele>
        <time>2021-10-17T15:07:56Z</time>
      </trkpt>
      <trkpt lat="46.50121" lon="5.93993">
        <ele>753</ele>
        <time>2021-10-17T15:07:57Z</time>
      </trkpt>
      <trkpt lat="46.50122" lon="5.93996">
        <ele>753.4</ele>
        <time>2021-10-17T15:07:58Z</time>
      </trkpt>
      <trkpt lat="46.50122" lon="5.93999">
        <ele>753.8</ele>
        <time>2021-10-17T15:07:59Z</time>
      </trkpt>
      <trkpt lat="46.50122" lon="5.94002">
        <ele>754</ele>
        <time>2021-10-17T15:08:00Z</time>
      </trkpt>
      <trkpt lat="46.50122" lon="5.94005">
        <ele>754.4</ele>
        <time>2021-10-17T15:08:01Z</time>
      </trkpt>
      <trkpt lat="46.50122" lon="5.94007">
        <ele>754.6</ele>
        <time>2021-10-17T15:08:02Z</time>
      </trkpt>
      <trkpt lat="46.50122" lon="5.9401">
        <ele>755</ele>
        <time>2021-10-17T15:08:03Z</time>
      </trkpt>
      <trkpt lat="46.50121" lon="5.94013">
        <ele>755.2</ele>
        <time>2021-10-17T15:08:04Z</time>
      </trkpt>
      <trkpt lat="46.50121" lon="5.94015">
        <ele>755.4</ele>
        <time>2021-10-17T15:08:05Z</time>
      </trkpt>
      <trkpt lat="46.5012" lon="5.94018">
        <ele>755.6</ele>
        <time>2021-10-17T15:08:06Z</time>
      </trkpt>
      <trkpt lat="46.50119" lon="5.94021">
        <ele>755.8</ele>
        <time>2021-10-17T15:08:07Z</time>
      </trkpt>
      <trkpt lat="46.50118" lon="5.94023">
        <ele>755.8</ele>
        <time>2021-10-17T15:08:08Z</time>
      </trkpt>
      <trkpt lat="46.50118" lon="5.94026">
        <ele>756.4</ele>
        <time>2021-10-17T15:08:09Z</time>
      </trkpt>
      <trkpt lat="46.50117" lon="5.94028">
        <ele>756.6</ele>
        <time>2021-10-17T15:08:10Z</time>
      </trkpt>
      <trkpt lat="46.50117" lon="5.94031">
        <ele>756.8</ele>
        <time>2021-10-17T15:08:11Z</time>
      </trkpt>
      <trkpt lat="46.50117" lon="5.94033">
        <ele>757</ele>
        <time>2021-10-17T15:08:12Z</time>
      </trkpt>
      <trkpt lat="46.50117" lon="5.94035">
        <ele>757.4</ele>
        <time>2021-10-17T15:08:13Z</time>
      </trkpt>
      <trkpt lat="46.50117" lon="5.94038">
        <ele>757.6</ele>
        <time>2021-10-17T15:08:14Z</time>
      </trkpt>
      <trkpt lat="46.50116" lon="5.94041">
        <ele>757.8</ele>
        <time>2021-10-17T15:08:15Z</time>
      </trkpt>
      <trkpt lat="46.50116" lon="5.94043">
        <ele>758</ele>
        <time>2021-10-17T15:08:16Z</time>
      </trkpt>
      <trkpt lat="46.50116" lon="5.94046">
        <ele>758.2</ele>
        <time>2021-10-17T15:08:17Z</time>
      </trkpt>
      <trkpt lat="46.50117" lon="5.94048">
        <ele>758.4</ele>
        <time>2021-10-17T15:08:18Z</time>
      </trkpt>
      <trkpt lat="46.50117" lon="5.94051">
        <ele>758.6</ele>
        <time>2021-10-17T15:08:19Z</time>
      </trkpt>
      <trkpt lat="46.50117" lon="5.94053">
        <ele>758.8</ele>
        <time>2021-10-17T15:08:20Z</time>
      </trkpt>
      <trkpt lat="46.50117" lon="5.94055">
        <ele>758.8</ele>
        <time>2021-10-17T15:08:21Z</time>
      </trkpt>
      <trkpt lat="46.50117" lon="5.94057">
        <ele>759.4</ele>
        <time>2021-10-17T15:08:22Z</time>
      </trkpt>
      <trkpt lat="46.50117" lon="5.9406">
        <ele>759.6</ele>
        <time>2021-10-17T15:08:23Z</time>
      </trkpt>
      <trkpt lat="46.50117" lon="5.94062">
        <ele>759.8</ele>
        <time>2021-10-17T15:08:24Z</time>
      </trkpt>
      <trkpt lat="46.50117" lon="5.94065">
        <ele>760</ele>
        <time>2021-10-17T15:08:25Z</time>
      </trkpt>
      <trkpt lat="46.50117" lon="5.94068">
        <ele>760.2</ele>
        <time>2021-10-17T15:08:26Z</time>
      </trkpt>
      <trkpt lat="46.50117" lon="5.9407">
        <ele>760.6</ele>
        <time>2021-10-17T15:08:27Z</time>
      </trkpt>
      <trkpt lat="46.50117" lon="5.94073">
        <ele>760.8</ele>
        <time>2021-10-17T15:08:28Z</time>
      </trkpt>
      <trkpt lat="46.50117" lon="5.94075">
        <ele>761</ele>
        <time>2021-10-17T15:08:29Z</time>
      </trkpt>
      <trkpt lat="46.50117" lon="5.94078">
        <ele>761.2</ele>
        <time>2021-10-17T15:08:30Z</time>
      </trkpt>
      <trkpt lat="46.50117" lon="5.9408">
        <ele>761.8</ele>
        <time>2021-10-17T15:08:31Z</time>
      </trkpt>
      <trkpt lat="46.50117" lon="5.94083">
        <ele>762.2</ele>
        <time>2021-10-17T15:08:32Z</time>
      </trkpt>
      <trkpt lat="46.50117" lon="5.94085">
        <ele>762.4</ele>
        <time>2021-10-17T15:08:33Z</time>
      </trkpt>
      <trkpt lat="46.50117" lon="5.94087">
        <ele>762.6</ele>
        <time>2021-10-17T15:08:34Z</time>
      </trkpt>
      <trkpt lat="46.50117" lon="5.9409">
        <ele>762.8</ele>
        <time>2021-10-17T15:08:35Z</time>
      </trkpt>
      <trkpt lat="46.50117" lon="5.94092">
        <ele>763</ele>
        <time>2021-10-17T15:08:36Z</time>
      </trkpt>
      <trkpt lat="46.50117" lon="5.94094">
        <ele>763.4</ele>
        <time>2021-10-17T15:08:37Z</time>
      </trkpt>
      <trkpt lat="46.50117" lon="5.94096">
        <ele>763.6</ele>
        <time>2021-10-17T15:08:38Z</time>
      </trkpt>
      <trkpt lat="46.50118" lon="5.94098">
        <ele>763.8</ele>
        <time>2021-10-17T15:08:39Z</time>
      </trkpt>
      <trkpt lat="46.50118" lon="5.94101">
        <ele>764.2</ele>
        <time>2021-10-17T15:08:40Z</time>
      </trkpt>
      <trkpt lat="46.50119" lon="5.94103">
        <ele>764.4</ele>
        <time>2021-10-17T15:08:41Z</time>
      </trkpt>
      <trkpt lat="46.50119" lon="5.94105">
        <ele>764.6</ele>
        <time>2021-10-17T15:08:42Z</time>
      </trkpt>
      <trkpt lat="46.50119" lon="5.94108">
        <ele>765</ele>
        <time>2021-10-17T15:08:43Z</time>
      </trkpt>
      <trkpt lat="46.5012" lon="5.9411">
        <ele>765.2</ele>
        <time>2021-10-17T15:08:44Z</time>
      </trkpt>
      <trkpt lat="46.5012" lon="5.94112">
        <ele>765.4</ele>
        <time>2021-10-17T15:08:45Z</time>
      </trkpt>
      <trkpt lat="46.5012" lon="5.94115">
        <ele>765.6</ele>
        <time>2021-10-17T15:08:46Z</time>
      </trkpt>
      <trkpt lat="46.5012" lon="5.94117">
        <ele>766</ele>
        <time>2021-10-17T15:08:47Z</time>
      </trkpt>
      <trkpt lat="46.5012" lon="5.94119">
        <ele>766.2</ele>
        <time>2021-10-17T15:08:48Z</time>
      </trkpt>
      <trkpt lat="46.5012" lon="5.94122">
        <ele>766.6</ele>
        <time>2021-10-17T15:08:49Z</time>
      </trkpt>
      <trkpt lat="46.5012" lon="5.94125">
        <ele>766.8</ele>
        <time>2021-10-17T15:08:50Z</time>
      </trkpt>
      <trkpt lat="46.50121" lon="5.94128">
        <ele>767</ele>
        <time>2021-10-17T15:08:51Z</time>
      </trkpt>
      <trkpt lat="46.50121" lon="5.9413">
        <ele>767.4</ele>
        <time>2021-10-17T15:08:52Z</time>
      </trkpt>
      <trkpt lat="46.50121" lon="5.94132">
        <ele>767.6</ele>
        <time>2021-10-17T15:08:53Z</time>
      </trkpt>
      <trkpt lat="46.50121" lon="5.94135">
        <ele>768</ele>
        <time>2021-10-17T15:08:54Z</time>
      </trkpt>
      <trkpt lat="46.50121" lon="5.94137">
        <ele>768.2</ele>
        <time>2021-10-17T15:08:55Z</time>
      </trkpt>
      <trkpt lat="46.50122" lon="5.9414">
        <ele>768.6</ele>
        <time>2021-10-17T15:08:56Z</time>
      </trkpt>
      <trkpt lat="46.50122" lon="5.94142">
        <ele>768.8</ele>
        <time>2021-10-17T15:08:57Z</time>
      </trkpt>
      <trkpt lat="46.50122" lon="5.94144">
        <ele>769.2</ele>
        <time>2021-10-17T15:08:58Z</time>
      </trkpt>
      <trkpt lat="46.50122" lon="5.94147">
        <ele>769.4</ele>
        <time>2021-10-17T15:08:59Z</time>
      </trkpt>
      <trkpt lat="46.50122" lon="5.94149">
        <ele>769.6</ele>
        <time>2021-10-17T15:09:00Z</time>
      </trkpt>
      <trkpt lat="46.50123" lon="5.94152">
        <ele>769.8</ele>
        <time>2021-10-17T15:09:01Z</time>
      </trkpt>
      <trkpt lat="46.50123" lon="5.94154">
        <ele>770.2</ele>
        <time>2021-10-17T15:09:02Z</time>
      </trkpt>
      <trkpt lat="46.50124" lon="5.94157">
        <ele>770.2</ele>
        <time>2021-10-17T15:09:03Z</time>
      </trkpt>
      <trkpt lat="46.50124" lon="5.94159">
        <ele>770.4</ele>
        <time>2021-10-17T15:09:04Z</time>
      </trkpt>
      <trkpt lat="46.50124" lon="5.94162">
        <ele>770.8</ele>
        <time>2021-10-17T15:09:05Z</time>
      </trkpt>
      <trkpt lat="46.50124" lon="5.94164">
        <ele>770.8</ele>
        <time>2021-10-17T15:09:06Z</time>
      </trkpt>
      <trkpt lat="46.50124" lon="5.94167">
        <ele>771</ele>
        <time>2021-10-17T15:09:07Z</time>
      </trkpt>
      <trkpt lat="46.50124" lon="5.9417">
        <ele>771.4</ele>
        <time>2021-10-17T15:09:08Z</time>
      </trkpt>
      <trkpt lat="46.50124" lon="5.94172">
        <ele>771.6</ele>
        <time>2021-10-17T15:09:09Z</time>
      </trkpt>
      <trkpt lat="46.50124" lon="5.94175">
        <ele>771.8</ele>
        <time>2021-10-17T15:09:10Z</time>
      </trkpt>
      <trkpt lat="46.50124" lon="5.94178">
        <ele>771.8</ele>
        <time>2021-10-17T15:09:11Z</time>
      </trkpt>
      <trkpt lat="46.50124" lon="5.9418">
        <ele>772.2</ele>
        <time>2021-10-17T15:09:12Z</time>
      </trkpt>
      <trkpt lat="46.50124" lon="5.94183">
        <ele>772.4</ele>
        <time>2021-10-17T15:09:13Z</time>
      </trkpt>
      <trkpt lat="46.50125" lon="5.94185">
        <ele>772.8</ele>
        <time>2021-10-17T15:09:14Z</time>
      </trkpt>
      <trkpt lat="46.50124" lon="5.94188">
        <ele>773</ele>
        <time>2021-10-17T15:09:15Z</time>
      </trkpt>
      <trkpt lat="46.50124" lon="5.9419">
        <ele>773.2</ele>
        <time>2021-10-17T15:09:16Z</time>
      </trkpt>
      <trkpt lat="46.50124" lon="5.94193">
        <ele>773.4</ele>
        <time>2021-10-17T15:09:17Z</time>
      </trkpt>
      <trkpt lat="46.50124" lon="5.94195">
        <ele>773.4</ele>
        <time>2021-10-17T15:09:18Z</time>
      </trkpt>
      <trkpt lat="46.50124" lon="5.94198">
        <ele>773.8</ele>
        <time>2021-10-17T15:09:19Z</time>
      </trkpt>
      <trkpt lat="46.50124" lon="5.94201">
        <ele>774</ele>
        <time>2021-10-17T15:09:20Z</time>
      </trkpt>
      <trkpt lat="46.50124" lon="5.94203">
        <ele>774.2</ele>
        <time>2021-10-17T15:09:21Z</time>
      </trkpt>
      <trkpt lat="46.50124" lon="5.94206">
        <ele>774.2</ele>
        <time>2021-10-17T15:09:22Z</time>
      </trkpt>
      <trkpt lat="46.50124" lon="5.94208">
        <ele>774.6</ele>
        <time>2021-10-17T15:09:23Z</time>
      </trkpt>
      <trkpt lat="46.50123" lon="5.94211">
        <ele>774.8</ele>
        <time>2021-10-17T15:09:24Z</time>
      </trkpt>
      <trkpt lat="46.50123" lon="5.94213">
        <ele>774.8</ele>
        <time>2021-10-17T15:09:25Z</time>
      </trkpt>
      <trkpt lat="46.50123" lon="5.94216">
        <ele>775</ele>
        <time>2021-10-17T15:09:26Z</time>
      </trkpt>
      <trkpt lat="46.50124" lon="5.94218">
        <ele>775</ele>
        <time>2021-10-17T15:09:27Z</time>
      </trkpt>
      <trkpt lat="46.50124" lon="5.94221">
        <ele>775.4</ele>
        <time>2021-10-17T15:09:28Z</time>
      </trkpt>
      <trkpt lat="46.50125" lon="5.94223">
        <ele>775.4</ele>
        <time>2021-10-17T15:09:29Z</time>
      </trkpt>
      <trkpt lat="46.50125" lon="5.94226">
        <ele>775.8</ele>
        <time>2021-10-17T15:09:30Z</time>
      </trkpt>
      <trkpt lat="46.50126" lon="5.94228">
        <ele>775.8</ele>
        <time>2021-10-17T15:09:31Z</time>
      </trkpt>
      <trkpt lat="46.50126" lon="5.94231">
        <ele>776</ele>
        <time>2021-10-17T15:09:32Z</time>
      </trkpt>
      <trkpt lat="46.50127" lon="5.94234">
        <ele>776</ele>
        <time>2021-10-17T15:09:33Z</time>
      </trkpt>
      <trkpt lat="46.50127" lon="5.94236">
        <ele>776.4</ele>
        <time>2021-10-17T15:09:34Z</time>
      </trkpt>
      <trkpt lat="46.50128" lon="5.94239">
        <ele>776.4</ele>
        <time>2021-10-17T15:09:35Z</time>
      </trkpt>
      <trkpt lat="46.50129" lon="5.94242">
        <ele>776.8</ele>
        <time>2021-10-17T15:09:36Z</time>
      </trkpt>
      <trkpt lat="46.5013" lon="5.94244">
        <ele>776.8</ele>
        <time>2021-10-17T15:09:37Z</time>
      </trkpt>
      <trkpt lat="46.50131" lon="5.94247">
        <ele>776.8</ele>
        <time>2021-10-17T15:09:38Z</time>
      </trkpt>
      <trkpt lat="46.50132" lon="5.9425">
        <ele>777</ele>
        <time>2021-10-17T15:09:39Z</time>
      </trkpt>
      <trkpt lat="46.50134" lon="5.94252">
        <ele>777</ele>
        <time>2021-10-17T15:09:40Z</time>
      </trkpt>
      <trkpt lat="46.50134" lon="5.94255">
        <ele>777</ele>
        <time>2021-10-17T15:09:41Z</time>
      </trkpt>
      <trkpt lat="46.50135" lon="5.94258">
        <ele>777.4</ele>
        <time>2021-10-17T15:09:42Z</time>
      </trkpt>
      <trkpt lat="46.50136" lon="5.94261">
        <ele>777.4</ele>
        <time>2021-10-17T15:09:43Z</time>
      </trkpt>
      <trkpt lat="46.50137" lon="5.94263">
        <ele>777.4</ele>
        <time>2021-10-17T15:09:44Z</time>
      </trkpt>
      <trkpt lat="46.50138" lon="5.94266">
        <ele>777.6</ele>
        <time>2021-10-17T15:09:45Z</time>
      </trkpt>
      <trkpt lat="46.50139" lon="5.94269">
        <ele>777.6</ele>
        <time>2021-10-17T15:09:46Z</time>
      </trkpt>
      <trkpt lat="46.5014" lon="5.94271">
        <ele>778</ele>
        <time>2021-10-17T15:09:47Z</time>
      </trkpt>
      <trkpt lat="46.50141" lon="5.94274">
        <ele>778</ele>
        <time>2021-10-17T15:09:48Z</time>
      </trkpt>
      <trkpt lat="46.50142" lon="5.94277">
        <ele>778.4</ele>
        <time>2021-10-17T15:09:49Z</time>
      </trkpt>
      <trkpt lat="46.50143" lon="5.9428">
        <ele>778.4</ele>
        <time>2021-10-17T15:09:50Z</time>
      </trkpt>
      <trkpt lat="46.50144" lon="5.94283">
        <ele>778.6</ele>
        <time>2021-10-17T15:09:51Z</time>
      </trkpt>
      <trkpt lat="46.50145" lon="5.94286">
        <ele>778.6</ele>
        <time>2021-10-17T15:09:52Z</time>
      </trkpt>
      <trkpt lat="46.50146" lon="5.94289">
        <ele>779</ele>
        <time>2021-10-17T15:09:53Z</time>
      </trkpt>
      <trkpt lat="46.50148" lon="5.94292">
        <ele>779</ele>
        <time>2021-10-17T15:09:54Z</time>
      </trkpt>
      <trkpt lat="46.50149" lon="5.94295">
        <ele>779.2</ele>
        <time>2021-10-17T15:09:55Z</time>
      </trkpt>
      <trkpt lat="46.5015" lon="5.94298">
        <ele>779.2</ele>
        <time>2021-10-17T15:09:56Z</time>
      </trkpt>
      <trkpt lat="46.50151" lon="5.94301">
        <ele>779.4</ele>
        <time>2021-10-17T15:09:57Z</time>
      </trkpt>
      <trkpt lat="46.50152" lon="5.94305">
        <ele>779.4</ele>
        <time>2021-10-17T15:09:58Z</time>
      </trkpt>
      <trkpt lat="46.50153" lon="5.94308">
        <ele>779.6</ele>
        <time>2021-10-17T15:09:59Z</time>
      </trkpt>
      <trkpt lat="46.50154" lon="5.94311">
        <ele>779.6</ele>
        <time>2021-10-17T15:10:00Z</time>
      </trkpt>
      <trkpt lat="46.50155" lon="5.94315">
        <ele>780</ele>
        <time>2021-10-17T15:10:01Z</time>
      </trkpt>
      <trkpt lat="46.50156" lon="5.94319">
        <ele>780</ele>
        <time>2021-10-17T15:10:02Z</time>
      </trkpt>
      <trkpt lat="46.50157" lon="5.94322">
        <ele>780.2</ele>
        <time>2021-10-17T15:10:03Z</time>
      </trkpt>
      <trkpt lat="46.50158" lon="5.94326">
        <ele>780.2</ele>
        <time>2021-10-17T15:10:04Z</time>
      </trkpt>
      <trkpt lat="46.50159" lon="5.94329">
        <ele>780.6</ele>
        <time>2021-10-17T15:10:05Z</time>
      </trkpt>
      <trkpt lat="46.50161" lon="5.94333">
        <ele>780.6</ele>
        <time>2021-10-17T15:10:06Z</time>
      </trkpt>
      <trkpt lat="46.50162" lon="5.94336">
        <ele>780.8</ele>
        <time>2021-10-17T15:10:07Z</time>
      </trkpt>
      <trkpt lat="46.50163" lon="5.9434">
        <ele>780.8</ele>
        <time>2021-10-17T15:10:08Z</time>
      </trkpt>
      <trkpt lat="46.50164" lon="5.94343">
        <ele>781.2</ele>
        <time>2021-10-17T15:10:09Z</time>
      </trkpt>
      <trkpt lat="46.50165" lon="5.94347">
        <ele>781.2</ele>
        <time>2021-10-17T15:10:10Z</time>
      </trkpt>
      <trkpt lat="46.50166" lon="5.9435">
        <ele>781.6</ele>
        <time>2021-10-17T15:10:11Z</time>
      </trkpt>
      <trkpt lat="46.50167" lon="5.94353">
        <ele>781.6</ele>
        <time>2021-10-17T15:10:12Z</time>
      </trkpt>
      <trkpt lat="46.50168" lon="5.94357">
        <ele>781.8</ele>
        <time>2021-10-17T15:10:13Z</time>
      </trkpt>
      <trkpt lat="46.50169" lon="5.9436">
        <ele>781.8</ele>
        <time>2021-10-17T15:10:14Z</time>
      </trkpt>
      <trkpt lat="46.5017" lon="5.94364">
        <ele>782</ele>
        <time>2021-10-17T15:10:15Z</time>
      </trkpt>
      <trkpt lat="46.50171" lon="5.94367">
        <ele>782</ele>
        <time>2021-10-17T15:10:16Z</time>
      </trkpt>
      <trkpt lat="46.50172" lon="5.94371">
        <ele>782.4</ele>
        <time>2021-10-17T15:10:17Z</time>
      </trkpt>
      <trkpt lat="46.50173" lon="5.94374">
        <ele>782.4</ele>
        <time>2021-10-17T15:10:18Z</time>
      </trkpt>
      <trkpt lat="46.50174" lon="5.94378">
        <ele>782.8</ele>
        <time>2021-10-17T15:10:19Z</time>
      </trkpt>
      <trkpt lat="46.50174" lon="5.94382">
        <ele>782.8</ele>
        <time>2021-10-17T15:10:20Z</time>
      </trkpt>
      <trkpt lat="46.50175" lon="5.94385">
        <ele>783</ele>
        <time>2021-10-17T15:10:21Z</time>
      </trkpt>
      <trkpt lat="46.50176" lon="5.94389">
        <ele>783.4</ele>
        <time>2021-10-17T15:10:22Z</time>
      </trkpt>
      <trkpt lat="46.50177" lon="5.94393">
        <ele>783.4</ele>
        <time>2021-10-17T15:10:23Z</time>
      </trkpt>
      <trkpt lat="46.50178" lon="5.94396">
        <ele>783.8</ele>
        <time>2021-10-17T15:10:24Z</time>
      </trkpt>
      <trkpt lat="46.50179" lon="5.944">
        <ele>783.8</ele>
        <time>2021-10-17T15:10:25Z</time>
      </trkpt>
      <trkpt lat="46.5018" lon="5.94403">
        <ele>784.2</ele>
        <time>2021-10-17T15:10:26Z</time>
      </trkpt>
      <trkpt lat="46.5018" lon="5.94406">
        <ele>784.4</ele>
        <time>2021-10-17T15:10:27Z</time>
      </trkpt>
      <trkpt lat="46.50181" lon="5.9441">
        <ele>784.6</ele>
        <time>2021-10-17T15:10:28Z</time>
      </trkpt>
      <trkpt lat="46.50182" lon="5.94413">
        <ele>785</ele>
        <time>2021-10-17T15:10:29Z</time>
      </trkpt>
      <trkpt lat="46.50182" lon="5.94413">
        <ele>785.2</ele>
        <time>2021-10-17T15:10:30Z</time>
      </trkpt>
      <trkpt lat="46.50182" lon="5.9442">
        <ele>785.4</ele>
        <time>2021-10-17T15:10:31Z</time>
      </trkpt>
      <trkpt lat="46.50183" lon="5.94423">
        <ele>785.4</ele>
        <time>2021-10-17T15:10:32Z</time>
      </trkpt>
      <trkpt lat="46.50183" lon="5.94426">
        <ele>785.8</ele>
        <time>2021-10-17T15:10:33Z</time>
      </trkpt>
      <trkpt lat="46.50183" lon="5.9443">
        <ele>786.2</ele>
        <time>2021-10-17T15:10:34Z</time>
      </trkpt>
      <trkpt lat="46.50183" lon="5.9443">
        <ele>786.4</ele>
        <time>2021-10-17T15:10:35Z</time>
      </trkpt>
      <trkpt lat="46.50183" lon="5.94433">
        <ele>786.6</ele>
        <time>2021-10-17T15:10:36Z</time>
      </trkpt>
      <trkpt lat="46.50182" lon="5.94436">
        <ele>786.8</ele>
        <time>2021-10-17T15:10:37Z</time>
      </trkpt>
      <trkpt lat="46.50182" lon="5.94442">
        <ele>787</ele>
        <time>2021-10-17T15:10:38Z</time>
      </trkpt>
      <trkpt lat="46.50182" lon="5.94442">
        <ele>787.2</ele>
        <time>2021-10-17T15:10:39Z</time>
      </trkpt>
      <trkpt lat="46.50182" lon="5.94446">
        <ele>787.6</ele>
        <time>2021-10-17T15:10:40Z</time>
      </trkpt>
      <trkpt lat="46.50182" lon="5.94449">
        <ele>788</ele>
        <time>2021-10-17T15:10:41Z</time>
      </trkpt>
      <trkpt lat="46.50181" lon="5.94452">
        <ele>788.2</ele>
        <time>2021-10-17T15:10:42Z</time>
      </trkpt>
      <trkpt lat="46.50181" lon="5.94455">
        <ele>788.4</ele>
        <time>2021-10-17T15:10:43Z</time>
      </trkpt>
      <trkpt lat="46.5018" lon="5.94458">
        <ele>788.8</ele>
        <time>2021-10-17T15:10:44Z</time>
      </trkpt>
      <trkpt lat="46.5018" lon="5.94461">
        <ele>789</ele>
        <time>2021-10-17T15:10:45Z</time>
      </trkpt>
      <trkpt lat="46.50179" lon="5.94465">
        <ele>789.2</ele>
        <time>2021-10-17T15:10:46Z</time>
      </trkpt>
      <trkpt lat="46.50178" lon="5.94467">
        <ele>789.6</ele>
        <time>2021-10-17T15:10:47Z</time>
      </trkpt>
      <trkpt lat="46.50178" lon="5.9447">
        <ele>789.8</ele>
        <time>2021-10-17T15:10:48Z</time>
      </trkpt>
      <trkpt lat="46.50177" lon="5.94473">
        <ele>790</ele>
        <time>2021-10-17T15:10:49Z</time>
      </trkpt>
      <trkpt lat="46.50177" lon="5.94476">
        <ele>790.2</ele>
        <time>2021-10-17T15:10:50Z</time>
      </trkpt>
      <trkpt lat="46.50176" lon="5.94479">
        <ele>790.4</ele>
        <time>2021-10-17T15:10:51Z</time>
      </trkpt>
      <trkpt lat="46.50175" lon="5.94482">
        <ele>790.8</ele>
        <time>2021-10-17T15:10:52Z</time>
      </trkpt>
      <trkpt lat="46.50175" lon="5.94485">
        <ele>790.8</ele>
        <time>2021-10-17T15:10:53Z</time>
      </trkpt>
      <trkpt lat="46.50174" lon="5.94488">
        <ele>791.2</ele>
        <time>2021-10-17T15:10:54Z</time>
      </trkpt>
      <trkpt lat="46.50174" lon="5.94491">
        <ele>791.2</ele>
        <time>2021-10-17T15:10:55Z</time>
      </trkpt>
      <trkpt lat="46.50174" lon="5.94493">
        <ele>791.6</ele>
        <time>2021-10-17T15:10:56Z</time>
      </trkpt>
      <trkpt lat="46.50174" lon="5.94496">
        <ele>791.8</ele>
        <time>2021-10-17T15:10:57Z</time>
      </trkpt>
      <trkpt lat="46.50174" lon="5.94499">
        <ele>792.2</ele>
        <time>2021-10-17T15:10:58Z</time>
      </trkpt>
      <trkpt lat="46.50174" lon="5.94502">
        <ele>792.4</ele>
        <time>2021-10-17T15:10:59Z</time>
      </trkpt>
      <trkpt lat="46.50174" lon="5.94505">
        <ele>792.4</ele>
        <time>2021-10-17T15:11:00Z</time>
      </trkpt>
      <trkpt lat="46.50174" lon="5.94508">
        <ele>792.8</ele>
        <time>2021-10-17T15:11:01Z</time>
      </trkpt>
      <trkpt lat="46.50175" lon="5.94511">
        <ele>792.8</ele>
        <time>2021-10-17T15:11:02Z</time>
      </trkpt>
      <trkpt lat="46.50175" lon="5.94514">
        <ele>793</ele>
        <time>2021-10-17T15:11:03Z</time>
      </trkpt>
      <trkpt lat="46.50175" lon="5.94517">
        <ele>793</ele>
        <time>2021-10-17T15:11:04Z</time>
      </trkpt>
      <trkpt lat="46.50175" lon="5.9452">
        <ele>793.4</ele>
        <time>2021-10-17T15:11:05Z</time>
      </trkpt>
      <trkpt lat="46.50175" lon="5.94522">
        <ele>793.6</ele>
        <time>2021-10-17T15:11:06Z</time>
      </trkpt>
      <trkpt lat="46.50175" lon="5.94525">
        <ele>794</ele>
        <time>2021-10-17T15:11:07Z</time>
      </trkpt>
      <trkpt lat="46.50176" lon="5.94528">
        <ele>794.2</ele>
        <time>2021-10-17T15:11:08Z</time>
      </trkpt>
      <trkpt lat="46.50176" lon="5.94531">
        <ele>794.4</ele>
        <time>2021-10-17T15:11:09Z</time>
      </trkpt>
      <trkpt lat="46.50176" lon="5.94534">
        <ele>794.6</ele>
        <time>2021-10-17T15:11:10Z</time>
      </trkpt>
      <trkpt lat="46.50177" lon="5.94537">
        <ele>794.6</ele>
        <time>2021-10-17T15:11:11Z</time>
      </trkpt>
      <trkpt lat="46.50177" lon="5.9454">
        <ele>795</ele>
        <time>2021-10-17T15:11:12Z</time>
      </trkpt>
      <trkpt lat="46.50178" lon="5.94543">
        <ele>795.4</ele>
        <time>2021-10-17T15:11:13Z</time>
      </trkpt>
      <trkpt lat="46.50178" lon="5.94546">
        <ele>795.6</ele>
        <time>2021-10-17T15:11:14Z</time>
      </trkpt>
      <trkpt lat="46.50178" lon="5.94549">
        <ele>795.8</ele>
        <time>2021-10-17T15:11:15Z</time>
      </trkpt>
      <trkpt lat="46.50178" lon="5.94552">
        <ele>796.2</ele>
        <time>2021-10-17T15:11:16Z</time>
      </trkpt>
      <trkpt lat="46.50178" lon="5.94555">
        <ele>796.4</ele>
        <time>2021-10-17T15:11:17Z</time>
      </trkpt>
      <trkpt lat="46.50179" lon="5.94558">
        <ele>796.4</ele>
        <time>2021-10-17T15:11:18Z</time>
      </trkpt>
      <trkpt lat="46.50179" lon="5.94561">
        <ele>796.8</ele>
        <time>2021-10-17T15:11:19Z</time>
      </trkpt>
      <trkpt lat="46.50179" lon="5.94564">
        <ele>797</ele>
        <time>2021-10-17T15:11:20Z</time>
      </trkpt>
      <trkpt lat="46.5018" lon="5.94567">
        <ele>797</ele>
        <time>2021-10-17T15:11:21Z</time>
      </trkpt>
      <trkpt lat="46.5018" lon="5.94569">
        <ele>797.4</ele>
        <time>2021-10-17T15:11:22Z</time>
      </trkpt>
      <trkpt lat="46.50181" lon="5.94572">
        <ele>797.6</ele>
        <time>2021-10-17T15:11:23Z</time>
      </trkpt>
      <trkpt lat="46.50181" lon="5.94575">
        <ele>797.8</ele>
        <time>2021-10-17T15:11:24Z</time>
      </trkpt>
      <trkpt lat="46.50182" lon="5.94578">
        <ele>798.2</ele>
        <time>2021-10-17T15:11:25Z</time>
      </trkpt>
      <trkpt lat="46.50182" lon="5.9458">
        <ele>798.4</ele>
        <time>2021-10-17T15:11:26Z</time>
      </trkpt>
      <trkpt lat="46.50182" lon="5.94583">
        <ele>798.6</ele>
        <time>2021-10-17T15:11:27Z</time>
      </trkpt>
      <trkpt lat="46.50183" lon="5.94585">
        <ele>798.6</ele>
        <time>2021-10-17T15:11:28Z</time>
      </trkpt>
      <trkpt lat="46.50183" lon="5.94588">
        <ele>799</ele>
        <time>2021-10-17T15:11:29Z</time>
      </trkpt>
      <trkpt lat="46.50183" lon="5.94591">
        <ele>799.2</ele>
        <time>2021-10-17T15:11:30Z</time>
      </trkpt>
      <trkpt lat="46.50183" lon="5.94593">
        <ele>799.4</ele>
        <time>2021-10-17T15:11:31Z</time>
      </trkpt>
      <trkpt lat="46.50183" lon="5.94596">
        <ele>799.6</ele>
        <time>2021-10-17T15:11:32Z</time>
      </trkpt>
      <trkpt lat="46.50183" lon="5.94599">
        <ele>799.6</ele>
        <time>2021-10-17T15:11:33Z</time>
      </trkpt>
      <trkpt lat="46.50183" lon="5.94602">
        <ele>800</ele>
        <time>2021-10-17T15:11:34Z</time>
      </trkpt>
      <trkpt lat="46.50183" lon="5.94605">
        <ele>800</ele>
        <time>2021-10-17T15:11:35Z</time>
      </trkpt>
      <trkpt lat="46.50183" lon="5.94607">
        <ele>800.4</ele>
        <time>2021-10-17T15:11:36Z</time>
      </trkpt>
      <trkpt lat="46.50183" lon="5.9461">
        <ele>800.6</ele>
        <time>2021-10-17T15:11:37Z</time>
      </trkpt>
      <trkpt lat="46.50183" lon="5.94613">
        <ele>800.6</ele>
        <time>2021-10-17T15:11:38Z</time>
      </trkpt>
      <trkpt lat="46.50182" lon="5.94616">
        <ele>801</ele>
        <time>2021-10-17T15:11:39Z</time>
      </trkpt>
      <trkpt lat="46.50181" lon="5.94619">
        <ele>801.2</ele>
        <time>2021-10-17T15:11:40Z</time>
      </trkpt>
      <trkpt lat="46.50181" lon="5.94622">
        <ele>801.4</ele>
        <time>2021-10-17T15:11:41Z</time>
      </trkpt>
      <trkpt lat="46.5018" lon="5.94625">
        <ele>801.4</ele>
        <time>2021-10-17T15:11:42Z</time>
      </trkpt>
      <trkpt lat="46.5018" lon="5.94628">
        <ele>801.8</ele>
        <time>2021-10-17T15:11:43Z</time>
      </trkpt>
      <trkpt lat="46.50179" lon="5.94631">
        <ele>802</ele>
        <time>2021-10-17T15:11:44Z</time>
      </trkpt>
      <trkpt lat="46.50179" lon="5.94634">
        <ele>802</ele>
        <time>2021-10-17T15:11:45Z</time>
      </trkpt>
      <trkpt lat="46.50178" lon="5.94637">
        <ele>802.4</ele>
        <time>2021-10-17T15:11:46Z</time>
      </trkpt>
      <trkpt lat="46.50178" lon="5.94639">
        <ele>802.6</ele>
        <time>2021-10-17T15:11:47Z</time>
      </trkpt>
      <trkpt lat="46.50177" lon="5.94642">
        <ele>802.8</ele>
        <time>2021-10-17T15:11:48Z</time>
      </trkpt>
      <trkpt lat="46.50176" lon="5.94645">
        <ele>803.2</ele>
        <time>2021-10-17T15:11:49Z</time>
      </trkpt>
      <trkpt lat="46.50176" lon="5.94648">
        <ele>803.4</ele>
        <time>2021-10-17T15:11:50Z</time>
      </trkpt>
      <trkpt lat="46.50175" lon="5.94651">
        <ele>803.4</ele>
        <time>2021-10-17T15:11:51Z</time>
      </trkpt>
      <trkpt lat="46.50174" lon="5.94653">
        <ele>803.8</ele>
        <time>2021-10-17T15:11:52Z</time>
      </trkpt>
      <trkpt lat="46.50174" lon="5.94656">
        <ele>803.8</ele>
        <time>2021-10-17T15:11:53Z</time>
      </trkpt>
      <trkpt lat="46.50173" lon="5.94659">
        <ele>804</ele>
        <time>2021-10-17T15:11:54Z</time>
      </trkpt>
      <trkpt lat="46.50173" lon="5.94662">
        <ele>804</ele>
        <time>2021-10-17T15:11:55Z</time>
      </trkpt>
      <trkpt lat="46.50173" lon="5.94665">
        <ele>804.4</ele>
        <time>2021-10-17T15:11:56Z</time>
      </trkpt>
      <trkpt lat="46.50172" lon="5.94667">
        <ele>804.6</ele>
        <time>2021-10-17T15:11:57Z</time>
      </trkpt>
      <trkpt lat="46.50171" lon="5.9467">
        <ele>804.6</ele>
        <time>2021-10-17T15:11:58Z</time>
      </trkpt>
      <trkpt lat="46.50171" lon="5.94673">
        <ele>805</ele>
        <time>2021-10-17T15:11:59Z</time>
      </trkpt>
      <trkpt lat="46.5017" lon="5.94676">
        <ele>805.2</ele>
        <time>2021-10-17T15:12:00Z</time>
      </trkpt>
      <trkpt lat="46.5017" lon="5.94679">
        <ele>805.4</ele>
        <time>2021-10-17T15:12:01Z</time>
      </trkpt>
      <trkpt lat="46.5017" lon="5.94682">
        <ele>805.4</ele>
        <time>2021-10-17T15:12:02Z</time>
      </trkpt>
      <trkpt lat="46.5017" lon="5.94684">
        <ele>805.8</ele>
        <time>2021-10-17T15:12:03Z</time>
      </trkpt>
      <trkpt lat="46.50169" lon="5.94687">
        <ele>806</ele>
        <time>2021-10-17T15:12:04Z</time>
      </trkpt>
      <trkpt lat="46.50169" lon="5.9469">
        <ele>806</ele>
        <time>2021-10-17T15:12:05Z</time>
      </trkpt>
      <trkpt lat="46.50169" lon="5.94693">
        <ele>806.4</ele>
        <time>2021-10-17T15:12:06Z</time>
      </trkpt>
      <trkpt lat="46.50168" lon="5.94696">
        <ele>806.8</ele>
        <time>2021-10-17T15:12:07Z</time>
      </trkpt>
      <trkpt lat="46.50168" lon="5.94698">
        <ele>806.8</ele>
        <time>2021-10-17T15:12:08Z</time>
      </trkpt>
      <trkpt lat="46.50168" lon="5.94701">
        <ele>807.2</ele>
        <time>2021-10-17T15:12:09Z</time>
      </trkpt>
      <trkpt lat="46.50168" lon="5.94704">
        <ele>807.2</ele>
        <time>2021-10-17T15:12:10Z</time>
      </trkpt>
      <trkpt lat="46.50168" lon="5.94706">
        <ele>807.4</ele>
        <time>2021-10-17T15:12:11Z</time>
      </trkpt>
      <trkpt lat="46.50167" lon="5.94709">
        <ele>807.4</ele>
        <time>2021-10-17T15:12:12Z</time>
      </trkpt>
      <trkpt lat="46.50167" lon="5.94712">
        <ele>807.8</ele>
        <time>2021-10-17T15:12:13Z</time>
      </trkpt>
      <trkpt lat="46.50166" lon="5.94714">
        <ele>807.8</ele>
        <time>2021-10-17T15:12:14Z</time>
      </trkpt>
      <trkpt lat="46.50166" lon="5.94717">
        <ele>808.2</ele>
        <time>2021-10-17T15:12:15Z</time>
      </trkpt>
      <trkpt lat="46.50165" lon="5.94719">
        <ele>808.2</ele>
        <time>2021-10-17T15:12:16Z</time>
      </trkpt>
      <trkpt lat="46.50165" lon="5.94722">
        <ele>808.4</ele>
        <time>2021-10-17T15:12:17Z</time>
      </trkpt>
      <trkpt lat="46.50165" lon="5.94724">
        <ele>808.8</ele>
        <time>2021-10-17T15:12:18Z</time>
      </trkpt>
      <trkpt lat="46.50165" lon="5.94727">
        <ele>809</ele>
        <time>2021-10-17T15:12:19Z</time>
      </trkpt>
      <trkpt lat="46.50165" lon="5.9473">
        <ele>809.2</ele>
        <time>2021-10-17T15:12:20Z</time>
      </trkpt>
      <trkpt lat="46.50165" lon="5.94732">
        <ele>809.6</ele>
        <time>2021-10-17T15:12:21Z</time>
      </trkpt>
      <trkpt lat="46.50165" lon="5.94735">
        <ele>809.6</ele>
        <time>2021-10-17T15:12:22Z</time>
      </trkpt>
      <trkpt lat="46.50165" lon="5.94737">
        <ele>809.8</ele>
        <time>2021-10-17T15:12:23Z</time>
      </trkpt>
      <trkpt lat="46.50166" lon="5.9474">
        <ele>810.2</ele>
        <time>2021-10-17T15:12:24Z</time>
      </trkpt>
      <trkpt lat="46.50166" lon="5.94742">
        <ele>810.4</ele>
        <time>2021-10-17T15:12:25Z</time>
      </trkpt>
      <trkpt lat="46.50167" lon="5.94745">
        <ele>810.6</ele>
        <time>2021-10-17T15:12:26Z</time>
      </trkpt>
      <trkpt lat="46.50167" lon="5.94748">
        <ele>810.8</ele>
        <time>2021-10-17T15:12:27Z</time>
      </trkpt>
      <trkpt lat="46.50167" lon="5.9475">
        <ele>811</ele>
        <time>2021-10-17T15:12:28Z</time>
      </trkpt>
      <trkpt lat="46.50167" lon="5.94753">
        <ele>811.4</ele>
        <time>2021-10-17T15:12:29Z</time>
      </trkpt>
      <trkpt lat="46.50168" lon="5.94756">
        <ele>811.6</ele>
        <time>2021-10-17T15:12:30Z</time>
      </trkpt>
      <trkpt lat="46.50168" lon="5.94759">
        <ele>812</ele>
        <time>2021-10-17T15:12:31Z</time>
      </trkpt>
      <trkpt lat="46.50168" lon="5.94761">
        <ele>812.2</ele>
        <time>2021-10-17T15:12:32Z</time>
      </trkpt>
      <trkpt lat="46.50168" lon="5.94764">
        <ele>812.6</ele>
        <time>2021-10-17T15:12:33Z</time>
      </trkpt>
      <trkpt lat="46.50168" lon="5.94767">
        <ele>812.8</ele>
        <time>2021-10-17T15:12:34Z</time>
      </trkpt>
      <trkpt lat="46.50168" lon="5.94769">
        <ele>813.2</ele>
        <time>2021-10-17T15:12:35Z</time>
      </trkpt>
      <trkpt lat="46.50168" lon="5.94772">
        <ele>813.4</ele>
        <time>2021-10-17T15:12:36Z</time>
      </trkpt>
      <trkpt lat="46.50168" lon="5.94774">
        <ele>813.8</ele>
        <time>2021-10-17T15:12:37Z</time>
      </trkpt>
      <trkpt lat="46.50168" lon="5.94776">
        <ele>814</ele>
        <time>2021-10-17T15:12:38Z</time>
      </trkpt>
      <trkpt lat="46.50169" lon="5.94779">
        <ele>814</ele>
        <time>2021-10-17T15:12:39Z</time>
      </trkpt>
      <trkpt lat="46.50169" lon="5.94782">
        <ele>814.6</ele>
        <time>2021-10-17T15:12:40Z</time>
      </trkpt>
      <trkpt lat="46.50169" lon="5.94784">
        <ele>814.8</ele>
        <time>2021-10-17T15:12:41Z</time>
      </trkpt>
      <trkpt lat="46.50169" lon="5.94787">
        <ele>815</ele>
        <time>2021-10-17T15:12:42Z</time>
      </trkpt>
      <trkpt lat="46.50169" lon="5.94789">
        <ele>815.2</ele>
        <time>2021-10-17T15:12:43Z</time>
      </trkpt>
      <trkpt lat="46.5017" lon="5.94792">
        <ele>815.2</ele>
        <time>2021-10-17T15:12:44Z</time>
      </trkpt>
      <trkpt lat="46.5017" lon="5.94794">
        <ele>815.6</ele>
        <time>2021-10-17T15:12:45Z</time>
      </trkpt>
      <trkpt lat="46.5017" lon="5.94797">
        <ele>815.6</ele>
        <time>2021-10-17T15:12:46Z</time>
      </trkpt>
      <trkpt lat="46.5017" lon="5.94799">
        <ele>816</ele>
        <time>2021-10-17T15:12:47Z</time>
      </trkpt>
      <trkpt lat="46.5017" lon="5.94801">
        <ele>816.2</ele>
        <time>2021-10-17T15:12:48Z</time>
      </trkpt>
      <trkpt lat="46.5017" lon="5.94804">
        <ele>816.2</ele>
        <time>2021-10-17T15:12:49Z</time>
      </trkpt>
      <trkpt lat="46.5017" lon="5.94806">
        <ele>816.6</ele>
        <time>2021-10-17T15:12:50Z</time>
      </trkpt>
      <trkpt lat="46.50171" lon="5.94808">
        <ele>816.6</ele>
        <time>2021-10-17T15:12:51Z</time>
      </trkpt>
      <trkpt lat="46.50171" lon="5.9481">
        <ele>817</ele>
        <time>2021-10-17T15:12:52Z</time>
      </trkpt>
      <trkpt lat="46.50171" lon="5.94812">
        <ele>817</ele>
        <time>2021-10-17T15:12:53Z</time>
      </trkpt>
      <trkpt lat="46.50171" lon="5.94815">
        <ele>817.4</ele>
        <time>2021-10-17T15:12:54Z</time>
      </trkpt>
      <trkpt lat="46.50171" lon="5.94818">
        <ele>817.6</ele>
        <time>2021-10-17T15:12:55Z</time>
      </trkpt>
      <trkpt lat="46.50172" lon="5.9482">
        <ele>817.8</ele>
        <time>2021-10-17T15:12:56Z</time>
      </trkpt>
      <trkpt lat="46.50172" lon="5.94822">
        <ele>817.8</ele>
        <time>2021-10-17T15:12:57Z</time>
      </trkpt>
      <trkpt lat="46.50172" lon="5.94825">
        <ele>818.2</ele>
        <time>2021-10-17T15:12:58Z</time>
      </trkpt>
      <trkpt lat="46.50172" lon="5.94827">
        <ele>818.2</ele>
        <time>2021-10-17T15:12:59Z</time>
      </trkpt>
      <trkpt lat="46.50173" lon="5.94829">
        <ele>818.6</ele>
        <time>2021-10-17T15:13:00Z</time>
      </trkpt>
      <trkpt lat="46.50173" lon="5.94831">
        <ele>818.8</ele>
        <time>2021-10-17T15:13:01Z</time>
      </trkpt>
      <trkpt lat="46.50173" lon="5.94834">
        <ele>819</ele>
        <time>2021-10-17T15:13:02Z</time>
      </trkpt>
      <trkpt lat="46.50173" lon="5.94836">
        <ele>819.2</ele>
        <time>2021-10-17T15:13:03Z</time>
      </trkpt>
      <trkpt lat="46.50173" lon="5.94838">
        <ele>819.4</ele>
        <time>2021-10-17T15:13:04Z</time>
      </trkpt>
      <trkpt lat="46.50173" lon="5.9484">
        <ele>819.4</ele>
        <time>2021-10-17T15:13:05Z</time>
      </trkpt>
      <trkpt lat="46.50174" lon="5.94842">
        <ele>819.8</ele>
        <time>2021-10-17T15:13:06Z</time>
      </trkpt>
      <trkpt lat="46.50174" lon="5.94844">
        <ele>819.8</ele>
        <time>2021-10-17T15:13:07Z</time>
      </trkpt>
      <trkpt lat="46.50175" lon="5.94846">
        <ele>820.2</ele>
        <time>2021-10-17T15:13:08Z</time>
      </trkpt>
      <trkpt lat="46.50175" lon="5.94848">
        <ele>820.2</ele>
        <time>2021-10-17T15:13:09Z</time>
      </trkpt>
      <trkpt lat="46.50175" lon="5.9485">
        <ele>820.4</ele>
        <time>2021-10-17T15:13:10Z</time>
      </trkpt>
      <trkpt lat="46.50176" lon="5.94853">
        <ele>820.4</ele>
        <time>2021-10-17T15:13:11Z</time>
      </trkpt>
      <trkpt lat="46.50176" lon="5.94855">
        <ele>820.8</ele>
        <time>2021-10-17T15:13:12Z</time>
      </trkpt>
      <trkpt lat="46.50176" lon="5.94857">
        <ele>820.8</ele>
        <time>2021-10-17T15:13:13Z</time>
      </trkpt>
      <trkpt lat="46.50176" lon="5.9486">
        <ele>821.2</ele>
        <time>2021-10-17T15:13:14Z</time>
      </trkpt>
      <trkpt lat="46.50177" lon="5.94862">
        <ele>821.2</ele>
        <time>2021-10-17T15:13:15Z</time>
      </trkpt>
      <trkpt lat="46.50177" lon="5.94864">
        <ele>821.6</ele>
        <time>2021-10-17T15:13:16Z</time>
      </trkpt>
      <trkpt lat="46.50178" lon="5.94866">
        <ele>821.6</ele>
        <time>2021-10-17T15:13:17Z</time>
      </trkpt>
      <trkpt lat="46.50178" lon="5.94869">
        <ele>821.8</ele>
        <time>2021-10-17T15:13:18Z</time>
      </trkpt>
      <trkpt lat="46.50179" lon="5.94871">
        <ele>821.8</ele>
        <time>2021-10-17T15:13:19Z</time>
      </trkpt>
      <trkpt lat="46.50179" lon="5.94873">
        <ele>822</ele>
        <time>2021-10-17T15:13:20Z</time>
      </trkpt>
      <trkpt lat="46.5018" lon="5.94875">
        <ele>822</ele>
        <time>2021-10-17T15:13:21Z</time>
      </trkpt>
      <trkpt lat="46.50181" lon="5.94878">
        <ele>822.4</ele>
        <time>2021-10-17T15:13:22Z</time>
      </trkpt>
      <trkpt lat="46.50181" lon="5.9488">
        <ele>822.4</ele>
        <time>2021-10-17T15:13:23Z</time>
      </trkpt>
      <trkpt lat="46.50182" lon="5.94882">
        <ele>822.8</ele>
        <time>2021-10-17T15:13:24Z</time>
      </trkpt>
      <trkpt lat="46.50183" lon="5.94885">
        <ele>822.8</ele>
        <time>2021-10-17T15:13:25Z</time>
      </trkpt>
      <trkpt lat="46.50183" lon="5.94887">
        <ele>823</ele>
        <time>2021-10-17T15:13:26Z</time>
      </trkpt>
      <trkpt lat="46.50184" lon="5.94889">
        <ele>823</ele>
        <time>2021-10-17T15:13:27Z</time>
      </trkpt>
      <trkpt lat="46.50184" lon="5.94892">
        <ele>823.6</ele>
        <time>2021-10-17T15:13:28Z</time>
      </trkpt>
      <trkpt lat="46.50185" lon="5.94894">
        <ele>823.6</ele>
        <time>2021-10-17T15:13:29Z</time>
      </trkpt>
      <trkpt lat="46.50185" lon="5.94897">
        <ele>823.8</ele>
        <time>2021-10-17T15:13:30Z</time>
      </trkpt>
      <trkpt lat="46.50186" lon="5.94899">
        <ele>824.2</ele>
        <time>2021-10-17T15:13:31Z</time>
      </trkpt>
      <trkpt lat="46.50187" lon="5.94901">
        <ele>824.4</ele>
        <time>2021-10-17T15:13:32Z</time>
      </trkpt>
      <trkpt lat="46.50187" lon="5.94903">
        <ele>824.4</ele>
        <time>2021-10-17T15:13:33Z</time>
      </trkpt>
      <trkpt lat="46.50188" lon="5.94906">
        <ele>824.6</ele>
        <time>2021-10-17T15:13:34Z</time>
      </trkpt>
      <trkpt lat="46.50188" lon="5.94908">
        <ele>824.8</ele>
        <time>2021-10-17T15:13:35Z</time>
      </trkpt>
      <trkpt lat="46.50189" lon="5.9491">
        <ele>824.8</ele>
        <time>2021-10-17T15:13:36Z</time>
      </trkpt>
      <trkpt lat="46.50189" lon="5.94913">
        <ele>825.2</ele>
        <time>2021-10-17T15:13:37Z</time>
      </trkpt>
      <trkpt lat="46.50189" lon="5.94915">
        <ele>825.2</ele>
        <time>2021-10-17T15:13:38Z</time>
      </trkpt>
      <trkpt lat="46.5019" lon="5.94918">
        <ele>825.6</ele>
        <time>2021-10-17T15:13:39Z</time>
      </trkpt>
      <trkpt lat="46.5019" lon="5.9492">
        <ele>825.6</ele>
        <time>2021-10-17T15:13:40Z</time>
      </trkpt>
      <trkpt lat="46.50191" lon="5.94922">
        <ele>826</ele>
        <time>2021-10-17T15:13:41Z</time>
      </trkpt>
      <trkpt lat="46.50192" lon="5.94924">
        <ele>826.2</ele>
        <time>2021-10-17T15:13:42Z</time>
      </trkpt>
      <trkpt lat="46.50192" lon="5.94927">
        <ele>826.4</ele>
        <time>2021-10-17T15:13:43Z</time>
      </trkpt>
      <trkpt lat="46.50193" lon="5.94929">
        <ele>826.6</ele>
        <time>2021-10-17T15:13:44Z</time>
      </trkpt>
      <trkpt lat="46.50194" lon="5.94932">
        <ele>826.6</ele>
        <time>2021-10-17T15:13:45Z</time>
      </trkpt>
      <trkpt lat="46.50195" lon="5.94934">
        <ele>827</ele>
        <time>2021-10-17T15:13:46Z</time>
      </trkpt>
      <trkpt lat="46.50195" lon="5.94936">
        <ele>827</ele>
        <time>2021-10-17T15:13:47Z</time>
      </trkpt>
      <trkpt lat="46.50196" lon="5.94939">
        <ele>827.4</ele>
        <time>2021-10-17T15:13:48Z</time>
      </trkpt>
      <trkpt lat="46.50197" lon="5.94941">
        <ele>827.6</ele>
        <time>2021-10-17T15:13:49Z</time>
      </trkpt>
      <trkpt lat="46.50198" lon="5.94943">
        <ele>827.6</ele>
        <time>2021-10-17T15:13:50Z</time>
      </trkpt>
      <trkpt lat="46.50198" lon="5.94945">
        <ele>828</ele>
        <time>2021-10-17T15:13:51Z</time>
      </trkpt>
      <trkpt lat="46.50199" lon="5.94947">
        <ele>828</ele>
        <time>2021-10-17T15:13:52Z</time>
      </trkpt>
      <trkpt lat="46.502" lon="5.94949">
        <ele>828.4</ele>
        <time>2021-10-17T15:13:53Z</time>
      </trkpt>
      <trkpt lat="46.50201" lon="5.94951">
        <ele>828.6</ele>
        <time>2021-10-17T15:13:54Z</time>
      </trkpt>
      <trkpt lat="46.50201" lon="5.94954">
        <ele>828.6</ele>
        <time>2021-10-17T15:13:55Z</time>
      </trkpt>
      <trkpt lat="46.50201" lon="5.94956">
        <ele>828.8</ele>
        <time>2021-10-17T15:13:56Z</time>
      </trkpt>
      <trkpt lat="46.50202" lon="5.94959">
        <ele>828.8</ele>
        <time>2021-10-17T15:13:57Z</time>
      </trkpt>
      <trkpt lat="46.50203" lon="5.94961">
        <ele>829.2</ele>
        <time>2021-10-17T15:13:58Z</time>
      </trkpt>
      <trkpt lat="46.50204" lon="5.94962">
        <ele>829.2</ele>
        <time>2021-10-17T15:13:59Z</time>
      </trkpt>
      <trkpt lat="46.50205" lon="5.94964">
        <ele>829.4</ele>
        <time>2021-10-17T15:14:00Z</time>
      </trkpt>
      <trkpt lat="46.50207" lon="5.94965">
        <ele>829.4</ele>
        <time>2021-10-17T15:14:01Z</time>
      </trkpt>
      <trkpt lat="46.50209" lon="5.94966">
        <ele>829.4</ele>
        <time>2021-10-17T15:14:02Z</time>
      </trkpt>
      <trkpt lat="46.50211" lon="5.94967">
        <ele>829.8</ele>
        <time>2021-10-17T15:14:03Z</time>
      </trkpt>
      <trkpt lat="46.50213" lon="5.94967">
        <ele>829.8</ele>
        <time>2021-10-17T15:14:04Z</time>
      </trkpt>
      <trkpt lat="46.50215" lon="5.94968">
        <ele>829.8</ele>
        <time>2021-10-17T15:14:05Z</time>
      </trkpt>
      <trkpt lat="46.50217" lon="5.94968">
        <ele>830</ele>
        <time>2021-10-17T15:14:06Z</time>
      </trkpt>
      <trkpt lat="46.50219" lon="5.94967">
        <ele>830</ele>
        <time>2021-10-17T15:14:07Z</time>
      </trkpt>
      <trkpt lat="46.5022" lon="5.94966">
        <ele>830.4</ele>
        <time>2021-10-17T15:14:08Z</time>
      </trkpt>
      <trkpt lat="46.50222" lon="5.94964">
        <ele>830.4</ele>
        <time>2021-10-17T15:14:09Z</time>
      </trkpt>
      <trkpt lat="46.50224" lon="5.94963">
        <ele>830.6</ele>
        <time>2021-10-17T15:14:10Z</time>
      </trkpt>
      <trkpt lat="46.50225" lon="5.94962">
        <ele>830.6</ele>
        <time>2021-10-17T15:14:11Z</time>
      </trkpt>
      <trkpt lat="46.50227" lon="5.9496">
        <ele>830.8</ele>
        <time>2021-10-17T15:14:12Z</time>
      </trkpt>
      <trkpt lat="46.50228" lon="5.94958">
        <ele>830.8</ele>
        <time>2021-10-17T15:14:13Z</time>
      </trkpt>
      <trkpt lat="46.50229" lon="5.94956">
        <ele>831.2</ele>
        <time>2021-10-17T15:14:14Z</time>
      </trkpt>
      <trkpt lat="46.5023" lon="5.94954">
        <ele>831.4</ele>
        <time>2021-10-17T15:14:15Z</time>
      </trkpt>
      <trkpt lat="46.5023" lon="5.94952">
        <ele>831.6</ele>
        <time>2021-10-17T15:14:16Z</time>
      </trkpt>
      <trkpt lat="46.50231" lon="5.9495">
        <ele>831.6</ele>
        <time>2021-10-17T15:14:17Z</time>
      </trkpt>
      <trkpt lat="46.50231" lon="5.94948">
        <ele>832</ele>
        <time>2021-10-17T15:14:18Z</time>
      </trkpt>
      <trkpt lat="46.50231" lon="5.94945">
        <ele>832.2</ele>
        <time>2021-10-17T15:14:19Z</time>
      </trkpt>
      <trkpt lat="46.50231" lon="5.94943">
        <ele>832.2</ele>
        <time>2021-10-17T15:14:20Z</time>
      </trkpt>
      <trkpt lat="46.50231" lon="5.9494">
        <ele>832.6</ele>
        <time>2021-10-17T15:14:21Z</time>
      </trkpt>
      <trkpt lat="46.50231" lon="5.94938">
        <ele>832.6</ele>
        <time>2021-10-17T15:14:22Z</time>
      </trkpt>
      <trkpt lat="46.50231" lon="5.94936">
        <ele>833</ele>
        <time>2021-10-17T15:14:23Z</time>
      </trkpt>
      <trkpt lat="46.5023" lon="5.94933">
        <ele>833.4</ele>
        <time>2021-10-17T15:14:24Z</time>
      </trkpt>
      <trkpt lat="46.5023" lon="5.94931">
        <ele>833.6</ele>
        <time>2021-10-17T15:14:25Z</time>
      </trkpt>
      <trkpt lat="46.5023" lon="5.94928">
        <ele>834</ele>
        <time>2021-10-17T15:14:26Z</time>
      </trkpt>
      <trkpt lat="46.5023" lon="5.94926">
        <ele>834.2</ele>
        <time>2021-10-17T15:14:27Z</time>
      </trkpt>
      <trkpt lat="46.5023" lon="5.94924">
        <ele>834.4</ele>
        <time>2021-10-17T15:14:28Z</time>
      </trkpt>
      <trkpt lat="46.5023" lon="5.94921">
        <ele>834.8</ele>
        <time>2021-10-17T15:14:29Z</time>
      </trkpt>
      <trkpt lat="46.5023" lon="5.94919">
        <ele>835</ele>
        <time>2021-10-17T15:14:30Z</time>
      </trkpt>
      <trkpt lat="46.5023" lon="5.94917">
        <ele>835.4</ele>
        <time>2021-10-17T15:14:31Z</time>
      </trkpt>
      <trkpt lat="46.50229" lon="5.94915">
        <ele>835.6</ele>
        <time>2021-10-17T15:14:32Z</time>
      </trkpt>
      <trkpt lat="46.50229" lon="5.94912">
        <ele>835.8</ele>
        <time>2021-10-17T15:14:33Z</time>
      </trkpt>
      <trkpt lat="46.50229" lon="5.94909">
        <ele>835.8</ele>
        <time>2021-10-17T15:14:34Z</time>
      </trkpt>
      <trkpt lat="46.5023" lon="5.94907">
        <ele>836.2</ele>
        <time>2021-10-17T15:14:35Z</time>
      </trkpt>
      <trkpt lat="46.5023" lon="5.94905">
        <ele>836.2</ele>
        <time>2021-10-17T15:14:36Z</time>
      </trkpt>
      <trkpt lat="46.50231" lon="5.94903">
        <ele>836.6</ele>
        <time>2021-10-17T15:14:37Z</time>
      </trkpt>
      <trkpt lat="46.50232" lon="5.94902">
        <ele>836.8</ele>
        <time>2021-10-17T15:14:38Z</time>
      </trkpt>
      <trkpt lat="46.50234" lon="5.94901">
        <ele>836.8</ele>
        <time>2021-10-17T15:14:39Z</time>
      </trkpt>
      <trkpt lat="46.50235" lon="5.949">
        <ele>837.2</ele>
        <time>2021-10-17T15:14:40Z</time>
      </trkpt>
      <trkpt lat="46.50237" lon="5.949">
        <ele>837.2</ele>
        <time>2021-10-17T15:14:41Z</time>
      </trkpt>
      <trkpt lat="46.50239" lon="5.94901">
        <ele>837.4</ele>
        <time>2021-10-17T15:14:42Z</time>
      </trkpt>
      <trkpt lat="46.5024" lon="5.94903">
        <ele>837.4</ele>
        <time>2021-10-17T15:14:43Z</time>
      </trkpt>
      <trkpt lat="46.5024" lon="5.94905">
        <ele>837.6</ele>
        <time>2021-10-17T15:14:44Z</time>
      </trkpt>
      <trkpt lat="46.50241" lon="5.94908">
        <ele>837.6</ele>
        <time>2021-10-17T15:14:45Z</time>
      </trkpt>
      <trkpt lat="46.50241" lon="5.9491">
        <ele>837.8</ele>
        <time>2021-10-17T15:14:46Z</time>
      </trkpt>
      <trkpt lat="46.50242" lon="5.94913">
        <ele>837.8</ele>
        <time>2021-10-17T15:14:47Z</time>
      </trkpt>
      <trkpt lat="46.50242" lon="5.94916">
        <ele>837.8</ele>
        <time>2021-10-17T15:14:48Z</time>
      </trkpt>
      <trkpt lat="46.50243" lon="5.94919">
        <ele>838.2</ele>
        <time>2021-10-17T15:14:49Z</time>
      </trkpt>
      <trkpt lat="46.50243" lon="5.94921">
        <ele>838.2</ele>
        <time>2021-10-17T15:14:50Z</time>
      </trkpt>
      <trkpt lat="46.50244" lon="5.94924">
        <ele>838.2</ele>
        <time>2021-10-17T15:14:51Z</time>
      </trkpt>
      <trkpt lat="46.50245" lon="5.94927">
        <ele>838.4</ele>
        <time>2021-10-17T15:14:52Z</time>
      </trkpt>
      <trkpt lat="46.50246" lon="5.9493">
        <ele>838.4</ele>
        <time>2021-10-17T15:14:53Z</time>
      </trkpt>
      <trkpt lat="46.50248" lon="5.94932">
        <ele>838.6</ele>
        <time>2021-10-17T15:14:54Z</time>
      </trkpt>
      <trkpt lat="46.50249" lon="5.94935">
        <ele>838.6</ele>
        <time>2021-10-17T15:14:55Z</time>
      </trkpt>
      <trkpt lat="46.5025" lon="5.94937">
        <ele>838.8</ele>
        <time>2021-10-17T15:14:56Z</time>
      </trkpt>
      <trkpt lat="46.50251" lon="5.9494">
        <ele>838.8</ele>
        <time>2021-10-17T15:14:57Z</time>
      </trkpt>
      <trkpt lat="46.50252" lon="5.94943">
        <ele>839.2</ele>
        <time>2021-10-17T15:14:58Z</time>
      </trkpt>
      <trkpt lat="46.50253" lon="5.94946">
        <ele>839.2</ele>
        <time>2021-10-17T15:14:59Z</time>
      </trkpt>
      <trkpt lat="46.50254" lon="5.94949">
        <ele>839.2</ele>
        <time>2021-10-17T15:15:00Z</time>
      </trkpt>
      <trkpt lat="46.50256" lon="5.94951">
        <ele>839.6</ele>
        <time>2021-10-17T15:15:01Z</time>
      </trkpt>
      <trkpt lat="46.50257" lon="5.94953">
        <ele>839.6</ele>
        <time>2021-10-17T15:15:02Z</time>
      </trkpt>
      <trkpt lat="46.50258" lon="5.94956">
        <ele>839.8</ele>
        <time>2021-10-17T15:15:03Z</time>
      </trkpt>
      <trkpt lat="46.50259" lon="5.94958">
        <ele>839.8</ele>
        <time>2021-10-17T15:15:04Z</time>
      </trkpt>
      <trkpt lat="46.50261" lon="5.9496">
        <ele>840</ele>
        <time>2021-10-17T15:15:05Z</time>
      </trkpt>
      <trkpt lat="46.50262" lon="5.94963">
        <ele>840</ele>
        <time>2021-10-17T15:15:06Z</time>
      </trkpt>
      <trkpt lat="46.50263" lon="5.94965">
        <ele>840</ele>
        <time>2021-10-17T15:15:07Z</time>
      </trkpt>
      <trkpt lat="46.50264" lon="5.94968">
        <ele>840.4</ele>
        <time>2021-10-17T15:15:08Z</time>
      </trkpt>
      <trkpt lat="46.50266" lon="5.9497">
        <ele>840.4</ele>
        <time>2021-10-17T15:15:09Z</time>
      </trkpt>
      <trkpt lat="46.50267" lon="5.94973">
        <ele>840.4</ele>
        <time>2021-10-17T15:15:10Z</time>
      </trkpt>
      <trkpt lat="46.50269" lon="5.94975">
        <ele>840.8</ele>
        <time>2021-10-17T15:15:11Z</time>
      </trkpt>
      <trkpt lat="46.5027" lon="5.94977">
        <ele>840.8</ele>
        <time>2021-10-17T15:15:12Z</time>
      </trkpt>
      <trkpt lat="46.50271" lon="5.9498">
        <ele>840.8</ele>
        <time>2021-10-17T15:15:13Z</time>
      </trkpt>
      <trkpt lat="46.50273" lon="5.94982">
        <ele>841</ele>
        <time>2021-10-17T15:15:14Z</time>
      </trkpt>
      <trkpt lat="46.50274" lon="5.94984">
        <ele>841</ele>
        <time>2021-10-17T15:15:15Z</time>
      </trkpt>
      <trkpt lat="46.50276" lon="5.94986">
        <ele>841.2</ele>
        <time>2021-10-17T15:15:16Z</time>
      </trkpt>
      <trkpt lat="46.50277" lon="5.94989">
        <ele>841.2</ele>
        <time>2021-10-17T15:15:17Z</time>
      </trkpt>
      <trkpt lat="46.50278" lon="5.94992">
        <ele>841.6</ele>
        <time>2021-10-17T15:15:18Z</time>
      </trkpt>
      <trkpt lat="46.50279" lon="5.94995">
        <ele>841.6</ele>
        <time>2021-10-17T15:15:19Z</time>
      </trkpt>
      <trkpt lat="46.50281" lon="5.94998">
        <ele>841.8</ele>
        <time>2021-10-17T15:15:20Z</time>
      </trkpt>
      <trkpt lat="46.50282" lon="5.95001">
        <ele>841.8</ele>
        <time>2021-10-17T15:15:21Z</time>
      </trkpt>
      <trkpt lat="46.50284" lon="5.95004">
        <ele>842</ele>
        <time>2021-10-17T15:15:22Z</time>
      </trkpt>
      <trkpt lat="46.50285" lon="5.95007">
        <ele>842</ele>
        <time>2021-10-17T15:15:23Z</time>
      </trkpt>
      <trkpt lat="46.50287" lon="5.9501">
        <ele>842.2</ele>
        <time>2021-10-17T15:15:24Z</time>
      </trkpt>
      <trkpt lat="46.50288" lon="5.95013">
        <ele>842.2</ele>
        <time>2021-10-17T15:15:25Z</time>
      </trkpt>
      <trkpt lat="46.5029" lon="5.95016">
        <ele>842.2</ele>
        <time>2021-10-17T15:15:26Z</time>
      </trkpt>
      <trkpt lat="46.50291" lon="5.95019">
        <ele>842.4</ele>
        <time>2021-10-17T15:15:27Z</time>
      </trkpt>
      <trkpt lat="46.50293" lon="5.95022">
        <ele>842.4</ele>
        <time>2021-10-17T15:15:28Z</time>
      </trkpt>
      <trkpt lat="46.50295" lon="5.95025">
        <ele>842.8</ele>
        <time>2021-10-17T15:15:29Z</time>
      </trkpt>
      <trkpt lat="46.50296" lon="5.95028">
        <ele>842.8</ele>
        <time>2021-10-17T15:15:30Z</time>
      </trkpt>
      <trkpt lat="46.50298" lon="5.95031">
        <ele>843</ele>
        <time>2021-10-17T15:15:31Z</time>
      </trkpt>
      <trkpt lat="46.503" lon="5.95033">
        <ele>843</ele>
        <time>2021-10-17T15:15:32Z</time>
      </trkpt>
      <trkpt lat="46.50301" lon="5.95037">
        <ele>843.4</ele>
        <time>2021-10-17T15:15:33Z</time>
      </trkpt>
      <trkpt lat="46.50303" lon="5.9504">
        <ele>843.4</ele>
        <time>2021-10-17T15:15:34Z</time>
      </trkpt>
      <trkpt lat="46.50304" lon="5.95043">
        <ele>843.6</ele>
        <time>2021-10-17T15:15:35Z</time>
      </trkpt>
      <trkpt lat="46.50306" lon="5.95046">
        <ele>843.6</ele>
        <time>2021-10-17T15:15:36Z</time>
      </trkpt>
      <trkpt lat="46.50307" lon="5.95049">
        <ele>844</ele>
        <time>2021-10-17T15:15:37Z</time>
      </trkpt>
      <trkpt lat="46.50309" lon="5.95052">
        <ele>844</ele>
        <time>2021-10-17T15:15:38Z</time>
      </trkpt>
      <trkpt lat="46.50311" lon="5.95055">
        <ele>844.2</ele>
        <time>2021-10-17T15:15:39Z</time>
      </trkpt>
      <trkpt lat="46.50312" lon="5.95058">
        <ele>844.2</ele>
        <time>2021-10-17T15:15:40Z</time>
      </trkpt>
      <trkpt lat="46.50314" lon="5.95061">
        <ele>844.2</ele>
        <time>2021-10-17T15:15:41Z</time>
      </trkpt>
      <trkpt lat="46.50315" lon="5.95064">
        <ele>844.6</ele>
        <time>2021-10-17T15:15:42Z</time>
      </trkpt>
      <trkpt lat="46.50317" lon="5.95066">
        <ele>844.6</ele>
        <time>2021-10-17T15:15:43Z</time>
      </trkpt>
      <trkpt lat="46.50319" lon="5.95069">
        <ele>844.8</ele>
        <time>2021-10-17T15:15:44Z</time>
      </trkpt>
      <trkpt lat="46.5032" lon="5.95071">
        <ele>844.8</ele>
        <time>2021-10-17T15:15:45Z</time>
      </trkpt>
      <trkpt lat="46.50322" lon="5.95073">
        <ele>845.2</ele>
        <time>2021-10-17T15:15:46Z</time>
      </trkpt>
      <trkpt lat="46.50324" lon="5.95076">
        <ele>845.2</ele>
        <time>2021-10-17T15:15:47Z</time>
      </trkpt>
      <trkpt lat="46.50326" lon="5.95078">
        <ele>845.4</ele>
        <time>2021-10-17T15:15:48Z</time>
      </trkpt>
      <trkpt lat="46.50327" lon="5.95081">
        <ele>845.4</ele>
        <time>2021-10-17T15:15:49Z</time>
      </trkpt>
      <trkpt lat="46.50329" lon="5.95083">
        <ele>845.8</ele>
        <time>2021-10-17T15:15:50Z</time>
      </trkpt>
      <trkpt lat="46.50332" lon="5.95086">
        <ele>845.8</ele>
        <time>2021-10-17T15:15:51Z</time>
      </trkpt>
      <trkpt lat="46.50334" lon="5.95089">
        <ele>846</ele>
        <time>2021-10-17T15:15:52Z</time>
      </trkpt>
      <trkpt lat="46.50336" lon="5.95092">
        <ele>846.4</ele>
        <time>2021-10-17T15:15:53Z</time>
      </trkpt>
      <trkpt lat="46.50338" lon="5.95094">
        <ele>846.4</ele>
        <time>2021-10-17T15:15:54Z</time>
      </trkpt>
      <trkpt lat="46.5034" lon="5.95096">
        <ele>846.6</ele>
        <time>2021-10-17T15:15:55Z</time>
      </trkpt>
      <trkpt lat="46.50343" lon="5.95098">
        <ele>846.6</ele>
        <time>2021-10-17T15:15:56Z</time>
      </trkpt>
      <trkpt lat="46.50345" lon="5.951">
        <ele>847</ele>
        <time>2021-10-17T15:15:57Z</time>
      </trkpt>
      <trkpt lat="46.50347" lon="5.95102">
        <ele>847</ele>
        <time>2021-10-17T15:15:58Z</time>
      </trkpt>
      <trkpt lat="46.50349" lon="5.95103">
        <ele>847.2</ele>
        <time>2021-10-17T15:15:59Z</time>
      </trkpt>
      <trkpt lat="46.50351" lon="5.95105">
        <ele>847.2</ele>
        <time>2021-10-17T15:16:00Z</time>
      </trkpt>
      <trkpt lat="46.50353" lon="5.95107">
        <ele>847.6</ele>
        <time>2021-10-17T15:16:01Z</time>
      </trkpt>
      <trkpt lat="46.50356" lon="5.95109">
        <ele>847.6</ele>
        <time>2021-10-17T15:16:02Z</time>
      </trkpt>
      <trkpt lat="46.50358" lon="5.95111">
        <ele>847.8</ele>
        <time>2021-10-17T15:16:03Z</time>
      </trkpt>
      <trkpt lat="46.5036" lon="5.95112">
        <ele>847.8</ele>
        <time>2021-10-17T15:16:04Z</time>
      </trkpt>
      <trkpt lat="46.50363" lon="5.95114">
        <ele>847.8</ele>
        <time>2021-10-17T15:16:05Z</time>
      </trkpt>
      <trkpt lat="46.50365" lon="5.95116">
        <ele>848</ele>
        <time>2021-10-17T15:16:06Z</time>
      </trkpt>
      <trkpt lat="46.50367" lon="5.95117">
        <ele>848</ele>
        <time>2021-10-17T15:16:07Z</time>
      </trkpt>
      <trkpt lat="46.5037" lon="5.95119">
        <ele>848</ele>
        <time>2021-10-17T15:16:08Z</time>
      </trkpt>
      <trkpt lat="46.50372" lon="5.95122">
        <ele>848.4</ele>
        <time>2021-10-17T15:16:09Z</time>
      </trkpt>
      <trkpt lat="46.50374" lon="5.95124">
        <ele>848.4</ele>
        <time>2021-10-17T15:16:10Z</time>
      </trkpt>
      <trkpt lat="46.50375" lon="5.95126">
        <ele>848.6</ele>
        <time>2021-10-17T15:16:11Z</time>
      </trkpt>
      <trkpt lat="46.50377" lon="5.95129">
        <ele>848.6</ele>
        <time>2021-10-17T15:16:12Z</time>
      </trkpt>
      <trkpt lat="46.50379" lon="5.95131">
        <ele>848.8</ele>
        <time>2021-10-17T15:16:13Z</time>
      </trkpt>
      <trkpt lat="46.50381" lon="5.95133">
        <ele>848.8</ele>
        <time>2021-10-17T15:16:14Z</time>
      </trkpt>
      <trkpt lat="46.50383" lon="5.95135">
        <ele>848.8</ele>
        <time>2021-10-17T15:16:15Z</time>
      </trkpt>
      <trkpt lat="46.50384" lon="5.95138">
        <ele>849.2</ele>
        <time>2021-10-17T15:16:16Z</time>
      </trkpt>
      <trkpt lat="46.50386" lon="5.9514">
        <ele>849.2</ele>
        <time>2021-10-17T15:16:17Z</time>
      </trkpt>
      <trkpt lat="46.50388" lon="5.95142">
        <ele>849.4</ele>
        <time>2021-10-17T15:16:18Z</time>
      </trkpt>
      <trkpt lat="46.5039" lon="5.95144">
        <ele>849.4</ele>
        <time>2021-10-17T15:16:19Z</time>
      </trkpt>
      <trkpt lat="46.50392" lon="5.95147">
        <ele>849.8</ele>
        <time>2021-10-17T15:16:20Z</time>
      </trkpt>
      <trkpt lat="46.50394" lon="5.95149">
        <ele>849.8</ele>
        <time>2021-10-17T15:16:21Z</time>
      </trkpt>
      <trkpt lat="46.50396" lon="5.95151">
        <ele>850</ele>
        <time>2021-10-17T15:16:22Z</time>
      </trkpt>
      <trkpt lat="46.50398" lon="5.95153">
        <ele>850</ele>
        <time>2021-10-17T15:16:23Z</time>
      </trkpt>
      <trkpt lat="46.504" lon="5.95156">
        <ele>850.2</ele>
        <time>2021-10-17T15:16:24Z</time>
      </trkpt>
      <trkpt lat="46.50402" lon="5.95158">
        <ele>850.2</ele>
        <time>2021-10-17T15:16:25Z</time>
      </trkpt>
      <trkpt lat="46.50404" lon="5.9516">
        <ele>850.4</ele>
        <time>2021-10-17T15:16:26Z</time>
      </trkpt>
      <trkpt lat="46.50406" lon="5.95162">
        <ele>850.4</ele>
        <time>2021-10-17T15:16:27Z</time>
      </trkpt>
      <trkpt lat="46.50409" lon="5.95163">
        <ele>850.8</ele>
        <time>2021-10-17T15:16:28Z</time>
      </trkpt>
      <trkpt lat="46.50411" lon="5.95165">
        <ele>850.8</ele>
        <time>2021-10-17T15:16:29Z</time>
      </trkpt>
      <trkpt lat="46.50413" lon="5.95167">
        <ele>851</ele>
        <time>2021-10-17T15:16:30Z</time>
      </trkpt>
      <trkpt lat="46.50415" lon="5.95169">
        <ele>851.2</ele>
        <time>2021-10-17T15:16:31Z</time>
      </trkpt>
      <trkpt lat="46.50417" lon="5.95171">
        <ele>851.4</ele>
        <time>2021-10-17T15:16:32Z</time>
      </trkpt>
      <trkpt lat="46.5042" lon="5.95172">
        <ele>851.4</ele>
        <time>2021-10-17T15:16:33Z</time>
      </trkpt>
      <trkpt lat="46.50422" lon="5.95173">
        <ele>851.4</ele>
        <time>2021-10-17T15:16:34Z</time>
      </trkpt>
      <trkpt lat="46.50424" lon="5.95174">
        <ele>851.8</ele>
        <time>2021-10-17T15:16:35Z</time>
      </trkpt>
      <trkpt lat="46.50426" lon="5.95175">
        <ele>851.8</ele>
        <time>2021-10-17T15:16:36Z</time>
      </trkpt>
      <trkpt lat="46.50428" lon="5.95175">
        <ele>851.8</ele>
        <time>2021-10-17T15:16:37Z</time>
      </trkpt>
      <trkpt lat="46.5043" lon="5.95175">
        <ele>851.8</ele>
        <time>2021-10-17T15:16:38Z</time>
      </trkpt>
      <trkpt lat="46.50433" lon="5.95176">
        <ele>852</ele>
        <time>2021-10-17T15:16:39Z</time>
      </trkpt>
      <trkpt lat="46.50435" lon="5.95176">
        <ele>852</ele>
        <time>2021-10-17T15:16:40Z</time>
      </trkpt>
      <trkpt lat="46.50438" lon="5.95177">
        <ele>852.2</ele>
        <time>2021-10-17T15:16:41Z</time>
      </trkpt>
      <trkpt lat="46.5044" lon="5.95177">
        <ele>852.2</ele>
        <time>2021-10-17T15:16:42Z</time>
      </trkpt>
      <trkpt lat="46.50443" lon="5.95178">
        <ele>852.6</ele>
        <time>2021-10-17T15:16:43Z</time>
      </trkpt>
      <trkpt lat="46.50445" lon="5.95179">
        <ele>852.6</ele>
        <time>2021-10-17T15:16:44Z</time>
      </trkpt>
      <trkpt lat="46.50448" lon="5.95179">
        <ele>852.8</ele>
        <time>2021-10-17T15:16:45Z</time>
      </trkpt>
      <trkpt lat="46.5045" lon="5.9518">
        <ele>852.8</ele>
        <time>2021-10-17T15:16:46Z</time>
      </trkpt>
      <trkpt lat="46.50453" lon="5.9518">
        <ele>853</ele>
        <time>2021-10-17T15:16:47Z</time>
      </trkpt>
      <trkpt lat="46.50456" lon="5.95181">
        <ele>853</ele>
        <time>2021-10-17T15:16:48Z</time>
      </trkpt>
      <trkpt lat="46.50459" lon="5.95181">
        <ele>853.2</ele>
        <time>2021-10-17T15:16:49Z</time>
      </trkpt>
      <trkpt lat="46.50462" lon="5.95182">
        <ele>853.2</ele>
        <time>2021-10-17T15:16:50Z</time>
      </trkpt>
      <trkpt lat="46.50464" lon="5.95184">
        <ele>853.4</ele>
        <time>2021-10-17T15:16:51Z</time>
      </trkpt>
      <trkpt lat="46.50467" lon="5.95186">
        <ele>853.4</ele>
        <time>2021-10-17T15:16:52Z</time>
      </trkpt>
      <trkpt lat="46.50469" lon="5.95188">
        <ele>853.6</ele>
        <time>2021-10-17T15:16:53Z</time>
      </trkpt>
      <trkpt lat="46.50471" lon="5.95191">
        <ele>853.6</ele>
        <time>2021-10-17T15:16:54Z</time>
      </trkpt>
      <trkpt lat="46.50474" lon="5.95194">
        <ele>854</ele>
        <time>2021-10-17T15:16:55Z</time>
      </trkpt>
      <trkpt lat="46.50476" lon="5.95196">
        <ele>854</ele>
        <time>2021-10-17T15:16:56Z</time>
      </trkpt>
      <trkpt lat="46.50478" lon="5.95199">
        <ele>854.4</ele>
        <time>2021-10-17T15:16:57Z</time>
      </trkpt>
      <trkpt lat="46.5048" lon="5.95202">
        <ele>854.4</ele>
        <time>2021-10-17T15:16:58Z</time>
      </trkpt>
      <trkpt lat="46.50481" lon="5.95205">
        <ele>854.6</ele>
        <time>2021-10-17T15:16:59Z</time>
      </trkpt>
      <trkpt lat="46.50483" lon="5.95208">
        <ele>854.6</ele>
        <time>2021-10-17T15:17:00Z</time>
      </trkpt>
      <trkpt lat="46.50485" lon="5.95212">
        <ele>855</ele>
        <time>2021-10-17T15:17:01Z</time>
      </trkpt>
      <trkpt lat="46.50487" lon="5.95215">
        <ele>855.2</ele>
        <time>2021-10-17T15:17:02Z</time>
      </trkpt>
      <trkpt lat="46.50489" lon="5.95218">
        <ele>855.2</ele>
        <time>2021-10-17T15:17:03Z</time>
      </trkpt>
      <trkpt lat="46.50491" lon="5.95221">
        <ele>855.4</ele>
        <time>2021-10-17T15:17:04Z</time>
      </trkpt>
      <trkpt lat="46.50493" lon="5.95224">
        <ele>855.4</ele>
        <time>2021-10-17T15:17:05Z</time>
      </trkpt>
      <trkpt lat="46.50495" lon="5.95227">
        <ele>855.8</ele>
        <time>2021-10-17T15:17:06Z</time>
      </trkpt>
      <trkpt lat="46.50496" lon="5.9523">
        <ele>855.8</ele>
        <time>2021-10-17T15:17:07Z</time>
      </trkpt>
      <trkpt lat="46.50498" lon="5.95233">
        <ele>856</ele>
        <time>2021-10-17T15:17:08Z</time>
      </trkpt>
      <trkpt lat="46.505" lon="5.95236">
        <ele>856</ele>
        <time>2021-10-17T15:17:09Z</time>
      </trkpt>
      <trkpt lat="46.50502" lon="5.95239">
        <ele>856.2</ele>
        <time>2021-10-17T15:17:10Z</time>
      </trkpt>
      <trkpt lat="46.50504" lon="5.95241">
        <ele>856.2</ele>
        <time>2021-10-17T15:17:11Z</time>
      </trkpt>
      <trkpt lat="46.50506" lon="5.95244">
        <ele>856.6</ele>
        <time>2021-10-17T15:17:12Z</time>
      </trkpt>
      <trkpt lat="46.50508" lon="5.95247">
        <ele>856.6</ele>
        <time>2021-10-17T15:17:13Z</time>
      </trkpt>
      <trkpt lat="46.5051" lon="5.9525">
        <ele>856.8</ele>
        <time>2021-10-17T15:17:14Z</time>
      </trkpt>
      <trkpt lat="46.50512" lon="5.95253">
        <ele>856.8</ele>
        <time>2021-10-17T15:17:15Z</time>
      </trkpt>
      <trkpt lat="46.50514" lon="5.95257">
        <ele>857</ele>
        <time>2021-10-17T15:17:16Z</time>
      </trkpt>
      <trkpt lat="46.50516" lon="5.9526">
        <ele>857</ele>
        <time>2021-10-17T15:17:17Z</time>
      </trkpt>
      <trkpt lat="46.50518" lon="5.95263">
        <ele>857.4</ele>
        <time>2021-10-17T15:17:18Z</time>
      </trkpt>
      <trkpt lat="46.5052" lon="5.95266">
        <ele>857.4</ele>
        <time>2021-10-17T15:17:19Z</time>
      </trkpt>
      <trkpt lat="46.50522" lon="5.95269">
        <ele>857.6</ele>
        <time>2021-10-17T15:17:20Z</time>
      </trkpt>
      <trkpt lat="46.50523" lon="5.95273">
        <ele>857.6</ele>
        <time>2021-10-17T15:17:21Z</time>
      </trkpt>
      <trkpt lat="46.50525" lon="5.95276">
        <ele>857.6</ele>
        <time>2021-10-17T15:17:22Z</time>
      </trkpt>
      <trkpt lat="46.50527" lon="5.95279">
        <ele>857.8</ele>
        <time>2021-10-17T15:17:23Z</time>
      </trkpt>
      <trkpt lat="46.50529" lon="5.95282">
        <ele>857.8</ele>
        <time>2021-10-17T15:17:24Z</time>
      </trkpt>
      <trkpt lat="46.50531" lon="5.95285">
        <ele>857.8</ele>
        <time>2021-10-17T15:17:25Z</time>
      </trkpt>
      <trkpt lat="46.50533" lon="5.95287">
        <ele>858</ele>
        <time>2021-10-17T15:17:26Z</time>
      </trkpt>
      <trkpt lat="46.50535" lon="5.9529">
        <ele>858</ele>
        <time>2021-10-17T15:17:27Z</time>
      </trkpt>
      <trkpt lat="46.50537" lon="5.95293">
        <ele>858</ele>
        <time>2021-10-17T15:17:28Z</time>
      </trkpt>
      <trkpt lat="46.50539" lon="5.95296">
        <ele>858.4</ele>
        <time>2021-10-17T15:17:29Z</time>
      </trkpt>
      <trkpt lat="46.50541" lon="5.95299">
        <ele>858.4</ele>
        <time>2021-10-17T15:17:30Z</time>
      </trkpt>
      <trkpt lat="46.50542" lon="5.95302">
        <ele>858.4</ele>
        <time>2021-10-17T15:17:31Z</time>
      </trkpt>
      <trkpt lat="46.50544" lon="5.95305">
        <ele>858.6</ele>
        <time>2021-10-17T15:17:32Z</time>
      </trkpt>
      <trkpt lat="46.50546" lon="5.95308">
        <ele>858.6</ele>
        <time>2021-10-17T15:17:33Z</time>
      </trkpt>
      <trkpt lat="46.50548" lon="5.95311">
        <ele>858.8</ele>
        <time>2021-10-17T15:17:34Z</time>
      </trkpt>
      <trkpt lat="46.5055" lon="5.95314">
        <ele>858.8</ele>
        <time>2021-10-17T15:17:35Z</time>
      </trkpt>
      <trkpt lat="46.50551" lon="5.95317">
        <ele>859.2</ele>
        <time>2021-10-17T15:17:36Z</time>
      </trkpt>
      <trkpt lat="46.50553" lon="5.9532">
        <ele>859.2</ele>
        <time>2021-10-17T15:17:37Z</time>
      </trkpt>
      <trkpt lat="46.50555" lon="5.95324">
        <ele>859.4</ele>
        <time>2021-10-17T15:17:38Z</time>
      </trkpt>
      <trkpt lat="46.50557" lon="5.95327">
        <ele>859.4</ele>
        <time>2021-10-17T15:17:39Z</time>
      </trkpt>
      <trkpt lat="46.50559" lon="5.9533">
        <ele>859.4</ele>
        <time>2021-10-17T15:17:40Z</time>
      </trkpt>
      <trkpt lat="46.50561" lon="5.95332">
        <ele>859.6</ele>
        <time>2021-10-17T15:17:41Z</time>
      </trkpt>
      <trkpt lat="46.50563" lon="5.95335">
        <ele>859.6</ele>
        <time>2021-10-17T15:17:42Z</time>
      </trkpt>
      <trkpt lat="46.50566" lon="5.95338">
        <ele>859.8</ele>
        <time>2021-10-17T15:17:43Z</time>
      </trkpt>
      <trkpt lat="46.50568" lon="5.95341">
        <ele>859.8</ele>
        <time>2021-10-17T15:17:44Z</time>
      </trkpt>
      <trkpt lat="46.5057" lon="5.95344">
        <ele>859.8</ele>
        <time>2021-10-17T15:17:45Z</time>
      </trkpt>
      <trkpt lat="46.50573" lon="5.95347">
        <ele>859.8</ele>
        <time>2021-10-17T15:17:46Z</time>
      </trkpt>
      <trkpt lat="46.50576" lon="5.9535">
        <ele>860</ele>
        <time>2021-10-17T15:17:47Z</time>
      </trkpt>
      <trkpt lat="46.50578" lon="5.95353">
        <ele>860</ele>
        <time>2021-10-17T15:17:48Z</time>
      </trkpt>
      <trkpt lat="46.5058" lon="5.95356">
        <ele>860.2</ele>
        <time>2021-10-17T15:17:49Z</time>
      </trkpt>
      <trkpt lat="46.50583" lon="5.95359">
        <ele>860.2</ele>
        <time>2021-10-17T15:17:50Z</time>
      </trkpt>
      <trkpt lat="46.50585" lon="5.95362">
        <ele>860.2</ele>
        <time>2021-10-17T15:17:51Z</time>
      </trkpt>
      <trkpt lat="46.50588" lon="5.95365">
        <ele>860.2</ele>
        <time>2021-10-17T15:17:52Z</time>
      </trkpt>
      <trkpt lat="46.50591" lon="5.95368">
        <ele>860.4</ele>
        <time>2021-10-17T15:17:53Z</time>
      </trkpt>
      <trkpt lat="46.50593" lon="5.95371">
        <ele>860.4</ele>
        <time>2021-10-17T15:17:54Z</time>
      </trkpt>
      <trkpt lat="46.50596" lon="5.95374">
        <ele>860.4</ele>
        <time>2021-10-17T15:17:55Z</time>
      </trkpt>
      <trkpt lat="46.50599" lon="5.95377">
        <ele>860.8</ele>
        <time>2021-10-17T15:17:56Z</time>
      </trkpt>
      <trkpt lat="46.50601" lon="5.9538">
        <ele>860.8</ele>
        <time>2021-10-17T15:17:57Z</time>
      </trkpt>
      <trkpt lat="46.50604" lon="5.95383">
        <ele>860.8</ele>
        <time>2021-10-17T15:17:58Z</time>
      </trkpt>
      <trkpt lat="46.50607" lon="5.95387">
        <ele>860.8</ele>
        <time>2021-10-17T15:17:59Z</time>
      </trkpt>
      <trkpt lat="46.5061" lon="5.9539">
        <ele>860.8</ele>
        <time>2021-10-17T15:18:00Z</time>
      </trkpt>
      <trkpt lat="46.50613" lon="5.95393">
        <ele>861</ele>
        <time>2021-10-17T15:18:01Z</time>
      </trkpt>
      <trkpt lat="46.50616" lon="5.95396">
        <ele>861</ele>
        <time>2021-10-17T15:18:02Z</time>
      </trkpt>
      <trkpt lat="46.50619" lon="5.954">
        <ele>861</ele>
        <time>2021-10-17T15:18:03Z</time>
      </trkpt>
      <trkpt lat="46.50622" lon="5.95403">
        <ele>861</ele>
        <time>2021-10-17T15:18:04Z</time>
      </trkpt>
      <trkpt lat="46.50625" lon="5.95407">
        <ele>861</ele>
        <time>2021-10-17T15:18:05Z</time>
      </trkpt>
      <trkpt lat="46.50628" lon="5.9541">
        <ele>861.2</ele>
        <time>2021-10-17T15:18:06Z</time>
      </trkpt>
      <trkpt lat="46.50631" lon="5.95413">
        <ele>861.2</ele>
        <time>2021-10-17T15:18:07Z</time>
      </trkpt>
      <trkpt lat="46.50634" lon="5.95416">
        <ele>861.2</ele>
        <time>2021-10-17T15:18:08Z</time>
      </trkpt>
      <trkpt lat="46.50636" lon="5.95419">
        <ele>861.2</ele>
        <time>2021-10-17T15:18:09Z</time>
      </trkpt>
      <trkpt lat="46.50639" lon="5.95422">
        <ele>861.2</ele>
        <time>2021-10-17T15:18:10Z</time>
      </trkpt>
      <trkpt lat="46.50641" lon="5.95424">
        <ele>861.4</ele>
        <time>2021-10-17T15:18:11Z</time>
      </trkpt>
      <trkpt lat="46.50643" lon="5.95426">
        <ele>861.4</ele>
        <time>2021-10-17T15:18:12Z</time>
      </trkpt>
      <trkpt lat="46.50646" lon="5.95428">
        <ele>861.4</ele>
        <time>2021-10-17T15:18:13Z</time>
      </trkpt>
      <trkpt lat="46.50647" lon="5.95431">
        <ele>861.4</ele>
        <time>2021-10-17T15:18:14Z</time>
      </trkpt>
      <trkpt lat="46.50649" lon="5.95433">
        <ele>861.8</ele>
        <time>2021-10-17T15:18:15Z</time>
      </trkpt>
      <trkpt lat="46.50651" lon="5.95435">
        <ele>861.8</ele>
        <time>2021-10-17T15:18:16Z</time>
      </trkpt>
      <trkpt lat="46.50653" lon="5.95436">
        <ele>861.8</ele>
        <time>2021-10-17T15:18:17Z</time>
      </trkpt>
      <trkpt lat="46.50655" lon="5.95438">
        <ele>861.8</ele>
        <time>2021-10-17T15:18:18Z</time>
      </trkpt>
      <trkpt lat="46.50657" lon="5.9544">
        <ele>862</ele>
        <time>2021-10-17T15:18:19Z</time>
      </trkpt>
      <trkpt lat="46.50659" lon="5.95442">
        <ele>862</ele>
        <time>2021-10-17T15:18:20Z</time>
      </trkpt>
      <trkpt lat="46.50661" lon="5.95445">
        <ele>862</ele>
        <time>2021-10-17T15:18:21Z</time>
      </trkpt>
      <trkpt lat="46.50663" lon="5.95447">
        <ele>862</ele>
        <time>2021-10-17T15:18:22Z</time>
      </trkpt>
      <trkpt lat="46.50666" lon="5.9545">
        <ele>862</ele>
        <time>2021-10-17T15:18:23Z</time>
      </trkpt>
      <trkpt lat="46.50668" lon="5.95453">
        <ele>862.2</ele>
        <time>2021-10-17T15:18:24Z</time>
      </trkpt>
      <trkpt lat="46.5067" lon="5.95455">
        <ele>862.2</ele>
        <time>2021-10-17T15:18:25Z</time>
      </trkpt>
      <trkpt lat="46.50673" lon="5.95458">
        <ele>862.2</ele>
        <time>2021-10-17T15:18:26Z</time>
      </trkpt>
      <trkpt lat="46.50675" lon="5.95461">
        <ele>862.4</ele>
        <time>2021-10-17T15:18:27Z</time>
      </trkpt>
      <trkpt lat="46.50677" lon="5.95464">
        <ele>862.4</ele>
        <time>2021-10-17T15:18:28Z</time>
      </trkpt>
      <trkpt lat="46.5068" lon="5.95467">
        <ele>862.4</ele>
        <time>2021-10-17T15:18:29Z</time>
      </trkpt>
      <trkpt lat="46.50683" lon="5.9547">
        <ele>862.8</ele>
        <time>2021-10-17T15:18:30Z</time>
      </trkpt>
      <trkpt lat="46.50685" lon="5.95473">
        <ele>862.8</ele>
        <time>2021-10-17T15:18:31Z</time>
      </trkpt>
      <trkpt lat="46.50688" lon="5.95476">
        <ele>863</ele>
        <time>2021-10-17T15:18:32Z</time>
      </trkpt>
      <trkpt lat="46.5069" lon="5.95479">
        <ele>863</ele>
        <time>2021-10-17T15:18:33Z</time>
      </trkpt>
      <trkpt lat="46.50693" lon="5.95482">
        <ele>863</ele>
        <time>2021-10-17T15:18:34Z</time>
      </trkpt>
      <trkpt lat="46.50695" lon="5.95484">
        <ele>863</ele>
        <time>2021-10-17T15:18:35Z</time>
      </trkpt>
      <trkpt lat="46.50698" lon="5.95487">
        <ele>863.2</ele>
        <time>2021-10-17T15:18:36Z</time>
      </trkpt>
      <trkpt lat="46.507" lon="5.9549">
        <ele>863.2</ele>
        <time>2021-10-17T15:18:37Z</time>
      </trkpt>
      <trkpt lat="46.50703" lon="5.95493">
        <ele>863.2</ele>
        <time>2021-10-17T15:18:38Z</time>
      </trkpt>
      <trkpt lat="46.50706" lon="5.95495">
        <ele>863.4</ele>
        <time>2021-10-17T15:18:39Z</time>
      </trkpt>
      <trkpt lat="46.50708" lon="5.95498">
        <ele>863.4</ele>
        <time>2021-10-17T15:18:40Z</time>
      </trkpt>
      <trkpt lat="46.50711" lon="5.955">
        <ele>863.4</ele>
        <time>2021-10-17T15:18:41Z</time>
      </trkpt>
      <trkpt lat="46.50714" lon="5.95502">
        <ele>863.4</ele>
        <time>2021-10-17T15:18:42Z</time>
      </trkpt>
      <trkpt lat="46.50717" lon="5.95503">
        <ele>863.6</ele>
        <time>2021-10-17T15:18:43Z</time>
      </trkpt>
      <trkpt lat="46.50719" lon="5.95503">
        <ele>863.6</ele>
        <time>2021-10-17T15:18:44Z</time>
      </trkpt>
      <trkpt lat="46.50722" lon="5.95503">
        <ele>863.8</ele>
        <time>2021-10-17T15:18:45Z</time>
      </trkpt>
      <trkpt lat="46.50724" lon="5.95504">
        <ele>864</ele>
        <time>2021-10-17T15:18:46Z</time>
      </trkpt>
      <trkpt lat="46.50726" lon="5.95505">
        <ele>864.2</ele>
        <time>2021-10-17T15:18:47Z</time>
      </trkpt>
      <trkpt lat="46.50728" lon="5.95505">
        <ele>864.2</ele>
        <time>2021-10-17T15:18:48Z</time>
      </trkpt>
      <trkpt lat="46.5073" lon="5.95504">
        <ele>864.4</ele>
        <time>2021-10-17T15:18:49Z</time>
      </trkpt>
      <trkpt lat="46.50731" lon="5.95503">
        <ele>864.4</ele>
        <time>2021-10-17T15:18:50Z</time>
      </trkpt>
      <trkpt lat="46.50732" lon="5.95502">
        <ele>864.8</ele>
        <time>2021-10-17T15:18:51Z</time>
      </trkpt>
      <trkpt lat="46.50733" lon="5.955">
        <ele>864.8</ele>
        <time>2021-10-17T15:18:52Z</time>
      </trkpt>
      <trkpt lat="46.50735" lon="5.95496">
        <ele>865</ele>
        <time>2021-10-17T15:18:53Z</time>
      </trkpt>
      <trkpt lat="46.50736" lon="5.95493">
        <ele>865</ele>
        <time>2021-10-17T15:18:54Z</time>
      </trkpt>
      <trkpt lat="46.50736" lon="5.9549">
        <ele>865</ele>
        <time>2021-10-17T15:18:55Z</time>
      </trkpt>
      <trkpt lat="46.50735" lon="5.95486">
        <ele>865</ele>
        <time>2021-10-17T15:18:56Z</time>
      </trkpt>
      <trkpt lat="46.50734" lon="5.95483">
        <ele>865.4</ele>
        <time>2021-10-17T15:18:57Z</time>
      </trkpt>
      <trkpt lat="46.50733" lon="5.95479">
        <ele>865.4</ele>
        <time>2021-10-17T15:18:58Z</time>
      </trkpt>
      <trkpt lat="46.50731" lon="5.95475">
        <ele>865.4</ele>
        <time>2021-10-17T15:18:59Z</time>
      </trkpt>
      <trkpt lat="46.50729" lon="5.95472">
        <ele>865.6</ele>
        <time>2021-10-17T15:19:00Z</time>
      </trkpt>
      <trkpt lat="46.50728" lon="5.95468">
        <ele>865.6</ele>
        <time>2021-10-17T15:19:01Z</time>
      </trkpt>
      <trkpt lat="46.50727" lon="5.95465">
        <ele>865.6</ele>
        <time>2021-10-17T15:19:02Z</time>
      </trkpt>
      <trkpt lat="46.50725" lon="5.95461">
        <ele>865.8</ele>
        <time>2021-10-17T15:19:03Z</time>
      </trkpt>
      <trkpt lat="46.50724" lon="5.95458">
        <ele>865.8</ele>
        <time>2021-10-17T15:19:04Z</time>
      </trkpt>
      <trkpt lat="46.50722" lon="5.95454">
        <ele>866</ele>
        <time>2021-10-17T15:19:05Z</time>
      </trkpt>
      <trkpt lat="46.50721" lon="5.95451">
        <ele>866</ele>
        <time>2021-10-17T15:19:06Z</time>
      </trkpt>
      <trkpt lat="46.5072" lon="5.95447">
        <ele>866</ele>
        <time>2021-10-17T15:19:07Z</time>
      </trkpt>
      <trkpt lat="46.50718" lon="5.95443">
        <ele>866.2</ele>
        <time>2021-10-17T15:19:08Z</time>
      </trkpt>
      <trkpt lat="46.50717" lon="5.95439">
        <ele>866.2</ele>
        <time>2021-10-17T15:19:09Z</time>
      </trkpt>
      <trkpt lat="46.50715" lon="5.95435">
        <ele>866.6</ele>
        <time>2021-10-17T15:19:10Z</time>
      </trkpt>
      <trkpt lat="46.50714" lon="5.95431">
        <ele>866.6</ele>
        <time>2021-10-17T15:19:11Z</time>
      </trkpt>
      <trkpt lat="46.50712" lon="5.95428">
        <ele>866.8</ele>
        <time>2021-10-17T15:19:12Z</time>
      </trkpt>
      <trkpt lat="46.50711" lon="5.95425">
        <ele>866.8</ele>
        <time>2021-10-17T15:19:13Z</time>
      </trkpt>
      <trkpt lat="46.50709" lon="5.95422">
        <ele>866.8</ele>
        <time>2021-10-17T15:19:14Z</time>
      </trkpt>
      <trkpt lat="46.50707" lon="5.95418">
        <ele>867</ele>
        <time>2021-10-17T15:19:15Z</time>
      </trkpt>
      <trkpt lat="46.50706" lon="5.95415">
        <ele>867</ele>
        <time>2021-10-17T15:19:16Z</time>
      </trkpt>
      <trkpt lat="46.50705" lon="5.95411">
        <ele>867.2</ele>
        <time>2021-10-17T15:19:17Z</time>
      </trkpt>
      <trkpt lat="46.50703" lon="5.95407">
        <ele>867.2</ele>
        <time>2021-10-17T15:19:18Z</time>
      </trkpt>
      <trkpt lat="46.50702" lon="5.95403">
        <ele>867.2</ele>
        <time>2021-10-17T15:19:19Z</time>
      </trkpt>
      <trkpt lat="46.50701" lon="5.95399">
        <ele>867.6</ele>
        <time>2021-10-17T15:19:20Z</time>
      </trkpt>
      <trkpt lat="46.50699" lon="5.95395">
        <ele>867.8</ele>
        <time>2021-10-17T15:19:21Z</time>
      </trkpt>
      <trkpt lat="46.50698" lon="5.95391">
        <ele>867.8</ele>
        <time>2021-10-17T15:19:22Z</time>
      </trkpt>
      <trkpt lat="46.50696" lon="5.95387">
        <ele>867.8</ele>
        <time>2021-10-17T15:19:23Z</time>
      </trkpt>
      <trkpt lat="46.50695" lon="5.95383">
        <ele>868</ele>
        <time>2021-10-17T15:19:24Z</time>
      </trkpt>
      <trkpt lat="46.50694" lon="5.95379">
        <ele>868</ele>
        <time>2021-10-17T15:19:25Z</time>
      </trkpt>
      <trkpt lat="46.50693" lon="5.95375">
        <ele>868.2</ele>
        <time>2021-10-17T15:19:26Z</time>
      </trkpt>
      <trkpt lat="46.50692" lon="5.95371">
        <ele>868.2</ele>
        <time>2021-10-17T15:19:27Z</time>
      </trkpt>
      <trkpt lat="46.5069" lon="5.95367">
        <ele>868.6</ele>
        <time>2021-10-17T15:19:28Z</time>
      </trkpt>
      <trkpt lat="46.50689" lon="5.95363">
        <ele>868.6</ele>
        <time>2021-10-17T15:19:29Z</time>
      </trkpt>
      <trkpt lat="46.50688" lon="5.95359">
        <ele>868.8</ele>
        <time>2021-10-17T15:19:30Z</time>
      </trkpt>
      <trkpt lat="46.50687" lon="5.95354">
        <ele>868.8</ele>
        <time>2021-10-17T15:19:31Z</time>
      </trkpt>
      <trkpt lat="46.50686" lon="5.9535">
        <ele>869.2</ele>
        <time>2021-10-17T15:19:32Z</time>
      </trkpt>
      <trkpt lat="46.50685" lon="5.95346">
        <ele>869.2</ele>
        <time>2021-10-17T15:19:33Z</time>
      </trkpt>
      <trkpt lat="46.50684" lon="5.95342">
        <ele>869.2</ele>
        <time>2021-10-17T15:19:34Z</time>
      </trkpt>
      <trkpt lat="46.50683" lon="5.95338">
        <ele>869.4</ele>
        <time>2021-10-17T15:19:35Z</time>
      </trkpt>
      <trkpt lat="46.50682" lon="5.95333">
        <ele>869.4</ele>
        <time>2021-10-17T15:19:36Z</time>
      </trkpt>
      <trkpt lat="46.50681" lon="5.95329">
        <ele>869.8</ele>
        <time>2021-10-17T15:19:37Z</time>
      </trkpt>
      <trkpt lat="46.5068" lon="5.95325">
        <ele>869.8</ele>
        <time>2021-10-17T15:19:38Z</time>
      </trkpt>
      <trkpt lat="46.50678" lon="5.95321">
        <ele>870</ele>
        <time>2021-10-17T15:19:39Z</time>
      </trkpt>
      <trkpt lat="46.50677" lon="5.95317">
        <ele>870</ele>
        <time>2021-10-17T15:19:40Z</time>
      </trkpt>
      <trkpt lat="46.50675" lon="5.95314">
        <ele>870.2</ele>
        <time>2021-10-17T15:19:41Z</time>
      </trkpt>
      <trkpt lat="46.50674" lon="5.9531">
        <ele>870.2</ele>
        <time>2021-10-17T15:19:42Z</time>
      </trkpt>
      <trkpt lat="46.50672" lon="5.95306">
        <ele>870.2</ele>
        <time>2021-10-17T15:19:43Z</time>
      </trkpt>
      <trkpt lat="46.50671" lon="5.95302">
        <ele>870.4</ele>
        <time>2021-10-17T15:19:44Z</time>
      </trkpt>
      <trkpt lat="46.5067" lon="5.95298">
        <ele>870.4</ele>
        <time>2021-10-17T15:19:45Z</time>
      </trkpt>
      <trkpt lat="46.50668" lon="5.95294">
        <ele>870.4</ele>
        <time>2021-10-17T15:19:46Z</time>
      </trkpt>
      <trkpt lat="46.50667" lon="5.9529">
        <ele>870.8</ele>
        <time>2021-10-17T15:19:47Z</time>
      </trkpt>
      <trkpt lat="46.50666" lon="5.95286">
        <ele>871</ele>
        <time>2021-10-17T15:19:48Z</time>
      </trkpt>
      <trkpt lat="46.50664" lon="5.95282">
        <ele>871.2</ele>
        <time>2021-10-17T15:19:49Z</time>
      </trkpt>
      <trkpt lat="46.50663" lon="5.95279">
        <ele>871.2</ele>
        <time>2021-10-17T15:19:50Z</time>
      </trkpt>
      <trkpt lat="46.50661" lon="5.95276">
        <ele>871.6</ele>
        <time>2021-10-17T15:19:51Z</time>
      </trkpt>
      <trkpt lat="46.50659" lon="5.95272">
        <ele>871.6</ele>
        <time>2021-10-17T15:19:52Z</time>
      </trkpt>
      <trkpt lat="46.50658" lon="5.95268">
        <ele>871.8</ele>
        <time>2021-10-17T15:19:53Z</time>
      </trkpt>
      <trkpt lat="46.50656" lon="5.95265">
        <ele>871.8</ele>
        <time>2021-10-17T15:19:54Z</time>
      </trkpt>
      <trkpt lat="46.50654" lon="5.95261">
        <ele>871.8</ele>
        <time>2021-10-17T15:19:55Z</time>
      </trkpt>
      <trkpt lat="46.50652" lon="5.95258">
        <ele>872.2</ele>
        <time>2021-10-17T15:19:56Z</time>
      </trkpt>
      <trkpt lat="46.5065" lon="5.95254">
        <ele>872.2</ele>
        <time>2021-10-17T15:19:57Z</time>
      </trkpt>
      <trkpt lat="46.50649" lon="5.95251">
        <ele>872.2</ele>
        <time>2021-10-17T15:19:58Z</time>
      </trkpt>
      <trkpt lat="46.50647" lon="5.95248">
        <ele>872.4</ele>
        <time>2021-10-17T15:19:59Z</time>
      </trkpt>
      <trkpt lat="46.50645" lon="5.95244">
        <ele>872.4</ele>
        <time>2021-10-17T15:20:00Z</time>
      </trkpt>
      <trkpt lat="46.50643" lon="5.95241">
        <ele>872.4</ele>
        <time>2021-10-17T15:20:01Z</time>
      </trkpt>
      <trkpt lat="46.50641" lon="5.95237">
        <ele>872.6</ele>
        <time>2021-10-17T15:20:02Z</time>
      </trkpt>
      <trkpt lat="46.50639" lon="5.95234">
        <ele>872.6</ele>
        <time>2021-10-17T15:20:03Z</time>
      </trkpt>
      <trkpt lat="46.50637" lon="5.9523">
        <ele>872.8</ele>
        <time>2021-10-17T15:20:04Z</time>
      </trkpt>
      <trkpt lat="46.50635" lon="5.95227">
        <ele>872.8</ele>
        <time>2021-10-17T15:20:05Z</time>
      </trkpt>
      <trkpt lat="46.50633" lon="5.95223">
        <ele>873.2</ele>
        <time>2021-10-17T15:20:06Z</time>
      </trkpt>
      <trkpt lat="46.50632" lon="5.9522">
        <ele>873.2</ele>
        <time>2021-10-17T15:20:07Z</time>
      </trkpt>
      <trkpt lat="46.5063" lon="5.95216">
        <ele>873.4</ele>
        <time>2021-10-17T15:20:08Z</time>
      </trkpt>
      <trkpt lat="46.50628" lon="5.95213">
        <ele>873.4</ele>
        <time>2021-10-17T15:20:09Z</time>
      </trkpt>
      <trkpt lat="46.50626" lon="5.95209">
        <ele>873.8</ele>
        <time>2021-10-17T15:20:10Z</time>
      </trkpt>
      <trkpt lat="46.50624" lon="5.95205">
        <ele>873.8</ele>
        <time>2021-10-17T15:20:11Z</time>
      </trkpt>
      <trkpt lat="46.50623" lon="5.952">
        <ele>874</ele>
        <time>2021-10-17T15:20:12Z</time>
      </trkpt>
      <trkpt lat="46.50621" lon="5.95196">
        <ele>874</ele>
        <time>2021-10-17T15:20:13Z</time>
      </trkpt>
      <trkpt lat="46.50619" lon="5.95192">
        <ele>874</ele>
        <time>2021-10-17T15:20:14Z</time>
      </trkpt>
      <trkpt lat="46.50618" lon="5.95187">
        <ele>874.2</ele>
        <time>2021-10-17T15:20:15Z</time>
      </trkpt>
      <trkpt lat="46.50616" lon="5.95183">
        <ele>874.2</ele>
        <time>2021-10-17T15:20:16Z</time>
      </trkpt>
      <trkpt lat="46.50614" lon="5.95179">
        <ele>874.4</ele>
        <time>2021-10-17T15:20:17Z</time>
      </trkpt>
      <trkpt lat="46.50613" lon="5.95175">
        <ele>874.4</ele>
        <time>2021-10-17T15:20:18Z</time>
      </trkpt>
      <trkpt lat="46.50612" lon="5.95171">
        <ele>874.6</ele>
        <time>2021-10-17T15:20:19Z</time>
      </trkpt>
      <trkpt lat="46.50611" lon="5.95167">
        <ele>874.6</ele>
        <time>2021-10-17T15:20:20Z</time>
      </trkpt>
      <trkpt lat="46.5061" lon="5.95164">
        <ele>875</ele>
        <time>2021-10-17T15:20:21Z</time>
      </trkpt>
      <trkpt lat="46.50609" lon="5.9516">
        <ele>875</ele>
        <time>2021-10-17T15:20:22Z</time>
      </trkpt>
      <trkpt lat="46.50608" lon="5.95156">
        <ele>875.2</ele>
        <time>2021-10-17T15:20:23Z</time>
      </trkpt>
      <trkpt lat="46.50607" lon="5.95152">
        <ele>875.2</ele>
        <time>2021-10-17T15:20:24Z</time>
      </trkpt>
      <trkpt lat="46.50606" lon="5.95148">
        <ele>875.2</ele>
        <time>2021-10-17T15:20:25Z</time>
      </trkpt>
      <trkpt lat="46.50604" lon="5.95144">
        <ele>875.2</ele>
        <time>2021-10-17T15:20:26Z</time>
      </trkpt>
      <trkpt lat="46.50603" lon="5.95141">
        <ele>875.6</ele>
        <time>2021-10-17T15:20:27Z</time>
      </trkpt>
      <trkpt lat="46.50602" lon="5.95137">
        <ele>875.6</ele>
        <time>2021-10-17T15:20:28Z</time>
      </trkpt>
      <trkpt lat="46.50601" lon="5.95133">
        <ele>875.8</ele>
        <time>2021-10-17T15:20:29Z</time>
      </trkpt>
      <trkpt lat="46.50599" lon="5.95129">
        <ele>875.8</ele>
        <time>2021-10-17T15:20:30Z</time>
      </trkpt>
      <trkpt lat="46.50599" lon="5.95125">
        <ele>875.8</ele>
        <time>2021-10-17T15:20:31Z</time>
      </trkpt>
      <trkpt lat="46.50597" lon="5.95121">
        <ele>876.2</ele>
        <time>2021-10-17T15:20:32Z</time>
      </trkpt>
      <trkpt lat="46.50596" lon="5.95116">
        <ele>876.2</ele>
        <time>2021-10-17T15:20:33Z</time>
      </trkpt>
      <trkpt lat="46.50595" lon="5.95112">
        <ele>876.2</ele>
        <time>2021-10-17T15:20:34Z</time>
      </trkpt>
      <trkpt lat="46.50593" lon="5.95108">
        <ele>876.6</ele>
        <time>2021-10-17T15:20:35Z</time>
      </trkpt>
      <trkpt lat="46.50592" lon="5.95103">
        <ele>876.6</ele>
        <time>2021-10-17T15:20:36Z</time>
      </trkpt>
      <trkpt lat="46.5059" lon="5.95099">
        <ele>876.8</ele>
        <time>2021-10-17T15:20:37Z</time>
      </trkpt>
      <trkpt lat="46.50588" lon="5.95095">
        <ele>876.8</ele>
        <time>2021-10-17T15:20:38Z</time>
      </trkpt>
      <trkpt lat="46.50587" lon="5.9509">
        <ele>877.2</ele>
        <time>2021-10-17T15:20:39Z</time>
      </trkpt>
      <trkpt lat="46.50585" lon="5.95086">
        <ele>877.2</ele>
        <time>2021-10-17T15:20:40Z</time>
      </trkpt>
      <trkpt lat="46.50583" lon="5.95082">
        <ele>877.4</ele>
        <time>2021-10-17T15:20:41Z</time>
      </trkpt>
      <trkpt lat="46.50581" lon="5.95078">
        <ele>877.4</ele>
        <time>2021-10-17T15:20:42Z</time>
      </trkpt>
      <trkpt lat="46.50578" lon="5.95074">
        <ele>877.4</ele>
        <time>2021-10-17T15:20:43Z</time>
      </trkpt>
      <trkpt lat="46.50576" lon="5.9507">
        <ele>877.6</ele>
        <time>2021-10-17T15:20:44Z</time>
      </trkpt>
      <trkpt lat="46.50573" lon="5.95065">
        <ele>877.6</ele>
        <time>2021-10-17T15:20:45Z</time>
      </trkpt>
      <trkpt lat="46.50571" lon="5.95061">
        <ele>878</ele>
        <time>2021-10-17T15:20:46Z</time>
      </trkpt>
      <trkpt lat="46.50569" lon="5.95057">
        <ele>878</ele>
        <time>2021-10-17T15:20:47Z</time>
      </trkpt>
      <trkpt lat="46.50566" lon="5.95052">
        <ele>878</ele>
        <time>2021-10-17T15:20:48Z</time>
      </trkpt>
      <trkpt lat="46.50564" lon="5.95048">
        <ele>878.2</ele>
        <time>2021-10-17T15:20:49Z</time>
      </trkpt>
      <trkpt lat="46.50561" lon="5.95043">
        <ele>878.4</ele>
        <time>2021-10-17T15:20:50Z</time>
      </trkpt>
      <trkpt lat="46.50558" lon="5.95038">
        <ele>878.4</ele>
        <time>2021-10-17T15:20:51Z</time>
      </trkpt>
      <trkpt lat="46.50556" lon="5.95033">
        <ele>878.8</ele>
        <time>2021-10-17T15:20:52Z</time>
      </trkpt>
      <trkpt lat="46.50553" lon="5.95029">
        <ele>878.8</ele>
        <time>2021-10-17T15:20:53Z</time>
      </trkpt>
      <trkpt lat="46.50551" lon="5.95024">
        <ele>879</ele>
        <time>2021-10-17T15:20:54Z</time>
      </trkpt>
      <trkpt lat="46.50548" lon="5.9502">
        <ele>879</ele>
        <time>2021-10-17T15:20:55Z</time>
      </trkpt>
      <trkpt lat="46.50545" lon="5.95015">
        <ele>879.4</ele>
        <time>2021-10-17T15:20:56Z</time>
      </trkpt>
      <trkpt lat="46.50543" lon="5.95011">
        <ele>879.4</ele>
        <time>2021-10-17T15:20:57Z</time>
      </trkpt>
      <trkpt lat="46.5054" lon="5.95007">
        <ele>879.6</ele>
        <time>2021-10-17T15:20:58Z</time>
      </trkpt>
      <trkpt lat="46.50538" lon="5.95003">
        <ele>879.6</ele>
        <time>2021-10-17T15:20:59Z</time>
      </trkpt>
      <trkpt lat="46.50535" lon="5.94999">
        <ele>879.8</ele>
        <time>2021-10-17T15:21:00Z</time>
      </trkpt>
      <trkpt lat="46.50533" lon="5.94995">
        <ele>879.8</ele>
        <time>2021-10-17T15:21:01Z</time>
      </trkpt>
      <trkpt lat="46.5053" lon="5.94991">
        <ele>880.2</ele>
        <time>2021-10-17T15:21:02Z</time>
      </trkpt>
      <trkpt lat="46.50528" lon="5.94987">
        <ele>880.4</ele>
        <time>2021-10-17T15:21:03Z</time>
      </trkpt>
      <trkpt lat="46.50525" lon="5.94982">
        <ele>880.4</ele>
        <time>2021-10-17T15:21:04Z</time>
      </trkpt>
      <trkpt lat="46.50523" lon="5.94978">
        <ele>880.6</ele>
        <time>2021-10-17T15:21:05Z</time>
      </trkpt>
      <trkpt lat="46.50521" lon="5.94974">
        <ele>880.6</ele>
        <time>2021-10-17T15:21:06Z</time>
      </trkpt>
      <trkpt lat="46.50519" lon="5.94969">
        <ele>880.6</ele>
        <time>2021-10-17T15:21:07Z</time>
      </trkpt>
      <trkpt lat="46.50517" lon="5.94965">
        <ele>881</ele>
        <time>2021-10-17T15:21:08Z</time>
      </trkpt>
      <trkpt lat="46.50514" lon="5.9496">
        <ele>881</ele>
        <time>2021-10-17T15:21:09Z</time>
      </trkpt>
      <trkpt lat="46.50512" lon="5.94955">
        <ele>881.2</ele>
        <time>2021-10-17T15:21:10Z</time>
      </trkpt>
      <trkpt lat="46.5051" lon="5.94951">
        <ele>881.2</ele>
        <time>2021-10-17T15:21:11Z</time>
      </trkpt>
      <trkpt lat="46.50508" lon="5.94946">
        <ele>881.6</ele>
        <time>2021-10-17T15:21:12Z</time>
      </trkpt>
      <trkpt lat="46.50506" lon="5.94942">
        <ele>881.6</ele>
        <time>2021-10-17T15:21:13Z</time>
      </trkpt>
      <trkpt lat="46.50504" lon="5.94937">
        <ele>882</ele>
        <time>2021-10-17T15:21:14Z</time>
      </trkpt>
      <trkpt lat="46.50502" lon="5.94932">
        <ele>882</ele>
        <time>2021-10-17T15:21:15Z</time>
      </trkpt>
      <trkpt lat="46.50501" lon="5.94927">
        <ele>882.2</ele>
        <time>2021-10-17T15:21:16Z</time>
      </trkpt>
      <trkpt lat="46.505" lon="5.94922">
        <ele>882.2</ele>
        <time>2021-10-17T15:21:17Z</time>
      </trkpt>
      <trkpt lat="46.50498" lon="5.94918">
        <ele>882.6</ele>
        <time>2021-10-17T15:21:18Z</time>
      </trkpt>
      <trkpt lat="46.50497" lon="5.94913">
        <ele>882.6</ele>
        <time>2021-10-17T15:21:19Z</time>
      </trkpt>
      <trkpt lat="46.50495" lon="5.94909">
        <ele>883</ele>
        <time>2021-10-17T15:21:20Z</time>
      </trkpt>
      <trkpt lat="46.50494" lon="5.94904">
        <ele>883</ele>
        <time>2021-10-17T15:21:21Z</time>
      </trkpt>
      <trkpt lat="46.50492" lon="5.949">
        <ele>883.2</ele>
        <time>2021-10-17T15:21:22Z</time>
      </trkpt>
      <trkpt lat="46.50491" lon="5.94896">
        <ele>883.2</ele>
        <time>2021-10-17T15:21:23Z</time>
      </trkpt>
      <trkpt lat="46.5049" lon="5.94891">
        <ele>883.4</ele>
        <time>2021-10-17T15:21:24Z</time>
      </trkpt>
      <trkpt lat="46.50488" lon="5.94887">
        <ele>883.4</ele>
        <time>2021-10-17T15:21:25Z</time>
      </trkpt>
      <trkpt lat="46.50487" lon="5.94883">
        <ele>883.8</ele>
        <time>2021-10-17T15:21:26Z</time>
      </trkpt>
      <trkpt lat="46.50486" lon="5.94878">
        <ele>883.8</ele>
        <time>2021-10-17T15:21:27Z</time>
      </trkpt>
      <trkpt lat="46.50484" lon="5.94873">
        <ele>884.2</ele>
        <time>2021-10-17T15:21:28Z</time>
      </trkpt>
      <trkpt lat="46.50483" lon="5.94869">
        <ele>884.2</ele>
        <time>2021-10-17T15:21:29Z</time>
      </trkpt>
      <trkpt lat="46.50482" lon="5.94864">
        <ele>884.4</ele>
        <time>2021-10-17T15:21:30Z</time>
      </trkpt>
      <trkpt lat="46.5048" lon="5.94859">
        <ele>884.4</ele>
        <time>2021-10-17T15:21:31Z</time>
      </trkpt>
      <trkpt lat="46.50479" lon="5.94855">
        <ele>884.6</ele>
        <time>2021-10-17T15:21:32Z</time>
      </trkpt>
      <trkpt lat="46.50477" lon="5.9485">
        <ele>884.6</ele>
        <time>2021-10-17T15:21:33Z</time>
      </trkpt>
      <trkpt lat="46.50476" lon="5.94846">
        <ele>884.8</ele>
        <time>2021-10-17T15:21:34Z</time>
      </trkpt>
      <trkpt lat="46.50475" lon="5.94841">
        <ele>884.8</ele>
        <time>2021-10-17T15:21:35Z</time>
      </trkpt>
      <trkpt lat="46.50473" lon="5.94837">
        <ele>885</ele>
        <time>2021-10-17T15:21:36Z</time>
      </trkpt>
      <trkpt lat="46.50472" lon="5.94832">
        <ele>885</ele>
        <time>2021-10-17T15:21:37Z</time>
      </trkpt>
      <trkpt lat="46.50471" lon="5.94827">
        <ele>885.4</ele>
        <time>2021-10-17T15:21:38Z</time>
      </trkpt>
      <trkpt lat="46.5047" lon="5.94822">
        <ele>885.4</ele>
        <time>2021-10-17T15:21:39Z</time>
      </trkpt>
      <trkpt lat="46.50468" lon="5.94817">
        <ele>885.6</ele>
        <time>2021-10-17T15:21:40Z</time>
      </trkpt>
      <trkpt lat="46.50467" lon="5.94813">
        <ele>885.6</ele>
        <time>2021-10-17T15:21:41Z</time>
      </trkpt>
      <trkpt lat="46.50465" lon="5.94808">
        <ele>885.6</ele>
        <time>2021-10-17T15:21:42Z</time>
      </trkpt>
      <trkpt lat="46.50463" lon="5.94803">
        <ele>886</ele>
        <time>2021-10-17T15:21:43Z</time>
      </trkpt>
      <trkpt lat="46.50462" lon="5.94799">
        <ele>886</ele>
        <time>2021-10-17T15:21:44Z</time>
      </trkpt>
      <trkpt lat="46.5046" lon="5.94794">
        <ele>886.2</ele>
        <time>2021-10-17T15:21:45Z</time>
      </trkpt>
      <trkpt lat="46.50459" lon="5.94789">
        <ele>886.2</ele>
        <time>2021-10-17T15:21:46Z</time>
      </trkpt>
      <trkpt lat="46.50457" lon="5.94785">
        <ele>886.6</ele>
        <time>2021-10-17T15:21:47Z</time>
      </trkpt>
      <trkpt lat="46.50455" lon="5.9478">
        <ele>886.6</ele>
        <time>2021-10-17T15:21:48Z</time>
      </trkpt>
      <trkpt lat="46.50453" lon="5.94776">
        <ele>886.8</ele>
        <time>2021-10-17T15:21:49Z</time>
      </trkpt>
      <trkpt lat="46.50451" lon="5.94771">
        <ele>886.8</ele>
        <time>2021-10-17T15:21:50Z</time>
      </trkpt>
      <trkpt lat="46.50449" lon="5.94767">
        <ele>887</ele>
        <time>2021-10-17T15:21:51Z</time>
      </trkpt>
      <trkpt lat="46.50447" lon="5.94763">
        <ele>887</ele>
        <time>2021-10-17T15:21:52Z</time>
      </trkpt>
      <trkpt lat="46.50444" lon="5.94758">
        <ele>887.4</ele>
        <time>2021-10-17T15:21:53Z</time>
      </trkpt>
      <trkpt lat="46.50442" lon="5.94754">
        <ele>887.4</ele>
        <time>2021-10-17T15:21:54Z</time>
      </trkpt>
      <trkpt lat="46.5044" lon="5.9475">
        <ele>887.6</ele>
        <time>2021-10-17T15:21:55Z</time>
      </trkpt>
      <trkpt lat="46.50437" lon="5.94746">
        <ele>887.6</ele>
        <time>2021-10-17T15:21:56Z</time>
      </trkpt>
      <trkpt lat="46.50435" lon="5.94741">
        <ele>887.8</ele>
        <time>2021-10-17T15:21:57Z</time>
      </trkpt>
      <trkpt lat="46.50433" lon="5.94737">
        <ele>887.8</ele>
        <time>2021-10-17T15:21:58Z</time>
      </trkpt>
      <trkpt lat="46.50431" lon="5.94733">
        <ele>888.2</ele>
        <time>2021-10-17T15:21:59Z</time>
      </trkpt>
      <trkpt lat="46.50429" lon="5.94728">
        <ele>888.2</ele>
        <time>2021-10-17T15:22:00Z</time>
      </trkpt>
      <trkpt lat="46.50427" lon="5.94724">
        <ele>888.4</ele>
        <time>2021-10-17T15:22:01Z</time>
      </trkpt>
      <trkpt lat="46.50425" lon="5.94719">
        <ele>888.4</ele>
        <time>2021-10-17T15:22:02Z</time>
      </trkpt>
      <trkpt lat="46.50424" lon="5.94715">
        <ele>888.6</ele>
        <time>2021-10-17T15:22:03Z</time>
      </trkpt>
      <trkpt lat="46.50422" lon="5.9471">
        <ele>888.6</ele>
        <time>2021-10-17T15:22:04Z</time>
      </trkpt>
      <trkpt lat="46.50421" lon="5.94705">
        <ele>889</ele>
        <time>2021-10-17T15:22:05Z</time>
      </trkpt>
      <trkpt lat="46.5042" lon="5.94701">
        <ele>889</ele>
        <time>2021-10-17T15:22:06Z</time>
      </trkpt>
      <trkpt lat="46.50419" lon="5.94696">
        <ele>889</ele>
        <time>2021-10-17T15:22:07Z</time>
      </trkpt>
      <trkpt lat="46.50418" lon="5.9469">
        <ele>889.2</ele>
        <time>2021-10-17T15:22:08Z</time>
      </trkpt>
      <trkpt lat="46.50418" lon="5.94686">
        <ele>889.2</ele>
        <time>2021-10-17T15:22:09Z</time>
      </trkpt>
      <trkpt lat="46.50418" lon="5.94681">
        <ele>889.6</ele>
        <time>2021-10-17T15:22:10Z</time>
      </trkpt>
      <trkpt lat="46.50418" lon="5.94675">
        <ele>889.6</ele>
        <time>2021-10-17T15:22:11Z</time>
      </trkpt>
      <trkpt lat="46.50419" lon="5.9467">
        <ele>889.8</ele>
        <time>2021-10-17T15:22:12Z</time>
      </trkpt>
      <trkpt lat="46.50419" lon="5.94665">
        <ele>889.8</ele>
        <time>2021-10-17T15:22:13Z</time>
      </trkpt>
      <trkpt lat="46.5042" lon="5.94659">
        <ele>890.2</ele>
        <time>2021-10-17T15:22:14Z</time>
      </trkpt>
      <trkpt lat="46.5042" lon="5.94654">
        <ele>890.4</ele>
        <time>2021-10-17T15:22:15Z</time>
      </trkpt>
      <trkpt lat="46.50422" lon="5.94648">
        <ele>890.4</ele>
        <time>2021-10-17T15:22:16Z</time>
      </trkpt>
      <trkpt lat="46.50423" lon="5.94643">
        <ele>890.6</ele>
        <time>2021-10-17T15:22:17Z</time>
      </trkpt>
      <trkpt lat="46.50423" lon="5.94637">
        <ele>890.6</ele>
        <time>2021-10-17T15:22:18Z</time>
      </trkpt>
      <trkpt lat="46.50424" lon="5.94632">
        <ele>890.8</ele>
        <time>2021-10-17T15:22:19Z</time>
      </trkpt>
      <trkpt lat="46.50425" lon="5.94627">
        <ele>891</ele>
        <time>2021-10-17T15:22:20Z</time>
      </trkpt>
      <trkpt lat="46.50427" lon="5.94622">
        <ele>891</ele>
        <time>2021-10-17T15:22:21Z</time>
      </trkpt>
      <trkpt lat="46.50428" lon="5.94617">
        <ele>891.4</ele>
        <time>2021-10-17T15:22:22Z</time>
      </trkpt>
      <trkpt lat="46.50429" lon="5.94612">
        <ele>891.4</ele>
        <time>2021-10-17T15:22:23Z</time>
      </trkpt>
      <trkpt lat="46.50431" lon="5.94606">
        <ele>891.6</ele>
        <time>2021-10-17T15:22:24Z</time>
      </trkpt>
      <trkpt lat="46.50433" lon="5.94601">
        <ele>891.6</ele>
        <time>2021-10-17T15:22:25Z</time>
      </trkpt>
      <trkpt lat="46.50434" lon="5.94596">
        <ele>892</ele>
        <time>2021-10-17T15:22:26Z</time>
      </trkpt>
      <trkpt lat="46.50436" lon="5.94591">
        <ele>892</ele>
        <time>2021-10-17T15:22:27Z</time>
      </trkpt>
      <trkpt lat="46.50438" lon="5.94585">
        <ele>892.2</ele>
        <time>2021-10-17T15:22:28Z</time>
      </trkpt>
      <trkpt lat="46.5044" lon="5.94581">
        <ele>892.2</ele>
        <time>2021-10-17T15:22:29Z</time>
      </trkpt>
      <trkpt lat="46.50442" lon="5.94577">
        <ele>892.4</ele>
        <time>2021-10-17T15:22:30Z</time>
      </trkpt>
      <trkpt lat="46.50445" lon="5.94573">
        <ele>892.4</ele>
        <time>2021-10-17T15:22:31Z</time>
      </trkpt>
      <trkpt lat="46.50447" lon="5.94569">
        <ele>892.8</ele>
        <time>2021-10-17T15:22:32Z</time>
      </trkpt>
      <trkpt lat="46.5045" lon="5.94566">
        <ele>892.8</ele>
        <time>2021-10-17T15:22:33Z</time>
      </trkpt>
      <trkpt lat="46.50453" lon="5.94563">
        <ele>893</ele>
        <time>2021-10-17T15:22:34Z</time>
      </trkpt>
      <trkpt lat="46.50456" lon="5.9456">
        <ele>893</ele>
        <time>2021-10-17T15:22:35Z</time>
      </trkpt>
      <trkpt lat="46.50459" lon="5.94558">
        <ele>893.4</ele>
        <time>2021-10-17T15:22:36Z</time>
      </trkpt>
      <trkpt lat="46.50462" lon="5.94556">
        <ele>893.4</ele>
        <time>2021-10-17T15:22:37Z</time>
      </trkpt>
      <trkpt lat="46.50465" lon="5.94554">
        <ele>893.6</ele>
        <time>2021-10-17T15:22:38Z</time>
      </trkpt>
      <trkpt lat="46.50468" lon="5.94551">
        <ele>893.6</ele>
        <time>2021-10-17T15:22:39Z</time>
      </trkpt>
      <trkpt lat="46.50471" lon="5.94549">
        <ele>893.6</ele>
        <time>2021-10-17T15:22:40Z</time>
      </trkpt>
      <trkpt lat="46.50475" lon="5.94547">
        <ele>894</ele>
        <time>2021-10-17T15:22:41Z</time>
      </trkpt>
      <trkpt lat="46.50478" lon="5.94545">
        <ele>894</ele>
        <time>2021-10-17T15:22:42Z</time>
      </trkpt>
      <trkpt lat="46.50481" lon="5.94543">
        <ele>894.2</ele>
        <time>2021-10-17T15:22:43Z</time>
      </trkpt>
      <trkpt lat="46.50484" lon="5.94541">
        <ele>894.2</ele>
        <time>2021-10-17T15:22:44Z</time>
      </trkpt>
      <trkpt lat="46.50487" lon="5.9454">
        <ele>894.6</ele>
        <time>2021-10-17T15:22:45Z</time>
      </trkpt>
      <trkpt lat="46.5049" lon="5.94539">
        <ele>894.6</ele>
        <time>2021-10-17T15:22:46Z</time>
      </trkpt>
      <trkpt lat="46.50493" lon="5.94537">
        <ele>894.8</ele>
        <time>2021-10-17T15:22:47Z</time>
      </trkpt>
      <trkpt lat="46.50496" lon="5.94535">
        <ele>894.8</ele>
        <time>2021-10-17T15:22:48Z</time>
      </trkpt>
      <trkpt lat="46.50499" lon="5.94532">
        <ele>895.2</ele>
        <time>2021-10-17T15:22:49Z</time>
      </trkpt>
      <trkpt lat="46.50502" lon="5.94529">
        <ele>895.2</ele>
        <time>2021-10-17T15:22:50Z</time>
      </trkpt>
      <trkpt lat="46.50505" lon="5.94526">
        <ele>895.4</ele>
        <time>2021-10-17T15:22:51Z</time>
      </trkpt>
      <trkpt lat="46.50508" lon="5.94523">
        <ele>895.4</ele>
        <time>2021-10-17T15:22:52Z</time>
      </trkpt>
      <trkpt lat="46.50511" lon="5.9452">
        <ele>895.8</ele>
        <time>2021-10-17T15:22:53Z</time>
      </trkpt>
      <trkpt lat="46.50513" lon="5.94516">
        <ele>895.8</ele>
        <time>2021-10-17T15:22:54Z</time>
      </trkpt>
      <trkpt lat="46.50516" lon="5.94512">
        <ele>896.2</ele>
        <time>2021-10-17T15:22:55Z</time>
      </trkpt>
      <trkpt lat="46.50519" lon="5.94507">
        <ele>896.2</ele>
        <time>2021-10-17T15:22:56Z</time>
      </trkpt>
      <trkpt lat="46.50522" lon="5.94503">
        <ele>896.4</ele>
        <time>2021-10-17T15:22:57Z</time>
      </trkpt>
      <trkpt lat="46.50524" lon="5.94498">
        <ele>896.4</ele>
        <time>2021-10-17T15:22:58Z</time>
      </trkpt>
      <trkpt lat="46.50526" lon="5.94493">
        <ele>896.6</ele>
        <time>2021-10-17T15:22:59Z</time>
      </trkpt>
      <trkpt lat="46.50528" lon="5.94489">
        <ele>896.6</ele>
        <time>2021-10-17T15:23:00Z</time>
      </trkpt>
      <trkpt lat="46.5053" lon="5.94484">
        <ele>897</ele>
        <time>2021-10-17T15:23:01Z</time>
      </trkpt>
      <trkpt lat="46.50532" lon="5.94479">
        <ele>897.2</ele>
        <time>2021-10-17T15:23:02Z</time>
      </trkpt>
      <trkpt lat="46.50534" lon="5.94474">
        <ele>897.4</ele>
        <time>2021-10-17T15:23:03Z</time>
      </trkpt>
      <trkpt lat="46.50536" lon="5.94469">
        <ele>897.4</ele>
        <time>2021-10-17T15:23:04Z</time>
      </trkpt>
      <trkpt lat="46.50537" lon="5.94464">
        <ele>897.8</ele>
        <time>2021-10-17T15:23:05Z</time>
      </trkpt>
      <trkpt lat="46.50539" lon="5.9446">
        <ele>897.8</ele>
        <time>2021-10-17T15:23:06Z</time>
      </trkpt>
      <trkpt lat="46.5054" lon="5.94455">
        <ele>898.2</ele>
        <time>2021-10-17T15:23:07Z</time>
      </trkpt>
      <trkpt lat="46.50541" lon="5.9445">
        <ele>898.2</ele>
        <time>2021-10-17T15:23:08Z</time>
      </trkpt>
      <trkpt lat="46.50541" lon="5.94444">
        <ele>898.4</ele>
        <time>2021-10-17T15:23:09Z</time>
      </trkpt>
      <trkpt lat="46.50542" lon="5.94439">
        <ele>898.6</ele>
        <time>2021-10-17T15:23:10Z</time>
      </trkpt>
      <trkpt lat="46.50542" lon="5.94434">
        <ele>898.6</ele>
        <time>2021-10-17T15:23:11Z</time>
      </trkpt>
      <trkpt lat="46.50542" lon="5.94429">
        <ele>899</ele>
        <time>2021-10-17T15:23:12Z</time>
      </trkpt>
      <trkpt lat="46.50543" lon="5.94424">
        <ele>899</ele>
        <time>2021-10-17T15:23:13Z</time>
      </trkpt>
      <trkpt lat="46.50543" lon="5.94418">
        <ele>899.4</ele>
        <time>2021-10-17T15:23:14Z</time>
      </trkpt>
      <trkpt lat="46.50542" lon="5.94413">
        <ele>899.4</ele>
        <time>2021-10-17T15:23:15Z</time>
      </trkpt>
      <trkpt lat="46.50542" lon="5.94408">
        <ele>899.8</ele>
        <time>2021-10-17T15:23:16Z</time>
      </trkpt>
      <trkpt lat="46.50542" lon="5.94404">
        <ele>899.8</ele>
        <time>2021-10-17T15:23:17Z</time>
      </trkpt>
      <trkpt lat="46.50541" lon="5.94399">
        <ele>900</ele>
        <time>2021-10-17T15:23:18Z</time>
      </trkpt>
      <trkpt lat="46.5054" lon="5.94394">
        <ele>900</ele>
        <time>2021-10-17T15:23:19Z</time>
      </trkpt>
      <trkpt lat="46.50539" lon="5.94389">
        <ele>900.2</ele>
        <time>2021-10-17T15:23:20Z</time>
      </trkpt>
      <trkpt lat="46.50538" lon="5.94384">
        <ele>900.2</ele>
        <time>2021-10-17T15:23:21Z</time>
      </trkpt>
      <trkpt lat="46.50536" lon="5.9438">
        <ele>900.6</ele>
        <time>2021-10-17T15:23:22Z</time>
      </trkpt>
      <trkpt lat="46.50535" lon="5.94375">
        <ele>900.6</ele>
        <time>2021-10-17T15:23:23Z</time>
      </trkpt>
      <trkpt lat="46.50534" lon="5.9437">
        <ele>900.8</ele>
        <time>2021-10-17T15:23:24Z</time>
      </trkpt>
      <trkpt lat="46.50532" lon="5.94365">
        <ele>900.8</ele>
        <time>2021-10-17T15:23:25Z</time>
      </trkpt>
      <trkpt lat="46.50531" lon="5.9436">
        <ele>901</ele>
        <time>2021-10-17T15:23:26Z</time>
      </trkpt>
      <trkpt lat="46.50529" lon="5.94354">
        <ele>901</ele>
        <time>2021-10-17T15:23:27Z</time>
      </trkpt>
      <trkpt lat="46.50527" lon="5.94349">
        <ele>901</ele>
        <time>2021-10-17T15:23:28Z</time>
      </trkpt>
      <trkpt lat="46.50526" lon="5.94344">
        <ele>901.4</ele>
        <time>2021-10-17T15:23:29Z</time>
      </trkpt>
      <trkpt lat="46.50524" lon="5.94338">
        <ele>901.4</ele>
        <time>2021-10-17T15:23:30Z</time>
      </trkpt>
      <trkpt lat="46.50523" lon="5.94333">
        <ele>901.4</ele>
        <time>2021-10-17T15:23:31Z</time>
      </trkpt>
      <trkpt lat="46.50521" lon="5.94328">
        <ele>901.6</ele>
        <time>2021-10-17T15:23:32Z</time>
      </trkpt>
      <trkpt lat="46.5052" lon="5.94323">
        <ele>901.6</ele>
        <time>2021-10-17T15:23:33Z</time>
      </trkpt>
      <trkpt lat="46.50519" lon="5.94319">
        <ele>901.6</ele>
        <time>2021-10-17T15:23:34Z</time>
      </trkpt>
      <trkpt lat="46.50518" lon="5.94314">
        <ele>902</ele>
        <time>2021-10-17T15:23:35Z</time>
      </trkpt>
      <trkpt lat="46.50517" lon="5.94309">
        <ele>902</ele>
        <time>2021-10-17T15:23:36Z</time>
      </trkpt>
      <trkpt lat="46.50515" lon="5.94304">
        <ele>902</ele>
        <time>2021-10-17T15:23:37Z</time>
      </trkpt>
      <trkpt lat="46.50514" lon="5.94299">
        <ele>902.2</ele>
        <time>2021-10-17T15:23:38Z</time>
      </trkpt>
      <trkpt lat="46.50513" lon="5.94294">
        <ele>902.2</ele>
        <time>2021-10-17T15:23:39Z</time>
      </trkpt>
      <trkpt lat="46.50512" lon="5.94289">
        <ele>902.6</ele>
        <time>2021-10-17T15:23:40Z</time>
      </trkpt>
      <trkpt lat="46.5051" lon="5.94283">
        <ele>902.6</ele>
        <time>2021-10-17T15:23:41Z</time>
      </trkpt>
      <trkpt lat="46.50509" lon="5.94278">
        <ele>902.8</ele>
        <time>2021-10-17T15:23:42Z</time>
      </trkpt>
      <trkpt lat="46.50507" lon="5.94273">
        <ele>902.8</ele>
        <time>2021-10-17T15:23:43Z</time>
      </trkpt>
      <trkpt lat="46.50505" lon="5.94268">
        <ele>902.8</ele>
        <time>2021-10-17T15:23:44Z</time>
      </trkpt>
      <trkpt lat="46.50504" lon="5.94263">
        <ele>903</ele>
        <time>2021-10-17T15:23:45Z</time>
      </trkpt>
      <trkpt lat="46.50502" lon="5.94257">
        <ele>903</ele>
        <time>2021-10-17T15:23:46Z</time>
      </trkpt>
      <trkpt lat="46.50501" lon="5.94252">
        <ele>903</ele>
        <time>2021-10-17T15:23:47Z</time>
      </trkpt>
      <trkpt lat="46.505" lon="5.94246">
        <ele>903</ele>
        <time>2021-10-17T15:23:48Z</time>
      </trkpt>
      <trkpt lat="46.50498" lon="5.94241">
        <ele>903.2</ele>
        <time>2021-10-17T15:23:49Z</time>
      </trkpt>
      <trkpt lat="46.50497" lon="5.94235">
        <ele>903.2</ele>
        <time>2021-10-17T15:23:50Z</time>
      </trkpt>
      <trkpt lat="46.50496" lon="5.94229">
        <ele>903.4</ele>
        <time>2021-10-17T15:23:51Z</time>
      </trkpt>
      <trkpt lat="46.50495" lon="5.94223">
        <ele>903.4</ele>
        <time>2021-10-17T15:23:52Z</time>
      </trkpt>
      <trkpt lat="46.50494" lon="5.94217">
        <ele>903.4</ele>
        <time>2021-10-17T15:23:53Z</time>
      </trkpt>
      <trkpt lat="46.50494" lon="5.94211">
        <ele>903.6</ele>
        <time>2021-10-17T15:23:54Z</time>
      </trkpt>
      <trkpt lat="46.50494" lon="5.94205">
        <ele>903.6</ele>
        <time>2021-10-17T15:23:55Z</time>
      </trkpt>
      <trkpt lat="46.50494" lon="5.94199">
        <ele>903.6</ele>
        <time>2021-10-17T15:23:56Z</time>
      </trkpt>
      <trkpt lat="46.50495" lon="5.94193">
        <ele>903.6</ele>
        <time>2021-10-17T15:23:57Z</time>
      </trkpt>
      <trkpt lat="46.50496" lon="5.94187">
        <ele>904</ele>
        <time>2021-10-17T15:23:58Z</time>
      </trkpt>
      <trkpt lat="46.50497" lon="5.94182">
        <ele>904</ele>
        <time>2021-10-17T15:23:59Z</time>
      </trkpt>
      <trkpt lat="46.50499" lon="5.94176">
        <ele>904</ele>
        <time>2021-10-17T15:24:00Z</time>
      </trkpt>
      <trkpt lat="46.505" lon="5.94171">
        <ele>904.2</ele>
        <time>2021-10-17T15:24:01Z</time>
      </trkpt>
      <trkpt lat="46.50503" lon="5.94166">
        <ele>904.2</ele>
        <time>2021-10-17T15:24:02Z</time>
      </trkpt>
      <trkpt lat="46.50505" lon="5.94162">
        <ele>904.4</ele>
        <time>2021-10-17T15:24:03Z</time>
      </trkpt>
      <trkpt lat="46.50507" lon="5.94157">
        <ele>904.4</ele>
        <time>2021-10-17T15:24:04Z</time>
      </trkpt>
      <trkpt lat="46.5051" lon="5.94153">
        <ele>904.6</ele>
        <time>2021-10-17T15:24:05Z</time>
      </trkpt>
      <trkpt lat="46.50512" lon="5.94149">
        <ele>904.6</ele>
        <time>2021-10-17T15:24:06Z</time>
      </trkpt>
      <trkpt lat="46.50515" lon="5.94146">
        <ele>904.8</ele>
        <time>2021-10-17T15:24:07Z</time>
      </trkpt>
      <trkpt lat="46.50518" lon="5.94142">
        <ele>904.8</ele>
        <time>2021-10-17T15:24:08Z</time>
      </trkpt>
      <trkpt lat="46.50521" lon="5.94139">
        <ele>905.2</ele>
        <time>2021-10-17T15:24:09Z</time>
      </trkpt>
      <trkpt lat="46.50524" lon="5.94135">
        <ele>905.2</ele>
        <time>2021-10-17T15:24:10Z</time>
      </trkpt>
      <trkpt lat="46.50527" lon="5.94132">
        <ele>905.4</ele>
        <time>2021-10-17T15:24:11Z</time>
      </trkpt>
      <trkpt lat="46.50529" lon="5.94128">
        <ele>905.4</ele>
        <time>2021-10-17T15:24:12Z</time>
      </trkpt>
      <trkpt lat="46.50532" lon="5.94124">
        <ele>905.8</ele>
        <time>2021-10-17T15:24:13Z</time>
      </trkpt>
      <trkpt lat="46.50535" lon="5.9412">
        <ele>905.8</ele>
        <time>2021-10-17T15:24:14Z</time>
      </trkpt>
      <trkpt lat="46.50537" lon="5.94116">
        <ele>906</ele>
        <time>2021-10-17T15:24:15Z</time>
      </trkpt>
      <trkpt lat="46.50539" lon="5.94112">
        <ele>906</ele>
        <time>2021-10-17T15:24:16Z</time>
      </trkpt>
      <trkpt lat="46.50541" lon="5.94108">
        <ele>906</ele>
        <time>2021-10-17T15:24:17Z</time>
      </trkpt>
      <trkpt lat="46.50543" lon="5.94103">
        <ele>906</ele>
        <time>2021-10-17T15:24:18Z</time>
      </trkpt>
      <trkpt lat="46.50545" lon="5.94099">
        <ele>906</ele>
        <time>2021-10-17T15:24:19Z</time>
      </trkpt>
      <trkpt lat="46.50546" lon="5.94094">
        <ele>906.2</ele>
        <time>2021-10-17T15:24:20Z</time>
      </trkpt>
      <trkpt lat="46.50547" lon="5.94089">
        <ele>906.2</ele>
        <time>2021-10-17T15:24:21Z</time>
      </trkpt>
      <trkpt lat="46.50548" lon="5.94084">
        <ele>906.2</ele>
        <time>2021-10-17T15:24:22Z</time>
      </trkpt>
      <trkpt lat="46.50548" lon="5.94079">
        <ele>906.6</ele>
        <time>2021-10-17T15:24:23Z</time>
      </trkpt>
      <trkpt lat="46.50548" lon="5.94074">
        <ele>906.6</ele>
        <time>2021-10-17T15:24:24Z</time>
      </trkpt>
      <trkpt lat="46.50548" lon="5.94069">
        <ele>906.8</ele>
        <time>2021-10-17T15:24:25Z</time>
      </trkpt>
      <trkpt lat="46.50547" lon="5.94063">
        <ele>906.8</ele>
        <time>2021-10-17T15:24:26Z</time>
      </trkpt>
      <trkpt lat="46.50547" lon="5.94058">
        <ele>906.8</ele>
        <time>2021-10-17T15:24:27Z</time>
      </trkpt>
      <trkpt lat="46.50546" lon="5.94052">
        <ele>907</ele>
        <time>2021-10-17T15:24:28Z</time>
      </trkpt>
      <trkpt lat="46.50545" lon="5.94047">
        <ele>907</ele>
        <time>2021-10-17T15:24:29Z</time>
      </trkpt>
      <trkpt lat="46.50544" lon="5.94041">
        <ele>907</ele>
        <time>2021-10-17T15:24:30Z</time>
      </trkpt>
      <trkpt lat="46.50543" lon="5.94035">
        <ele>907.2</ele>
        <time>2021-10-17T15:24:31Z</time>
      </trkpt>
      <trkpt lat="46.50542" lon="5.94029">
        <ele>907.2</ele>
        <time>2021-10-17T15:24:32Z</time>
      </trkpt>
      <trkpt lat="46.5054" lon="5.94023">
        <ele>907.2</ele>
        <time>2021-10-17T15:24:33Z</time>
      </trkpt>
      <trkpt lat="46.50539" lon="5.94017">
        <ele>907.4</ele>
        <time>2021-10-17T15:24:34Z</time>
      </trkpt>
      <trkpt lat="46.50538" lon="5.94011">
        <ele>907.4</ele>
        <time>2021-10-17T15:24:35Z</time>
      </trkpt>
      <trkpt lat="46.50537" lon="5.94004">
        <ele>907.4</ele>
        <time>2021-10-17T15:24:36Z</time>
      </trkpt>
      <trkpt lat="46.50536" lon="5.93998">
        <ele>907.4</ele>
        <time>2021-10-17T15:24:37Z</time>
      </trkpt>
      <trkpt lat="46.50535" lon="5.93992">
        <ele>907.6</ele>
        <time>2021-10-17T15:24:38Z</time>
      </trkpt>
      <trkpt lat="46.50533" lon="5.93986">
        <ele>907.6</ele>
        <time>2021-10-17T15:24:39Z</time>
      </trkpt>
      <trkpt lat="46.50532" lon="5.9398">
        <ele>907.6</ele>
        <time>2021-10-17T15:24:40Z</time>
      </trkpt>
      <trkpt lat="46.50531" lon="5.93974">
        <ele>908</ele>
        <time>2021-10-17T15:24:41Z</time>
      </trkpt>
      <trkpt lat="46.5053" lon="5.93968">
        <ele>908</ele>
        <time>2021-10-17T15:24:42Z</time>
      </trkpt>
      <trkpt lat="46.50528" lon="5.93963">
        <ele>908.2</ele>
        <time>2021-10-17T15:24:43Z</time>
      </trkpt>
      <trkpt lat="46.50527" lon="5.93957">
        <ele>908.2</ele>
        <time>2021-10-17T15:24:44Z</time>
      </trkpt>
      <trkpt lat="46.50526" lon="5.9395">
        <ele>908.4</ele>
        <time>2021-10-17T15:24:45Z</time>
      </trkpt>
      <trkpt lat="46.50525" lon="5.93943">
        <ele>908.4</ele>
        <time>2021-10-17T15:24:46Z</time>
      </trkpt>
      <trkpt lat="46.50524" lon="5.93937">
        <ele>908.4</ele>
        <time>2021-10-17T15:24:47Z</time>
      </trkpt>
      <trkpt lat="46.50523" lon="5.93931">
        <ele>908.4</ele>
        <time>2021-10-17T15:24:48Z</time>
      </trkpt>
      <trkpt lat="46.50522" lon="5.93925">
        <ele>908.4</ele>
        <time>2021-10-17T15:24:49Z</time>
      </trkpt>
      <trkpt lat="46.50521" lon="5.93919">
        <ele>908.6</ele>
        <time>2021-10-17T15:24:50Z</time>
      </trkpt>
      <trkpt lat="46.5052" lon="5.93914">
        <ele>908.6</ele>
        <time>2021-10-17T15:24:51Z</time>
      </trkpt>
      <trkpt lat="46.50519" lon="5.93908">
        <ele>909</ele>
        <time>2021-10-17T15:24:52Z</time>
      </trkpt>
      <trkpt lat="46.50518" lon="5.93903">
        <ele>909</ele>
        <time>2021-10-17T15:24:53Z</time>
      </trkpt>
      <trkpt lat="46.50517" lon="5.93897">
        <ele>909</ele>
        <time>2021-10-17T15:24:54Z</time>
      </trkpt>
      <trkpt lat="46.50515" lon="5.93892">
        <ele>909.2</ele>
        <time>2021-10-17T15:24:55Z</time>
      </trkpt>
      <trkpt lat="46.50515" lon="5.93885">
        <ele>909.2</ele>
        <time>2021-10-17T15:24:56Z</time>
      </trkpt>
      <trkpt lat="46.50513" lon="5.9388">
        <ele>909.2</ele>
        <time>2021-10-17T15:24:57Z</time>
      </trkpt>
      <trkpt lat="46.50512" lon="5.93874">
        <ele>909.2</ele>
        <time>2021-10-17T15:24:58Z</time>
      </trkpt>
      <trkpt lat="46.50511" lon="5.93867">
        <ele>909.2</ele>
        <time>2021-10-17T15:24:59Z</time>
      </trkpt>
      <trkpt lat="46.5051" lon="5.93862">
        <ele>909.4</ele>
        <time>2021-10-17T15:25:00Z</time>
      </trkpt>
      <trkpt lat="46.50509" lon="5.93856">
        <ele>909.4</ele>
        <time>2021-10-17T15:25:01Z</time>
      </trkpt>
      <trkpt lat="46.50508" lon="5.93849">
        <ele>909.4</ele>
        <time>2021-10-17T15:25:02Z</time>
      </trkpt>
      <trkpt lat="46.50507" lon="5.93843">
        <ele>909.4</ele>
        <time>2021-10-17T15:25:03Z</time>
      </trkpt>
      <trkpt lat="46.50506" lon="5.93837">
        <ele>909.6</ele>
        <time>2021-10-17T15:25:04Z</time>
      </trkpt>
      <trkpt lat="46.50505" lon="5.93832">
        <ele>909.6</ele>
        <time>2021-10-17T15:25:05Z</time>
      </trkpt>
      <trkpt lat="46.50503" lon="5.93825">
        <ele>909.6</ele>
        <time>2021-10-17T15:25:06Z</time>
      </trkpt>
      <trkpt lat="46.50502" lon="5.93819">
        <ele>910</ele>
        <time>2021-10-17T15:25:07Z</time>
      </trkpt>
      <trkpt lat="46.505" lon="5.93813">
        <ele>910</ele>
        <time>2021-10-17T15:25:08Z</time>
      </trkpt>
      <trkpt lat="46.50498" lon="5.93807">
        <ele>910.2</ele>
        <time>2021-10-17T15:25:09Z</time>
      </trkpt>
      <trkpt lat="46.50496" lon="5.93801">
        <ele>910.2</ele>
        <time>2021-10-17T15:25:10Z</time>
      </trkpt>
      <trkpt lat="46.50494" lon="5.93796">
        <ele>910.2</ele>
        <time>2021-10-17T15:25:11Z</time>
      </trkpt>
      <trkpt lat="46.50491" lon="5.9379">
        <ele>910.2</ele>
        <time>2021-10-17T15:25:12Z</time>
      </trkpt>
      <trkpt lat="46.50489" lon="5.93785">
        <ele>910.4</ele>
        <time>2021-10-17T15:25:13Z</time>
      </trkpt>
      <trkpt lat="46.50486" lon="5.93781">
        <ele>910.4</ele>
        <time>2021-10-17T15:25:14Z</time>
      </trkpt>
      <trkpt lat="46.50483" lon="5.93777">
        <ele>910.4</ele>
        <time>2021-10-17T15:25:15Z</time>
      </trkpt>
      <trkpt lat="46.50479" lon="5.93774">
        <ele>910.8</ele>
        <time>2021-10-17T15:25:16Z</time>
      </trkpt>
      <trkpt lat="46.50476" lon="5.9377">
        <ele>910.8</ele>
        <time>2021-10-17T15:25:17Z</time>
      </trkpt>
      <trkpt lat="46.50472" lon="5.93767">
        <ele>911</ele>
        <time>2021-10-17T15:25:18Z</time>
      </trkpt>
      <trkpt lat="46.50468" lon="5.93764">
        <ele>911</ele>
        <time>2021-10-17T15:25:19Z</time>
      </trkpt>
      <trkpt lat="46.50464" lon="5.93761">
        <ele>911</ele>
        <time>2021-10-17T15:25:20Z</time>
      </trkpt>
      <trkpt lat="46.5046" lon="5.93758">
        <ele>911.2</ele>
        <time>2021-10-17T15:25:21Z</time>
      </trkpt>
      <trkpt lat="46.50456" lon="5.93755">
        <ele>911.2</ele>
        <time>2021-10-17T15:25:22Z</time>
      </trkpt>
      <trkpt lat="46.50452" lon="5.93752">
        <ele>911.2</ele>
        <time>2021-10-17T15:25:23Z</time>
      </trkpt>
      <trkpt lat="46.50448" lon="5.93749">
        <ele>911.6</ele>
        <time>2021-10-17T15:25:24Z</time>
      </trkpt>
      <trkpt lat="46.50444" lon="5.93746">
        <ele>911.6</ele>
        <time>2021-10-17T15:25:25Z</time>
      </trkpt>
      <trkpt lat="46.50439" lon="5.93743">
        <ele>911.6</ele>
        <time>2021-10-17T15:25:26Z</time>
      </trkpt>
      <trkpt lat="46.50435" lon="5.9374">
        <ele>911.8</ele>
        <time>2021-10-17T15:25:27Z</time>
      </trkpt>
      <trkpt lat="46.50431" lon="5.93737">
        <ele>911.8</ele>
        <time>2021-10-17T15:25:28Z</time>
      </trkpt>
      <trkpt lat="46.50427" lon="5.93735">
        <ele>911.8</ele>
        <time>2021-10-17T15:25:29Z</time>
      </trkpt>
      <trkpt lat="46.50423" lon="5.93732">
        <ele>911.8</ele>
        <time>2021-10-17T15:25:30Z</time>
      </trkpt>
      <trkpt lat="46.50419" lon="5.9373">
        <ele>912</ele>
        <time>2021-10-17T15:25:31Z</time>
      </trkpt>
      <trkpt lat="46.50415" lon="5.93728">
        <ele>912</ele>
        <time>2021-10-17T15:25:32Z</time>
      </trkpt>
      <trkpt lat="46.50411" lon="5.93726">
        <ele>912</ele>
        <time>2021-10-17T15:25:33Z</time>
      </trkpt>
      <trkpt lat="46.50408" lon="5.93723">
        <ele>912.2</ele>
        <time>2021-10-17T15:25:34Z</time>
      </trkpt>
      <trkpt lat="46.50404" lon="5.9372">
        <ele>912.2</ele>
        <time>2021-10-17T15:25:35Z</time>
      </trkpt>
      <trkpt lat="46.504" lon="5.93717">
        <ele>912.2</ele>
        <time>2021-10-17T15:25:36Z</time>
      </trkpt>
      <trkpt lat="46.504" lon="5.93717">
        <ele>912.4</ele>
        <time>2021-10-17T15:25:37Z</time>
      </trkpt>
      <trkpt lat="46.50397" lon="5.93714">
        <ele>912.4</ele>
        <time>2021-10-17T15:25:38Z</time>
      </trkpt>
      <trkpt lat="46.50393" lon="5.9371">
        <ele>912.4</ele>
        <time>2021-10-17T15:25:39Z</time>
      </trkpt>
      <trkpt lat="46.5039" lon="5.93707">
        <ele>912.8</ele>
        <time>2021-10-17T15:25:40Z</time>
      </trkpt>
      <trkpt lat="46.50383" lon="5.93699">
        <ele>912.8</ele>
        <time>2021-10-17T15:25:41Z</time>
      </trkpt>
      <trkpt lat="46.50383" lon="5.93699">
        <ele>912.8</ele>
        <time>2021-10-17T15:25:42Z</time>
      </trkpt>
      <trkpt lat="46.5038" lon="5.93695">
        <ele>912.8</ele>
        <time>2021-10-17T15:25:43Z</time>
      </trkpt>
      <trkpt lat="46.50377" lon="5.9369">
        <ele>913</ele>
        <time>2021-10-17T15:25:44Z</time>
      </trkpt>
      <trkpt lat="46.50374" lon="5.93686">
        <ele>913</ele>
        <time>2021-10-17T15:25:45Z</time>
      </trkpt>
      <trkpt lat="46.50371" lon="5.93681">
        <ele>913</ele>
        <time>2021-10-17T15:25:46Z</time>
      </trkpt>
      <trkpt lat="46.50368" lon="5.93676">
        <ele>913.2</ele>
        <time>2021-10-17T15:25:47Z</time>
      </trkpt>
      <trkpt lat="46.50366" lon="5.93671">
        <ele>913.2</ele>
        <time>2021-10-17T15:25:48Z</time>
      </trkpt>
      <trkpt lat="46.50363" lon="5.93666">
        <ele>913.4</ele>
        <time>2021-10-17T15:25:49Z</time>
      </trkpt>
      <trkpt lat="46.5036" lon="5.93661">
        <ele>913.4</ele>
        <time>2021-10-17T15:25:50Z</time>
      </trkpt>
      <trkpt lat="46.50358" lon="5.93657">
        <ele>913.4</ele>
        <time>2021-10-17T15:25:51Z</time>
      </trkpt>
      <trkpt lat="46.50355" lon="5.93652">
        <ele>913.8</ele>
        <time>2021-10-17T15:25:52Z</time>
      </trkpt>
      <trkpt lat="46.50352" lon="5.93647">
        <ele>913.8</ele>
        <time>2021-10-17T15:25:53Z</time>
      </trkpt>
      <trkpt lat="46.5035" lon="5.93642">
        <ele>913.8</ele>
        <time>2021-10-17T15:25:54Z</time>
      </trkpt>
      <trkpt lat="46.50347" lon="5.93638">
        <ele>914</ele>
        <time>2021-10-17T15:25:55Z</time>
      </trkpt>
      <trkpt lat="46.50344" lon="5.93632">
        <ele>914</ele>
        <time>2021-10-17T15:25:56Z</time>
      </trkpt>
      <trkpt lat="46.50342" lon="5.93627">
        <ele>914</ele>
        <time>2021-10-17T15:25:57Z</time>
      </trkpt>
      <trkpt lat="46.50339" lon="5.93622">
        <ele>914</ele>
        <time>2021-10-17T15:25:58Z</time>
      </trkpt>
      <trkpt lat="46.50337" lon="5.93618">
        <ele>914.2</ele>
        <time>2021-10-17T15:25:59Z</time>
      </trkpt>
      <trkpt lat="46.50334" lon="5.93613">
        <ele>914.2</ele>
        <time>2021-10-17T15:26:00Z</time>
      </trkpt>
      <trkpt lat="46.50331" lon="5.93608">
        <ele>914.4</ele>
        <time>2021-10-17T15:26:01Z</time>
      </trkpt>
      <trkpt lat="46.50329" lon="5.93603">
        <ele>914.4</ele>
        <time>2021-10-17T15:26:02Z</time>
      </trkpt>
      <trkpt lat="46.50326" lon="5.93598">
        <ele>914.8</ele>
        <time>2021-10-17T15:26:03Z</time>
      </trkpt>
      <trkpt lat="46.50323" lon="5.93592">
        <ele>914.8</ele>
        <time>2021-10-17T15:26:04Z</time>
      </trkpt>
      <trkpt lat="46.50321" lon="5.93587">
        <ele>915</ele>
        <time>2021-10-17T15:26:05Z</time>
      </trkpt>
      <trkpt lat="46.50318" lon="5.93582">
        <ele>915</ele>
        <time>2021-10-17T15:26:06Z</time>
      </trkpt>
      <trkpt lat="46.50315" lon="5.93578">
        <ele>915.2</ele>
        <time>2021-10-17T15:26:07Z</time>
      </trkpt>
      <trkpt lat="46.50313" lon="5.93573">
        <ele>915.2</ele>
        <time>2021-10-17T15:26:08Z</time>
      </trkpt>
      <trkpt lat="46.5031" lon="5.93568">
        <ele>915.2</ele>
        <time>2021-10-17T15:26:09Z</time>
      </trkpt>
      <trkpt lat="46.50307" lon="5.93563">
        <ele>915.2</ele>
        <time>2021-10-17T15:26:10Z</time>
      </trkpt>
      <trkpt lat="46.50304" lon="5.93558">
        <ele>915.4</ele>
        <time>2021-10-17T15:26:11Z</time>
      </trkpt>
      <trkpt lat="46.50301" lon="5.93553">
        <ele>915.4</ele>
        <time>2021-10-17T15:26:12Z</time>
      </trkpt>
      <trkpt lat="46.50298" lon="5.93548">
        <ele>915.4</ele>
        <time>2021-10-17T15:26:13Z</time>
      </trkpt>
      <trkpt lat="46.50296" lon="5.93543">
        <ele>915.4</ele>
        <time>2021-10-17T15:26:14Z</time>
      </trkpt>
      <trkpt lat="46.50293" lon="5.93537">
        <ele>915.4</ele>
        <time>2021-10-17T15:26:15Z</time>
      </trkpt>
      <trkpt lat="46.50291" lon="5.93532">
        <ele>915.8</ele>
        <time>2021-10-17T15:26:16Z</time>
      </trkpt>
      <trkpt lat="46.50288" lon="5.93527">
        <ele>915.8</ele>
        <time>2021-10-17T15:26:17Z</time>
      </trkpt>
      <trkpt lat="46.50285" lon="5.93522">
        <ele>915.8</ele>
        <time>2021-10-17T15:26:18Z</time>
      </trkpt>
      <trkpt lat="46.50282" lon="5.93517">
        <ele>915.8</ele>
        <time>2021-10-17T15:26:19Z</time>
      </trkpt>
      <trkpt lat="46.5028" lon="5.93513">
        <ele>916</ele>
        <time>2021-10-17T15:26:20Z</time>
      </trkpt>
      <trkpt lat="46.50277" lon="5.93508">
        <ele>916</ele>
        <time>2021-10-17T15:26:21Z</time>
      </trkpt>
      <trkpt lat="46.50275" lon="5.93503">
        <ele>916.2</ele>
        <time>2021-10-17T15:26:22Z</time>
      </trkpt>
      <trkpt lat="46.50272" lon="5.93499">
        <ele>916.2</ele>
        <time>2021-10-17T15:26:23Z</time>
      </trkpt>
      <trkpt lat="46.50269" lon="5.93494">
        <ele>916.2</ele>
        <time>2021-10-17T15:26:24Z</time>
      </trkpt>
      <trkpt lat="46.50267" lon="5.9349">
        <ele>916.2</ele>
        <time>2021-10-17T15:26:25Z</time>
      </trkpt>
      <trkpt lat="46.50264" lon="5.93485">
        <ele>916.4</ele>
        <time>2021-10-17T15:26:26Z</time>
      </trkpt>
      <trkpt lat="46.50261" lon="5.9348">
        <ele>916.4</ele>
        <time>2021-10-17T15:26:27Z</time>
      </trkpt>
      <trkpt lat="46.50259" lon="5.93475">
        <ele>916.4</ele>
        <time>2021-10-17T15:26:28Z</time>
      </trkpt>
      <trkpt lat="46.50256" lon="5.9347">
        <ele>916.4</ele>
        <time>2021-10-17T15:26:29Z</time>
      </trkpt>
      <trkpt lat="46.50253" lon="5.93465">
        <ele>916.4</ele>
        <time>2021-10-17T15:26:30Z</time>
      </trkpt>
      <trkpt lat="46.5025" lon="5.9346">
        <ele>916.8</ele>
        <time>2021-10-17T15:26:31Z</time>
      </trkpt>
      <trkpt lat="46.50247" lon="5.93454">
        <ele>916.8</ele>
        <time>2021-10-17T15:26:32Z</time>
      </trkpt>
      <trkpt lat="46.50245" lon="5.93449">
        <ele>916.8</ele>
        <time>2021-10-17T15:26:33Z</time>
      </trkpt>
      <trkpt lat="46.50242" lon="5.93444">
        <ele>916.8</ele>
        <time>2021-10-17T15:26:34Z</time>
      </trkpt>
      <trkpt lat="46.50239" lon="5.93438">
        <ele>916.8</ele>
        <time>2021-10-17T15:26:35Z</time>
      </trkpt>
      <trkpt lat="46.50236" lon="5.93432">
        <ele>916.8</ele>
        <time>2021-10-17T15:26:36Z</time>
      </trkpt>
      <trkpt lat="46.50233" lon="5.93427">
        <ele>916.8</ele>
        <time>2021-10-17T15:26:37Z</time>
      </trkpt>
      <trkpt lat="46.5023" lon="5.93422">
        <ele>916.8</ele>
        <time>2021-10-17T15:26:38Z</time>
      </trkpt>
      <trkpt lat="46.50227" lon="5.93416">
        <ele>916.8</ele>
        <time>2021-10-17T15:26:39Z</time>
      </trkpt>
      <trkpt lat="46.50223" lon="5.93409">
        <ele>916.8</ele>
        <time>2021-10-17T15:26:40Z</time>
      </trkpt>
      <trkpt lat="46.5022" lon="5.93403">
        <ele>916.8</ele>
        <time>2021-10-17T15:26:41Z</time>
      </trkpt>
      <trkpt lat="46.50216" lon="5.93397">
        <ele>916.8</ele>
        <time>2021-10-17T15:26:42Z</time>
      </trkpt>
      <trkpt lat="46.50212" lon="5.9339">
        <ele>917</ele>
        <time>2021-10-17T15:26:43Z</time>
      </trkpt>
      <trkpt lat="46.50209" lon="5.93383">
        <ele>917</ele>
        <time>2021-10-17T15:26:44Z</time>
      </trkpt>
      <trkpt lat="46.50205" lon="5.93376">
        <ele>917</ele>
        <time>2021-10-17T15:26:45Z</time>
      </trkpt>
      <trkpt lat="46.50201" lon="5.93369">
        <ele>916.8</ele>
        <time>2021-10-17T15:26:46Z</time>
      </trkpt>
      <trkpt lat="46.50198" lon="5.93361">
        <ele>916.8</ele>
        <time>2021-10-17T15:26:47Z</time>
      </trkpt>
      <trkpt lat="46.50193" lon="5.93354">
        <ele>916.4</ele>
        <time>2021-10-17T15:26:48Z</time>
      </trkpt>
      <trkpt lat="46.50189" lon="5.93346">
        <ele>916.4</ele>
        <time>2021-10-17T15:26:49Z</time>
      </trkpt>
      <trkpt lat="46.50185" lon="5.93338">
        <ele>916.4</ele>
        <time>2021-10-17T15:26:50Z</time>
      </trkpt>
      <trkpt lat="46.5018" lon="5.9333">
        <ele>916.2</ele>
        <time>2021-10-17T15:26:51Z</time>
      </trkpt>
      <trkpt lat="46.50176" lon="5.93321">
        <ele>916.2</ele>
        <time>2021-10-17T15:26:52Z</time>
      </trkpt>
      <trkpt lat="46.50172" lon="5.93312">
        <ele>915.8</ele>
        <time>2021-10-17T15:26:53Z</time>
      </trkpt>
      <trkpt lat="46.50167" lon="5.93304">
        <ele>915.6</ele>
        <time>2021-10-17T15:26:54Z</time>
      </trkpt>
      <trkpt lat="46.50163" lon="5.93295">
        <ele>915.2</ele>
        <time>2021-10-17T15:26:55Z</time>
      </trkpt>
      <trkpt lat="46.50159" lon="5.93286">
        <ele>915</ele>
        <time>2021-10-17T15:26:56Z</time>
      </trkpt>
      <trkpt lat="46.50154" lon="5.93276">
        <ele>915</ele>
        <time>2021-10-17T15:26:57Z</time>
      </trkpt>
      <trkpt lat="46.5015" lon="5.93266">
        <ele>914.6</ele>
        <time>2021-10-17T15:26:58Z</time>
      </trkpt>
      <trkpt lat="46.50145" lon="5.93256">
        <ele>914.2</ele>
        <time>2021-10-17T15:26:59Z</time>
      </trkpt>
      <trkpt lat="46.50141" lon="5.93246">
        <ele>914</ele>
        <time>2021-10-17T15:27:00Z</time>
      </trkpt>
      <trkpt lat="46.50136" lon="5.93236">
        <ele>913.6</ele>
        <time>2021-10-17T15:27:01Z</time>
      </trkpt>
      <trkpt lat="46.50131" lon="5.93226">
        <ele>913.4</ele>
        <time>2021-10-17T15:27:02Z</time>
      </trkpt>
      <trkpt lat="46.50126" lon="5.93216">
        <ele>913</ele>
        <time>2021-10-17T15:27:03Z</time>
      </trkpt>
      <trkpt lat="46.50121" lon="5.93205">
        <ele>912.6</ele>
        <time>2021-10-17T15:27:04Z</time>
      </trkpt>
      <trkpt lat="46.50117" lon="5.93194">
        <ele>912.2</ele>
        <time>2021-10-17T15:27:05Z</time>
      </trkpt>
      <trkpt lat="46.50112" lon="5.93183">
        <ele>911.8</ele>
        <time>2021-10-17T15:27:06Z</time>
      </trkpt>
      <trkpt lat="46.50107" lon="5.93172">
        <ele>911.4</ele>
        <time>2021-10-17T15:27:07Z</time>
      </trkpt>
      <trkpt lat="46.50103" lon="5.93161">
        <ele>911.2</ele>
        <time>2021-10-17T15:27:08Z</time>
      </trkpt>
      <trkpt lat="46.50098" lon="5.9315">
        <ele>911</ele>
        <time>2021-10-17T15:27:09Z</time>
      </trkpt>
      <trkpt lat="46.50093" lon="5.9314">
        <ele>911</ele>
        <time>2021-10-17T15:27:10Z</time>
      </trkpt>
      <trkpt lat="46.50089" lon="5.93129">
        <ele>910.8</ele>
        <time>2021-10-17T15:27:11Z</time>
      </trkpt>
      <trkpt lat="46.50084" lon="5.93118">
        <ele>910.8</ele>
        <time>2021-10-17T15:27:12Z</time>
      </trkpt>
      <trkpt lat="46.5008" lon="5.93107">
        <ele>910.4</ele>
        <time>2021-10-17T15:27:13Z</time>
      </trkpt>
      <trkpt lat="46.50075" lon="5.93097">
        <ele>910.4</ele>
        <time>2021-10-17T15:27:14Z</time>
      </trkpt>
      <trkpt lat="46.5007" lon="5.93087">
        <ele>910.2</ele>
        <time>2021-10-17T15:27:15Z</time>
      </trkpt>
      <trkpt lat="46.50066" lon="5.93076">
        <ele>910.2</ele>
        <time>2021-10-17T15:27:16Z</time>
      </trkpt>
      <trkpt lat="46.50061" lon="5.93066">
        <ele>910</ele>
        <time>2021-10-17T15:27:17Z</time>
      </trkpt>
      <trkpt lat="46.50056" lon="5.93056">
        <ele>910</ele>
        <time>2021-10-17T15:27:18Z</time>
      </trkpt>
      <trkpt lat="46.50051" lon="5.93046">
        <ele>909.6</ele>
        <time>2021-10-17T15:27:19Z</time>
      </trkpt>
      <trkpt lat="46.50047" lon="5.93037">
        <ele>909.6</ele>
        <time>2021-10-17T15:27:20Z</time>
      </trkpt>
      <trkpt lat="46.50042" lon="5.93028">
        <ele>909.4</ele>
        <time>2021-10-17T15:27:21Z</time>
      </trkpt>
      <trkpt lat="46.50037" lon="5.93019">
        <ele>909.4</ele>
        <time>2021-10-17T15:27:22Z</time>
      </trkpt>
      <trkpt lat="46.50031" lon="5.9301">
        <ele>909.4</ele>
        <time>2021-10-17T15:27:23Z</time>
      </trkpt>
      <trkpt lat="46.50025" lon="5.93002">
        <ele>909.2</ele>
        <time>2021-10-17T15:27:24Z</time>
      </trkpt>
      <trkpt lat="46.50019" lon="5.92994">
        <ele>909.2</ele>
        <time>2021-10-17T15:27:25Z</time>
      </trkpt>
      <trkpt lat="46.50014" lon="5.92986">
        <ele>909.2</ele>
        <time>2021-10-17T15:27:26Z</time>
      </trkpt>
      <trkpt lat="46.50007" lon="5.92979">
        <ele>909.2</ele>
        <time>2021-10-17T15:27:27Z</time>
      </trkpt>
      <trkpt lat="46.50001" lon="5.92972">
        <ele>909</ele>
        <time>2021-10-17T15:27:28Z</time>
      </trkpt>
      <trkpt lat="46.49994" lon="5.92965">
        <ele>909</ele>
        <time>2021-10-17T15:27:29Z</time>
      </trkpt>
      <trkpt lat="46.49987" lon="5.92959">
        <ele>909</ele>
        <time>2021-10-17T15:27:30Z</time>
      </trkpt>
      <trkpt lat="46.4998" lon="5.92952">
        <ele>908.8</ele>
        <time>2021-10-17T15:27:31Z</time>
      </trkpt>
      <trkpt lat="46.49973" lon="5.92946">
        <ele>908.4</ele>
        <time>2021-10-17T15:27:32Z</time>
      </trkpt>
      <trkpt lat="46.49967" lon="5.92939">
        <ele>908.4</ele>
        <time>2021-10-17T15:27:33Z</time>
      </trkpt>
      <trkpt lat="46.4996" lon="5.92933">
        <ele>908.2</ele>
        <time>2021-10-17T15:27:34Z</time>
      </trkpt>
      <trkpt lat="46.49954" lon="5.92926">
        <ele>908.2</ele>
        <time>2021-10-17T15:27:35Z</time>
      </trkpt>
      <trkpt lat="46.49947" lon="5.9292">
        <ele>908</ele>
        <time>2021-10-17T15:27:36Z</time>
      </trkpt>
      <trkpt lat="46.49941" lon="5.92914">
        <ele>908</ele>
        <time>2021-10-17T15:27:37Z</time>
      </trkpt>
      <trkpt lat="46.49935" lon="5.92907">
        <ele>908</ele>
        <time>2021-10-17T15:27:38Z</time>
      </trkpt>
      <trkpt lat="46.49929" lon="5.92901">
        <ele>908</ele>
        <time>2021-10-17T15:27:39Z</time>
      </trkpt>
      <trkpt lat="46.49923" lon="5.92894">
        <ele>908</ele>
        <time>2021-10-17T15:27:40Z</time>
      </trkpt>
      <trkpt lat="46.49918" lon="5.92886">
        <ele>907.8</ele>
        <time>2021-10-17T15:27:41Z</time>
      </trkpt>
      <trkpt lat="46.49914" lon="5.92878">
        <ele>907.8</ele>
        <time>2021-10-17T15:27:42Z</time>
      </trkpt>
      <trkpt lat="46.49909" lon="5.9287">
        <ele>907.8</ele>
        <time>2021-10-17T15:27:43Z</time>
      </trkpt>
      <trkpt lat="46.49905" lon="5.92862">
        <ele>907.6</ele>
        <time>2021-10-17T15:27:44Z</time>
      </trkpt>
      <trkpt lat="46.499" lon="5.92855">
        <ele>907.6</ele>
        <time>2021-10-17T15:27:45Z</time>
      </trkpt>
      <trkpt lat="46.49896" lon="5.92847">
        <ele>907.6</ele>
        <time>2021-10-17T15:27:46Z</time>
      </trkpt>
      <trkpt lat="46.49892" lon="5.92839">
        <ele>907.2</ele>
        <time>2021-10-17T15:27:47Z</time>
      </trkpt>
      <trkpt lat="46.49887" lon="5.92831">
        <ele>907.2</ele>
        <time>2021-10-17T15:27:48Z</time>
      </trkpt>
      <trkpt lat="46.49883" lon="5.92823">
        <ele>907</ele>
        <time>2021-10-17T15:27:49Z</time>
      </trkpt>
      <trkpt lat="46.49878" lon="5.92815">
        <ele>907</ele>
        <time>2021-10-17T15:27:50Z</time>
      </trkpt>
      <trkpt lat="46.49873" lon="5.92806">
        <ele>906.6</ele>
        <time>2021-10-17T15:27:51Z</time>
      </trkpt>
      <trkpt lat="46.49868" lon="5.92798">
        <ele>906.4</ele>
        <time>2021-10-17T15:27:52Z</time>
      </trkpt>
      <trkpt lat="46.49863" lon="5.92789">
        <ele>906.4</ele>
        <time>2021-10-17T15:27:53Z</time>
      </trkpt>
      <trkpt lat="46.49858" lon="5.9278">
        <ele>906</ele>
        <time>2021-10-17T15:27:54Z</time>
      </trkpt>
      <trkpt lat="46.49852" lon="5.92771">
        <ele>906</ele>
        <time>2021-10-17T15:27:55Z</time>
      </trkpt>
      <trkpt lat="46.49847" lon="5.92763">
        <ele>905.6</ele>
        <time>2021-10-17T15:27:56Z</time>
      </trkpt>
      <trkpt lat="46.49841" lon="5.92754">
        <ele>905.2</ele>
        <time>2021-10-17T15:27:57Z</time>
      </trkpt>
      <trkpt lat="46.49835" lon="5.92745">
        <ele>904.8</ele>
        <time>2021-10-17T15:27:58Z</time>
      </trkpt>
      <trkpt lat="46.49829" lon="5.92736">
        <ele>904.4</ele>
        <time>2021-10-17T15:27:59Z</time>
      </trkpt>
      <trkpt lat="46.49823" lon="5.92727">
        <ele>904</ele>
        <time>2021-10-17T15:28:00Z</time>
      </trkpt>
      <trkpt lat="46.49816" lon="5.92718">
        <ele>903.6</ele>
        <time>2021-10-17T15:28:01Z</time>
      </trkpt>
      <trkpt lat="46.49809" lon="5.92708">
        <ele>903.2</ele>
        <time>2021-10-17T15:28:02Z</time>
      </trkpt>
      <trkpt lat="46.49802" lon="5.92697">
        <ele>902.6</ele>
        <time>2021-10-17T15:28:03Z</time>
      </trkpt>
      <trkpt lat="46.49794" lon="5.92689">
        <ele>902.2</ele>
        <time>2021-10-17T15:28:04Z</time>
      </trkpt>
      <trkpt lat="46.49787" lon="5.92679">
        <ele>901.6</ele>
        <time>2021-10-17T15:28:05Z</time>
      </trkpt>
      <trkpt lat="46.49779" lon="5.92669">
        <ele>901</ele>
        <time>2021-10-17T15:28:06Z</time>
      </trkpt>
      <trkpt lat="46.49771" lon="5.92659">
        <ele>900.4</ele>
        <time>2021-10-17T15:28:07Z</time>
      </trkpt>
      <trkpt lat="46.49763" lon="5.9265">
        <ele>900</ele>
        <time>2021-10-17T15:28:08Z</time>
      </trkpt>
      <trkpt lat="46.49755" lon="5.9264">
        <ele>899.6</ele>
        <time>2021-10-17T15:28:09Z</time>
      </trkpt>
      <trkpt lat="46.49748" lon="5.92631">
        <ele>899.2</ele>
        <time>2021-10-17T15:28:10Z</time>
      </trkpt>
      <trkpt lat="46.4974" lon="5.92622">
        <ele>898.8</ele>
        <time>2021-10-17T15:28:11Z</time>
      </trkpt>
      <trkpt lat="46.49732" lon="5.92612">
        <ele>898.4</ele>
        <time>2021-10-17T15:28:12Z</time>
      </trkpt>
      <trkpt lat="46.49725" lon="5.92603">
        <ele>898</ele>
        <time>2021-10-17T15:28:13Z</time>
      </trkpt>
      <trkpt lat="46.49717" lon="5.92594">
        <ele>897.6</ele>
        <time>2021-10-17T15:28:14Z</time>
      </trkpt>
      <trkpt lat="46.4971" lon="5.92585">
        <ele>897.2</ele>
        <time>2021-10-17T15:28:15Z</time>
      </trkpt>
      <trkpt lat="46.49702" lon="5.92576">
        <ele>896.8</ele>
        <time>2021-10-17T15:28:16Z</time>
      </trkpt>
      <trkpt lat="46.49695" lon="5.92568">
        <ele>896.6</ele>
        <time>2021-10-17T15:28:17Z</time>
      </trkpt>
      <trkpt lat="46.49688" lon="5.92559">
        <ele>896.2</ele>
        <time>2021-10-17T15:28:18Z</time>
      </trkpt>
      <trkpt lat="46.49682" lon="5.92551">
        <ele>896</ele>
        <time>2021-10-17T15:28:19Z</time>
      </trkpt>
      <trkpt lat="46.49675" lon="5.92543">
        <ele>896</ele>
        <time>2021-10-17T15:28:20Z</time>
      </trkpt>
      <trkpt lat="46.49669" lon="5.92535">
        <ele>895.6</ele>
        <time>2021-10-17T15:28:21Z</time>
      </trkpt>
      <trkpt lat="46.49664" lon="5.92527">
        <ele>895.6</ele>
        <time>2021-10-17T15:28:22Z</time>
      </trkpt>
      <trkpt lat="46.49661" lon="5.9252">
        <ele>895.4</ele>
        <time>2021-10-17T15:28:23Z</time>
      </trkpt>
      <trkpt lat="46.49659" lon="5.92512">
        <ele>895.4</ele>
        <time>2021-10-17T15:28:24Z</time>
      </trkpt>
      <trkpt lat="46.4966" lon="5.92503">
        <ele>895</ele>
        <time>2021-10-17T15:28:25Z</time>
      </trkpt>
      <trkpt lat="46.49661" lon="5.92495">
        <ele>895</ele>
        <time>2021-10-17T15:28:26Z</time>
      </trkpt>
      <trkpt lat="46.49663" lon="5.92487">
        <ele>895</ele>
        <time>2021-10-17T15:28:27Z</time>
      </trkpt>
      <trkpt lat="46.49665" lon="5.9248">
        <ele>895.4</ele>
        <time>2021-10-17T15:28:28Z</time>
      </trkpt>
      <trkpt lat="46.49666" lon="5.92472">
        <ele>895.4</ele>
        <time>2021-10-17T15:28:29Z</time>
      </trkpt>
      <trkpt lat="46.49666" lon="5.92465">
        <ele>895.8</ele>
        <time>2021-10-17T15:28:30Z</time>
      </trkpt>
      <trkpt lat="46.49666" lon="5.92459">
        <ele>896</ele>
        <time>2021-10-17T15:28:31Z</time>
      </trkpt>
      <trkpt lat="46.49665" lon="5.92452">
        <ele>896.4</ele>
        <time>2021-10-17T15:28:32Z</time>
      </trkpt>
      <trkpt lat="46.49665" lon="5.92446">
        <ele>896.4</ele>
        <time>2021-10-17T15:28:33Z</time>
      </trkpt>
      <trkpt lat="46.49664" lon="5.9244">
        <ele>896.8</ele>
        <time>2021-10-17T15:28:34Z</time>
      </trkpt>
      <trkpt lat="46.49662" lon="5.92435">
        <ele>897.2</ele>
        <time>2021-10-17T15:28:35Z</time>
      </trkpt>
      <trkpt lat="46.4966" lon="5.9243">
        <ele>897.4</ele>
        <time>2021-10-17T15:28:36Z</time>
      </trkpt>
      <trkpt lat="46.49659" lon="5.92425">
        <ele>897.8</ele>
        <time>2021-10-17T15:28:37Z</time>
      </trkpt>
      <trkpt lat="46.49657" lon="5.92421">
        <ele>898</ele>
        <time>2021-10-17T15:28:38Z</time>
      </trkpt>
      <trkpt lat="46.49656" lon="5.92416">
        <ele>898</ele>
        <time>2021-10-17T15:28:39Z</time>
      </trkpt>
      <trkpt lat="46.49654" lon="5.92412">
        <ele>898.4</ele>
        <time>2021-10-17T15:28:40Z</time>
      </trkpt>
      <trkpt lat="46.49652" lon="5.92407">
        <ele>898.4</ele>
        <time>2021-10-17T15:28:41Z</time>
      </trkpt>
      <trkpt lat="46.4965" lon="5.92403">
        <ele>898.8</ele>
        <time>2021-10-17T15:28:42Z</time>
      </trkpt>
      <trkpt lat="46.49648" lon="5.92399">
        <ele>899</ele>
        <time>2021-10-17T15:28:43Z</time>
      </trkpt>
      <trkpt lat="46.49647" lon="5.92395">
        <ele>899</ele>
        <time>2021-10-17T15:28:44Z</time>
      </trkpt>
      <trkpt lat="46.49645" lon="5.9239">
        <ele>899.4</ele>
        <time>2021-10-17T15:28:45Z</time>
      </trkpt>
      <trkpt lat="46.49644" lon="5.92386">
        <ele>899.6</ele>
        <time>2021-10-17T15:28:46Z</time>
      </trkpt>
      <trkpt lat="46.49643" lon="5.92381">
        <ele>899.6</ele>
        <time>2021-10-17T15:28:47Z</time>
      </trkpt>
      <trkpt lat="46.49641" lon="5.92377">
        <ele>900</ele>
        <time>2021-10-17T15:28:48Z</time>
      </trkpt>
      <trkpt lat="46.4964" lon="5.92372">
        <ele>900</ele>
        <time>2021-10-17T15:28:49Z</time>
      </trkpt>
      <trkpt lat="46.49639" lon="5.92368">
        <ele>900.4</ele>
        <time>2021-10-17T15:28:50Z</time>
      </trkpt>
      <trkpt lat="46.49638" lon="5.92363">
        <ele>900.6</ele>
        <time>2021-10-17T15:28:51Z</time>
      </trkpt>
      <trkpt lat="46.49638" lon="5.92358">
        <ele>900.6</ele>
        <time>2021-10-17T15:28:52Z</time>
      </trkpt>
      <trkpt lat="46.49637" lon="5.92354">
        <ele>901</ele>
        <time>2021-10-17T15:28:53Z</time>
      </trkpt>
      <trkpt lat="46.49636" lon="5.9235">
        <ele>901</ele>
        <time>2021-10-17T15:28:54Z</time>
      </trkpt>
      <trkpt lat="46.49635" lon="5.92346">
        <ele>901.4</ele>
        <time>2021-10-17T15:28:55Z</time>
      </trkpt>
      <trkpt lat="46.49635" lon="5.92341">
        <ele>901.4</ele>
        <time>2021-10-17T15:28:56Z</time>
      </trkpt>
      <trkpt lat="46.49634" lon="5.92338">
        <ele>901.6</ele>
        <time>2021-10-17T15:28:57Z</time>
      </trkpt>
      <trkpt lat="46.49634" lon="5.92333">
        <ele>901.6</ele>
        <time>2021-10-17T15:28:58Z</time>
      </trkpt>
      <trkpt lat="46.49633" lon="5.92328">
        <ele>902</ele>
        <time>2021-10-17T15:28:59Z</time>
      </trkpt>
      <trkpt lat="46.49632" lon="5.92324">
        <ele>902</ele>
        <time>2021-10-17T15:29:00Z</time>
      </trkpt>
      <trkpt lat="46.49632" lon="5.9232">
        <ele>902.2</ele>
        <time>2021-10-17T15:29:01Z</time>
      </trkpt>
      <trkpt lat="46.49631" lon="5.92315">
        <ele>902.2</ele>
        <time>2021-10-17T15:29:02Z</time>
      </trkpt>
      <trkpt lat="46.4963" lon="5.92311">
        <ele>902.4</ele>
        <time>2021-10-17T15:29:03Z</time>
      </trkpt>
      <trkpt lat="46.4963" lon="5.92306">
        <ele>902.4</ele>
        <time>2021-10-17T15:29:04Z</time>
      </trkpt>
      <trkpt lat="46.4963" lon="5.92302">
        <ele>902.8</ele>
        <time>2021-10-17T15:29:05Z</time>
      </trkpt>
      <trkpt lat="46.49629" lon="5.92296">
        <ele>902.8</ele>
        <time>2021-10-17T15:29:06Z</time>
      </trkpt>
      <trkpt lat="46.49629" lon="5.92291">
        <ele>903</ele>
        <time>2021-10-17T15:29:07Z</time>
      </trkpt>
      <trkpt lat="46.49628" lon="5.92287">
        <ele>903</ele>
        <time>2021-10-17T15:29:08Z</time>
      </trkpt>
      <trkpt lat="46.49627" lon="5.92282">
        <ele>903.4</ele>
        <time>2021-10-17T15:29:09Z</time>
      </trkpt>
      <trkpt lat="46.49627" lon="5.92277">
        <ele>903.4</ele>
        <time>2021-10-17T15:29:10Z</time>
      </trkpt>
      <trkpt lat="46.49626" lon="5.92272">
        <ele>903.6</ele>
        <time>2021-10-17T15:29:11Z</time>
      </trkpt>
      <trkpt lat="46.49625" lon="5.92267">
        <ele>903.6</ele>
        <time>2021-10-17T15:29:12Z</time>
      </trkpt>
      <trkpt lat="46.49624" lon="5.92261">
        <ele>904</ele>
        <time>2021-10-17T15:29:13Z</time>
      </trkpt>
      <trkpt lat="46.49624" lon="5.92256">
        <ele>904</ele>
        <time>2021-10-17T15:29:14Z</time>
      </trkpt>
      <trkpt lat="46.49624" lon="5.9225">
        <ele>904</ele>
        <time>2021-10-17T15:29:15Z</time>
      </trkpt>
      <trkpt lat="46.49624" lon="5.92244">
        <ele>904.4</ele>
        <time>2021-10-17T15:29:16Z</time>
      </trkpt>
      <trkpt lat="46.49623" lon="5.92238">
        <ele>904.4</ele>
        <time>2021-10-17T15:29:17Z</time>
      </trkpt>
      <trkpt lat="46.49623" lon="5.92232">
        <ele>904.6</ele>
        <time>2021-10-17T15:29:18Z</time>
      </trkpt>
      <trkpt lat="46.49624" lon="5.92226">
        <ele>904.6</ele>
        <time>2021-10-17T15:29:19Z</time>
      </trkpt>
      <trkpt lat="46.49624" lon="5.92221">
        <ele>905</ele>
        <time>2021-10-17T15:29:20Z</time>
      </trkpt>
      <trkpt lat="46.49624" lon="5.92215">
        <ele>905</ele>
        <time>2021-10-17T15:29:21Z</time>
      </trkpt>
      <trkpt lat="46.49625" lon="5.9221">
        <ele>905.2</ele>
        <time>2021-10-17T15:29:22Z</time>
      </trkpt>
      <trkpt lat="46.49625" lon="5.92205">
        <ele>905.2</ele>
        <time>2021-10-17T15:29:23Z</time>
      </trkpt>
      <trkpt lat="46.49626" lon="5.922">
        <ele>905.6</ele>
        <time>2021-10-17T15:29:24Z</time>
      </trkpt>
      <trkpt lat="46.49627" lon="5.92195">
        <ele>905.6</ele>
        <time>2021-10-17T15:29:25Z</time>
      </trkpt>
      <trkpt lat="46.49628" lon="5.92191">
        <ele>905.8</ele>
        <time>2021-10-17T15:29:26Z</time>
      </trkpt>
      <trkpt lat="46.4963" lon="5.92186">
        <ele>905.8</ele>
        <time>2021-10-17T15:29:27Z</time>
      </trkpt>
      <trkpt lat="46.49631" lon="5.92182">
        <ele>906</ele>
        <time>2021-10-17T15:29:28Z</time>
      </trkpt>
      <trkpt lat="46.49632" lon="5.92177">
        <ele>906.2</ele>
        <time>2021-10-17T15:29:29Z</time>
      </trkpt>
      <trkpt lat="46.49633" lon="5.92173">
        <ele>906.4</ele>
        <time>2021-10-17T15:29:30Z</time>
      </trkpt>
      <trkpt lat="46.49635" lon="5.92169">
        <ele>906.4</ele>
        <time>2021-10-17T15:29:31Z</time>
      </trkpt>
      <trkpt lat="46.49637" lon="5.92165">
        <ele>907</ele>
        <time>2021-10-17T15:29:32Z</time>
      </trkpt>
      <trkpt lat="46.49638" lon="5.92161">
        <ele>907.2</ele>
        <time>2021-10-17T15:29:33Z</time>
      </trkpt>
      <trkpt lat="46.4964" lon="5.92156">
        <ele>907.4</ele>
        <time>2021-10-17T15:29:34Z</time>
      </trkpt>
      <trkpt lat="46.49642" lon="5.92152">
        <ele>907.6</ele>
        <time>2021-10-17T15:29:35Z</time>
      </trkpt>
      <trkpt lat="46.49644" lon="5.92148">
        <ele>907.8</ele>
        <time>2021-10-17T15:29:36Z</time>
      </trkpt>
      <trkpt lat="46.49646" lon="5.92144">
        <ele>908</ele>
        <time>2021-10-17T15:29:37Z</time>
      </trkpt>
      <trkpt lat="46.49648" lon="5.9214">
        <ele>908</ele>
        <time>2021-10-17T15:29:38Z</time>
      </trkpt>
      <trkpt lat="46.4965" lon="5.92137">
        <ele>908.4</ele>
        <time>2021-10-17T15:29:39Z</time>
      </trkpt>
      <trkpt lat="46.49653" lon="5.92133">
        <ele>908.4</ele>
        <time>2021-10-17T15:29:40Z</time>
      </trkpt>
      <trkpt lat="46.49655" lon="5.9213">
        <ele>908.8</ele>
        <time>2021-10-17T15:29:41Z</time>
      </trkpt>
      <trkpt lat="46.49657" lon="5.92126">
        <ele>908.8</ele>
        <time>2021-10-17T15:29:42Z</time>
      </trkpt>
      <trkpt lat="46.49659" lon="5.92123">
        <ele>909</ele>
        <time>2021-10-17T15:29:43Z</time>
      </trkpt>
      <trkpt lat="46.49661" lon="5.92119">
        <ele>909</ele>
        <time>2021-10-17T15:29:44Z</time>
      </trkpt>
      <trkpt lat="46.49663" lon="5.92115">
        <ele>909.2</ele>
        <time>2021-10-17T15:29:45Z</time>
      </trkpt>
      <trkpt lat="46.49665" lon="5.92111">
        <ele>909.2</ele>
        <time>2021-10-17T15:29:46Z</time>
      </trkpt>
      <trkpt lat="46.49667" lon="5.92107">
        <ele>909.2</ele>
        <time>2021-10-17T15:29:47Z</time>
      </trkpt>
      <trkpt lat="46.49669" lon="5.92103">
        <ele>909.6</ele>
        <time>2021-10-17T15:29:48Z</time>
      </trkpt>
      <trkpt lat="46.49672" lon="5.921">
        <ele>909.6</ele>
        <time>2021-10-17T15:29:49Z</time>
      </trkpt>
      <trkpt lat="46.49674" lon="5.92096">
        <ele>909.8</ele>
        <time>2021-10-17T15:29:50Z</time>
      </trkpt>
      <trkpt lat="46.49677" lon="5.92092">
        <ele>909.8</ele>
        <time>2021-10-17T15:29:51Z</time>
      </trkpt>
      <trkpt lat="46.49679" lon="5.92087">
        <ele>910</ele>
        <time>2021-10-17T15:29:52Z</time>
      </trkpt>
      <trkpt lat="46.49682" lon="5.92083">
        <ele>910</ele>
        <time>2021-10-17T15:29:53Z</time>
      </trkpt>
      <trkpt lat="46.49684" lon="5.92079">
        <ele>910</ele>
        <time>2021-10-17T15:29:54Z</time>
      </trkpt>
      <trkpt lat="46.49687" lon="5.92075">
        <ele>910.2</ele>
        <time>2021-10-17T15:29:55Z</time>
      </trkpt>
      <trkpt lat="46.4969" lon="5.92071">
        <ele>910.2</ele>
        <time>2021-10-17T15:29:56Z</time>
      </trkpt>
      <trkpt lat="46.49694" lon="5.92067">
        <ele>910.2</ele>
        <time>2021-10-17T15:29:57Z</time>
      </trkpt>
      <trkpt lat="46.49697" lon="5.92063">
        <ele>910.2</ele>
        <time>2021-10-17T15:29:58Z</time>
      </trkpt>
      <trkpt lat="46.497" lon="5.92059">
        <ele>910.2</ele>
        <time>2021-10-17T15:29:59Z</time>
      </trkpt>
      <trkpt lat="46.49703" lon="5.92056">
        <ele>910.2</ele>
        <time>2021-10-17T15:30:00Z</time>
      </trkpt>
      <trkpt lat="46.49707" lon="5.92052">
        <ele>910.4</ele>
        <time>2021-10-17T15:30:01Z</time>
      </trkpt>
      <trkpt lat="46.49711" lon="5.92048">
        <ele>910.4</ele>
        <time>2021-10-17T15:30:02Z</time>
      </trkpt>
      <trkpt lat="46.49715" lon="5.92044">
        <ele>910.4</ele>
        <time>2021-10-17T15:30:03Z</time>
      </trkpt>
      <trkpt lat="46.49719" lon="5.92041">
        <ele>910.4</ele>
        <time>2021-10-17T15:30:04Z</time>
      </trkpt>
      <trkpt lat="46.49724" lon="5.92038">
        <ele>910.4</ele>
        <time>2021-10-17T15:30:05Z</time>
      </trkpt>
      <trkpt lat="46.49728" lon="5.92035">
        <ele>910.4</ele>
        <time>2021-10-17T15:30:06Z</time>
      </trkpt>
      <trkpt lat="46.49732" lon="5.92032">
        <ele>910.4</ele>
        <time>2021-10-17T15:30:07Z</time>
      </trkpt>
      <trkpt lat="46.49736" lon="5.92029">
        <ele>910.4</ele>
        <time>2021-10-17T15:30:08Z</time>
      </trkpt>
      <trkpt lat="46.4974" lon="5.92025">
        <ele>910.4</ele>
        <time>2021-10-17T15:30:09Z</time>
      </trkpt>
      <trkpt lat="46.49745" lon="5.92022">
        <ele>910.4</ele>
        <time>2021-10-17T15:30:10Z</time>
      </trkpt>
      <trkpt lat="46.49749" lon="5.92018">
        <ele>910.6</ele>
        <time>2021-10-17T15:30:11Z</time>
      </trkpt>
      <trkpt lat="46.49754" lon="5.92015">
        <ele>910.6</ele>
        <time>2021-10-17T15:30:12Z</time>
      </trkpt>
      <trkpt lat="46.49758" lon="5.92011">
        <ele>910.6</ele>
        <time>2021-10-17T15:30:13Z</time>
      </trkpt>
      <trkpt lat="46.49762" lon="5.92007">
        <ele>910.6</ele>
        <time>2021-10-17T15:30:14Z</time>
      </trkpt>
      <trkpt lat="46.49766" lon="5.92003">
        <ele>910.6</ele>
        <time>2021-10-17T15:30:15Z</time>
      </trkpt>
      <trkpt lat="46.49771" lon="5.91999">
        <ele>910.6</ele>
        <time>2021-10-17T15:30:16Z</time>
      </trkpt>
      <trkpt lat="46.49775" lon="5.91996">
        <ele>910.6</ele>
        <time>2021-10-17T15:30:17Z</time>
      </trkpt>
      <trkpt lat="46.4978" lon="5.91992">
        <ele>910.6</ele>
        <time>2021-10-17T15:30:18Z</time>
      </trkpt>
      <trkpt lat="46.49784" lon="5.91988">
        <ele>910.6</ele>
        <time>2021-10-17T15:30:19Z</time>
      </trkpt>
      <trkpt lat="46.49789" lon="5.91984">
        <ele>910.6</ele>
        <time>2021-10-17T15:30:20Z</time>
      </trkpt>
      <trkpt lat="46.49794" lon="5.9198">
        <ele>910.6</ele>
        <time>2021-10-17T15:30:21Z</time>
      </trkpt>
      <trkpt lat="46.49799" lon="5.91976">
        <ele>910.6</ele>
        <time>2021-10-17T15:30:22Z</time>
      </trkpt>
      <trkpt lat="46.49803" lon="5.91972">
        <ele>910.6</ele>
        <time>2021-10-17T15:30:23Z</time>
      </trkpt>
      <trkpt lat="46.49808" lon="5.91968">
        <ele>911</ele>
        <time>2021-10-17T15:30:24Z</time>
      </trkpt>
      <trkpt lat="46.49813" lon="5.91965">
        <ele>911</ele>
        <time>2021-10-17T15:30:25Z</time>
      </trkpt>
      <trkpt lat="46.49818" lon="5.91961">
        <ele>911</ele>
        <time>2021-10-17T15:30:26Z</time>
      </trkpt>
      <trkpt lat="46.49823" lon="5.91958">
        <ele>911</ele>
        <time>2021-10-17T15:30:27Z</time>
      </trkpt>
      <trkpt lat="46.49828" lon="5.91954">
        <ele>911</ele>
        <time>2021-10-17T15:30:28Z</time>
      </trkpt>
      <trkpt lat="46.49833" lon="5.9195">
        <ele>911</ele>
        <time>2021-10-17T15:30:29Z</time>
      </trkpt>
      <trkpt lat="46.49838" lon="5.91946">
        <ele>911</ele>
        <time>2021-10-17T15:30:30Z</time>
      </trkpt>
      <trkpt lat="46.49843" lon="5.91943">
        <ele>911</ele>
        <time>2021-10-17T15:30:31Z</time>
      </trkpt>
      <trkpt lat="46.49849" lon="5.91939">
        <ele>911</ele>
        <time>2021-10-17T15:30:32Z</time>
      </trkpt>
      <trkpt lat="46.49854" lon="5.91936">
        <ele>911</ele>
        <time>2021-10-17T15:30:33Z</time>
      </trkpt>
      <trkpt lat="46.49859" lon="5.91933">
        <ele>911</ele>
        <time>2021-10-17T15:30:34Z</time>
      </trkpt>
      <trkpt lat="46.49864" lon="5.91929">
        <ele>911</ele>
        <time>2021-10-17T15:30:35Z</time>
      </trkpt>
      <trkpt lat="46.49869" lon="5.91926">
        <ele>911</ele>
        <time>2021-10-17T15:30:36Z</time>
      </trkpt>
      <trkpt lat="46.49874" lon="5.91921">
        <ele>911.2</ele>
        <time>2021-10-17T15:30:37Z</time>
      </trkpt>
      <trkpt lat="46.49879" lon="5.91918">
        <ele>911.2</ele>
        <time>2021-10-17T15:30:38Z</time>
      </trkpt>
      <trkpt lat="46.49883" lon="5.91915">
        <ele>911.4</ele>
        <time>2021-10-17T15:30:39Z</time>
      </trkpt>
      <trkpt lat="46.49888" lon="5.91911">
        <ele>911.4</ele>
        <time>2021-10-17T15:30:40Z</time>
      </trkpt>
      <trkpt lat="46.49893" lon="5.91908">
        <ele>911.4</ele>
        <time>2021-10-17T15:30:41Z</time>
      </trkpt>
      <trkpt lat="46.49897" lon="5.91904">
        <ele>911.6</ele>
        <time>2021-10-17T15:30:42Z</time>
      </trkpt>
      <trkpt lat="46.49902" lon="5.919">
        <ele>911.6</ele>
        <time>2021-10-17T15:30:43Z</time>
      </trkpt>
      <trkpt lat="46.49906" lon="5.91896">
        <ele>912</ele>
        <time>2021-10-17T15:30:44Z</time>
      </trkpt>
      <trkpt lat="46.4991" lon="5.91893">
        <ele>912</ele>
        <time>2021-10-17T15:30:45Z</time>
      </trkpt>
      <trkpt lat="46.49915" lon="5.91889">
        <ele>912.2</ele>
        <time>2021-10-17T15:30:46Z</time>
      </trkpt>
      <trkpt lat="46.49919" lon="5.91886">
        <ele>912.2</ele>
        <time>2021-10-17T15:30:47Z</time>
      </trkpt>
      <trkpt lat="46.49923" lon="5.91882">
        <ele>912.6</ele>
        <time>2021-10-17T15:30:48Z</time>
      </trkpt>
      <trkpt lat="46.49926" lon="5.91878">
        <ele>912.6</ele>
        <time>2021-10-17T15:30:49Z</time>
      </trkpt>
      <trkpt lat="46.4993" lon="5.91874">
        <ele>912.8</ele>
        <time>2021-10-17T15:30:50Z</time>
      </trkpt>
      <trkpt lat="46.49934" lon="5.9187">
        <ele>912.8</ele>
        <time>2021-10-17T15:30:51Z</time>
      </trkpt>
      <trkpt lat="46.49937" lon="5.91866">
        <ele>912.8</ele>
        <time>2021-10-17T15:30:52Z</time>
      </trkpt>
      <trkpt lat="46.4994" lon="5.91862">
        <ele>913</ele>
        <time>2021-10-17T15:30:53Z</time>
      </trkpt>
      <trkpt lat="46.49944" lon="5.91858">
        <ele>913</ele>
        <time>2021-10-17T15:30:54Z</time>
      </trkpt>
      <trkpt lat="46.49947" lon="5.91853">
        <ele>913.4</ele>
        <time>2021-10-17T15:30:55Z</time>
      </trkpt>
      <trkpt lat="46.49951" lon="5.91849">
        <ele>913.4</ele>
        <time>2021-10-17T15:30:56Z</time>
      </trkpt>
      <trkpt lat="46.49954" lon="5.91845">
        <ele>913.4</ele>
        <time>2021-10-17T15:30:57Z</time>
      </trkpt>
      <trkpt lat="46.49957" lon="5.9184">
        <ele>913.4</ele>
        <time>2021-10-17T15:30:58Z</time>
      </trkpt>
      <trkpt lat="46.49961" lon="5.91835">
        <ele>913.4</ele>
        <time>2021-10-17T15:30:59Z</time>
      </trkpt>
      <trkpt lat="46.49964" lon="5.9183">
        <ele>913.6</ele>
        <time>2021-10-17T15:31:00Z</time>
      </trkpt>
      <trkpt lat="46.49968" lon="5.91825">
        <ele>913.6</ele>
        <time>2021-10-17T15:31:01Z</time>
      </trkpt>
      <trkpt lat="46.49971" lon="5.9182">
        <ele>913.6</ele>
        <time>2021-10-17T15:31:02Z</time>
      </trkpt>
      <trkpt lat="46.49975" lon="5.91815">
        <ele>913.6</ele>
        <time>2021-10-17T15:31:03Z</time>
      </trkpt>
      <trkpt lat="46.49979" lon="5.9181">
        <ele>913.6</ele>
        <time>2021-10-17T15:31:04Z</time>
      </trkpt>
      <trkpt lat="46.49982" lon="5.91804">
        <ele>913.6</ele>
        <time>2021-10-17T15:31:05Z</time>
      </trkpt>
      <trkpt lat="46.49986" lon="5.91799">
        <ele>913.8</ele>
        <time>2021-10-17T15:31:06Z</time>
      </trkpt>
      <trkpt lat="46.4999" lon="5.91794">
        <ele>913.8</ele>
        <time>2021-10-17T15:31:07Z</time>
      </trkpt>
      <trkpt lat="46.49994" lon="5.91789">
        <ele>913.8</ele>
        <time>2021-10-17T15:31:08Z</time>
      </trkpt>
      <trkpt lat="46.49997" lon="5.91784">
        <ele>914</ele>
        <time>2021-10-17T15:31:09Z</time>
      </trkpt>
      <trkpt lat="46.50001" lon="5.91779">
        <ele>914</ele>
        <time>2021-10-17T15:31:10Z</time>
      </trkpt>
      <trkpt lat="46.50005" lon="5.91774">
        <ele>914.2</ele>
        <time>2021-10-17T15:31:11Z</time>
      </trkpt>
      <trkpt lat="46.50009" lon="5.91769">
        <ele>914.2</ele>
        <time>2021-10-17T15:31:12Z</time>
      </trkpt>
      <trkpt lat="46.50013" lon="5.91764">
        <ele>914.4</ele>
        <time>2021-10-17T15:31:13Z</time>
      </trkpt>
      <trkpt lat="46.50017" lon="5.9176">
        <ele>914.4</ele>
        <time>2021-10-17T15:31:14Z</time>
      </trkpt>
      <trkpt lat="46.50021" lon="5.91755">
        <ele>914.4</ele>
        <time>2021-10-17T15:31:15Z</time>
      </trkpt>
      <trkpt lat="46.50025" lon="5.91751">
        <ele>914.4</ele>
        <time>2021-10-17T15:31:16Z</time>
      </trkpt>
      <trkpt lat="46.5003" lon="5.91746">
        <ele>914.4</ele>
        <time>2021-10-17T15:31:17Z</time>
      </trkpt>
      <trkpt lat="46.50034" lon="5.91742">
        <ele>914.4</ele>
        <time>2021-10-17T15:31:18Z</time>
      </trkpt>
      <trkpt lat="46.50038" lon="5.91738">
        <ele>914.4</ele>
        <time>2021-10-17T15:31:19Z</time>
      </trkpt>
      <trkpt lat="46.50043" lon="5.91733">
        <ele>914.4</ele>
        <time>2021-10-17T15:31:20Z</time>
      </trkpt>
      <trkpt lat="46.50047" lon="5.91728">
        <ele>914.4</ele>
        <time>2021-10-17T15:31:21Z</time>
      </trkpt>
      <trkpt lat="46.50052" lon="5.91723">
        <ele>914.4</ele>
        <time>2021-10-17T15:31:22Z</time>
      </trkpt>
      <trkpt lat="46.50056" lon="5.91718">
        <ele>914.4</ele>
        <time>2021-10-17T15:31:23Z</time>
      </trkpt>
      <trkpt lat="46.50061" lon="5.91713">
        <ele>914.4</ele>
        <time>2021-10-17T15:31:24Z</time>
      </trkpt>
      <trkpt lat="46.50065" lon="5.91708">
        <ele>914.4</ele>
        <time>2021-10-17T15:31:25Z</time>
      </trkpt>
      <trkpt lat="46.50069" lon="5.91702">
        <ele>914.4</ele>
        <time>2021-10-17T15:31:26Z</time>
      </trkpt>
      <trkpt lat="46.50073" lon="5.91696">
        <ele>914.4</ele>
        <time>2021-10-17T15:31:27Z</time>
      </trkpt>
      <trkpt lat="46.50077" lon="5.91689">
        <ele>914.4</ele>
        <time>2021-10-17T15:31:28Z</time>
      </trkpt>
      <trkpt lat="46.5008" lon="5.91682">
        <ele>914.4</ele>
        <time>2021-10-17T15:31:29Z</time>
      </trkpt>
      <trkpt lat="46.50082" lon="5.91675">
        <ele>914.4</ele>
        <time>2021-10-17T15:31:30Z</time>
      </trkpt>
      <trkpt lat="46.50085" lon="5.91667">
        <ele>914.4</ele>
        <time>2021-10-17T15:31:31Z</time>
      </trkpt>
      <trkpt lat="46.50087" lon="5.91659">
        <ele>914.4</ele>
        <time>2021-10-17T15:31:32Z</time>
      </trkpt>
      <trkpt lat="46.50089" lon="5.91651">
        <ele>914.6</ele>
        <time>2021-10-17T15:31:33Z</time>
      </trkpt>
      <trkpt lat="46.5009" lon="5.91644">
        <ele>914.6</ele>
        <time>2021-10-17T15:31:34Z</time>
      </trkpt>
      <trkpt lat="46.50091" lon="5.91636">
        <ele>915</ele>
        <time>2021-10-17T15:31:35Z</time>
      </trkpt>
      <trkpt lat="46.50091" lon="5.91628">
        <ele>915</ele>
        <time>2021-10-17T15:31:36Z</time>
      </trkpt>
      <trkpt lat="46.50091" lon="5.91621">
        <ele>915</ele>
        <time>2021-10-17T15:31:37Z</time>
      </trkpt>
      <trkpt lat="46.50091" lon="5.91614">
        <ele>915.2</ele>
        <time>2021-10-17T15:31:38Z</time>
      </trkpt>
      <trkpt lat="46.50091" lon="5.91607">
        <ele>915.2</ele>
        <time>2021-10-17T15:31:39Z</time>
      </trkpt>
      <trkpt lat="46.5009" lon="5.916">
        <ele>915.2</ele>
        <time>2021-10-17T15:31:40Z</time>
      </trkpt>
      <trkpt lat="46.5009" lon="5.91593">
        <ele>915.4</ele>
        <time>2021-10-17T15:31:41Z</time>
      </trkpt>
      <trkpt lat="46.50088" lon="5.91585">
        <ele>915.4</ele>
        <time>2021-10-17T15:31:42Z</time>
      </trkpt>
      <trkpt lat="46.50087" lon="5.91577">
        <ele>915.4</ele>
        <time>2021-10-17T15:31:43Z</time>
      </trkpt>
      <trkpt lat="46.50086" lon="5.9157">
        <ele>915.4</ele>
        <time>2021-10-17T15:31:44Z</time>
      </trkpt>
      <trkpt lat="46.50086" lon="5.91562">
        <ele>915.4</ele>
        <time>2021-10-17T15:31:45Z</time>
      </trkpt>
      <trkpt lat="46.50085" lon="5.91554">
        <ele>915.4</ele>
        <time>2021-10-17T15:31:46Z</time>
      </trkpt>
      <trkpt lat="46.50084" lon="5.91547">
        <ele>915.4</ele>
        <time>2021-10-17T15:31:47Z</time>
      </trkpt>
      <trkpt lat="46.50083" lon="5.91539">
        <ele>915.4</ele>
        <time>2021-10-17T15:31:48Z</time>
      </trkpt>
      <trkpt lat="46.50081" lon="5.91531">
        <ele>915.4</ele>
        <time>2021-10-17T15:31:49Z</time>
      </trkpt>
      <trkpt lat="46.5008" lon="5.91523">
        <ele>915.4</ele>
        <time>2021-10-17T15:31:50Z</time>
      </trkpt>
      <trkpt lat="46.50078" lon="5.91515">
        <ele>915.4</ele>
        <time>2021-10-17T15:31:51Z</time>
      </trkpt>
      <trkpt lat="46.50076" lon="5.91507">
        <ele>915.4</ele>
        <time>2021-10-17T15:31:52Z</time>
      </trkpt>
      <trkpt lat="46.50075" lon="5.91499">
        <ele>915.4</ele>
        <time>2021-10-17T15:31:53Z</time>
      </trkpt>
      <trkpt lat="46.50073" lon="5.91492">
        <ele>915.4</ele>
        <time>2021-10-17T15:31:54Z</time>
      </trkpt>
      <trkpt lat="46.50072" lon="5.91483">
        <ele>915.2</ele>
        <time>2021-10-17T15:31:55Z</time>
      </trkpt>
      <trkpt lat="46.5007" lon="5.91475">
        <ele>915.2</ele>
        <time>2021-10-17T15:31:56Z</time>
      </trkpt>
      <trkpt lat="46.50069" lon="5.91466">
        <ele>915.2</ele>
        <time>2021-10-17T15:31:57Z</time>
      </trkpt>
      <trkpt lat="46.50067" lon="5.91457">
        <ele>915.2</ele>
        <time>2021-10-17T15:31:58Z</time>
      </trkpt>
      <trkpt lat="46.50065" lon="5.91448">
        <ele>915.2</ele>
        <time>2021-10-17T15:31:59Z</time>
      </trkpt>
      <trkpt lat="46.50063" lon="5.91439">
        <ele>915</ele>
        <time>2021-10-17T15:32:00Z</time>
      </trkpt>
      <trkpt lat="46.50062" lon="5.9143">
        <ele>915</ele>
        <time>2021-10-17T15:32:01Z</time>
      </trkpt>
      <trkpt lat="46.5006" lon="5.91421">
        <ele>915</ele>
        <time>2021-10-17T15:32:02Z</time>
      </trkpt>
      <trkpt lat="46.50059" lon="5.91412">
        <ele>915</ele>
        <time>2021-10-17T15:32:03Z</time>
      </trkpt>
      <trkpt lat="46.50056" lon="5.91403">
        <ele>914.6</ele>
        <time>2021-10-17T15:32:04Z</time>
      </trkpt>
      <trkpt lat="46.50054" lon="5.91394">
        <ele>914.6</ele>
        <time>2021-10-17T15:32:05Z</time>
      </trkpt>
      <trkpt lat="46.50052" lon="5.91385">
        <ele>914.6</ele>
        <time>2021-10-17T15:32:06Z</time>
      </trkpt>
      <trkpt lat="46.5005" lon="5.91376">
        <ele>914.6</ele>
        <time>2021-10-17T15:32:07Z</time>
      </trkpt>
      <trkpt lat="46.50048" lon="5.91367">
        <ele>914.6</ele>
        <time>2021-10-17T15:32:08Z</time>
      </trkpt>
      <trkpt lat="46.50046" lon="5.91359">
        <ele>914.6</ele>
        <time>2021-10-17T15:32:09Z</time>
      </trkpt>
      <trkpt lat="46.50044" lon="5.9135">
        <ele>914.6</ele>
        <time>2021-10-17T15:32:10Z</time>
      </trkpt>
      <trkpt lat="46.50042" lon="5.91342">
        <ele>914.6</ele>
        <time>2021-10-17T15:32:11Z</time>
      </trkpt>
      <trkpt lat="46.5004" lon="5.91333">
        <ele>914.6</ele>
        <time>2021-10-17T15:32:12Z</time>
      </trkpt>
      <trkpt lat="46.50039" lon="5.91325">
        <ele>914.8</ele>
        <time>2021-10-17T15:32:13Z</time>
      </trkpt>
      <trkpt lat="46.50037" lon="5.91317">
        <ele>914.8</ele>
        <time>2021-10-17T15:32:14Z</time>
      </trkpt>
      <trkpt lat="46.50035" lon="5.91309">
        <ele>914.8</ele>
        <time>2021-10-17T15:32:15Z</time>
      </trkpt>
      <trkpt lat="46.50033" lon="5.91301">
        <ele>914.8</ele>
        <time>2021-10-17T15:32:16Z</time>
      </trkpt>
      <trkpt lat="46.50032" lon="5.91293">
        <ele>914.8</ele>
        <time>2021-10-17T15:32:17Z</time>
      </trkpt>
      <trkpt lat="46.50031" lon="5.91285">
        <ele>915.2</ele>
        <time>2021-10-17T15:32:18Z</time>
      </trkpt>
      <trkpt lat="46.5003" lon="5.91276">
        <ele>915.2</ele>
        <time>2021-10-17T15:32:19Z</time>
      </trkpt>
      <trkpt lat="46.5003" lon="5.91268">
        <ele>915.2</ele>
        <time>2021-10-17T15:32:20Z</time>
      </trkpt>
      <trkpt lat="46.5003" lon="5.91259">
        <ele>915.4</ele>
        <time>2021-10-17T15:32:21Z</time>
      </trkpt>
      <trkpt lat="46.5003" lon="5.9125">
        <ele>915.4</ele>
        <time>2021-10-17T15:32:22Z</time>
      </trkpt>
      <trkpt lat="46.50031" lon="5.91242">
        <ele>915.6</ele>
        <time>2021-10-17T15:32:23Z</time>
      </trkpt>
      <trkpt lat="46.50032" lon="5.91233">
        <ele>915.6</ele>
        <time>2021-10-17T15:32:24Z</time>
      </trkpt>
      <trkpt lat="46.50033" lon="5.91224">
        <ele>915.8</ele>
        <time>2021-10-17T15:32:25Z</time>
      </trkpt>
      <trkpt lat="46.50035" lon="5.91215">
        <ele>915.8</ele>
        <time>2021-10-17T15:32:26Z</time>
      </trkpt>
      <trkpt lat="46.50036" lon="5.91207">
        <ele>915.8</ele>
        <time>2021-10-17T15:32:27Z</time>
      </trkpt>
      <trkpt lat="46.50038" lon="5.91198">
        <ele>915.8</ele>
        <time>2021-10-17T15:32:28Z</time>
      </trkpt>
      <trkpt lat="46.5004" lon="5.9119">
        <ele>915.8</ele>
        <time>2021-10-17T15:32:29Z</time>
      </trkpt>
      <trkpt lat="46.50043" lon="5.91181">
        <ele>915.8</ele>
        <time>2021-10-17T15:32:30Z</time>
      </trkpt>
      <trkpt lat="46.50045" lon="5.91173">
        <ele>915.8</ele>
        <time>2021-10-17T15:32:31Z</time>
      </trkpt>
      <trkpt lat="46.50048" lon="5.91164">
        <ele>915.8</ele>
        <time>2021-10-17T15:32:32Z</time>
      </trkpt>
      <trkpt lat="46.50051" lon="5.91156">
        <ele>915.8</ele>
        <time>2021-10-17T15:32:33Z</time>
      </trkpt>
      <trkpt lat="46.50055" lon="5.91149">
        <ele>915.8</ele>
        <time>2021-10-17T15:32:34Z</time>
      </trkpt>
      <trkpt lat="46.50058" lon="5.91141">
        <ele>915.8</ele>
        <time>2021-10-17T15:32:35Z</time>
      </trkpt>
      <trkpt lat="46.50062" lon="5.91134">
        <ele>915.8</ele>
        <time>2021-10-17T15:32:36Z</time>
      </trkpt>
      <trkpt lat="46.50065" lon="5.91127">
        <ele>915.8</ele>
        <time>2021-10-17T15:32:37Z</time>
      </trkpt>
      <trkpt lat="46.50069" lon="5.9112">
        <ele>915.8</ele>
        <time>2021-10-17T15:32:38Z</time>
      </trkpt>
      <trkpt lat="46.50073" lon="5.91114">
        <ele>915.8</ele>
        <time>2021-10-17T15:32:39Z</time>
      </trkpt>
      <trkpt lat="46.50077" lon="5.91108">
        <ele>916.2</ele>
        <time>2021-10-17T15:32:40Z</time>
      </trkpt>
      <trkpt lat="46.5008" lon="5.91102">
        <ele>916.2</ele>
        <time>2021-10-17T15:32:41Z</time>
      </trkpt>
      <trkpt lat="46.50084" lon="5.91096">
        <ele>916.4</ele>
        <time>2021-10-17T15:32:42Z</time>
      </trkpt>
      <trkpt lat="46.50087" lon="5.9109">
        <ele>916.4</ele>
        <time>2021-10-17T15:32:43Z</time>
      </trkpt>
      <trkpt lat="46.50091" lon="5.91083">
        <ele>916.4</ele>
        <time>2021-10-17T15:32:44Z</time>
      </trkpt>
      <trkpt lat="46.50094" lon="5.91077">
        <ele>916.4</ele>
        <time>2021-10-17T15:32:45Z</time>
      </trkpt>
      <trkpt lat="46.50097" lon="5.91071">
        <ele>916.6</ele>
        <time>2021-10-17T15:32:46Z</time>
      </trkpt>
      <trkpt lat="46.501" lon="5.91064">
        <ele>916.6</ele>
        <time>2021-10-17T15:32:47Z</time>
      </trkpt>
      <trkpt lat="46.50103" lon="5.91057">
        <ele>916.6</ele>
        <time>2021-10-17T15:32:48Z</time>
      </trkpt>
      <trkpt lat="46.50106" lon="5.91051">
        <ele>916.6</ele>
        <time>2021-10-17T15:32:49Z</time>
      </trkpt>
      <trkpt lat="46.50109" lon="5.91044">
        <ele>916.6</ele>
        <time>2021-10-17T15:32:50Z</time>
      </trkpt>
      <trkpt lat="46.50112" lon="5.91037">
        <ele>916.8</ele>
        <time>2021-10-17T15:32:51Z</time>
      </trkpt>
      <trkpt lat="46.50114" lon="5.9103">
        <ele>916.8</ele>
        <time>2021-10-17T15:32:52Z</time>
      </trkpt>
      <trkpt lat="46.50117" lon="5.91023">
        <ele>916.8</ele>
        <time>2021-10-17T15:32:53Z</time>
      </trkpt>
      <trkpt lat="46.50119" lon="5.91016">
        <ele>917</ele>
        <time>2021-10-17T15:32:54Z</time>
      </trkpt>
      <trkpt lat="46.50121" lon="5.91008">
        <ele>917</ele>
        <time>2021-10-17T15:32:55Z</time>
      </trkpt>
      <trkpt lat="46.50123" lon="5.91001">
        <ele>917</ele>
        <time>2021-10-17T15:32:56Z</time>
      </trkpt>
      <trkpt lat="46.50126" lon="5.90993">
        <ele>917</ele>
        <time>2021-10-17T15:32:57Z</time>
      </trkpt>
      <trkpt lat="46.50128" lon="5.90986">
        <ele>917.2</ele>
        <time>2021-10-17T15:32:58Z</time>
      </trkpt>
      <trkpt lat="46.50129" lon="5.90978">
        <ele>917.2</ele>
        <time>2021-10-17T15:32:59Z</time>
      </trkpt>
      <trkpt lat="46.50131" lon="5.9097">
        <ele>917.2</ele>
        <time>2021-10-17T15:33:00Z</time>
      </trkpt>
      <trkpt lat="46.50132" lon="5.90962">
        <ele>917.6</ele>
        <time>2021-10-17T15:33:01Z</time>
      </trkpt>
      <trkpt lat="46.50133" lon="5.90954">
        <ele>917.6</ele>
        <time>2021-10-17T15:33:02Z</time>
      </trkpt>
      <trkpt lat="46.50134" lon="5.90946">
        <ele>917.6</ele>
        <time>2021-10-17T15:33:03Z</time>
      </trkpt>
      <trkpt lat="46.50134" lon="5.90938">
        <ele>917.6</ele>
        <time>2021-10-17T15:33:04Z</time>
      </trkpt>
      <trkpt lat="46.50135" lon="5.9093">
        <ele>917.6</ele>
        <time>2021-10-17T15:33:05Z</time>
      </trkpt>
      <trkpt lat="46.50136" lon="5.90922">
        <ele>917.6</ele>
        <time>2021-10-17T15:33:06Z</time>
      </trkpt>
      <trkpt lat="46.50136" lon="5.90914">
        <ele>917.8</ele>
        <time>2021-10-17T15:33:07Z</time>
      </trkpt>
      <trkpt lat="46.50136" lon="5.90906">
        <ele>917.8</ele>
        <time>2021-10-17T15:33:08Z</time>
      </trkpt>
      <trkpt lat="46.50135" lon="5.90898">
        <ele>917.8</ele>
        <time>2021-10-17T15:33:09Z</time>
      </trkpt>
      <trkpt lat="46.50135" lon="5.9089">
        <ele>917.8</ele>
        <time>2021-10-17T15:33:10Z</time>
      </trkpt>
      <trkpt lat="46.50134" lon="5.90882">
        <ele>918</ele>
        <time>2021-10-17T15:33:11Z</time>
      </trkpt>
      <trkpt lat="46.50133" lon="5.90875">
        <ele>918</ele>
        <time>2021-10-17T15:33:12Z</time>
      </trkpt>
      <trkpt lat="46.50132" lon="5.90867">
        <ele>918</ele>
        <time>2021-10-17T15:33:13Z</time>
      </trkpt>
      <trkpt lat="46.50131" lon="5.9086">
        <ele>918.2</ele>
        <time>2021-10-17T15:33:14Z</time>
      </trkpt>
      <trkpt lat="46.5013" lon="5.90852">
        <ele>918.2</ele>
        <time>2021-10-17T15:33:15Z</time>
      </trkpt>
      <trkpt lat="46.50129" lon="5.90845">
        <ele>918.6</ele>
        <time>2021-10-17T15:33:16Z</time>
      </trkpt>
      <trkpt lat="46.50127" lon="5.90839">
        <ele>918.6</ele>
        <time>2021-10-17T15:33:17Z</time>
      </trkpt>
      <trkpt lat="46.50125" lon="5.90832">
        <ele>918.8</ele>
        <time>2021-10-17T15:33:18Z</time>
      </trkpt>
      <trkpt lat="46.50124" lon="5.90825">
        <ele>918.8</ele>
        <time>2021-10-17T15:33:19Z</time>
      </trkpt>
      <trkpt lat="46.50122" lon="5.90818">
        <ele>919</ele>
        <time>2021-10-17T15:33:20Z</time>
      </trkpt>
      <trkpt lat="46.50121" lon="5.90812">
        <ele>919</ele>
        <time>2021-10-17T15:33:21Z</time>
      </trkpt>
      <trkpt lat="46.50119" lon="5.90805">
        <ele>919.4</ele>
        <time>2021-10-17T15:33:22Z</time>
      </trkpt>
      <trkpt lat="46.50117" lon="5.90799">
        <ele>919.4</ele>
        <time>2021-10-17T15:33:23Z</time>
      </trkpt>
      <trkpt lat="46.50116" lon="5.90793">
        <ele>919.8</ele>
        <time>2021-10-17T15:33:24Z</time>
      </trkpt>
      <trkpt lat="46.50115" lon="5.90787">
        <ele>920</ele>
        <time>2021-10-17T15:33:25Z</time>
      </trkpt>
      <trkpt lat="46.50113" lon="5.90781">
        <ele>920.2</ele>
        <time>2021-10-17T15:33:26Z</time>
      </trkpt>
      <trkpt lat="46.50112" lon="5.90775">
        <ele>920.2</ele>
        <time>2021-10-17T15:33:27Z</time>
      </trkpt>
      <trkpt lat="46.50111" lon="5.90769">
        <ele>920.4</ele>
        <time>2021-10-17T15:33:28Z</time>
      </trkpt>
      <trkpt lat="46.5011" lon="5.90763">
        <ele>920.4</ele>
        <time>2021-10-17T15:33:29Z</time>
      </trkpt>
      <trkpt lat="46.50109" lon="5.90758">
        <ele>920.8</ele>
        <time>2021-10-17T15:33:30Z</time>
      </trkpt>
      <trkpt lat="46.50108" lon="5.90753">
        <ele>920.8</ele>
        <time>2021-10-17T15:33:31Z</time>
      </trkpt>
      <trkpt lat="46.50106" lon="5.90748">
        <ele>920.8</ele>
        <time>2021-10-17T15:33:32Z</time>
      </trkpt>
      <trkpt lat="46.50104" lon="5.90743">
        <ele>921</ele>
        <time>2021-10-17T15:33:33Z</time>
      </trkpt>
      <trkpt lat="46.50103" lon="5.90739">
        <ele>921</ele>
        <time>2021-10-17T15:33:34Z</time>
      </trkpt>
      <trkpt lat="46.50101" lon="5.90734">
        <ele>921.4</ele>
        <time>2021-10-17T15:33:35Z</time>
      </trkpt>
      <trkpt lat="46.50098" lon="5.90729">
        <ele>921.4</ele>
        <time>2021-10-17T15:33:36Z</time>
      </trkpt>
      <trkpt lat="46.50096" lon="5.90725">
        <ele>921.6</ele>
        <time>2021-10-17T15:33:37Z</time>
      </trkpt>
      <trkpt lat="46.50094" lon="5.9072">
        <ele>921.6</ele>
        <time>2021-10-17T15:33:38Z</time>
      </trkpt>
      <trkpt lat="46.50091" lon="5.90716">
        <ele>922</ele>
        <time>2021-10-17T15:33:39Z</time>
      </trkpt>
      <trkpt lat="46.50089" lon="5.90712">
        <ele>922</ele>
        <time>2021-10-17T15:33:40Z</time>
      </trkpt>
      <trkpt lat="46.50086" lon="5.90708">
        <ele>922.2</ele>
        <time>2021-10-17T15:33:41Z</time>
      </trkpt>
      <trkpt lat="46.50084" lon="5.90705">
        <ele>922.2</ele>
        <time>2021-10-17T15:33:42Z</time>
      </trkpt>
      <trkpt lat="46.50081" lon="5.90701">
        <ele>922.6</ele>
        <time>2021-10-17T15:33:43Z</time>
      </trkpt>
      <trkpt lat="46.50079" lon="5.90697">
        <ele>922.6</ele>
        <time>2021-10-17T15:33:44Z</time>
      </trkpt>
      <trkpt lat="46.50076" lon="5.90694">
        <ele>922.8</ele>
        <time>2021-10-17T15:33:45Z</time>
      </trkpt>
      <trkpt lat="46.50073" lon="5.90691">
        <ele>922.8</ele>
        <time>2021-10-17T15:33:46Z</time>
      </trkpt>
      <trkpt lat="46.50071" lon="5.90687">
        <ele>923</ele>
        <time>2021-10-17T15:33:47Z</time>
      </trkpt>
      <trkpt lat="46.50068" lon="5.90683">
        <ele>923</ele>
        <time>2021-10-17T15:33:48Z</time>
      </trkpt>
      <trkpt lat="46.50065" lon="5.90679">
        <ele>923</ele>
        <time>2021-10-17T15:33:49Z</time>
      </trkpt>
      <trkpt lat="46.50062" lon="5.90676">
        <ele>923.4</ele>
        <time>2021-10-17T15:33:50Z</time>
      </trkpt>
      <trkpt lat="46.5006" lon="5.90673">
        <ele>923.4</ele>
        <time>2021-10-17T15:33:51Z</time>
      </trkpt>
      <trkpt lat="46.50057" lon="5.90669">
        <ele>923.6</ele>
        <time>2021-10-17T15:33:52Z</time>
      </trkpt>
      <trkpt lat="46.50055" lon="5.90666">
        <ele>923.6</ele>
        <time>2021-10-17T15:33:53Z</time>
      </trkpt>
      <trkpt lat="46.50052" lon="5.90662">
        <ele>923.6</ele>
        <time>2021-10-17T15:33:54Z</time>
      </trkpt>
      <trkpt lat="46.50049" lon="5.90659">
        <ele>923.8</ele>
        <time>2021-10-17T15:33:55Z</time>
      </trkpt>
      <trkpt lat="46.50047" lon="5.90655">
        <ele>924</ele>
        <time>2021-10-17T15:33:56Z</time>
      </trkpt>
      <trkpt lat="46.50045" lon="5.90651">
        <ele>924</ele>
        <time>2021-10-17T15:33:57Z</time>
      </trkpt>
      <trkpt lat="46.50042" lon="5.90648">
        <ele>924.4</ele>
        <time>2021-10-17T15:33:58Z</time>
      </trkpt>
      <trkpt lat="46.5004" lon="5.90644">
        <ele>924.4</ele>
        <time>2021-10-17T15:33:59Z</time>
      </trkpt>
      <trkpt lat="46.50038" lon="5.9064">
        <ele>924.6</ele>
        <time>2021-10-17T15:34:00Z</time>
      </trkpt>
      <trkpt lat="46.50035" lon="5.90637">
        <ele>924.6</ele>
        <time>2021-10-17T15:34:01Z</time>
      </trkpt>
      <trkpt lat="46.50033" lon="5.90633">
        <ele>925</ele>
        <time>2021-10-17T15:34:02Z</time>
      </trkpt>
      <trkpt lat="46.50031" lon="5.9063">
        <ele>925</ele>
        <time>2021-10-17T15:34:03Z</time>
      </trkpt>
      <trkpt lat="46.50029" lon="5.90626">
        <ele>925.2</ele>
        <time>2021-10-17T15:34:04Z</time>
      </trkpt>
      <trkpt lat="46.50027" lon="5.90623">
        <ele>925.2</ele>
        <time>2021-10-17T15:34:05Z</time>
      </trkpt>
      <trkpt lat="46.50025" lon="5.90619">
        <ele>925.6</ele>
        <time>2021-10-17T15:34:06Z</time>
      </trkpt>
      <trkpt lat="46.50022" lon="5.90616">
        <ele>925.6</ele>
        <time>2021-10-17T15:34:07Z</time>
      </trkpt>
      <trkpt lat="46.5002" lon="5.90612">
        <ele>925.8</ele>
        <time>2021-10-17T15:34:08Z</time>
      </trkpt>
      <trkpt lat="46.50018" lon="5.90609">
        <ele>925.8</ele>
        <time>2021-10-17T15:34:09Z</time>
      </trkpt>
      <trkpt lat="46.50015" lon="5.90605">
        <ele>926.2</ele>
        <time>2021-10-17T15:34:10Z</time>
      </trkpt>
      <trkpt lat="46.50013" lon="5.90601">
        <ele>926.2</ele>
        <time>2021-10-17T15:34:11Z</time>
      </trkpt>
      <trkpt lat="46.50011" lon="5.90597">
        <ele>926.4</ele>
        <time>2021-10-17T15:34:12Z</time>
      </trkpt>
      <trkpt lat="46.50009" lon="5.90593">
        <ele>926.4</ele>
        <time>2021-10-17T15:34:13Z</time>
      </trkpt>
      <trkpt lat="46.50007" lon="5.90588">
        <ele>926.6</ele>
        <time>2021-10-17T15:34:14Z</time>
      </trkpt>
      <trkpt lat="46.50005" lon="5.90585">
        <ele>926.6</ele>
        <time>2021-10-17T15:34:15Z</time>
      </trkpt>
      <trkpt lat="46.50002" lon="5.90581">
        <ele>926.8</ele>
        <time>2021-10-17T15:34:16Z</time>
      </trkpt>
      <trkpt lat="46.5" lon="5.90577">
        <ele>926.8</ele>
        <time>2021-10-17T15:34:17Z</time>
      </trkpt>
      <trkpt lat="46.49998" lon="5.90574">
        <ele>926.8</ele>
        <time>2021-10-17T15:34:18Z</time>
      </trkpt>
      <trkpt lat="46.49996" lon="5.9057">
        <ele>927</ele>
        <time>2021-10-17T15:34:19Z</time>
      </trkpt>
      <trkpt lat="46.49994" lon="5.90566">
        <ele>927</ele>
        <time>2021-10-17T15:34:20Z</time>
      </trkpt>
      <trkpt lat="46.49992" lon="5.90562">
        <ele>927.4</ele>
        <time>2021-10-17T15:34:21Z</time>
      </trkpt>
      <trkpt lat="46.4999" lon="5.90558">
        <ele>927.4</ele>
        <time>2021-10-17T15:34:22Z</time>
      </trkpt>
      <trkpt lat="46.49988" lon="5.90555">
        <ele>927.6</ele>
        <time>2021-10-17T15:34:23Z</time>
      </trkpt>
      <trkpt lat="46.49986" lon="5.90551">
        <ele>927.6</ele>
        <time>2021-10-17T15:34:24Z</time>
      </trkpt>
      <trkpt lat="46.49984" lon="5.90547">
        <ele>928</ele>
        <time>2021-10-17T15:34:25Z</time>
      </trkpt>
      <trkpt lat="46.49982" lon="5.90543">
        <ele>928</ele>
        <time>2021-10-17T15:34:26Z</time>
      </trkpt>
      <trkpt lat="46.49979" lon="5.90539">
        <ele>928.2</ele>
        <time>2021-10-17T15:34:27Z</time>
      </trkpt>
      <trkpt lat="46.49977" lon="5.90535">
        <ele>928.2</ele>
        <time>2021-10-17T15:34:28Z</time>
      </trkpt>
      <trkpt lat="46.49975" lon="5.90531">
        <ele>928.4</ele>
        <time>2021-10-17T15:34:29Z</time>
      </trkpt>
      <trkpt lat="46.49973" lon="5.90528">
        <ele>928.6</ele>
        <time>2021-10-17T15:34:30Z</time>
      </trkpt>
      <trkpt lat="46.49971" lon="5.90524">
        <ele>928.6</ele>
        <time>2021-10-17T15:34:31Z</time>
      </trkpt>
      <trkpt lat="46.49968" lon="5.90521">
        <ele>929</ele>
        <time>2021-10-17T15:34:32Z</time>
      </trkpt>
      <trkpt lat="46.49966" lon="5.90517">
        <ele>929</ele>
        <time>2021-10-17T15:34:33Z</time>
      </trkpt>
      <trkpt lat="46.49964" lon="5.90513">
        <ele>929.4</ele>
        <time>2021-10-17T15:34:34Z</time>
      </trkpt>
      <trkpt lat="46.49962" lon="5.9051">
        <ele>929.4</ele>
        <time>2021-10-17T15:34:35Z</time>
      </trkpt>
      <trkpt lat="46.49959" lon="5.90506">
        <ele>929.6</ele>
        <time>2021-10-17T15:34:36Z</time>
      </trkpt>
      <trkpt lat="46.49957" lon="5.90502">
        <ele>929.8</ele>
        <time>2021-10-17T15:34:37Z</time>
      </trkpt>
      <trkpt lat="46.49955" lon="5.90499">
        <ele>929.8</ele>
        <time>2021-10-17T15:34:38Z</time>
      </trkpt>
      <trkpt lat="46.49953" lon="5.90495">
        <ele>930</ele>
        <time>2021-10-17T15:34:39Z</time>
      </trkpt>
      <trkpt lat="46.49951" lon="5.90492">
        <ele>930</ele>
        <time>2021-10-17T15:34:40Z</time>
      </trkpt>
      <trkpt lat="46.49949" lon="5.90488">
        <ele>930.4</ele>
        <time>2021-10-17T15:34:41Z</time>
      </trkpt>
      <trkpt lat="46.49947" lon="5.90483">
        <ele>930.4</ele>
        <time>2021-10-17T15:34:42Z</time>
      </trkpt>
      <trkpt lat="46.49945" lon="5.90479">
        <ele>930.6</ele>
        <time>2021-10-17T15:34:43Z</time>
      </trkpt>
      <trkpt lat="46.49943" lon="5.90475">
        <ele>930.6</ele>
        <time>2021-10-17T15:34:44Z</time>
      </trkpt>
      <trkpt lat="46.49941" lon="5.90471">
        <ele>931</ele>
        <time>2021-10-17T15:34:45Z</time>
      </trkpt>
      <trkpt lat="46.49939" lon="5.90467">
        <ele>931</ele>
        <time>2021-10-17T15:34:46Z</time>
      </trkpt>
      <trkpt lat="46.49937" lon="5.90463">
        <ele>931.4</ele>
        <time>2021-10-17T15:34:47Z</time>
      </trkpt>
      <trkpt lat="46.49935" lon="5.90459">
        <ele>931.4</ele>
        <time>2021-10-17T15:34:48Z</time>
      </trkpt>
      <trkpt lat="46.49933" lon="5.90455">
        <ele>931.6</ele>
        <time>2021-10-17T15:34:49Z</time>
      </trkpt>
      <trkpt lat="46.49931" lon="5.90451">
        <ele>931.6</ele>
        <time>2021-10-17T15:34:50Z</time>
      </trkpt>
      <trkpt lat="46.4993" lon="5.90447">
        <ele>932</ele>
        <time>2021-10-17T15:34:51Z</time>
      </trkpt>
      <trkpt lat="46.49928" lon="5.90443">
        <ele>932</ele>
        <time>2021-10-17T15:34:52Z</time>
      </trkpt>
      <trkpt lat="46.49927" lon="5.90438">
        <ele>932</ele>
        <time>2021-10-17T15:34:53Z</time>
      </trkpt>
      <trkpt lat="46.49926" lon="5.90434">
        <ele>932.2</ele>
        <time>2021-10-17T15:34:54Z</time>
      </trkpt>
      <trkpt lat="46.49924" lon="5.9043">
        <ele>932.2</ele>
        <time>2021-10-17T15:34:55Z</time>
      </trkpt>
      <trkpt lat="46.49923" lon="5.90425">
        <ele>932.6</ele>
        <time>2021-10-17T15:34:56Z</time>
      </trkpt>
      <trkpt lat="46.49921" lon="5.90421">
        <ele>932.6</ele>
        <time>2021-10-17T15:34:57Z</time>
      </trkpt>
      <trkpt lat="46.4992" lon="5.90416">
        <ele>932.8</ele>
        <time>2021-10-17T15:34:58Z</time>
      </trkpt>
      <trkpt lat="46.49918" lon="5.90407">
        <ele>932.8</ele>
        <time>2021-10-17T15:34:59Z</time>
      </trkpt>
      <trkpt lat="46.49916" lon="5.90402">
        <ele>933</ele>
        <time>2021-10-17T15:35:00Z</time>
      </trkpt>
      <trkpt lat="46.49915" lon="5.90397">
        <ele>933</ele>
        <time>2021-10-17T15:35:01Z</time>
      </trkpt>
      <trkpt lat="46.49914" lon="5.90391">
        <ele>933</ele>
        <time>2021-10-17T15:35:02Z</time>
      </trkpt>
      <trkpt lat="46.49913" lon="5.90386">
        <ele>933.2</ele>
        <time>2021-10-17T15:35:03Z</time>
      </trkpt>
      <trkpt lat="46.49911" lon="5.9038">
        <ele>933.2</ele>
        <time>2021-10-17T15:35:04Z</time>
      </trkpt>
      <trkpt lat="46.4991" lon="5.90375">
        <ele>933.2</ele>
        <time>2021-10-17T15:35:05Z</time>
      </trkpt>
      <trkpt lat="46.49909" lon="5.90369">
        <ele>933.6</ele>
        <time>2021-10-17T15:35:06Z</time>
      </trkpt>
      <trkpt lat="46.49908" lon="5.90363">
        <ele>933.6</ele>
        <time>2021-10-17T15:35:07Z</time>
      </trkpt>
      <trkpt lat="46.49907" lon="5.90358">
        <ele>933.6</ele>
        <time>2021-10-17T15:35:08Z</time>
      </trkpt>
      <trkpt lat="46.49905" lon="5.90352">
        <ele>933.6</ele>
        <time>2021-10-17T15:35:09Z</time>
      </trkpt>
      <trkpt lat="46.49904" lon="5.90346">
        <ele>933.6</ele>
        <time>2021-10-17T15:35:10Z</time>
      </trkpt>
      <trkpt lat="46.49902" lon="5.90341">
        <ele>933.8</ele>
        <time>2021-10-17T15:35:11Z</time>
      </trkpt>
      <trkpt lat="46.49901" lon="5.90335">
        <ele>933.8</ele>
        <time>2021-10-17T15:35:12Z</time>
      </trkpt>
      <trkpt lat="46.499" lon="5.90329">
        <ele>933.8</ele>
        <time>2021-10-17T15:35:13Z</time>
      </trkpt>
      <trkpt lat="46.49899" lon="5.90324">
        <ele>933.8</ele>
        <time>2021-10-17T15:35:14Z</time>
      </trkpt>
      <trkpt lat="46.49898" lon="5.90318">
        <ele>933.8</ele>
        <time>2021-10-17T15:35:15Z</time>
      </trkpt>
      <trkpt lat="46.49897" lon="5.90312">
        <ele>933.8</ele>
        <time>2021-10-17T15:35:16Z</time>
      </trkpt>
      <trkpt lat="46.49895" lon="5.90307">
        <ele>934.2</ele>
        <time>2021-10-17T15:35:17Z</time>
      </trkpt>
      <trkpt lat="46.49894" lon="5.90301">
        <ele>934.2</ele>
        <time>2021-10-17T15:35:18Z</time>
      </trkpt>
      <trkpt lat="46.49893" lon="5.90296">
        <ele>934.4</ele>
        <time>2021-10-17T15:35:19Z</time>
      </trkpt>
      <trkpt lat="46.49892" lon="5.9029">
        <ele>934.4</ele>
        <time>2021-10-17T15:35:20Z</time>
      </trkpt>
      <trkpt lat="46.4989" lon="5.90285">
        <ele>934.6</ele>
        <time>2021-10-17T15:35:21Z</time>
      </trkpt>
      <trkpt lat="46.49889" lon="5.9028">
        <ele>934.6</ele>
        <time>2021-10-17T15:35:22Z</time>
      </trkpt>
      <trkpt lat="46.49888" lon="5.90275">
        <ele>935</ele>
        <time>2021-10-17T15:35:23Z</time>
      </trkpt>
      <trkpt lat="46.49886" lon="5.90269">
        <ele>935</ele>
        <time>2021-10-17T15:35:24Z</time>
      </trkpt>
      <trkpt lat="46.49885" lon="5.90264">
        <ele>935.4</ele>
        <time>2021-10-17T15:35:25Z</time>
      </trkpt>
      <trkpt lat="46.49884" lon="5.90258">
        <ele>935.4</ele>
        <time>2021-10-17T15:35:26Z</time>
      </trkpt>
      <trkpt lat="46.49882" lon="5.90253">
        <ele>935.6</ele>
        <time>2021-10-17T15:35:27Z</time>
      </trkpt>
      <trkpt lat="46.49881" lon="5.90247">
        <ele>935.6</ele>
        <time>2021-10-17T15:35:28Z</time>
      </trkpt>
      <trkpt lat="46.4988" lon="5.90242">
        <ele>936</ele>
        <time>2021-10-17T15:35:29Z</time>
      </trkpt>
      <trkpt lat="46.49879" lon="5.90237">
        <ele>936</ele>
        <time>2021-10-17T15:35:30Z</time>
      </trkpt>
      <trkpt lat="46.49877" lon="5.90232">
        <ele>936.4</ele>
        <time>2021-10-17T15:35:31Z</time>
      </trkpt>
      <trkpt lat="46.49876" lon="5.90227">
        <ele>936.4</ele>
        <time>2021-10-17T15:35:32Z</time>
      </trkpt>
      <trkpt lat="46.49874" lon="5.90221">
        <ele>936.8</ele>
        <time>2021-10-17T15:35:33Z</time>
      </trkpt>
      <trkpt lat="46.49872" lon="5.90216">
        <ele>936.8</ele>
        <time>2021-10-17T15:35:34Z</time>
      </trkpt>
      <trkpt lat="46.4987" lon="5.90211">
        <ele>937</ele>
        <time>2021-10-17T15:35:35Z</time>
      </trkpt>
      <trkpt lat="46.49869" lon="5.90206">
        <ele>937.2</ele>
        <time>2021-10-17T15:35:36Z</time>
      </trkpt>
      <trkpt lat="46.49867" lon="5.90201">
        <ele>937.2</ele>
        <time>2021-10-17T15:35:37Z</time>
      </trkpt>
      <trkpt lat="46.49865" lon="5.90196">
        <ele>937.6</ele>
        <time>2021-10-17T15:35:38Z</time>
      </trkpt>
      <trkpt lat="46.49863" lon="5.90191">
        <ele>937.6</ele>
        <time>2021-10-17T15:35:39Z</time>
      </trkpt>
      <trkpt lat="46.49861" lon="5.90187">
        <ele>937.8</ele>
        <time>2021-10-17T15:35:40Z</time>
      </trkpt>
      <trkpt lat="46.49859" lon="5.90182">
        <ele>938</ele>
        <time>2021-10-17T15:35:41Z</time>
      </trkpt>
      <trkpt lat="46.49857" lon="5.90178">
        <ele>938</ele>
        <time>2021-10-17T15:35:42Z</time>
      </trkpt>
      <trkpt lat="46.49855" lon="5.90173">
        <ele>938.4</ele>
        <time>2021-10-17T15:35:43Z</time>
      </trkpt>
      <trkpt lat="46.49853" lon="5.90169">
        <ele>938.6</ele>
        <time>2021-10-17T15:35:44Z</time>
      </trkpt>
      <trkpt lat="46.49851" lon="5.90165">
        <ele>938.6</ele>
        <time>2021-10-17T15:35:45Z</time>
      </trkpt>
      <trkpt lat="46.49849" lon="5.90161">
        <ele>939</ele>
        <time>2021-10-17T15:35:46Z</time>
      </trkpt>
      <trkpt lat="46.49848" lon="5.90157">
        <ele>939</ele>
        <time>2021-10-17T15:35:47Z</time>
      </trkpt>
      <trkpt lat="46.49846" lon="5.90152">
        <ele>939.2</ele>
        <time>2021-10-17T15:35:48Z</time>
      </trkpt>
      <trkpt lat="46.49844" lon="5.90148">
        <ele>939.2</ele>
        <time>2021-10-17T15:35:49Z</time>
      </trkpt>
      <trkpt lat="46.49842" lon="5.90144">
        <ele>939.6</ele>
        <time>2021-10-17T15:35:50Z</time>
      </trkpt>
      <trkpt lat="46.49841" lon="5.90139">
        <ele>939.6</ele>
        <time>2021-10-17T15:35:51Z</time>
      </trkpt>
      <trkpt lat="46.49839" lon="5.90135">
        <ele>939.8</ele>
        <time>2021-10-17T15:35:52Z</time>
      </trkpt>
      <trkpt lat="46.49837" lon="5.90131">
        <ele>939.8</ele>
        <time>2021-10-17T15:35:53Z</time>
      </trkpt>
      <trkpt lat="46.49835" lon="5.90127">
        <ele>940.2</ele>
        <time>2021-10-17T15:35:54Z</time>
      </trkpt>
      <trkpt lat="46.49833" lon="5.90123">
        <ele>940.2</ele>
        <time>2021-10-17T15:35:55Z</time>
      </trkpt>
      <trkpt lat="46.49831" lon="5.90118">
        <ele>940.4</ele>
        <time>2021-10-17T15:35:56Z</time>
      </trkpt>
      <trkpt lat="46.49829" lon="5.90114">
        <ele>940.4</ele>
        <time>2021-10-17T15:35:57Z</time>
      </trkpt>
      <trkpt lat="46.49827" lon="5.9011">
        <ele>940.6</ele>
        <time>2021-10-17T15:35:58Z</time>
      </trkpt>
      <trkpt lat="46.49826" lon="5.90107">
        <ele>940.8</ele>
        <time>2021-10-17T15:35:59Z</time>
      </trkpt>
      <trkpt lat="46.49825" lon="5.90105">
        <ele>940.8</ele>
        <time>2021-10-17T15:36:00Z</time>
      </trkpt>
      <trkpt lat="46.49823" lon="5.90101">
        <ele>941.2</ele>
        <time>2021-10-17T15:36:01Z</time>
      </trkpt>
      <trkpt lat="46.49821" lon="5.90096">
        <ele>941.2</ele>
        <time>2021-10-17T15:36:02Z</time>
      </trkpt>
      <trkpt lat="46.49819" lon="5.90091">
        <ele>941.4</ele>
        <time>2021-10-17T15:36:03Z</time>
      </trkpt>
      <trkpt lat="46.49817" lon="5.90087">
        <ele>941.4</ele>
        <time>2021-10-17T15:36:04Z</time>
      </trkpt>
      <trkpt lat="46.49815" lon="5.90082">
        <ele>941.8</ele>
        <time>2021-10-17T15:36:05Z</time>
      </trkpt>
      <trkpt lat="46.49813" lon="5.90078">
        <ele>941.8</ele>
        <time>2021-10-17T15:36:06Z</time>
      </trkpt>
      <trkpt lat="46.49811" lon="5.90074">
        <ele>941.8</ele>
        <time>2021-10-17T15:36:07Z</time>
      </trkpt>
      <trkpt lat="46.49809" lon="5.90069">
        <ele>941.8</ele>
        <time>2021-10-17T15:36:08Z</time>
      </trkpt>
      <trkpt lat="46.49807" lon="5.90064">
        <ele>941.8</ele>
        <time>2021-10-17T15:36:09Z</time>
      </trkpt>
      <trkpt lat="46.49806" lon="5.90058">
        <ele>942</ele>
        <time>2021-10-17T15:36:10Z</time>
      </trkpt>
      <trkpt lat="46.49805" lon="5.90053">
        <ele>942</ele>
        <time>2021-10-17T15:36:11Z</time>
      </trkpt>
      <trkpt lat="46.49804" lon="5.90047">
        <ele>942</ele>
        <time>2021-10-17T15:36:12Z</time>
      </trkpt>
      <trkpt lat="46.49803" lon="5.9004">
        <ele>942</ele>
        <time>2021-10-17T15:36:13Z</time>
      </trkpt>
      <trkpt lat="46.49802" lon="5.90034">
        <ele>942</ele>
        <time>2021-10-17T15:36:14Z</time>
      </trkpt>
      <trkpt lat="46.49802" lon="5.90027">
        <ele>942</ele>
        <time>2021-10-17T15:36:15Z</time>
      </trkpt>
      <trkpt lat="46.49802" lon="5.90021">
        <ele>942</ele>
        <time>2021-10-17T15:36:16Z</time>
      </trkpt>
      <trkpt lat="46.49803" lon="5.90014">
        <ele>942</ele>
        <time>2021-10-17T15:36:17Z</time>
      </trkpt>
      <trkpt lat="46.49804" lon="5.90007">
        <ele>942</ele>
        <time>2021-10-17T15:36:18Z</time>
      </trkpt>
      <trkpt lat="46.49806" lon="5.9">
        <ele>941.8</ele>
        <time>2021-10-17T15:36:19Z</time>
      </trkpt>
      <trkpt lat="46.49808" lon="5.89993">
        <ele>941.8</ele>
        <time>2021-10-17T15:36:20Z</time>
      </trkpt>
      <trkpt lat="46.49811" lon="5.89987">
        <ele>941.8</ele>
        <time>2021-10-17T15:36:21Z</time>
      </trkpt>
      <trkpt lat="46.49815" lon="5.89981">
        <ele>941.6</ele>
        <time>2021-10-17T15:36:22Z</time>
      </trkpt>
      <trkpt lat="46.49818" lon="5.89976">
        <ele>941.6</ele>
        <time>2021-10-17T15:36:23Z</time>
      </trkpt>
      <trkpt lat="46.49822" lon="5.89971">
        <ele>941.6</ele>
        <time>2021-10-17T15:36:24Z</time>
      </trkpt>
      <trkpt lat="46.49826" lon="5.89966">
        <ele>941.4</ele>
        <time>2021-10-17T15:36:25Z</time>
      </trkpt>
      <trkpt lat="46.49831" lon="5.89962">
        <ele>941.4</ele>
        <time>2021-10-17T15:36:26Z</time>
      </trkpt>
      <trkpt lat="46.49835" lon="5.89957">
        <ele>941.4</ele>
        <time>2021-10-17T15:36:27Z</time>
      </trkpt>
      <trkpt lat="46.49839" lon="5.89953">
        <ele>941.2</ele>
        <time>2021-10-17T15:36:28Z</time>
      </trkpt>
      <trkpt lat="46.49843" lon="5.89949">
        <ele>941.2</ele>
        <time>2021-10-17T15:36:29Z</time>
      </trkpt>
      <trkpt lat="46.49847" lon="5.89945">
        <ele>941.2</ele>
        <time>2021-10-17T15:36:30Z</time>
      </trkpt>
      <trkpt lat="46.49851" lon="5.89941">
        <ele>941.2</ele>
        <time>2021-10-17T15:36:31Z</time>
      </trkpt>
      <trkpt lat="46.49855" lon="5.89937">
        <ele>941.2</ele>
        <time>2021-10-17T15:36:32Z</time>
      </trkpt>
      <trkpt lat="46.49859" lon="5.89933">
        <ele>941.2</ele>
        <time>2021-10-17T15:36:33Z</time>
      </trkpt>
      <trkpt lat="46.49863" lon="5.8993">
        <ele>941.2</ele>
        <time>2021-10-17T15:36:34Z</time>
      </trkpt>
      <trkpt lat="46.49867" lon="5.89926">
        <ele>941.2</ele>
        <time>2021-10-17T15:36:35Z</time>
      </trkpt>
      <trkpt lat="46.49871" lon="5.89922">
        <ele>941.2</ele>
        <time>2021-10-17T15:36:36Z</time>
      </trkpt>
      <trkpt lat="46.49874" lon="5.89919">
        <ele>941.2</ele>
        <time>2021-10-17T15:36:37Z</time>
      </trkpt>
      <trkpt lat="46.49878" lon="5.89914">
        <ele>941.2</ele>
        <time>2021-10-17T15:36:38Z</time>
      </trkpt>
      <trkpt lat="46.49881" lon="5.8991">
        <ele>941.2</ele>
        <time>2021-10-17T15:36:39Z</time>
      </trkpt>
      <trkpt lat="46.49884" lon="5.89905">
        <ele>940.8</ele>
        <time>2021-10-17T15:36:40Z</time>
      </trkpt>
      <trkpt lat="46.49887" lon="5.89901">
        <ele>940.8</ele>
        <time>2021-10-17T15:36:41Z</time>
      </trkpt>
      <trkpt lat="46.49891" lon="5.89897">
        <ele>940.8</ele>
        <time>2021-10-17T15:36:42Z</time>
      </trkpt>
      <trkpt lat="46.49894" lon="5.89894">
        <ele>940.8</ele>
        <time>2021-10-17T15:36:43Z</time>
      </trkpt>
      <trkpt lat="46.49897" lon="5.8989">
        <ele>940.6</ele>
        <time>2021-10-17T15:36:44Z</time>
      </trkpt>
      <trkpt lat="46.49901" lon="5.89887">
        <ele>940.6</ele>
        <time>2021-10-17T15:36:45Z</time>
      </trkpt>
      <trkpt lat="46.49904" lon="5.89884">
        <ele>940.6</ele>
        <time>2021-10-17T15:36:46Z</time>
      </trkpt>
      <trkpt lat="46.49907" lon="5.89881">
        <ele>940.6</ele>
        <time>2021-10-17T15:36:47Z</time>
      </trkpt>
      <trkpt lat="46.49909" lon="5.89879">
        <ele>940.4</ele>
        <time>2021-10-17T15:36:48Z</time>
      </trkpt>
      <trkpt lat="46.49911" lon="5.89876">
        <ele>940.4</ele>
        <time>2021-10-17T15:36:49Z</time>
      </trkpt>
      <trkpt lat="46.49914" lon="5.89874">
        <ele>940.4</ele>
        <time>2021-10-17T15:36:50Z</time>
      </trkpt>
      <trkpt lat="46.49916" lon="5.89872">
        <ele>940.2</ele>
        <time>2021-10-17T15:36:51Z</time>
      </trkpt>
      <trkpt lat="46.49918" lon="5.8987">
        <ele>940.2</ele>
        <time>2021-10-17T15:36:52Z</time>
      </trkpt>
      <trkpt lat="46.4992" lon="5.89868">
        <ele>940.2</ele>
        <time>2021-10-17T15:36:53Z</time>
      </trkpt>
      <trkpt lat="46.49921" lon="5.89867">
        <ele>940.2</ele>
        <time>2021-10-17T15:36:54Z</time>
      </trkpt>
      <trkpt lat="46.49922" lon="5.89866">
        <ele>940.2</ele>
        <time>2021-10-17T15:36:55Z</time>
      </trkpt>
      <trkpt lat="46.49923" lon="5.89865">
        <ele>940</ele>
        <time>2021-10-17T15:36:56Z</time>
      </trkpt>
      <trkpt lat="46.49931" lon="5.89861">
        <ele>939.8</ele>
        <time>2021-10-17T15:38:08Z</time>
      </trkpt>
      <trkpt lat="46.49933" lon="5.89859">
        <ele>939.8</ele>
        <time>2021-10-17T15:38:09Z</time>
      </trkpt>
      <trkpt lat="46.49936" lon="5.89857">
        <ele>939.8</ele>
        <time>2021-10-17T15:38:10Z</time>
      </trkpt>
      <trkpt lat="46.49939" lon="5.89855">
        <ele>939.8</ele>
        <time>2021-10-17T15:38:11Z</time>
      </trkpt>
      <trkpt lat="46.49942" lon="5.89853">
        <ele>939.8</ele>
        <time>2021-10-17T15:38:12Z</time>
      </trkpt>
      <trkpt lat="46.49945" lon="5.89851">
        <ele>939.8</ele>
        <time>2021-10-17T15:38:13Z</time>
      </trkpt>
      <trkpt lat="46.49947" lon="5.89849">
        <ele>939.6</ele>
        <time>2021-10-17T15:38:14Z</time>
      </trkpt>
      <trkpt lat="46.4995" lon="5.89846">
        <ele>939.6</ele>
        <time>2021-10-17T15:38:15Z</time>
      </trkpt>
      <trkpt lat="46.49954" lon="5.89844">
        <ele>939.6</ele>
        <time>2021-10-17T15:38:16Z</time>
      </trkpt>
      <trkpt lat="46.49957" lon="5.89843">
        <ele>939.6</ele>
        <time>2021-10-17T15:38:17Z</time>
      </trkpt>
      <trkpt lat="46.49961" lon="5.89841">
        <ele>939.6</ele>
        <time>2021-10-17T15:38:18Z</time>
      </trkpt>
      <trkpt lat="46.49964" lon="5.89838">
        <ele>939.6</ele>
        <time>2021-10-17T15:38:19Z</time>
      </trkpt>
      <trkpt lat="46.49968" lon="5.89836">
        <ele>939.4</ele>
        <time>2021-10-17T15:38:20Z</time>
      </trkpt>
      <trkpt lat="46.49972" lon="5.89834">
        <ele>939.4</ele>
        <time>2021-10-17T15:38:21Z</time>
      </trkpt>
      <trkpt lat="46.49976" lon="5.89831">
        <ele>939.4</ele>
        <time>2021-10-17T15:38:22Z</time>
      </trkpt>
      <trkpt lat="46.4998" lon="5.89829">
        <ele>939.4</ele>
        <time>2021-10-17T15:38:23Z</time>
      </trkpt>
      <trkpt lat="46.49984" lon="5.89826">
        <ele>939.4</ele>
        <time>2021-10-17T15:38:24Z</time>
      </trkpt>
      <trkpt lat="46.49988" lon="5.89824">
        <ele>939.4</ele>
        <time>2021-10-17T15:38:25Z</time>
      </trkpt>
      <trkpt lat="46.49992" lon="5.89821">
        <ele>939.4</ele>
        <time>2021-10-17T15:38:26Z</time>
      </trkpt>
      <trkpt lat="46.49995" lon="5.89819">
        <ele>939.4</ele>
        <time>2021-10-17T15:38:27Z</time>
      </trkpt>
      <trkpt lat="46.49999" lon="5.89818">
        <ele>939</ele>
        <time>2021-10-17T15:38:28Z</time>
      </trkpt>
      <trkpt lat="46.50002" lon="5.89817">
        <ele>939</ele>
        <time>2021-10-17T15:38:29Z</time>
      </trkpt>
      <trkpt lat="46.50005" lon="5.89815">
        <ele>939</ele>
        <time>2021-10-17T15:38:30Z</time>
      </trkpt>
      <trkpt lat="46.50008" lon="5.89813">
        <ele>938.8</ele>
        <time>2021-10-17T15:38:31Z</time>
      </trkpt>
      <trkpt lat="46.50012" lon="5.8981">
        <ele>938.8</ele>
        <time>2021-10-17T15:38:32Z</time>
      </trkpt>
      <trkpt lat="46.50015" lon="5.89807">
        <ele>938.6</ele>
        <time>2021-10-17T15:38:33Z</time>
      </trkpt>
      <trkpt lat="46.50019" lon="5.89804">
        <ele>938.6</ele>
        <time>2021-10-17T15:38:34Z</time>
      </trkpt>
      <trkpt lat="46.50024" lon="5.89801">
        <ele>938.2</ele>
        <time>2021-10-17T15:38:35Z</time>
      </trkpt>
      <trkpt lat="46.50028" lon="5.89798">
        <ele>938.2</ele>
        <time>2021-10-17T15:38:36Z</time>
      </trkpt>
      <trkpt lat="46.50033" lon="5.89795">
        <ele>938</ele>
        <time>2021-10-17T15:38:37Z</time>
      </trkpt>
      <trkpt lat="46.50038" lon="5.89792">
        <ele>937.8</ele>
        <time>2021-10-17T15:38:38Z</time>
      </trkpt>
      <trkpt lat="46.50044" lon="5.89789">
        <ele>937.4</ele>
        <time>2021-10-17T15:38:39Z</time>
      </trkpt>
      <trkpt lat="46.5005" lon="5.89786">
        <ele>937.2</ele>
        <time>2021-10-17T15:38:40Z</time>
      </trkpt>
      <trkpt lat="46.50056" lon="5.89784">
        <ele>937</ele>
        <time>2021-10-17T15:38:41Z</time>
      </trkpt>
      <trkpt lat="46.50063" lon="5.89781">
        <ele>936.8</ele>
        <time>2021-10-17T15:38:42Z</time>
      </trkpt>
      <trkpt lat="46.5007" lon="5.89777">
        <ele>936.4</ele>
        <time>2021-10-17T15:38:43Z</time>
      </trkpt>
      <trkpt lat="46.50076" lon="5.89774">
        <ele>936.2</ele>
        <time>2021-10-17T15:38:44Z</time>
      </trkpt>
      <trkpt lat="46.50083" lon="5.8977">
        <ele>936</ele>
        <time>2021-10-17T15:38:45Z</time>
      </trkpt>
      <trkpt lat="46.50091" lon="5.89766">
        <ele>935.6</ele>
        <time>2021-10-17T15:38:46Z</time>
      </trkpt>
      <trkpt lat="46.50098" lon="5.89762">
        <ele>935.2</ele>
        <time>2021-10-17T15:38:47Z</time>
      </trkpt>
      <trkpt lat="46.50106" lon="5.89758">
        <ele>934.8</ele>
        <time>2021-10-17T15:38:48Z</time>
      </trkpt>
      <trkpt lat="46.50114" lon="5.89755">
        <ele>934.4</ele>
        <time>2021-10-17T15:38:49Z</time>
      </trkpt>
      <trkpt lat="46.50122" lon="5.8975">
        <ele>934</ele>
        <time>2021-10-17T15:38:50Z</time>
      </trkpt>
      <trkpt lat="46.5013" lon="5.89746">
        <ele>933.6</ele>
        <time>2021-10-17T15:38:51Z</time>
      </trkpt>
      <trkpt lat="46.50138" lon="5.89742">
        <ele>933.4</ele>
        <time>2021-10-17T15:38:52Z</time>
      </trkpt>
      <trkpt lat="46.50146" lon="5.89738">
        <ele>933</ele>
        <time>2021-10-17T15:38:53Z</time>
      </trkpt>
      <trkpt lat="46.50155" lon="5.89734">
        <ele>932.6</ele>
        <time>2021-10-17T15:38:54Z</time>
      </trkpt>
      <trkpt lat="46.50163" lon="5.89729">
        <ele>932.2</ele>
        <time>2021-10-17T15:38:55Z</time>
      </trkpt>
      <trkpt lat="46.50172" lon="5.89725">
        <ele>931.6</ele>
        <time>2021-10-17T15:38:56Z</time>
      </trkpt>
      <trkpt lat="46.50182" lon="5.89721">
        <ele>931</ele>
        <time>2021-10-17T15:38:57Z</time>
      </trkpt>
      <trkpt lat="46.50192" lon="5.89717">
        <ele>930.4</ele>
        <time>2021-10-17T15:38:58Z</time>
      </trkpt>
      <trkpt lat="46.50201" lon="5.89713">
        <ele>930</ele>
        <time>2021-10-17T15:38:59Z</time>
      </trkpt>
      <trkpt lat="46.50211" lon="5.89709">
        <ele>929.4</ele>
        <time>2021-10-17T15:39:00Z</time>
      </trkpt>
      <trkpt lat="46.50222" lon="5.89705">
        <ele>929</ele>
        <time>2021-10-17T15:39:01Z</time>
      </trkpt>
      <trkpt lat="46.50233" lon="5.89701">
        <ele>928.4</ele>
        <time>2021-10-17T15:39:02Z</time>
      </trkpt>
      <trkpt lat="46.50243" lon="5.89697">
        <ele>927.8</ele>
        <time>2021-10-17T15:39:03Z</time>
      </trkpt>
      <trkpt lat="46.50253" lon="5.89693">
        <ele>927.2</ele>
        <time>2021-10-17T15:39:04Z</time>
      </trkpt>
      <trkpt lat="46.50264" lon="5.89689">
        <ele>926.6</ele>
        <time>2021-10-17T15:39:05Z</time>
      </trkpt>
      <trkpt lat="46.50274" lon="5.89685">
        <ele>926</ele>
        <time>2021-10-17T15:39:06Z</time>
      </trkpt>
      <trkpt lat="46.50284" lon="5.89681">
        <ele>925.4</ele>
        <time>2021-10-17T15:39:07Z</time>
      </trkpt>
      <trkpt lat="46.50294" lon="5.89676">
        <ele>925.2</ele>
        <time>2021-10-17T15:39:08Z</time>
      </trkpt>
      <trkpt lat="46.50304" lon="5.89671">
        <ele>924.8</ele>
        <time>2021-10-17T15:39:09Z</time>
      </trkpt>
      <trkpt lat="46.50313" lon="5.89667">
        <ele>924.8</ele>
        <time>2021-10-17T15:39:10Z</time>
      </trkpt>
      <trkpt lat="46.50322" lon="5.89663">
        <ele>924.6</ele>
        <time>2021-10-17T15:39:11Z</time>
      </trkpt>
      <trkpt lat="46.50331" lon="5.89659">
        <ele>924.6</ele>
        <time>2021-10-17T15:39:12Z</time>
      </trkpt>
      <trkpt lat="46.50339" lon="5.89655">
        <ele>924.2</ele>
        <time>2021-10-17T15:39:13Z</time>
      </trkpt>
      <trkpt lat="46.50348" lon="5.89651">
        <ele>924.2</ele>
        <time>2021-10-17T15:39:14Z</time>
      </trkpt>
      <trkpt lat="46.50356" lon="5.89647">
        <ele>924</ele>
        <time>2021-10-17T15:39:15Z</time>
      </trkpt>
      <trkpt lat="46.50365" lon="5.89644">
        <ele>923.8</ele>
        <time>2021-10-17T15:39:16Z</time>
      </trkpt>
      <trkpt lat="46.50373" lon="5.8964">
        <ele>923.8</ele>
        <time>2021-10-17T15:39:17Z</time>
      </trkpt>
      <trkpt lat="46.50381" lon="5.89637">
        <ele>923.4</ele>
        <time>2021-10-17T15:39:18Z</time>
      </trkpt>
      <trkpt lat="46.5039" lon="5.89633">
        <ele>923.2</ele>
        <time>2021-10-17T15:39:19Z</time>
      </trkpt>
      <trkpt lat="46.50398" lon="5.89629">
        <ele>923</ele>
        <time>2021-10-17T15:39:20Z</time>
      </trkpt>
      <trkpt lat="46.50407" lon="5.89626">
        <ele>922.6</ele>
        <time>2021-10-17T15:39:21Z</time>
      </trkpt>
      <trkpt lat="46.50415" lon="5.89623">
        <ele>922.2</ele>
        <time>2021-10-17T15:39:22Z</time>
      </trkpt>
      <trkpt lat="46.50424" lon="5.89618">
        <ele>922</ele>
        <time>2021-10-17T15:39:23Z</time>
      </trkpt>
      <trkpt lat="46.50433" lon="5.89613">
        <ele>921.4</ele>
        <time>2021-10-17T15:39:24Z</time>
      </trkpt>
      <trkpt lat="46.50442" lon="5.89607">
        <ele>921</ele>
        <time>2021-10-17T15:39:25Z</time>
      </trkpt>
      <trkpt lat="46.50451" lon="5.89602">
        <ele>920.6</ele>
        <time>2021-10-17T15:39:26Z</time>
      </trkpt>
      <trkpt lat="46.50462" lon="5.896">
        <ele>920</ele>
        <time>2021-10-17T15:39:27Z</time>
      </trkpt>
      <trkpt lat="46.50472" lon="5.89597">
        <ele>919.4</ele>
        <time>2021-10-17T15:39:28Z</time>
      </trkpt>
      <trkpt lat="46.50482" lon="5.89593">
        <ele>919</ele>
        <time>2021-10-17T15:39:29Z</time>
      </trkpt>
      <trkpt lat="46.50493" lon="5.8959">
        <ele>918.4</ele>
        <time>2021-10-17T15:39:30Z</time>
      </trkpt>
      <trkpt lat="46.50503" lon="5.89585">
        <ele>918</ele>
        <time>2021-10-17T15:39:31Z</time>
      </trkpt>
      <trkpt lat="46.50512" lon="5.8958">
        <ele>917.6</ele>
        <time>2021-10-17T15:39:32Z</time>
      </trkpt>
      <trkpt lat="46.50522" lon="5.89575">
        <ele>917.2</ele>
        <time>2021-10-17T15:39:33Z</time>
      </trkpt>
      <trkpt lat="46.50531" lon="5.89571">
        <ele>917</ele>
        <time>2021-10-17T15:39:34Z</time>
      </trkpt>
      <trkpt lat="46.50541" lon="5.89567">
        <ele>916.8</ele>
        <time>2021-10-17T15:39:35Z</time>
      </trkpt>
      <trkpt lat="46.50549" lon="5.89563">
        <ele>916.8</ele>
        <time>2021-10-17T15:39:36Z</time>
      </trkpt>
      <trkpt lat="46.50558" lon="5.89559">
        <ele>916.6</ele>
        <time>2021-10-17T15:39:37Z</time>
      </trkpt>
      <trkpt lat="46.50566" lon="5.89556">
        <ele>916.6</ele>
        <time>2021-10-17T15:39:38Z</time>
      </trkpt>
      <trkpt lat="46.50574" lon="5.89552">
        <ele>916.6</ele>
        <time>2021-10-17T15:39:39Z</time>
      </trkpt>
      <trkpt lat="46.50581" lon="5.89548">
        <ele>916.8</ele>
        <time>2021-10-17T15:39:40Z</time>
      </trkpt>
      <trkpt lat="46.50589" lon="5.89545">
        <ele>916.8</ele>
        <time>2021-10-17T15:39:41Z</time>
      </trkpt>
      <trkpt lat="46.50595" lon="5.89541">
        <ele>917.2</ele>
        <time>2021-10-17T15:39:42Z</time>
      </trkpt>
      <trkpt lat="46.50601" lon="5.89536">
        <ele>917.6</ele>
        <time>2021-10-17T15:39:43Z</time>
      </trkpt>
      <trkpt lat="46.50606" lon="5.8953">
        <ele>917.8</ele>
        <time>2021-10-17T15:39:44Z</time>
      </trkpt>
      <trkpt lat="46.5061" lon="5.89523">
        <ele>918</ele>
        <time>2021-10-17T15:39:45Z</time>
      </trkpt>
      <trkpt lat="46.50612" lon="5.89515">
        <ele>918.4</ele>
        <time>2021-10-17T15:39:46Z</time>
      </trkpt>
      <trkpt lat="46.50614" lon="5.89507">
        <ele>918.6</ele>
        <time>2021-10-17T15:39:47Z</time>
      </trkpt>
      <trkpt lat="46.50616" lon="5.89499">
        <ele>919</ele>
        <time>2021-10-17T15:39:48Z</time>
      </trkpt>
      <trkpt lat="46.50617" lon="5.89491">
        <ele>919.2</ele>
        <time>2021-10-17T15:39:49Z</time>
      </trkpt>
      <trkpt lat="46.50618" lon="5.89483">
        <ele>919.2</ele>
        <time>2021-10-17T15:39:50Z</time>
      </trkpt>
      <trkpt lat="46.50619" lon="5.89476">
        <ele>919.6</ele>
        <time>2021-10-17T15:39:51Z</time>
      </trkpt>
      <trkpt lat="46.5062" lon="5.89469">
        <ele>919.6</ele>
        <time>2021-10-17T15:39:52Z</time>
      </trkpt>
      <trkpt lat="46.5062" lon="5.89462">
        <ele>920</ele>
        <time>2021-10-17T15:39:53Z</time>
      </trkpt>
      <trkpt lat="46.50621" lon="5.89455">
        <ele>920</ele>
        <time>2021-10-17T15:39:54Z</time>
      </trkpt>
      <trkpt lat="46.50622" lon="5.89448">
        <ele>920.2</ele>
        <time>2021-10-17T15:39:55Z</time>
      </trkpt>
      <trkpt lat="46.50622" lon="5.89442">
        <ele>920.6</ele>
        <time>2021-10-17T15:39:56Z</time>
      </trkpt>
      <trkpt lat="46.50623" lon="5.89435">
        <ele>920.8</ele>
        <time>2021-10-17T15:39:57Z</time>
      </trkpt>
      <trkpt lat="46.50624" lon="5.89429">
        <ele>920.8</ele>
        <time>2021-10-17T15:39:58Z</time>
      </trkpt>
      <trkpt lat="46.50625" lon="5.89423">
        <ele>921</ele>
        <time>2021-10-17T15:39:59Z</time>
      </trkpt>
      <trkpt lat="46.50627" lon="5.89416">
        <ele>921</ele>
        <time>2021-10-17T15:40:00Z</time>
      </trkpt>
      <trkpt lat="46.50628" lon="5.8941">
        <ele>921.4</ele>
        <time>2021-10-17T15:40:01Z</time>
      </trkpt>
      <trkpt lat="46.50629" lon="5.89403">
        <ele>921.6</ele>
        <time>2021-10-17T15:40:02Z</time>
      </trkpt>
      <trkpt lat="46.5063" lon="5.89396">
        <ele>921.6</ele>
        <time>2021-10-17T15:40:03Z</time>
      </trkpt>
      <trkpt lat="46.50631" lon="5.89389">
        <ele>922.2</ele>
        <time>2021-10-17T15:40:04Z</time>
      </trkpt>
      <trkpt lat="46.50633" lon="5.89381">
        <ele>922.4</ele>
        <time>2021-10-17T15:40:05Z</time>
      </trkpt>
      <trkpt lat="46.50635" lon="5.89374">
        <ele>922.6</ele>
        <time>2021-10-17T15:40:06Z</time>
      </trkpt>
      <trkpt lat="46.50637" lon="5.89368">
        <ele>922.8</ele>
        <time>2021-10-17T15:40:07Z</time>
      </trkpt>
      <trkpt lat="46.50639" lon="5.89361">
        <ele>923</ele>
        <time>2021-10-17T15:40:08Z</time>
      </trkpt>
      <trkpt lat="46.50641" lon="5.89355">
        <ele>923</ele>
        <time>2021-10-17T15:40:09Z</time>
      </trkpt>
      <trkpt lat="46.50644" lon="5.89349">
        <ele>923.4</ele>
        <time>2021-10-17T15:40:10Z</time>
      </trkpt>
      <trkpt lat="46.50646" lon="5.89343">
        <ele>923.4</ele>
        <time>2021-10-17T15:40:11Z</time>
      </trkpt>
      <trkpt lat="46.50648" lon="5.89337">
        <ele>923.8</ele>
        <time>2021-10-17T15:40:12Z</time>
      </trkpt>
      <trkpt lat="46.50651" lon="5.89331">
        <ele>923.8</ele>
        <time>2021-10-17T15:40:13Z</time>
      </trkpt>
      <trkpt lat="46.50653" lon="5.89324">
        <ele>924</ele>
        <time>2021-10-17T15:40:14Z</time>
      </trkpt>
      <trkpt lat="46.50655" lon="5.89318">
        <ele>924.2</ele>
        <time>2021-10-17T15:40:15Z</time>
      </trkpt>
      <trkpt lat="46.50657" lon="5.89312">
        <ele>924.2</ele>
        <time>2021-10-17T15:40:16Z</time>
      </trkpt>
      <trkpt lat="46.50658" lon="5.89305">
        <ele>924.6</ele>
        <time>2021-10-17T15:40:17Z</time>
      </trkpt>
      <trkpt lat="46.50659" lon="5.89298">
        <ele>924.6</ele>
        <time>2021-10-17T15:40:18Z</time>
      </trkpt>
      <trkpt lat="46.5066" lon="5.89291">
        <ele>924.6</ele>
        <time>2021-10-17T15:40:19Z</time>
      </trkpt>
      <trkpt lat="46.50661" lon="5.89284">
        <ele>924.8</ele>
        <time>2021-10-17T15:40:20Z</time>
      </trkpt>
      <trkpt lat="46.50661" lon="5.89278">
        <ele>924.8</ele>
        <time>2021-10-17T15:40:21Z</time>
      </trkpt>
      <trkpt lat="46.50662" lon="5.89271">
        <ele>925</ele>
        <time>2021-10-17T15:40:22Z</time>
      </trkpt>
      <trkpt lat="46.50662" lon="5.89264">
        <ele>925</ele>
        <time>2021-10-17T15:40:23Z</time>
      </trkpt>
      <trkpt lat="46.50662" lon="5.89257">
        <ele>925.4</ele>
        <time>2021-10-17T15:40:24Z</time>
      </trkpt>
      <trkpt lat="46.50662" lon="5.8925">
        <ele>925.4</ele>
        <time>2021-10-17T15:40:25Z</time>
      </trkpt>
      <trkpt lat="46.50662" lon="5.89244">
        <ele>925.6</ele>
        <time>2021-10-17T15:40:26Z</time>
      </trkpt>
      <trkpt lat="46.50661" lon="5.89237">
        <ele>925.6</ele>
        <time>2021-10-17T15:40:27Z</time>
      </trkpt>
      <trkpt lat="46.5066" lon="5.89231">
        <ele>925.8</ele>
        <time>2021-10-17T15:40:28Z</time>
      </trkpt>
      <trkpt lat="46.50659" lon="5.89225">
        <ele>925.8</ele>
        <time>2021-10-17T15:40:29Z</time>
      </trkpt>
      <trkpt lat="46.50658" lon="5.89219">
        <ele>926.2</ele>
        <time>2021-10-17T15:40:30Z</time>
      </trkpt>
      <trkpt lat="46.50657" lon="5.89212">
        <ele>926.2</ele>
        <time>2021-10-17T15:40:31Z</time>
      </trkpt>
      <trkpt lat="46.50656" lon="5.89206">
        <ele>926.6</ele>
        <time>2021-10-17T15:40:32Z</time>
      </trkpt>
      <trkpt lat="46.50655" lon="5.89199">
        <ele>926.8</ele>
        <time>2021-10-17T15:40:33Z</time>
      </trkpt>
      <trkpt lat="46.50655" lon="5.89193">
        <ele>926.8</ele>
        <time>2021-10-17T15:40:34Z</time>
      </trkpt>
      <trkpt lat="46.50654" lon="5.89186">
        <ele>927</ele>
        <time>2021-10-17T15:40:35Z</time>
      </trkpt>
      <trkpt lat="46.50653" lon="5.8918">
        <ele>927</ele>
        <time>2021-10-17T15:40:36Z</time>
      </trkpt>
      <trkpt lat="46.50653" lon="5.89174">
        <ele>927.4</ele>
        <time>2021-10-17T15:40:37Z</time>
      </trkpt>
      <trkpt lat="46.50652" lon="5.89167">
        <ele>927.4</ele>
        <time>2021-10-17T15:40:38Z</time>
      </trkpt>
      <trkpt lat="46.50652" lon="5.89161">
        <ele>927.6</ele>
        <time>2021-10-17T15:40:39Z</time>
      </trkpt>
      <trkpt lat="46.50652" lon="5.89155">
        <ele>927.6</ele>
        <time>2021-10-17T15:40:40Z</time>
      </trkpt>
      <trkpt lat="46.50652" lon="5.89149">
        <ele>927.8</ele>
        <time>2021-10-17T15:40:41Z</time>
      </trkpt>
      <trkpt lat="46.50652" lon="5.89143">
        <ele>927.8</ele>
        <time>2021-10-17T15:40:42Z</time>
      </trkpt>
      <trkpt lat="46.50652" lon="5.89136">
        <ele>928.2</ele>
        <time>2021-10-17T15:40:43Z</time>
      </trkpt>
      <trkpt lat="46.50652" lon="5.8913">
        <ele>928.4</ele>
        <time>2021-10-17T15:40:44Z</time>
      </trkpt>
      <trkpt lat="46.50652" lon="5.89124">
        <ele>928.6</ele>
        <time>2021-10-17T15:40:45Z</time>
      </trkpt>
      <trkpt lat="46.50652" lon="5.89118">
        <ele>928.6</ele>
        <time>2021-10-17T15:40:46Z</time>
      </trkpt>
      <trkpt lat="46.50651" lon="5.89112">
        <ele>929</ele>
        <time>2021-10-17T15:40:47Z</time>
      </trkpt>
      <trkpt lat="46.50651" lon="5.89106">
        <ele>929</ele>
        <time>2021-10-17T15:40:48Z</time>
      </trkpt>
      <trkpt lat="46.50651" lon="5.891">
        <ele>929.2</ele>
        <time>2021-10-17T15:40:49Z</time>
      </trkpt>
      <trkpt lat="46.50651" lon="5.89094">
        <ele>929.2</ele>
        <time>2021-10-17T15:40:50Z</time>
      </trkpt>
      <trkpt lat="46.50651" lon="5.89088">
        <ele>929.2</ele>
        <time>2021-10-17T15:40:51Z</time>
      </trkpt>
      <trkpt lat="46.50651" lon="5.89081">
        <ele>929.6</ele>
        <time>2021-10-17T15:40:52Z</time>
      </trkpt>
      <trkpt lat="46.5065" lon="5.89075">
        <ele>929.6</ele>
        <time>2021-10-17T15:40:53Z</time>
      </trkpt>
      <trkpt lat="46.50649" lon="5.89068">
        <ele>929.6</ele>
        <time>2021-10-17T15:40:54Z</time>
      </trkpt>
      <trkpt lat="46.50649" lon="5.89062">
        <ele>929.8</ele>
        <time>2021-10-17T15:40:55Z</time>
      </trkpt>
      <trkpt lat="46.50648" lon="5.89056">
        <ele>930</ele>
        <time>2021-10-17T15:40:56Z</time>
      </trkpt>
      <trkpt lat="46.50647" lon="5.8905">
        <ele>930</ele>
        <time>2021-10-17T15:40:57Z</time>
      </trkpt>
      <trkpt lat="46.50646" lon="5.89045">
        <ele>930.2</ele>
        <time>2021-10-17T15:40:58Z</time>
      </trkpt>
      <trkpt lat="46.50644" lon="5.89039">
        <ele>930.2</ele>
        <time>2021-10-17T15:40:59Z</time>
      </trkpt>
      <trkpt lat="46.50643" lon="5.89034">
        <ele>930.6</ele>
        <time>2021-10-17T15:41:00Z</time>
      </trkpt>
      <trkpt lat="46.50641" lon="5.89029">
        <ele>930.6</ele>
        <time>2021-10-17T15:41:01Z</time>
      </trkpt>
      <trkpt lat="46.50639" lon="5.89025">
        <ele>930.8</ele>
        <time>2021-10-17T15:41:02Z</time>
      </trkpt>
      <trkpt lat="46.50637" lon="5.89021">
        <ele>931</ele>
        <time>2021-10-17T15:41:03Z</time>
      </trkpt>
      <trkpt lat="46.50635" lon="5.89017">
        <ele>931</ele>
        <time>2021-10-17T15:41:04Z</time>
      </trkpt>
      <trkpt lat="46.50632" lon="5.89013">
        <ele>931.4</ele>
        <time>2021-10-17T15:41:05Z</time>
      </trkpt>
      <trkpt lat="46.5063" lon="5.89009">
        <ele>931.4</ele>
        <time>2021-10-17T15:41:06Z</time>
      </trkpt>
      <trkpt lat="46.50627" lon="5.89005">
        <ele>931.6</ele>
        <time>2021-10-17T15:41:07Z</time>
      </trkpt>
      <trkpt lat="46.50625" lon="5.89001">
        <ele>931.6</ele>
        <time>2021-10-17T15:41:08Z</time>
      </trkpt>
      <trkpt lat="46.50623" lon="5.88997">
        <ele>931.8</ele>
        <time>2021-10-17T15:41:09Z</time>
      </trkpt>
      <trkpt lat="46.50621" lon="5.88992">
        <ele>931.8</ele>
        <time>2021-10-17T15:41:10Z</time>
      </trkpt>
      <trkpt lat="46.50618" lon="5.88988">
        <ele>932</ele>
        <time>2021-10-17T15:41:11Z</time>
      </trkpt>
      <trkpt lat="46.50616" lon="5.88983">
        <ele>932</ele>
        <time>2021-10-17T15:41:12Z</time>
      </trkpt>
      <trkpt lat="46.50613" lon="5.88979">
        <ele>932</ele>
        <time>2021-10-17T15:41:13Z</time>
      </trkpt>
      <trkpt lat="46.5061" lon="5.88974">
        <ele>932</ele>
        <time>2021-10-17T15:41:14Z</time>
      </trkpt>
      <trkpt lat="46.50607" lon="5.8897">
        <ele>932.2</ele>
        <time>2021-10-17T15:41:15Z</time>
      </trkpt>
      <trkpt lat="46.50605" lon="5.88965">
        <ele>932.2</ele>
        <time>2021-10-17T15:41:16Z</time>
      </trkpt>
      <trkpt lat="46.50602" lon="5.8896">
        <ele>932.2</ele>
        <time>2021-10-17T15:41:17Z</time>
      </trkpt>
      <trkpt lat="46.50599" lon="5.88955">
        <ele>932.4</ele>
        <time>2021-10-17T15:41:18Z</time>
      </trkpt>
      <trkpt lat="46.50597" lon="5.8895">
        <ele>932.4</ele>
        <time>2021-10-17T15:41:19Z</time>
      </trkpt>
      <trkpt lat="46.50594" lon="5.88945">
        <ele>932.4</ele>
        <time>2021-10-17T15:41:20Z</time>
      </trkpt>
      <trkpt lat="46.50592" lon="5.8894">
        <ele>932.4</ele>
        <time>2021-10-17T15:41:21Z</time>
      </trkpt>
      <trkpt lat="46.50589" lon="5.88935">
        <ele>932.8</ele>
        <time>2021-10-17T15:41:22Z</time>
      </trkpt>
      <trkpt lat="46.50586" lon="5.8893">
        <ele>932.8</ele>
        <time>2021-10-17T15:41:23Z</time>
      </trkpt>
      <trkpt lat="46.50584" lon="5.88925">
        <ele>932.8</ele>
        <time>2021-10-17T15:41:24Z</time>
      </trkpt>
      <trkpt lat="46.50582" lon="5.88919">
        <ele>933</ele>
        <time>2021-10-17T15:41:25Z</time>
      </trkpt>
      <trkpt lat="46.50579" lon="5.88913">
        <ele>933</ele>
        <time>2021-10-17T15:41:26Z</time>
      </trkpt>
      <trkpt lat="46.50577" lon="5.88907">
        <ele>933</ele>
        <time>2021-10-17T15:41:27Z</time>
      </trkpt>
      <trkpt lat="46.50575" lon="5.88901">
        <ele>933</ele>
        <time>2021-10-17T15:41:28Z</time>
      </trkpt>
      <trkpt lat="46.50573" lon="5.88895">
        <ele>933</ele>
        <time>2021-10-17T15:41:29Z</time>
      </trkpt>
      <trkpt lat="46.50572" lon="5.88888">
        <ele>933</ele>
        <time>2021-10-17T15:41:30Z</time>
      </trkpt>
      <trkpt lat="46.50572" lon="5.8888">
        <ele>933</ele>
        <time>2021-10-17T15:41:31Z</time>
      </trkpt>
      <trkpt lat="46.50573" lon="5.88872">
        <ele>933</ele>
        <time>2021-10-17T15:41:32Z</time>
      </trkpt>
      <trkpt lat="46.50575" lon="5.88865">
        <ele>932.8</ele>
        <time>2021-10-17T15:41:33Z</time>
      </trkpt>
      <trkpt lat="46.50578" lon="5.88857">
        <ele>932.8</ele>
        <time>2021-10-17T15:41:34Z</time>
      </trkpt>
      <trkpt lat="46.50581" lon="5.8885">
        <ele>932.8</ele>
        <time>2021-10-17T15:41:35Z</time>
      </trkpt>
      <trkpt lat="46.50585" lon="5.88843">
        <ele>932.6</ele>
        <time>2021-10-17T15:41:36Z</time>
      </trkpt>
      <trkpt lat="46.50589" lon="5.88837">
        <ele>932.6</ele>
        <time>2021-10-17T15:41:37Z</time>
      </trkpt>
      <trkpt lat="46.50594" lon="5.8883">
        <ele>932.2</ele>
        <time>2021-10-17T15:41:38Z</time>
      </trkpt>
      <trkpt lat="46.50599" lon="5.88822">
        <ele>932</ele>
        <time>2021-10-17T15:41:39Z</time>
      </trkpt>
      <trkpt lat="46.50604" lon="5.88815">
        <ele>932</ele>
        <time>2021-10-17T15:41:40Z</time>
      </trkpt>
      <trkpt lat="46.50609" lon="5.88808">
        <ele>931.8</ele>
        <time>2021-10-17T15:41:41Z</time>
      </trkpt>
      <trkpt lat="46.50614" lon="5.888">
        <ele>931.6</ele>
        <time>2021-10-17T15:41:42Z</time>
      </trkpt>
      <trkpt lat="46.50619" lon="5.88791">
        <ele>931.2</ele>
        <time>2021-10-17T15:41:43Z</time>
      </trkpt>
      <trkpt lat="46.50624" lon="5.88782">
        <ele>931</ele>
        <time>2021-10-17T15:41:44Z</time>
      </trkpt>
      <trkpt lat="46.50628" lon="5.88773">
        <ele>930.8</ele>
        <time>2021-10-17T15:41:45Z</time>
      </trkpt>
      <trkpt lat="46.50631" lon="5.88764">
        <ele>930.6</ele>
        <time>2021-10-17T15:41:46Z</time>
      </trkpt>
      <trkpt lat="46.50634" lon="5.88753">
        <ele>930.2</ele>
        <time>2021-10-17T15:41:47Z</time>
      </trkpt>
      <trkpt lat="46.50637" lon="5.88742">
        <ele>929.8</ele>
        <time>2021-10-17T15:41:48Z</time>
      </trkpt>
      <trkpt lat="46.50639" lon="5.88731">
        <ele>929.6</ele>
        <time>2021-10-17T15:41:49Z</time>
      </trkpt>
      <trkpt lat="46.50642" lon="5.88719">
        <ele>929.2</ele>
        <time>2021-10-17T15:41:50Z</time>
      </trkpt>
      <trkpt lat="46.50643" lon="5.88707">
        <ele>928.8</ele>
        <time>2021-10-17T15:41:51Z</time>
      </trkpt>
      <trkpt lat="46.50645" lon="5.88696">
        <ele>928.4</ele>
        <time>2021-10-17T15:41:52Z</time>
      </trkpt>
      <trkpt lat="46.50647" lon="5.88683">
        <ele>928</ele>
        <time>2021-10-17T15:41:53Z</time>
      </trkpt>
      <trkpt lat="46.50649" lon="5.88671">
        <ele>927.8</ele>
        <time>2021-10-17T15:41:54Z</time>
      </trkpt>
      <trkpt lat="46.50651" lon="5.8866">
        <ele>927.4</ele>
        <time>2021-10-17T15:41:55Z</time>
      </trkpt>
      <trkpt lat="46.50655" lon="5.88649">
        <ele>927.2</ele>
        <time>2021-10-17T15:41:56Z</time>
      </trkpt>
      <trkpt lat="46.50659" lon="5.88638">
        <ele>927.2</ele>
        <time>2021-10-17T15:41:57Z</time>
      </trkpt>
      <trkpt lat="46.50664" lon="5.88629">
        <ele>927</ele>
        <time>2021-10-17T15:41:58Z</time>
      </trkpt>
      <trkpt lat="46.50669" lon="5.8862">
        <ele>927</ele>
        <time>2021-10-17T15:41:59Z</time>
      </trkpt>
      <trkpt lat="46.50674" lon="5.88611">
        <ele>926.6</ele>
        <time>2021-10-17T15:42:00Z</time>
      </trkpt>
      <trkpt lat="46.5068" lon="5.88603">
        <ele>926.6</ele>
        <time>2021-10-17T15:42:01Z</time>
      </trkpt>
      <trkpt lat="46.50686" lon="5.88595">
        <ele>926.4</ele>
        <time>2021-10-17T15:42:02Z</time>
      </trkpt>
      <trkpt lat="46.50692" lon="5.88589">
        <ele>926.4</ele>
        <time>2021-10-17T15:42:03Z</time>
      </trkpt>
      <trkpt lat="46.50699" lon="5.88583">
        <ele>926.4</ele>
        <time>2021-10-17T15:42:04Z</time>
      </trkpt>
      <trkpt lat="46.50706" lon="5.88578">
        <ele>926</ele>
        <time>2021-10-17T15:42:05Z</time>
      </trkpt>
      <trkpt lat="46.50714" lon="5.88574">
        <ele>925.8</ele>
        <time>2021-10-17T15:42:06Z</time>
      </trkpt>
      <trkpt lat="46.50722" lon="5.88571">
        <ele>925.6</ele>
        <time>2021-10-17T15:42:07Z</time>
      </trkpt>
      <trkpt lat="46.5073" lon="5.88568">
        <ele>925.4</ele>
        <time>2021-10-17T15:42:08Z</time>
      </trkpt>
      <trkpt lat="46.50739" lon="5.88567">
        <ele>925</ele>
        <time>2021-10-17T15:42:09Z</time>
      </trkpt>
      <trkpt lat="46.50748" lon="5.88565">
        <ele>924.6</ele>
        <time>2021-10-17T15:42:10Z</time>
      </trkpt>
      <trkpt lat="46.50757" lon="5.88564">
        <ele>924</ele>
        <time>2021-10-17T15:42:11Z</time>
      </trkpt>
      <trkpt lat="46.50767" lon="5.88562">
        <ele>923.4</ele>
        <time>2021-10-17T15:42:12Z</time>
      </trkpt>
      <trkpt lat="46.50777" lon="5.88563">
        <ele>922.8</ele>
        <time>2021-10-17T15:42:13Z</time>
      </trkpt>
      <trkpt lat="46.50788" lon="5.88564">
        <ele>922.2</ele>
        <time>2021-10-17T15:42:14Z</time>
      </trkpt>
      <trkpt lat="46.50798" lon="5.88566">
        <ele>921.4</ele>
        <time>2021-10-17T15:42:15Z</time>
      </trkpt>
      <trkpt lat="46.50808" lon="5.88568">
        <ele>920.8</ele>
        <time>2021-10-17T15:42:16Z</time>
      </trkpt>
      <trkpt lat="46.50819" lon="5.88571">
        <ele>920.2</ele>
        <time>2021-10-17T15:42:17Z</time>
      </trkpt>
      <trkpt lat="46.5083" lon="5.88575">
        <ele>919.6</ele>
        <time>2021-10-17T15:42:18Z</time>
      </trkpt>
      <trkpt lat="46.50841" lon="5.8858">
        <ele>919</ele>
        <time>2021-10-17T15:42:19Z</time>
      </trkpt>
      <trkpt lat="46.50851" lon="5.88586">
        <ele>918.2</ele>
        <time>2021-10-17T15:42:20Z</time>
      </trkpt>
      <trkpt lat="46.50861" lon="5.88591">
        <ele>917.6</ele>
        <time>2021-10-17T15:42:21Z</time>
      </trkpt>
      <trkpt lat="46.50871" lon="5.88598">
        <ele>916.8</ele>
        <time>2021-10-17T15:42:22Z</time>
      </trkpt>
      <trkpt lat="46.50881" lon="5.88603">
        <ele>916.2</ele>
        <time>2021-10-17T15:42:23Z</time>
      </trkpt>
      <trkpt lat="46.5089" lon="5.88608">
        <ele>915.6</ele>
        <time>2021-10-17T15:42:24Z</time>
      </trkpt>
      <trkpt lat="46.50899" lon="5.88613">
        <ele>914.8</ele>
        <time>2021-10-17T15:42:25Z</time>
      </trkpt>
      <trkpt lat="46.50908" lon="5.88618">
        <ele>914.2</ele>
        <time>2021-10-17T15:42:26Z</time>
      </trkpt>
      <trkpt lat="46.50916" lon="5.88621">
        <ele>913.6</ele>
        <time>2021-10-17T15:42:27Z</time>
      </trkpt>
      <trkpt lat="46.50924" lon="5.88621">
        <ele>913.2</ele>
        <time>2021-10-17T15:42:28Z</time>
      </trkpt>
      <trkpt lat="46.50932" lon="5.88619">
        <ele>912.6</ele>
        <time>2021-10-17T15:42:29Z</time>
      </trkpt>
      <trkpt lat="46.5094" lon="5.88616">
        <ele>912</ele>
        <time>2021-10-17T15:42:30Z</time>
      </trkpt>
      <trkpt lat="46.50947" lon="5.88609">
        <ele>911.4</ele>
        <time>2021-10-17T15:42:31Z</time>
      </trkpt>
      <trkpt lat="46.50952" lon="5.88601">
        <ele>911</ele>
        <time>2021-10-17T15:42:32Z</time>
      </trkpt>
      <trkpt lat="46.50956" lon="5.88591">
        <ele>910.6</ele>
        <time>2021-10-17T15:42:33Z</time>
      </trkpt>
      <trkpt lat="46.50958" lon="5.8858">
        <ele>910.4</ele>
        <time>2021-10-17T15:42:34Z</time>
      </trkpt>
      <trkpt lat="46.50959" lon="5.88568">
        <ele>910.2</ele>
        <time>2021-10-17T15:42:35Z</time>
      </trkpt>
      <trkpt lat="46.50959" lon="5.88557">
        <ele>910.2</ele>
        <time>2021-10-17T15:42:36Z</time>
      </trkpt>
      <trkpt lat="46.50959" lon="5.88545">
        <ele>909.8</ele>
        <time>2021-10-17T15:42:37Z</time>
      </trkpt>
      <trkpt lat="46.5096" lon="5.88533">
        <ele>909.8</ele>
        <time>2021-10-17T15:42:38Z</time>
      </trkpt>
      <trkpt lat="46.50959" lon="5.88522">
        <ele>909.6</ele>
        <time>2021-10-17T15:42:39Z</time>
      </trkpt>
      <trkpt lat="46.50959" lon="5.88511">
        <ele>909.6</ele>
        <time>2021-10-17T15:42:40Z</time>
      </trkpt>
      <trkpt lat="46.50959" lon="5.88499">
        <ele>909</ele>
        <time>2021-10-17T15:42:41Z</time>
      </trkpt>
      <trkpt lat="46.5096" lon="5.88487">
        <ele>908.8</ele>
        <time>2021-10-17T15:42:42Z</time>
      </trkpt>
      <trkpt lat="46.5096" lon="5.88475">
        <ele>908.6</ele>
        <time>2021-10-17T15:42:43Z</time>
      </trkpt>
      <trkpt lat="46.5096" lon="5.88463">
        <ele>908.2</ele>
        <time>2021-10-17T15:42:44Z</time>
      </trkpt>
      <trkpt lat="46.5096" lon="5.88451">
        <ele>908</ele>
        <time>2021-10-17T15:42:45Z</time>
      </trkpt>
      <trkpt lat="46.5096" lon="5.88438">
        <ele>907.6</ele>
        <time>2021-10-17T15:42:46Z</time>
      </trkpt>
      <trkpt lat="46.50961" lon="5.88426">
        <ele>907.2</ele>
        <time>2021-10-17T15:42:47Z</time>
      </trkpt>
      <trkpt lat="46.50961" lon="5.88413">
        <ele>906.8</ele>
        <time>2021-10-17T15:42:48Z</time>
      </trkpt>
      <trkpt lat="46.50961" lon="5.884">
        <ele>906.6</ele>
        <time>2021-10-17T15:42:49Z</time>
      </trkpt>
      <trkpt lat="46.50961" lon="5.88387">
        <ele>906.2</ele>
        <time>2021-10-17T15:42:50Z</time>
      </trkpt>
      <trkpt lat="46.50962" lon="5.88373">
        <ele>905.8</ele>
        <time>2021-10-17T15:42:51Z</time>
      </trkpt>
      <trkpt lat="46.50963" lon="5.88359">
        <ele>905.6</ele>
        <time>2021-10-17T15:42:52Z</time>
      </trkpt>
      <trkpt lat="46.50964" lon="5.88346">
        <ele>905.2</ele>
        <time>2021-10-17T15:42:53Z</time>
      </trkpt>
      <trkpt lat="46.50965" lon="5.88332">
        <ele>904.6</ele>
        <time>2021-10-17T15:42:54Z</time>
      </trkpt>
      <trkpt lat="46.50967" lon="5.88317">
        <ele>904</ele>
        <time>2021-10-17T15:42:55Z</time>
      </trkpt>
      <trkpt lat="46.50968" lon="5.88303">
        <ele>903.6</ele>
        <time>2021-10-17T15:42:56Z</time>
      </trkpt>
      <trkpt lat="46.50968" lon="5.88288">
        <ele>903.2</ele>
        <time>2021-10-17T15:42:57Z</time>
      </trkpt>
      <trkpt lat="46.50969" lon="5.88273">
        <ele>902.6</ele>
        <time>2021-10-17T15:42:58Z</time>
      </trkpt>
      <trkpt lat="46.5097" lon="5.88259">
        <ele>902.2</ele>
        <time>2021-10-17T15:42:59Z</time>
      </trkpt>
      <trkpt lat="46.50971" lon="5.88245">
        <ele>901.6</ele>
        <time>2021-10-17T15:43:00Z</time>
      </trkpt>
      <trkpt lat="46.50973" lon="5.8823">
        <ele>901.2</ele>
        <time>2021-10-17T15:43:01Z</time>
      </trkpt>
      <trkpt lat="46.50975" lon="5.88215">
        <ele>900.6</ele>
        <time>2021-10-17T15:43:02Z</time>
      </trkpt>
      <trkpt lat="46.50977" lon="5.882">
        <ele>900</ele>
        <time>2021-10-17T15:43:03Z</time>
      </trkpt>
      <trkpt lat="46.5098" lon="5.88186">
        <ele>899.4</ele>
        <time>2021-10-17T15:43:04Z</time>
      </trkpt>
      <trkpt lat="46.50983" lon="5.88171">
        <ele>898.8</ele>
        <time>2021-10-17T15:43:05Z</time>
      </trkpt>
      <trkpt lat="46.50986" lon="5.88156">
        <ele>898.2</ele>
        <time>2021-10-17T15:43:06Z</time>
      </trkpt>
      <trkpt lat="46.5099" lon="5.88141">
        <ele>897.6</ele>
        <time>2021-10-17T15:43:07Z</time>
      </trkpt>
      <trkpt lat="46.50993" lon="5.88124">
        <ele>897</ele>
        <time>2021-10-17T15:43:08Z</time>
      </trkpt>
      <trkpt lat="46.50995" lon="5.88108">
        <ele>896.4</ele>
        <time>2021-10-17T15:43:09Z</time>
      </trkpt>
      <trkpt lat="46.50996" lon="5.88091">
        <ele>895.6</ele>
        <time>2021-10-17T15:43:10Z</time>
      </trkpt>
      <trkpt lat="46.50998" lon="5.88075">
        <ele>895</ele>
        <time>2021-10-17T15:43:11Z</time>
      </trkpt>
      <trkpt lat="46.51" lon="5.88058">
        <ele>894.2</ele>
        <time>2021-10-17T15:43:12Z</time>
      </trkpt>
      <trkpt lat="46.51001" lon="5.88041">
        <ele>893.4</ele>
        <time>2021-10-17T15:43:13Z</time>
      </trkpt>
      <trkpt lat="46.51001" lon="5.88024">
        <ele>892.8</ele>
        <time>2021-10-17T15:43:14Z</time>
      </trkpt>
      <trkpt lat="46.51" lon="5.88007">
        <ele>892.2</ele>
        <time>2021-10-17T15:43:15Z</time>
      </trkpt>
      <trkpt lat="46.51" lon="5.8799">
        <ele>891.6</ele>
        <time>2021-10-17T15:43:16Z</time>
      </trkpt>
      <trkpt lat="46.51" lon="5.87972">
        <ele>891</ele>
        <time>2021-10-17T15:43:17Z</time>
      </trkpt>
      <trkpt lat="46.50999" lon="5.87955">
        <ele>890.4</ele>
        <time>2021-10-17T15:43:18Z</time>
      </trkpt>
      <trkpt lat="46.51" lon="5.87938">
        <ele>889.6</ele>
        <time>2021-10-17T15:43:19Z</time>
      </trkpt>
      <trkpt lat="46.51" lon="5.87921">
        <ele>889</ele>
        <time>2021-10-17T15:43:20Z</time>
      </trkpt>
      <trkpt lat="46.51" lon="5.87904">
        <ele>888.4</ele>
        <time>2021-10-17T15:43:21Z</time>
      </trkpt>
      <trkpt lat="46.51001" lon="5.87887">
        <ele>887.6</ele>
        <time>2021-10-17T15:43:22Z</time>
      </trkpt>
      <trkpt lat="46.51002" lon="5.87871">
        <ele>887</ele>
        <time>2021-10-17T15:43:23Z</time>
      </trkpt>
      <trkpt lat="46.51002" lon="5.87854">
        <ele>886.6</ele>
        <time>2021-10-17T15:43:24Z</time>
      </trkpt>
      <trkpt lat="46.51003" lon="5.87838">
        <ele>886.2</ele>
        <time>2021-10-17T15:43:25Z</time>
      </trkpt>
      <trkpt lat="46.51003" lon="5.87822">
        <ele>885.6</ele>
        <time>2021-10-17T15:43:26Z</time>
      </trkpt>
      <trkpt lat="46.51003" lon="5.87806">
        <ele>885.4</ele>
        <time>2021-10-17T15:43:27Z</time>
      </trkpt>
      <trkpt lat="46.51003" lon="5.87791">
        <ele>885</ele>
        <time>2021-10-17T15:43:28Z</time>
      </trkpt>
      <trkpt lat="46.51004" lon="5.87776">
        <ele>884.8</ele>
        <time>2021-10-17T15:43:29Z</time>
      </trkpt>
      <trkpt lat="46.51005" lon="5.87761">
        <ele>884.4</ele>
        <time>2021-10-17T15:43:30Z</time>
      </trkpt>
      <trkpt lat="46.51004" lon="5.87746">
        <ele>884.2</ele>
        <time>2021-10-17T15:43:31Z</time>
      </trkpt>
      <trkpt lat="46.51006" lon="5.8773">
        <ele>884</ele>
        <time>2021-10-17T15:43:32Z</time>
      </trkpt>
      <trkpt lat="46.51007" lon="5.87716">
        <ele>883.6</ele>
        <time>2021-10-17T15:43:33Z</time>
      </trkpt>
      <trkpt lat="46.51008" lon="5.87702">
        <ele>883.4</ele>
        <time>2021-10-17T15:43:34Z</time>
      </trkpt>
      <trkpt lat="46.5101" lon="5.87689">
        <ele>883.2</ele>
        <time>2021-10-17T15:43:35Z</time>
      </trkpt>
      <trkpt lat="46.51012" lon="5.87675">
        <ele>883.2</ele>
        <time>2021-10-17T15:43:36Z</time>
      </trkpt>
      <trkpt lat="46.51015" lon="5.87663">
        <ele>882.6</ele>
        <time>2021-10-17T15:43:37Z</time>
      </trkpt>
      <trkpt lat="46.51019" lon="5.8765">
        <ele>882.4</ele>
        <time>2021-10-17T15:43:38Z</time>
      </trkpt>
      <trkpt lat="46.51023" lon="5.87637">
        <ele>882</ele>
        <time>2021-10-17T15:43:39Z</time>
      </trkpt>
      <trkpt lat="46.51027" lon="5.87625">
        <ele>881.6</ele>
        <time>2021-10-17T15:43:40Z</time>
      </trkpt>
      <trkpt lat="46.51032" lon="5.87613">
        <ele>881.4</ele>
        <time>2021-10-17T15:43:41Z</time>
      </trkpt>
      <trkpt lat="46.51037" lon="5.87601">
        <ele>881</ele>
        <time>2021-10-17T15:43:42Z</time>
      </trkpt>
      <trkpt lat="46.51041" lon="5.87588">
        <ele>880.8</ele>
        <time>2021-10-17T15:43:43Z</time>
      </trkpt>
      <trkpt lat="46.51045" lon="5.87576">
        <ele>880.4</ele>
        <time>2021-10-17T15:43:44Z</time>
      </trkpt>
      <trkpt lat="46.51049" lon="5.87563">
        <ele>880</ele>
        <time>2021-10-17T15:43:45Z</time>
      </trkpt>
      <trkpt lat="46.51054" lon="5.8755">
        <ele>879.6</ele>
        <time>2021-10-17T15:43:46Z</time>
      </trkpt>
      <trkpt lat="46.51057" lon="5.87537">
        <ele>879.4</ele>
        <time>2021-10-17T15:43:47Z</time>
      </trkpt>
      <trkpt lat="46.5106" lon="5.87524">
        <ele>879</ele>
        <time>2021-10-17T15:43:48Z</time>
      </trkpt>
      <trkpt lat="46.51063" lon="5.8751">
        <ele>878.8</ele>
        <time>2021-10-17T15:43:49Z</time>
      </trkpt>
      <trkpt lat="46.51066" lon="5.87497">
        <ele>878.4</ele>
        <time>2021-10-17T15:43:50Z</time>
      </trkpt>
      <trkpt lat="46.51068" lon="5.87484">
        <ele>878.2</ele>
        <time>2021-10-17T15:43:51Z</time>
      </trkpt>
      <trkpt lat="46.51072" lon="5.87472">
        <ele>877.8</ele>
        <time>2021-10-17T15:43:52Z</time>
      </trkpt>
      <trkpt lat="46.51075" lon="5.87459">
        <ele>877.6</ele>
        <time>2021-10-17T15:43:53Z</time>
      </trkpt>
      <trkpt lat="46.51078" lon="5.87447">
        <ele>877.6</ele>
        <time>2021-10-17T15:43:54Z</time>
      </trkpt>
      <trkpt lat="46.51081" lon="5.87434">
        <ele>877.2</ele>
        <time>2021-10-17T15:43:55Z</time>
      </trkpt>
      <trkpt lat="46.51084" lon="5.87422">
        <ele>877</ele>
        <time>2021-10-17T15:43:56Z</time>
      </trkpt>
      <trkpt lat="46.51086" lon="5.8741">
        <ele>877</ele>
        <time>2021-10-17T15:43:57Z</time>
      </trkpt>
      <trkpt lat="46.51089" lon="5.87397">
        <ele>876.6</ele>
        <time>2021-10-17T15:43:58Z</time>
      </trkpt>
      <trkpt lat="46.51092" lon="5.87385">
        <ele>876.4</ele>
        <time>2021-10-17T15:43:59Z</time>
      </trkpt>
      <trkpt lat="46.51095" lon="5.87372">
        <ele>876</ele>
        <time>2021-10-17T15:44:00Z</time>
      </trkpt>
      <trkpt lat="46.51098" lon="5.87359">
        <ele>875.8</ele>
        <time>2021-10-17T15:44:01Z</time>
      </trkpt>
      <trkpt lat="46.511" lon="5.87347">
        <ele>875.6</ele>
        <time>2021-10-17T15:44:02Z</time>
      </trkpt>
      <trkpt lat="46.51104" lon="5.87334">
        <ele>875.2</ele>
        <time>2021-10-17T15:44:03Z</time>
      </trkpt>
      <trkpt lat="46.51107" lon="5.87322">
        <ele>875</ele>
        <time>2021-10-17T15:44:04Z</time>
      </trkpt>
      <trkpt lat="46.5111" lon="5.8731">
        <ele>874.8</ele>
        <time>2021-10-17T15:44:05Z</time>
      </trkpt>
      <trkpt lat="46.51114" lon="5.87299">
        <ele>874.8</ele>
        <time>2021-10-17T15:44:06Z</time>
      </trkpt>
      <trkpt lat="46.51117" lon="5.87288">
        <ele>874.4</ele>
        <time>2021-10-17T15:44:07Z</time>
      </trkpt>
      <trkpt lat="46.51122" lon="5.87277">
        <ele>874.2</ele>
        <time>2021-10-17T15:44:08Z</time>
      </trkpt>
      <trkpt lat="46.51126" lon="5.87267">
        <ele>873.8</ele>
        <time>2021-10-17T15:44:09Z</time>
      </trkpt>
      <trkpt lat="46.51131" lon="5.87256">
        <ele>873.4</ele>
        <time>2021-10-17T15:44:10Z</time>
      </trkpt>
      <trkpt lat="46.51136" lon="5.87245">
        <ele>873</ele>
        <time>2021-10-17T15:44:11Z</time>
      </trkpt>
      <trkpt lat="46.51141" lon="5.87234">
        <ele>872.6</ele>
        <time>2021-10-17T15:44:12Z</time>
      </trkpt>
      <trkpt lat="46.51148" lon="5.87224">
        <ele>872</ele>
        <time>2021-10-17T15:44:13Z</time>
      </trkpt>
      <trkpt lat="46.51156" lon="5.87215">
        <ele>871.4</ele>
        <time>2021-10-17T15:44:14Z</time>
      </trkpt>
      <trkpt lat="46.51165" lon="5.87207">
        <ele>871</ele>
        <time>2021-10-17T15:44:15Z</time>
      </trkpt>
      <trkpt lat="46.51174" lon="5.87202">
        <ele>870.8</ele>
        <time>2021-10-17T15:44:16Z</time>
      </trkpt>
      <trkpt lat="46.51183" lon="5.87199">
        <ele>870.8</ele>
        <time>2021-10-17T15:44:17Z</time>
      </trkpt>
      <trkpt lat="46.51191" lon="5.87197">
        <ele>870.8</ele>
        <time>2021-10-17T15:44:18Z</time>
      </trkpt>
      <trkpt lat="46.512" lon="5.87196">
        <ele>870.8</ele>
        <time>2021-10-17T15:44:19Z</time>
      </trkpt>
      <trkpt lat="46.51207" lon="5.87194">
        <ele>870.8</ele>
        <time>2021-10-17T15:44:20Z</time>
      </trkpt>
      <trkpt lat="46.51215" lon="5.87194">
        <ele>870.8</ele>
        <time>2021-10-17T15:44:21Z</time>
      </trkpt>
      <trkpt lat="46.51222" lon="5.87194">
        <ele>870.8</ele>
        <time>2021-10-17T15:44:22Z</time>
      </trkpt>
      <trkpt lat="46.51229" lon="5.87196">
        <ele>871</ele>
        <time>2021-10-17T15:44:23Z</time>
      </trkpt>
      <trkpt lat="46.51236" lon="5.87198">
        <ele>871</ele>
        <time>2021-10-17T15:44:24Z</time>
      </trkpt>
      <trkpt lat="46.51242" lon="5.87201">
        <ele>871</ele>
        <time>2021-10-17T15:44:25Z</time>
      </trkpt>
      <trkpt lat="46.51248" lon="5.87204">
        <ele>871.2</ele>
        <time>2021-10-17T15:44:26Z</time>
      </trkpt>
      <trkpt lat="46.51253" lon="5.87207">
        <ele>871.2</ele>
        <time>2021-10-17T15:44:27Z</time>
      </trkpt>
      <trkpt lat="46.51259" lon="5.87209">
        <ele>871.2</ele>
        <time>2021-10-17T15:44:28Z</time>
      </trkpt>
      <trkpt lat="46.51264" lon="5.87212">
        <ele>871.4</ele>
        <time>2021-10-17T15:44:29Z</time>
      </trkpt>
      <trkpt lat="46.51268" lon="5.87215">
        <ele>871.4</ele>
        <time>2021-10-17T15:44:30Z</time>
      </trkpt>
      <trkpt lat="46.51273" lon="5.87218">
        <ele>871.4</ele>
        <time>2021-10-17T15:44:31Z</time>
      </trkpt>
      <trkpt lat="46.51277" lon="5.87222">
        <ele>871.8</ele>
        <time>2021-10-17T15:44:32Z</time>
      </trkpt>
      <trkpt lat="46.51282" lon="5.87227">
        <ele>871.8</ele>
        <time>2021-10-17T15:44:33Z</time>
      </trkpt>
      <trkpt lat="46.51286" lon="5.87231">
        <ele>871.6</ele>
        <time>2021-10-17T15:44:34Z</time>
      </trkpt>
      <trkpt lat="46.5129" lon="5.87237">
        <ele>871.6</ele>
        <time>2021-10-17T15:44:35Z</time>
      </trkpt>
      <trkpt lat="46.51295" lon="5.87243">
        <ele>871.6</ele>
        <time>2021-10-17T15:44:36Z</time>
      </trkpt>
      <trkpt lat="46.51299" lon="5.87249">
        <ele>871.2</ele>
        <time>2021-10-17T15:44:37Z</time>
      </trkpt>
      <trkpt lat="46.51304" lon="5.87256">
        <ele>871</ele>
        <time>2021-10-17T15:44:38Z</time>
      </trkpt>
      <trkpt lat="46.51308" lon="5.87263">
        <ele>870.8</ele>
        <time>2021-10-17T15:44:39Z</time>
      </trkpt>
      <trkpt lat="46.51313" lon="5.87271">
        <ele>870.8</ele>
        <time>2021-10-17T15:44:40Z</time>
      </trkpt>
      <trkpt lat="46.51318" lon="5.87278">
        <ele>870.4</ele>
        <time>2021-10-17T15:44:41Z</time>
      </trkpt>
      <trkpt lat="46.51323" lon="5.87286">
        <ele>870.2</ele>
        <time>2021-10-17T15:44:42Z</time>
      </trkpt>
      <trkpt lat="46.51328" lon="5.87295">
        <ele>870</ele>
        <time>2021-10-17T15:44:43Z</time>
      </trkpt>
      <trkpt lat="46.51332" lon="5.87304">
        <ele>869.6</ele>
        <time>2021-10-17T15:44:44Z</time>
      </trkpt>
      <trkpt lat="46.51338" lon="5.87312">
        <ele>869.4</ele>
        <time>2021-10-17T15:44:45Z</time>
      </trkpt>
      <trkpt lat="46.51343" lon="5.8732">
        <ele>869.4</ele>
        <time>2021-10-17T15:44:46Z</time>
      </trkpt>
      <trkpt lat="46.51349" lon="5.87328">
        <ele>869</ele>
        <time>2021-10-17T15:44:47Z</time>
      </trkpt>
      <trkpt lat="46.51354" lon="5.87336">
        <ele>868.8</ele>
        <time>2021-10-17T15:44:48Z</time>
      </trkpt>
      <trkpt lat="46.5136" lon="5.87343">
        <ele>868.6</ele>
        <time>2021-10-17T15:44:49Z</time>
      </trkpt>
      <trkpt lat="46.51365" lon="5.87349">
        <ele>868.2</ele>
        <time>2021-10-17T15:44:50Z</time>
      </trkpt>
      <trkpt lat="46.5137" lon="5.87353">
        <ele>868.2</ele>
        <time>2021-10-17T15:44:51Z</time>
      </trkpt>
      <trkpt lat="46.51375" lon="5.87353">
        <ele>868</ele>
        <time>2021-10-17T15:44:52Z</time>
      </trkpt>
      <trkpt lat="46.5138" lon="5.87351">
        <ele>868</ele>
        <time>2021-10-17T15:44:53Z</time>
      </trkpt>
      <trkpt lat="46.51383" lon="5.87346">
        <ele>867.8</ele>
        <time>2021-10-17T15:44:54Z</time>
      </trkpt>
      <trkpt lat="46.51387" lon="5.8734">
        <ele>867.8</ele>
        <time>2021-10-17T15:44:55Z</time>
      </trkpt>
      <trkpt lat="46.5139" lon="5.87334">
        <ele>867.6</ele>
        <time>2021-10-17T15:44:56Z</time>
      </trkpt>
      <trkpt lat="46.51394" lon="5.87328">
        <ele>867.6</ele>
        <time>2021-10-17T15:44:57Z</time>
      </trkpt>
      <trkpt lat="46.51398" lon="5.87322">
        <ele>867.2</ele>
        <time>2021-10-17T15:44:58Z</time>
      </trkpt>
      <trkpt lat="46.51403" lon="5.87317">
        <ele>867.2</ele>
        <time>2021-10-17T15:44:59Z</time>
      </trkpt>
      <trkpt lat="46.51408" lon="5.87312">
        <ele>867.2</ele>
        <time>2021-10-17T15:45:00Z</time>
      </trkpt>
      <trkpt lat="46.51412" lon="5.87308">
        <ele>867.2</ele>
        <time>2021-10-17T15:45:01Z</time>
      </trkpt>
      <trkpt lat="46.51417" lon="5.87303">
        <ele>867.2</ele>
        <time>2021-10-17T15:45:02Z</time>
      </trkpt>
      <trkpt lat="46.51422" lon="5.87298">
        <ele>867.2</ele>
        <time>2021-10-17T15:45:03Z</time>
      </trkpt>
      <trkpt lat="46.51426" lon="5.87294">
        <ele>867.2</ele>
        <time>2021-10-17T15:45:04Z</time>
      </trkpt>
      <trkpt lat="46.51431" lon="5.87289">
        <ele>867.2</ele>
        <time>2021-10-17T15:45:05Z</time>
      </trkpt>
      <trkpt lat="46.51436" lon="5.87284">
        <ele>867.2</ele>
        <time>2021-10-17T15:45:06Z</time>
      </trkpt>
      <trkpt lat="46.51441" lon="5.87279">
        <ele>867.2</ele>
        <time>2021-10-17T15:45:07Z</time>
      </trkpt>
      <trkpt lat="46.51445" lon="5.87274">
        <ele>867.2</ele>
        <time>2021-10-17T15:45:08Z</time>
      </trkpt>
      <trkpt lat="46.5145" lon="5.87269">
        <ele>867</ele>
        <time>2021-10-17T15:45:09Z</time>
      </trkpt>
      <trkpt lat="46.51455" lon="5.87264">
        <ele>867</ele>
        <time>2021-10-17T15:45:10Z</time>
      </trkpt>
      <trkpt lat="46.5146" lon="5.87258">
        <ele>866.8</ele>
        <time>2021-10-17T15:45:11Z</time>
      </trkpt>
      <trkpt lat="46.51465" lon="5.87252">
        <ele>866.8</ele>
        <time>2021-10-17T15:45:12Z</time>
      </trkpt>
      <trkpt lat="46.51469" lon="5.87245">
        <ele>866.8</ele>
        <time>2021-10-17T15:45:13Z</time>
      </trkpt>
      <trkpt lat="46.51474" lon="5.87239">
        <ele>866.8</ele>
        <time>2021-10-17T15:45:14Z</time>
      </trkpt>
      <trkpt lat="46.51478" lon="5.87232">
        <ele>866.8</ele>
        <time>2021-10-17T15:45:15Z</time>
      </trkpt>
      <trkpt lat="46.51482" lon="5.87225">
        <ele>866.8</ele>
        <time>2021-10-17T15:45:16Z</time>
      </trkpt>
      <trkpt lat="46.51486" lon="5.87218">
        <ele>866.8</ele>
        <time>2021-10-17T15:45:17Z</time>
      </trkpt>
      <trkpt lat="46.5149" lon="5.87211">
        <ele>866.8</ele>
        <time>2021-10-17T15:45:18Z</time>
      </trkpt>
      <trkpt lat="46.51494" lon="5.87205">
        <ele>866.8</ele>
        <time>2021-10-17T15:45:19Z</time>
      </trkpt>
      <trkpt lat="46.51498" lon="5.87198">
        <ele>866.8</ele>
        <time>2021-10-17T15:45:20Z</time>
      </trkpt>
      <trkpt lat="46.51502" lon="5.87191">
        <ele>866.8</ele>
        <time>2021-10-17T15:45:21Z</time>
      </trkpt>
      <trkpt lat="46.51506" lon="5.87184">
        <ele>866.8</ele>
        <time>2021-10-17T15:45:22Z</time>
      </trkpt>
      <trkpt lat="46.51511" lon="5.87178">
        <ele>866.8</ele>
        <time>2021-10-17T15:45:23Z</time>
      </trkpt>
      <trkpt lat="46.51515" lon="5.87171">
        <ele>866.8</ele>
        <time>2021-10-17T15:45:24Z</time>
      </trkpt>
      <trkpt lat="46.51519" lon="5.87165">
        <ele>866.8</ele>
        <time>2021-10-17T15:45:25Z</time>
      </trkpt>
      <trkpt lat="46.51523" lon="5.87158">
        <ele>866.6</ele>
        <time>2021-10-17T15:45:26Z</time>
      </trkpt>
      <trkpt lat="46.51527" lon="5.87151">
        <ele>866.6</ele>
        <time>2021-10-17T15:45:27Z</time>
      </trkpt>
      <trkpt lat="46.51531" lon="5.87145">
        <ele>866.6</ele>
        <time>2021-10-17T15:45:28Z</time>
      </trkpt>
      <trkpt lat="46.51535" lon="5.87138">
        <ele>866.6</ele>
        <time>2021-10-17T15:45:29Z</time>
      </trkpt>
      <trkpt lat="46.51539" lon="5.87131">
        <ele>866.6</ele>
        <time>2021-10-17T15:45:30Z</time>
      </trkpt>
      <trkpt lat="46.51543" lon="5.87124">
        <ele>866.6</ele>
        <time>2021-10-17T15:45:31Z</time>
      </trkpt>
      <trkpt lat="46.51547" lon="5.87118">
        <ele>866.6</ele>
        <time>2021-10-17T15:45:32Z</time>
      </trkpt>
      <trkpt lat="46.51551" lon="5.87111">
        <ele>866.6</ele>
        <time>2021-10-17T15:45:33Z</time>
      </trkpt>
      <trkpt lat="46.51556" lon="5.87104">
        <ele>866.6</ele>
        <time>2021-10-17T15:45:34Z</time>
      </trkpt>
      <trkpt lat="46.5156" lon="5.87097">
        <ele>866.6</ele>
        <time>2021-10-17T15:45:35Z</time>
      </trkpt>
      <trkpt lat="46.51565" lon="5.87091">
        <ele>866.4</ele>
        <time>2021-10-17T15:45:36Z</time>
      </trkpt>
      <trkpt lat="46.51569" lon="5.87084">
        <ele>866.4</ele>
        <time>2021-10-17T15:45:37Z</time>
      </trkpt>
      <trkpt lat="46.51573" lon="5.87078">
        <ele>866.4</ele>
        <time>2021-10-17T15:45:38Z</time>
      </trkpt>
      <trkpt lat="46.51578" lon="5.87072">
        <ele>866.4</ele>
        <time>2021-10-17T15:45:39Z</time>
      </trkpt>
      <trkpt lat="46.51582" lon="5.87066">
        <ele>866.4</ele>
        <time>2021-10-17T15:45:40Z</time>
      </trkpt>
      <trkpt lat="46.51587" lon="5.8706">
        <ele>866.4</ele>
        <time>2021-10-17T15:45:41Z</time>
      </trkpt>
      <trkpt lat="46.51592" lon="5.87055">
        <ele>866.4</ele>
        <time>2021-10-17T15:45:42Z</time>
      </trkpt>
      <trkpt lat="46.51597" lon="5.87049">
        <ele>866.4</ele>
        <time>2021-10-17T15:45:43Z</time>
      </trkpt>
      <trkpt lat="46.51602" lon="5.87044">
        <ele>866.4</ele>
        <time>2021-10-17T15:45:44Z</time>
      </trkpt>
      <trkpt lat="46.51607" lon="5.87039">
        <ele>866.4</ele>
        <time>2021-10-17T15:45:45Z</time>
      </trkpt>
      <trkpt lat="46.51613" lon="5.87035">
        <ele>866.4</ele>
        <time>2021-10-17T15:45:46Z</time>
      </trkpt>
      <trkpt lat="46.5162" lon="5.87032">
        <ele>866.4</ele>
        <time>2021-10-17T15:45:47Z</time>
      </trkpt>
      <trkpt lat="46.51626" lon="5.8703">
        <ele>866.4</ele>
        <time>2021-10-17T15:45:48Z</time>
      </trkpt>
      <trkpt lat="46.51633" lon="5.87028">
        <ele>866</ele>
        <time>2021-10-17T15:45:49Z</time>
      </trkpt>
      <trkpt lat="46.51639" lon="5.87028">
        <ele>866</ele>
        <time>2021-10-17T15:45:50Z</time>
      </trkpt>
      <trkpt lat="46.51645" lon="5.87027">
        <ele>866</ele>
        <time>2021-10-17T15:45:51Z</time>
      </trkpt>
      <trkpt lat="46.51651" lon="5.87026">
        <ele>866.4</ele>
        <time>2021-10-17T15:45:52Z</time>
      </trkpt>
      <trkpt lat="46.51657" lon="5.87026">
        <ele>866.4</ele>
        <time>2021-10-17T15:45:53Z</time>
      </trkpt>
      <trkpt lat="46.51663" lon="5.87026">
        <ele>866.4</ele>
        <time>2021-10-17T15:45:54Z</time>
      </trkpt>
      <trkpt lat="46.51668" lon="5.87025">
        <ele>866.6</ele>
        <time>2021-10-17T15:45:55Z</time>
      </trkpt>
      <trkpt lat="46.51674" lon="5.87025">
        <ele>866.6</ele>
        <time>2021-10-17T15:45:56Z</time>
      </trkpt>
      <trkpt lat="46.51679" lon="5.87024">
        <ele>867</ele>
        <time>2021-10-17T15:45:57Z</time>
      </trkpt>
      <trkpt lat="46.51684" lon="5.87023">
        <ele>867</ele>
        <time>2021-10-17T15:45:58Z</time>
      </trkpt>
      <trkpt lat="46.5169" lon="5.87023">
        <ele>867.4</ele>
        <time>2021-10-17T15:45:59Z</time>
      </trkpt>
      <trkpt lat="46.51695" lon="5.87022">
        <ele>867.4</ele>
        <time>2021-10-17T15:46:00Z</time>
      </trkpt>
      <trkpt lat="46.517" lon="5.87021">
        <ele>867.4</ele>
        <time>2021-10-17T15:46:01Z</time>
      </trkpt>
      <trkpt lat="46.51705" lon="5.8702">
        <ele>867.6</ele>
        <time>2021-10-17T15:46:02Z</time>
      </trkpt>
      <trkpt lat="46.5171" lon="5.87019">
        <ele>867.6</ele>
        <time>2021-10-17T15:46:03Z</time>
      </trkpt>
      <trkpt lat="46.51714" lon="5.87019">
        <ele>867.8</ele>
        <time>2021-10-17T15:46:04Z</time>
      </trkpt>
      <trkpt lat="46.51718" lon="5.87018">
        <ele>867.8</ele>
        <time>2021-10-17T15:46:05Z</time>
      </trkpt>
      <trkpt lat="46.51723" lon="5.87018">
        <ele>868.2</ele>
        <time>2021-10-17T15:46:06Z</time>
      </trkpt>
      <trkpt lat="46.51727" lon="5.87017">
        <ele>868.2</ele>
        <time>2021-10-17T15:46:07Z</time>
      </trkpt>
      <trkpt lat="46.5173" lon="5.87016">
        <ele>868.6</ele>
        <time>2021-10-17T15:46:08Z</time>
      </trkpt>
      <trkpt lat="46.51734" lon="5.87015">
        <ele>868.8</ele>
        <time>2021-10-17T15:46:09Z</time>
      </trkpt>
      <trkpt lat="46.51738" lon="5.87015">
        <ele>869</ele>
        <time>2021-10-17T15:46:10Z</time>
      </trkpt>
      <trkpt lat="46.51742" lon="5.87014">
        <ele>869</ele>
        <time>2021-10-17T15:46:11Z</time>
      </trkpt>
      <trkpt lat="46.51745" lon="5.87013">
        <ele>869.4</ele>
        <time>2021-10-17T15:46:12Z</time>
      </trkpt>
      <trkpt lat="46.51749" lon="5.87013">
        <ele>869.4</ele>
        <time>2021-10-17T15:46:13Z</time>
      </trkpt>
      <trkpt lat="46.51753" lon="5.87012">
        <ele>869.6</ele>
        <time>2021-10-17T15:46:14Z</time>
      </trkpt>
      <trkpt lat="46.51756" lon="5.87012">
        <ele>869.6</ele>
        <time>2021-10-17T15:46:15Z</time>
      </trkpt>
      <trkpt lat="46.5176" lon="5.87011">
        <ele>870</ele>
        <time>2021-10-17T15:46:16Z</time>
      </trkpt>
      <trkpt lat="46.51763" lon="5.87011">
        <ele>870</ele>
        <time>2021-10-17T15:46:17Z</time>
      </trkpt>
      <trkpt lat="46.51767" lon="5.87011">
        <ele>870.2</ele>
        <time>2021-10-17T15:46:18Z</time>
      </trkpt>
      <trkpt lat="46.51771" lon="5.87011">
        <ele>870.2</ele>
        <time>2021-10-17T15:46:19Z</time>
      </trkpt>
      <trkpt lat="46.51775" lon="5.87011">
        <ele>870.6</ele>
        <time>2021-10-17T15:46:20Z</time>
      </trkpt>
      <trkpt lat="46.51779" lon="5.87011">
        <ele>870.8</ele>
        <time>2021-10-17T15:46:21Z</time>
      </trkpt>
      <trkpt lat="46.51782" lon="5.87011">
        <ele>870.8</ele>
        <time>2021-10-17T15:46:22Z</time>
      </trkpt>
      <trkpt lat="46.51786" lon="5.87011">
        <ele>871.2</ele>
        <time>2021-10-17T15:46:23Z</time>
      </trkpt>
      <trkpt lat="46.5179" lon="5.87011">
        <ele>871.4</ele>
        <time>2021-10-17T15:46:24Z</time>
      </trkpt>
      <trkpt lat="46.51793" lon="5.87011">
        <ele>871.4</ele>
        <time>2021-10-17T15:46:25Z</time>
      </trkpt>
      <trkpt lat="46.51797" lon="5.87012">
        <ele>871.8</ele>
        <time>2021-10-17T15:46:26Z</time>
      </trkpt>
      <trkpt lat="46.51801" lon="5.87012">
        <ele>871.8</ele>
        <time>2021-10-17T15:46:27Z</time>
      </trkpt>
      <trkpt lat="46.51805" lon="5.87012">
        <ele>872</ele>
        <time>2021-10-17T15:46:28Z</time>
      </trkpt>
      <trkpt lat="46.51809" lon="5.87012">
        <ele>872</ele>
        <time>2021-10-17T15:46:29Z</time>
      </trkpt>
      <trkpt lat="46.51812" lon="5.87012">
        <ele>872.2</ele>
        <time>2021-10-17T15:46:30Z</time>
      </trkpt>
      <trkpt lat="46.51816" lon="5.87013">
        <ele>872.2</ele>
        <time>2021-10-17T15:46:31Z</time>
      </trkpt>
      <trkpt lat="46.5182" lon="5.87013">
        <ele>872.6</ele>
        <time>2021-10-17T15:46:32Z</time>
      </trkpt>
      <trkpt lat="46.51823" lon="5.87013">
        <ele>872.6</ele>
        <time>2021-10-17T15:46:33Z</time>
      </trkpt>
      <trkpt lat="46.51827" lon="5.87014">
        <ele>873</ele>
        <time>2021-10-17T15:46:34Z</time>
      </trkpt>
      <trkpt lat="46.5183" lon="5.87014">
        <ele>873</ele>
        <time>2021-10-17T15:46:35Z</time>
      </trkpt>
      <trkpt lat="46.51833" lon="5.87014">
        <ele>873.2</ele>
        <time>2021-10-17T15:46:36Z</time>
      </trkpt>
      <trkpt lat="46.51837" lon="5.87014">
        <ele>873.4</ele>
        <time>2021-10-17T15:46:37Z</time>
      </trkpt>
      <trkpt lat="46.5184" lon="5.87014">
        <ele>873.8</ele>
        <time>2021-10-17T15:46:38Z</time>
      </trkpt>
      <trkpt lat="46.51844" lon="5.87014">
        <ele>873.8</ele>
        <time>2021-10-17T15:46:39Z</time>
      </trkpt>
      <trkpt lat="46.51847" lon="5.87014">
        <ele>874</ele>
        <time>2021-10-17T15:46:40Z</time>
      </trkpt>
      <trkpt lat="46.51851" lon="5.87014">
        <ele>874</ele>
        <time>2021-10-17T15:46:41Z</time>
      </trkpt>
      <trkpt lat="46.51854" lon="5.87014">
        <ele>874.4</ele>
        <time>2021-10-17T15:46:42Z</time>
      </trkpt>
      <trkpt lat="46.51858" lon="5.87015">
        <ele>874.4</ele>
        <time>2021-10-17T15:46:43Z</time>
      </trkpt>
      <trkpt lat="46.51862" lon="5.87015">
        <ele>874.8</ele>
        <time>2021-10-17T15:46:44Z</time>
      </trkpt>
      <trkpt lat="46.51866" lon="5.87016">
        <ele>874.8</ele>
        <time>2021-10-17T15:46:45Z</time>
      </trkpt>
      <trkpt lat="46.51869" lon="5.87016">
        <ele>875</ele>
        <time>2021-10-17T15:46:46Z</time>
      </trkpt>
      <trkpt lat="46.51873" lon="5.87016">
        <ele>875.2</ele>
        <time>2021-10-17T15:46:47Z</time>
      </trkpt>
      <trkpt lat="46.51876" lon="5.87015">
        <ele>875.2</ele>
        <time>2021-10-17T15:46:48Z</time>
      </trkpt>
      <trkpt lat="46.5188" lon="5.87014">
        <ele>875.6</ele>
        <time>2021-10-17T15:46:49Z</time>
      </trkpt>
      <trkpt lat="46.51883" lon="5.87014">
        <ele>875.8</ele>
        <time>2021-10-17T15:46:50Z</time>
      </trkpt>
      <trkpt lat="46.51886" lon="5.87013">
        <ele>875.8</ele>
        <time>2021-10-17T15:46:51Z</time>
      </trkpt>
      <trkpt lat="46.51889" lon="5.87013">
        <ele>876.2</ele>
        <time>2021-10-17T15:46:52Z</time>
      </trkpt>
      <trkpt lat="46.51893" lon="5.87012">
        <ele>876.2</ele>
        <time>2021-10-17T15:46:53Z</time>
      </trkpt>
      <trkpt lat="46.51896" lon="5.87011">
        <ele>876.6</ele>
        <time>2021-10-17T15:46:54Z</time>
      </trkpt>
      <trkpt lat="46.51898" lon="5.87009">
        <ele>876.6</ele>
        <time>2021-10-17T15:46:55Z</time>
      </trkpt>
      <trkpt lat="46.51901" lon="5.87007">
        <ele>877</ele>
        <time>2021-10-17T15:46:56Z</time>
      </trkpt>
      <trkpt lat="46.51904" lon="5.87005">
        <ele>877</ele>
        <time>2021-10-17T15:46:57Z</time>
      </trkpt>
      <trkpt lat="46.51907" lon="5.87003">
        <ele>877.4</ele>
        <time>2021-10-17T15:46:58Z</time>
      </trkpt>
      <trkpt lat="46.5191" lon="5.87001">
        <ele>877.4</ele>
        <time>2021-10-17T15:46:59Z</time>
      </trkpt>
      <trkpt lat="46.51913" lon="5.86999">
        <ele>877.6</ele>
        <time>2021-10-17T15:47:00Z</time>
      </trkpt>
      <trkpt lat="46.51916" lon="5.86997">
        <ele>877.6</ele>
        <time>2021-10-17T15:47:01Z</time>
      </trkpt>
      <trkpt lat="46.51919" lon="5.86995">
        <ele>877.6</ele>
        <time>2021-10-17T15:47:02Z</time>
      </trkpt>
      <trkpt lat="46.51922" lon="5.86993">
        <ele>878</ele>
        <time>2021-10-17T15:47:03Z</time>
      </trkpt>
      <trkpt lat="46.51925" lon="5.8699">
        <ele>878</ele>
        <time>2021-10-17T15:47:04Z</time>
      </trkpt>
      <trkpt lat="46.51928" lon="5.86988">
        <ele>878.4</ele>
        <time>2021-10-17T15:47:05Z</time>
      </trkpt>
      <trkpt lat="46.51931" lon="5.86986">
        <ele>878.4</ele>
        <time>2021-10-17T15:47:06Z</time>
      </trkpt>
      <trkpt lat="46.51934" lon="5.86984">
        <ele>878.6</ele>
        <time>2021-10-17T15:47:07Z</time>
      </trkpt>
      <trkpt lat="46.51937" lon="5.86981">
        <ele>878.6</ele>
        <time>2021-10-17T15:47:08Z</time>
      </trkpt>
      <trkpt lat="46.5194" lon="5.86979">
        <ele>878.6</ele>
        <time>2021-10-17T15:47:09Z</time>
      </trkpt>
      <trkpt lat="46.51943" lon="5.86977">
        <ele>878.6</ele>
        <time>2021-10-17T15:47:10Z</time>
      </trkpt>
      <trkpt lat="46.51946" lon="5.86974">
        <ele>879</ele>
        <time>2021-10-17T15:47:11Z</time>
      </trkpt>
      <trkpt lat="46.51949" lon="5.86972">
        <ele>879.2</ele>
        <time>2021-10-17T15:47:12Z</time>
      </trkpt>
      <trkpt lat="46.51951" lon="5.8697">
        <ele>879.4</ele>
        <time>2021-10-17T15:47:13Z</time>
      </trkpt>
      <trkpt lat="46.51954" lon="5.86968">
        <ele>879.4</ele>
        <time>2021-10-17T15:47:14Z</time>
      </trkpt>
      <trkpt lat="46.51957" lon="5.86966">
        <ele>879.6</ele>
        <time>2021-10-17T15:47:15Z</time>
      </trkpt>
      <trkpt lat="46.5196" lon="5.86964">
        <ele>879.6</ele>
        <time>2021-10-17T15:47:16Z</time>
      </trkpt>
      <trkpt lat="46.51963" lon="5.86961">
        <ele>879.8</ele>
        <time>2021-10-17T15:47:17Z</time>
      </trkpt>
      <trkpt lat="46.51966" lon="5.86959">
        <ele>879.8</ele>
        <time>2021-10-17T15:47:18Z</time>
      </trkpt>
      <trkpt lat="46.51968" lon="5.86956">
        <ele>880.2</ele>
        <time>2021-10-17T15:47:19Z</time>
      </trkpt>
      <trkpt lat="46.51971" lon="5.86953">
        <ele>880.2</ele>
        <time>2021-10-17T15:47:20Z</time>
      </trkpt>
      <trkpt lat="46.51973" lon="5.8695">
        <ele>880.4</ele>
        <time>2021-10-17T15:47:21Z</time>
      </trkpt>
      <trkpt lat="46.51976" lon="5.86946">
        <ele>880.4</ele>
        <time>2021-10-17T15:47:22Z</time>
      </trkpt>
      <trkpt lat="46.51978" lon="5.86943">
        <ele>880.8</ele>
        <time>2021-10-17T15:47:23Z</time>
      </trkpt>
      <trkpt lat="46.5198" lon="5.8694">
        <ele>880.8</ele>
        <time>2021-10-17T15:47:24Z</time>
      </trkpt>
      <trkpt lat="46.51983" lon="5.86936">
        <ele>881.2</ele>
        <time>2021-10-17T15:47:25Z</time>
      </trkpt>
      <trkpt lat="46.51985" lon="5.86933">
        <ele>881.2</ele>
        <time>2021-10-17T15:47:26Z</time>
      </trkpt>
      <trkpt lat="46.51987" lon="5.86929">
        <ele>881.6</ele>
        <time>2021-10-17T15:47:27Z</time>
      </trkpt>
      <trkpt lat="46.51989" lon="5.86925">
        <ele>881.8</ele>
        <time>2021-10-17T15:47:28Z</time>
      </trkpt>
      <trkpt lat="46.51991" lon="5.86922">
        <ele>882</ele>
        <time>2021-10-17T15:47:29Z</time>
      </trkpt>
      <trkpt lat="46.51993" lon="5.86918">
        <ele>882.2</ele>
        <time>2021-10-17T15:47:30Z</time>
      </trkpt>
      <trkpt lat="46.51995" lon="5.86914">
        <ele>882.4</ele>
        <time>2021-10-17T15:47:31Z</time>
      </trkpt>
      <trkpt lat="46.51996" lon="5.86909">
        <ele>882.6</ele>
        <time>2021-10-17T15:47:32Z</time>
      </trkpt>
      <trkpt lat="46.51997" lon="5.86905">
        <ele>883</ele>
        <time>2021-10-17T15:47:33Z</time>
      </trkpt>
      <trkpt lat="46.51999" lon="5.86901">
        <ele>883.2</ele>
        <time>2021-10-17T15:47:34Z</time>
      </trkpt>
      <trkpt lat="46.52" lon="5.86897">
        <ele>883.2</ele>
        <time>2021-10-17T15:47:35Z</time>
      </trkpt>
      <trkpt lat="46.52002" lon="5.86892">
        <ele>883.6</ele>
        <time>2021-10-17T15:47:36Z</time>
      </trkpt>
      <trkpt lat="46.52003" lon="5.86888">
        <ele>883.6</ele>
        <time>2021-10-17T15:47:37Z</time>
      </trkpt>
      <trkpt lat="46.52004" lon="5.86884">
        <ele>883.8</ele>
        <time>2021-10-17T15:47:38Z</time>
      </trkpt>
      <trkpt lat="46.52005" lon="5.8688">
        <ele>884</ele>
        <time>2021-10-17T15:47:39Z</time>
      </trkpt>
      <trkpt lat="46.52007" lon="5.86876">
        <ele>884</ele>
        <time>2021-10-17T15:47:40Z</time>
      </trkpt>
      <trkpt lat="46.52008" lon="5.86872">
        <ele>884.4</ele>
        <time>2021-10-17T15:47:41Z</time>
      </trkpt>
      <trkpt lat="46.52009" lon="5.86868">
        <ele>884.4</ele>
        <time>2021-10-17T15:47:42Z</time>
      </trkpt>
      <trkpt lat="46.52011" lon="5.86864">
        <ele>884.6</ele>
        <time>2021-10-17T15:47:43Z</time>
      </trkpt>
      <trkpt lat="46.52012" lon="5.8686">
        <ele>884.6</ele>
        <time>2021-10-17T15:47:44Z</time>
      </trkpt>
      <trkpt lat="46.52014" lon="5.86857">
        <ele>885</ele>
        <time>2021-10-17T15:47:45Z</time>
      </trkpt>
      <trkpt lat="46.52016" lon="5.86853">
        <ele>885</ele>
        <time>2021-10-17T15:47:46Z</time>
      </trkpt>
      <trkpt lat="46.52017" lon="5.86849">
        <ele>885.2</ele>
        <time>2021-10-17T15:47:47Z</time>
      </trkpt>
      <trkpt lat="46.52019" lon="5.86845">
        <ele>885.2</ele>
        <time>2021-10-17T15:47:48Z</time>
      </trkpt>
      <trkpt lat="46.52021" lon="5.86841">
        <ele>885.6</ele>
        <time>2021-10-17T15:47:49Z</time>
      </trkpt>
      <trkpt lat="46.52023" lon="5.86837">
        <ele>885.6</ele>
        <time>2021-10-17T15:47:50Z</time>
      </trkpt>
      <trkpt lat="46.52024" lon="5.86834">
        <ele>886</ele>
        <time>2021-10-17T15:47:51Z</time>
      </trkpt>
      <trkpt lat="46.52026" lon="5.8683">
        <ele>886</ele>
        <time>2021-10-17T15:47:52Z</time>
      </trkpt>
      <trkpt lat="46.52027" lon="5.86826">
        <ele>886.4</ele>
        <time>2021-10-17T15:47:53Z</time>
      </trkpt>
      <trkpt lat="46.52029" lon="5.86822">
        <ele>886.6</ele>
        <time>2021-10-17T15:47:54Z</time>
      </trkpt>
      <trkpt lat="46.5203" lon="5.86819">
        <ele>886.6</ele>
        <time>2021-10-17T15:47:55Z</time>
      </trkpt>
      <trkpt lat="46.52032" lon="5.86815">
        <ele>887</ele>
        <time>2021-10-17T15:47:56Z</time>
      </trkpt>
      <trkpt lat="46.52034" lon="5.86811">
        <ele>887</ele>
        <time>2021-10-17T15:47:57Z</time>
      </trkpt>
      <trkpt lat="46.52035" lon="5.86808">
        <ele>887.2</ele>
        <time>2021-10-17T15:47:58Z</time>
      </trkpt>
      <trkpt lat="46.52037" lon="5.86804">
        <ele>887.2</ele>
        <time>2021-10-17T15:47:59Z</time>
      </trkpt>
      <trkpt lat="46.52038" lon="5.86801">
        <ele>887.4</ele>
        <time>2021-10-17T15:48:00Z</time>
      </trkpt>
      <trkpt lat="46.5204" lon="5.86797">
        <ele>887.4</ele>
        <time>2021-10-17T15:48:01Z</time>
      </trkpt>
      <trkpt lat="46.52042" lon="5.86793">
        <ele>887.6</ele>
        <time>2021-10-17T15:48:02Z</time>
      </trkpt>
      <trkpt lat="46.52043" lon="5.86789">
        <ele>887.6</ele>
        <time>2021-10-17T15:48:03Z</time>
      </trkpt>
      <trkpt lat="46.52045" lon="5.86785">
        <ele>887.6</ele>
        <time>2021-10-17T15:48:04Z</time>
      </trkpt>
      <trkpt lat="46.52046" lon="5.86781">
        <ele>888</ele>
        <time>2021-10-17T15:48:05Z</time>
      </trkpt>
      <trkpt lat="46.52048" lon="5.86776">
        <ele>888</ele>
        <time>2021-10-17T15:48:06Z</time>
      </trkpt>
      <trkpt lat="46.52049" lon="5.86772">
        <ele>888</ele>
        <time>2021-10-17T15:48:07Z</time>
      </trkpt>
      <trkpt lat="46.5205" lon="5.86767">
        <ele>888</ele>
        <time>2021-10-17T15:48:08Z</time>
      </trkpt>
      <trkpt lat="46.5205" lon="5.86762">
        <ele>888</ele>
        <time>2021-10-17T15:48:09Z</time>
      </trkpt>
      <trkpt lat="46.52051" lon="5.86757">
        <ele>888.4</ele>
        <time>2021-10-17T15:48:10Z</time>
      </trkpt>
      <trkpt lat="46.52052" lon="5.86752">
        <ele>888.4</ele>
        <time>2021-10-17T15:48:11Z</time>
      </trkpt>
      <trkpt lat="46.52052" lon="5.86746">
        <ele>888.6</ele>
        <time>2021-10-17T15:48:12Z</time>
      </trkpt>
      <trkpt lat="46.52052" lon="5.86741">
        <ele>888.6</ele>
        <time>2021-10-17T15:48:13Z</time>
      </trkpt>
      <trkpt lat="46.52052" lon="5.86736">
        <ele>888.6</ele>
        <time>2021-10-17T15:48:14Z</time>
      </trkpt>
      <trkpt lat="46.52052" lon="5.86731">
        <ele>888.6</ele>
        <time>2021-10-17T15:48:15Z</time>
      </trkpt>
      <trkpt lat="46.52051" lon="5.86725">
        <ele>888.8</ele>
        <time>2021-10-17T15:48:16Z</time>
      </trkpt>
      <trkpt lat="46.5205" lon="5.8672">
        <ele>888.8</ele>
        <time>2021-10-17T15:48:17Z</time>
      </trkpt>
      <trkpt lat="46.5205" lon="5.86714">
        <ele>888.8</ele>
        <time>2021-10-17T15:48:18Z</time>
      </trkpt>
      <trkpt lat="46.52049" lon="5.86709">
        <ele>888.8</ele>
        <time>2021-10-17T15:48:19Z</time>
      </trkpt>
      <trkpt lat="46.52048" lon="5.86703">
        <ele>888.8</ele>
        <time>2021-10-17T15:48:20Z</time>
      </trkpt>
      <trkpt lat="46.52047" lon="5.86698">
        <ele>889</ele>
        <time>2021-10-17T15:48:21Z</time>
      </trkpt>
      <trkpt lat="46.52045" lon="5.86693">
        <ele>889</ele>
        <time>2021-10-17T15:48:22Z</time>
      </trkpt>
      <trkpt lat="46.52044" lon="5.86687">
        <ele>889</ele>
        <time>2021-10-17T15:48:23Z</time>
      </trkpt>
      <trkpt lat="46.52042" lon="5.86682">
        <ele>889.4</ele>
        <time>2021-10-17T15:48:24Z</time>
      </trkpt>
      <trkpt lat="46.52041" lon="5.86676">
        <ele>889.4</ele>
        <time>2021-10-17T15:48:25Z</time>
      </trkpt>
      <trkpt lat="46.52039" lon="5.8667">
        <ele>889.4</ele>
        <time>2021-10-17T15:48:26Z</time>
      </trkpt>
      <trkpt lat="46.52037" lon="5.86664">
        <ele>889.4</ele>
        <time>2021-10-17T15:48:27Z</time>
      </trkpt>
      <trkpt lat="46.52036" lon="5.86658">
        <ele>889.4</ele>
        <time>2021-10-17T15:48:28Z</time>
      </trkpt>
      <trkpt lat="46.52034" lon="5.86652">
        <ele>889.6</ele>
        <time>2021-10-17T15:48:29Z</time>
      </trkpt>
      <trkpt lat="46.52033" lon="5.86645">
        <ele>889.6</ele>
        <time>2021-10-17T15:48:30Z</time>
      </trkpt>
      <trkpt lat="46.52032" lon="5.86639">
        <ele>889.6</ele>
        <time>2021-10-17T15:48:31Z</time>
      </trkpt>
      <trkpt lat="46.52031" lon="5.86632">
        <ele>889.6</ele>
        <time>2021-10-17T15:48:32Z</time>
      </trkpt>
      <trkpt lat="46.52029" lon="5.86625">
        <ele>889.8</ele>
        <time>2021-10-17T15:48:33Z</time>
      </trkpt>
      <trkpt lat="46.52029" lon="5.86618">
        <ele>889.8</ele>
        <time>2021-10-17T15:48:34Z</time>
      </trkpt>
      <trkpt lat="46.52029" lon="5.86611">
        <ele>889.8</ele>
        <time>2021-10-17T15:48:35Z</time>
      </trkpt>
      <trkpt lat="46.52029" lon="5.86603">
        <ele>889.8</ele>
        <time>2021-10-17T15:48:36Z</time>
      </trkpt>
      <trkpt lat="46.5203" lon="5.86595">
        <ele>889.8</ele>
        <time>2021-10-17T15:48:37Z</time>
      </trkpt>
      <trkpt lat="46.5203" lon="5.86587">
        <ele>889.8</ele>
        <time>2021-10-17T15:48:38Z</time>
      </trkpt>
      <trkpt lat="46.52031" lon="5.86579">
        <ele>889.8</ele>
        <time>2021-10-17T15:48:39Z</time>
      </trkpt>
      <trkpt lat="46.52032" lon="5.86571">
        <ele>889.4</ele>
        <time>2021-10-17T15:48:40Z</time>
      </trkpt>
      <trkpt lat="46.52035" lon="5.86563">
        <ele>889.4</ele>
        <time>2021-10-17T15:48:41Z</time>
      </trkpt>
      <trkpt lat="46.52037" lon="5.86555">
        <ele>889.4</ele>
        <time>2021-10-17T15:48:42Z</time>
      </trkpt>
      <trkpt lat="46.5204" lon="5.86547">
        <ele>889.4</ele>
        <time>2021-10-17T15:48:43Z</time>
      </trkpt>
      <trkpt lat="46.52042" lon="5.86539">
        <ele>889.4</ele>
        <time>2021-10-17T15:48:44Z</time>
      </trkpt>
      <trkpt lat="46.52044" lon="5.8653">
        <ele>889.4</ele>
        <time>2021-10-17T15:48:45Z</time>
      </trkpt>
      <trkpt lat="46.52046" lon="5.86522">
        <ele>889.2</ele>
        <time>2021-10-17T15:48:46Z</time>
      </trkpt>
      <trkpt lat="46.52047" lon="5.86513">
        <ele>889.2</ele>
        <time>2021-10-17T15:48:47Z</time>
      </trkpt>
      <trkpt lat="46.52048" lon="5.86503">
        <ele>889.2</ele>
        <time>2021-10-17T15:48:48Z</time>
      </trkpt>
      <trkpt lat="46.52048" lon="5.86494">
        <ele>889</ele>
        <time>2021-10-17T15:48:49Z</time>
      </trkpt>
      <trkpt lat="46.52048" lon="5.86485">
        <ele>889</ele>
        <time>2021-10-17T15:48:50Z</time>
      </trkpt>
      <trkpt lat="46.52047" lon="5.86475">
        <ele>888.6</ele>
        <time>2021-10-17T15:48:51Z</time>
      </trkpt>
      <trkpt lat="46.52046" lon="5.86465">
        <ele>888.6</ele>
        <time>2021-10-17T15:48:52Z</time>
      </trkpt>
      <trkpt lat="46.52045" lon="5.86456">
        <ele>888.2</ele>
        <time>2021-10-17T15:48:53Z</time>
      </trkpt>
      <trkpt lat="46.52044" lon="5.86446">
        <ele>888.2</ele>
        <time>2021-10-17T15:48:54Z</time>
      </trkpt>
      <trkpt lat="46.52042" lon="5.86436">
        <ele>888</ele>
        <time>2021-10-17T15:48:55Z</time>
      </trkpt>
      <trkpt lat="46.52041" lon="5.86426">
        <ele>887.8</ele>
        <time>2021-10-17T15:48:56Z</time>
      </trkpt>
      <trkpt lat="46.5204" lon="5.86416">
        <ele>887.4</ele>
        <time>2021-10-17T15:48:57Z</time>
      </trkpt>
      <trkpt lat="46.52041" lon="5.86405">
        <ele>887.2</ele>
        <time>2021-10-17T15:48:58Z</time>
      </trkpt>
      <trkpt lat="46.52041" lon="5.86395">
        <ele>887.2</ele>
        <time>2021-10-17T15:48:59Z</time>
      </trkpt>
      <trkpt lat="46.52043" lon="5.86385">
        <ele>886.8</ele>
        <time>2021-10-17T15:49:00Z</time>
      </trkpt>
      <trkpt lat="46.52045" lon="5.86374">
        <ele>886.8</ele>
        <time>2021-10-17T15:49:01Z</time>
      </trkpt>
      <trkpt lat="46.52047" lon="5.86364">
        <ele>886.6</ele>
        <time>2021-10-17T15:49:02Z</time>
      </trkpt>
      <trkpt lat="46.5205" lon="5.86354">
        <ele>886.6</ele>
        <time>2021-10-17T15:49:03Z</time>
      </trkpt>
      <trkpt lat="46.52052" lon="5.86342">
        <ele>886.2</ele>
        <time>2021-10-17T15:49:04Z</time>
      </trkpt>
      <trkpt lat="46.52053" lon="5.86331">
        <ele>886.2</ele>
        <time>2021-10-17T15:49:05Z</time>
      </trkpt>
      <trkpt lat="46.52054" lon="5.86319">
        <ele>885.8</ele>
        <time>2021-10-17T15:49:06Z</time>
      </trkpt>
      <trkpt lat="46.52055" lon="5.86307">
        <ele>885.4</ele>
        <time>2021-10-17T15:49:07Z</time>
      </trkpt>
      <trkpt lat="46.52055" lon="5.86294">
        <ele>885</ele>
        <time>2021-10-17T15:49:08Z</time>
      </trkpt>
      <trkpt lat="46.52056" lon="5.86281">
        <ele>884.8</ele>
        <time>2021-10-17T15:49:09Z</time>
      </trkpt>
      <trkpt lat="46.52057" lon="5.86268">
        <ele>884.2</ele>
        <time>2021-10-17T15:49:10Z</time>
      </trkpt>
      <trkpt lat="46.52058" lon="5.86253">
        <ele>883.8</ele>
        <time>2021-10-17T15:49:11Z</time>
      </trkpt>
      <trkpt lat="46.5206" lon="5.86239">
        <ele>883.4</ele>
        <time>2021-10-17T15:49:12Z</time>
      </trkpt>
      <trkpt lat="46.52062" lon="5.86224">
        <ele>883</ele>
        <time>2021-10-17T15:49:13Z</time>
      </trkpt>
      <trkpt lat="46.52063" lon="5.86209">
        <ele>882.6</ele>
        <time>2021-10-17T15:49:14Z</time>
      </trkpt>
      <trkpt lat="46.52065" lon="5.86194">
        <ele>882.4</ele>
        <time>2021-10-17T15:49:15Z</time>
      </trkpt>
      <trkpt lat="46.52068" lon="5.8618">
        <ele>882</ele>
        <time>2021-10-17T15:49:16Z</time>
      </trkpt>
      <trkpt lat="46.52072" lon="5.86166">
        <ele>881.8</ele>
        <time>2021-10-17T15:49:17Z</time>
      </trkpt>
      <trkpt lat="46.52077" lon="5.86153">
        <ele>881.8</ele>
        <time>2021-10-17T15:49:18Z</time>
      </trkpt>
      <trkpt lat="46.52083" lon="5.86141">
        <ele>881.6</ele>
        <time>2021-10-17T15:49:19Z</time>
      </trkpt>
      <trkpt lat="46.5209" lon="5.86132">
        <ele>881.6</ele>
        <time>2021-10-17T15:49:20Z</time>
      </trkpt>
      <trkpt lat="46.52097" lon="5.86123">
        <ele>881.6</ele>
        <time>2021-10-17T15:49:21Z</time>
      </trkpt>
      <trkpt lat="46.52104" lon="5.86117">
        <ele>881.6</ele>
        <time>2021-10-17T15:49:22Z</time>
      </trkpt>
      <trkpt lat="46.52111" lon="5.86112">
        <ele>881.2</ele>
        <time>2021-10-17T15:49:23Z</time>
      </trkpt>
      <trkpt lat="46.52119" lon="5.86108">
        <ele>881.2</ele>
        <time>2021-10-17T15:49:24Z</time>
      </trkpt>
      <trkpt lat="46.52126" lon="5.86103">
        <ele>881.2</ele>
        <time>2021-10-17T15:49:25Z</time>
      </trkpt>
      <trkpt lat="46.52134" lon="5.86099">
        <ele>881.2</ele>
        <time>2021-10-17T15:49:26Z</time>
      </trkpt>
      <trkpt lat="46.52141" lon="5.86096">
        <ele>881.4</ele>
        <time>2021-10-17T15:49:27Z</time>
      </trkpt>
      <trkpt lat="46.52149" lon="5.86093">
        <ele>881.4</ele>
        <time>2021-10-17T15:49:28Z</time>
      </trkpt>
      <trkpt lat="46.52157" lon="5.86092">
        <ele>881.4</ele>
        <time>2021-10-17T15:49:29Z</time>
      </trkpt>
      <trkpt lat="46.52164" lon="5.86092">
        <ele>881.4</ele>
        <time>2021-10-17T15:49:30Z</time>
      </trkpt>
      <trkpt lat="46.52172" lon="5.86092">
        <ele>881.4</ele>
        <time>2021-10-17T15:49:31Z</time>
      </trkpt>
      <trkpt lat="46.52179" lon="5.86092">
        <ele>881.4</ele>
        <time>2021-10-17T15:49:32Z</time>
      </trkpt>
      <trkpt lat="46.52186" lon="5.86091">
        <ele>881.4</ele>
        <time>2021-10-17T15:49:33Z</time>
      </trkpt>
      <trkpt lat="46.52194" lon="5.8609">
        <ele>881.4</ele>
        <time>2021-10-17T15:49:34Z</time>
      </trkpt>
      <trkpt lat="46.52201" lon="5.86089">
        <ele>881.4</ele>
        <time>2021-10-17T15:49:35Z</time>
      </trkpt>
      <trkpt lat="46.52208" lon="5.86088">
        <ele>881.4</ele>
        <time>2021-10-17T15:49:36Z</time>
      </trkpt>
      <trkpt lat="46.52215" lon="5.86087">
        <ele>881.4</ele>
        <time>2021-10-17T15:49:37Z</time>
      </trkpt>
      <trkpt lat="46.52222" lon="5.86085">
        <ele>881.4</ele>
        <time>2021-10-17T15:49:38Z</time>
      </trkpt>
      <trkpt lat="46.52229" lon="5.86083">
        <ele>881.4</ele>
        <time>2021-10-17T15:49:39Z</time>
      </trkpt>
      <trkpt lat="46.52236" lon="5.86081">
        <ele>881.4</ele>
        <time>2021-10-17T15:49:40Z</time>
      </trkpt>
      <trkpt lat="46.52243" lon="5.8608">
        <ele>881.4</ele>
        <time>2021-10-17T15:49:41Z</time>
      </trkpt>
      <trkpt lat="46.52249" lon="5.86078">
        <ele>881.4</ele>
        <time>2021-10-17T15:49:42Z</time>
      </trkpt>
      <trkpt lat="46.52256" lon="5.86076">
        <ele>881.4</ele>
        <time>2021-10-17T15:49:43Z</time>
      </trkpt>
      <trkpt lat="46.52262" lon="5.86074">
        <ele>881.4</ele>
        <time>2021-10-17T15:49:44Z</time>
      </trkpt>
      <trkpt lat="46.52268" lon="5.86073">
        <ele>881.4</ele>
        <time>2021-10-17T15:49:45Z</time>
      </trkpt>
      <trkpt lat="46.52275" lon="5.8607">
        <ele>881.8</ele>
        <time>2021-10-17T15:49:46Z</time>
      </trkpt>
      <trkpt lat="46.52281" lon="5.86068">
        <ele>881.8</ele>
        <time>2021-10-17T15:49:47Z</time>
      </trkpt>
      <trkpt lat="46.52287" lon="5.86066">
        <ele>881.8</ele>
        <time>2021-10-17T15:49:48Z</time>
      </trkpt>
      <trkpt lat="46.52293" lon="5.86063">
        <ele>881.8</ele>
        <time>2021-10-17T15:49:49Z</time>
      </trkpt>
      <trkpt lat="46.52299" lon="5.86059">
        <ele>881.8</ele>
        <time>2021-10-17T15:49:50Z</time>
      </trkpt>
      <trkpt lat="46.52305" lon="5.86055">
        <ele>881.8</ele>
        <time>2021-10-17T15:49:51Z</time>
      </trkpt>
      <trkpt lat="46.52311" lon="5.86051">
        <ele>881.8</ele>
        <time>2021-10-17T15:49:52Z</time>
      </trkpt>
      <trkpt lat="46.52317" lon="5.86046">
        <ele>881.8</ele>
        <time>2021-10-17T15:49:53Z</time>
      </trkpt>
      <trkpt lat="46.52322" lon="5.86041">
        <ele>881.8</ele>
        <time>2021-10-17T15:49:54Z</time>
      </trkpt>
      <trkpt lat="46.52328" lon="5.86035">
        <ele>881.8</ele>
        <time>2021-10-17T15:49:55Z</time>
      </trkpt>
      <trkpt lat="46.52333" lon="5.8603">
        <ele>881.8</ele>
        <time>2021-10-17T15:49:56Z</time>
      </trkpt>
      <trkpt lat="46.52339" lon="5.86024">
        <ele>881.8</ele>
        <time>2021-10-17T15:49:57Z</time>
      </trkpt>
      <trkpt lat="46.52344" lon="5.86017">
        <ele>881.8</ele>
        <time>2021-10-17T15:49:58Z</time>
      </trkpt>
      <trkpt lat="46.52349" lon="5.86011">
        <ele>881.6</ele>
        <time>2021-10-17T15:49:59Z</time>
      </trkpt>
      <trkpt lat="46.52354" lon="5.86004">
        <ele>881.6</ele>
        <time>2021-10-17T15:50:00Z</time>
      </trkpt>
      <trkpt lat="46.52359" lon="5.85998">
        <ele>881.6</ele>
        <time>2021-10-17T15:50:01Z</time>
      </trkpt>
      <trkpt lat="46.52364" lon="5.85992">
        <ele>881.6</ele>
        <time>2021-10-17T15:50:02Z</time>
      </trkpt>
      <trkpt lat="46.52369" lon="5.85985">
        <ele>881.4</ele>
        <time>2021-10-17T15:50:03Z</time>
      </trkpt>
      <trkpt lat="46.52373" lon="5.85979">
        <ele>881.4</ele>
        <time>2021-10-17T15:50:04Z</time>
      </trkpt>
      <trkpt lat="46.52378" lon="5.85973">
        <ele>881.4</ele>
        <time>2021-10-17T15:50:05Z</time>
      </trkpt>
      <trkpt lat="46.52383" lon="5.85967">
        <ele>881.4</ele>
        <time>2021-10-17T15:50:06Z</time>
      </trkpt>
      <trkpt lat="46.52389" lon="5.85962">
        <ele>881.4</ele>
        <time>2021-10-17T15:50:07Z</time>
      </trkpt>
      <trkpt lat="46.52394" lon="5.85958">
        <ele>881.6</ele>
        <time>2021-10-17T15:50:08Z</time>
      </trkpt>
      <trkpt lat="46.52399" lon="5.85954">
        <ele>881.6</ele>
        <time>2021-10-17T15:50:09Z</time>
      </trkpt>
      <trkpt lat="46.52404" lon="5.85951">
        <ele>882</ele>
        <time>2021-10-17T15:50:10Z</time>
      </trkpt>
      <trkpt lat="46.52409" lon="5.85949">
        <ele>882</ele>
        <time>2021-10-17T15:50:11Z</time>
      </trkpt>
      <trkpt lat="46.52414" lon="5.85947">
        <ele>882.2</ele>
        <time>2021-10-17T15:50:12Z</time>
      </trkpt>
      <trkpt lat="46.52418" lon="5.85945">
        <ele>882.2</ele>
        <time>2021-10-17T15:50:13Z</time>
      </trkpt>
      <trkpt lat="46.52423" lon="5.85942">
        <ele>882.6</ele>
        <time>2021-10-17T15:50:14Z</time>
      </trkpt>
      <trkpt lat="46.52428" lon="5.8594">
        <ele>882.6</ele>
        <time>2021-10-17T15:50:15Z</time>
      </trkpt>
      <trkpt lat="46.52433" lon="5.85939">
        <ele>883</ele>
        <time>2021-10-17T15:50:16Z</time>
      </trkpt>
      <trkpt lat="46.52437" lon="5.85938">
        <ele>883</ele>
        <time>2021-10-17T15:50:17Z</time>
      </trkpt>
      <trkpt lat="46.52443" lon="5.85937">
        <ele>883.2</ele>
        <time>2021-10-17T15:50:18Z</time>
      </trkpt>
      <trkpt lat="46.52448" lon="5.85938">
        <ele>883.2</ele>
        <time>2021-10-17T15:50:19Z</time>
      </trkpt>
      <trkpt lat="46.52453" lon="5.85938">
        <ele>883.2</ele>
        <time>2021-10-17T15:50:20Z</time>
      </trkpt>
      <trkpt lat="46.52459" lon="5.85939">
        <ele>883.2</ele>
        <time>2021-10-17T15:50:21Z</time>
      </trkpt>
      <trkpt lat="46.52465" lon="5.8594">
        <ele>883.2</ele>
        <time>2021-10-17T15:50:22Z</time>
      </trkpt>
      <trkpt lat="46.5247" lon="5.85941">
        <ele>883.2</ele>
        <time>2021-10-17T15:50:23Z</time>
      </trkpt>
      <trkpt lat="46.52476" lon="5.85942">
        <ele>883.2</ele>
        <time>2021-10-17T15:50:24Z</time>
      </trkpt>
      <trkpt lat="46.52483" lon="5.85943">
        <ele>883.2</ele>
        <time>2021-10-17T15:50:25Z</time>
      </trkpt>
      <trkpt lat="46.52489" lon="5.85944">
        <ele>883.2</ele>
        <time>2021-10-17T15:50:26Z</time>
      </trkpt>
      <trkpt lat="46.52495" lon="5.85946">
        <ele>883.2</ele>
        <time>2021-10-17T15:50:27Z</time>
      </trkpt>
      <trkpt lat="46.52501" lon="5.85947">
        <ele>883.2</ele>
        <time>2021-10-17T15:50:28Z</time>
      </trkpt>
      <trkpt lat="46.52508" lon="5.85948">
        <ele>883</ele>
        <time>2021-10-17T15:50:29Z</time>
      </trkpt>
      <trkpt lat="46.52514" lon="5.85948">
        <ele>883</ele>
        <time>2021-10-17T15:50:30Z</time>
      </trkpt>
      <trkpt lat="46.52521" lon="5.85947">
        <ele>883</ele>
        <time>2021-10-17T15:50:31Z</time>
      </trkpt>
      <trkpt lat="46.52527" lon="5.85945">
        <ele>882.8</ele>
        <time>2021-10-17T15:50:32Z</time>
      </trkpt>
      <trkpt lat="46.52534" lon="5.85941">
        <ele>882.8</ele>
        <time>2021-10-17T15:50:33Z</time>
      </trkpt>
      <trkpt lat="46.5254" lon="5.85937">
        <ele>882.4</ele>
        <time>2021-10-17T15:50:34Z</time>
      </trkpt>
      <trkpt lat="46.52545" lon="5.85931">
        <ele>882.4</ele>
        <time>2021-10-17T15:50:35Z</time>
      </trkpt>
      <trkpt lat="46.5255" lon="5.85925">
        <ele>882.4</ele>
        <time>2021-10-17T15:50:36Z</time>
      </trkpt>
      <trkpt lat="46.52555" lon="5.85918">
        <ele>882.4</ele>
        <time>2021-10-17T15:50:37Z</time>
      </trkpt>
      <trkpt lat="46.52559" lon="5.8591">
        <ele>882.4</ele>
        <time>2021-10-17T15:50:38Z</time>
      </trkpt>
      <trkpt lat="46.52562" lon="5.85902">
        <ele>882.4</ele>
        <time>2021-10-17T15:50:39Z</time>
      </trkpt>
      <trkpt lat="46.52565" lon="5.85894">
        <ele>882.4</ele>
        <time>2021-10-17T15:50:40Z</time>
      </trkpt>
      <trkpt lat="46.52568" lon="5.85886">
        <ele>882.4</ele>
        <time>2021-10-17T15:50:41Z</time>
      </trkpt>
      <trkpt lat="46.52571" lon="5.85877">
        <ele>882.4</ele>
        <time>2021-10-17T15:50:42Z</time>
      </trkpt>
      <trkpt lat="46.52574" lon="5.85869">
        <ele>882.4</ele>
        <time>2021-10-17T15:50:43Z</time>
      </trkpt>
      <trkpt lat="46.52577" lon="5.85861">
        <ele>882.4</ele>
        <time>2021-10-17T15:50:44Z</time>
      </trkpt>
      <trkpt lat="46.52579" lon="5.85853">
        <ele>882.4</ele>
        <time>2021-10-17T15:50:45Z</time>
      </trkpt>
      <trkpt lat="46.52582" lon="5.85844">
        <ele>882.4</ele>
        <time>2021-10-17T15:50:46Z</time>
      </trkpt>
      <trkpt lat="46.52585" lon="5.85836">
        <ele>882.4</ele>
        <time>2021-10-17T15:50:47Z</time>
      </trkpt>
      <trkpt lat="46.52587" lon="5.85828">
        <ele>882.4</ele>
        <time>2021-10-17T15:50:48Z</time>
      </trkpt>
      <trkpt lat="46.5259" lon="5.85819">
        <ele>882.4</ele>
        <time>2021-10-17T15:50:49Z</time>
      </trkpt>
      <trkpt lat="46.52593" lon="5.85811">
        <ele>882.4</ele>
        <time>2021-10-17T15:50:50Z</time>
      </trkpt>
      <trkpt lat="46.52595" lon="5.85802">
        <ele>882.4</ele>
        <time>2021-10-17T15:50:51Z</time>
      </trkpt>
      <trkpt lat="46.52597" lon="5.85794">
        <ele>882.4</ele>
        <time>2021-10-17T15:50:52Z</time>
      </trkpt>
      <trkpt lat="46.526" lon="5.85786">
        <ele>882.4</ele>
        <time>2021-10-17T15:50:53Z</time>
      </trkpt>
      <trkpt lat="46.52602" lon="5.85778">
        <ele>882.4</ele>
        <time>2021-10-17T15:50:54Z</time>
      </trkpt>
      <trkpt lat="46.52603" lon="5.85769">
        <ele>882.4</ele>
        <time>2021-10-17T15:50:55Z</time>
      </trkpt>
      <trkpt lat="46.52605" lon="5.85761">
        <ele>882.6</ele>
        <time>2021-10-17T15:50:56Z</time>
      </trkpt>
      <trkpt lat="46.52605" lon="5.85753">
        <ele>882.6</ele>
        <time>2021-10-17T15:50:57Z</time>
      </trkpt>
      <trkpt lat="46.52606" lon="5.85744">
        <ele>883</ele>
        <time>2021-10-17T15:50:58Z</time>
      </trkpt>
      <trkpt lat="46.52606" lon="5.85737">
        <ele>883</ele>
        <time>2021-10-17T15:50:59Z</time>
      </trkpt>
      <trkpt lat="46.52605" lon="5.85729">
        <ele>883.4</ele>
        <time>2021-10-17T15:51:00Z</time>
      </trkpt>
      <trkpt lat="46.52605" lon="5.85722">
        <ele>883.4</ele>
        <time>2021-10-17T15:51:01Z</time>
      </trkpt>
      <trkpt lat="46.52604" lon="5.85715">
        <ele>883.6</ele>
        <time>2021-10-17T15:51:02Z</time>
      </trkpt>
      <trkpt lat="46.52604" lon="5.85708">
        <ele>883.6</ele>
        <time>2021-10-17T15:51:03Z</time>
      </trkpt>
      <trkpt lat="46.52603" lon="5.85701">
        <ele>884</ele>
        <time>2021-10-17T15:51:04Z</time>
      </trkpt>
      <trkpt lat="46.52602" lon="5.85695">
        <ele>884.2</ele>
        <time>2021-10-17T15:51:05Z</time>
      </trkpt>
      <trkpt lat="46.52601" lon="5.85689">
        <ele>884.4</ele>
        <time>2021-10-17T15:51:06Z</time>
      </trkpt>
      <trkpt lat="46.526" lon="5.85683">
        <ele>884.4</ele>
        <time>2021-10-17T15:51:07Z</time>
      </trkpt>
      <trkpt lat="46.526" lon="5.85677">
        <ele>884.6</ele>
        <time>2021-10-17T15:51:08Z</time>
      </trkpt>
      <trkpt lat="46.52599" lon="5.85671">
        <ele>885</ele>
        <time>2021-10-17T15:51:09Z</time>
      </trkpt>
      <trkpt lat="46.52598" lon="5.85666">
        <ele>885.2</ele>
        <time>2021-10-17T15:51:10Z</time>
      </trkpt>
      <trkpt lat="46.52597" lon="5.85661">
        <ele>885.2</ele>
        <time>2021-10-17T15:51:11Z</time>
      </trkpt>
      <trkpt lat="46.52596" lon="5.85656">
        <ele>885.6</ele>
        <time>2021-10-17T15:51:12Z</time>
      </trkpt>
      <trkpt lat="46.52595" lon="5.85651">
        <ele>886</ele>
        <time>2021-10-17T15:51:13Z</time>
      </trkpt>
      <trkpt lat="46.52594" lon="5.85647">
        <ele>886.2</ele>
        <time>2021-10-17T15:51:14Z</time>
      </trkpt>
      <trkpt lat="46.52593" lon="5.85642">
        <ele>886.4</ele>
        <time>2021-10-17T15:51:15Z</time>
      </trkpt>
      <trkpt lat="46.52592" lon="5.85637">
        <ele>886.4</ele>
        <time>2021-10-17T15:51:16Z</time>
      </trkpt>
      <trkpt lat="46.52591" lon="5.85632">
        <ele>886.8</ele>
        <time>2021-10-17T15:51:17Z</time>
      </trkpt>
      <trkpt lat="46.5259" lon="5.85627">
        <ele>887.2</ele>
        <time>2021-10-17T15:51:18Z</time>
      </trkpt>
      <trkpt lat="46.52589" lon="5.85622">
        <ele>887.4</ele>
        <time>2021-10-17T15:51:19Z</time>
      </trkpt>
      <trkpt lat="46.52588" lon="5.85618">
        <ele>887.6</ele>
        <time>2021-10-17T15:51:20Z</time>
      </trkpt>
      <trkpt lat="46.52588" lon="5.85613">
        <ele>888</ele>
        <time>2021-10-17T15:51:21Z</time>
      </trkpt>
      <trkpt lat="46.52587" lon="5.85609">
        <ele>888.2</ele>
        <time>2021-10-17T15:51:22Z</time>
      </trkpt>
      <trkpt lat="46.52586" lon="5.85605">
        <ele>888.2</ele>
        <time>2021-10-17T15:51:23Z</time>
      </trkpt>
      <trkpt lat="46.52584" lon="5.85601">
        <ele>888.6</ele>
        <time>2021-10-17T15:51:24Z</time>
      </trkpt>
      <trkpt lat="46.52583" lon="5.85598">
        <ele>888.8</ele>
        <time>2021-10-17T15:51:25Z</time>
      </trkpt>
      <trkpt lat="46.52583" lon="5.85594">
        <ele>888.8</ele>
        <time>2021-10-17T15:51:26Z</time>
      </trkpt>
      <trkpt lat="46.52582" lon="5.8559">
        <ele>889.2</ele>
        <time>2021-10-17T15:51:27Z</time>
      </trkpt>
      <trkpt lat="46.52581" lon="5.85587">
        <ele>889.2</ele>
        <time>2021-10-17T15:51:28Z</time>
      </trkpt>
      <trkpt lat="46.5258" lon="5.85583">
        <ele>889.6</ele>
        <time>2021-10-17T15:51:29Z</time>
      </trkpt>
      <trkpt lat="46.52578" lon="5.8558">
        <ele>889.8</ele>
        <time>2021-10-17T15:51:30Z</time>
      </trkpt>
      <trkpt lat="46.52577" lon="5.85578">
        <ele>890</ele>
        <time>2021-10-17T15:51:31Z</time>
      </trkpt>
      <trkpt lat="46.52576" lon="5.85574">
        <ele>890</ele>
        <time>2021-10-17T15:51:32Z</time>
      </trkpt>
      <trkpt lat="46.52576" lon="5.85571">
        <ele>890.4</ele>
        <time>2021-10-17T15:51:33Z</time>
      </trkpt>
      <trkpt lat="46.52576" lon="5.85567">
        <ele>890.4</ele>
        <time>2021-10-17T15:51:34Z</time>
      </trkpt>
      <trkpt lat="46.52576" lon="5.85564">
        <ele>890.8</ele>
        <time>2021-10-17T15:51:35Z</time>
      </trkpt>
      <trkpt lat="46.52575" lon="5.8556">
        <ele>891</ele>
        <time>2021-10-17T15:51:36Z</time>
      </trkpt>
      <trkpt lat="46.52574" lon="5.85556">
        <ele>891.4</ele>
        <time>2021-10-17T15:51:37Z</time>
      </trkpt>
      <trkpt lat="46.52573" lon="5.85552">
        <ele>891.6</ele>
        <time>2021-10-17T15:51:38Z</time>
      </trkpt>
      <trkpt lat="46.52572" lon="5.85549">
        <ele>892</ele>
        <time>2021-10-17T15:51:39Z</time>
      </trkpt>
      <trkpt lat="46.52571" lon="5.85545">
        <ele>892.2</ele>
        <time>2021-10-17T15:51:40Z</time>
      </trkpt>
      <trkpt lat="46.5257" lon="5.85541">
        <ele>892.6</ele>
        <time>2021-10-17T15:51:41Z</time>
      </trkpt>
      <trkpt lat="46.52569" lon="5.85537">
        <ele>892.8</ele>
        <time>2021-10-17T15:51:42Z</time>
      </trkpt>
      <trkpt lat="46.52569" lon="5.85533">
        <ele>893</ele>
        <time>2021-10-17T15:51:43Z</time>
      </trkpt>
      <trkpt lat="46.52568" lon="5.85529">
        <ele>893.4</ele>
        <time>2021-10-17T15:51:44Z</time>
      </trkpt>
      <trkpt lat="46.52567" lon="5.85525">
        <ele>893.6</ele>
        <time>2021-10-17T15:51:45Z</time>
      </trkpt>
      <trkpt lat="46.52565" lon="5.85521">
        <ele>893.8</ele>
        <time>2021-10-17T15:51:46Z</time>
      </trkpt>
      <trkpt lat="46.52564" lon="5.85518">
        <ele>894</ele>
        <time>2021-10-17T15:51:47Z</time>
      </trkpt>
      <trkpt lat="46.52563" lon="5.85514">
        <ele>894</ele>
        <time>2021-10-17T15:51:48Z</time>
      </trkpt>
      <trkpt lat="46.52562" lon="5.85511">
        <ele>894.6</ele>
        <time>2021-10-17T15:51:49Z</time>
      </trkpt>
      <trkpt lat="46.52561" lon="5.85507">
        <ele>894.6</ele>
        <time>2021-10-17T15:51:50Z</time>
      </trkpt>
      <trkpt lat="46.5256" lon="5.85504">
        <ele>895</ele>
        <time>2021-10-17T15:51:51Z</time>
      </trkpt>
      <trkpt lat="46.52558" lon="5.85501">
        <ele>895</ele>
        <time>2021-10-17T15:51:52Z</time>
      </trkpt>
      <trkpt lat="46.52557" lon="5.85498">
        <ele>895.2</ele>
        <time>2021-10-17T15:51:53Z</time>
      </trkpt>
      <trkpt lat="46.52556" lon="5.85494">
        <ele>895.6</ele>
        <time>2021-10-17T15:51:54Z</time>
      </trkpt>
      <trkpt lat="46.52555" lon="5.85491">
        <ele>895.6</ele>
        <time>2021-10-17T15:51:55Z</time>
      </trkpt>
      <trkpt lat="46.52554" lon="5.85488">
        <ele>895.8</ele>
        <time>2021-10-17T15:51:56Z</time>
      </trkpt>
      <trkpt lat="46.52553" lon="5.85485">
        <ele>895.8</ele>
        <time>2021-10-17T15:51:57Z</time>
      </trkpt>
      <trkpt lat="46.52552" lon="5.85481">
        <ele>896</ele>
        <time>2021-10-17T15:51:58Z</time>
      </trkpt>
      <trkpt lat="46.52551" lon="5.85478">
        <ele>896</ele>
        <time>2021-10-17T15:51:59Z</time>
      </trkpt>
      <trkpt lat="46.5255" lon="5.85474">
        <ele>896.4</ele>
        <time>2021-10-17T15:52:00Z</time>
      </trkpt>
      <trkpt lat="46.52549" lon="5.85471">
        <ele>896.4</ele>
        <time>2021-10-17T15:52:01Z</time>
      </trkpt>
      <trkpt lat="46.52548" lon="5.85467">
        <ele>896.6</ele>
        <time>2021-10-17T15:52:02Z</time>
      </trkpt>
      <trkpt lat="46.52547" lon="5.85463">
        <ele>896.6</ele>
        <time>2021-10-17T15:52:03Z</time>
      </trkpt>
      <trkpt lat="46.52546" lon="5.85459">
        <ele>896.8</ele>
        <time>2021-10-17T15:52:04Z</time>
      </trkpt>
      <trkpt lat="46.52546" lon="5.85455">
        <ele>896.8</ele>
        <time>2021-10-17T15:52:05Z</time>
      </trkpt>
      <trkpt lat="46.52545" lon="5.85452">
        <ele>897.2</ele>
        <time>2021-10-17T15:52:06Z</time>
      </trkpt>
      <trkpt lat="46.52544" lon="5.85449">
        <ele>897.2</ele>
        <time>2021-10-17T15:52:07Z</time>
      </trkpt>
      <trkpt lat="46.52544" lon="5.85446">
        <ele>897.4</ele>
        <time>2021-10-17T15:52:08Z</time>
      </trkpt>
      <trkpt lat="46.52543" lon="5.85442">
        <ele>897.4</ele>
        <time>2021-10-17T15:52:09Z</time>
      </trkpt>
      <trkpt lat="46.52542" lon="5.85438">
        <ele>897.4</ele>
        <time>2021-10-17T15:52:10Z</time>
      </trkpt>
      <trkpt lat="46.52541" lon="5.85433">
        <ele>897.6</ele>
        <time>2021-10-17T15:52:11Z</time>
      </trkpt>
      <trkpt lat="46.5254" lon="5.85429">
        <ele>897.6</ele>
        <time>2021-10-17T15:52:12Z</time>
      </trkpt>
      <trkpt lat="46.52539" lon="5.85424">
        <ele>898</ele>
        <time>2021-10-17T15:52:13Z</time>
      </trkpt>
      <trkpt lat="46.52538" lon="5.8542">
        <ele>898</ele>
        <time>2021-10-17T15:52:14Z</time>
      </trkpt>
      <trkpt lat="46.52537" lon="5.85415">
        <ele>898</ele>
        <time>2021-10-17T15:52:15Z</time>
      </trkpt>
      <trkpt lat="46.52535" lon="5.85411">
        <ele>898.2</ele>
        <time>2021-10-17T15:52:16Z</time>
      </trkpt>
      <trkpt lat="46.52534" lon="5.85406">
        <ele>898.2</ele>
        <time>2021-10-17T15:52:17Z</time>
      </trkpt>
      <trkpt lat="46.52533" lon="5.85402">
        <ele>898.2</ele>
        <time>2021-10-17T15:52:18Z</time>
      </trkpt>
      <trkpt lat="46.52531" lon="5.85397">
        <ele>898.4</ele>
        <time>2021-10-17T15:52:19Z</time>
      </trkpt>
      <trkpt lat="46.5253" lon="5.85393">
        <ele>898.4</ele>
        <time>2021-10-17T15:52:20Z</time>
      </trkpt>
      <trkpt lat="46.52528" lon="5.85389">
        <ele>898.4</ele>
        <time>2021-10-17T15:52:21Z</time>
      </trkpt>
      <trkpt lat="46.52526" lon="5.85384">
        <ele>898.6</ele>
        <time>2021-10-17T15:52:22Z</time>
      </trkpt>
      <trkpt lat="46.52525" lon="5.8538">
        <ele>898.6</ele>
        <time>2021-10-17T15:52:23Z</time>
      </trkpt>
      <trkpt lat="46.52524" lon="5.85376">
        <ele>898.6</ele>
        <time>2021-10-17T15:52:24Z</time>
      </trkpt>
      <trkpt lat="46.52522" lon="5.85371">
        <ele>898.6</ele>
        <time>2021-10-17T15:52:25Z</time>
      </trkpt>
      <trkpt lat="46.5252" lon="5.85367">
        <ele>898.6</ele>
        <time>2021-10-17T15:52:26Z</time>
      </trkpt>
      <trkpt lat="46.52519" lon="5.85363">
        <ele>899</ele>
        <time>2021-10-17T15:52:27Z</time>
      </trkpt>
      <trkpt lat="46.52517" lon="5.85359">
        <ele>899</ele>
        <time>2021-10-17T15:52:28Z</time>
      </trkpt>
      <trkpt lat="46.52515" lon="5.85355">
        <ele>899</ele>
        <time>2021-10-17T15:52:29Z</time>
      </trkpt>
      <trkpt lat="46.52513" lon="5.85351">
        <ele>899.2</ele>
        <time>2021-10-17T15:52:30Z</time>
      </trkpt>
      <trkpt lat="46.52512" lon="5.85347">
        <ele>899.2</ele>
        <time>2021-10-17T15:52:31Z</time>
      </trkpt>
      <trkpt lat="46.5251" lon="5.85343">
        <ele>899.2</ele>
        <time>2021-10-17T15:52:32Z</time>
      </trkpt>
      <trkpt lat="46.52508" lon="5.85339">
        <ele>899.4</ele>
        <time>2021-10-17T15:52:33Z</time>
      </trkpt>
      <trkpt lat="46.52507" lon="5.85335">
        <ele>899.4</ele>
        <time>2021-10-17T15:52:34Z</time>
      </trkpt>
      <trkpt lat="46.52505" lon="5.85331">
        <ele>899.4</ele>
        <time>2021-10-17T15:52:35Z</time>
      </trkpt>
      <trkpt lat="46.52503" lon="5.85326">
        <ele>899.4</ele>
        <time>2021-10-17T15:52:36Z</time>
      </trkpt>
      <trkpt lat="46.52502" lon="5.85322">
        <ele>899.8</ele>
        <time>2021-10-17T15:52:37Z</time>
      </trkpt>
      <trkpt lat="46.525" lon="5.85317">
        <ele>899.8</ele>
        <time>2021-10-17T15:52:38Z</time>
      </trkpt>
      <trkpt lat="46.52498" lon="5.85312">
        <ele>899.8</ele>
        <time>2021-10-17T15:52:39Z</time>
      </trkpt>
      <trkpt lat="46.52496" lon="5.85306">
        <ele>899.8</ele>
        <time>2021-10-17T15:52:40Z</time>
      </trkpt>
      <trkpt lat="46.52494" lon="5.85301">
        <ele>899.8</ele>
        <time>2021-10-17T15:52:41Z</time>
      </trkpt>
      <trkpt lat="46.52492" lon="5.85295">
        <ele>899.8</ele>
        <time>2021-10-17T15:52:42Z</time>
      </trkpt>
      <trkpt lat="46.5249" lon="5.85289">
        <ele>899.8</ele>
        <time>2021-10-17T15:52:43Z</time>
      </trkpt>
      <trkpt lat="46.52488" lon="5.85282">
        <ele>899.8</ele>
        <time>2021-10-17T15:52:44Z</time>
      </trkpt>
      <trkpt lat="46.52486" lon="5.85276">
        <ele>899.8</ele>
        <time>2021-10-17T15:52:45Z</time>
      </trkpt>
      <trkpt lat="46.52484" lon="5.8527">
        <ele>899.8</ele>
        <time>2021-10-17T15:52:46Z</time>
      </trkpt>
      <trkpt lat="46.52482" lon="5.85263">
        <ele>899.8</ele>
        <time>2021-10-17T15:52:47Z</time>
      </trkpt>
      <trkpt lat="46.5248" lon="5.85256">
        <ele>899.8</ele>
        <time>2021-10-17T15:52:48Z</time>
      </trkpt>
      <trkpt lat="46.52478" lon="5.85249">
        <ele>899.6</ele>
        <time>2021-10-17T15:52:49Z</time>
      </trkpt>
      <trkpt lat="46.52476" lon="5.85241">
        <ele>899.6</ele>
        <time>2021-10-17T15:52:50Z</time>
      </trkpt>
      <trkpt lat="46.52475" lon="5.85234">
        <ele>899.6</ele>
        <time>2021-10-17T15:52:51Z</time>
      </trkpt>
      <trkpt lat="46.52473" lon="5.85227">
        <ele>899.6</ele>
        <time>2021-10-17T15:52:52Z</time>
      </trkpt>
      <trkpt lat="46.52471" lon="5.85219">
        <ele>899.6</ele>
        <time>2021-10-17T15:52:53Z</time>
      </trkpt>
      <trkpt lat="46.5247" lon="5.85212">
        <ele>899.6</ele>
        <time>2021-10-17T15:52:54Z</time>
      </trkpt>
      <trkpt lat="46.52468" lon="5.85205">
        <ele>899.6</ele>
        <time>2021-10-17T15:52:55Z</time>
      </trkpt>
      <trkpt lat="46.52466" lon="5.85198">
        <ele>899.6</ele>
        <time>2021-10-17T15:52:56Z</time>
      </trkpt>
      <trkpt lat="46.52465" lon="5.8519">
        <ele>899.6</ele>
        <time>2021-10-17T15:52:57Z</time>
      </trkpt>
      <trkpt lat="46.52464" lon="5.85182">
        <ele>899.6</ele>
        <time>2021-10-17T15:52:58Z</time>
      </trkpt>
      <trkpt lat="46.52463" lon="5.85174">
        <ele>899.6</ele>
        <time>2021-10-17T15:52:59Z</time>
      </trkpt>
      <trkpt lat="46.52461" lon="5.85166">
        <ele>899.6</ele>
        <time>2021-10-17T15:53:00Z</time>
      </trkpt>
      <trkpt lat="46.5246" lon="5.85158">
        <ele>899.6</ele>
        <time>2021-10-17T15:53:01Z</time>
      </trkpt>
      <trkpt lat="46.52459" lon="5.8515">
        <ele>899.6</ele>
        <time>2021-10-17T15:53:02Z</time>
      </trkpt>
      <trkpt lat="46.52458" lon="5.85141">
        <ele>899.6</ele>
        <time>2021-10-17T15:53:03Z</time>
      </trkpt>
      <trkpt lat="46.52458" lon="5.85133">
        <ele>899.6</ele>
        <time>2021-10-17T15:53:04Z</time>
      </trkpt>
      <trkpt lat="46.52457" lon="5.85125">
        <ele>899.6</ele>
        <time>2021-10-17T15:53:05Z</time>
      </trkpt>
      <trkpt lat="46.52456" lon="5.85117">
        <ele>899.6</ele>
        <time>2021-10-17T15:53:06Z</time>
      </trkpt>
      <trkpt lat="46.52454" lon="5.85109">
        <ele>899.6</ele>
        <time>2021-10-17T15:53:07Z</time>
      </trkpt>
      <trkpt lat="46.52453" lon="5.85101">
        <ele>899.8</ele>
        <time>2021-10-17T15:53:08Z</time>
      </trkpt>
      <trkpt lat="46.52451" lon="5.85094">
        <ele>899.8</ele>
        <time>2021-10-17T15:53:09Z</time>
      </trkpt>
      <trkpt lat="46.52449" lon="5.85086">
        <ele>899.8</ele>
        <time>2021-10-17T15:53:10Z</time>
      </trkpt>
      <trkpt lat="46.52447" lon="5.85079">
        <ele>899.8</ele>
        <time>2021-10-17T15:53:11Z</time>
      </trkpt>
      <trkpt lat="46.52445" lon="5.85071">
        <ele>899.8</ele>
        <time>2021-10-17T15:53:12Z</time>
      </trkpt>
      <trkpt lat="46.52443" lon="5.85064">
        <ele>899.8</ele>
        <time>2021-10-17T15:53:13Z</time>
      </trkpt>
      <trkpt lat="46.5244" lon="5.85058">
        <ele>899.8</ele>
        <time>2021-10-17T15:53:14Z</time>
      </trkpt>
      <trkpt lat="46.52437" lon="5.85051">
        <ele>899.8</ele>
        <time>2021-10-17T15:53:15Z</time>
      </trkpt>
      <trkpt lat="46.52434" lon="5.85045">
        <ele>900</ele>
        <time>2021-10-17T15:53:16Z</time>
      </trkpt>
      <trkpt lat="46.52431" lon="5.8504">
        <ele>900</ele>
        <time>2021-10-17T15:53:17Z</time>
      </trkpt>
      <trkpt lat="46.52427" lon="5.85034">
        <ele>900.2</ele>
        <time>2021-10-17T15:53:18Z</time>
      </trkpt>
      <trkpt lat="46.52424" lon="5.85029">
        <ele>900.2</ele>
        <time>2021-10-17T15:53:19Z</time>
      </trkpt>
      <trkpt lat="46.5242" lon="5.85024">
        <ele>900.2</ele>
        <time>2021-10-17T15:53:20Z</time>
      </trkpt>
      <trkpt lat="46.52416" lon="5.85019">
        <ele>900.4</ele>
        <time>2021-10-17T15:53:21Z</time>
      </trkpt>
      <trkpt lat="46.52412" lon="5.85015">
        <ele>900.4</ele>
        <time>2021-10-17T15:53:22Z</time>
      </trkpt>
      <trkpt lat="46.52408" lon="5.85011">
        <ele>900.8</ele>
        <time>2021-10-17T15:53:23Z</time>
      </trkpt>
      <trkpt lat="46.52404" lon="5.85007">
        <ele>900.8</ele>
        <time>2021-10-17T15:53:24Z</time>
      </trkpt>
      <trkpt lat="46.524" lon="5.85003">
        <ele>901</ele>
        <time>2021-10-17T15:53:25Z</time>
      </trkpt>
      <trkpt lat="46.52396" lon="5.84999">
        <ele>901</ele>
        <time>2021-10-17T15:53:26Z</time>
      </trkpt>
      <trkpt lat="46.52392" lon="5.84996">
        <ele>901</ele>
        <time>2021-10-17T15:53:27Z</time>
      </trkpt>
      <trkpt lat="46.52388" lon="5.84992">
        <ele>901</ele>
        <time>2021-10-17T15:53:28Z</time>
      </trkpt>
      <trkpt lat="46.52383" lon="5.84988">
        <ele>901</ele>
        <time>2021-10-17T15:53:29Z</time>
      </trkpt>
      <trkpt lat="46.52379" lon="5.84984">
        <ele>901.2</ele>
        <time>2021-10-17T15:53:30Z</time>
      </trkpt>
      <trkpt lat="46.52375" lon="5.84979">
        <ele>901.2</ele>
        <time>2021-10-17T15:53:31Z</time>
      </trkpt>
      <trkpt lat="46.52371" lon="5.84975">
        <ele>901.2</ele>
        <time>2021-10-17T15:53:32Z</time>
      </trkpt>
      <trkpt lat="46.52367" lon="5.84971">
        <ele>901.4</ele>
        <time>2021-10-17T15:53:33Z</time>
      </trkpt>
      <trkpt lat="46.52363" lon="5.84967">
        <ele>901.4</ele>
        <time>2021-10-17T15:53:34Z</time>
      </trkpt>
      <trkpt lat="46.5236" lon="5.84964">
        <ele>901.8</ele>
        <time>2021-10-17T15:53:35Z</time>
      </trkpt>
      <trkpt lat="46.52357" lon="5.8496">
        <ele>902</ele>
        <time>2021-10-17T15:53:36Z</time>
      </trkpt>
      <trkpt lat="46.52354" lon="5.84957">
        <ele>902.2</ele>
        <time>2021-10-17T15:53:37Z</time>
      </trkpt>
      <trkpt lat="46.52351" lon="5.84953">
        <ele>902.4</ele>
        <time>2021-10-17T15:53:38Z</time>
      </trkpt>
      <trkpt lat="46.52348" lon="5.84949">
        <ele>902.8</ele>
        <time>2021-10-17T15:53:39Z</time>
      </trkpt>
      <trkpt lat="46.52346" lon="5.84946">
        <ele>903</ele>
        <time>2021-10-17T15:53:40Z</time>
      </trkpt>
      <trkpt lat="46.52343" lon="5.84943">
        <ele>903.4</ele>
        <time>2021-10-17T15:53:41Z</time>
      </trkpt>
      <trkpt lat="46.5234" lon="5.84939">
        <ele>903.6</ele>
        <time>2021-10-17T15:53:42Z</time>
      </trkpt>
      <trkpt lat="46.52338" lon="5.84936">
        <ele>903.8</ele>
        <time>2021-10-17T15:53:43Z</time>
      </trkpt>
      <trkpt lat="46.52336" lon="5.84932">
        <ele>903.8</ele>
        <time>2021-10-17T15:53:44Z</time>
      </trkpt>
      <trkpt lat="46.52334" lon="5.84929">
        <ele>904.2</ele>
        <time>2021-10-17T15:53:45Z</time>
      </trkpt>
      <trkpt lat="46.52331" lon="5.84925">
        <ele>904.2</ele>
        <time>2021-10-17T15:53:46Z</time>
      </trkpt>
      <trkpt lat="46.52329" lon="5.84922">
        <ele>904.8</ele>
        <time>2021-10-17T15:53:47Z</time>
      </trkpt>
      <trkpt lat="46.52327" lon="5.84919">
        <ele>905</ele>
        <time>2021-10-17T15:53:48Z</time>
      </trkpt>
      <trkpt lat="46.52325" lon="5.84915">
        <ele>905.2</ele>
        <time>2021-10-17T15:53:49Z</time>
      </trkpt>
      <trkpt lat="46.52323" lon="5.84912">
        <ele>905.4</ele>
        <time>2021-10-17T15:53:50Z</time>
      </trkpt>
      <trkpt lat="46.52321" lon="5.84909">
        <ele>905.8</ele>
        <time>2021-10-17T15:53:51Z</time>
      </trkpt>
      <trkpt lat="46.5232" lon="5.84906">
        <ele>906</ele>
        <time>2021-10-17T15:53:52Z</time>
      </trkpt>
      <trkpt lat="46.52318" lon="5.84903">
        <ele>906.2</ele>
        <time>2021-10-17T15:53:53Z</time>
      </trkpt>
      <trkpt lat="46.52316" lon="5.849">
        <ele>906.4</ele>
        <time>2021-10-17T15:53:54Z</time>
      </trkpt>
      <trkpt lat="46.52315" lon="5.84898">
        <ele>906.6</ele>
        <time>2021-10-17T15:53:55Z</time>
      </trkpt>
      <trkpt lat="46.52313" lon="5.84895">
        <ele>906.6</ele>
        <time>2021-10-17T15:53:56Z</time>
      </trkpt>
      <trkpt lat="46.52311" lon="5.84892">
        <ele>907</ele>
        <time>2021-10-17T15:53:57Z</time>
      </trkpt>
      <trkpt lat="46.5231" lon="5.84889">
        <ele>907</ele>
        <time>2021-10-17T15:53:58Z</time>
      </trkpt>
      <trkpt lat="46.52308" lon="5.84886">
        <ele>907.4</ele>
        <time>2021-10-17T15:53:59Z</time>
      </trkpt>
      <trkpt lat="46.52307" lon="5.84884">
        <ele>907.6</ele>
        <time>2021-10-17T15:54:00Z</time>
      </trkpt>
      <trkpt lat="46.52305" lon="5.84881">
        <ele>907.8</ele>
        <time>2021-10-17T15:54:01Z</time>
      </trkpt>
      <trkpt lat="46.52304" lon="5.84879">
        <ele>907.8</ele>
        <time>2021-10-17T15:54:02Z</time>
      </trkpt>
      <trkpt lat="46.52302" lon="5.84876">
        <ele>908.2</ele>
        <time>2021-10-17T15:54:03Z</time>
      </trkpt>
      <trkpt lat="46.52301" lon="5.84873">
        <ele>908.4</ele>
        <time>2021-10-17T15:54:04Z</time>
      </trkpt>
      <trkpt lat="46.523" lon="5.8487">
        <ele>908.4</ele>
        <time>2021-10-17T15:54:05Z</time>
      </trkpt>
      <trkpt lat="46.52299" lon="5.84867">
        <ele>908.8</ele>
        <time>2021-10-17T15:54:06Z</time>
      </trkpt>
      <trkpt lat="46.52298" lon="5.84864">
        <ele>908.8</ele>
        <time>2021-10-17T15:54:07Z</time>
      </trkpt>
      <trkpt lat="46.52297" lon="5.84861">
        <ele>909</ele>
        <time>2021-10-17T15:54:08Z</time>
      </trkpt>
      <trkpt lat="46.52296" lon="5.84858">
        <ele>909</ele>
        <time>2021-10-17T15:54:09Z</time>
      </trkpt>
      <trkpt lat="46.52295" lon="5.84855">
        <ele>909.4</ele>
        <time>2021-10-17T15:54:10Z</time>
      </trkpt>
      <trkpt lat="46.52294" lon="5.84852">
        <ele>909.4</ele>
        <time>2021-10-17T15:54:11Z</time>
      </trkpt>
      <trkpt lat="46.52293" lon="5.84849">
        <ele>909.8</ele>
        <time>2021-10-17T15:54:12Z</time>
      </trkpt>
      <trkpt lat="46.52292" lon="5.84847">
        <ele>909.8</ele>
        <time>2021-10-17T15:54:13Z</time>
      </trkpt>
      <trkpt lat="46.52291" lon="5.84844">
        <ele>910</ele>
        <time>2021-10-17T15:54:14Z</time>
      </trkpt>
      <trkpt lat="46.5229" lon="5.84841">
        <ele>910.2</ele>
        <time>2021-10-17T15:54:15Z</time>
      </trkpt>
      <trkpt lat="46.5229" lon="5.84838">
        <ele>910.2</ele>
        <time>2021-10-17T15:54:16Z</time>
      </trkpt>
      <trkpt lat="46.52291" lon="5.84834">
        <ele>910.2</ele>
        <time>2021-10-17T15:54:17Z</time>
      </trkpt>
      <trkpt lat="46.52292" lon="5.84831">
        <ele>910.6</ele>
        <time>2021-10-17T15:54:18Z</time>
      </trkpt>
      <trkpt lat="46.52293" lon="5.84828">
        <ele>910.6</ele>
        <time>2021-10-17T15:54:19Z</time>
      </trkpt>
      <trkpt lat="46.52294" lon="5.84825">
        <ele>910.8</ele>
        <time>2021-10-17T15:54:20Z</time>
      </trkpt>
      <trkpt lat="46.52296" lon="5.84823">
        <ele>910.8</ele>
        <time>2021-10-17T15:54:21Z</time>
      </trkpt>
      <trkpt lat="46.52297" lon="5.84821">
        <ele>911.2</ele>
        <time>2021-10-17T15:54:22Z</time>
      </trkpt>
      <trkpt lat="46.52299" lon="5.84818">
        <ele>911.2</ele>
        <time>2021-10-17T15:54:23Z</time>
      </trkpt>
      <trkpt lat="46.523" lon="5.84817">
        <ele>911.6</ele>
        <time>2021-10-17T15:54:24Z</time>
      </trkpt>
      <trkpt lat="46.52302" lon="5.84816">
        <ele>911.8</ele>
        <time>2021-10-17T15:54:25Z</time>
      </trkpt>
      <trkpt lat="46.52304" lon="5.84815">
        <ele>911.8</ele>
        <time>2021-10-17T15:54:26Z</time>
      </trkpt>
      <trkpt lat="46.52306" lon="5.84816">
        <ele>912</ele>
        <time>2021-10-17T15:54:27Z</time>
      </trkpt>
      <trkpt lat="46.52308" lon="5.84817">
        <ele>912</ele>
        <time>2021-10-17T15:54:28Z</time>
      </trkpt>
      <trkpt lat="46.5231" lon="5.84819">
        <ele>912.4</ele>
        <time>2021-10-17T15:54:29Z</time>
      </trkpt>
      <trkpt lat="46.52312" lon="5.84822">
        <ele>912.4</ele>
        <time>2021-10-17T15:54:30Z</time>
      </trkpt>
      <trkpt lat="46.52314" lon="5.84824">
        <ele>912.8</ele>
        <time>2021-10-17T15:54:31Z</time>
      </trkpt>
      <trkpt lat="46.52316" lon="5.84826">
        <ele>912.8</ele>
        <time>2021-10-17T15:54:32Z</time>
      </trkpt>
      <trkpt lat="46.52319" lon="5.84829">
        <ele>912.8</ele>
        <time>2021-10-17T15:54:33Z</time>
      </trkpt>
      <trkpt lat="46.52321" lon="5.84831">
        <ele>913</ele>
        <time>2021-10-17T15:54:34Z</time>
      </trkpt>
      <trkpt lat="46.52323" lon="5.84834">
        <ele>913</ele>
        <time>2021-10-17T15:54:35Z</time>
      </trkpt>
      <trkpt lat="46.52326" lon="5.84836">
        <ele>913</ele>
        <time>2021-10-17T15:54:36Z</time>
      </trkpt>
      <trkpt lat="46.52328" lon="5.84838">
        <ele>913.2</ele>
        <time>2021-10-17T15:54:37Z</time>
      </trkpt>
      <trkpt lat="46.52331" lon="5.8484">
        <ele>913.2</ele>
        <time>2021-10-17T15:54:38Z</time>
      </trkpt>
      <trkpt lat="46.52333" lon="5.84843">
        <ele>913.6</ele>
        <time>2021-10-17T15:54:39Z</time>
      </trkpt>
      <trkpt lat="46.52336" lon="5.84846">
        <ele>913.6</ele>
        <time>2021-10-17T15:54:40Z</time>
      </trkpt>
      <trkpt lat="46.52338" lon="5.84849">
        <ele>913.6</ele>
        <time>2021-10-17T15:54:41Z</time>
      </trkpt>
      <trkpt lat="46.5234" lon="5.84852">
        <ele>913.8</ele>
        <time>2021-10-17T15:54:42Z</time>
      </trkpt>
      <trkpt lat="46.52343" lon="5.84855">
        <ele>913.8</ele>
        <time>2021-10-17T15:54:43Z</time>
      </trkpt>
      <trkpt lat="46.52345" lon="5.84858">
        <ele>914</ele>
        <time>2021-10-17T15:54:44Z</time>
      </trkpt>
      <trkpt lat="46.52347" lon="5.84861">
        <ele>914</ele>
        <time>2021-10-17T15:54:45Z</time>
      </trkpt>
      <trkpt lat="46.52349" lon="5.84864">
        <ele>914.4</ele>
        <time>2021-10-17T15:54:46Z</time>
      </trkpt>
      <trkpt lat="46.52351" lon="5.84867">
        <ele>914.4</ele>
        <time>2021-10-17T15:54:47Z</time>
      </trkpt>
      <trkpt lat="46.52354" lon="5.8487">
        <ele>914.8</ele>
        <time>2021-10-17T15:54:48Z</time>
      </trkpt>
      <trkpt lat="46.52354" lon="5.8487">
        <ele>914.8</ele>
        <time>2021-10-17T15:54:49Z</time>
      </trkpt>
      <trkpt lat="46.52356" lon="5.84873">
        <ele>915.2</ele>
        <time>2021-10-17T15:54:50Z</time>
      </trkpt>
      <trkpt lat="46.5236" lon="5.84879">
        <ele>915.6</ele>
        <time>2021-10-17T15:54:51Z</time>
      </trkpt>
      <trkpt lat="46.5236" lon="5.84879">
        <ele>915.8</ele>
        <time>2021-10-17T15:54:52Z</time>
      </trkpt>
      <trkpt lat="46.52362" lon="5.84882">
        <ele>916</ele>
        <time>2021-10-17T15:54:53Z</time>
      </trkpt>
      <trkpt lat="46.52364" lon="5.84885">
        <ele>916.2</ele>
        <time>2021-10-17T15:54:54Z</time>
      </trkpt>
      <trkpt lat="46.52366" lon="5.84887">
        <ele>916.2</ele>
        <time>2021-10-17T15:54:55Z</time>
      </trkpt>
      <trkpt lat="46.52368" lon="5.84889">
        <ele>916.6</ele>
        <time>2021-10-17T15:54:56Z</time>
      </trkpt>
      <trkpt lat="46.52371" lon="5.84891">
        <ele>916.6</ele>
        <time>2021-10-17T15:54:57Z</time>
      </trkpt>
      <trkpt lat="46.52373" lon="5.84892">
        <ele>916.6</ele>
        <time>2021-10-17T15:54:58Z</time>
      </trkpt>
      <trkpt lat="46.52375" lon="5.84894">
        <ele>916.8</ele>
        <time>2021-10-17T15:54:59Z</time>
      </trkpt>
      <trkpt lat="46.52378" lon="5.84895">
        <ele>917</ele>
        <time>2021-10-17T15:55:00Z</time>
      </trkpt>
      <trkpt lat="46.52381" lon="5.84897">
        <ele>917.2</ele>
        <time>2021-10-17T15:55:01Z</time>
      </trkpt>
      <trkpt lat="46.52383" lon="5.84898">
        <ele>917.2</ele>
        <time>2021-10-17T15:55:02Z</time>
      </trkpt>
      <trkpt lat="46.52386" lon="5.849">
        <ele>917.6</ele>
        <time>2021-10-17T15:55:03Z</time>
      </trkpt>
      <trkpt lat="46.52388" lon="5.849">
        <ele>917.6</ele>
        <time>2021-10-17T15:55:04Z</time>
      </trkpt>
      <trkpt lat="46.52391" lon="5.84901">
        <ele>917.8</ele>
        <time>2021-10-17T15:55:05Z</time>
      </trkpt>
      <trkpt lat="46.52394" lon="5.84901">
        <ele>917.8</ele>
        <time>2021-10-17T15:55:06Z</time>
      </trkpt>
      <trkpt lat="46.52396" lon="5.84902">
        <ele>918.2</ele>
        <time>2021-10-17T15:55:07Z</time>
      </trkpt>
      <trkpt lat="46.52399" lon="5.84902">
        <ele>918.2</ele>
        <time>2021-10-17T15:55:08Z</time>
      </trkpt>
      <trkpt lat="46.52402" lon="5.84902">
        <ele>918.6</ele>
        <time>2021-10-17T15:55:09Z</time>
      </trkpt>
      <trkpt lat="46.52405" lon="5.84902">
        <ele>918.6</ele>
        <time>2021-10-17T15:55:10Z</time>
      </trkpt>
      <trkpt lat="46.52408" lon="5.84902">
        <ele>918.8</ele>
        <time>2021-10-17T15:55:11Z</time>
      </trkpt>
      <trkpt lat="46.5241" lon="5.84902">
        <ele>918.8</ele>
        <time>2021-10-17T15:55:12Z</time>
      </trkpt>
      <trkpt lat="46.52413" lon="5.84902">
        <ele>919.2</ele>
        <time>2021-10-17T15:55:13Z</time>
      </trkpt>
      <trkpt lat="46.52416" lon="5.84902">
        <ele>919.2</ele>
        <time>2021-10-17T15:55:14Z</time>
      </trkpt>
      <trkpt lat="46.52418" lon="5.84902">
        <ele>919.6</ele>
        <time>2021-10-17T15:55:15Z</time>
      </trkpt>
      <trkpt lat="46.52421" lon="5.84901">
        <ele>919.8</ele>
        <time>2021-10-17T15:55:16Z</time>
      </trkpt>
      <trkpt lat="46.52424" lon="5.84901">
        <ele>919.8</ele>
        <time>2021-10-17T15:55:17Z</time>
      </trkpt>
      <trkpt lat="46.52427" lon="5.84901">
        <ele>920.2</ele>
        <time>2021-10-17T15:55:18Z</time>
      </trkpt>
      <trkpt lat="46.52429" lon="5.849">
        <ele>920.2</ele>
        <time>2021-10-17T15:55:19Z</time>
      </trkpt>
      <trkpt lat="46.52432" lon="5.849">
        <ele>920.2</ele>
        <time>2021-10-17T15:55:20Z</time>
      </trkpt>
      <trkpt lat="46.52435" lon="5.849">
        <ele>920.4</ele>
        <time>2021-10-17T15:55:21Z</time>
      </trkpt>
      <trkpt lat="46.52438" lon="5.849">
        <ele>920.4</ele>
        <time>2021-10-17T15:55:22Z</time>
      </trkpt>
      <trkpt lat="46.5244" lon="5.849">
        <ele>920.8</ele>
        <time>2021-10-17T15:55:23Z</time>
      </trkpt>
      <trkpt lat="46.52443" lon="5.84899">
        <ele>920.8</ele>
        <time>2021-10-17T15:55:24Z</time>
      </trkpt>
      <trkpt lat="46.52446" lon="5.84899">
        <ele>921</ele>
        <time>2021-10-17T15:55:25Z</time>
      </trkpt>
      <trkpt lat="46.52449" lon="5.84899">
        <ele>921.2</ele>
        <time>2021-10-17T15:55:26Z</time>
      </trkpt>
      <trkpt lat="46.52451" lon="5.84899">
        <ele>921.4</ele>
        <time>2021-10-17T15:55:27Z</time>
      </trkpt>
      <trkpt lat="46.52454" lon="5.84898">
        <ele>921.4</ele>
        <time>2021-10-17T15:55:28Z</time>
      </trkpt>
      <trkpt lat="46.52457" lon="5.84897">
        <ele>921.8</ele>
        <time>2021-10-17T15:55:29Z</time>
      </trkpt>
      <trkpt lat="46.5246" lon="5.84897">
        <ele>921.8</ele>
        <time>2021-10-17T15:55:30Z</time>
      </trkpt>
      <trkpt lat="46.52463" lon="5.84897">
        <ele>922</ele>
        <time>2021-10-17T15:55:31Z</time>
      </trkpt>
      <trkpt lat="46.52465" lon="5.84897">
        <ele>922</ele>
        <time>2021-10-17T15:55:32Z</time>
      </trkpt>
      <trkpt lat="46.52469" lon="5.84897">
        <ele>922.4</ele>
        <time>2021-10-17T15:55:33Z</time>
      </trkpt>
      <trkpt lat="46.52472" lon="5.84897">
        <ele>922.6</ele>
        <time>2021-10-17T15:55:34Z</time>
      </trkpt>
      <trkpt lat="46.52475" lon="5.84897">
        <ele>922.6</ele>
        <time>2021-10-17T15:55:35Z</time>
      </trkpt>
      <trkpt lat="46.52478" lon="5.84897">
        <ele>923</ele>
        <time>2021-10-17T15:55:36Z</time>
      </trkpt>
      <trkpt lat="46.52481" lon="5.84897">
        <ele>923</ele>
        <time>2021-10-17T15:55:37Z</time>
      </trkpt>
      <trkpt lat="46.52484" lon="5.84897">
        <ele>923.2</ele>
        <time>2021-10-17T15:55:38Z</time>
      </trkpt>
      <trkpt lat="46.52487" lon="5.84897">
        <ele>923.6</ele>
        <time>2021-10-17T15:55:39Z</time>
      </trkpt>
      <trkpt lat="46.5249" lon="5.84898">
        <ele>923.8</ele>
        <time>2021-10-17T15:55:40Z</time>
      </trkpt>
      <trkpt lat="46.52493" lon="5.84898">
        <ele>924</ele>
        <time>2021-10-17T15:55:41Z</time>
      </trkpt>
      <trkpt lat="46.52496" lon="5.84898">
        <ele>924</ele>
        <time>2021-10-17T15:55:42Z</time>
      </trkpt>
      <trkpt lat="46.52499" lon="5.84897">
        <ele>924.2</ele>
        <time>2021-10-17T15:55:43Z</time>
      </trkpt>
      <trkpt lat="46.52501" lon="5.84897">
        <ele>924.2</ele>
        <time>2021-10-17T15:55:44Z</time>
      </trkpt>
      <trkpt lat="46.52504" lon="5.84896">
        <ele>924.6</ele>
        <time>2021-10-17T15:55:45Z</time>
      </trkpt>
      <trkpt lat="46.52507" lon="5.84896">
        <ele>924.6</ele>
        <time>2021-10-17T15:55:46Z</time>
      </trkpt>
      <trkpt lat="46.52509" lon="5.84895">
        <ele>924.6</ele>
        <time>2021-10-17T15:55:47Z</time>
      </trkpt>
      <trkpt lat="46.52512" lon="5.84894">
        <ele>924.8</ele>
        <time>2021-10-17T15:55:48Z</time>
      </trkpt>
      <trkpt lat="46.52515" lon="5.84893">
        <ele>924.8</ele>
        <time>2021-10-17T15:55:49Z</time>
      </trkpt>
      <trkpt lat="46.52518" lon="5.84891">
        <ele>925.2</ele>
        <time>2021-10-17T15:55:50Z</time>
      </trkpt>
      <trkpt lat="46.5252" lon="5.8489">
        <ele>925.2</ele>
        <time>2021-10-17T15:55:51Z</time>
      </trkpt>
      <trkpt lat="46.52523" lon="5.84889">
        <ele>925.4</ele>
        <time>2021-10-17T15:55:52Z</time>
      </trkpt>
      <trkpt lat="46.52525" lon="5.84887">
        <ele>925.4</ele>
        <time>2021-10-17T15:55:53Z</time>
      </trkpt>
      <trkpt lat="46.52527" lon="5.84885">
        <ele>925.8</ele>
        <time>2021-10-17T15:55:54Z</time>
      </trkpt>
      <trkpt lat="46.52529" lon="5.84883">
        <ele>925.8</ele>
        <time>2021-10-17T15:55:55Z</time>
      </trkpt>
      <trkpt lat="46.52532" lon="5.84881">
        <ele>926</ele>
        <time>2021-10-17T15:55:56Z</time>
      </trkpt>
      <trkpt lat="46.52534" lon="5.84879">
        <ele>926</ele>
        <time>2021-10-17T15:55:57Z</time>
      </trkpt>
      <trkpt lat="46.52536" lon="5.84877">
        <ele>926</ele>
        <time>2021-10-17T15:55:58Z</time>
      </trkpt>
      <trkpt lat="46.52538" lon="5.84875">
        <ele>926.2</ele>
        <time>2021-10-17T15:55:59Z</time>
      </trkpt>
      <trkpt lat="46.5254" lon="5.84872">
        <ele>926.2</ele>
        <time>2021-10-17T15:56:00Z</time>
      </trkpt>
      <trkpt lat="46.52542" lon="5.8487">
        <ele>926.6</ele>
        <time>2021-10-17T15:56:01Z</time>
      </trkpt>
      <trkpt lat="46.52544" lon="5.84867">
        <ele>926.6</ele>
        <time>2021-10-17T15:56:02Z</time>
      </trkpt>
      <trkpt lat="46.52547" lon="5.84865">
        <ele>927</ele>
        <time>2021-10-17T15:56:03Z</time>
      </trkpt>
      <trkpt lat="46.52549" lon="5.84862">
        <ele>927</ele>
        <time>2021-10-17T15:56:04Z</time>
      </trkpt>
      <trkpt lat="46.52551" lon="5.8486">
        <ele>927.2</ele>
        <time>2021-10-17T15:56:05Z</time>
      </trkpt>
      <trkpt lat="46.52552" lon="5.84857">
        <ele>927.2</ele>
        <time>2021-10-17T15:56:06Z</time>
      </trkpt>
      <trkpt lat="46.52554" lon="5.84855">
        <ele>927.4</ele>
        <time>2021-10-17T15:56:07Z</time>
      </trkpt>
      <trkpt lat="46.52556" lon="5.84852">
        <ele>927.4</ele>
        <time>2021-10-17T15:56:08Z</time>
      </trkpt>
      <trkpt lat="46.52558" lon="5.84849">
        <ele>927.8</ele>
        <time>2021-10-17T15:56:09Z</time>
      </trkpt>
      <trkpt lat="46.5256" lon="5.84847">
        <ele>927.8</ele>
        <time>2021-10-17T15:56:10Z</time>
      </trkpt>
      <trkpt lat="46.52562" lon="5.84844">
        <ele>928</ele>
        <time>2021-10-17T15:56:11Z</time>
      </trkpt>
      <trkpt lat="46.52564" lon="5.84841">
        <ele>928</ele>
        <time>2021-10-17T15:56:12Z</time>
      </trkpt>
      <trkpt lat="46.52566" lon="5.84839">
        <ele>928.4</ele>
        <time>2021-10-17T15:56:13Z</time>
      </trkpt>
      <trkpt lat="46.52568" lon="5.84836">
        <ele>928.4</ele>
        <time>2021-10-17T15:56:14Z</time>
      </trkpt>
      <trkpt lat="46.52571" lon="5.84834">
        <ele>928.6</ele>
        <time>2021-10-17T15:56:15Z</time>
      </trkpt>
      <trkpt lat="46.52573" lon="5.84832">
        <ele>928.6</ele>
        <time>2021-10-17T15:56:16Z</time>
      </trkpt>
      <trkpt lat="46.52575" lon="5.8483">
        <ele>929</ele>
        <time>2021-10-17T15:56:17Z</time>
      </trkpt>
      <trkpt lat="46.52578" lon="5.84828">
        <ele>929</ele>
        <time>2021-10-17T15:56:18Z</time>
      </trkpt>
      <trkpt lat="46.5258" lon="5.84825">
        <ele>929.2</ele>
        <time>2021-10-17T15:56:19Z</time>
      </trkpt>
      <trkpt lat="46.52582" lon="5.84823">
        <ele>929.2</ele>
        <time>2021-10-17T15:56:20Z</time>
      </trkpt>
      <trkpt lat="46.52584" lon="5.84821">
        <ele>929.2</ele>
        <time>2021-10-17T15:56:21Z</time>
      </trkpt>
      <trkpt lat="46.52587" lon="5.8482">
        <ele>929.6</ele>
        <time>2021-10-17T15:56:22Z</time>
      </trkpt>
      <trkpt lat="46.52589" lon="5.84818">
        <ele>929.6</ele>
        <time>2021-10-17T15:56:23Z</time>
      </trkpt>
      <trkpt lat="46.52591" lon="5.84817">
        <ele>929.8</ele>
        <time>2021-10-17T15:56:24Z</time>
      </trkpt>
      <trkpt lat="46.52594" lon="5.84816">
        <ele>929.8</ele>
        <time>2021-10-17T15:56:25Z</time>
      </trkpt>
      <trkpt lat="46.52596" lon="5.84815">
        <ele>930</ele>
        <time>2021-10-17T15:56:26Z</time>
      </trkpt>
      <trkpt lat="46.52599" lon="5.84814">
        <ele>930</ele>
        <time>2021-10-17T15:56:27Z</time>
      </trkpt>
      <trkpt lat="46.52602" lon="5.84812">
        <ele>930.2</ele>
        <time>2021-10-17T15:56:28Z</time>
      </trkpt>
      <trkpt lat="46.52605" lon="5.84811">
        <ele>930.2</ele>
        <time>2021-10-17T15:56:29Z</time>
      </trkpt>
      <trkpt lat="46.52608" lon="5.8481">
        <ele>930.4</ele>
        <time>2021-10-17T15:56:30Z</time>
      </trkpt>
      <trkpt lat="46.52612" lon="5.84808">
        <ele>930.4</ele>
        <time>2021-10-17T15:56:31Z</time>
      </trkpt>
      <trkpt lat="46.52615" lon="5.84807">
        <ele>930.4</ele>
        <time>2021-10-17T15:56:32Z</time>
      </trkpt>
      <trkpt lat="46.52619" lon="5.84805">
        <ele>930.4</ele>
        <time>2021-10-17T15:56:33Z</time>
      </trkpt>
      <trkpt lat="46.52622" lon="5.84803">
        <ele>930.4</ele>
        <time>2021-10-17T15:56:34Z</time>
      </trkpt>
      <trkpt lat="46.52626" lon="5.84802">
        <ele>930.4</ele>
        <time>2021-10-17T15:56:35Z</time>
      </trkpt>
      <trkpt lat="46.52629" lon="5.84801">
        <ele>930.4</ele>
        <time>2021-10-17T15:56:36Z</time>
      </trkpt>
      <trkpt lat="46.52633" lon="5.848">
        <ele>930.4</ele>
        <time>2021-10-17T15:56:37Z</time>
      </trkpt>
      <trkpt lat="46.52637" lon="5.84799">
        <ele>930.4</ele>
        <time>2021-10-17T15:56:38Z</time>
      </trkpt>
      <trkpt lat="46.52641" lon="5.84798">
        <ele>930.4</ele>
        <time>2021-10-17T15:56:39Z</time>
      </trkpt>
      <trkpt lat="46.52646" lon="5.84796">
        <ele>930.4</ele>
        <time>2021-10-17T15:56:40Z</time>
      </trkpt>
      <trkpt lat="46.5265" lon="5.84795">
        <ele>930.4</ele>
        <time>2021-10-17T15:56:41Z</time>
      </trkpt>
      <trkpt lat="46.52655" lon="5.84794">
        <ele>930.4</ele>
        <time>2021-10-17T15:56:42Z</time>
      </trkpt>
      <trkpt lat="46.52659" lon="5.84793">
        <ele>930.4</ele>
        <time>2021-10-17T15:56:43Z</time>
      </trkpt>
      <trkpt lat="46.52664" lon="5.84792">
        <ele>930.4</ele>
        <time>2021-10-17T15:56:44Z</time>
      </trkpt>
      <trkpt lat="46.52668" lon="5.8479">
        <ele>930.4</ele>
        <time>2021-10-17T15:56:45Z</time>
      </trkpt>
      <trkpt lat="46.52672" lon="5.84789">
        <ele>930.4</ele>
        <time>2021-10-17T15:56:46Z</time>
      </trkpt>
      <trkpt lat="46.52677" lon="5.84788">
        <ele>930.4</ele>
        <time>2021-10-17T15:56:47Z</time>
      </trkpt>
      <trkpt lat="46.52681" lon="5.84787">
        <ele>930.6</ele>
        <time>2021-10-17T15:56:48Z</time>
      </trkpt>
      <trkpt lat="46.52686" lon="5.84786">
        <ele>930.6</ele>
        <time>2021-10-17T15:56:49Z</time>
      </trkpt>
      <trkpt lat="46.5269" lon="5.84785">
        <ele>930.6</ele>
        <time>2021-10-17T15:56:50Z</time>
      </trkpt>
      <trkpt lat="46.52695" lon="5.84784">
        <ele>930.6</ele>
        <time>2021-10-17T15:56:51Z</time>
      </trkpt>
      <trkpt lat="46.527" lon="5.84783">
        <ele>930.8</ele>
        <time>2021-10-17T15:56:52Z</time>
      </trkpt>
      <trkpt lat="46.52704" lon="5.84782">
        <ele>930.8</ele>
        <time>2021-10-17T15:56:53Z</time>
      </trkpt>
      <trkpt lat="46.52708" lon="5.8478">
        <ele>930.8</ele>
        <time>2021-10-17T15:56:54Z</time>
      </trkpt>
      <trkpt lat="46.52713" lon="5.84779">
        <ele>930.8</ele>
        <time>2021-10-17T15:56:55Z</time>
      </trkpt>
      <trkpt lat="46.52717" lon="5.84778">
        <ele>931.2</ele>
        <time>2021-10-17T15:56:56Z</time>
      </trkpt>
      <trkpt lat="46.52721" lon="5.84777">
        <ele>931.2</ele>
        <time>2021-10-17T15:56:57Z</time>
      </trkpt>
      <trkpt lat="46.52725" lon="5.84777">
        <ele>931.2</ele>
        <time>2021-10-17T15:56:58Z</time>
      </trkpt>
      <trkpt lat="46.52729" lon="5.84776">
        <ele>931.2</ele>
        <time>2021-10-17T15:56:59Z</time>
      </trkpt>
      <trkpt lat="46.52733" lon="5.84774">
        <ele>931.4</ele>
        <time>2021-10-17T15:57:00Z</time>
      </trkpt>
      <trkpt lat="46.52737" lon="5.84773">
        <ele>931.4</ele>
        <time>2021-10-17T15:57:01Z</time>
      </trkpt>
      <trkpt lat="46.52741" lon="5.84771">
        <ele>931.6</ele>
        <time>2021-10-17T15:57:02Z</time>
      </trkpt>
      <trkpt lat="46.52745" lon="5.84769">
        <ele>931.6</ele>
        <time>2021-10-17T15:57:03Z</time>
      </trkpt>
      <trkpt lat="46.52749" lon="5.84767">
        <ele>931.6</ele>
        <time>2021-10-17T15:57:04Z</time>
      </trkpt>
      <trkpt lat="46.52753" lon="5.84764">
        <ele>931.8</ele>
        <time>2021-10-17T15:57:05Z</time>
      </trkpt>
      <trkpt lat="46.52757" lon="5.84761">
        <ele>931.8</ele>
        <time>2021-10-17T15:57:06Z</time>
      </trkpt>
      <trkpt lat="46.52761" lon="5.84758">
        <ele>931.8</ele>
        <time>2021-10-17T15:57:07Z</time>
      </trkpt>
      <trkpt lat="46.52765" lon="5.84755">
        <ele>932.2</ele>
        <time>2021-10-17T15:57:08Z</time>
      </trkpt>
      <trkpt lat="46.52769" lon="5.84751">
        <ele>932.2</ele>
        <time>2021-10-17T15:57:09Z</time>
      </trkpt>
      <trkpt lat="46.52772" lon="5.84748">
        <ele>932.6</ele>
        <time>2021-10-17T15:57:10Z</time>
      </trkpt>
      <trkpt lat="46.52775" lon="5.84744">
        <ele>932.8</ele>
        <time>2021-10-17T15:57:11Z</time>
      </trkpt>
      <trkpt lat="46.52778" lon="5.84741">
        <ele>932.8</ele>
        <time>2021-10-17T15:57:12Z</time>
      </trkpt>
      <trkpt lat="46.52782" lon="5.84738">
        <ele>933</ele>
        <time>2021-10-17T15:57:13Z</time>
      </trkpt>
      <trkpt lat="46.52785" lon="5.84735">
        <ele>933</ele>
        <time>2021-10-17T15:57:14Z</time>
      </trkpt>
      <trkpt lat="46.52789" lon="5.84733">
        <ele>933.2</ele>
        <time>2021-10-17T15:57:15Z</time>
      </trkpt>
      <trkpt lat="46.52793" lon="5.84731">
        <ele>933.2</ele>
        <time>2021-10-17T15:57:16Z</time>
      </trkpt>
      <trkpt lat="46.52797" lon="5.84729">
        <ele>933.4</ele>
        <time>2021-10-17T15:57:17Z</time>
      </trkpt>
      <trkpt lat="46.52801" lon="5.84728">
        <ele>933.4</ele>
        <time>2021-10-17T15:57:18Z</time>
      </trkpt>
      <trkpt lat="46.52805" lon="5.84727">
        <ele>933.4</ele>
        <time>2021-10-17T15:57:19Z</time>
      </trkpt>
      <trkpt lat="46.52809" lon="5.84726">
        <ele>933.4</ele>
        <time>2021-10-17T15:57:20Z</time>
      </trkpt>
      <trkpt lat="46.52813" lon="5.84725">
        <ele>933.8</ele>
        <time>2021-10-17T15:57:21Z</time>
      </trkpt>
      <trkpt lat="46.52817" lon="5.84725">
        <ele>933.8</ele>
        <time>2021-10-17T15:57:22Z</time>
      </trkpt>
      <trkpt lat="46.5282" lon="5.84725">
        <ele>933.8</ele>
        <time>2021-10-17T15:57:23Z</time>
      </trkpt>
      <trkpt lat="46.52824" lon="5.84726">
        <ele>934</ele>
        <time>2021-10-17T15:57:24Z</time>
      </trkpt>
      <trkpt lat="46.52829" lon="5.84726">
        <ele>934</ele>
        <time>2021-10-17T15:57:25Z</time>
      </trkpt>
      <trkpt lat="46.52833" lon="5.84728">
        <ele>934.2</ele>
        <time>2021-10-17T15:57:26Z</time>
      </trkpt>
      <trkpt lat="46.52837" lon="5.84729">
        <ele>934.2</ele>
        <time>2021-10-17T15:57:27Z</time>
      </trkpt>
      <trkpt lat="46.52842" lon="5.84731">
        <ele>934.2</ele>
        <time>2021-10-17T15:57:28Z</time>
      </trkpt>
      <trkpt lat="46.52847" lon="5.84732">
        <ele>934.2</ele>
        <time>2021-10-17T15:57:29Z</time>
      </trkpt>
      <trkpt lat="46.52852" lon="5.84735">
        <ele>934.2</ele>
        <time>2021-10-17T15:57:30Z</time>
      </trkpt>
      <trkpt lat="46.52857" lon="5.84737">
        <ele>934.2</ele>
        <time>2021-10-17T15:57:31Z</time>
      </trkpt>
      <trkpt lat="46.52861" lon="5.8474">
        <ele>934.2</ele>
        <time>2021-10-17T15:57:32Z</time>
      </trkpt>
      <trkpt lat="46.52866" lon="5.84742">
        <ele>934.2</ele>
        <time>2021-10-17T15:57:33Z</time>
      </trkpt>
      <trkpt lat="46.52871" lon="5.84744">
        <ele>934.2</ele>
        <time>2021-10-17T15:57:34Z</time>
      </trkpt>
      <trkpt lat="46.52877" lon="5.84747">
        <ele>934.4</ele>
        <time>2021-10-17T15:57:35Z</time>
      </trkpt>
      <trkpt lat="46.52882" lon="5.84749">
        <ele>934.4</ele>
        <time>2021-10-17T15:57:36Z</time>
      </trkpt>
      <trkpt lat="46.52887" lon="5.84752">
        <ele>934.4</ele>
        <time>2021-10-17T15:57:37Z</time>
      </trkpt>
      <trkpt lat="46.52891" lon="5.84754">
        <ele>934.4</ele>
        <time>2021-10-17T15:57:38Z</time>
      </trkpt>
      <trkpt lat="46.52896" lon="5.84756">
        <ele>934.4</ele>
        <time>2021-10-17T15:57:39Z</time>
      </trkpt>
      <trkpt lat="46.52901" lon="5.84759">
        <ele>934.4</ele>
        <time>2021-10-17T15:57:40Z</time>
      </trkpt>
      <trkpt lat="46.52905" lon="5.84761">
        <ele>934.4</ele>
        <time>2021-10-17T15:57:41Z</time>
      </trkpt>
      <trkpt lat="46.5291" lon="5.84764">
        <ele>934.4</ele>
        <time>2021-10-17T15:57:42Z</time>
      </trkpt>
      <trkpt lat="46.52915" lon="5.84767">
        <ele>934.4</ele>
        <time>2021-10-17T15:57:43Z</time>
      </trkpt>
      <trkpt lat="46.5292" lon="5.8477">
        <ele>934.4</ele>
        <time>2021-10-17T15:57:44Z</time>
      </trkpt>
      <trkpt lat="46.52925" lon="5.84772">
        <ele>934.4</ele>
        <time>2021-10-17T15:57:45Z</time>
      </trkpt>
      <trkpt lat="46.5293" lon="5.84774">
        <ele>934.4</ele>
        <time>2021-10-17T15:57:46Z</time>
      </trkpt>
      <trkpt lat="46.52935" lon="5.84776">
        <ele>934.4</ele>
        <time>2021-10-17T15:57:47Z</time>
      </trkpt>
      <trkpt lat="46.5294" lon="5.84778">
        <ele>934.4</ele>
        <time>2021-10-17T15:57:48Z</time>
      </trkpt>
      <trkpt lat="46.52945" lon="5.8478">
        <ele>934.4</ele>
        <time>2021-10-17T15:57:49Z</time>
      </trkpt>
      <trkpt lat="46.5295" lon="5.84782">
        <ele>934.4</ele>
        <time>2021-10-17T15:57:50Z</time>
      </trkpt>
      <trkpt lat="46.52955" lon="5.84784">
        <ele>934.4</ele>
        <time>2021-10-17T15:57:51Z</time>
      </trkpt>
      <trkpt lat="46.5296" lon="5.84786">
        <ele>934.4</ele>
        <time>2021-10-17T15:57:52Z</time>
      </trkpt>
      <trkpt lat="46.52965" lon="5.84788">
        <ele>934.4</ele>
        <time>2021-10-17T15:57:53Z</time>
      </trkpt>
      <trkpt lat="46.5297" lon="5.84792">
        <ele>934.4</ele>
        <time>2021-10-17T15:57:54Z</time>
      </trkpt>
      <trkpt lat="46.52975" lon="5.84795">
        <ele>934.4</ele>
        <time>2021-10-17T15:57:55Z</time>
      </trkpt>
      <trkpt lat="46.5298" lon="5.84798">
        <ele>934.4</ele>
        <time>2021-10-17T15:57:56Z</time>
      </trkpt>
      <trkpt lat="46.52984" lon="5.84802">
        <ele>934.4</ele>
        <time>2021-10-17T15:57:57Z</time>
      </trkpt>
      <trkpt lat="46.52988" lon="5.84806">
        <ele>934.4</ele>
        <time>2021-10-17T15:57:58Z</time>
      </trkpt>
      <trkpt lat="46.52993" lon="5.8481">
        <ele>934.4</ele>
        <time>2021-10-17T15:57:59Z</time>
      </trkpt>
      <trkpt lat="46.52997" lon="5.84814">
        <ele>934.4</ele>
        <time>2021-10-17T15:58:00Z</time>
      </trkpt>
      <trkpt lat="46.53001" lon="5.84818">
        <ele>934.4</ele>
        <time>2021-10-17T15:58:01Z</time>
      </trkpt>
      <trkpt lat="46.53006" lon="5.84823">
        <ele>934.6</ele>
        <time>2021-10-17T15:58:02Z</time>
      </trkpt>
      <trkpt lat="46.53011" lon="5.84827">
        <ele>934.6</ele>
        <time>2021-10-17T15:58:03Z</time>
      </trkpt>
      <trkpt lat="46.53016" lon="5.8483">
        <ele>934.6</ele>
        <time>2021-10-17T15:58:04Z</time>
      </trkpt>
      <trkpt lat="46.53021" lon="5.84835">
        <ele>934.6</ele>
        <time>2021-10-17T15:58:05Z</time>
      </trkpt>
      <trkpt lat="46.53026" lon="5.84839">
        <ele>934.8</ele>
        <time>2021-10-17T15:58:06Z</time>
      </trkpt>
      <trkpt lat="46.53031" lon="5.84843">
        <ele>934.8</ele>
        <time>2021-10-17T15:58:07Z</time>
      </trkpt>
      <trkpt lat="46.53036" lon="5.84847">
        <ele>934.8</ele>
        <time>2021-10-17T15:58:08Z</time>
      </trkpt>
      <trkpt lat="46.53041" lon="5.84851">
        <ele>934.8</ele>
        <time>2021-10-17T15:58:09Z</time>
      </trkpt>
      <trkpt lat="46.53046" lon="5.84854">
        <ele>934.8</ele>
        <time>2021-10-17T15:58:10Z</time>
      </trkpt>
      <trkpt lat="46.53051" lon="5.84858">
        <ele>935</ele>
        <time>2021-10-17T15:58:11Z</time>
      </trkpt>
      <trkpt lat="46.53056" lon="5.84861">
        <ele>935</ele>
        <time>2021-10-17T15:58:12Z</time>
      </trkpt>
      <trkpt lat="46.53061" lon="5.84863">
        <ele>935.2</ele>
        <time>2021-10-17T15:58:13Z</time>
      </trkpt>
      <trkpt lat="46.53065" lon="5.84866">
        <ele>935.2</ele>
        <time>2021-10-17T15:58:14Z</time>
      </trkpt>
      <trkpt lat="46.5307" lon="5.84869">
        <ele>935.4</ele>
        <time>2021-10-17T15:58:15Z</time>
      </trkpt>
      <trkpt lat="46.53074" lon="5.84871">
        <ele>935.4</ele>
        <time>2021-10-17T15:58:16Z</time>
      </trkpt>
      <trkpt lat="46.53078" lon="5.84873">
        <ele>935.4</ele>
        <time>2021-10-17T15:58:17Z</time>
      </trkpt>
      <trkpt lat="46.53082" lon="5.84875">
        <ele>935.4</ele>
        <time>2021-10-17T15:58:18Z</time>
      </trkpt>
      <trkpt lat="46.53086" lon="5.84877">
        <ele>935.6</ele>
        <time>2021-10-17T15:58:19Z</time>
      </trkpt>
      <trkpt lat="46.5309" lon="5.84879">
        <ele>935.6</ele>
        <time>2021-10-17T15:58:20Z</time>
      </trkpt>
      <trkpt lat="46.53093" lon="5.84881">
        <ele>936</ele>
        <time>2021-10-17T15:58:21Z</time>
      </trkpt>
      <trkpt lat="46.53097" lon="5.84883">
        <ele>936</ele>
        <time>2021-10-17T15:58:22Z</time>
      </trkpt>
      <trkpt lat="46.53101" lon="5.84885">
        <ele>936.4</ele>
        <time>2021-10-17T15:58:23Z</time>
      </trkpt>
      <trkpt lat="46.53105" lon="5.84888">
        <ele>936.4</ele>
        <time>2021-10-17T15:58:24Z</time>
      </trkpt>
      <trkpt lat="46.53109" lon="5.84889">
        <ele>936.4</ele>
        <time>2021-10-17T15:58:25Z</time>
      </trkpt>
      <trkpt lat="46.53112" lon="5.84891">
        <ele>936.8</ele>
        <time>2021-10-17T15:58:26Z</time>
      </trkpt>
      <trkpt lat="46.53116" lon="5.84893">
        <ele>936.8</ele>
        <time>2021-10-17T15:58:27Z</time>
      </trkpt>
      <trkpt lat="46.53119" lon="5.84895">
        <ele>937</ele>
        <time>2021-10-17T15:58:28Z</time>
      </trkpt>
      <trkpt lat="46.53122" lon="5.84897">
        <ele>937</ele>
        <time>2021-10-17T15:58:29Z</time>
      </trkpt>
      <trkpt lat="46.53125" lon="5.84899">
        <ele>937.2</ele>
        <time>2021-10-17T15:58:30Z</time>
      </trkpt>
      <trkpt lat="46.53128" lon="5.84901">
        <ele>937.2</ele>
        <time>2021-10-17T15:58:31Z</time>
      </trkpt>
      <trkpt lat="46.53131" lon="5.84902">
        <ele>937.4</ele>
        <time>2021-10-17T15:58:32Z</time>
      </trkpt>
      <trkpt lat="46.53134" lon="5.84903">
        <ele>937.4</ele>
        <time>2021-10-17T15:58:33Z</time>
      </trkpt>
      <trkpt lat="46.53137" lon="5.84905">
        <ele>937.6</ele>
        <time>2021-10-17T15:58:34Z</time>
      </trkpt>
      <trkpt lat="46.53141" lon="5.84906">
        <ele>937.6</ele>
        <time>2021-10-17T15:58:35Z</time>
      </trkpt>
      <trkpt lat="46.53144" lon="5.84908">
        <ele>937.8</ele>
        <time>2021-10-17T15:58:36Z</time>
      </trkpt>
      <trkpt lat="46.53148" lon="5.8491">
        <ele>937.8</ele>
        <time>2021-10-17T15:58:37Z</time>
      </trkpt>
      <trkpt lat="46.53153" lon="5.84912">
        <ele>937.8</ele>
        <time>2021-10-17T15:58:38Z</time>
      </trkpt>
      <trkpt lat="46.53154" lon="5.84913">
        <ele>938.2</ele>
        <time>2021-10-17T15:58:39Z</time>
      </trkpt>
      <trkpt lat="46.53157" lon="5.84914">
        <ele>938.2</ele>
        <time>2021-10-17T15:58:40Z</time>
      </trkpt>
      <trkpt lat="46.5316" lon="5.84916">
        <ele>938.6</ele>
        <time>2021-10-17T15:58:41Z</time>
      </trkpt>
      <trkpt lat="46.53164" lon="5.84918">
        <ele>938.6</ele>
        <time>2021-10-17T15:58:42Z</time>
      </trkpt>
      <trkpt lat="46.53169" lon="5.84921">
        <ele>938.8</ele>
        <time>2021-10-17T15:58:43Z</time>
      </trkpt>
      <trkpt lat="46.5317" lon="5.84923">
        <ele>938.8</ele>
        <time>2021-10-17T15:58:44Z</time>
      </trkpt>
      <trkpt lat="46.53174" lon="5.84925">
        <ele>938.8</ele>
        <time>2021-10-17T15:58:45Z</time>
      </trkpt>
      <trkpt lat="46.53177" lon="5.84927">
        <ele>939.2</ele>
        <time>2021-10-17T15:58:46Z</time>
      </trkpt>
      <trkpt lat="46.5318" lon="5.8493">
        <ele>939.2</ele>
        <time>2021-10-17T15:58:47Z</time>
      </trkpt>
      <trkpt lat="46.53185" lon="5.84932">
        <ele>939.4</ele>
        <time>2021-10-17T15:58:48Z</time>
      </trkpt>
      <trkpt lat="46.53186" lon="5.84933">
        <ele>939.4</ele>
        <time>2021-10-17T15:58:49Z</time>
      </trkpt>
      <trkpt lat="46.53189" lon="5.84935">
        <ele>939.8</ele>
        <time>2021-10-17T15:58:50Z</time>
      </trkpt>
      <trkpt lat="46.53192" lon="5.84937">
        <ele>939.8</ele>
        <time>2021-10-17T15:58:51Z</time>
      </trkpt>
      <trkpt lat="46.53195" lon="5.84939">
        <ele>940.2</ele>
        <time>2021-10-17T15:58:52Z</time>
      </trkpt>
      <trkpt lat="46.53198" lon="5.84941">
        <ele>940.2</ele>
        <time>2021-10-17T15:58:53Z</time>
      </trkpt>
      <trkpt lat="46.53201" lon="5.84943">
        <ele>940.6</ele>
        <time>2021-10-17T15:58:54Z</time>
      </trkpt>
      <trkpt lat="46.53204" lon="5.84945">
        <ele>940.6</ele>
        <time>2021-10-17T15:58:55Z</time>
      </trkpt>
      <trkpt lat="46.53207" lon="5.84947">
        <ele>940.6</ele>
        <time>2021-10-17T15:58:56Z</time>
      </trkpt>
      <trkpt lat="46.53211" lon="5.84948">
        <ele>940.8</ele>
        <time>2021-10-17T15:58:57Z</time>
      </trkpt>
      <trkpt lat="46.53214" lon="5.8495">
        <ele>940.8</ele>
        <time>2021-10-17T15:58:58Z</time>
      </trkpt>
      <trkpt lat="46.53218" lon="5.84952">
        <ele>941</ele>
        <time>2021-10-17T15:58:59Z</time>
      </trkpt>
      <trkpt lat="46.53223" lon="5.84956">
        <ele>941</ele>
        <time>2021-10-17T15:59:00Z</time>
      </trkpt>
      <trkpt lat="46.53225" lon="5.84957">
        <ele>941</ele>
        <time>2021-10-17T15:59:01Z</time>
      </trkpt>
      <trkpt lat="46.53228" lon="5.84959">
        <ele>941.4</ele>
        <time>2021-10-17T15:59:02Z</time>
      </trkpt>
      <trkpt lat="46.53233" lon="5.84962">
        <ele>941.4</ele>
        <time>2021-10-17T15:59:03Z</time>
      </trkpt>
      <trkpt lat="46.53234" lon="5.84963">
        <ele>941.6</ele>
        <time>2021-10-17T15:59:04Z</time>
      </trkpt>
      <trkpt lat="46.53237" lon="5.84965">
        <ele>941.6</ele>
        <time>2021-10-17T15:59:05Z</time>
      </trkpt>
      <trkpt lat="46.53241" lon="5.84966">
        <ele>941.8</ele>
        <time>2021-10-17T15:59:06Z</time>
      </trkpt>
      <trkpt lat="46.53244" lon="5.84967">
        <ele>941.8</ele>
        <time>2021-10-17T15:59:07Z</time>
      </trkpt>
      <trkpt lat="46.53247" lon="5.84969">
        <ele>941.8</ele>
        <time>2021-10-17T15:59:08Z</time>
      </trkpt>
      <trkpt lat="46.5325" lon="5.84971">
        <ele>942</ele>
        <time>2021-10-17T15:59:09Z</time>
      </trkpt>
      <trkpt lat="46.53254" lon="5.84972">
        <ele>942</ele>
        <time>2021-10-17T15:59:10Z</time>
      </trkpt>
      <trkpt lat="46.53259" lon="5.84975">
        <ele>942.2</ele>
        <time>2021-10-17T15:59:11Z</time>
      </trkpt>
      <trkpt lat="46.53261" lon="5.84976">
        <ele>942.2</ele>
        <time>2021-10-17T15:59:12Z</time>
      </trkpt>
      <trkpt lat="46.53264" lon="5.84977">
        <ele>942.4</ele>
        <time>2021-10-17T15:59:13Z</time>
      </trkpt>
      <trkpt lat="46.53268" lon="5.84979">
        <ele>942.4</ele>
        <time>2021-10-17T15:59:14Z</time>
      </trkpt>
      <trkpt lat="46.53271" lon="5.8498">
        <ele>942.8</ele>
        <time>2021-10-17T15:59:15Z</time>
      </trkpt>
      <trkpt lat="46.53274" lon="5.84983">
        <ele>942.8</ele>
        <time>2021-10-17T15:59:16Z</time>
      </trkpt>
      <trkpt lat="46.53277" lon="5.84985">
        <ele>943</ele>
        <time>2021-10-17T15:59:17Z</time>
      </trkpt>
      <trkpt lat="46.53281" lon="5.84987">
        <ele>943</ele>
        <time>2021-10-17T15:59:18Z</time>
      </trkpt>
      <trkpt lat="46.53284" lon="5.84989">
        <ele>943.2</ele>
        <time>2021-10-17T15:59:19Z</time>
      </trkpt>
      <trkpt lat="46.53287" lon="5.84991">
        <ele>943.2</ele>
        <time>2021-10-17T15:59:20Z</time>
      </trkpt>
      <trkpt lat="46.53291" lon="5.84994">
        <ele>943.2</ele>
        <time>2021-10-17T15:59:21Z</time>
      </trkpt>
      <trkpt lat="46.53294" lon="5.84996">
        <ele>943.6</ele>
        <time>2021-10-17T15:59:22Z</time>
      </trkpt>
      <trkpt lat="46.53299" lon="5.84998">
        <ele>943.6</ele>
        <time>2021-10-17T15:59:23Z</time>
      </trkpt>
      <trkpt lat="46.53301" lon="5.84999">
        <ele>943.8</ele>
        <time>2021-10-17T15:59:24Z</time>
      </trkpt>
      <trkpt lat="46.53306" lon="5.85002">
        <ele>943.8</ele>
        <time>2021-10-17T15:59:25Z</time>
      </trkpt>
      <trkpt lat="46.53307" lon="5.85003">
        <ele>944</ele>
        <time>2021-10-17T15:59:26Z</time>
      </trkpt>
      <trkpt lat="46.53311" lon="5.85005">
        <ele>944</ele>
        <time>2021-10-17T15:59:27Z</time>
      </trkpt>
      <trkpt lat="46.53314" lon="5.85007">
        <ele>944.4</ele>
        <time>2021-10-17T15:59:28Z</time>
      </trkpt>
      <trkpt lat="46.53319" lon="5.8501">
        <ele>944.4</ele>
        <time>2021-10-17T15:59:29Z</time>
      </trkpt>
      <trkpt lat="46.53321" lon="5.85011">
        <ele>944.6</ele>
        <time>2021-10-17T15:59:30Z</time>
      </trkpt>
      <trkpt lat="46.53324" lon="5.85013">
        <ele>944.6</ele>
        <time>2021-10-17T15:59:31Z</time>
      </trkpt>
      <trkpt lat="46.53328" lon="5.85015">
        <ele>945</ele>
        <time>2021-10-17T15:59:32Z</time>
      </trkpt>
      <trkpt lat="46.53331" lon="5.85017">
        <ele>945</ele>
        <time>2021-10-17T15:59:33Z</time>
      </trkpt>
      <trkpt lat="46.53334" lon="5.85018">
        <ele>945.2</ele>
        <time>2021-10-17T15:59:34Z</time>
      </trkpt>
      <trkpt lat="46.53337" lon="5.8502">
        <ele>945.4</ele>
        <time>2021-10-17T15:59:35Z</time>
      </trkpt>
      <trkpt lat="46.5334" lon="5.85022">
        <ele>945.4</ele>
        <time>2021-10-17T15:59:36Z</time>
      </trkpt>
      <trkpt lat="46.53344" lon="5.85025">
        <ele>945.6</ele>
        <time>2021-10-17T15:59:37Z</time>
      </trkpt>
      <trkpt lat="46.53347" lon="5.85027">
        <ele>945.6</ele>
        <time>2021-10-17T15:59:38Z</time>
      </trkpt>
      <trkpt lat="46.5335" lon="5.85029">
        <ele>945.6</ele>
        <time>2021-10-17T15:59:39Z</time>
      </trkpt>
      <trkpt lat="46.53355" lon="5.85032">
        <ele>946</ele>
        <time>2021-10-17T15:59:40Z</time>
      </trkpt>
      <trkpt lat="46.53356" lon="5.85033">
        <ele>946</ele>
        <time>2021-10-17T15:59:41Z</time>
      </trkpt>
      <trkpt lat="46.53359" lon="5.85035">
        <ele>946.2</ele>
        <time>2021-10-17T15:59:42Z</time>
      </trkpt>
      <trkpt lat="46.53362" lon="5.85036">
        <ele>946.4</ele>
        <time>2021-10-17T15:59:43Z</time>
      </trkpt>
      <trkpt lat="46.53366" lon="5.85038">
        <ele>946.4</ele>
        <time>2021-10-17T15:59:44Z</time>
      </trkpt>
      <trkpt lat="46.53367" lon="5.85039">
        <ele>946.4</ele>
        <time>2021-10-17T15:59:45Z</time>
      </trkpt>
      <trkpt lat="46.5337" lon="5.8504">
        <ele>946.8</ele>
        <time>2021-10-17T15:59:46Z</time>
      </trkpt>
      <trkpt lat="46.53373" lon="5.85041">
        <ele>946.8</ele>
        <time>2021-10-17T15:59:47Z</time>
      </trkpt>
      <trkpt lat="46.53376" lon="5.85043">
        <ele>947</ele>
        <time>2021-10-17T15:59:48Z</time>
      </trkpt>
      <trkpt lat="46.53379" lon="5.85045">
        <ele>947</ele>
        <time>2021-10-17T15:59:49Z</time>
      </trkpt>
      <trkpt lat="46.53382" lon="5.85047">
        <ele>947</ele>
        <time>2021-10-17T15:59:50Z</time>
      </trkpt>
      <trkpt lat="46.53387" lon="5.85049">
        <ele>947.2</ele>
        <time>2021-10-17T15:59:51Z</time>
      </trkpt>
      <trkpt lat="46.53388" lon="5.8505">
        <ele>947.2</ele>
        <time>2021-10-17T15:59:52Z</time>
      </trkpt>
      <trkpt lat="46.53391" lon="5.85051">
        <ele>947.6</ele>
        <time>2021-10-17T15:59:53Z</time>
      </trkpt>
      <trkpt lat="46.53394" lon="5.85053">
        <ele>947.6</ele>
        <time>2021-10-17T15:59:54Z</time>
      </trkpt>
      <trkpt lat="46.53398" lon="5.85054">
        <ele>947.8</ele>
        <time>2021-10-17T15:59:55Z</time>
      </trkpt>
      <trkpt lat="46.53402" lon="5.85057">
        <ele>947.8</ele>
        <time>2021-10-17T15:59:56Z</time>
      </trkpt>
      <trkpt lat="46.53403" lon="5.85058">
        <ele>948.2</ele>
        <time>2021-10-17T15:59:57Z</time>
      </trkpt>
      <trkpt lat="46.53406" lon="5.85059">
        <ele>948.2</ele>
        <time>2021-10-17T15:59:58Z</time>
      </trkpt>
      <trkpt lat="46.53411" lon="5.85062">
        <ele>948.4</ele>
        <time>2021-10-17T15:59:59Z</time>
      </trkpt>
      <trkpt lat="46.53413" lon="5.85063">
        <ele>948.4</ele>
        <time>2021-10-17T16:00:00Z</time>
      </trkpt>
      <trkpt lat="46.53416" lon="5.85064">
        <ele>948.4</ele>
        <time>2021-10-17T16:00:01Z</time>
      </trkpt>
      <trkpt lat="46.53419" lon="5.85066">
        <ele>948.6</ele>
        <time>2021-10-17T16:00:02Z</time>
      </trkpt>
      <trkpt lat="46.53421" lon="5.85067">
        <ele>948.8</ele>
        <time>2021-10-17T16:00:03Z</time>
      </trkpt>
      <trkpt lat="46.53424" lon="5.85069">
        <ele>948.8</ele>
        <time>2021-10-17T16:00:04Z</time>
      </trkpt>
      <trkpt lat="46.53427" lon="5.85071">
        <ele>948.8</ele>
        <time>2021-10-17T16:00:05Z</time>
      </trkpt>
      <trkpt lat="46.5343" lon="5.85073">
        <ele>948.8</ele>
        <time>2021-10-17T16:00:06Z</time>
      </trkpt>
      <trkpt lat="46.53434" lon="5.85075">
        <ele>949</ele>
        <time>2021-10-17T16:00:07Z</time>
      </trkpt>
      <trkpt lat="46.53437" lon="5.85077">
        <ele>949</ele>
        <time>2021-10-17T16:00:08Z</time>
      </trkpt>
      <trkpt lat="46.5344" lon="5.85078">
        <ele>949</ele>
        <time>2021-10-17T16:00:09Z</time>
      </trkpt>
      <trkpt lat="46.53444" lon="5.8508">
        <ele>949.4</ele>
        <time>2021-10-17T16:00:10Z</time>
      </trkpt>
      <trkpt lat="46.5345" lon="5.85084">
        <ele>949.4</ele>
        <time>2021-10-17T16:00:11Z</time>
      </trkpt>
      <trkpt lat="46.53453" lon="5.85086">
        <ele>949.6</ele>
        <time>2021-10-17T16:00:12Z</time>
      </trkpt>
      <trkpt lat="46.53457" lon="5.85087">
        <ele>949.8</ele>
        <time>2021-10-17T16:00:13Z</time>
      </trkpt>
      <trkpt lat="46.53457" lon="5.85087">
        <ele>949.8</ele>
        <time>2021-10-17T16:00:14Z</time>
      </trkpt>
      <trkpt lat="46.53462" lon="5.8509">
        <ele>950</ele>
        <time>2021-10-17T16:00:15Z</time>
      </trkpt>
      <trkpt lat="46.53465" lon="5.85092">
        <ele>950</ele>
        <time>2021-10-17T16:00:16Z</time>
      </trkpt>
      <trkpt lat="46.53468" lon="5.85093">
        <ele>950.4</ele>
        <time>2021-10-17T16:00:17Z</time>
      </trkpt>
      <trkpt lat="46.53469" lon="5.85093">
        <ele>950.4</ele>
        <time>2021-10-17T16:00:18Z</time>
      </trkpt>
      <trkpt lat="46.53471" lon="5.85094">
        <ele>950.6</ele>
        <time>2021-10-17T16:00:19Z</time>
      </trkpt>
      <trkpt lat="46.53474" lon="5.85095">
        <ele>950.6</ele>
        <time>2021-10-17T16:00:20Z</time>
      </trkpt>
      <trkpt lat="46.53477" lon="5.85096">
        <ele>951</ele>
        <time>2021-10-17T16:00:21Z</time>
      </trkpt>
      <trkpt lat="46.53481" lon="5.85097">
        <ele>951</ele>
        <time>2021-10-17T16:00:22Z</time>
      </trkpt>
      <trkpt lat="46.53484" lon="5.85099">
        <ele>951.2</ele>
        <time>2021-10-17T16:00:23Z</time>
      </trkpt>
      <trkpt lat="46.53489" lon="5.85101">
        <ele>951.4</ele>
        <time>2021-10-17T16:00:24Z</time>
      </trkpt>
      <trkpt lat="46.53491" lon="5.85102">
        <ele>951.8</ele>
        <time>2021-10-17T16:00:25Z</time>
      </trkpt>
      <trkpt lat="46.53494" lon="5.85104">
        <ele>951.8</ele>
        <time>2021-10-17T16:00:26Z</time>
      </trkpt>
      <trkpt lat="46.53497" lon="5.85107">
        <ele>952</ele>
        <time>2021-10-17T16:00:27Z</time>
      </trkpt>
      <trkpt lat="46.535" lon="5.85109">
        <ele>952.2</ele>
        <time>2021-10-17T16:00:28Z</time>
      </trkpt>
      <trkpt lat="46.53503" lon="5.8511">
        <ele>952.6</ele>
        <time>2021-10-17T16:00:29Z</time>
      </trkpt>
      <trkpt lat="46.53506" lon="5.85111">
        <ele>952.8</ele>
        <time>2021-10-17T16:00:30Z</time>
      </trkpt>
      <trkpt lat="46.53509" lon="5.85113">
        <ele>953</ele>
        <time>2021-10-17T16:00:31Z</time>
      </trkpt>
      <trkpt lat="46.53512" lon="5.85115">
        <ele>953.2</ele>
        <time>2021-10-17T16:00:32Z</time>
      </trkpt>
      <trkpt lat="46.53516" lon="5.85118">
        <ele>953.2</ele>
        <time>2021-10-17T16:00:33Z</time>
      </trkpt>
      <trkpt lat="46.53518" lon="5.85118">
        <ele>953.6</ele>
        <time>2021-10-17T16:00:34Z</time>
      </trkpt>
      <trkpt lat="46.53521" lon="5.8512">
        <ele>953.6</ele>
        <time>2021-10-17T16:00:35Z</time>
      </trkpt>
      <trkpt lat="46.53523" lon="5.85121">
        <ele>953.8</ele>
        <time>2021-10-17T16:00:36Z</time>
      </trkpt>
      <trkpt lat="46.53526" lon="5.85122">
        <ele>953.8</ele>
        <time>2021-10-17T16:00:37Z</time>
      </trkpt>
      <trkpt lat="46.53528" lon="5.85124">
        <ele>954.2</ele>
        <time>2021-10-17T16:00:38Z</time>
      </trkpt>
      <trkpt lat="46.53531" lon="5.85125">
        <ele>954.2</ele>
        <time>2021-10-17T16:00:39Z</time>
      </trkpt>
      <trkpt lat="46.53534" lon="5.85127">
        <ele>954.6</ele>
        <time>2021-10-17T16:00:40Z</time>
      </trkpt>
      <trkpt lat="46.53537" lon="5.85128">
        <ele>954.6</ele>
        <time>2021-10-17T16:00:41Z</time>
      </trkpt>
      <trkpt lat="46.53539" lon="5.8513">
        <ele>955</ele>
        <time>2021-10-17T16:00:42Z</time>
      </trkpt>
      <trkpt lat="46.53542" lon="5.85131">
        <ele>955</ele>
        <time>2021-10-17T16:00:43Z</time>
      </trkpt>
      <trkpt lat="46.53544" lon="5.85133">
        <ele>955.2</ele>
        <time>2021-10-17T16:00:44Z</time>
      </trkpt>
      <trkpt lat="46.53546" lon="5.85134">
        <ele>955.2</ele>
        <time>2021-10-17T16:00:45Z</time>
      </trkpt>
      <trkpt lat="46.53549" lon="5.85136">
        <ele>955.4</ele>
        <time>2021-10-17T16:00:46Z</time>
      </trkpt>
      <trkpt lat="46.53552" lon="5.85138">
        <ele>955.4</ele>
        <time>2021-10-17T16:00:47Z</time>
      </trkpt>
      <trkpt lat="46.53555" lon="5.85139">
        <ele>955.6</ele>
        <time>2021-10-17T16:00:48Z</time>
      </trkpt>
      <trkpt lat="46.53558" lon="5.85141">
        <ele>955.6</ele>
        <time>2021-10-17T16:00:49Z</time>
      </trkpt>
      <trkpt lat="46.53561" lon="5.85142">
        <ele>956</ele>
        <time>2021-10-17T16:00:50Z</time>
      </trkpt>
      <trkpt lat="46.53564" lon="5.85144">
        <ele>956.2</ele>
        <time>2021-10-17T16:00:51Z</time>
      </trkpt>
      <trkpt lat="46.53567" lon="5.85145">
        <ele>956.4</ele>
        <time>2021-10-17T16:00:52Z</time>
      </trkpt>
      <trkpt lat="46.53569" lon="5.85147">
        <ele>956.4</ele>
        <time>2021-10-17T16:00:53Z</time>
      </trkpt>
      <trkpt lat="46.53572" lon="5.85149">
        <ele>956.8</ele>
        <time>2021-10-17T16:00:54Z</time>
      </trkpt>
      <trkpt lat="46.53574" lon="5.8515">
        <ele>956.8</ele>
        <time>2021-10-17T16:00:55Z</time>
      </trkpt>
      <trkpt lat="46.53576" lon="5.85152">
        <ele>957.2</ele>
        <time>2021-10-17T16:00:56Z</time>
      </trkpt>
      <trkpt lat="46.53579" lon="5.85154">
        <ele>957.2</ele>
        <time>2021-10-17T16:00:57Z</time>
      </trkpt>
      <trkpt lat="46.53581" lon="5.85155">
        <ele>957.4</ele>
        <time>2021-10-17T16:00:58Z</time>
      </trkpt>
      <trkpt lat="46.53583" lon="5.85157">
        <ele>957.4</ele>
        <time>2021-10-17T16:00:59Z</time>
      </trkpt>
      <trkpt lat="46.53585" lon="5.85159">
        <ele>957.6</ele>
        <time>2021-10-17T16:01:00Z</time>
      </trkpt>
      <trkpt lat="46.53587" lon="5.85161">
        <ele>957.6</ele>
        <time>2021-10-17T16:01:01Z</time>
      </trkpt>
      <trkpt lat="46.5359" lon="5.85162">
        <ele>958</ele>
        <time>2021-10-17T16:01:02Z</time>
      </trkpt>
      <trkpt lat="46.53592" lon="5.85163">
        <ele>958</ele>
        <time>2021-10-17T16:01:03Z</time>
      </trkpt>
      <trkpt lat="46.53595" lon="5.85165">
        <ele>958.4</ele>
        <time>2021-10-17T16:01:04Z</time>
      </trkpt>
      <trkpt lat="46.53597" lon="5.85167">
        <ele>958.4</ele>
        <time>2021-10-17T16:01:05Z</time>
      </trkpt>
      <trkpt lat="46.53599" lon="5.85168">
        <ele>958.6</ele>
        <time>2021-10-17T16:01:06Z</time>
      </trkpt>
      <trkpt lat="46.536" lon="5.85169">
        <ele>958.6</ele>
        <time>2021-10-17T16:01:07Z</time>
      </trkpt>
      <trkpt lat="46.53602" lon="5.85171">
        <ele>958.8</ele>
        <time>2021-10-17T16:01:08Z</time>
      </trkpt>
      <trkpt lat="46.53604" lon="5.85172">
        <ele>958.8</ele>
        <time>2021-10-17T16:01:09Z</time>
      </trkpt>
      <trkpt lat="46.53606" lon="5.85174">
        <ele>959.2</ele>
        <time>2021-10-17T16:01:10Z</time>
      </trkpt>
      <trkpt lat="46.53607" lon="5.85176">
        <ele>959.2</ele>
        <time>2021-10-17T16:01:11Z</time>
      </trkpt>
      <trkpt lat="46.53609" lon="5.85178">
        <ele>959.4</ele>
        <time>2021-10-17T16:01:12Z</time>
      </trkpt>
      <trkpt lat="46.53611" lon="5.85179">
        <ele>959.4</ele>
        <time>2021-10-17T16:01:13Z</time>
      </trkpt>
      <trkpt lat="46.53613" lon="5.85181">
        <ele>959.8</ele>
        <time>2021-10-17T16:01:14Z</time>
      </trkpt>
      <trkpt lat="46.53616" lon="5.85182">
        <ele>959.8</ele>
        <time>2021-10-17T16:01:15Z</time>
      </trkpt>
      <trkpt lat="46.53618" lon="5.85183">
        <ele>960</ele>
        <time>2021-10-17T16:01:16Z</time>
      </trkpt>
      <trkpt lat="46.5362" lon="5.85185">
        <ele>960</ele>
        <time>2021-10-17T16:01:17Z</time>
      </trkpt>
      <trkpt lat="46.53622" lon="5.85186">
        <ele>960.2</ele>
        <time>2021-10-17T16:01:18Z</time>
      </trkpt>
      <trkpt lat="46.53624" lon="5.85187">
        <ele>960.2</ele>
        <time>2021-10-17T16:01:19Z</time>
      </trkpt>
      <trkpt lat="46.53627" lon="5.85188">
        <ele>960.6</ele>
        <time>2021-10-17T16:01:20Z</time>
      </trkpt>
      <trkpt lat="46.5363" lon="5.85191">
        <ele>960.6</ele>
        <time>2021-10-17T16:01:21Z</time>
      </trkpt>
      <trkpt lat="46.53633" lon="5.85192">
        <ele>960.8</ele>
        <time>2021-10-17T16:01:22Z</time>
      </trkpt>
      <trkpt lat="46.53635" lon="5.85194">
        <ele>960.8</ele>
        <time>2021-10-17T16:01:23Z</time>
      </trkpt>
      <trkpt lat="46.53637" lon="5.85195">
        <ele>961.2</ele>
        <time>2021-10-17T16:01:24Z</time>
      </trkpt>
      <trkpt lat="46.53639" lon="5.85197">
        <ele>961.2</ele>
        <time>2021-10-17T16:01:25Z</time>
      </trkpt>
      <trkpt lat="46.53641" lon="5.85199">
        <ele>961.6</ele>
        <time>2021-10-17T16:01:26Z</time>
      </trkpt>
      <trkpt lat="46.53643" lon="5.85201">
        <ele>961.6</ele>
        <time>2021-10-17T16:01:27Z</time>
      </trkpt>
      <trkpt lat="46.53647" lon="5.85204">
        <ele>961.8</ele>
        <time>2021-10-17T16:01:28Z</time>
      </trkpt>
      <trkpt lat="46.53649" lon="5.85205">
        <ele>961.8</ele>
        <time>2021-10-17T16:01:29Z</time>
      </trkpt>
      <trkpt lat="46.53651" lon="5.85207">
        <ele>962</ele>
        <time>2021-10-17T16:01:30Z</time>
      </trkpt>
      <trkpt lat="46.53654" lon="5.85209">
        <ele>962</ele>
        <time>2021-10-17T16:01:31Z</time>
      </trkpt>
      <trkpt lat="46.53657" lon="5.85211">
        <ele>962.4</ele>
        <time>2021-10-17T16:01:32Z</time>
      </trkpt>
      <trkpt lat="46.53659" lon="5.85213">
        <ele>962.4</ele>
        <time>2021-10-17T16:01:33Z</time>
      </trkpt>
      <trkpt lat="46.53661" lon="5.85214">
        <ele>962.8</ele>
        <time>2021-10-17T16:01:34Z</time>
      </trkpt>
      <trkpt lat="46.53664" lon="5.85216">
        <ele>962.8</ele>
        <time>2021-10-17T16:01:35Z</time>
      </trkpt>
      <trkpt lat="46.53667" lon="5.85218">
        <ele>963</ele>
        <time>2021-10-17T16:01:36Z</time>
      </trkpt>
      <trkpt lat="46.5367" lon="5.8522">
        <ele>963</ele>
        <time>2021-10-17T16:01:37Z</time>
      </trkpt>
      <trkpt lat="46.53673" lon="5.85222">
        <ele>963.2</ele>
        <time>2021-10-17T16:01:38Z</time>
      </trkpt>
      <trkpt lat="46.53676" lon="5.85223">
        <ele>963.2</ele>
        <time>2021-10-17T16:01:39Z</time>
      </trkpt>
      <trkpt lat="46.53678" lon="5.85225">
        <ele>963.6</ele>
        <time>2021-10-17T16:01:40Z</time>
      </trkpt>
      <trkpt lat="46.53681" lon="5.85227">
        <ele>963.6</ele>
        <time>2021-10-17T16:01:41Z</time>
      </trkpt>
      <trkpt lat="46.53684" lon="5.8523">
        <ele>963.8</ele>
        <time>2021-10-17T16:01:42Z</time>
      </trkpt>
      <trkpt lat="46.53686" lon="5.85232">
        <ele>963.8</ele>
        <time>2021-10-17T16:01:43Z</time>
      </trkpt>
      <trkpt lat="46.53688" lon="5.85234">
        <ele>964.2</ele>
        <time>2021-10-17T16:01:44Z</time>
      </trkpt>
      <trkpt lat="46.53691" lon="5.85235">
        <ele>964.2</ele>
        <time>2021-10-17T16:01:45Z</time>
      </trkpt>
      <trkpt lat="46.53694" lon="5.85237">
        <ele>964.4</ele>
        <time>2021-10-17T16:01:46Z</time>
      </trkpt>
      <trkpt lat="46.53696" lon="5.85238">
        <ele>964.4</ele>
        <time>2021-10-17T16:01:47Z</time>
      </trkpt>
      <trkpt lat="46.53699" lon="5.8524">
        <ele>964.8</ele>
        <time>2021-10-17T16:01:48Z</time>
      </trkpt>
      <trkpt lat="46.53702" lon="5.85242">
        <ele>964.8</ele>
        <time>2021-10-17T16:01:49Z</time>
      </trkpt>
      <trkpt lat="46.53705" lon="5.85244">
        <ele>965</ele>
        <time>2021-10-17T16:01:50Z</time>
      </trkpt>
      <trkpt lat="46.53708" lon="5.85245">
        <ele>965</ele>
        <time>2021-10-17T16:01:51Z</time>
      </trkpt>
      <trkpt lat="46.53711" lon="5.85247">
        <ele>965.4</ele>
        <time>2021-10-17T16:01:52Z</time>
      </trkpt>
      <trkpt lat="46.53713" lon="5.85249">
        <ele>965.4</ele>
        <time>2021-10-17T16:01:53Z</time>
      </trkpt>
      <trkpt lat="46.53717" lon="5.85252">
        <ele>965.8</ele>
        <time>2021-10-17T16:01:54Z</time>
      </trkpt>
      <trkpt lat="46.53718" lon="5.85253">
        <ele>965.8</ele>
        <time>2021-10-17T16:01:55Z</time>
      </trkpt>
      <trkpt lat="46.53721" lon="5.85255">
        <ele>966.2</ele>
        <time>2021-10-17T16:01:56Z</time>
      </trkpt>
      <trkpt lat="46.53723" lon="5.85258">
        <ele>966.4</ele>
        <time>2021-10-17T16:01:57Z</time>
      </trkpt>
      <trkpt lat="46.53726" lon="5.85259">
        <ele>966.6</ele>
        <time>2021-10-17T16:01:58Z</time>
      </trkpt>
      <trkpt lat="46.53729" lon="5.85262">
        <ele>966.8</ele>
        <time>2021-10-17T16:01:59Z</time>
      </trkpt>
      <trkpt lat="46.53731" lon="5.85263">
        <ele>967</ele>
        <time>2021-10-17T16:02:00Z</time>
      </trkpt>
      <trkpt lat="46.53733" lon="5.85265">
        <ele>967</ele>
        <time>2021-10-17T16:02:01Z</time>
      </trkpt>
      <trkpt lat="46.53736" lon="5.85266">
        <ele>967.2</ele>
        <time>2021-10-17T16:02:02Z</time>
      </trkpt>
      <trkpt lat="46.53739" lon="5.85267">
        <ele>967.2</ele>
        <time>2021-10-17T16:02:03Z</time>
      </trkpt>
      <trkpt lat="46.53742" lon="5.85269">
        <ele>967.6</ele>
        <time>2021-10-17T16:02:04Z</time>
      </trkpt>
      <trkpt lat="46.53744" lon="5.85271">
        <ele>967.6</ele>
        <time>2021-10-17T16:02:05Z</time>
      </trkpt>
      <trkpt lat="46.53747" lon="5.85273">
        <ele>968</ele>
        <time>2021-10-17T16:02:06Z</time>
      </trkpt>
      <trkpt lat="46.5375" lon="5.85275">
        <ele>968</ele>
        <time>2021-10-17T16:02:07Z</time>
      </trkpt>
      <trkpt lat="46.53753" lon="5.85278">
        <ele>968.2</ele>
        <time>2021-10-17T16:02:08Z</time>
      </trkpt>
      <trkpt lat="46.53755" lon="5.85278">
        <ele>968.2</ele>
        <time>2021-10-17T16:02:09Z</time>
      </trkpt>
      <trkpt lat="46.53757" lon="5.8528">
        <ele>968.4</ele>
        <time>2021-10-17T16:02:10Z</time>
      </trkpt>
      <trkpt lat="46.5376" lon="5.85281">
        <ele>968.4</ele>
        <time>2021-10-17T16:02:11Z</time>
      </trkpt>
      <trkpt lat="46.53763" lon="5.85283">
        <ele>968.8</ele>
        <time>2021-10-17T16:02:12Z</time>
      </trkpt>
      <trkpt lat="46.53766" lon="5.85284">
        <ele>968.8</ele>
        <time>2021-10-17T16:02:13Z</time>
      </trkpt>
      <trkpt lat="46.53769" lon="5.85286">
        <ele>969</ele>
        <time>2021-10-17T16:02:14Z</time>
      </trkpt>
      <trkpt lat="46.53772" lon="5.85288">
        <ele>969</ele>
        <time>2021-10-17T16:02:15Z</time>
      </trkpt>
      <trkpt lat="46.53779" lon="5.85292">
        <ele>969</ele>
        <time>2021-10-17T16:02:16Z</time>
      </trkpt>
      <trkpt lat="46.53782" lon="5.85294">
        <ele>969.4</ele>
        <time>2021-10-17T16:02:17Z</time>
      </trkpt>
      <trkpt lat="46.53785" lon="5.85296">
        <ele>969.4</ele>
        <time>2021-10-17T16:02:18Z</time>
      </trkpt>
      <trkpt lat="46.53788" lon="5.85297">
        <ele>969.6</ele>
        <time>2021-10-17T16:02:19Z</time>
      </trkpt>
      <trkpt lat="46.5379" lon="5.85298">
        <ele>969.8</ele>
        <time>2021-10-17T16:02:20Z</time>
      </trkpt>
      <trkpt lat="46.53793" lon="5.85299">
        <ele>970.2</ele>
        <time>2021-10-17T16:02:21Z</time>
      </trkpt>
      <trkpt lat="46.53795" lon="5.853">
        <ele>970.2</ele>
        <time>2021-10-17T16:02:22Z</time>
      </trkpt>
      <trkpt lat="46.53797" lon="5.85301">
        <ele>970.4</ele>
        <time>2021-10-17T16:02:23Z</time>
      </trkpt>
      <trkpt lat="46.53799" lon="5.85302">
        <ele>970.8</ele>
        <time>2021-10-17T16:02:24Z</time>
      </trkpt>
      <trkpt lat="46.53802" lon="5.85302">
        <ele>970.8</ele>
        <time>2021-10-17T16:02:25Z</time>
      </trkpt>
      <trkpt lat="46.53804" lon="5.85304">
        <ele>971</ele>
        <time>2021-10-17T16:02:26Z</time>
      </trkpt>
      <trkpt lat="46.53807" lon="5.85305">
        <ele>971</ele>
        <time>2021-10-17T16:02:27Z</time>
      </trkpt>
      <trkpt lat="46.53809" lon="5.85306">
        <ele>971.4</ele>
        <time>2021-10-17T16:02:28Z</time>
      </trkpt>
      <trkpt lat="46.53812" lon="5.85307">
        <ele>971.4</ele>
        <time>2021-10-17T16:02:29Z</time>
      </trkpt>
      <trkpt lat="46.53814" lon="5.85308">
        <ele>971.4</ele>
        <time>2021-10-17T16:02:30Z</time>
      </trkpt>
      <trkpt lat="46.53816" lon="5.85309">
        <ele>971.6</ele>
        <time>2021-10-17T16:02:31Z</time>
      </trkpt>
      <trkpt lat="46.53818" lon="5.85311">
        <ele>971.6</ele>
        <time>2021-10-17T16:02:32Z</time>
      </trkpt>
      <trkpt lat="46.53821" lon="5.85312">
        <ele>972</ele>
        <time>2021-10-17T16:02:33Z</time>
      </trkpt>
      <trkpt lat="46.53823" lon="5.85313">
        <ele>972</ele>
        <time>2021-10-17T16:02:34Z</time>
      </trkpt>
      <trkpt lat="46.53826" lon="5.85314">
        <ele>972.4</ele>
        <time>2021-10-17T16:02:35Z</time>
      </trkpt>
      <trkpt lat="46.53828" lon="5.85315">
        <ele>972.6</ele>
        <time>2021-10-17T16:02:36Z</time>
      </trkpt>
      <trkpt lat="46.5383" lon="5.85316">
        <ele>972.6</ele>
        <time>2021-10-17T16:02:37Z</time>
      </trkpt>
      <trkpt lat="46.53833" lon="5.85317">
        <ele>973</ele>
        <time>2021-10-17T16:02:38Z</time>
      </trkpt>
      <trkpt lat="46.53835" lon="5.85318">
        <ele>973</ele>
        <time>2021-10-17T16:02:39Z</time>
      </trkpt>
      <trkpt lat="46.53838" lon="5.85319">
        <ele>973.4</ele>
        <time>2021-10-17T16:02:40Z</time>
      </trkpt>
      <trkpt lat="46.5384" lon="5.8532">
        <ele>973.4</ele>
        <time>2021-10-17T16:02:41Z</time>
      </trkpt>
      <trkpt lat="46.53842" lon="5.85322">
        <ele>973.6</ele>
        <time>2021-10-17T16:02:42Z</time>
      </trkpt>
      <trkpt lat="46.53845" lon="5.85323">
        <ele>973.6</ele>
        <time>2021-10-17T16:02:43Z</time>
      </trkpt>
      <trkpt lat="46.53847" lon="5.85325">
        <ele>973.8</ele>
        <time>2021-10-17T16:02:44Z</time>
      </trkpt>
      <trkpt lat="46.5385" lon="5.85326">
        <ele>973.8</ele>
        <time>2021-10-17T16:02:45Z</time>
      </trkpt>
      <trkpt lat="46.53852" lon="5.85327">
        <ele>974.2</ele>
        <time>2021-10-17T16:02:46Z</time>
      </trkpt>
      <trkpt lat="46.53854" lon="5.85328">
        <ele>974.2</ele>
        <time>2021-10-17T16:02:47Z</time>
      </trkpt>
      <trkpt lat="46.53857" lon="5.85328">
        <ele>974.4</ele>
        <time>2021-10-17T16:02:48Z</time>
      </trkpt>
      <trkpt lat="46.5386" lon="5.8533">
        <ele>974.4</ele>
        <time>2021-10-17T16:02:49Z</time>
      </trkpt>
      <trkpt lat="46.53862" lon="5.85331">
        <ele>974.8</ele>
        <time>2021-10-17T16:02:50Z</time>
      </trkpt>
      <trkpt lat="46.53865" lon="5.85331">
        <ele>975</ele>
        <time>2021-10-17T16:02:51Z</time>
      </trkpt>
      <trkpt lat="46.53868" lon="5.85332">
        <ele>975</ele>
        <time>2021-10-17T16:02:52Z</time>
      </trkpt>
      <trkpt lat="46.53871" lon="5.85333">
        <ele>975.2</ele>
        <time>2021-10-17T16:02:53Z</time>
      </trkpt>
      <trkpt lat="46.53873" lon="5.85334">
        <ele>975.2</ele>
        <time>2021-10-17T16:02:54Z</time>
      </trkpt>
      <trkpt lat="46.53876" lon="5.85334">
        <ele>975.2</ele>
        <time>2021-10-17T16:02:55Z</time>
      </trkpt>
      <trkpt lat="46.53879" lon="5.85335">
        <ele>975.6</ele>
        <time>2021-10-17T16:02:56Z</time>
      </trkpt>
      <trkpt lat="46.53881" lon="5.85335">
        <ele>975.6</ele>
        <time>2021-10-17T16:02:57Z</time>
      </trkpt>
      <trkpt lat="46.53883" lon="5.85336">
        <ele>975.8</ele>
        <time>2021-10-17T16:02:58Z</time>
      </trkpt>
      <trkpt lat="46.53886" lon="5.85336">
        <ele>975.8</ele>
        <time>2021-10-17T16:02:59Z</time>
      </trkpt>
      <trkpt lat="46.53889" lon="5.85337">
        <ele>976.2</ele>
        <time>2021-10-17T16:03:00Z</time>
      </trkpt>
      <trkpt lat="46.53892" lon="5.85337">
        <ele>976.4</ele>
        <time>2021-10-17T16:03:01Z</time>
      </trkpt>
      <trkpt lat="46.53895" lon="5.85337">
        <ele>976.4</ele>
        <time>2021-10-17T16:03:02Z</time>
      </trkpt>
      <trkpt lat="46.53898" lon="5.85337">
        <ele>976.4</ele>
        <time>2021-10-17T16:03:03Z</time>
      </trkpt>
      <trkpt lat="46.53901" lon="5.85338">
        <ele>976.8</ele>
        <time>2021-10-17T16:03:04Z</time>
      </trkpt>
      <trkpt lat="46.53903" lon="5.85337">
        <ele>976.8</ele>
        <time>2021-10-17T16:03:05Z</time>
      </trkpt>
      <trkpt lat="46.53906" lon="5.85338">
        <ele>977.2</ele>
        <time>2021-10-17T16:03:06Z</time>
      </trkpt>
      <trkpt lat="46.53909" lon="5.85337">
        <ele>977.2</ele>
        <time>2021-10-17T16:03:07Z</time>
      </trkpt>
      <trkpt lat="46.53912" lon="5.85337">
        <ele>977.4</ele>
        <time>2021-10-17T16:03:08Z</time>
      </trkpt>
      <trkpt lat="46.53915" lon="5.85338">
        <ele>977.4</ele>
        <time>2021-10-17T16:03:09Z</time>
      </trkpt>
      <trkpt lat="46.53918" lon="5.85338">
        <ele>977.6</ele>
        <time>2021-10-17T16:03:10Z</time>
      </trkpt>
      <trkpt lat="46.53921" lon="5.85339">
        <ele>977.6</ele>
        <time>2021-10-17T16:03:11Z</time>
      </trkpt>
      <trkpt lat="46.53924" lon="5.85341">
        <ele>978</ele>
        <time>2021-10-17T16:03:12Z</time>
      </trkpt>
      <trkpt lat="46.53926" lon="5.85344">
        <ele>978</ele>
        <time>2021-10-17T16:03:13Z</time>
      </trkpt>
      <trkpt lat="46.53929" lon="5.85346">
        <ele>978.4</ele>
        <time>2021-10-17T16:03:14Z</time>
      </trkpt>
      <trkpt lat="46.53931" lon="5.85349">
        <ele>978.4</ele>
        <time>2021-10-17T16:03:15Z</time>
      </trkpt>
      <trkpt lat="46.53933" lon="5.85352">
        <ele>978.8</ele>
        <time>2021-10-17T16:03:16Z</time>
      </trkpt>
      <trkpt lat="46.53935" lon="5.85355">
        <ele>978.8</ele>
        <time>2021-10-17T16:03:17Z</time>
      </trkpt>
      <trkpt lat="46.53937" lon="5.85358">
        <ele>979</ele>
        <time>2021-10-17T16:03:18Z</time>
      </trkpt>
      <trkpt lat="46.53939" lon="5.85361">
        <ele>979</ele>
        <time>2021-10-17T16:03:19Z</time>
      </trkpt>
      <trkpt lat="46.53941" lon="5.85364">
        <ele>979.6</ele>
        <time>2021-10-17T16:03:20Z</time>
      </trkpt>
      <trkpt lat="46.53942" lon="5.85367">
        <ele>979.6</ele>
        <time>2021-10-17T16:03:21Z</time>
      </trkpt>
      <trkpt lat="46.53944" lon="5.8537">
        <ele>980</ele>
        <time>2021-10-17T16:03:22Z</time>
      </trkpt>
      <trkpt lat="46.53946" lon="5.85373">
        <ele>980.2</ele>
        <time>2021-10-17T16:03:23Z</time>
      </trkpt>
      <trkpt lat="46.53948" lon="5.85376">
        <ele>980.2</ele>
        <time>2021-10-17T16:03:24Z</time>
      </trkpt>
      <trkpt lat="46.53949" lon="5.8538">
        <ele>980.6</ele>
        <time>2021-10-17T16:03:25Z</time>
      </trkpt>
      <trkpt lat="46.53951" lon="5.85384">
        <ele>980.8</ele>
        <time>2021-10-17T16:03:26Z</time>
      </trkpt>
      <trkpt lat="46.53953" lon="5.85387">
        <ele>980.8</ele>
        <time>2021-10-17T16:03:27Z</time>
      </trkpt>
      <trkpt lat="46.53955" lon="5.85389">
        <ele>981</ele>
        <time>2021-10-17T16:03:28Z</time>
      </trkpt>
      <trkpt lat="46.53957" lon="5.85392">
        <ele>981</ele>
        <time>2021-10-17T16:03:29Z</time>
      </trkpt>
      <trkpt lat="46.5396" lon="5.85394">
        <ele>981.4</ele>
        <time>2021-10-17T16:03:30Z</time>
      </trkpt>
      <trkpt lat="46.53962" lon="5.85396">
        <ele>981.4</ele>
        <time>2021-10-17T16:03:31Z</time>
      </trkpt>
      <trkpt lat="46.53964" lon="5.85398">
        <ele>981.6</ele>
        <time>2021-10-17T16:03:32Z</time>
      </trkpt>
      <trkpt lat="46.53967" lon="5.854">
        <ele>981.6</ele>
        <time>2021-10-17T16:03:33Z</time>
      </trkpt>
      <trkpt lat="46.53969" lon="5.85401">
        <ele>981.8</ele>
        <time>2021-10-17T16:03:34Z</time>
      </trkpt>
      <trkpt lat="46.53972" lon="5.85402">
        <ele>981.8</ele>
        <time>2021-10-17T16:03:35Z</time>
      </trkpt>
      <trkpt lat="46.53974" lon="5.85404">
        <ele>982.2</ele>
        <time>2021-10-17T16:03:36Z</time>
      </trkpt>
      <trkpt lat="46.53977" lon="5.85405">
        <ele>982.2</ele>
        <time>2021-10-17T16:03:37Z</time>
      </trkpt>
      <trkpt lat="46.53979" lon="5.85406">
        <ele>982.4</ele>
        <time>2021-10-17T16:03:38Z</time>
      </trkpt>
      <trkpt lat="46.53982" lon="5.85408">
        <ele>982.4</ele>
        <time>2021-10-17T16:03:39Z</time>
      </trkpt>
      <trkpt lat="46.53985" lon="5.8541">
        <ele>982.4</ele>
        <time>2021-10-17T16:03:40Z</time>
      </trkpt>
      <trkpt lat="46.53987" lon="5.85411">
        <ele>982.6</ele>
        <time>2021-10-17T16:03:41Z</time>
      </trkpt>
      <trkpt lat="46.5399" lon="5.85413">
        <ele>982.6</ele>
        <time>2021-10-17T16:03:42Z</time>
      </trkpt>
      <trkpt lat="46.53993" lon="5.85413">
        <ele>983</ele>
        <time>2021-10-17T16:03:43Z</time>
      </trkpt>
      <trkpt lat="46.53995" lon="5.85415">
        <ele>983</ele>
        <time>2021-10-17T16:03:44Z</time>
      </trkpt>
      <trkpt lat="46.53997" lon="5.85416">
        <ele>983.4</ele>
        <time>2021-10-17T16:03:45Z</time>
      </trkpt>
      <trkpt lat="46.53999" lon="5.85418">
        <ele>983.4</ele>
        <time>2021-10-17T16:03:46Z</time>
      </trkpt>
      <trkpt lat="46.54002" lon="5.8542">
        <ele>983.6</ele>
        <time>2021-10-17T16:03:47Z</time>
      </trkpt>
      <trkpt lat="46.54004" lon="5.85421">
        <ele>983.6</ele>
        <time>2021-10-17T16:03:48Z</time>
      </trkpt>
      <trkpt lat="46.54007" lon="5.85422">
        <ele>984</ele>
        <time>2021-10-17T16:03:49Z</time>
      </trkpt>
      <trkpt lat="46.54009" lon="5.85422">
        <ele>984</ele>
        <time>2021-10-17T16:03:50Z</time>
      </trkpt>
      <trkpt lat="46.54011" lon="5.85423">
        <ele>984.2</ele>
        <time>2021-10-17T16:03:51Z</time>
      </trkpt>
      <trkpt lat="46.54013" lon="5.85423">
        <ele>984.2</ele>
        <time>2021-10-17T16:03:52Z</time>
      </trkpt>
      <trkpt lat="46.54015" lon="5.85424">
        <ele>984.6</ele>
        <time>2021-10-17T16:03:53Z</time>
      </trkpt>
      <trkpt lat="46.54017" lon="5.85426">
        <ele>984.6</ele>
        <time>2021-10-17T16:03:54Z</time>
      </trkpt>
      <trkpt lat="46.5402" lon="5.85427">
        <ele>984.8</ele>
        <time>2021-10-17T16:03:55Z</time>
      </trkpt>
      <trkpt lat="46.54022" lon="5.85428">
        <ele>984.8</ele>
        <time>2021-10-17T16:03:56Z</time>
      </trkpt>
      <trkpt lat="46.54024" lon="5.85429">
        <ele>984.8</ele>
        <time>2021-10-17T16:03:57Z</time>
      </trkpt>
      <trkpt lat="46.54027" lon="5.8543">
        <ele>985.2</ele>
        <time>2021-10-17T16:03:58Z</time>
      </trkpt>
      <trkpt lat="46.54029" lon="5.85431">
        <ele>985.2</ele>
        <time>2021-10-17T16:03:59Z</time>
      </trkpt>
      <trkpt lat="46.54031" lon="5.85433">
        <ele>985.4</ele>
        <time>2021-10-17T16:04:00Z</time>
      </trkpt>
      <trkpt lat="46.54033" lon="5.85434">
        <ele>985.4</ele>
        <time>2021-10-17T16:04:01Z</time>
      </trkpt>
      <trkpt lat="46.54035" lon="5.85435">
        <ele>985.6</ele>
        <time>2021-10-17T16:04:02Z</time>
      </trkpt>
      <trkpt lat="46.54037" lon="5.85436">
        <ele>985.6</ele>
        <time>2021-10-17T16:04:03Z</time>
      </trkpt>
      <trkpt lat="46.5404" lon="5.85437">
        <ele>986</ele>
        <time>2021-10-17T16:04:04Z</time>
      </trkpt>
      <trkpt lat="46.54042" lon="5.85437">
        <ele>986</ele>
        <time>2021-10-17T16:04:05Z</time>
      </trkpt>
      <trkpt lat="46.54044" lon="5.85437">
        <ele>986.4</ele>
        <time>2021-10-17T16:04:06Z</time>
      </trkpt>
      <trkpt lat="46.54046" lon="5.85438">
        <ele>986.4</ele>
        <time>2021-10-17T16:04:07Z</time>
      </trkpt>
      <trkpt lat="46.54049" lon="5.85439">
        <ele>986.6</ele>
        <time>2021-10-17T16:04:08Z</time>
      </trkpt>
      <trkpt lat="46.54051" lon="5.85439">
        <ele>986.6</ele>
        <time>2021-10-17T16:04:09Z</time>
      </trkpt>
      <trkpt lat="46.54053" lon="5.85439">
        <ele>987</ele>
        <time>2021-10-17T16:04:10Z</time>
      </trkpt>
      <trkpt lat="46.54056" lon="5.8544">
        <ele>987</ele>
        <time>2021-10-17T16:04:11Z</time>
      </trkpt>
      <trkpt lat="46.54059" lon="5.85441">
        <ele>987.2</ele>
        <time>2021-10-17T16:04:12Z</time>
      </trkpt>
      <trkpt lat="46.54061" lon="5.85442">
        <ele>987.2</ele>
        <time>2021-10-17T16:04:13Z</time>
      </trkpt>
      <trkpt lat="46.54064" lon="5.85444">
        <ele>987.6</ele>
        <time>2021-10-17T16:04:14Z</time>
      </trkpt>
      <trkpt lat="46.54067" lon="5.85445">
        <ele>987.6</ele>
        <time>2021-10-17T16:04:15Z</time>
      </trkpt>
      <trkpt lat="46.54069" lon="5.85447">
        <ele>987.8</ele>
        <time>2021-10-17T16:04:16Z</time>
      </trkpt>
      <trkpt lat="46.54072" lon="5.85448">
        <ele>987.8</ele>
        <time>2021-10-17T16:04:17Z</time>
      </trkpt>
      <trkpt lat="46.54075" lon="5.8545">
        <ele>988</ele>
        <time>2021-10-17T16:04:18Z</time>
      </trkpt>
      <trkpt lat="46.54077" lon="5.85452">
        <ele>988</ele>
        <time>2021-10-17T16:04:19Z</time>
      </trkpt>
      <trkpt lat="46.5408" lon="5.85454">
        <ele>988.4</ele>
        <time>2021-10-17T16:04:20Z</time>
      </trkpt>
      <trkpt lat="46.54082" lon="5.85456">
        <ele>988.4</ele>
        <time>2021-10-17T16:04:21Z</time>
      </trkpt>
      <trkpt lat="46.54084" lon="5.85458">
        <ele>988.8</ele>
        <time>2021-10-17T16:04:22Z</time>
      </trkpt>
      <trkpt lat="46.54086" lon="5.8546">
        <ele>988.8</ele>
        <time>2021-10-17T16:04:23Z</time>
      </trkpt>
      <trkpt lat="46.54088" lon="5.85461">
        <ele>989.2</ele>
        <time>2021-10-17T16:04:24Z</time>
      </trkpt>
      <trkpt lat="46.5409" lon="5.85462">
        <ele>989.2</ele>
        <time>2021-10-17T16:04:25Z</time>
      </trkpt>
      <trkpt lat="46.54092" lon="5.85464">
        <ele>989.6</ele>
        <time>2021-10-17T16:04:26Z</time>
      </trkpt>
      <trkpt lat="46.54094" lon="5.85465">
        <ele>989.6</ele>
        <time>2021-10-17T16:04:27Z</time>
      </trkpt>
      <trkpt lat="46.54096" lon="5.85467">
        <ele>990</ele>
        <time>2021-10-17T16:04:28Z</time>
      </trkpt>
      <trkpt lat="46.54098" lon="5.85469">
        <ele>990</ele>
        <time>2021-10-17T16:04:29Z</time>
      </trkpt>
      <trkpt lat="46.541" lon="5.85471">
        <ele>990.2</ele>
        <time>2021-10-17T16:04:30Z</time>
      </trkpt>
      <trkpt lat="46.54102" lon="5.85473">
        <ele>990.2</ele>
        <time>2021-10-17T16:04:31Z</time>
      </trkpt>
      <trkpt lat="46.54105" lon="5.85475">
        <ele>990.6</ele>
        <time>2021-10-17T16:04:32Z</time>
      </trkpt>
      <trkpt lat="46.54107" lon="5.85477">
        <ele>990.6</ele>
        <time>2021-10-17T16:04:33Z</time>
      </trkpt>
      <trkpt lat="46.54109" lon="5.85478">
        <ele>990.8</ele>
        <time>2021-10-17T16:04:34Z</time>
      </trkpt>
      <trkpt lat="46.54112" lon="5.85479">
        <ele>990.8</ele>
        <time>2021-10-17T16:04:35Z</time>
      </trkpt>
      <trkpt lat="46.54115" lon="5.85481">
        <ele>991</ele>
        <time>2021-10-17T16:04:36Z</time>
      </trkpt>
      <trkpt lat="46.54117" lon="5.85482">
        <ele>991</ele>
        <time>2021-10-17T16:04:37Z</time>
      </trkpt>
      <trkpt lat="46.5412" lon="5.85483">
        <ele>991.2</ele>
        <time>2021-10-17T16:04:38Z</time>
      </trkpt>
      <trkpt lat="46.54122" lon="5.85485">
        <ele>991.2</ele>
        <time>2021-10-17T16:04:39Z</time>
      </trkpt>
      <trkpt lat="46.54125" lon="5.85486">
        <ele>991.6</ele>
        <time>2021-10-17T16:04:40Z</time>
      </trkpt>
      <trkpt lat="46.54127" lon="5.85487">
        <ele>991.8</ele>
        <time>2021-10-17T16:04:41Z</time>
      </trkpt>
      <trkpt lat="46.54129" lon="5.85489">
        <ele>991.8</ele>
        <time>2021-10-17T16:04:42Z</time>
      </trkpt>
      <trkpt lat="46.54132" lon="5.8549">
        <ele>992</ele>
        <time>2021-10-17T16:04:43Z</time>
      </trkpt>
      <trkpt lat="46.54134" lon="5.85492">
        <ele>992</ele>
        <time>2021-10-17T16:04:44Z</time>
      </trkpt>
      <trkpt lat="46.54137" lon="5.85493">
        <ele>992.4</ele>
        <time>2021-10-17T16:04:45Z</time>
      </trkpt>
      <trkpt lat="46.5414" lon="5.85494">
        <ele>992.4</ele>
        <time>2021-10-17T16:04:46Z</time>
      </trkpt>
      <trkpt lat="46.54142" lon="5.85495">
        <ele>992.6</ele>
        <time>2021-10-17T16:04:47Z</time>
      </trkpt>
      <trkpt lat="46.54145" lon="5.85496">
        <ele>992.6</ele>
        <time>2021-10-17T16:04:48Z</time>
      </trkpt>
      <trkpt lat="46.54148" lon="5.85496">
        <ele>992.8</ele>
        <time>2021-10-17T16:04:49Z</time>
      </trkpt>
      <trkpt lat="46.54151" lon="5.85498">
        <ele>992.8</ele>
        <time>2021-10-17T16:04:50Z</time>
      </trkpt>
      <trkpt lat="46.54154" lon="5.85499">
        <ele>993.2</ele>
        <time>2021-10-17T16:04:51Z</time>
      </trkpt>
      <trkpt lat="46.54156" lon="5.855">
        <ele>993.2</ele>
        <time>2021-10-17T16:04:52Z</time>
      </trkpt>
      <trkpt lat="46.54159" lon="5.85501">
        <ele>993.6</ele>
        <time>2021-10-17T16:04:53Z</time>
      </trkpt>
      <trkpt lat="46.54162" lon="5.85502">
        <ele>993.6</ele>
        <time>2021-10-17T16:04:54Z</time>
      </trkpt>
      <trkpt lat="46.54165" lon="5.85504">
        <ele>993.8</ele>
        <time>2021-10-17T16:04:55Z</time>
      </trkpt>
      <trkpt lat="46.54167" lon="5.85505">
        <ele>993.8</ele>
        <time>2021-10-17T16:04:56Z</time>
      </trkpt>
      <trkpt lat="46.5417" lon="5.85507">
        <ele>994.2</ele>
        <time>2021-10-17T16:04:57Z</time>
      </trkpt>
      <trkpt lat="46.54173" lon="5.85509">
        <ele>994.4</ele>
        <time>2021-10-17T16:04:58Z</time>
      </trkpt>
      <trkpt lat="46.54176" lon="5.8551">
        <ele>994.4</ele>
        <time>2021-10-17T16:04:59Z</time>
      </trkpt>
      <trkpt lat="46.54179" lon="5.85512">
        <ele>994.8</ele>
        <time>2021-10-17T16:05:00Z</time>
      </trkpt>
      <trkpt lat="46.54181" lon="5.85513">
        <ele>994.8</ele>
        <time>2021-10-17T16:05:01Z</time>
      </trkpt>
      <trkpt lat="46.54184" lon="5.85515">
        <ele>995</ele>
        <time>2021-10-17T16:05:02Z</time>
      </trkpt>
      <trkpt lat="46.54187" lon="5.85518">
        <ele>995</ele>
        <time>2021-10-17T16:05:03Z</time>
      </trkpt>
      <trkpt lat="46.5419" lon="5.8552">
        <ele>995.4</ele>
        <time>2021-10-17T16:05:04Z</time>
      </trkpt>
      <trkpt lat="46.54192" lon="5.85523">
        <ele>995.6</ele>
        <time>2021-10-17T16:05:05Z</time>
      </trkpt>
      <trkpt lat="46.54195" lon="5.85525">
        <ele>995.6</ele>
        <time>2021-10-17T16:05:06Z</time>
      </trkpt>
      <trkpt lat="46.54197" lon="5.85527">
        <ele>996</ele>
        <time>2021-10-17T16:05:07Z</time>
      </trkpt>
      <trkpt lat="46.542" lon="5.85529">
        <ele>996.2</ele>
        <time>2021-10-17T16:05:08Z</time>
      </trkpt>
      <trkpt lat="46.54203" lon="5.85531">
        <ele>996.4</ele>
        <time>2021-10-17T16:05:09Z</time>
      </trkpt>
      <trkpt lat="46.54206" lon="5.85532">
        <ele>996.8</ele>
        <time>2021-10-17T16:05:10Z</time>
      </trkpt>
      <trkpt lat="46.54208" lon="5.85534">
        <ele>997</ele>
        <time>2021-10-17T16:05:11Z</time>
      </trkpt>
      <trkpt lat="46.54211" lon="5.85535">
        <ele>997</ele>
        <time>2021-10-17T16:05:12Z</time>
      </trkpt>
      <trkpt lat="46.54214" lon="5.85536">
        <ele>997.2</ele>
        <time>2021-10-17T16:05:13Z</time>
      </trkpt>
      <trkpt lat="46.54217" lon="5.85537">
        <ele>997.2</ele>
        <time>2021-10-17T16:05:14Z</time>
      </trkpt>
      <trkpt lat="46.54221" lon="5.85537">
        <ele>997.6</ele>
        <time>2021-10-17T16:05:15Z</time>
      </trkpt>
      <trkpt lat="46.54223" lon="5.85537">
        <ele>997.6</ele>
        <time>2021-10-17T16:05:16Z</time>
      </trkpt>
      <trkpt lat="46.54225" lon="5.85536">
        <ele>998</ele>
        <time>2021-10-17T16:05:17Z</time>
      </trkpt>
      <trkpt lat="46.54227" lon="5.85534">
        <ele>998.2</ele>
        <time>2021-10-17T16:05:18Z</time>
      </trkpt>
      <trkpt lat="46.54229" lon="5.85532">
        <ele>998.4</ele>
        <time>2021-10-17T16:05:19Z</time>
      </trkpt>
      <trkpt lat="46.54231" lon="5.8553">
        <ele>998.4</ele>
        <time>2021-10-17T16:05:20Z</time>
      </trkpt>
      <trkpt lat="46.54233" lon="5.85527">
        <ele>998.6</ele>
        <time>2021-10-17T16:05:21Z</time>
      </trkpt>
      <trkpt lat="46.54234" lon="5.85524">
        <ele>998.6</ele>
        <time>2021-10-17T16:05:22Z</time>
      </trkpt>
      <trkpt lat="46.54235" lon="5.8552">
        <ele>998.6</ele>
        <time>2021-10-17T16:05:23Z</time>
      </trkpt>
      <trkpt lat="46.54235" lon="5.85516">
        <ele>998.8</ele>
        <time>2021-10-17T16:05:24Z</time>
      </trkpt>
      <trkpt lat="46.54234" lon="5.85513">
        <ele>998.8</ele>
        <time>2021-10-17T16:05:25Z</time>
      </trkpt>
      <trkpt lat="46.54234" lon="5.8551">
        <ele>999.2</ele>
        <time>2021-10-17T16:05:26Z</time>
      </trkpt>
      <trkpt lat="46.54233" lon="5.85507">
        <ele>999.2</ele>
        <time>2021-10-17T16:05:27Z</time>
      </trkpt>
      <trkpt lat="46.54231" lon="5.85504">
        <ele>999.4</ele>
        <time>2021-10-17T16:05:28Z</time>
      </trkpt>
      <trkpt lat="46.5423" lon="5.85501">
        <ele>999.4</ele>
        <time>2021-10-17T16:05:29Z</time>
      </trkpt>
      <trkpt lat="46.54227" lon="5.85498">
        <ele>999.8</ele>
        <time>2021-10-17T16:05:30Z</time>
      </trkpt>
      <trkpt lat="46.54225" lon="5.85496">
        <ele>999.8</ele>
        <time>2021-10-17T16:05:31Z</time>
      </trkpt>
      <trkpt lat="46.54223" lon="5.85494">
        <ele>1000</ele>
        <time>2021-10-17T16:05:32Z</time>
      </trkpt>
      <trkpt lat="46.54221" lon="5.85492">
        <ele>1000.2</ele>
        <time>2021-10-17T16:05:33Z</time>
      </trkpt>
      <trkpt lat="46.54218" lon="5.85489">
        <ele>1000.2</ele>
        <time>2021-10-17T16:05:34Z</time>
      </trkpt>
      <trkpt lat="46.54216" lon="5.85487">
        <ele>1000.6</ele>
        <time>2021-10-17T16:05:35Z</time>
      </trkpt>
      <trkpt lat="46.54214" lon="5.85485">
        <ele>1000.6</ele>
        <time>2021-10-17T16:05:36Z</time>
      </trkpt>
      <trkpt lat="46.54211" lon="5.85482">
        <ele>1000.8</ele>
        <time>2021-10-17T16:05:37Z</time>
      </trkpt>
      <trkpt lat="46.54209" lon="5.85479">
        <ele>1001</ele>
        <time>2021-10-17T16:05:38Z</time>
      </trkpt>
      <trkpt lat="46.54207" lon="5.85477">
        <ele>1001</ele>
        <time>2021-10-17T16:05:39Z</time>
      </trkpt>
      <trkpt lat="46.54205" lon="5.85474">
        <ele>1001.4</ele>
        <time>2021-10-17T16:05:40Z</time>
      </trkpt>
      <trkpt lat="46.54203" lon="5.85472">
        <ele>1001.4</ele>
        <time>2021-10-17T16:05:41Z</time>
      </trkpt>
      <trkpt lat="46.54201" lon="5.85469">
        <ele>1001.6</ele>
        <time>2021-10-17T16:05:42Z</time>
      </trkpt>
      <trkpt lat="46.54199" lon="5.85466">
        <ele>1001.6</ele>
        <time>2021-10-17T16:05:43Z</time>
      </trkpt>
      <trkpt lat="46.54197" lon="5.85464">
        <ele>1001.8</ele>
        <time>2021-10-17T16:05:44Z</time>
      </trkpt>
      <trkpt lat="46.54195" lon="5.85462">
        <ele>1001.8</ele>
        <time>2021-10-17T16:05:45Z</time>
      </trkpt>
      <trkpt lat="46.54194" lon="5.85459">
        <ele>1002.2</ele>
        <time>2021-10-17T16:05:46Z</time>
      </trkpt>
      <trkpt lat="46.54192" lon="5.85457">
        <ele>1002.2</ele>
        <time>2021-10-17T16:05:47Z</time>
      </trkpt>
      <trkpt lat="46.5419" lon="5.85454">
        <ele>1002.4</ele>
        <time>2021-10-17T16:05:48Z</time>
      </trkpt>
      <trkpt lat="46.54187" lon="5.85451">
        <ele>1002.4</ele>
        <time>2021-10-17T16:05:49Z</time>
      </trkpt>
      <trkpt lat="46.54185" lon="5.85449">
        <ele>1002.8</ele>
        <time>2021-10-17T16:05:50Z</time>
      </trkpt>
      <trkpt lat="46.54183" lon="5.85446">
        <ele>1002.8</ele>
        <time>2021-10-17T16:05:51Z</time>
      </trkpt>
      <trkpt lat="46.54181" lon="5.85443">
        <ele>1003</ele>
        <time>2021-10-17T16:05:52Z</time>
      </trkpt>
      <trkpt lat="46.5418" lon="5.85441">
        <ele>1003</ele>
        <time>2021-10-17T16:05:53Z</time>
      </trkpt>
      <trkpt lat="46.54178" lon="5.85438">
        <ele>1003.4</ele>
        <time>2021-10-17T16:05:54Z</time>
      </trkpt>
      <trkpt lat="46.54176" lon="5.85435">
        <ele>1003.4</ele>
        <time>2021-10-17T16:05:55Z</time>
      </trkpt>
      <trkpt lat="46.54175" lon="5.85432">
        <ele>1003.8</ele>
        <time>2021-10-17T16:05:56Z</time>
      </trkpt>
      <trkpt lat="46.54173" lon="5.8543">
        <ele>1004</ele>
        <time>2021-10-17T16:05:57Z</time>
      </trkpt>
      <trkpt lat="46.54171" lon="5.85428">
        <ele>1004</ele>
        <time>2021-10-17T16:05:58Z</time>
      </trkpt>
      <trkpt lat="46.5417" lon="5.85425">
        <ele>1004.2</ele>
        <time>2021-10-17T16:05:59Z</time>
      </trkpt>
      <trkpt lat="46.54168" lon="5.85423">
        <ele>1004.2</ele>
        <time>2021-10-17T16:06:00Z</time>
      </trkpt>
      <trkpt lat="46.54165" lon="5.85421">
        <ele>1004.6</ele>
        <time>2021-10-17T16:06:01Z</time>
      </trkpt>
      <trkpt lat="46.54163" lon="5.85419">
        <ele>1004.6</ele>
        <time>2021-10-17T16:06:02Z</time>
      </trkpt>
      <trkpt lat="46.54161" lon="5.85416">
        <ele>1004.8</ele>
        <time>2021-10-17T16:06:03Z</time>
      </trkpt>
      <trkpt lat="46.54159" lon="5.85414">
        <ele>1004.8</ele>
        <time>2021-10-17T16:06:04Z</time>
      </trkpt>
      <trkpt lat="46.54157" lon="5.85411">
        <ele>1004.8</ele>
        <time>2021-10-17T16:06:05Z</time>
      </trkpt>
      <trkpt lat="46.54155" lon="5.85408">
        <ele>1005.2</ele>
        <time>2021-10-17T16:06:06Z</time>
      </trkpt>
      <trkpt lat="46.54153" lon="5.85405">
        <ele>1005.4</ele>
        <time>2021-10-17T16:06:07Z</time>
      </trkpt>
      <trkpt lat="46.54152" lon="5.85402">
        <ele>1005.4</ele>
        <time>2021-10-17T16:06:08Z</time>
      </trkpt>
      <trkpt lat="46.54151" lon="5.85398">
        <ele>1005.6</ele>
        <time>2021-10-17T16:06:09Z</time>
      </trkpt>
      <trkpt lat="46.54149" lon="5.85396">
        <ele>1005.6</ele>
        <time>2021-10-17T16:06:10Z</time>
      </trkpt>
      <trkpt lat="46.54148" lon="5.85392">
        <ele>1006</ele>
        <time>2021-10-17T16:06:11Z</time>
      </trkpt>
      <trkpt lat="46.54148" lon="5.85389">
        <ele>1006</ele>
        <time>2021-10-17T16:06:12Z</time>
      </trkpt>
      <trkpt lat="46.54148" lon="5.85385">
        <ele>1006.4</ele>
        <time>2021-10-17T16:06:13Z</time>
      </trkpt>
      <trkpt lat="46.54147" lon="5.85382">
        <ele>1006.4</ele>
        <time>2021-10-17T16:06:14Z</time>
      </trkpt>
      <trkpt lat="46.54147" lon="5.85379">
        <ele>1006.6</ele>
        <time>2021-10-17T16:06:15Z</time>
      </trkpt>
      <trkpt lat="46.54148" lon="5.85376">
        <ele>1006.8</ele>
        <time>2021-10-17T16:06:16Z</time>
      </trkpt>
      <trkpt lat="46.54149" lon="5.85373">
        <ele>1006.8</ele>
        <time>2021-10-17T16:06:17Z</time>
      </trkpt>
      <trkpt lat="46.54149" lon="5.8537">
        <ele>1007.2</ele>
        <time>2021-10-17T16:06:18Z</time>
      </trkpt>
      <trkpt lat="46.54151" lon="5.85367">
        <ele>1007.2</ele>
        <time>2021-10-17T16:06:19Z</time>
      </trkpt>
      <trkpt lat="46.54152" lon="5.85364">
        <ele>1007.6</ele>
        <time>2021-10-17T16:06:20Z</time>
      </trkpt>
      <trkpt lat="46.54152" lon="5.85361">
        <ele>1007.6</ele>
        <time>2021-10-17T16:06:21Z</time>
      </trkpt>
      <trkpt lat="46.54153" lon="5.85358">
        <ele>1007.8</ele>
        <time>2021-10-17T16:06:22Z</time>
      </trkpt>
      <trkpt lat="46.54153" lon="5.85354">
        <ele>1007.8</ele>
        <time>2021-10-17T16:06:23Z</time>
      </trkpt>
      <trkpt lat="46.54153" lon="5.8535">
        <ele>1008.2</ele>
        <time>2021-10-17T16:06:24Z</time>
      </trkpt>
      <trkpt lat="46.54154" lon="5.85347">
        <ele>1008.2</ele>
        <time>2021-10-17T16:06:25Z</time>
      </trkpt>
      <trkpt lat="46.54153" lon="5.85344">
        <ele>1008.6</ele>
        <time>2021-10-17T16:06:26Z</time>
      </trkpt>
      <trkpt lat="46.54152" lon="5.85341">
        <ele>1008.6</ele>
        <time>2021-10-17T16:06:27Z</time>
      </trkpt>
      <trkpt lat="46.54151" lon="5.85338">
        <ele>1008.8</ele>
        <time>2021-10-17T16:06:28Z</time>
      </trkpt>
      <trkpt lat="46.5415" lon="5.85335">
        <ele>1009.2</ele>
        <time>2021-10-17T16:06:29Z</time>
      </trkpt>
      <trkpt lat="46.54148" lon="5.85332">
        <ele>1009.4</ele>
        <time>2021-10-17T16:06:30Z</time>
      </trkpt>
      <trkpt lat="46.54147" lon="5.85329">
        <ele>1009.4</ele>
        <time>2021-10-17T16:06:31Z</time>
      </trkpt>
      <trkpt lat="46.54145" lon="5.85327">
        <ele>1009.8</ele>
        <time>2021-10-17T16:06:32Z</time>
      </trkpt>
      <trkpt lat="46.54143" lon="5.85324">
        <ele>1009.8</ele>
        <time>2021-10-17T16:06:33Z</time>
      </trkpt>
      <trkpt lat="46.54142" lon="5.85322">
        <ele>1010.2</ele>
        <time>2021-10-17T16:06:34Z</time>
      </trkpt>
      <trkpt lat="46.5414" lon="5.85319">
        <ele>1010.2</ele>
        <time>2021-10-17T16:06:35Z</time>
      </trkpt>
      <trkpt lat="46.5414" lon="5.85319">
        <ele>1010.4</ele>
        <time>2021-10-17T16:06:36Z</time>
      </trkpt>
      <trkpt lat="46.54138" lon="5.85318">
        <ele>1010.4</ele>
        <time>2021-10-17T16:06:37Z</time>
      </trkpt>
      <trkpt lat="46.54136" lon="5.85316">
        <ele>1010.8</ele>
        <time>2021-10-17T16:06:38Z</time>
      </trkpt>
      <trkpt lat="46.54134" lon="5.85315">
        <ele>1010.8</ele>
        <time>2021-10-17T16:06:39Z</time>
      </trkpt>
      <trkpt lat="46.54132" lon="5.85314">
        <ele>1011.2</ele>
        <time>2021-10-17T16:06:40Z</time>
      </trkpt>
      <trkpt lat="46.5413" lon="5.85314">
        <ele>1011.2</ele>
        <time>2021-10-17T16:06:41Z</time>
      </trkpt>
      <trkpt lat="46.54128" lon="5.85313">
        <ele>1011.4</ele>
        <time>2021-10-17T16:06:42Z</time>
      </trkpt>
      <trkpt lat="46.54126" lon="5.85312">
        <ele>1011.4</ele>
        <time>2021-10-17T16:06:43Z</time>
      </trkpt>
      <trkpt lat="46.54124" lon="5.85311">
        <ele>1011.8</ele>
        <time>2021-10-17T16:06:44Z</time>
      </trkpt>
      <trkpt lat="46.54121" lon="5.8531">
        <ele>1011.8</ele>
        <time>2021-10-17T16:06:45Z</time>
      </trkpt>
      <trkpt lat="46.54119" lon="5.85308">
        <ele>1012</ele>
        <time>2021-10-17T16:06:46Z</time>
      </trkpt>
      <trkpt lat="46.54117" lon="5.85306">
        <ele>1012</ele>
        <time>2021-10-17T16:06:47Z</time>
      </trkpt>
      <trkpt lat="46.54115" lon="5.85304">
        <ele>1012</ele>
        <time>2021-10-17T16:06:48Z</time>
      </trkpt>
      <trkpt lat="46.54113" lon="5.85303">
        <ele>1012.2</ele>
        <time>2021-10-17T16:06:49Z</time>
      </trkpt>
      <trkpt lat="46.54111" lon="5.85301">
        <ele>1012.2</ele>
        <time>2021-10-17T16:06:50Z</time>
      </trkpt>
      <trkpt lat="46.54109" lon="5.85299">
        <ele>1012.4</ele>
        <time>2021-10-17T16:06:51Z</time>
      </trkpt>
      <trkpt lat="46.54107" lon="5.85297">
        <ele>1012.4</ele>
        <time>2021-10-17T16:06:52Z</time>
      </trkpt>
      <trkpt lat="46.54106" lon="5.85294">
        <ele>1012.8</ele>
        <time>2021-10-17T16:06:53Z</time>
      </trkpt>
      <trkpt lat="46.54105" lon="5.85292">
        <ele>1012.8</ele>
        <time>2021-10-17T16:06:54Z</time>
      </trkpt>
      <trkpt lat="46.54104" lon="5.85289">
        <ele>1013</ele>
        <time>2021-10-17T16:06:55Z</time>
      </trkpt>
      <trkpt lat="46.54104" lon="5.85286">
        <ele>1013</ele>
        <time>2021-10-17T16:06:56Z</time>
      </trkpt>
      <trkpt lat="46.54104" lon="5.85282">
        <ele>1013.2</ele>
        <time>2021-10-17T16:06:57Z</time>
      </trkpt>
      <trkpt lat="46.54104" lon="5.85278">
        <ele>1013.2</ele>
        <time>2021-10-17T16:06:58Z</time>
      </trkpt>
      <trkpt lat="46.54105" lon="5.85275">
        <ele>1013.6</ele>
        <time>2021-10-17T16:06:59Z</time>
      </trkpt>
      <trkpt lat="46.54105" lon="5.85271">
        <ele>1013.6</ele>
        <time>2021-10-17T16:07:00Z</time>
      </trkpt>
      <trkpt lat="46.54106" lon="5.85267">
        <ele>1013.8</ele>
        <time>2021-10-17T16:07:01Z</time>
      </trkpt>
      <trkpt lat="46.54107" lon="5.8526">
        <ele>1014.2</ele>
        <time>2021-10-17T16:07:02Z</time>
      </trkpt>
      <trkpt lat="46.54107" lon="5.85257">
        <ele>1014.2</ele>
        <time>2021-10-17T16:07:04Z</time>
      </trkpt>
      <trkpt lat="46.54108" lon="5.85254">
        <ele>1014.4</ele>
        <time>2021-10-17T16:07:05Z</time>
      </trkpt>
      <trkpt lat="46.54109" lon="5.85251">
        <ele>1014.4</ele>
        <time>2021-10-17T16:07:06Z</time>
      </trkpt>
      <trkpt lat="46.5411" lon="5.85248">
        <ele>1014.8</ele>
        <time>2021-10-17T16:07:07Z</time>
      </trkpt>
      <trkpt lat="46.54112" lon="5.85245">
        <ele>1014.8</ele>
        <time>2021-10-17T16:07:08Z</time>
      </trkpt>
      <trkpt lat="46.54113" lon="5.85242">
        <ele>1015.2</ele>
        <time>2021-10-17T16:07:09Z</time>
      </trkpt>
      <trkpt lat="46.54114" lon="5.85239">
        <ele>1015.2</ele>
        <time>2021-10-17T16:07:10Z</time>
      </trkpt>
      <trkpt lat="46.54115" lon="5.85236">
        <ele>1015.4</ele>
        <time>2021-10-17T16:07:11Z</time>
      </trkpt>
      <trkpt lat="46.54116" lon="5.85233">
        <ele>1015.4</ele>
        <time>2021-10-17T16:07:12Z</time>
      </trkpt>
      <trkpt lat="46.54117" lon="5.8523">
        <ele>1015.8</ele>
        <time>2021-10-17T16:07:13Z</time>
      </trkpt>
      <trkpt lat="46.54118" lon="5.85227">
        <ele>1015.8</ele>
        <time>2021-10-17T16:07:14Z</time>
      </trkpt>
      <trkpt lat="46.54119" lon="5.85224">
        <ele>1016.2</ele>
        <time>2021-10-17T16:07:15Z</time>
      </trkpt>
      <trkpt lat="46.5412" lon="5.85222">
        <ele>1016.2</ele>
        <time>2021-10-17T16:07:16Z</time>
      </trkpt>
      <trkpt lat="46.54121" lon="5.85216">
        <ele>1016.4</ele>
        <time>2021-10-17T16:07:17Z</time>
      </trkpt>
      <trkpt lat="46.54122" lon="5.85213">
        <ele>1016.4</ele>
        <time>2021-10-17T16:07:18Z</time>
      </trkpt>
      <trkpt lat="46.54123" lon="5.85209">
        <ele>1016.8</ele>
        <time>2021-10-17T16:07:19Z</time>
      </trkpt>
      <trkpt lat="46.54123" lon="5.85205">
        <ele>1016.8</ele>
        <time>2021-10-17T16:07:20Z</time>
      </trkpt>
      <trkpt lat="46.54124" lon="5.85201">
        <ele>1017.2</ele>
        <time>2021-10-17T16:07:21Z</time>
      </trkpt>
      <trkpt lat="46.54124" lon="5.85197">
        <ele>1017.2</ele>
        <time>2021-10-17T16:07:22Z</time>
      </trkpt>
      <trkpt lat="46.54125" lon="5.85193">
        <ele>1017.4</ele>
        <time>2021-10-17T16:07:23Z</time>
      </trkpt>
      <trkpt lat="46.54125" lon="5.85189">
        <ele>1017.4</ele>
        <time>2021-10-17T16:07:24Z</time>
      </trkpt>
      <trkpt lat="46.54126" lon="5.85185">
        <ele>1017.8</ele>
        <time>2021-10-17T16:07:25Z</time>
      </trkpt>
      <trkpt lat="46.54126" lon="5.85182">
        <ele>1018</ele>
        <time>2021-10-17T16:07:26Z</time>
      </trkpt>
      <trkpt lat="46.54127" lon="5.85177">
        <ele>1018</ele>
        <time>2021-10-17T16:07:27Z</time>
      </trkpt>
      <trkpt lat="46.54127" lon="5.85173">
        <ele>1018.4</ele>
        <time>2021-10-17T16:07:28Z</time>
      </trkpt>
      <trkpt lat="46.54128" lon="5.85169">
        <ele>1018.4</ele>
        <time>2021-10-17T16:07:29Z</time>
      </trkpt>
      <trkpt lat="46.54129" lon="5.85164">
        <ele>1018.6</ele>
        <time>2021-10-17T16:07:30Z</time>
      </trkpt>
      <trkpt lat="46.54129" lon="5.85159">
        <ele>1018.6</ele>
        <time>2021-10-17T16:07:31Z</time>
      </trkpt>
      <trkpt lat="46.5413" lon="5.85155">
        <ele>1019</ele>
        <time>2021-10-17T16:07:32Z</time>
      </trkpt>
      <trkpt lat="46.5413" lon="5.8515">
        <ele>1019.2</ele>
        <time>2021-10-17T16:07:33Z</time>
      </trkpt>
      <trkpt lat="46.54131" lon="5.85145">
        <ele>1019.2</ele>
        <time>2021-10-17T16:07:34Z</time>
      </trkpt>
      <trkpt lat="46.54131" lon="5.85141">
        <ele>1019.4</ele>
        <time>2021-10-17T16:07:35Z</time>
      </trkpt>
      <trkpt lat="46.54132" lon="5.85137">
        <ele>1019.4</ele>
        <time>2021-10-17T16:07:36Z</time>
      </trkpt>
      <trkpt lat="46.54133" lon="5.85134">
        <ele>1019.8</ele>
        <time>2021-10-17T16:07:37Z</time>
      </trkpt>
      <trkpt lat="46.54134" lon="5.8513">
        <ele>1019.8</ele>
        <time>2021-10-17T16:07:38Z</time>
      </trkpt>
      <trkpt lat="46.54135" lon="5.85126">
        <ele>1020.2</ele>
        <time>2021-10-17T16:07:39Z</time>
      </trkpt>
      <trkpt lat="46.54137" lon="5.85123">
        <ele>1020.2</ele>
        <time>2021-10-17T16:07:40Z</time>
      </trkpt>
      <trkpt lat="46.54139" lon="5.85119">
        <ele>1020.4</ele>
        <time>2021-10-17T16:07:41Z</time>
      </trkpt>
      <trkpt lat="46.54141" lon="5.85115">
        <ele>1020.4</ele>
        <time>2021-10-17T16:07:42Z</time>
      </trkpt>
      <trkpt lat="46.54143" lon="5.85113">
        <ele>1020.8</ele>
        <time>2021-10-17T16:07:43Z</time>
      </trkpt>
      <trkpt lat="46.54146" lon="5.8511">
        <ele>1020.8</ele>
        <time>2021-10-17T16:07:44Z</time>
      </trkpt>
      <trkpt lat="46.54148" lon="5.85107">
        <ele>1021</ele>
        <time>2021-10-17T16:07:45Z</time>
      </trkpt>
      <trkpt lat="46.54151" lon="5.85104">
        <ele>1021</ele>
        <time>2021-10-17T16:07:46Z</time>
      </trkpt>
      <trkpt lat="46.54153" lon="5.85102">
        <ele>1021.4</ele>
        <time>2021-10-17T16:07:47Z</time>
      </trkpt>
      <trkpt lat="46.54156" lon="5.85099">
        <ele>1021.4</ele>
        <time>2021-10-17T16:07:48Z</time>
      </trkpt>
      <trkpt lat="46.54158" lon="5.85097">
        <ele>1021.6</ele>
        <time>2021-10-17T16:07:49Z</time>
      </trkpt>
      <trkpt lat="46.54161" lon="5.85095">
        <ele>1021.6</ele>
        <time>2021-10-17T16:07:50Z</time>
      </trkpt>
      <trkpt lat="46.54163" lon="5.85092">
        <ele>1021.8</ele>
        <time>2021-10-17T16:07:51Z</time>
      </trkpt>
      <trkpt lat="46.54165" lon="5.85091">
        <ele>1021.8</ele>
        <time>2021-10-17T16:07:52Z</time>
      </trkpt>
      <trkpt lat="46.54168" lon="5.85089">
        <ele>1022.2</ele>
        <time>2021-10-17T16:07:53Z</time>
      </trkpt>
      <trkpt lat="46.54169" lon="5.85087">
        <ele>1022.2</ele>
        <time>2021-10-17T16:07:54Z</time>
      </trkpt>
      <trkpt lat="46.54171" lon="5.85085">
        <ele>1022.6</ele>
        <time>2021-10-17T16:07:55Z</time>
      </trkpt>
      <trkpt lat="46.54172" lon="5.85083">
        <ele>1022.6</ele>
        <time>2021-10-17T16:07:56Z</time>
      </trkpt>
      <trkpt lat="46.54174" lon="5.8508">
        <ele>1022.8</ele>
        <time>2021-10-17T16:07:57Z</time>
      </trkpt>
      <trkpt lat="46.54176" lon="5.85078">
        <ele>1022.8</ele>
        <time>2021-10-17T16:07:58Z</time>
      </trkpt>
      <trkpt lat="46.54178" lon="5.85076">
        <ele>1023.2</ele>
        <time>2021-10-17T16:07:59Z</time>
      </trkpt>
      <trkpt lat="46.54179" lon="5.85074">
        <ele>1023.2</ele>
        <time>2021-10-17T16:08:00Z</time>
      </trkpt>
      <trkpt lat="46.5418" lon="5.85073">
        <ele>1023.4</ele>
        <time>2021-10-17T16:08:01Z</time>
      </trkpt>
      <trkpt lat="46.54182" lon="5.85072">
        <ele>1023.4</ele>
        <time>2021-10-17T16:08:02Z</time>
      </trkpt>
      <trkpt lat="46.54183" lon="5.85071">
        <ele>1023.8</ele>
        <time>2021-10-17T16:08:03Z</time>
      </trkpt>
      <trkpt lat="46.54185" lon="5.85071">
        <ele>1023.8</ele>
        <time>2021-10-17T16:08:04Z</time>
      </trkpt>
      <trkpt lat="46.54187" lon="5.85071">
        <ele>1024</ele>
        <time>2021-10-17T16:08:05Z</time>
      </trkpt>
      <trkpt lat="46.5419" lon="5.85071">
        <ele>1024</ele>
        <time>2021-10-17T16:08:06Z</time>
      </trkpt>
      <trkpt lat="46.54192" lon="5.85071">
        <ele>1024.4</ele>
        <time>2021-10-17T16:08:07Z</time>
      </trkpt>
      <trkpt lat="46.54195" lon="5.85072">
        <ele>1024.4</ele>
        <time>2021-10-17T16:08:08Z</time>
      </trkpt>
      <trkpt lat="46.54197" lon="5.85074">
        <ele>1024.6</ele>
        <time>2021-10-17T16:08:09Z</time>
      </trkpt>
      <trkpt lat="46.542" lon="5.85076">
        <ele>1024.6</ele>
        <time>2021-10-17T16:08:10Z</time>
      </trkpt>
      <trkpt lat="46.54202" lon="5.85077">
        <ele>1024.8</ele>
        <time>2021-10-17T16:08:11Z</time>
      </trkpt>
      <trkpt lat="46.54204" lon="5.85079">
        <ele>1024.8</ele>
        <time>2021-10-17T16:08:12Z</time>
      </trkpt>
      <trkpt lat="46.54207" lon="5.8508">
        <ele>1025</ele>
        <time>2021-10-17T16:08:13Z</time>
      </trkpt>
      <trkpt lat="46.54209" lon="5.85081">
        <ele>1025</ele>
        <time>2021-10-17T16:08:14Z</time>
      </trkpt>
      <trkpt lat="46.54211" lon="5.85082">
        <ele>1025.4</ele>
        <time>2021-10-17T16:08:15Z</time>
      </trkpt>
      <trkpt lat="46.54214" lon="5.85083">
        <ele>1025.4</ele>
        <time>2021-10-17T16:08:16Z</time>
      </trkpt>
      <trkpt lat="46.54217" lon="5.85085">
        <ele>1025.6</ele>
        <time>2021-10-17T16:08:17Z</time>
      </trkpt>
      <trkpt lat="46.54219" lon="5.85086">
        <ele>1025.6</ele>
        <time>2021-10-17T16:08:18Z</time>
      </trkpt>
      <trkpt lat="46.54222" lon="5.85088">
        <ele>1025.8</ele>
        <time>2021-10-17T16:08:19Z</time>
      </trkpt>
      <trkpt lat="46.54224" lon="5.8509">
        <ele>1025.8</ele>
        <time>2021-10-17T16:08:20Z</time>
      </trkpt>
      <trkpt lat="46.54227" lon="5.85091">
        <ele>1026.2</ele>
        <time>2021-10-17T16:08:21Z</time>
      </trkpt>
      <trkpt lat="46.54229" lon="5.85093">
        <ele>1026.2</ele>
        <time>2021-10-17T16:08:22Z</time>
      </trkpt>
      <trkpt lat="46.5423" lon="5.85095">
        <ele>1026.2</ele>
        <time>2021-10-17T16:08:23Z</time>
      </trkpt>
      <trkpt lat="46.54233" lon="5.85096">
        <ele>1026.4</ele>
        <time>2021-10-17T16:08:24Z</time>
      </trkpt>
      <trkpt lat="46.54235" lon="5.85098">
        <ele>1026.4</ele>
        <time>2021-10-17T16:08:25Z</time>
      </trkpt>
      <trkpt lat="46.54236" lon="5.85099">
        <ele>1026.8</ele>
        <time>2021-10-17T16:08:26Z</time>
      </trkpt>
      <trkpt lat="46.54238" lon="5.851">
        <ele>1026.8</ele>
        <time>2021-10-17T16:08:27Z</time>
      </trkpt>
      <trkpt lat="46.5424" lon="5.851">
        <ele>1027</ele>
        <time>2021-10-17T16:08:28Z</time>
      </trkpt>
      <trkpt lat="46.54241" lon="5.851">
        <ele>1027</ele>
        <time>2021-10-17T16:08:29Z</time>
      </trkpt>
      <trkpt lat="46.54243" lon="5.85101">
        <ele>1027.2</ele>
        <time>2021-10-17T16:08:30Z</time>
      </trkpt>
      <trkpt lat="46.54244" lon="5.85102">
        <ele>1027.2</ele>
        <time>2021-10-17T16:08:31Z</time>
      </trkpt>
      <trkpt lat="46.54245" lon="5.85103">
        <ele>1027.2</ele>
        <time>2021-10-17T16:08:32Z</time>
      </trkpt>
      <trkpt lat="46.54247" lon="5.85104">
        <ele>1027.2</ele>
        <time>2021-10-17T16:08:33Z</time>
      </trkpt>
      <trkpt lat="46.54248" lon="5.85104">
        <ele>1027.2</ele>
        <time>2021-10-17T16:08:34Z</time>
      </trkpt>
      <trkpt lat="46.54248" lon="5.85104">
        <ele>1027.2</ele>
        <time>2021-10-17T16:08:35Z</time>
      </trkpt>
      <trkpt lat="46.54249" lon="5.85105">
        <ele>1027.2</ele>
        <time>2021-10-17T16:08:36Z</time>
      </trkpt>
      <trkpt lat="46.54257" lon="5.85109">
        <ele>1027</ele>
        <time>2021-10-17T16:09:51Z</time>
      </trkpt>
      <trkpt lat="46.54259" lon="5.8511">
        <ele>1027</ele>
        <time>2021-10-17T16:09:52Z</time>
      </trkpt>
      <trkpt lat="46.54263" lon="5.85111">
        <ele>1026.8</ele>
        <time>2021-10-17T16:09:53Z</time>
      </trkpt>
      <trkpt lat="46.54266" lon="5.85113">
        <ele>1026.8</ele>
        <time>2021-10-17T16:09:54Z</time>
      </trkpt>
      <trkpt lat="46.5427" lon="5.85114">
        <ele>1026.8</ele>
        <time>2021-10-17T16:09:55Z</time>
      </trkpt>
      <trkpt lat="46.54275" lon="5.85116">
        <ele>1026.4</ele>
        <time>2021-10-17T16:09:56Z</time>
      </trkpt>
      <trkpt lat="46.5428" lon="5.85117">
        <ele>1026.4</ele>
        <time>2021-10-17T16:09:57Z</time>
      </trkpt>
      <trkpt lat="46.54285" lon="5.85117">
        <ele>1026</ele>
        <time>2021-10-17T16:09:58Z</time>
      </trkpt>
      <trkpt lat="46.54291" lon="5.85116">
        <ele>1025.8</ele>
        <time>2021-10-17T16:09:59Z</time>
      </trkpt>
      <trkpt lat="46.54297" lon="5.85114">
        <ele>1025.6</ele>
        <time>2021-10-17T16:10:00Z</time>
      </trkpt>
      <trkpt lat="46.54303" lon="5.85111">
        <ele>1025.6</ele>
        <time>2021-10-17T16:10:01Z</time>
      </trkpt>
      <trkpt lat="46.54308" lon="5.85108">
        <ele>1025.2</ele>
        <time>2021-10-17T16:10:02Z</time>
      </trkpt>
      <trkpt lat="46.54313" lon="5.85103">
        <ele>1025</ele>
        <time>2021-10-17T16:10:03Z</time>
      </trkpt>
      <trkpt lat="46.54318" lon="5.85099">
        <ele>1025</ele>
        <time>2021-10-17T16:10:04Z</time>
      </trkpt>
      <trkpt lat="46.54323" lon="5.85095">
        <ele>1024.6</ele>
        <time>2021-10-17T16:10:05Z</time>
      </trkpt>
      <trkpt lat="46.54328" lon="5.85092">
        <ele>1024.2</ele>
        <time>2021-10-17T16:10:06Z</time>
      </trkpt>
      <trkpt lat="46.54334" lon="5.8509">
        <ele>1023.8</ele>
        <time>2021-10-17T16:10:07Z</time>
      </trkpt>
      <trkpt lat="46.54339" lon="5.85089">
        <ele>1023.4</ele>
        <time>2021-10-17T16:10:08Z</time>
      </trkpt>
      <trkpt lat="46.54345" lon="5.85088">
        <ele>1023</ele>
        <time>2021-10-17T16:10:09Z</time>
      </trkpt>
      <trkpt lat="46.54352" lon="5.85089">
        <ele>1022.8</ele>
        <time>2021-10-17T16:10:10Z</time>
      </trkpt>
      <trkpt lat="46.54359" lon="5.85092">
        <ele>1022.4</ele>
        <time>2021-10-17T16:10:11Z</time>
      </trkpt>
      <trkpt lat="46.54366" lon="5.85095">
        <ele>1022.2</ele>
        <time>2021-10-17T16:10:12Z</time>
      </trkpt>
      <trkpt lat="46.54373" lon="5.85098">
        <ele>1022</ele>
        <time>2021-10-17T16:10:13Z</time>
      </trkpt>
      <trkpt lat="46.54379" lon="5.85101">
        <ele>1021.6</ele>
        <time>2021-10-17T16:10:14Z</time>
      </trkpt>
      <trkpt lat="46.54386" lon="5.85103">
        <ele>1021.6</ele>
        <time>2021-10-17T16:10:15Z</time>
      </trkpt>
      <trkpt lat="46.54393" lon="5.85105">
        <ele>1021.2</ele>
        <time>2021-10-17T16:10:16Z</time>
      </trkpt>
      <trkpt lat="46.544" lon="5.85109">
        <ele>1021.2</ele>
        <time>2021-10-17T16:10:17Z</time>
      </trkpt>
      <trkpt lat="46.54407" lon="5.85113">
        <ele>1021</ele>
        <time>2021-10-17T16:10:18Z</time>
      </trkpt>
      <trkpt lat="46.54412" lon="5.85117">
        <ele>1020.8</ele>
        <time>2021-10-17T16:10:19Z</time>
      </trkpt>
      <trkpt lat="46.54418" lon="5.85121">
        <ele>1020.6</ele>
        <time>2021-10-17T16:10:20Z</time>
      </trkpt>
      <trkpt lat="46.54425" lon="5.85125">
        <ele>1020.2</ele>
        <time>2021-10-17T16:10:21Z</time>
      </trkpt>
      <trkpt lat="46.54432" lon="5.85129">
        <ele>1020</ele>
        <time>2021-10-17T16:10:22Z</time>
      </trkpt>
      <trkpt lat="46.54439" lon="5.85131">
        <ele>1019.6</ele>
        <time>2021-10-17T16:10:23Z</time>
      </trkpt>
      <trkpt lat="46.54445" lon="5.85133">
        <ele>1019.4</ele>
        <time>2021-10-17T16:10:24Z</time>
      </trkpt>
      <trkpt lat="46.54451" lon="5.85135">
        <ele>1019</ele>
        <time>2021-10-17T16:10:25Z</time>
      </trkpt>
      <trkpt lat="46.54457" lon="5.85138">
        <ele>1018.8</ele>
        <time>2021-10-17T16:10:26Z</time>
      </trkpt>
      <trkpt lat="46.54463" lon="5.85141">
        <ele>1018.8</ele>
        <time>2021-10-17T16:10:27Z</time>
      </trkpt>
      <trkpt lat="46.5447" lon="5.85144">
        <ele>1018.4</ele>
        <time>2021-10-17T16:10:28Z</time>
      </trkpt>
      <trkpt lat="46.54476" lon="5.85147">
        <ele>1018.4</ele>
        <time>2021-10-17T16:10:29Z</time>
      </trkpt>
      <trkpt lat="46.54483" lon="5.8515">
        <ele>1018</ele>
        <time>2021-10-17T16:10:30Z</time>
      </trkpt>
      <trkpt lat="46.54491" lon="5.85154">
        <ele>1017.8</ele>
        <time>2021-10-17T16:10:31Z</time>
      </trkpt>
      <trkpt lat="46.54499" lon="5.85156">
        <ele>1017.6</ele>
        <time>2021-10-17T16:10:32Z</time>
      </trkpt>
      <trkpt lat="46.54507" lon="5.85156">
        <ele>1017.6</ele>
        <time>2021-10-17T16:10:33Z</time>
      </trkpt>
      <trkpt lat="46.54516" lon="5.85157">
        <ele>1017.2</ele>
        <time>2021-10-17T16:10:34Z</time>
      </trkpt>
      <trkpt lat="46.54524" lon="5.85156">
        <ele>1017</ele>
        <time>2021-10-17T16:10:35Z</time>
      </trkpt>
      <trkpt lat="46.54532" lon="5.85155">
        <ele>1016.4</ele>
        <time>2021-10-17T16:10:36Z</time>
      </trkpt>
      <trkpt lat="46.54541" lon="5.85155">
        <ele>1016.2</ele>
        <time>2021-10-17T16:10:37Z</time>
      </trkpt>
      <trkpt lat="46.54549" lon="5.85154">
        <ele>1016</ele>
        <time>2021-10-17T16:10:38Z</time>
      </trkpt>
      <trkpt lat="46.54556" lon="5.85154">
        <ele>1015.6</ele>
        <time>2021-10-17T16:10:39Z</time>
      </trkpt>
      <trkpt lat="46.54564" lon="5.85154">
        <ele>1015.2</ele>
        <time>2021-10-17T16:10:40Z</time>
      </trkpt>
      <trkpt lat="46.54574" lon="5.85156">
        <ele>1014.8</ele>
        <time>2021-10-17T16:10:41Z</time>
      </trkpt>
      <trkpt lat="46.54584" lon="5.8516">
        <ele>1014.4</ele>
        <time>2021-10-17T16:10:42Z</time>
      </trkpt>
      <trkpt lat="46.54595" lon="5.85161">
        <ele>1014</ele>
        <time>2021-10-17T16:10:43Z</time>
      </trkpt>
      <trkpt lat="46.54605" lon="5.85161">
        <ele>1013.8</ele>
        <time>2021-10-17T16:10:44Z</time>
      </trkpt>
      <trkpt lat="46.54615" lon="5.8516">
        <ele>1013.4</ele>
        <time>2021-10-17T16:10:45Z</time>
      </trkpt>
      <trkpt lat="46.54628" lon="5.85158">
        <ele>1012.8</ele>
        <time>2021-10-17T16:10:46Z</time>
      </trkpt>
      <trkpt lat="46.5464" lon="5.85152">
        <ele>1012.4</ele>
        <time>2021-10-17T16:10:47Z</time>
      </trkpt>
      <trkpt lat="46.5465" lon="5.85146">
        <ele>1012.2</ele>
        <time>2021-10-17T16:10:48Z</time>
      </trkpt>
      <trkpt lat="46.54658" lon="5.85139">
        <ele>1011.8</ele>
        <time>2021-10-17T16:10:49Z</time>
      </trkpt>
      <trkpt lat="46.54666" lon="5.85132">
        <ele>1011.6</ele>
        <time>2021-10-17T16:10:50Z</time>
      </trkpt>
      <trkpt lat="46.54673" lon="5.85124">
        <ele>1011.6</ele>
        <time>2021-10-17T16:10:51Z</time>
      </trkpt>
      <trkpt lat="46.5468" lon="5.85115">
        <ele>1011.2</ele>
        <time>2021-10-17T16:10:52Z</time>
      </trkpt>
      <trkpt lat="46.54687" lon="5.85106">
        <ele>1010.8</ele>
        <time>2021-10-17T16:10:53Z</time>
      </trkpt>
      <trkpt lat="46.54693" lon="5.85097">
        <ele>1010.6</ele>
        <time>2021-10-17T16:10:54Z</time>
      </trkpt>
      <trkpt lat="46.547" lon="5.85089">
        <ele>1010</ele>
        <time>2021-10-17T16:10:55Z</time>
      </trkpt>
      <trkpt lat="46.54708" lon="5.85083">
        <ele>1009.6</ele>
        <time>2021-10-17T16:10:56Z</time>
      </trkpt>
      <trkpt lat="46.54716" lon="5.85078">
        <ele>1009.2</ele>
        <time>2021-10-17T16:10:57Z</time>
      </trkpt>
      <trkpt lat="46.54724" lon="5.85075">
        <ele>1008.8</ele>
        <time>2021-10-17T16:10:58Z</time>
      </trkpt>
      <trkpt lat="46.54731" lon="5.85074">
        <ele>1008.6</ele>
        <time>2021-10-17T16:10:59Z</time>
      </trkpt>
      <trkpt lat="46.54738" lon="5.85073">
        <ele>1008.6</ele>
        <time>2021-10-17T16:11:00Z</time>
      </trkpt>
      <trkpt lat="46.54746" lon="5.85073">
        <ele>1008.2</ele>
        <time>2021-10-17T16:11:01Z</time>
      </trkpt>
      <trkpt lat="46.54754" lon="5.85074">
        <ele>1008.2</ele>
        <time>2021-10-17T16:11:02Z</time>
      </trkpt>
      <trkpt lat="46.54762" lon="5.85073">
        <ele>1007.8</ele>
        <time>2021-10-17T16:11:03Z</time>
      </trkpt>
      <trkpt lat="46.5477" lon="5.85072">
        <ele>1007.8</ele>
        <time>2021-10-17T16:11:04Z</time>
      </trkpt>
      <trkpt lat="46.54779" lon="5.8507">
        <ele>1007.6</ele>
        <time>2021-10-17T16:11:05Z</time>
      </trkpt>
      <trkpt lat="46.54787" lon="5.85066">
        <ele>1007.6</ele>
        <time>2021-10-17T16:11:06Z</time>
      </trkpt>
      <trkpt lat="46.54795" lon="5.85062">
        <ele>1007.2</ele>
        <time>2021-10-17T16:11:07Z</time>
      </trkpt>
      <trkpt lat="46.54803" lon="5.85057">
        <ele>1007.2</ele>
        <time>2021-10-17T16:11:08Z</time>
      </trkpt>
      <trkpt lat="46.54811" lon="5.85052">
        <ele>1006.8</ele>
        <time>2021-10-17T16:11:09Z</time>
      </trkpt>
      <trkpt lat="46.5482" lon="5.85047">
        <ele>1006.8</ele>
        <time>2021-10-17T16:11:10Z</time>
      </trkpt>
      <trkpt lat="46.54828" lon="5.85042">
        <ele>1006.4</ele>
        <time>2021-10-17T16:11:11Z</time>
      </trkpt>
      <trkpt lat="46.54836" lon="5.85038">
        <ele>1006.2</ele>
        <time>2021-10-17T16:11:12Z</time>
      </trkpt>
      <trkpt lat="46.54844" lon="5.85034">
        <ele>1006.2</ele>
        <time>2021-10-17T16:11:13Z</time>
      </trkpt>
      <trkpt lat="46.54853" lon="5.85031">
        <ele>1006</ele>
        <time>2021-10-17T16:11:14Z</time>
      </trkpt>
      <trkpt lat="46.5486" lon="5.85028">
        <ele>1006</ele>
        <time>2021-10-17T16:11:15Z</time>
      </trkpt>
      <trkpt lat="46.54868" lon="5.85026">
        <ele>1005.6</ele>
        <time>2021-10-17T16:11:16Z</time>
      </trkpt>
      <trkpt lat="46.54876" lon="5.85023">
        <ele>1005.6</ele>
        <time>2021-10-17T16:11:17Z</time>
      </trkpt>
      <trkpt lat="46.54884" lon="5.85021">
        <ele>1005.4</ele>
        <time>2021-10-17T16:11:18Z</time>
      </trkpt>
      <trkpt lat="46.54891" lon="5.85019">
        <ele>1005.4</ele>
        <time>2021-10-17T16:11:19Z</time>
      </trkpt>
      <trkpt lat="46.54898" lon="5.85016">
        <ele>1005.4</ele>
        <time>2021-10-17T16:11:20Z</time>
      </trkpt>
      <trkpt lat="46.54905" lon="5.85014">
        <ele>1005.4</ele>
        <time>2021-10-17T16:11:21Z</time>
      </trkpt>
      <trkpt lat="46.54912" lon="5.85012">
        <ele>1005.4</ele>
        <time>2021-10-17T16:11:22Z</time>
      </trkpt>
      <trkpt lat="46.5492" lon="5.85009">
        <ele>1005.4</ele>
        <time>2021-10-17T16:11:23Z</time>
      </trkpt>
      <trkpt lat="46.54927" lon="5.85006">
        <ele>1005.2</ele>
        <time>2021-10-17T16:11:24Z</time>
      </trkpt>
      <trkpt lat="46.54934" lon="5.85002">
        <ele>1005.2</ele>
        <time>2021-10-17T16:11:25Z</time>
      </trkpt>
      <trkpt lat="46.54942" lon="5.84998">
        <ele>1005</ele>
        <time>2021-10-17T16:11:26Z</time>
      </trkpt>
      <trkpt lat="46.54948" lon="5.84994">
        <ele>1004.8</ele>
        <time>2021-10-17T16:11:27Z</time>
      </trkpt>
      <trkpt lat="46.54954" lon="5.84991">
        <ele>1004.6</ele>
        <time>2021-10-17T16:11:28Z</time>
      </trkpt>
      <trkpt lat="46.5496" lon="5.84989">
        <ele>1004.2</ele>
        <time>2021-10-17T16:11:29Z</time>
      </trkpt>
      <trkpt lat="46.54965" lon="5.84988">
        <ele>1004</ele>
        <time>2021-10-17T16:11:30Z</time>
      </trkpt>
      <trkpt lat="46.54971" lon="5.84989">
        <ele>1003.6</ele>
        <time>2021-10-17T16:11:31Z</time>
      </trkpt>
      <trkpt lat="46.54977" lon="5.84991">
        <ele>1003.4</ele>
        <time>2021-10-17T16:11:32Z</time>
      </trkpt>
      <trkpt lat="46.54984" lon="5.84993">
        <ele>1003</ele>
        <time>2021-10-17T16:11:33Z</time>
      </trkpt>
      <trkpt lat="46.54991" lon="5.84994">
        <ele>1002.6</ele>
        <time>2021-10-17T16:11:34Z</time>
      </trkpt>
      <trkpt lat="46.55" lon="5.84997">
        <ele>1002</ele>
        <time>2021-10-17T16:11:35Z</time>
      </trkpt>
      <trkpt lat="46.55008" lon="5.84999">
        <ele>1001.6</ele>
        <time>2021-10-17T16:11:36Z</time>
      </trkpt>
      <trkpt lat="46.55017" lon="5.85004">
        <ele>1001.2</ele>
        <time>2021-10-17T16:11:37Z</time>
      </trkpt>
      <trkpt lat="46.55025" lon="5.85008">
        <ele>1000.6</ele>
        <time>2021-10-17T16:11:38Z</time>
      </trkpt>
      <trkpt lat="46.55031" lon="5.85012">
        <ele>1000.2</ele>
        <time>2021-10-17T16:11:39Z</time>
      </trkpt>
      <trkpt lat="46.55037" lon="5.85016">
        <ele>999.8</ele>
        <time>2021-10-17T16:11:40Z</time>
      </trkpt>
      <trkpt lat="46.55043" lon="5.85019">
        <ele>999.4</ele>
        <time>2021-10-17T16:11:41Z</time>
      </trkpt>
      <trkpt lat="46.55049" lon="5.85019">
        <ele>999</ele>
        <time>2021-10-17T16:11:42Z</time>
      </trkpt>
      <trkpt lat="46.55055" lon="5.85018">
        <ele>998.6</ele>
        <time>2021-10-17T16:11:43Z</time>
      </trkpt>
      <trkpt lat="46.5506" lon="5.85015">
        <ele>998.2</ele>
        <time>2021-10-17T16:11:44Z</time>
      </trkpt>
      <trkpt lat="46.55063" lon="5.85011">
        <ele>997.8</ele>
        <time>2021-10-17T16:11:45Z</time>
      </trkpt>
      <trkpt lat="46.55064" lon="5.85006">
        <ele>997.6</ele>
        <time>2021-10-17T16:11:46Z</time>
      </trkpt>
      <trkpt lat="46.55064" lon="5.85001">
        <ele>997.2</ele>
        <time>2021-10-17T16:11:47Z</time>
      </trkpt>
      <trkpt lat="46.55059" lon="5.84994">
        <ele>996.8</ele>
        <time>2021-10-17T16:11:48Z</time>
      </trkpt>
      <trkpt lat="46.55054" lon="5.84989">
        <ele>996.6</ele>
        <time>2021-10-17T16:11:49Z</time>
      </trkpt>
      <trkpt lat="46.55048" lon="5.84984">
        <ele>996.2</ele>
        <time>2021-10-17T16:11:50Z</time>
      </trkpt>
      <trkpt lat="46.55041" lon="5.84981">
        <ele>995.8</ele>
        <time>2021-10-17T16:11:51Z</time>
      </trkpt>
      <trkpt lat="46.55033" lon="5.84976">
        <ele>995.4</ele>
        <time>2021-10-17T16:11:52Z</time>
      </trkpt>
      <trkpt lat="46.55025" lon="5.84972">
        <ele>995</ele>
        <time>2021-10-17T16:11:53Z</time>
      </trkpt>
      <trkpt lat="46.55017" lon="5.84968">
        <ele>994.6</ele>
        <time>2021-10-17T16:11:54Z</time>
      </trkpt>
      <trkpt lat="46.55008" lon="5.84963">
        <ele>994.2</ele>
        <time>2021-10-17T16:11:55Z</time>
      </trkpt>
      <trkpt lat="46.55" lon="5.84959">
        <ele>994</ele>
        <time>2021-10-17T16:11:56Z</time>
      </trkpt>
      <trkpt lat="46.54992" lon="5.84954">
        <ele>993.6</ele>
        <time>2021-10-17T16:11:57Z</time>
      </trkpt>
      <trkpt lat="46.54984" lon="5.84949">
        <ele>993.2</ele>
        <time>2021-10-17T16:11:58Z</time>
      </trkpt>
      <trkpt lat="46.54975" lon="5.84945">
        <ele>992.6</ele>
        <time>2021-10-17T16:11:59Z</time>
      </trkpt>
      <trkpt lat="46.54967" lon="5.8494">
        <ele>992.2</ele>
        <time>2021-10-17T16:12:00Z</time>
      </trkpt>
      <trkpt lat="46.54958" lon="5.84935">
        <ele>991.8</ele>
        <time>2021-10-17T16:12:01Z</time>
      </trkpt>
      <trkpt lat="46.54949" lon="5.84929">
        <ele>991.4</ele>
        <time>2021-10-17T16:12:02Z</time>
      </trkpt>
      <trkpt lat="46.54941" lon="5.84921">
        <ele>991</ele>
        <time>2021-10-17T16:12:03Z</time>
      </trkpt>
      <trkpt lat="46.54933" lon="5.84912">
        <ele>990.4</ele>
        <time>2021-10-17T16:12:04Z</time>
      </trkpt>
      <trkpt lat="46.54926" lon="5.84901">
        <ele>989.8</ele>
        <time>2021-10-17T16:12:05Z</time>
      </trkpt>
      <trkpt lat="46.5492" lon="5.84889">
        <ele>989.4</ele>
        <time>2021-10-17T16:12:06Z</time>
      </trkpt>
      <trkpt lat="46.5492" lon="5.84889">
        <ele>988.8</ele>
        <time>2021-10-17T16:12:07Z</time>
      </trkpt>
      <trkpt lat="46.54914" lon="5.84877">
        <ele>988.4</ele>
        <time>2021-10-17T16:12:08Z</time>
      </trkpt>
      <trkpt lat="46.54908" lon="5.84865">
        <ele>987.8</ele>
        <time>2021-10-17T16:12:09Z</time>
      </trkpt>
      <trkpt lat="46.54902" lon="5.84855">
        <ele>987.4</ele>
        <time>2021-10-17T16:12:10Z</time>
      </trkpt>
      <trkpt lat="46.54896" lon="5.84846">
        <ele>986.8</ele>
        <time>2021-10-17T16:12:11Z</time>
      </trkpt>
      <trkpt lat="46.5489" lon="5.84838">
        <ele>986.4</ele>
        <time>2021-10-17T16:12:12Z</time>
      </trkpt>
      <trkpt lat="46.54885" lon="5.84833">
        <ele>985.8</ele>
        <time>2021-10-17T16:12:13Z</time>
      </trkpt>
      <trkpt lat="46.54882" lon="5.84827">
        <ele>985.4</ele>
        <time>2021-10-17T16:12:14Z</time>
      </trkpt>
      <trkpt lat="46.54879" lon="5.84822">
        <ele>985</ele>
        <time>2021-10-17T16:12:15Z</time>
      </trkpt>
      <trkpt lat="46.54877" lon="5.84817">
        <ele>984.6</ele>
        <time>2021-10-17T16:12:16Z</time>
      </trkpt>
      <trkpt lat="46.54877" lon="5.84811">
        <ele>984.4</ele>
        <time>2021-10-17T16:12:17Z</time>
      </trkpt>
      <trkpt lat="46.54878" lon="5.84805">
        <ele>984.2</ele>
        <time>2021-10-17T16:12:18Z</time>
      </trkpt>
      <trkpt lat="46.5488" lon="5.84801">
        <ele>984.2</ele>
        <time>2021-10-17T16:12:19Z</time>
      </trkpt>
      <trkpt lat="46.54883" lon="5.84797">
        <ele>983.8</ele>
        <time>2021-10-17T16:12:20Z</time>
      </trkpt>
      <trkpt lat="46.54887" lon="5.84795">
        <ele>983.4</ele>
        <time>2021-10-17T16:12:21Z</time>
      </trkpt>
      <trkpt lat="46.54891" lon="5.84794">
        <ele>983.4</ele>
        <time>2021-10-17T16:12:22Z</time>
      </trkpt>
      <trkpt lat="46.54894" lon="5.84794">
        <ele>983</ele>
        <time>2021-10-17T16:12:23Z</time>
      </trkpt>
      <trkpt lat="46.54899" lon="5.84795">
        <ele>983</ele>
        <time>2021-10-17T16:12:24Z</time>
      </trkpt>
      <trkpt lat="46.54904" lon="5.84796">
        <ele>982.6</ele>
        <time>2021-10-17T16:12:25Z</time>
      </trkpt>
      <trkpt lat="46.5491" lon="5.84797">
        <ele>982.2</ele>
        <time>2021-10-17T16:12:26Z</time>
      </trkpt>
      <trkpt lat="46.54916" lon="5.84799">
        <ele>982</ele>
        <time>2021-10-17T16:12:27Z</time>
      </trkpt>
      <trkpt lat="46.54922" lon="5.848">
        <ele>981.6</ele>
        <time>2021-10-17T16:12:28Z</time>
      </trkpt>
      <trkpt lat="46.54929" lon="5.84802">
        <ele>981.4</ele>
        <time>2021-10-17T16:12:29Z</time>
      </trkpt>
      <trkpt lat="46.54936" lon="5.84805">
        <ele>981</ele>
        <time>2021-10-17T16:12:30Z</time>
      </trkpt>
      <trkpt lat="46.54942" lon="5.84807">
        <ele>980.6</ele>
        <time>2021-10-17T16:12:31Z</time>
      </trkpt>
      <trkpt lat="46.54949" lon="5.8481">
        <ele>980.2</ele>
        <time>2021-10-17T16:12:32Z</time>
      </trkpt>
      <trkpt lat="46.54956" lon="5.84811">
        <ele>980</ele>
        <time>2021-10-17T16:12:33Z</time>
      </trkpt>
      <trkpt lat="46.54963" lon="5.84811">
        <ele>979.6</ele>
        <time>2021-10-17T16:12:34Z</time>
      </trkpt>
      <trkpt lat="46.5497" lon="5.8481">
        <ele>979.2</ele>
        <time>2021-10-17T16:12:35Z</time>
      </trkpt>
      <trkpt lat="46.54977" lon="5.84806">
        <ele>978.6</ele>
        <time>2021-10-17T16:12:36Z</time>
      </trkpt>
      <trkpt lat="46.54984" lon="5.84799">
        <ele>978</ele>
        <time>2021-10-17T16:12:37Z</time>
      </trkpt>
      <trkpt lat="46.54991" lon="5.8479">
        <ele>977.4</ele>
        <time>2021-10-17T16:12:38Z</time>
      </trkpt>
      <trkpt lat="46.54999" lon="5.84781">
        <ele>976.6</ele>
        <time>2021-10-17T16:12:39Z</time>
      </trkpt>
      <trkpt lat="46.55007" lon="5.84772">
        <ele>975.8</ele>
        <time>2021-10-17T16:12:40Z</time>
      </trkpt>
      <trkpt lat="46.55016" lon="5.84765">
        <ele>974.8</ele>
        <time>2021-10-17T16:12:41Z</time>
      </trkpt>
      <trkpt lat="46.55025" lon="5.84756">
        <ele>974</ele>
        <time>2021-10-17T16:12:42Z</time>
      </trkpt>
      <trkpt lat="46.55036" lon="5.84746">
        <ele>973.2</ele>
        <time>2021-10-17T16:12:43Z</time>
      </trkpt>
      <trkpt lat="46.55046" lon="5.84736">
        <ele>972.4</ele>
        <time>2021-10-17T16:12:44Z</time>
      </trkpt>
      <trkpt lat="46.55056" lon="5.84726">
        <ele>971.6</ele>
        <time>2021-10-17T16:12:45Z</time>
      </trkpt>
      <trkpt lat="46.55064" lon="5.84714">
        <ele>970.8</ele>
        <time>2021-10-17T16:12:46Z</time>
      </trkpt>
      <trkpt lat="46.55073" lon="5.84703">
        <ele>970</ele>
        <time>2021-10-17T16:12:47Z</time>
      </trkpt>
      <trkpt lat="46.5508" lon="5.84694">
        <ele>969.4</ele>
        <time>2021-10-17T16:12:48Z</time>
      </trkpt>
      <trkpt lat="46.55087" lon="5.84686">
        <ele>968.6</ele>
        <time>2021-10-17T16:12:49Z</time>
      </trkpt>
      <trkpt lat="46.55094" lon="5.84679">
        <ele>968</ele>
        <time>2021-10-17T16:12:50Z</time>
      </trkpt>
      <trkpt lat="46.551" lon="5.84673">
        <ele>967.4</ele>
        <time>2021-10-17T16:12:51Z</time>
      </trkpt>
      <trkpt lat="46.55108" lon="5.84669">
        <ele>966.6</ele>
        <time>2021-10-17T16:12:52Z</time>
      </trkpt>
      <trkpt lat="46.55116" lon="5.84665">
        <ele>965.8</ele>
        <time>2021-10-17T16:12:53Z</time>
      </trkpt>
      <trkpt lat="46.55125" lon="5.84664">
        <ele>965</ele>
        <time>2021-10-17T16:12:54Z</time>
      </trkpt>
      <trkpt lat="46.55134" lon="5.84663">
        <ele>964.2</ele>
        <time>2021-10-17T16:12:55Z</time>
      </trkpt>
      <trkpt lat="46.55143" lon="5.84662">
        <ele>963.6</ele>
        <time>2021-10-17T16:12:56Z</time>
      </trkpt>
      <trkpt lat="46.55153" lon="5.84663">
        <ele>963</ele>
        <time>2021-10-17T16:12:57Z</time>
      </trkpt>
      <trkpt lat="46.55162" lon="5.84664">
        <ele>962.2</ele>
        <time>2021-10-17T16:12:58Z</time>
      </trkpt>
      <trkpt lat="46.55173" lon="5.84663">
        <ele>961.6</ele>
        <time>2021-10-17T16:12:59Z</time>
      </trkpt>
      <trkpt lat="46.55184" lon="5.84663">
        <ele>960.8</ele>
        <time>2021-10-17T16:13:00Z</time>
      </trkpt>
      <trkpt lat="46.55195" lon="5.84665">
        <ele>960.2</ele>
        <time>2021-10-17T16:13:01Z</time>
      </trkpt>
      <trkpt lat="46.55206" lon="5.84665">
        <ele>959.4</ele>
        <time>2021-10-17T16:13:02Z</time>
      </trkpt>
      <trkpt lat="46.55216" lon="5.84667">
        <ele>958.6</ele>
        <time>2021-10-17T16:13:03Z</time>
      </trkpt>
      <trkpt lat="46.55226" lon="5.84668">
        <ele>957.8</ele>
        <time>2021-10-17T16:13:04Z</time>
      </trkpt>
      <trkpt lat="46.55234" lon="5.84667">
        <ele>957.2</ele>
        <time>2021-10-17T16:13:05Z</time>
      </trkpt>
      <trkpt lat="46.55242" lon="5.84666">
        <ele>956.4</ele>
        <time>2021-10-17T16:13:06Z</time>
      </trkpt>
      <trkpt lat="46.5525" lon="5.84663">
        <ele>955.6</ele>
        <time>2021-10-17T16:13:07Z</time>
      </trkpt>
      <trkpt lat="46.55258" lon="5.84657">
        <ele>954.8</ele>
        <time>2021-10-17T16:13:08Z</time>
      </trkpt>
      <trkpt lat="46.55265" lon="5.8465">
        <ele>954.2</ele>
        <time>2021-10-17T16:13:09Z</time>
      </trkpt>
      <trkpt lat="46.55271" lon="5.84639">
        <ele>953.4</ele>
        <time>2021-10-17T16:13:10Z</time>
      </trkpt>
      <trkpt lat="46.55276" lon="5.84627">
        <ele>952.6</ele>
        <time>2021-10-17T16:13:11Z</time>
      </trkpt>
      <trkpt lat="46.55281" lon="5.84615">
        <ele>952</ele>
        <time>2021-10-17T16:13:12Z</time>
      </trkpt>
      <trkpt lat="46.55286" lon="5.84602">
        <ele>951.4</ele>
        <time>2021-10-17T16:13:13Z</time>
      </trkpt>
      <trkpt lat="46.55291" lon="5.8459">
        <ele>950.8</ele>
        <time>2021-10-17T16:13:14Z</time>
      </trkpt>
      <trkpt lat="46.55296" lon="5.84576">
        <ele>950</ele>
        <time>2021-10-17T16:13:15Z</time>
      </trkpt>
      <trkpt lat="46.55301" lon="5.84562">
        <ele>949.2</ele>
        <time>2021-10-17T16:13:16Z</time>
      </trkpt>
      <trkpt lat="46.55306" lon="5.84549">
        <ele>948.6</ele>
        <time>2021-10-17T16:13:17Z</time>
      </trkpt>
      <trkpt lat="46.55311" lon="5.84537">
        <ele>947.8</ele>
        <time>2021-10-17T16:13:18Z</time>
      </trkpt>
      <trkpt lat="46.55317" lon="5.84526">
        <ele>947.2</ele>
        <time>2021-10-17T16:13:19Z</time>
      </trkpt>
      <trkpt lat="46.55323" lon="5.84518">
        <ele>946.4</ele>
        <time>2021-10-17T16:13:20Z</time>
      </trkpt>
      <trkpt lat="46.55329" lon="5.8451">
        <ele>945.8</ele>
        <time>2021-10-17T16:13:21Z</time>
      </trkpt>
      <trkpt lat="46.55336" lon="5.84503">
        <ele>945.2</ele>
        <time>2021-10-17T16:13:22Z</time>
      </trkpt>
      <trkpt lat="46.55343" lon="5.84499">
        <ele>944.6</ele>
        <time>2021-10-17T16:13:23Z</time>
      </trkpt>
      <trkpt lat="46.55351" lon="5.84496">
        <ele>944</ele>
        <time>2021-10-17T16:13:24Z</time>
      </trkpt>
      <trkpt lat="46.55359" lon="5.84494">
        <ele>943.4</ele>
        <time>2021-10-17T16:13:25Z</time>
      </trkpt>
      <trkpt lat="46.55367" lon="5.84494">
        <ele>942.8</ele>
        <time>2021-10-17T16:13:26Z</time>
      </trkpt>
      <trkpt lat="46.55375" lon="5.84495">
        <ele>942.2</ele>
        <time>2021-10-17T16:13:27Z</time>
      </trkpt>
      <trkpt lat="46.55384" lon="5.84498">
        <ele>941.6</ele>
        <time>2021-10-17T16:13:28Z</time>
      </trkpt>
      <trkpt lat="46.55393" lon="5.84501">
        <ele>941</ele>
        <time>2021-10-17T16:13:29Z</time>
      </trkpt>
      <trkpt lat="46.55402" lon="5.84505">
        <ele>940.2</ele>
        <time>2021-10-17T16:13:30Z</time>
      </trkpt>
      <trkpt lat="46.55411" lon="5.8451">
        <ele>939.4</ele>
        <time>2021-10-17T16:13:31Z</time>
      </trkpt>
      <trkpt lat="46.55422" lon="5.84518">
        <ele>938.6</ele>
        <time>2021-10-17T16:13:32Z</time>
      </trkpt>
      <trkpt lat="46.55432" lon="5.84524">
        <ele>938</ele>
        <time>2021-10-17T16:13:33Z</time>
      </trkpt>
      <trkpt lat="46.55443" lon="5.84532">
        <ele>937.4</ele>
        <time>2021-10-17T16:13:34Z</time>
      </trkpt>
      <trkpt lat="46.55453" lon="5.84539">
        <ele>936.8</ele>
        <time>2021-10-17T16:13:35Z</time>
      </trkpt>
      <trkpt lat="46.55463" lon="5.84546">
        <ele>936.2</ele>
        <time>2021-10-17T16:13:36Z</time>
      </trkpt>
      <trkpt lat="46.55473" lon="5.84553">
        <ele>935.6</ele>
        <time>2021-10-17T16:13:37Z</time>
      </trkpt>
      <trkpt lat="46.55483" lon="5.84559">
        <ele>935</ele>
        <time>2021-10-17T16:13:38Z</time>
      </trkpt>
      <trkpt lat="46.55492" lon="5.84565">
        <ele>934.4</ele>
        <time>2021-10-17T16:13:39Z</time>
      </trkpt>
      <trkpt lat="46.55501" lon="5.84569">
        <ele>934</ele>
        <time>2021-10-17T16:13:40Z</time>
      </trkpt>
      <trkpt lat="46.5551" lon="5.84573">
        <ele>933.4</ele>
        <time>2021-10-17T16:13:41Z</time>
      </trkpt>
      <trkpt lat="46.55518" lon="5.84575">
        <ele>932.8</ele>
        <time>2021-10-17T16:13:42Z</time>
      </trkpt>
      <trkpt lat="46.55525" lon="5.84577">
        <ele>932.2</ele>
        <time>2021-10-17T16:13:43Z</time>
      </trkpt>
      <trkpt lat="46.5553" lon="5.84578">
        <ele>931.8</ele>
        <time>2021-10-17T16:13:44Z</time>
      </trkpt>
      <trkpt lat="46.55536" lon="5.84579">
        <ele>931.4</ele>
        <time>2021-10-17T16:13:45Z</time>
      </trkpt>
      <trkpt lat="46.5554" lon="5.84576">
        <ele>930.8</ele>
        <time>2021-10-17T16:13:46Z</time>
      </trkpt>
      <trkpt lat="46.55543" lon="5.84571">
        <ele>930.4</ele>
        <time>2021-10-17T16:13:47Z</time>
      </trkpt>
      <trkpt lat="46.55544" lon="5.84565">
        <ele>929.8</ele>
        <time>2021-10-17T16:13:48Z</time>
      </trkpt>
      <trkpt lat="46.55544" lon="5.84558">
        <ele>929.2</ele>
        <time>2021-10-17T16:13:49Z</time>
      </trkpt>
      <trkpt lat="46.55538" lon="5.84545">
        <ele>928.8</ele>
        <time>2021-10-17T16:13:50Z</time>
      </trkpt>
      <trkpt lat="46.55534" lon="5.8454">
        <ele>928.4</ele>
        <time>2021-10-17T16:13:51Z</time>
      </trkpt>
      <trkpt lat="46.55528" lon="5.84534">
        <ele>928</ele>
        <time>2021-10-17T16:13:52Z</time>
      </trkpt>
      <trkpt lat="46.55522" lon="5.84529">
        <ele>927.6</ele>
        <time>2021-10-17T16:13:53Z</time>
      </trkpt>
      <trkpt lat="46.55517" lon="5.84523">
        <ele>927.2</ele>
        <time>2021-10-17T16:13:54Z</time>
      </trkpt>
      <trkpt lat="46.5551" lon="5.84515">
        <ele>927</ele>
        <time>2021-10-17T16:13:55Z</time>
      </trkpt>
      <trkpt lat="46.55504" lon="5.84507">
        <ele>926.6</ele>
        <time>2021-10-17T16:13:56Z</time>
      </trkpt>
      <trkpt lat="46.55498" lon="5.84498">
        <ele>926.2</ele>
        <time>2021-10-17T16:13:57Z</time>
      </trkpt>
      <trkpt lat="46.55492" lon="5.84489">
        <ele>925.8</ele>
        <time>2021-10-17T16:13:58Z</time>
      </trkpt>
      <trkpt lat="46.55485" lon="5.8448">
        <ele>925.4</ele>
        <time>2021-10-17T16:13:59Z</time>
      </trkpt>
      <trkpt lat="46.55478" lon="5.8447">
        <ele>924.8</ele>
        <time>2021-10-17T16:14:00Z</time>
      </trkpt>
      <trkpt lat="46.55471" lon="5.84461">
        <ele>924.4</ele>
        <time>2021-10-17T16:14:01Z</time>
      </trkpt>
      <trkpt lat="46.55464" lon="5.84451">
        <ele>923.8</ele>
        <time>2021-10-17T16:14:02Z</time>
      </trkpt>
      <trkpt lat="46.55457" lon="5.84443">
        <ele>923.2</ele>
        <time>2021-10-17T16:14:03Z</time>
      </trkpt>
      <trkpt lat="46.5545" lon="5.84434">
        <ele>922.8</ele>
        <time>2021-10-17T16:14:04Z</time>
      </trkpt>
      <trkpt lat="46.55442" lon="5.84426">
        <ele>922.2</ele>
        <time>2021-10-17T16:14:05Z</time>
      </trkpt>
      <trkpt lat="46.55434" lon="5.8442">
        <ele>921.8</ele>
        <time>2021-10-17T16:14:06Z</time>
      </trkpt>
      <trkpt lat="46.55427" lon="5.84414">
        <ele>921.2</ele>
        <time>2021-10-17T16:14:07Z</time>
      </trkpt>
      <trkpt lat="46.55421" lon="5.84407">
        <ele>920.6</ele>
        <time>2021-10-17T16:14:08Z</time>
      </trkpt>
      <trkpt lat="46.55415" lon="5.844">
        <ele>920.2</ele>
        <time>2021-10-17T16:14:09Z</time>
      </trkpt>
      <trkpt lat="46.5541" lon="5.84392">
        <ele>919.6</ele>
        <time>2021-10-17T16:14:10Z</time>
      </trkpt>
      <trkpt lat="46.55407" lon="5.84382">
        <ele>919</ele>
        <time>2021-10-17T16:14:11Z</time>
      </trkpt>
      <trkpt lat="46.55405" lon="5.84372">
        <ele>918.4</ele>
        <time>2021-10-17T16:14:12Z</time>
      </trkpt>
      <trkpt lat="46.55404" lon="5.84363">
        <ele>918</ele>
        <time>2021-10-17T16:14:13Z</time>
      </trkpt>
      <trkpt lat="46.55403" lon="5.84353">
        <ele>917.6</ele>
        <time>2021-10-17T16:14:14Z</time>
      </trkpt>
      <trkpt lat="46.55404" lon="5.84343">
        <ele>917</ele>
        <time>2021-10-17T16:14:15Z</time>
      </trkpt>
      <trkpt lat="46.55405" lon="5.84333">
        <ele>916.4</ele>
        <time>2021-10-17T16:14:16Z</time>
      </trkpt>
      <trkpt lat="46.55408" lon="5.84323">
        <ele>916</ele>
        <time>2021-10-17T16:14:17Z</time>
      </trkpt>
      <trkpt lat="46.55413" lon="5.84313">
        <ele>915.4</ele>
        <time>2021-10-17T16:14:18Z</time>
      </trkpt>
      <trkpt lat="46.5542" lon="5.84304">
        <ele>915</ele>
        <time>2021-10-17T16:14:19Z</time>
      </trkpt>
      <trkpt lat="46.55427" lon="5.84297">
        <ele>914.6</ele>
        <time>2021-10-17T16:14:20Z</time>
      </trkpt>
      <trkpt lat="46.55435" lon="5.84289">
        <ele>914</ele>
        <time>2021-10-17T16:14:21Z</time>
      </trkpt>
      <trkpt lat="46.55444" lon="5.84282">
        <ele>913.4</ele>
        <time>2021-10-17T16:14:22Z</time>
      </trkpt>
      <trkpt lat="46.55453" lon="5.84275">
        <ele>912.8</ele>
        <time>2021-10-17T16:14:23Z</time>
      </trkpt>
      <trkpt lat="46.55462" lon="5.84269">
        <ele>912.4</ele>
        <time>2021-10-17T16:14:24Z</time>
      </trkpt>
      <trkpt lat="46.55471" lon="5.84262">
        <ele>911.8</ele>
        <time>2021-10-17T16:14:25Z</time>
      </trkpt>
      <trkpt lat="46.5548" lon="5.84255">
        <ele>911.2</ele>
        <time>2021-10-17T16:14:26Z</time>
      </trkpt>
      <trkpt lat="46.55489" lon="5.84248">
        <ele>910.6</ele>
        <time>2021-10-17T16:14:27Z</time>
      </trkpt>
      <trkpt lat="46.55498" lon="5.8424">
        <ele>910</ele>
        <time>2021-10-17T16:14:28Z</time>
      </trkpt>
      <trkpt lat="46.55507" lon="5.84232">
        <ele>909.4</ele>
        <time>2021-10-17T16:14:29Z</time>
      </trkpt>
      <trkpt lat="46.55516" lon="5.84224">
        <ele>909</ele>
        <time>2021-10-17T16:14:30Z</time>
      </trkpt>
      <trkpt lat="46.55526" lon="5.84216">
        <ele>908.2</ele>
        <time>2021-10-17T16:14:31Z</time>
      </trkpt>
      <trkpt lat="46.55535" lon="5.84208">
        <ele>907.6</ele>
        <time>2021-10-17T16:14:32Z</time>
      </trkpt>
      <trkpt lat="46.55545" lon="5.84199">
        <ele>907</ele>
        <time>2021-10-17T16:14:33Z</time>
      </trkpt>
      <trkpt lat="46.55555" lon="5.84192">
        <ele>906.4</ele>
        <time>2021-10-17T16:14:34Z</time>
      </trkpt>
      <trkpt lat="46.55564" lon="5.84184">
        <ele>905.6</ele>
        <time>2021-10-17T16:14:35Z</time>
      </trkpt>
      <trkpt lat="46.55573" lon="5.84177">
        <ele>905</ele>
        <time>2021-10-17T16:14:36Z</time>
      </trkpt>
      <trkpt lat="46.55582" lon="5.84172">
        <ele>904.6</ele>
        <time>2021-10-17T16:14:37Z</time>
      </trkpt>
      <trkpt lat="46.55591" lon="5.84167">
        <ele>903.8</ele>
        <time>2021-10-17T16:14:38Z</time>
      </trkpt>
      <trkpt lat="46.556" lon="5.84163">
        <ele>903.2</ele>
        <time>2021-10-17T16:14:39Z</time>
      </trkpt>
      <trkpt lat="46.55609" lon="5.84158">
        <ele>902.4</ele>
        <time>2021-10-17T16:14:40Z</time>
      </trkpt>
      <trkpt lat="46.55616" lon="5.84157">
        <ele>901.6</ele>
        <time>2021-10-17T16:14:41Z</time>
      </trkpt>
      <trkpt lat="46.55622" lon="5.84156">
        <ele>900.8</ele>
        <time>2021-10-17T16:14:42Z</time>
      </trkpt>
      <trkpt lat="46.55636" lon="5.84153">
        <ele>899.8</ele>
        <time>2021-10-17T16:14:43Z</time>
      </trkpt>
      <trkpt lat="46.55644" lon="5.84153">
        <ele>899</ele>
        <time>2021-10-17T16:14:44Z</time>
      </trkpt>
      <trkpt lat="46.55652" lon="5.84155">
        <ele>898.4</ele>
        <time>2021-10-17T16:14:45Z</time>
      </trkpt>
      <trkpt lat="46.55661" lon="5.84159">
        <ele>897.4</ele>
        <time>2021-10-17T16:14:46Z</time>
      </trkpt>
      <trkpt lat="46.55669" lon="5.84164">
        <ele>896.4</ele>
        <time>2021-10-17T16:14:47Z</time>
      </trkpt>
      <trkpt lat="46.55678" lon="5.84169">
        <ele>895.4</ele>
        <time>2021-10-17T16:14:48Z</time>
      </trkpt>
      <trkpt lat="46.55687" lon="5.84175">
        <ele>894.6</ele>
        <time>2021-10-17T16:14:49Z</time>
      </trkpt>
      <trkpt lat="46.55695" lon="5.8418">
        <ele>893.8</ele>
        <time>2021-10-17T16:14:50Z</time>
      </trkpt>
      <trkpt lat="46.55704" lon="5.84185">
        <ele>892.8</ele>
        <time>2021-10-17T16:14:51Z</time>
      </trkpt>
      <trkpt lat="46.55714" lon="5.84191">
        <ele>891.6</ele>
        <time>2021-10-17T16:14:52Z</time>
      </trkpt>
      <trkpt lat="46.55724" lon="5.84197">
        <ele>890.6</ele>
        <time>2021-10-17T16:14:53Z</time>
      </trkpt>
      <trkpt lat="46.55733" lon="5.84202">
        <ele>889.6</ele>
        <time>2021-10-17T16:14:54Z</time>
      </trkpt>
      <trkpt lat="46.55743" lon="5.84206">
        <ele>888.8</ele>
        <time>2021-10-17T16:14:55Z</time>
      </trkpt>
      <trkpt lat="46.55753" lon="5.84209">
        <ele>887.8</ele>
        <time>2021-10-17T16:14:56Z</time>
      </trkpt>
      <trkpt lat="46.55762" lon="5.84212">
        <ele>886.8</ele>
        <time>2021-10-17T16:14:57Z</time>
      </trkpt>
      <trkpt lat="46.55772" lon="5.84215">
        <ele>885.8</ele>
        <time>2021-10-17T16:14:58Z</time>
      </trkpt>
      <trkpt lat="46.55781" lon="5.84218">
        <ele>884.8</ele>
        <time>2021-10-17T16:14:59Z</time>
      </trkpt>
      <trkpt lat="46.55791" lon="5.84221">
        <ele>884.2</ele>
        <time>2021-10-17T16:15:00Z</time>
      </trkpt>
      <trkpt lat="46.558" lon="5.84224">
        <ele>883.4</ele>
        <time>2021-10-17T16:15:01Z</time>
      </trkpt>
      <trkpt lat="46.55809" lon="5.84228">
        <ele>882.8</ele>
        <time>2021-10-17T16:15:02Z</time>
      </trkpt>
      <trkpt lat="46.55818" lon="5.84233">
        <ele>882</ele>
        <time>2021-10-17T16:15:03Z</time>
      </trkpt>
      <trkpt lat="46.55826" lon="5.84238">
        <ele>881.4</ele>
        <time>2021-10-17T16:15:04Z</time>
      </trkpt>
      <trkpt lat="46.55834" lon="5.84244">
        <ele>880.6</ele>
        <time>2021-10-17T16:15:05Z</time>
      </trkpt>
      <trkpt lat="46.55842" lon="5.8425">
        <ele>879.8</ele>
        <time>2021-10-17T16:15:06Z</time>
      </trkpt>
      <trkpt lat="46.55849" lon="5.84258">
        <ele>879</ele>
        <time>2021-10-17T16:15:07Z</time>
      </trkpt>
      <trkpt lat="46.55855" lon="5.84266">
        <ele>878.4</ele>
        <time>2021-10-17T16:15:08Z</time>
      </trkpt>
      <trkpt lat="46.55861" lon="5.84273">
        <ele>877.6</ele>
        <time>2021-10-17T16:15:09Z</time>
      </trkpt>
      <trkpt lat="46.55867" lon="5.8428">
        <ele>876.6</ele>
        <time>2021-10-17T16:15:10Z</time>
      </trkpt>
      <trkpt lat="46.55875" lon="5.84287">
        <ele>875.8</ele>
        <time>2021-10-17T16:15:11Z</time>
      </trkpt>
      <trkpt lat="46.55884" lon="5.84294">
        <ele>875</ele>
        <time>2021-10-17T16:15:12Z</time>
      </trkpt>
      <trkpt lat="46.55894" lon="5.843">
        <ele>874.4</ele>
        <time>2021-10-17T16:15:13Z</time>
      </trkpt>
      <trkpt lat="46.55905" lon="5.84305">
        <ele>873.6</ele>
        <time>2021-10-17T16:15:14Z</time>
      </trkpt>
      <trkpt lat="46.55917" lon="5.84309">
        <ele>873.2</ele>
        <time>2021-10-17T16:15:15Z</time>
      </trkpt>
      <trkpt lat="46.5593" lon="5.84312">
        <ele>872.4</ele>
        <time>2021-10-17T16:15:16Z</time>
      </trkpt>
      <trkpt lat="46.55942" lon="5.84318">
        <ele>871.8</ele>
        <time>2021-10-17T16:15:17Z</time>
      </trkpt>
      <trkpt lat="46.55955" lon="5.84322">
        <ele>871</ele>
        <time>2021-10-17T16:15:18Z</time>
      </trkpt>
      <trkpt lat="46.55967" lon="5.84327">
        <ele>870.2</ele>
        <time>2021-10-17T16:15:19Z</time>
      </trkpt>
      <trkpt lat="46.55977" lon="5.84326">
        <ele>869.6</ele>
        <time>2021-10-17T16:15:20Z</time>
      </trkpt>
      <trkpt lat="46.55989" lon="5.84325">
        <ele>868.6</ele>
        <time>2021-10-17T16:15:21Z</time>
      </trkpt>
      <trkpt lat="46.56001" lon="5.84323">
        <ele>867.8</ele>
        <time>2021-10-17T16:15:22Z</time>
      </trkpt>
      <trkpt lat="46.56014" lon="5.8432">
        <ele>867</ele>
        <time>2021-10-17T16:15:23Z</time>
      </trkpt>
      <trkpt lat="46.56027" lon="5.84317">
        <ele>866.2</ele>
        <time>2021-10-17T16:15:24Z</time>
      </trkpt>
      <trkpt lat="46.56038" lon="5.84313">
        <ele>865.2</ele>
        <time>2021-10-17T16:15:25Z</time>
      </trkpt>
      <trkpt lat="46.56049" lon="5.84307">
        <ele>864.4</ele>
        <time>2021-10-17T16:15:26Z</time>
      </trkpt>
      <trkpt lat="46.56061" lon="5.843">
        <ele>863.6</ele>
        <time>2021-10-17T16:15:27Z</time>
      </trkpt>
      <trkpt lat="46.56073" lon="5.84291">
        <ele>863</ele>
        <time>2021-10-17T16:15:28Z</time>
      </trkpt>
      <trkpt lat="46.56083" lon="5.84285">
        <ele>862.2</ele>
        <time>2021-10-17T16:15:29Z</time>
      </trkpt>
      <trkpt lat="46.56093" lon="5.84278">
        <ele>861.8</ele>
        <time>2021-10-17T16:15:30Z</time>
      </trkpt>
      <trkpt lat="46.56102" lon="5.84273">
        <ele>861</ele>
        <time>2021-10-17T16:15:31Z</time>
      </trkpt>
      <trkpt lat="46.5611" lon="5.84269">
        <ele>860.4</ele>
        <time>2021-10-17T16:15:32Z</time>
      </trkpt>
      <trkpt lat="46.56118" lon="5.84264">
        <ele>860</ele>
        <time>2021-10-17T16:15:33Z</time>
      </trkpt>
      <trkpt lat="46.56125" lon="5.8426">
        <ele>859.4</ele>
        <time>2021-10-17T16:15:34Z</time>
      </trkpt>
      <trkpt lat="46.56133" lon="5.84254">
        <ele>858.8</ele>
        <time>2021-10-17T16:15:35Z</time>
      </trkpt>
      <trkpt lat="46.56138" lon="5.84246">
        <ele>858.4</ele>
        <time>2021-10-17T16:15:36Z</time>
      </trkpt>
      <trkpt lat="46.56143" lon="5.84238">
        <ele>857.8</ele>
        <time>2021-10-17T16:15:37Z</time>
      </trkpt>
      <trkpt lat="46.56147" lon="5.84229">
        <ele>857.4</ele>
        <time>2021-10-17T16:15:38Z</time>
      </trkpt>
      <trkpt lat="46.5615" lon="5.84219">
        <ele>857</ele>
        <time>2021-10-17T16:15:39Z</time>
      </trkpt>
      <trkpt lat="46.5615" lon="5.84208">
        <ele>856.6</ele>
        <time>2021-10-17T16:15:40Z</time>
      </trkpt>
      <trkpt lat="46.56149" lon="5.84198">
        <ele>856.4</ele>
        <time>2021-10-17T16:15:41Z</time>
      </trkpt>
      <trkpt lat="46.56146" lon="5.84189">
        <ele>856</ele>
        <time>2021-10-17T16:15:42Z</time>
      </trkpt>
      <trkpt lat="46.56143" lon="5.84181">
        <ele>856</ele>
        <time>2021-10-17T16:15:43Z</time>
      </trkpt>
      <trkpt lat="46.56137" lon="5.84174">
        <ele>855.6</ele>
        <time>2021-10-17T16:15:44Z</time>
      </trkpt>
      <trkpt lat="46.56132" lon="5.84167">
        <ele>855.4</ele>
        <time>2021-10-17T16:15:45Z</time>
      </trkpt>
      <trkpt lat="46.56126" lon="5.84161">
        <ele>855.4</ele>
        <time>2021-10-17T16:15:46Z</time>
      </trkpt>
      <trkpt lat="46.5612" lon="5.84155">
        <ele>855</ele>
        <time>2021-10-17T16:15:47Z</time>
      </trkpt>
      <trkpt lat="46.56114" lon="5.84149">
        <ele>854.8</ele>
        <time>2021-10-17T16:15:48Z</time>
      </trkpt>
      <trkpt lat="46.56108" lon="5.84142">
        <ele>854.8</ele>
        <time>2021-10-17T16:15:49Z</time>
      </trkpt>
      <trkpt lat="46.56102" lon="5.84136">
        <ele>854.2</ele>
        <time>2021-10-17T16:15:50Z</time>
      </trkpt>
      <trkpt lat="46.56096" lon="5.8413">
        <ele>854.2</ele>
        <time>2021-10-17T16:15:51Z</time>
      </trkpt>
      <trkpt lat="46.56089" lon="5.84123">
        <ele>853.8</ele>
        <time>2021-10-17T16:15:52Z</time>
      </trkpt>
      <trkpt lat="46.56083" lon="5.84116">
        <ele>853.8</ele>
        <time>2021-10-17T16:15:53Z</time>
      </trkpt>
      <trkpt lat="46.56076" lon="5.84108">
        <ele>853.4</ele>
        <time>2021-10-17T16:15:54Z</time>
      </trkpt>
      <trkpt lat="46.56068" lon="5.84101">
        <ele>853.2</ele>
        <time>2021-10-17T16:15:55Z</time>
      </trkpt>
      <trkpt lat="46.5606" lon="5.84094">
        <ele>853</ele>
        <time>2021-10-17T16:15:56Z</time>
      </trkpt>
      <trkpt lat="46.56053" lon="5.84087">
        <ele>852.8</ele>
        <time>2021-10-17T16:15:57Z</time>
      </trkpt>
      <trkpt lat="46.56045" lon="5.84079">
        <ele>852.6</ele>
        <time>2021-10-17T16:15:58Z</time>
      </trkpt>
      <trkpt lat="46.56038" lon="5.84072">
        <ele>852.4</ele>
        <time>2021-10-17T16:15:59Z</time>
      </trkpt>
      <trkpt lat="46.56031" lon="5.84064">
        <ele>852</ele>
        <time>2021-10-17T16:16:00Z</time>
      </trkpt>
      <trkpt lat="46.56023" lon="5.84057">
        <ele>851.8</ele>
        <time>2021-10-17T16:16:01Z</time>
      </trkpt>
      <trkpt lat="46.56016" lon="5.84049">
        <ele>851.6</ele>
        <time>2021-10-17T16:16:02Z</time>
      </trkpt>
      <trkpt lat="46.56008" lon="5.84042">
        <ele>851.4</ele>
        <time>2021-10-17T16:16:03Z</time>
      </trkpt>
      <trkpt lat="46.56001" lon="5.84034">
        <ele>851</ele>
        <time>2021-10-17T16:16:04Z</time>
      </trkpt>
      <trkpt lat="46.55993" lon="5.84026">
        <ele>850.8</ele>
        <time>2021-10-17T16:16:05Z</time>
      </trkpt>
      <trkpt lat="46.55986" lon="5.84019">
        <ele>850.6</ele>
        <time>2021-10-17T16:16:06Z</time>
      </trkpt>
      <trkpt lat="46.55978" lon="5.84012">
        <ele>850.6</ele>
        <time>2021-10-17T16:16:07Z</time>
      </trkpt>
      <trkpt lat="46.55971" lon="5.84004">
        <ele>850</ele>
        <time>2021-10-17T16:16:08Z</time>
      </trkpt>
      <trkpt lat="46.55964" lon="5.83998">
        <ele>849.8</ele>
        <time>2021-10-17T16:16:09Z</time>
      </trkpt>
      <trkpt lat="46.55957" lon="5.83991">
        <ele>849.6</ele>
        <time>2021-10-17T16:16:10Z</time>
      </trkpt>
      <trkpt lat="46.55949" lon="5.83984">
        <ele>849.2</ele>
        <time>2021-10-17T16:16:11Z</time>
      </trkpt>
      <trkpt lat="46.5594" lon="5.83979">
        <ele>849</ele>
        <time>2021-10-17T16:16:12Z</time>
      </trkpt>
      <trkpt lat="46.55931" lon="5.83974">
        <ele>848.6</ele>
        <time>2021-10-17T16:16:13Z</time>
      </trkpt>
      <trkpt lat="46.55923" lon="5.83975">
        <ele>848.2</ele>
        <time>2021-10-17T16:16:14Z</time>
      </trkpt>
      <trkpt lat="46.55913" lon="5.83973">
        <ele>847.8</ele>
        <time>2021-10-17T16:16:15Z</time>
      </trkpt>
      <trkpt lat="46.55902" lon="5.83972">
        <ele>847.4</ele>
        <time>2021-10-17T16:16:16Z</time>
      </trkpt>
      <trkpt lat="46.55893" lon="5.83972">
        <ele>847.2</ele>
        <time>2021-10-17T16:16:17Z</time>
      </trkpt>
      <trkpt lat="46.55885" lon="5.83973">
        <ele>846.8</ele>
        <time>2021-10-17T16:16:19Z</time>
      </trkpt>
      <trkpt lat="46.55876" lon="5.83973">
        <ele>846.6</ele>
        <time>2021-10-17T16:16:20Z</time>
      </trkpt>
      <trkpt lat="46.55867" lon="5.83973">
        <ele>846.4</ele>
        <time>2021-10-17T16:16:21Z</time>
      </trkpt>
      <trkpt lat="46.55859" lon="5.83973">
        <ele>846</ele>
        <time>2021-10-17T16:16:22Z</time>
      </trkpt>
      <trkpt lat="46.5585" lon="5.83974">
        <ele>845.8</ele>
        <time>2021-10-17T16:16:23Z</time>
      </trkpt>
      <trkpt lat="46.55841" lon="5.83974">
        <ele>845.6</ele>
        <time>2021-10-17T16:16:24Z</time>
      </trkpt>
      <trkpt lat="46.55833" lon="5.83975">
        <ele>845.2</ele>
        <time>2021-10-17T16:16:25Z</time>
      </trkpt>
      <trkpt lat="46.55823" lon="5.83975">
        <ele>845</ele>
        <time>2021-10-17T16:16:26Z</time>
      </trkpt>
      <trkpt lat="46.55814" lon="5.83977">
        <ele>844.6</ele>
        <time>2021-10-17T16:16:27Z</time>
      </trkpt>
      <trkpt lat="46.55805" lon="5.83978">
        <ele>844.4</ele>
        <time>2021-10-17T16:16:28Z</time>
      </trkpt>
      <trkpt lat="46.55796" lon="5.83978">
        <ele>844</ele>
        <time>2021-10-17T16:16:29Z</time>
      </trkpt>
      <trkpt lat="46.55787" lon="5.83978">
        <ele>843.8</ele>
        <time>2021-10-17T16:16:30Z</time>
      </trkpt>
      <trkpt lat="46.55778" lon="5.83978">
        <ele>843.8</ele>
        <time>2021-10-17T16:16:31Z</time>
      </trkpt>
      <trkpt lat="46.55769" lon="5.83978">
        <ele>843.4</ele>
        <time>2021-10-17T16:16:32Z</time>
      </trkpt>
      <trkpt lat="46.55759" lon="5.83976">
        <ele>843</ele>
        <time>2021-10-17T16:16:33Z</time>
      </trkpt>
      <trkpt lat="46.55751" lon="5.83972">
        <ele>842.8</ele>
        <time>2021-10-17T16:16:34Z</time>
      </trkpt>
      <trkpt lat="46.55742" lon="5.83968">
        <ele>842.6</ele>
        <time>2021-10-17T16:16:35Z</time>
      </trkpt>
      <trkpt lat="46.55735" lon="5.83964">
        <ele>842.2</ele>
        <time>2021-10-17T16:16:36Z</time>
      </trkpt>
      <trkpt lat="46.55728" lon="5.83959">
        <ele>841.8</ele>
        <time>2021-10-17T16:16:37Z</time>
      </trkpt>
      <trkpt lat="46.55722" lon="5.83952">
        <ele>841.6</ele>
        <time>2021-10-17T16:16:38Z</time>
      </trkpt>
      <trkpt lat="46.55715" lon="5.83944">
        <ele>841.2</ele>
        <time>2021-10-17T16:16:39Z</time>
      </trkpt>
      <trkpt lat="46.55709" lon="5.83935">
        <ele>841</ele>
        <time>2021-10-17T16:16:40Z</time>
      </trkpt>
      <trkpt lat="46.55703" lon="5.83927">
        <ele>840.4</ele>
        <time>2021-10-17T16:16:41Z</time>
      </trkpt>
      <trkpt lat="46.55699" lon="5.83919">
        <ele>840.2</ele>
        <time>2021-10-17T16:16:42Z</time>
      </trkpt>
      <trkpt lat="46.55696" lon="5.8391">
        <ele>840</ele>
        <time>2021-10-17T16:16:43Z</time>
      </trkpt>
      <trkpt lat="46.55694" lon="5.839">
        <ele>839.8</ele>
        <time>2021-10-17T16:16:44Z</time>
      </trkpt>
      <trkpt lat="46.55694" lon="5.8389">
        <ele>839.4</ele>
        <time>2021-10-17T16:16:45Z</time>
      </trkpt>
      <trkpt lat="46.55695" lon="5.8388">
        <ele>839.2</ele>
        <time>2021-10-17T16:16:46Z</time>
      </trkpt>
      <trkpt lat="46.55697" lon="5.8387">
        <ele>839.2</ele>
        <time>2021-10-17T16:16:47Z</time>
      </trkpt>
      <trkpt lat="46.557" lon="5.8386">
        <ele>839</ele>
        <time>2021-10-17T16:16:48Z</time>
      </trkpt>
      <trkpt lat="46.55704" lon="5.83851">
        <ele>839</ele>
        <time>2021-10-17T16:16:49Z</time>
      </trkpt>
      <trkpt lat="46.55708" lon="5.83842">
        <ele>838.6</ele>
        <time>2021-10-17T16:16:50Z</time>
      </trkpt>
      <trkpt lat="46.55713" lon="5.83834">
        <ele>838.6</ele>
        <time>2021-10-17T16:16:51Z</time>
      </trkpt>
      <trkpt lat="46.55718" lon="5.83826">
        <ele>838.2</ele>
        <time>2021-10-17T16:16:52Z</time>
      </trkpt>
      <trkpt lat="46.55724" lon="5.83818">
        <ele>838</ele>
        <time>2021-10-17T16:16:53Z</time>
      </trkpt>
      <trkpt lat="46.5573" lon="5.83811">
        <ele>838</ele>
        <time>2021-10-17T16:16:54Z</time>
      </trkpt>
      <trkpt lat="46.55736" lon="5.83804">
        <ele>837.6</ele>
        <time>2021-10-17T16:16:55Z</time>
      </trkpt>
      <trkpt lat="46.55742" lon="5.83797">
        <ele>837.6</ele>
        <time>2021-10-17T16:16:56Z</time>
      </trkpt>
      <trkpt lat="46.55749" lon="5.8379">
        <ele>837</ele>
        <time>2021-10-17T16:16:57Z</time>
      </trkpt>
      <trkpt lat="46.55755" lon="5.83782">
        <ele>836.8</ele>
        <time>2021-10-17T16:16:58Z</time>
      </trkpt>
      <trkpt lat="46.55761" lon="5.83775">
        <ele>836.6</ele>
        <time>2021-10-17T16:16:59Z</time>
      </trkpt>
      <trkpt lat="46.55768" lon="5.83767">
        <ele>836.2</ele>
        <time>2021-10-17T16:17:00Z</time>
      </trkpt>
      <trkpt lat="46.55775" lon="5.8376">
        <ele>836</ele>
        <time>2021-10-17T16:17:01Z</time>
      </trkpt>
      <trkpt lat="46.55782" lon="5.83753">
        <ele>835.6</ele>
        <time>2021-10-17T16:17:02Z</time>
      </trkpt>
      <trkpt lat="46.55789" lon="5.83745">
        <ele>835.4</ele>
        <time>2021-10-17T16:17:03Z</time>
      </trkpt>
      <trkpt lat="46.55795" lon="5.83737">
        <ele>835</ele>
        <time>2021-10-17T16:17:04Z</time>
      </trkpt>
      <trkpt lat="46.55802" lon="5.83729">
        <ele>834.8</ele>
        <time>2021-10-17T16:17:05Z</time>
      </trkpt>
      <trkpt lat="46.55809" lon="5.83722">
        <ele>834.6</ele>
        <time>2021-10-17T16:17:06Z</time>
      </trkpt>
      <trkpt lat="46.55816" lon="5.83715">
        <ele>834.2</ele>
        <time>2021-10-17T16:17:07Z</time>
      </trkpt>
      <trkpt lat="46.55823" lon="5.83708">
        <ele>834</ele>
        <time>2021-10-17T16:17:08Z</time>
      </trkpt>
      <trkpt lat="46.5583" lon="5.83702">
        <ele>833.8</ele>
        <time>2021-10-17T16:17:09Z</time>
      </trkpt>
      <trkpt lat="46.55838" lon="5.83697">
        <ele>833.4</ele>
        <time>2021-10-17T16:17:10Z</time>
      </trkpt>
      <trkpt lat="46.55845" lon="5.83692">
        <ele>833.2</ele>
        <time>2021-10-17T16:17:11Z</time>
      </trkpt>
      <trkpt lat="46.55854" lon="5.83689">
        <ele>832.8</ele>
        <time>2021-10-17T16:17:12Z</time>
      </trkpt>
      <trkpt lat="46.55862" lon="5.83687">
        <ele>832.6</ele>
        <time>2021-10-17T16:17:13Z</time>
      </trkpt>
      <trkpt lat="46.5587" lon="5.83685">
        <ele>832.2</ele>
        <time>2021-10-17T16:17:14Z</time>
      </trkpt>
      <trkpt lat="46.55878" lon="5.83685">
        <ele>832</ele>
        <time>2021-10-17T16:17:15Z</time>
      </trkpt>
      <trkpt lat="46.55886" lon="5.83685">
        <ele>831.6</ele>
        <time>2021-10-17T16:17:16Z</time>
      </trkpt>
      <trkpt lat="46.55895" lon="5.83686">
        <ele>831.2</ele>
        <time>2021-10-17T16:17:17Z</time>
      </trkpt>
      <trkpt lat="46.55903" lon="5.83686">
        <ele>830.8</ele>
        <time>2021-10-17T16:17:18Z</time>
      </trkpt>
      <trkpt lat="46.55912" lon="5.83687">
        <ele>830.4</ele>
        <time>2021-10-17T16:17:19Z</time>
      </trkpt>
      <trkpt lat="46.55921" lon="5.83687">
        <ele>830</ele>
        <time>2021-10-17T16:17:20Z</time>
      </trkpt>
      <trkpt lat="46.5593" lon="5.83687">
        <ele>829.6</ele>
        <time>2021-10-17T16:17:21Z</time>
      </trkpt>
      <trkpt lat="46.5594" lon="5.83689">
        <ele>829.4</ele>
        <time>2021-10-17T16:17:22Z</time>
      </trkpt>
      <trkpt lat="46.55949" lon="5.83691">
        <ele>829</ele>
        <time>2021-10-17T16:17:23Z</time>
      </trkpt>
      <trkpt lat="46.55958" lon="5.83691">
        <ele>828.6</ele>
        <time>2021-10-17T16:17:24Z</time>
      </trkpt>
      <trkpt lat="46.55966" lon="5.8369">
        <ele>828.2</ele>
        <time>2021-10-17T16:17:25Z</time>
      </trkpt>
      <trkpt lat="46.55976" lon="5.83688">
        <ele>827.8</ele>
        <time>2021-10-17T16:17:26Z</time>
      </trkpt>
      <trkpt lat="46.55984" lon="5.83685">
        <ele>827.4</ele>
        <time>2021-10-17T16:17:27Z</time>
      </trkpt>
      <trkpt lat="46.55994" lon="5.83682">
        <ele>827</ele>
        <time>2021-10-17T16:17:28Z</time>
      </trkpt>
      <trkpt lat="46.56003" lon="5.83677">
        <ele>826.6</ele>
        <time>2021-10-17T16:17:29Z</time>
      </trkpt>
      <trkpt lat="46.56012" lon="5.8367">
        <ele>826.2</ele>
        <time>2021-10-17T16:17:30Z</time>
      </trkpt>
      <trkpt lat="46.5602" lon="5.83663">
        <ele>825.8</ele>
        <time>2021-10-17T16:17:31Z</time>
      </trkpt>
      <trkpt lat="46.56028" lon="5.83656">
        <ele>825.6</ele>
        <time>2021-10-17T16:17:32Z</time>
      </trkpt>
      <trkpt lat="46.56037" lon="5.83648">
        <ele>825.2</ele>
        <time>2021-10-17T16:17:33Z</time>
      </trkpt>
      <trkpt lat="46.56053" lon="5.83631">
        <ele>824.6</ele>
        <time>2021-10-17T16:17:34Z</time>
      </trkpt>
      <trkpt lat="46.56061" lon="5.83624">
        <ele>824.4</ele>
        <time>2021-10-17T16:17:35Z</time>
      </trkpt>
      <trkpt lat="46.56068" lon="5.83618">
        <ele>824</ele>
        <time>2021-10-17T16:17:36Z</time>
      </trkpt>
      <trkpt lat="46.56077" lon="5.83613">
        <ele>823.6</ele>
        <time>2021-10-17T16:17:37Z</time>
      </trkpt>
      <trkpt lat="46.56086" lon="5.83611">
        <ele>823.2</ele>
        <time>2021-10-17T16:17:38Z</time>
      </trkpt>
      <trkpt lat="46.56095" lon="5.83611">
        <ele>822.8</ele>
        <time>2021-10-17T16:17:39Z</time>
      </trkpt>
      <trkpt lat="46.56105" lon="5.83613">
        <ele>822.4</ele>
        <time>2021-10-17T16:17:40Z</time>
      </trkpt>
      <trkpt lat="46.56114" lon="5.83617">
        <ele>822</ele>
        <time>2021-10-17T16:17:41Z</time>
      </trkpt>
      <trkpt lat="46.56122" lon="5.83619">
        <ele>821.6</ele>
        <time>2021-10-17T16:17:42Z</time>
      </trkpt>
      <trkpt lat="46.56132" lon="5.83624">
        <ele>821.2</ele>
        <time>2021-10-17T16:17:43Z</time>
      </trkpt>
      <trkpt lat="46.56141" lon="5.83628">
        <ele>820.8</ele>
        <time>2021-10-17T16:17:44Z</time>
      </trkpt>
      <trkpt lat="46.56151" lon="5.83633">
        <ele>820.2</ele>
        <time>2021-10-17T16:17:45Z</time>
      </trkpt>
      <trkpt lat="46.5616" lon="5.83638">
        <ele>819.8</ele>
        <time>2021-10-17T16:17:46Z</time>
      </trkpt>
      <trkpt lat="46.56169" lon="5.83643">
        <ele>819.4</ele>
        <time>2021-10-17T16:17:47Z</time>
      </trkpt>
      <trkpt lat="46.56179" lon="5.83648">
        <ele>819</ele>
        <time>2021-10-17T16:17:48Z</time>
      </trkpt>
      <trkpt lat="46.56188" lon="5.83653">
        <ele>818.6</ele>
        <time>2021-10-17T16:17:49Z</time>
      </trkpt>
      <trkpt lat="46.56198" lon="5.83656">
        <ele>818.2</ele>
        <time>2021-10-17T16:17:50Z</time>
      </trkpt>
      <trkpt lat="46.56208" lon="5.83658">
        <ele>817.8</ele>
        <time>2021-10-17T16:17:51Z</time>
      </trkpt>
      <trkpt lat="46.56218" lon="5.83659">
        <ele>817.4</ele>
        <time>2021-10-17T16:17:52Z</time>
      </trkpt>
      <trkpt lat="46.56228" lon="5.83658">
        <ele>817</ele>
        <time>2021-10-17T16:17:53Z</time>
      </trkpt>
      <trkpt lat="46.56238" lon="5.83657">
        <ele>816.6</ele>
        <time>2021-10-17T16:17:54Z</time>
      </trkpt>
      <trkpt lat="46.56248" lon="5.83653">
        <ele>816.2</ele>
        <time>2021-10-17T16:17:55Z</time>
      </trkpt>
      <trkpt lat="46.56258" lon="5.83649">
        <ele>816</ele>
        <time>2021-10-17T16:17:56Z</time>
      </trkpt>
      <trkpt lat="46.56269" lon="5.83644">
        <ele>815.6</ele>
        <time>2021-10-17T16:17:57Z</time>
      </trkpt>
      <trkpt lat="46.56278" lon="5.83639">
        <ele>815.4</ele>
        <time>2021-10-17T16:17:58Z</time>
      </trkpt>
      <trkpt lat="46.56286" lon="5.83634">
        <ele>815</ele>
        <time>2021-10-17T16:17:59Z</time>
      </trkpt>
      <trkpt lat="46.56296" lon="5.83628">
        <ele>814.8</ele>
        <time>2021-10-17T16:18:00Z</time>
      </trkpt>
      <trkpt lat="46.56305" lon="5.83623">
        <ele>814.6</ele>
        <time>2021-10-17T16:18:01Z</time>
      </trkpt>
      <trkpt lat="46.56314" lon="5.83618">
        <ele>814.4</ele>
        <time>2021-10-17T16:18:02Z</time>
      </trkpt>
      <trkpt lat="46.56323" lon="5.83613">
        <ele>814</ele>
        <time>2021-10-17T16:18:03Z</time>
      </trkpt>
      <trkpt lat="46.56332" lon="5.83609">
        <ele>813.8</ele>
        <time>2021-10-17T16:18:04Z</time>
      </trkpt>
      <trkpt lat="46.5634" lon="5.83604">
        <ele>813.6</ele>
        <time>2021-10-17T16:18:05Z</time>
      </trkpt>
      <trkpt lat="46.56349" lon="5.83599">
        <ele>813.2</ele>
        <time>2021-10-17T16:18:06Z</time>
      </trkpt>
      <trkpt lat="46.56358" lon="5.83593">
        <ele>812.8</ele>
        <time>2021-10-17T16:18:07Z</time>
      </trkpt>
      <trkpt lat="46.56368" lon="5.83588">
        <ele>812.6</ele>
        <time>2021-10-17T16:18:08Z</time>
      </trkpt>
      <trkpt lat="46.56378" lon="5.83582">
        <ele>812.2</ele>
        <time>2021-10-17T16:18:09Z</time>
      </trkpt>
      <trkpt lat="46.56387" lon="5.83576">
        <ele>811.8</ele>
        <time>2021-10-17T16:18:10Z</time>
      </trkpt>
      <trkpt lat="46.56396" lon="5.83571">
        <ele>811.4</ele>
        <time>2021-10-17T16:18:11Z</time>
      </trkpt>
      <trkpt lat="46.56406" lon="5.83565">
        <ele>811</ele>
        <time>2021-10-17T16:18:12Z</time>
      </trkpt>
      <trkpt lat="46.56414" lon="5.83559">
        <ele>810.6</ele>
        <time>2021-10-17T16:18:13Z</time>
      </trkpt>
      <trkpt lat="46.56423" lon="5.83553">
        <ele>810.2</ele>
        <time>2021-10-17T16:18:14Z</time>
      </trkpt>
      <trkpt lat="46.56432" lon="5.83547">
        <ele>809.8</ele>
        <time>2021-10-17T16:18:15Z</time>
      </trkpt>
      <trkpt lat="46.56441" lon="5.8354">
        <ele>809.6</ele>
        <time>2021-10-17T16:18:16Z</time>
      </trkpt>
      <trkpt lat="46.5645" lon="5.83534">
        <ele>809.2</ele>
        <time>2021-10-17T16:18:17Z</time>
      </trkpt>
      <trkpt lat="46.56458" lon="5.83527">
        <ele>808.8</ele>
        <time>2021-10-17T16:18:18Z</time>
      </trkpt>
      <trkpt lat="46.56467" lon="5.8352">
        <ele>808.4</ele>
        <time>2021-10-17T16:18:19Z</time>
      </trkpt>
      <trkpt lat="46.56475" lon="5.83512">
        <ele>808</ele>
        <time>2021-10-17T16:18:20Z</time>
      </trkpt>
      <trkpt lat="46.56483" lon="5.83503">
        <ele>807.6</ele>
        <time>2021-10-17T16:18:21Z</time>
      </trkpt>
      <trkpt lat="46.56491" lon="5.83494">
        <ele>807.2</ele>
        <time>2021-10-17T16:18:22Z</time>
      </trkpt>
      <trkpt lat="46.56499" lon="5.83484">
        <ele>806.8</ele>
        <time>2021-10-17T16:18:23Z</time>
      </trkpt>
      <trkpt lat="46.56507" lon="5.83475">
        <ele>806.4</ele>
        <time>2021-10-17T16:18:24Z</time>
      </trkpt>
      <trkpt lat="46.56515" lon="5.83465">
        <ele>805.8</ele>
        <time>2021-10-17T16:18:25Z</time>
      </trkpt>
      <trkpt lat="46.56523" lon="5.83455">
        <ele>805.4</ele>
        <time>2021-10-17T16:18:26Z</time>
      </trkpt>
      <trkpt lat="46.56531" lon="5.83446">
        <ele>805</ele>
        <time>2021-10-17T16:18:27Z</time>
      </trkpt>
      <trkpt lat="46.56539" lon="5.83436">
        <ele>804.4</ele>
        <time>2021-10-17T16:18:28Z</time>
      </trkpt>
      <trkpt lat="46.56547" lon="5.83427">
        <ele>804</ele>
        <time>2021-10-17T16:18:29Z</time>
      </trkpt>
      <trkpt lat="46.56556" lon="5.83418">
        <ele>803.4</ele>
        <time>2021-10-17T16:18:30Z</time>
      </trkpt>
      <trkpt lat="46.56565" lon="5.8341">
        <ele>803</ele>
        <time>2021-10-17T16:18:31Z</time>
      </trkpt>
      <trkpt lat="46.56574" lon="5.83402">
        <ele>802.6</ele>
        <time>2021-10-17T16:18:32Z</time>
      </trkpt>
      <trkpt lat="46.56583" lon="5.83395">
        <ele>802.4</ele>
        <time>2021-10-17T16:18:33Z</time>
      </trkpt>
      <trkpt lat="46.56592" lon="5.83388">
        <ele>802</ele>
        <time>2021-10-17T16:18:34Z</time>
      </trkpt>
      <trkpt lat="46.56601" lon="5.83382">
        <ele>801.8</ele>
        <time>2021-10-17T16:18:35Z</time>
      </trkpt>
      <trkpt lat="46.5661" lon="5.83374">
        <ele>801.4</ele>
        <time>2021-10-17T16:18:36Z</time>
      </trkpt>
      <trkpt lat="46.56619" lon="5.83367">
        <ele>801.4</ele>
        <time>2021-10-17T16:18:37Z</time>
      </trkpt>
      <trkpt lat="46.56628" lon="5.8336">
        <ele>800.8</ele>
        <time>2021-10-17T16:18:38Z</time>
      </trkpt>
      <trkpt lat="46.56636" lon="5.83354">
        <ele>800.6</ele>
        <time>2021-10-17T16:18:39Z</time>
      </trkpt>
      <trkpt lat="46.56644" lon="5.83347">
        <ele>800.4</ele>
        <time>2021-10-17T16:18:40Z</time>
      </trkpt>
      <trkpt lat="46.56653" lon="5.83339">
        <ele>800</ele>
        <time>2021-10-17T16:18:41Z</time>
      </trkpt>
      <trkpt lat="46.56661" lon="5.83333">
        <ele>799.8</ele>
        <time>2021-10-17T16:18:42Z</time>
      </trkpt>
      <trkpt lat="46.56669" lon="5.83326">
        <ele>799.8</ele>
        <time>2021-10-17T16:18:43Z</time>
      </trkpt>
      <trkpt lat="46.56678" lon="5.8332">
        <ele>799.4</ele>
        <time>2021-10-17T16:18:44Z</time>
      </trkpt>
      <trkpt lat="46.56686" lon="5.83314">
        <ele>799.2</ele>
        <time>2021-10-17T16:18:45Z</time>
      </trkpt>
      <trkpt lat="46.56694" lon="5.83308">
        <ele>798.8</ele>
        <time>2021-10-17T16:18:46Z</time>
      </trkpt>
      <trkpt lat="46.56704" lon="5.83303">
        <ele>798.6</ele>
        <time>2021-10-17T16:18:47Z</time>
      </trkpt>
      <trkpt lat="46.56712" lon="5.83298">
        <ele>798.4</ele>
        <time>2021-10-17T16:18:48Z</time>
      </trkpt>
      <trkpt lat="46.56721" lon="5.83293">
        <ele>798</ele>
        <time>2021-10-17T16:18:49Z</time>
      </trkpt>
      <trkpt lat="46.56729" lon="5.83288">
        <ele>797.8</ele>
        <time>2021-10-17T16:18:50Z</time>
      </trkpt>
      <trkpt lat="46.56738" lon="5.83284">
        <ele>797.4</ele>
        <time>2021-10-17T16:18:51Z</time>
      </trkpt>
      <trkpt lat="46.56746" lon="5.83279">
        <ele>797.2</ele>
        <time>2021-10-17T16:18:52Z</time>
      </trkpt>
      <trkpt lat="46.56755" lon="5.83275">
        <ele>796.8</ele>
        <time>2021-10-17T16:18:53Z</time>
      </trkpt>
      <trkpt lat="46.56764" lon="5.83272">
        <ele>796.6</ele>
        <time>2021-10-17T16:18:54Z</time>
      </trkpt>
      <trkpt lat="46.56774" lon="5.83271">
        <ele>796</ele>
        <time>2021-10-17T16:18:55Z</time>
      </trkpt>
      <trkpt lat="46.56783" lon="5.8327">
        <ele>795.8</ele>
        <time>2021-10-17T16:18:56Z</time>
      </trkpt>
      <trkpt lat="46.56783" lon="5.8327">
        <ele>795.4</ele>
        <time>2021-10-17T16:18:57Z</time>
      </trkpt>
      <trkpt lat="46.56793" lon="5.83268">
        <ele>795</ele>
        <time>2021-10-17T16:18:58Z</time>
      </trkpt>
      <trkpt lat="46.56802" lon="5.83266">
        <ele>794.8</ele>
        <time>2021-10-17T16:18:59Z</time>
      </trkpt>
      <trkpt lat="46.56811" lon="5.83263">
        <ele>794.6</ele>
        <time>2021-10-17T16:19:00Z</time>
      </trkpt>
      <trkpt lat="46.56821" lon="5.83262">
        <ele>794.2</ele>
        <time>2021-10-17T16:19:01Z</time>
      </trkpt>
      <trkpt lat="46.5684" lon="5.8326">
        <ele>794</ele>
        <time>2021-10-17T16:19:02Z</time>
      </trkpt>
      <trkpt lat="46.56849" lon="5.83258">
        <ele>793.6</ele>
        <time>2021-10-17T16:19:03Z</time>
      </trkpt>
      <trkpt lat="46.56858" lon="5.83257">
        <ele>793.2</ele>
        <time>2021-10-17T16:19:04Z</time>
      </trkpt>
      <trkpt lat="46.56866" lon="5.83254">
        <ele>792.8</ele>
        <time>2021-10-17T16:19:05Z</time>
      </trkpt>
      <trkpt lat="46.56876" lon="5.83252">
        <ele>792.4</ele>
        <time>2021-10-17T16:19:06Z</time>
      </trkpt>
      <trkpt lat="46.56886" lon="5.83251">
        <ele>792</ele>
        <time>2021-10-17T16:19:07Z</time>
      </trkpt>
      <trkpt lat="46.56896" lon="5.83247">
        <ele>791.4</ele>
        <time>2021-10-17T16:19:08Z</time>
      </trkpt>
      <trkpt lat="46.56906" lon="5.83242">
        <ele>790.8</ele>
        <time>2021-10-17T16:19:09Z</time>
      </trkpt>
      <trkpt lat="46.56915" lon="5.83235">
        <ele>790.2</ele>
        <time>2021-10-17T16:19:10Z</time>
      </trkpt>
      <trkpt lat="46.56923" lon="5.83229">
        <ele>789.6</ele>
        <time>2021-10-17T16:19:11Z</time>
      </trkpt>
      <trkpt lat="46.56932" lon="5.83224">
        <ele>789</ele>
        <time>2021-10-17T16:19:12Z</time>
      </trkpt>
      <trkpt lat="46.56941" lon="5.83219">
        <ele>788.4</ele>
        <time>2021-10-17T16:19:13Z</time>
      </trkpt>
      <trkpt lat="46.56949" lon="5.83215">
        <ele>787.8</ele>
        <time>2021-10-17T16:19:14Z</time>
      </trkpt>
      <trkpt lat="46.56957" lon="5.83212">
        <ele>787</ele>
        <time>2021-10-17T16:19:15Z</time>
      </trkpt>
      <trkpt lat="46.56965" lon="5.83209">
        <ele>786.4</ele>
        <time>2021-10-17T16:19:16Z</time>
      </trkpt>
      <trkpt lat="46.56972" lon="5.83204">
        <ele>785.6</ele>
        <time>2021-10-17T16:19:17Z</time>
      </trkpt>
      <trkpt lat="46.5698" lon="5.83199">
        <ele>785</ele>
        <time>2021-10-17T16:19:18Z</time>
      </trkpt>
      <trkpt lat="46.56987" lon="5.83191">
        <ele>784.4</ele>
        <time>2021-10-17T16:19:19Z</time>
      </trkpt>
      <trkpt lat="46.56995" lon="5.83183">
        <ele>783.6</ele>
        <time>2021-10-17T16:19:20Z</time>
      </trkpt>
      <trkpt lat="46.57003" lon="5.83174">
        <ele>782.8</ele>
        <time>2021-10-17T16:19:22Z</time>
      </trkpt>
      <trkpt lat="46.5701" lon="5.83163">
        <ele>782</ele>
        <time>2021-10-17T16:19:23Z</time>
      </trkpt>
      <trkpt lat="46.57016" lon="5.83152">
        <ele>781.2</ele>
        <time>2021-10-17T16:19:24Z</time>
      </trkpt>
      <trkpt lat="46.57023" lon="5.8314">
        <ele>780.6</ele>
        <time>2021-10-17T16:19:25Z</time>
      </trkpt>
      <trkpt lat="46.57029" lon="5.83129">
        <ele>780</ele>
        <time>2021-10-17T16:19:26Z</time>
      </trkpt>
      <trkpt lat="46.57035" lon="5.83121">
        <ele>779.4</ele>
        <time>2021-10-17T16:19:27Z</time>
      </trkpt>
      <trkpt lat="46.5704" lon="5.83113">
        <ele>779</ele>
        <time>2021-10-17T16:19:28Z</time>
      </trkpt>
      <trkpt lat="46.57047" lon="5.83107">
        <ele>778.4</ele>
        <time>2021-10-17T16:19:29Z</time>
      </trkpt>
      <trkpt lat="46.57054" lon="5.83102">
        <ele>777.8</ele>
        <time>2021-10-17T16:19:30Z</time>
      </trkpt>
      <trkpt lat="46.57061" lon="5.83099">
        <ele>777.4</ele>
        <time>2021-10-17T16:19:31Z</time>
      </trkpt>
      <trkpt lat="46.57069" lon="5.83098">
        <ele>777</ele>
        <time>2021-10-17T16:19:32Z</time>
      </trkpt>
      <trkpt lat="46.57076" lon="5.83098">
        <ele>776.6</ele>
        <time>2021-10-17T16:19:33Z</time>
      </trkpt>
      <trkpt lat="46.57084" lon="5.83099">
        <ele>776.6</ele>
        <time>2021-10-17T16:19:34Z</time>
      </trkpt>
      <trkpt lat="46.57091" lon="5.83099">
        <ele>776.2</ele>
        <time>2021-10-17T16:19:35Z</time>
      </trkpt>
      <trkpt lat="46.57099" lon="5.83099">
        <ele>776</ele>
        <time>2021-10-17T16:19:36Z</time>
      </trkpt>
      <trkpt lat="46.57107" lon="5.83097">
        <ele>776</ele>
        <time>2021-10-17T16:19:37Z</time>
      </trkpt>
      <trkpt lat="46.57114" lon="5.83094">
        <ele>775.6</ele>
        <time>2021-10-17T16:19:38Z</time>
      </trkpt>
      <trkpt lat="46.57121" lon="5.8309">
        <ele>775.6</ele>
        <time>2021-10-17T16:19:39Z</time>
      </trkpt>
      <trkpt lat="46.57129" lon="5.83087">
        <ele>775.4</ele>
        <time>2021-10-17T16:19:40Z</time>
      </trkpt>
      <trkpt lat="46.57136" lon="5.83082">
        <ele>775.4</ele>
        <time>2021-10-17T16:19:41Z</time>
      </trkpt>
      <trkpt lat="46.57143" lon="5.83078">
        <ele>774.8</ele>
        <time>2021-10-17T16:19:42Z</time>
      </trkpt>
      <trkpt lat="46.5715" lon="5.83072">
        <ele>774.6</ele>
        <time>2021-10-17T16:19:43Z</time>
      </trkpt>
      <trkpt lat="46.57157" lon="5.83066">
        <ele>774.4</ele>
        <time>2021-10-17T16:19:44Z</time>
      </trkpt>
      <trkpt lat="46.57164" lon="5.83059">
        <ele>774</ele>
        <time>2021-10-17T16:19:45Z</time>
      </trkpt>
      <trkpt lat="46.57171" lon="5.83051">
        <ele>773.6</ele>
        <time>2021-10-17T16:19:46Z</time>
      </trkpt>
      <trkpt lat="46.57177" lon="5.83044">
        <ele>773.2</ele>
        <time>2021-10-17T16:19:47Z</time>
      </trkpt>
      <trkpt lat="46.57182" lon="5.83036">
        <ele>772.6</ele>
        <time>2021-10-17T16:19:48Z</time>
      </trkpt>
      <trkpt lat="46.57187" lon="5.83027">
        <ele>772.2</ele>
        <time>2021-10-17T16:19:49Z</time>
      </trkpt>
      <trkpt lat="46.57192" lon="5.83017">
        <ele>771.6</ele>
        <time>2021-10-17T16:19:50Z</time>
      </trkpt>
      <trkpt lat="46.57196" lon="5.83007">
        <ele>771</ele>
        <time>2021-10-17T16:19:51Z</time>
      </trkpt>
      <trkpt lat="46.57199" lon="5.82996">
        <ele>770.4</ele>
        <time>2021-10-17T16:19:52Z</time>
      </trkpt>
      <trkpt lat="46.572" lon="5.82984">
        <ele>769.8</ele>
        <time>2021-10-17T16:19:53Z</time>
      </trkpt>
      <trkpt lat="46.57202" lon="5.82972">
        <ele>769</ele>
        <time>2021-10-17T16:19:54Z</time>
      </trkpt>
      <trkpt lat="46.57203" lon="5.8296">
        <ele>768.4</ele>
        <time>2021-10-17T16:19:55Z</time>
      </trkpt>
      <trkpt lat="46.57204" lon="5.82949">
        <ele>767.8</ele>
        <time>2021-10-17T16:19:56Z</time>
      </trkpt>
      <trkpt lat="46.57205" lon="5.82937">
        <ele>767.2</ele>
        <time>2021-10-17T16:19:57Z</time>
      </trkpt>
      <trkpt lat="46.57206" lon="5.82926">
        <ele>766.6</ele>
        <time>2021-10-17T16:19:58Z</time>
      </trkpt>
      <trkpt lat="46.57206" lon="5.82915">
        <ele>766</ele>
        <time>2021-10-17T16:19:59Z</time>
      </trkpt>
      <trkpt lat="46.57207" lon="5.82905">
        <ele>765.2</ele>
        <time>2021-10-17T16:20:00Z</time>
      </trkpt>
      <trkpt lat="46.57206" lon="5.82893">
        <ele>764.6</ele>
        <time>2021-10-17T16:20:01Z</time>
      </trkpt>
      <trkpt lat="46.57205" lon="5.82881">
        <ele>764.2</ele>
        <time>2021-10-17T16:20:02Z</time>
      </trkpt>
      <trkpt lat="46.57203" lon="5.82869">
        <ele>763.6</ele>
        <time>2021-10-17T16:20:03Z</time>
      </trkpt>
      <trkpt lat="46.57202" lon="5.82858">
        <ele>763</ele>
        <time>2021-10-17T16:20:04Z</time>
      </trkpt>
      <trkpt lat="46.572" lon="5.82846">
        <ele>762.4</ele>
        <time>2021-10-17T16:20:05Z</time>
      </trkpt>
      <trkpt lat="46.572" lon="5.82835">
        <ele>761.8</ele>
        <time>2021-10-17T16:20:06Z</time>
      </trkpt>
      <trkpt lat="46.57201" lon="5.82823">
        <ele>761.2</ele>
        <time>2021-10-17T16:20:07Z</time>
      </trkpt>
      <trkpt lat="46.57203" lon="5.82811">
        <ele>760.4</ele>
        <time>2021-10-17T16:20:08Z</time>
      </trkpt>
      <trkpt lat="46.57207" lon="5.828">
        <ele>760</ele>
        <time>2021-10-17T16:20:09Z</time>
      </trkpt>
      <trkpt lat="46.57211" lon="5.82789">
        <ele>759.4</ele>
        <time>2021-10-17T16:20:10Z</time>
      </trkpt>
      <trkpt lat="46.57216" lon="5.82778">
        <ele>758.8</ele>
        <time>2021-10-17T16:20:11Z</time>
      </trkpt>
      <trkpt lat="46.57219" lon="5.82765">
        <ele>758.4</ele>
        <time>2021-10-17T16:20:12Z</time>
      </trkpt>
      <trkpt lat="46.57221" lon="5.82752">
        <ele>757.6</ele>
        <time>2021-10-17T16:20:13Z</time>
      </trkpt>
      <trkpt lat="46.5722" lon="5.82738">
        <ele>757</ele>
        <time>2021-10-17T16:20:14Z</time>
      </trkpt>
      <trkpt lat="46.5722" lon="5.82722">
        <ele>756.4</ele>
        <time>2021-10-17T16:20:15Z</time>
      </trkpt>
      <trkpt lat="46.57217" lon="5.82708">
        <ele>755.8</ele>
        <time>2021-10-17T16:20:16Z</time>
      </trkpt>
      <trkpt lat="46.57213" lon="5.82693">
        <ele>755</ele>
        <time>2021-10-17T16:20:17Z</time>
      </trkpt>
      <trkpt lat="46.5721" lon="5.82678">
        <ele>754.4</ele>
        <time>2021-10-17T16:20:18Z</time>
      </trkpt>
      <trkpt lat="46.57207" lon="5.82662">
        <ele>753.8</ele>
        <time>2021-10-17T16:20:19Z</time>
      </trkpt>
      <trkpt lat="46.57204" lon="5.82648">
        <ele>753.4</ele>
        <time>2021-10-17T16:20:20Z</time>
      </trkpt>
      <trkpt lat="46.57202" lon="5.82634">
        <ele>752.8</ele>
        <time>2021-10-17T16:20:21Z</time>
      </trkpt>
      <trkpt lat="46.572" lon="5.8262">
        <ele>752.2</ele>
        <time>2021-10-17T16:20:22Z</time>
      </trkpt>
      <trkpt lat="46.57198" lon="5.82604">
        <ele>751.6</ele>
        <time>2021-10-17T16:20:23Z</time>
      </trkpt>
      <trkpt lat="46.57197" lon="5.82587">
        <ele>751</ele>
        <time>2021-10-17T16:20:24Z</time>
      </trkpt>
      <trkpt lat="46.57198" lon="5.82569">
        <ele>750.2</ele>
        <time>2021-10-17T16:20:25Z</time>
      </trkpt>
      <trkpt lat="46.572" lon="5.82551">
        <ele>749.6</ele>
        <time>2021-10-17T16:20:26Z</time>
      </trkpt>
      <trkpt lat="46.57201" lon="5.82533">
        <ele>748.8</ele>
        <time>2021-10-17T16:20:27Z</time>
      </trkpt>
      <trkpt lat="46.57202" lon="5.82516">
        <ele>748.2</ele>
        <time>2021-10-17T16:20:28Z</time>
      </trkpt>
      <trkpt lat="46.57203" lon="5.82498">
        <ele>747.6</ele>
        <time>2021-10-17T16:20:29Z</time>
      </trkpt>
      <trkpt lat="46.57203" lon="5.82481">
        <ele>746.8</ele>
        <time>2021-10-17T16:20:30Z</time>
      </trkpt>
      <trkpt lat="46.57202" lon="5.82465">
        <ele>746.2</ele>
        <time>2021-10-17T16:20:31Z</time>
      </trkpt>
      <trkpt lat="46.572" lon="5.82447">
        <ele>745.6</ele>
        <time>2021-10-17T16:20:32Z</time>
      </trkpt>
      <trkpt lat="46.57198" lon="5.82429">
        <ele>745</ele>
        <time>2021-10-17T16:20:33Z</time>
      </trkpt>
      <trkpt lat="46.57196" lon="5.82412">
        <ele>744.4</ele>
        <time>2021-10-17T16:20:34Z</time>
      </trkpt>
      <trkpt lat="46.57194" lon="5.82395">
        <ele>744</ele>
        <time>2021-10-17T16:20:35Z</time>
      </trkpt>
      <trkpt lat="46.5719" lon="5.82378">
        <ele>743.6</ele>
        <time>2021-10-17T16:20:36Z</time>
      </trkpt>
      <trkpt lat="46.57189" lon="5.82362">
        <ele>743.2</ele>
        <time>2021-10-17T16:20:37Z</time>
      </trkpt>
      <trkpt lat="46.57187" lon="5.82347">
        <ele>742.8</ele>
        <time>2021-10-17T16:20:38Z</time>
      </trkpt>
      <trkpt lat="46.57185" lon="5.82331">
        <ele>742.6</ele>
        <time>2021-10-17T16:20:39Z</time>
      </trkpt>
      <trkpt lat="46.57183" lon="5.82316">
        <ele>742.2</ele>
        <time>2021-10-17T16:20:40Z</time>
      </trkpt>
      <trkpt lat="46.57182" lon="5.82298">
        <ele>741.8</ele>
        <time>2021-10-17T16:20:41Z</time>
      </trkpt>
      <trkpt lat="46.57179" lon="5.82282">
        <ele>741.6</ele>
        <time>2021-10-17T16:20:42Z</time>
      </trkpt>
      <trkpt lat="46.57177" lon="5.82266">
        <ele>741.2</ele>
        <time>2021-10-17T16:20:43Z</time>
      </trkpt>
      <trkpt lat="46.57175" lon="5.82249">
        <ele>741</ele>
        <time>2021-10-17T16:20:44Z</time>
      </trkpt>
      <trkpt lat="46.57172" lon="5.82219">
        <ele>740.6</ele>
        <time>2021-10-17T16:20:45Z</time>
      </trkpt>
      <trkpt lat="46.5717" lon="5.82205">
        <ele>740.6</ele>
        <time>2021-10-17T16:20:46Z</time>
      </trkpt>
      <trkpt lat="46.57168" lon="5.8219">
        <ele>740.2</ele>
        <time>2021-10-17T16:20:47Z</time>
      </trkpt>
      <trkpt lat="46.57166" lon="5.82175">
        <ele>740.2</ele>
        <time>2021-10-17T16:20:48Z</time>
      </trkpt>
      <trkpt lat="46.57164" lon="5.82161">
        <ele>740</ele>
        <time>2021-10-17T16:20:49Z</time>
      </trkpt>
      <trkpt lat="46.57162" lon="5.82147">
        <ele>740</ele>
        <time>2021-10-17T16:20:50Z</time>
      </trkpt>
      <trkpt lat="46.5716" lon="5.82133">
        <ele>739.6</ele>
        <time>2021-10-17T16:20:51Z</time>
      </trkpt>
      <trkpt lat="46.57158" lon="5.82118">
        <ele>739.6</ele>
        <time>2021-10-17T16:20:52Z</time>
      </trkpt>
      <trkpt lat="46.57156" lon="5.82105">
        <ele>739.6</ele>
        <time>2021-10-17T16:20:53Z</time>
      </trkpt>
      <trkpt lat="46.57154" lon="5.82092">
        <ele>739.6</ele>
        <time>2021-10-17T16:20:54Z</time>
      </trkpt>
      <trkpt lat="46.57153" lon="5.82079">
        <ele>739.4</ele>
        <time>2021-10-17T16:20:55Z</time>
      </trkpt>
      <trkpt lat="46.57151" lon="5.82066">
        <ele>739.4</ele>
        <time>2021-10-17T16:20:56Z</time>
      </trkpt>
      <trkpt lat="46.5715" lon="5.82054">
        <ele>739.4</ele>
        <time>2021-10-17T16:20:57Z</time>
      </trkpt>
      <trkpt lat="46.57149" lon="5.82041">
        <ele>739.4</ele>
        <time>2021-10-17T16:20:58Z</time>
      </trkpt>
      <trkpt lat="46.57147" lon="5.82029">
        <ele>739.6</ele>
        <time>2021-10-17T16:20:59Z</time>
      </trkpt>
      <trkpt lat="46.57146" lon="5.82018">
        <ele>739.6</ele>
        <time>2021-10-17T16:21:00Z</time>
      </trkpt>
      <trkpt lat="46.57144" lon="5.82006">
        <ele>739.6</ele>
        <time>2021-10-17T16:21:01Z</time>
      </trkpt>
      <trkpt lat="46.57143" lon="5.81995">
        <ele>739.6</ele>
        <time>2021-10-17T16:21:02Z</time>
      </trkpt>
      <trkpt lat="46.57142" lon="5.81984">
        <ele>739.8</ele>
        <time>2021-10-17T16:21:03Z</time>
      </trkpt>
      <trkpt lat="46.57142" lon="5.81973">
        <ele>739.8</ele>
        <time>2021-10-17T16:21:04Z</time>
      </trkpt>
      <trkpt lat="46.57141" lon="5.81963">
        <ele>739.8</ele>
        <time>2021-10-17T16:21:05Z</time>
      </trkpt>
      <trkpt lat="46.57141" lon="5.81952">
        <ele>740</ele>
        <time>2021-10-17T16:21:06Z</time>
      </trkpt>
      <trkpt lat="46.5714" lon="5.81941">
        <ele>740</ele>
        <time>2021-10-17T16:21:07Z</time>
      </trkpt>
      <trkpt lat="46.5714" lon="5.81931">
        <ele>740</ele>
        <time>2021-10-17T16:21:08Z</time>
      </trkpt>
      <trkpt lat="46.5714" lon="5.8192">
        <ele>740</ele>
        <time>2021-10-17T16:21:09Z</time>
      </trkpt>
      <trkpt lat="46.5714" lon="5.81909">
        <ele>740</ele>
        <time>2021-10-17T16:21:10Z</time>
      </trkpt>
      <trkpt lat="46.5714" lon="5.81898">
        <ele>739.8</ele>
        <time>2021-10-17T16:21:11Z</time>
      </trkpt>
      <trkpt lat="46.5714" lon="5.81887">
        <ele>739.8</ele>
        <time>2021-10-17T16:21:12Z</time>
      </trkpt>
      <trkpt lat="46.57141" lon="5.81876">
        <ele>739.4</ele>
        <time>2021-10-17T16:21:13Z</time>
      </trkpt>
      <trkpt lat="46.57141" lon="5.81865">
        <ele>739.4</ele>
        <time>2021-10-17T16:21:14Z</time>
      </trkpt>
      <trkpt lat="46.57141" lon="5.81853">
        <ele>739.2</ele>
        <time>2021-10-17T16:21:15Z</time>
      </trkpt>
      <trkpt lat="46.57141" lon="5.81841">
        <ele>739.2</ele>
        <time>2021-10-17T16:21:16Z</time>
      </trkpt>
      <trkpt lat="46.57141" lon="5.81829">
        <ele>738.8</ele>
        <time>2021-10-17T16:21:17Z</time>
      </trkpt>
      <trkpt lat="46.57141" lon="5.81817">
        <ele>738.8</ele>
        <time>2021-10-17T16:21:18Z</time>
      </trkpt>
      <trkpt lat="46.57141" lon="5.81805">
        <ele>738.6</ele>
        <time>2021-10-17T16:21:19Z</time>
      </trkpt>
      <trkpt lat="46.57141" lon="5.81793">
        <ele>738.6</ele>
        <time>2021-10-17T16:21:20Z</time>
      </trkpt>
      <trkpt lat="46.5714" lon="5.81782">
        <ele>738.4</ele>
        <time>2021-10-17T16:21:21Z</time>
      </trkpt>
      <trkpt lat="46.57138" lon="5.8177">
        <ele>738.4</ele>
        <time>2021-10-17T16:21:22Z</time>
      </trkpt>
      <trkpt lat="46.57136" lon="5.81759">
        <ele>738.4</ele>
        <time>2021-10-17T16:21:23Z</time>
      </trkpt>
      <trkpt lat="46.57133" lon="5.81748">
        <ele>738.4</ele>
        <time>2021-10-17T16:21:24Z</time>
      </trkpt>
      <trkpt lat="46.57131" lon="5.81738">
        <ele>738</ele>
        <time>2021-10-17T16:21:25Z</time>
      </trkpt>
      <trkpt lat="46.57128" lon="5.81727">
        <ele>738</ele>
        <time>2021-10-17T16:21:26Z</time>
      </trkpt>
      <trkpt lat="46.57125" lon="5.81717">
        <ele>738</ele>
        <time>2021-10-17T16:21:27Z</time>
      </trkpt>
      <trkpt lat="46.57122" lon="5.81706">
        <ele>738</ele>
        <time>2021-10-17T16:21:28Z</time>
      </trkpt>
      <trkpt lat="46.57119" lon="5.81696">
        <ele>738</ele>
        <time>2021-10-17T16:21:29Z</time>
      </trkpt>
      <trkpt lat="46.57116" lon="5.81685">
        <ele>737.8</ele>
        <time>2021-10-17T16:21:30Z</time>
      </trkpt>
      <trkpt lat="46.57112" lon="5.81675">
        <ele>737.8</ele>
        <time>2021-10-17T16:21:31Z</time>
      </trkpt>
      <trkpt lat="46.57108" lon="5.81665">
        <ele>737.4</ele>
        <time>2021-10-17T16:21:32Z</time>
      </trkpt>
      <trkpt lat="46.57105" lon="5.81654">
        <ele>737.4</ele>
        <time>2021-10-17T16:21:33Z</time>
      </trkpt>
      <trkpt lat="46.571" lon="5.81644">
        <ele>737.2</ele>
        <time>2021-10-17T16:21:34Z</time>
      </trkpt>
      <trkpt lat="46.57096" lon="5.81634">
        <ele>737.2</ele>
        <time>2021-10-17T16:21:35Z</time>
      </trkpt>
      <trkpt lat="46.57091" lon="5.81625">
        <ele>736.8</ele>
        <time>2021-10-17T16:21:36Z</time>
      </trkpt>
      <trkpt lat="46.57087" lon="5.81615">
        <ele>736.8</ele>
        <time>2021-10-17T16:21:37Z</time>
      </trkpt>
      <trkpt lat="46.57082" lon="5.81605">
        <ele>736.4</ele>
        <time>2021-10-17T16:21:38Z</time>
      </trkpt>
      <trkpt lat="46.57077" lon="5.81595">
        <ele>736.2</ele>
        <time>2021-10-17T16:21:39Z</time>
      </trkpt>
      <trkpt lat="46.57072" lon="5.81585">
        <ele>735.8</ele>
        <time>2021-10-17T16:21:40Z</time>
      </trkpt>
      <trkpt lat="46.57067" lon="5.81575">
        <ele>735.4</ele>
        <time>2021-10-17T16:21:41Z</time>
      </trkpt>
      <trkpt lat="46.57062" lon="5.81564">
        <ele>735</ele>
        <time>2021-10-17T16:21:42Z</time>
      </trkpt>
      <trkpt lat="46.57056" lon="5.81554">
        <ele>734.4</ele>
        <time>2021-10-17T16:21:43Z</time>
      </trkpt>
      <trkpt lat="46.57051" lon="5.81542">
        <ele>734</ele>
        <time>2021-10-17T16:21:44Z</time>
      </trkpt>
      <trkpt lat="46.57045" lon="5.8153">
        <ele>733.6</ele>
        <time>2021-10-17T16:21:45Z</time>
      </trkpt>
      <trkpt lat="46.5704" lon="5.81519">
        <ele>733.2</ele>
        <time>2021-10-17T16:21:46Z</time>
      </trkpt>
      <trkpt lat="46.57034" lon="5.81508">
        <ele>732.6</ele>
        <time>2021-10-17T16:21:47Z</time>
      </trkpt>
      <trkpt lat="46.57028" lon="5.81497">
        <ele>732.2</ele>
        <time>2021-10-17T16:21:48Z</time>
      </trkpt>
      <trkpt lat="46.57022" lon="5.81484">
        <ele>731.6</ele>
        <time>2021-10-17T16:21:49Z</time>
      </trkpt>
      <trkpt lat="46.57015" lon="5.81472">
        <ele>731</ele>
        <time>2021-10-17T16:21:50Z</time>
      </trkpt>
      <trkpt lat="46.57008" lon="5.8146">
        <ele>730.4</ele>
        <time>2021-10-17T16:21:51Z</time>
      </trkpt>
      <trkpt lat="46.57001" lon="5.81448">
        <ele>729.8</ele>
        <time>2021-10-17T16:21:52Z</time>
      </trkpt>
      <trkpt lat="46.56993" lon="5.81436">
        <ele>729.2</ele>
        <time>2021-10-17T16:21:53Z</time>
      </trkpt>
      <trkpt lat="46.56986" lon="5.81424">
        <ele>728.4</ele>
        <time>2021-10-17T16:21:54Z</time>
      </trkpt>
      <trkpt lat="46.56978" lon="5.81413">
        <ele>727.8</ele>
        <time>2021-10-17T16:21:55Z</time>
      </trkpt>
      <trkpt lat="46.5697" lon="5.81404">
        <ele>727.2</ele>
        <time>2021-10-17T16:21:56Z</time>
      </trkpt>
      <trkpt lat="46.56963" lon="5.81394">
        <ele>726.6</ele>
        <time>2021-10-17T16:21:57Z</time>
      </trkpt>
      <trkpt lat="46.56956" lon="5.81382">
        <ele>725.8</ele>
        <time>2021-10-17T16:21:58Z</time>
      </trkpt>
      <trkpt lat="46.56952" lon="5.81368">
        <ele>725</ele>
        <time>2021-10-17T16:21:59Z</time>
      </trkpt>
      <trkpt lat="46.56948" lon="5.81354">
        <ele>724.2</ele>
        <time>2021-10-17T16:22:00Z</time>
      </trkpt>
      <trkpt lat="46.56946" lon="5.81338">
        <ele>723.4</ele>
        <time>2021-10-17T16:22:01Z</time>
      </trkpt>
      <trkpt lat="46.56944" lon="5.81322">
        <ele>722.6</ele>
        <time>2021-10-17T16:22:02Z</time>
      </trkpt>
      <trkpt lat="46.56943" lon="5.81306">
        <ele>721.8</ele>
        <time>2021-10-17T16:22:03Z</time>
      </trkpt>
      <trkpt lat="46.56944" lon="5.81288">
        <ele>721</ele>
        <time>2021-10-17T16:22:04Z</time>
      </trkpt>
      <trkpt lat="46.56946" lon="5.8127">
        <ele>720.2</ele>
        <time>2021-10-17T16:22:05Z</time>
      </trkpt>
      <trkpt lat="46.56948" lon="5.81254">
        <ele>719.2</ele>
        <time>2021-10-17T16:22:06Z</time>
      </trkpt>
      <trkpt lat="46.5695" lon="5.81238">
        <ele>718.4</ele>
        <time>2021-10-17T16:22:07Z</time>
      </trkpt>
      <trkpt lat="46.56952" lon="5.81221">
        <ele>717.6</ele>
        <time>2021-10-17T16:22:08Z</time>
      </trkpt>
      <trkpt lat="46.56954" lon="5.81206">
        <ele>716.8</ele>
        <time>2021-10-17T16:22:09Z</time>
      </trkpt>
      <trkpt lat="46.56959" lon="5.81191">
        <ele>715.8</ele>
        <time>2021-10-17T16:22:10Z</time>
      </trkpt>
      <trkpt lat="46.56965" lon="5.81176">
        <ele>714.8</ele>
        <time>2021-10-17T16:22:11Z</time>
      </trkpt>
      <trkpt lat="46.56972" lon="5.81162">
        <ele>714</ele>
        <time>2021-10-17T16:22:12Z</time>
      </trkpt>
      <trkpt lat="46.5698" lon="5.81149">
        <ele>713</ele>
        <time>2021-10-17T16:22:13Z</time>
      </trkpt>
      <trkpt lat="46.56988" lon="5.81137">
        <ele>711.8</ele>
        <time>2021-10-17T16:22:14Z</time>
      </trkpt>
      <trkpt lat="46.56997" lon="5.81123">
        <ele>711</ele>
        <time>2021-10-17T16:22:15Z</time>
      </trkpt>
      <trkpt lat="46.57007" lon="5.8111">
        <ele>709.8</ele>
        <time>2021-10-17T16:22:16Z</time>
      </trkpt>
      <trkpt lat="46.57016" lon="5.81096">
        <ele>708.8</ele>
        <time>2021-10-17T16:22:17Z</time>
      </trkpt>
      <trkpt lat="46.57026" lon="5.81082">
        <ele>707.8</ele>
        <time>2021-10-17T16:22:18Z</time>
      </trkpt>
      <trkpt lat="46.57035" lon="5.81068">
        <ele>706.6</ele>
        <time>2021-10-17T16:22:19Z</time>
      </trkpt>
      <trkpt lat="46.57044" lon="5.81054">
        <ele>705.6</ele>
        <time>2021-10-17T16:22:20Z</time>
      </trkpt>
      <trkpt lat="46.57053" lon="5.8104">
        <ele>704.6</ele>
        <time>2021-10-17T16:22:21Z</time>
      </trkpt>
      <trkpt lat="46.57062" lon="5.81025">
        <ele>703.8</ele>
        <time>2021-10-17T16:22:22Z</time>
      </trkpt>
      <trkpt lat="46.57071" lon="5.8101">
        <ele>702.8</ele>
        <time>2021-10-17T16:22:23Z</time>
      </trkpt>
      <trkpt lat="46.57079" lon="5.80994">
        <ele>702</ele>
        <time>2021-10-17T16:22:24Z</time>
      </trkpt>
      <trkpt lat="46.57087" lon="5.80979">
        <ele>701.2</ele>
        <time>2021-10-17T16:22:25Z</time>
      </trkpt>
      <trkpt lat="46.57094" lon="5.80965">
        <ele>700.6</ele>
        <time>2021-10-17T16:22:26Z</time>
      </trkpt>
      <trkpt lat="46.57101" lon="5.80953">
        <ele>699.8</ele>
        <time>2021-10-17T16:22:27Z</time>
      </trkpt>
      <trkpt lat="46.5711" lon="5.80943">
        <ele>699.2</ele>
        <time>2021-10-17T16:22:28Z</time>
      </trkpt>
      <trkpt lat="46.57119" lon="5.80933">
        <ele>698.4</ele>
        <time>2021-10-17T16:22:29Z</time>
      </trkpt>
      <trkpt lat="46.57129" lon="5.80923">
        <ele>697.8</ele>
        <time>2021-10-17T16:22:30Z</time>
      </trkpt>
      <trkpt lat="46.57139" lon="5.80913">
        <ele>697.2</ele>
        <time>2021-10-17T16:22:31Z</time>
      </trkpt>
      <trkpt lat="46.57148" lon="5.80902">
        <ele>696.6</ele>
        <time>2021-10-17T16:22:32Z</time>
      </trkpt>
      <trkpt lat="46.57156" lon="5.80889">
        <ele>696</ele>
        <time>2021-10-17T16:22:33Z</time>
      </trkpt>
      <trkpt lat="46.57164" lon="5.80875">
        <ele>695.2</ele>
        <time>2021-10-17T16:22:34Z</time>
      </trkpt>
      <trkpt lat="46.57171" lon="5.80861">
        <ele>694.6</ele>
        <time>2021-10-17T16:22:35Z</time>
      </trkpt>
      <trkpt lat="46.57178" lon="5.80848">
        <ele>694</ele>
        <time>2021-10-17T16:22:36Z</time>
      </trkpt>
      <trkpt lat="46.57186" lon="5.80832">
        <ele>693.2</ele>
        <time>2021-10-17T16:22:37Z</time>
      </trkpt>
      <trkpt lat="46.57193" lon="5.80819">
        <ele>692.6</ele>
        <time>2021-10-17T16:22:38Z</time>
      </trkpt>
      <trkpt lat="46.57199" lon="5.80804">
        <ele>691.8</ele>
        <time>2021-10-17T16:22:39Z</time>
      </trkpt>
      <trkpt lat="46.57206" lon="5.8079">
        <ele>691.2</ele>
        <time>2021-10-17T16:22:40Z</time>
      </trkpt>
      <trkpt lat="46.57213" lon="5.80776">
        <ele>690.4</ele>
        <time>2021-10-17T16:22:41Z</time>
      </trkpt>
      <trkpt lat="46.5722" lon="5.80762">
        <ele>689.8</ele>
        <time>2021-10-17T16:22:42Z</time>
      </trkpt>
      <trkpt lat="46.57227" lon="5.80747">
        <ele>689</ele>
        <time>2021-10-17T16:22:43Z</time>
      </trkpt>
      <trkpt lat="46.57234" lon="5.80732">
        <ele>688.2</ele>
        <time>2021-10-17T16:22:44Z</time>
      </trkpt>
      <trkpt lat="46.5724" lon="5.80717">
        <ele>687.6</ele>
        <time>2021-10-17T16:22:45Z</time>
      </trkpt>
      <trkpt lat="46.57248" lon="5.80701">
        <ele>686.8</ele>
        <time>2021-10-17T16:22:46Z</time>
      </trkpt>
      <trkpt lat="46.57256" lon="5.80686">
        <ele>686.2</ele>
        <time>2021-10-17T16:22:47Z</time>
      </trkpt>
      <trkpt lat="46.57265" lon="5.80674">
        <ele>685.6</ele>
        <time>2021-10-17T16:22:48Z</time>
      </trkpt>
      <trkpt lat="46.57274" lon="5.80663">
        <ele>684.8</ele>
        <time>2021-10-17T16:22:49Z</time>
      </trkpt>
      <trkpt lat="46.57284" lon="5.80651">
        <ele>684.2</ele>
        <time>2021-10-17T16:22:50Z</time>
      </trkpt>
      <trkpt lat="46.57295" lon="5.8064">
        <ele>683.6</ele>
        <time>2021-10-17T16:22:51Z</time>
      </trkpt>
      <trkpt lat="46.57304" lon="5.80629">
        <ele>683</ele>
        <time>2021-10-17T16:22:52Z</time>
      </trkpt>
      <trkpt lat="46.57313" lon="5.80619">
        <ele>682.4</ele>
        <time>2021-10-17T16:22:53Z</time>
      </trkpt>
      <trkpt lat="46.57322" lon="5.80609">
        <ele>681.6</ele>
        <time>2021-10-17T16:22:54Z</time>
      </trkpt>
      <trkpt lat="46.57329" lon="5.80598">
        <ele>681</ele>
        <time>2021-10-17T16:22:55Z</time>
      </trkpt>
      <trkpt lat="46.57336" lon="5.80588">
        <ele>680.4</ele>
        <time>2021-10-17T16:22:56Z</time>
      </trkpt>
      <trkpt lat="46.57342" lon="5.80578">
        <ele>680</ele>
        <time>2021-10-17T16:22:57Z</time>
      </trkpt>
      <trkpt lat="46.57347" lon="5.80566">
        <ele>679.4</ele>
        <time>2021-10-17T16:22:58Z</time>
      </trkpt>
      <trkpt lat="46.57351" lon="5.80552">
        <ele>678.8</ele>
        <time>2021-10-17T16:22:59Z</time>
      </trkpt>
      <trkpt lat="46.57353" lon="5.80537">
        <ele>678.2</ele>
        <time>2021-10-17T16:23:00Z</time>
      </trkpt>
      <trkpt lat="46.57356" lon="5.80521">
        <ele>677.6</ele>
        <time>2021-10-17T16:23:01Z</time>
      </trkpt>
      <trkpt lat="46.57359" lon="5.80505">
        <ele>677.2</ele>
        <time>2021-10-17T16:23:02Z</time>
      </trkpt>
      <trkpt lat="46.5736" lon="5.80491">
        <ele>676.6</ele>
        <time>2021-10-17T16:23:03Z</time>
      </trkpt>
      <trkpt lat="46.57361" lon="5.80476">
        <ele>676</ele>
        <time>2021-10-17T16:23:04Z</time>
      </trkpt>
      <trkpt lat="46.57362" lon="5.80461">
        <ele>675.6</ele>
        <time>2021-10-17T16:23:05Z</time>
      </trkpt>
      <trkpt lat="46.57364" lon="5.80446">
        <ele>675</ele>
        <time>2021-10-17T16:23:06Z</time>
      </trkpt>
      <trkpt lat="46.57365" lon="5.80432">
        <ele>674.4</ele>
        <time>2021-10-17T16:23:07Z</time>
      </trkpt>
      <trkpt lat="46.57366" lon="5.80417">
        <ele>674</ele>
        <time>2021-10-17T16:23:08Z</time>
      </trkpt>
      <trkpt lat="46.57368" lon="5.80401">
        <ele>673.4</ele>
        <time>2021-10-17T16:23:09Z</time>
      </trkpt>
      <trkpt lat="46.57371" lon="5.80386">
        <ele>672.8</ele>
        <time>2021-10-17T16:23:10Z</time>
      </trkpt>
      <trkpt lat="46.57372" lon="5.80371">
        <ele>672.2</ele>
        <time>2021-10-17T16:23:11Z</time>
      </trkpt>
      <trkpt lat="46.57374" lon="5.80355">
        <ele>671.4</ele>
        <time>2021-10-17T16:23:12Z</time>
      </trkpt>
      <trkpt lat="46.57376" lon="5.80339">
        <ele>670.8</ele>
        <time>2021-10-17T16:23:13Z</time>
      </trkpt>
      <trkpt lat="46.57376" lon="5.80339">
        <ele>670</ele>
        <time>2021-10-17T16:23:14Z</time>
      </trkpt>
      <trkpt lat="46.57379" lon="5.80308">
        <ele>669.4</ele>
        <time>2021-10-17T16:23:15Z</time>
      </trkpt>
      <trkpt lat="46.57381" lon="5.80294">
        <ele>669</ele>
        <time>2021-10-17T16:23:16Z</time>
      </trkpt>
      <trkpt lat="46.57382" lon="5.8028">
        <ele>668.4</ele>
        <time>2021-10-17T16:23:17Z</time>
      </trkpt>
      <trkpt lat="46.57383" lon="5.80268">
        <ele>667.6</ele>
        <time>2021-10-17T16:23:18Z</time>
      </trkpt>
      <trkpt lat="46.57385" lon="5.80256">
        <ele>667.2</ele>
        <time>2021-10-17T16:23:19Z</time>
      </trkpt>
      <trkpt lat="46.57387" lon="5.80245">
        <ele>666.6</ele>
        <time>2021-10-17T16:23:20Z</time>
      </trkpt>
      <trkpt lat="46.57388" lon="5.80235">
        <ele>666</ele>
        <time>2021-10-17T16:23:21Z</time>
      </trkpt>
      <trkpt lat="46.57391" lon="5.80225">
        <ele>665.6</ele>
        <time>2021-10-17T16:23:22Z</time>
      </trkpt>
      <trkpt lat="46.57394" lon="5.80216">
        <ele>665.2</ele>
        <time>2021-10-17T16:23:23Z</time>
      </trkpt>
      <trkpt lat="46.57399" lon="5.80208">
        <ele>665</ele>
        <time>2021-10-17T16:23:24Z</time>
      </trkpt>
      <trkpt lat="46.57404" lon="5.80201">
        <ele>664.8</ele>
        <time>2021-10-17T16:23:25Z</time>
      </trkpt>
      <trkpt lat="46.5741" lon="5.80195">
        <ele>664.6</ele>
        <time>2021-10-17T16:23:26Z</time>
      </trkpt>
      <trkpt lat="46.57417" lon="5.8019">
        <ele>664.6</ele>
        <time>2021-10-17T16:23:27Z</time>
      </trkpt>
      <trkpt lat="46.57423" lon="5.80185">
        <ele>664.2</ele>
        <time>2021-10-17T16:23:28Z</time>
      </trkpt>
      <trkpt lat="46.5743" lon="5.8018">
        <ele>664.2</ele>
        <time>2021-10-17T16:23:29Z</time>
      </trkpt>
      <trkpt lat="46.5743" lon="5.8018">
        <ele>664</ele>
        <time>2021-10-17T16:23:30Z</time>
      </trkpt>
      <trkpt lat="46.57442" lon="5.80169">
        <ele>664</ele>
        <time>2021-10-17T16:23:31Z</time>
      </trkpt>
      <trkpt lat="46.57447" lon="5.80164">
        <ele>664</ele>
        <time>2021-10-17T16:23:32Z</time>
      </trkpt>
      <trkpt lat="46.57447" lon="5.80164">
        <ele>664</ele>
        <time>2021-10-17T16:23:33Z</time>
      </trkpt>
      <trkpt lat="46.57453" lon="5.80159">
        <ele>663.8</ele>
        <time>2021-10-17T16:23:34Z</time>
      </trkpt>
      <trkpt lat="46.57457" lon="5.80153">
        <ele>663.8</ele>
        <time>2021-10-17T16:23:35Z</time>
      </trkpt>
      <trkpt lat="46.57462" lon="5.80148">
        <ele>663.4</ele>
        <time>2021-10-17T16:23:36Z</time>
      </trkpt>
      <trkpt lat="46.57468" lon="5.80143">
        <ele>663.4</ele>
        <time>2021-10-17T16:23:37Z</time>
      </trkpt>
      <trkpt lat="46.57474" lon="5.80138">
        <ele>663.2</ele>
        <time>2021-10-17T16:23:38Z</time>
      </trkpt>
      <trkpt lat="46.5748" lon="5.80135">
        <ele>663</ele>
        <time>2021-10-17T16:23:39Z</time>
      </trkpt>
      <trkpt lat="46.57486" lon="5.80134">
        <ele>662.8</ele>
        <time>2021-10-17T16:23:40Z</time>
      </trkpt>
      <trkpt lat="46.57492" lon="5.80133">
        <ele>662.6</ele>
        <time>2021-10-17T16:23:41Z</time>
      </trkpt>
      <trkpt lat="46.57499" lon="5.80133">
        <ele>662.6</ele>
        <time>2021-10-17T16:23:42Z</time>
      </trkpt>
      <trkpt lat="46.57505" lon="5.80132">
        <ele>662</ele>
        <time>2021-10-17T16:23:43Z</time>
      </trkpt>
      <trkpt lat="46.57511" lon="5.80129">
        <ele>661.6</ele>
        <time>2021-10-17T16:23:44Z</time>
      </trkpt>
      <trkpt lat="46.57517" lon="5.80124">
        <ele>661.4</ele>
        <time>2021-10-17T16:23:45Z</time>
      </trkpt>
      <trkpt lat="46.57522" lon="5.80117">
        <ele>661</ele>
        <time>2021-10-17T16:23:46Z</time>
      </trkpt>
      <trkpt lat="46.57527" lon="5.80108">
        <ele>660.4</ele>
        <time>2021-10-17T16:23:47Z</time>
      </trkpt>
      <trkpt lat="46.57532" lon="5.80099">
        <ele>660</ele>
        <time>2021-10-17T16:23:48Z</time>
      </trkpt>
      <trkpt lat="46.57536" lon="5.8009">
        <ele>659.6</ele>
        <time>2021-10-17T16:23:49Z</time>
      </trkpt>
      <trkpt lat="46.57542" lon="5.8008">
        <ele>659.2</ele>
        <time>2021-10-17T16:23:50Z</time>
      </trkpt>
      <trkpt lat="46.57548" lon="5.80071">
        <ele>658.8</ele>
        <time>2021-10-17T16:23:51Z</time>
      </trkpt>
      <trkpt lat="46.57555" lon="5.80062">
        <ele>658.2</ele>
        <time>2021-10-17T16:23:52Z</time>
      </trkpt>
      <trkpt lat="46.57562" lon="5.80053">
        <ele>657.8</ele>
        <time>2021-10-17T16:23:53Z</time>
      </trkpt>
      <trkpt lat="46.57569" lon="5.80045">
        <ele>657.4</ele>
        <time>2021-10-17T16:23:54Z</time>
      </trkpt>
      <trkpt lat="46.57577" lon="5.80037">
        <ele>656.8</ele>
        <time>2021-10-17T16:23:55Z</time>
      </trkpt>
      <trkpt lat="46.57584" lon="5.80027">
        <ele>656.2</ele>
        <time>2021-10-17T16:23:56Z</time>
      </trkpt>
      <trkpt lat="46.57591" lon="5.80017">
        <ele>655.6</ele>
        <time>2021-10-17T16:23:57Z</time>
      </trkpt>
      <trkpt lat="46.57598" lon="5.80006">
        <ele>655</ele>
        <time>2021-10-17T16:23:58Z</time>
      </trkpt>
      <trkpt lat="46.57605" lon="5.79995">
        <ele>654.4</ele>
        <time>2021-10-17T16:23:59Z</time>
      </trkpt>
      <trkpt lat="46.57612" lon="5.79983">
        <ele>653.6</ele>
        <time>2021-10-17T16:24:00Z</time>
      </trkpt>
      <trkpt lat="46.57619" lon="5.7997">
        <ele>653</ele>
        <time>2021-10-17T16:24:01Z</time>
      </trkpt>
      <trkpt lat="46.57625" lon="5.79957">
        <ele>652.2</ele>
        <time>2021-10-17T16:24:02Z</time>
      </trkpt>
      <trkpt lat="46.57633" lon="5.79943">
        <ele>651.4</ele>
        <time>2021-10-17T16:24:03Z</time>
      </trkpt>
      <trkpt lat="46.57639" lon="5.7993">
        <ele>650.6</ele>
        <time>2021-10-17T16:24:04Z</time>
      </trkpt>
      <trkpt lat="46.57645" lon="5.79918">
        <ele>649.6</ele>
        <time>2021-10-17T16:24:05Z</time>
      </trkpt>
      <trkpt lat="46.5765" lon="5.79906">
        <ele>649</ele>
        <time>2021-10-17T16:24:06Z</time>
      </trkpt>
      <trkpt lat="46.57653" lon="5.79897">
        <ele>648.2</ele>
        <time>2021-10-17T16:24:07Z</time>
      </trkpt>
      <trkpt lat="46.57656" lon="5.79887">
        <ele>647.6</ele>
        <time>2021-10-17T16:24:08Z</time>
      </trkpt>
      <trkpt lat="46.57658" lon="5.79876">
        <ele>646.8</ele>
        <time>2021-10-17T16:24:09Z</time>
      </trkpt>
      <trkpt lat="46.57658" lon="5.79863">
        <ele>646.2</ele>
        <time>2021-10-17T16:24:10Z</time>
      </trkpt>
      <trkpt lat="46.57657" lon="5.7985">
        <ele>645.6</ele>
        <time>2021-10-17T16:24:11Z</time>
      </trkpt>
      <trkpt lat="46.57655" lon="5.79837">
        <ele>644.8</ele>
        <time>2021-10-17T16:24:12Z</time>
      </trkpt>
      <trkpt lat="46.57653" lon="5.79824">
        <ele>644.2</ele>
        <time>2021-10-17T16:24:13Z</time>
      </trkpt>
      <trkpt lat="46.57651" lon="5.7981">
        <ele>643.4</ele>
        <time>2021-10-17T16:24:14Z</time>
      </trkpt>
      <trkpt lat="46.57651" lon="5.79796">
        <ele>642.6</ele>
        <time>2021-10-17T16:24:15Z</time>
      </trkpt>
      <trkpt lat="46.57651" lon="5.79783">
        <ele>642</ele>
        <time>2021-10-17T16:24:16Z</time>
      </trkpt>
      <trkpt lat="46.57652" lon="5.79769">
        <ele>641.2</ele>
        <time>2021-10-17T16:24:17Z</time>
      </trkpt>
      <trkpt lat="46.57654" lon="5.79757">
        <ele>640.6</ele>
        <time>2021-10-17T16:24:18Z</time>
      </trkpt>
      <trkpt lat="46.57655" lon="5.79745">
        <ele>639.8</ele>
        <time>2021-10-17T16:24:19Z</time>
      </trkpt>
      <trkpt lat="46.57655" lon="5.79733">
        <ele>639.2</ele>
        <time>2021-10-17T16:24:20Z</time>
      </trkpt>
      <trkpt lat="46.57655" lon="5.7972">
        <ele>638.6</ele>
        <time>2021-10-17T16:24:21Z</time>
      </trkpt>
      <trkpt lat="46.57653" lon="5.79708">
        <ele>637.8</ele>
        <time>2021-10-17T16:24:22Z</time>
      </trkpt>
      <trkpt lat="46.57649" lon="5.79696">
        <ele>637</ele>
        <time>2021-10-17T16:24:23Z</time>
      </trkpt>
      <trkpt lat="46.57644" lon="5.79684">
        <ele>636.4</ele>
        <time>2021-10-17T16:24:24Z</time>
      </trkpt>
      <trkpt lat="46.57638" lon="5.79672">
        <ele>635.4</ele>
        <time>2021-10-17T16:24:25Z</time>
      </trkpt>
      <trkpt lat="46.57632" lon="5.79659">
        <ele>634.6</ele>
        <time>2021-10-17T16:24:26Z</time>
      </trkpt>
      <trkpt lat="46.57627" lon="5.79646">
        <ele>633.8</ele>
        <time>2021-10-17T16:24:27Z</time>
      </trkpt>
      <trkpt lat="46.57624" lon="5.79633">
        <ele>633</ele>
        <time>2021-10-17T16:24:28Z</time>
      </trkpt>
      <trkpt lat="46.57622" lon="5.79621">
        <ele>632.2</ele>
        <time>2021-10-17T16:24:29Z</time>
      </trkpt>
      <trkpt lat="46.57621" lon="5.79609">
        <ele>631.6</ele>
        <time>2021-10-17T16:24:30Z</time>
      </trkpt>
      <trkpt lat="46.57621" lon="5.79597">
        <ele>630.8</ele>
        <time>2021-10-17T16:24:31Z</time>
      </trkpt>
      <trkpt lat="46.57624" lon="5.79584">
        <ele>630.8</ele>
        <time>2021-10-17T16:24:32Z</time>
      </trkpt>
      <trkpt lat="46.57628" lon="5.79572">
        <ele>630.2</ele>
        <time>2021-10-17T16:24:33Z</time>
      </trkpt>
      <trkpt lat="46.57634" lon="5.7956">
        <ele>628.6</ele>
        <time>2021-10-17T16:24:34Z</time>
      </trkpt>
      <trkpt lat="46.57641" lon="5.79548">
        <ele>628.6</ele>
        <time>2021-10-17T16:24:35Z</time>
      </trkpt>
      <trkpt lat="46.57647" lon="5.79537">
        <ele>627.8</ele>
        <time>2021-10-17T16:24:36Z</time>
      </trkpt>
      <trkpt lat="46.57653" lon="5.79525">
        <ele>627</ele>
        <time>2021-10-17T16:24:37Z</time>
      </trkpt>
      <trkpt lat="46.57657" lon="5.79513">
        <ele>626.4</ele>
        <time>2021-10-17T16:24:38Z</time>
      </trkpt>
      <trkpt lat="46.5766" lon="5.795">
        <ele>625.6</ele>
        <time>2021-10-17T16:24:39Z</time>
      </trkpt>
      <trkpt lat="46.57662" lon="5.79487">
        <ele>625</ele>
        <time>2021-10-17T16:24:40Z</time>
      </trkpt>
      <trkpt lat="46.57664" lon="5.79473">
        <ele>624.2</ele>
        <time>2021-10-17T16:24:41Z</time>
      </trkpt>
      <trkpt lat="46.57665" lon="5.79457">
        <ele>623.4</ele>
        <time>2021-10-17T16:24:42Z</time>
      </trkpt>
      <trkpt lat="46.57665" lon="5.79441">
        <ele>622.6</ele>
        <time>2021-10-17T16:24:43Z</time>
      </trkpt>
      <trkpt lat="46.57665" lon="5.79426">
        <ele>621.6</ele>
        <time>2021-10-17T16:24:44Z</time>
      </trkpt>
      <trkpt lat="46.57666" lon="5.79409">
        <ele>620.8</ele>
        <time>2021-10-17T16:24:45Z</time>
      </trkpt>
      <trkpt lat="46.57667" lon="5.79393">
        <ele>620</ele>
        <time>2021-10-17T16:24:46Z</time>
      </trkpt>
      <trkpt lat="46.57669" lon="5.79377">
        <ele>619.2</ele>
        <time>2021-10-17T16:24:47Z</time>
      </trkpt>
      <trkpt lat="46.57672" lon="5.79361">
        <ele>618.2</ele>
        <time>2021-10-17T16:24:48Z</time>
      </trkpt>
      <trkpt lat="46.57675" lon="5.79345">
        <ele>617.4</ele>
        <time>2021-10-17T16:24:49Z</time>
      </trkpt>
      <trkpt lat="46.57678" lon="5.7933">
        <ele>616.4</ele>
        <time>2021-10-17T16:24:50Z</time>
      </trkpt>
      <trkpt lat="46.57683" lon="5.79316">
        <ele>615.6</ele>
        <time>2021-10-17T16:24:51Z</time>
      </trkpt>
      <trkpt lat="46.57688" lon="5.79302">
        <ele>614.8</ele>
        <time>2021-10-17T16:24:52Z</time>
      </trkpt>
      <trkpt lat="46.57694" lon="5.7929">
        <ele>614</ele>
        <time>2021-10-17T16:24:53Z</time>
      </trkpt>
      <trkpt lat="46.577" lon="5.79277">
        <ele>613.2</ele>
        <time>2021-10-17T16:24:54Z</time>
      </trkpt>
      <trkpt lat="46.57706" lon="5.79265">
        <ele>612.6</ele>
        <time>2021-10-17T16:24:55Z</time>
      </trkpt>
      <trkpt lat="46.57712" lon="5.79252">
        <ele>611.8</ele>
        <time>2021-10-17T16:24:56Z</time>
      </trkpt>
      <trkpt lat="46.57719" lon="5.79239">
        <ele>611</ele>
        <time>2021-10-17T16:24:57Z</time>
      </trkpt>
      <trkpt lat="46.57726" lon="5.79223">
        <ele>610</ele>
        <time>2021-10-17T16:24:58Z</time>
      </trkpt>
      <trkpt lat="46.57732" lon="5.79206">
        <ele>609.2</ele>
        <time>2021-10-17T16:24:59Z</time>
      </trkpt>
      <trkpt lat="46.57737" lon="5.7919">
        <ele>608.4</ele>
        <time>2021-10-17T16:25:00Z</time>
      </trkpt>
      <trkpt lat="46.57742" lon="5.79173">
        <ele>607.4</ele>
        <time>2021-10-17T16:25:01Z</time>
      </trkpt>
      <trkpt lat="46.57745" lon="5.79155">
        <ele>606.6</ele>
        <time>2021-10-17T16:25:02Z</time>
      </trkpt>
      <trkpt lat="46.57749" lon="5.79137">
        <ele>605.8</ele>
        <time>2021-10-17T16:25:03Z</time>
      </trkpt>
      <trkpt lat="46.57752" lon="5.79118">
        <ele>604.8</ele>
        <time>2021-10-17T16:25:04Z</time>
      </trkpt>
      <trkpt lat="46.57755" lon="5.79099">
        <ele>603.8</ele>
        <time>2021-10-17T16:25:05Z</time>
      </trkpt>
      <trkpt lat="46.57759" lon="5.79081">
        <ele>602.8</ele>
        <time>2021-10-17T16:25:06Z</time>
      </trkpt>
      <trkpt lat="46.57762" lon="5.79063">
        <ele>601.8</ele>
        <time>2021-10-17T16:25:07Z</time>
      </trkpt>
      <trkpt lat="46.57766" lon="5.79044">
        <ele>600.8</ele>
        <time>2021-10-17T16:25:08Z</time>
      </trkpt>
      <trkpt lat="46.5777" lon="5.79026">
        <ele>600</ele>
        <time>2021-10-17T16:25:09Z</time>
      </trkpt>
      <trkpt lat="46.57773" lon="5.79007">
        <ele>599.2</ele>
        <time>2021-10-17T16:25:10Z</time>
      </trkpt>
      <trkpt lat="46.57776" lon="5.78989">
        <ele>598.2</ele>
        <time>2021-10-17T16:25:11Z</time>
      </trkpt>
      <trkpt lat="46.5778" lon="5.78971">
        <ele>597.2</ele>
        <time>2021-10-17T16:25:12Z</time>
      </trkpt>
      <trkpt lat="46.57781" lon="5.78952">
        <ele>596.2</ele>
        <time>2021-10-17T16:25:13Z</time>
      </trkpt>
      <trkpt lat="46.57782" lon="5.78934">
        <ele>595.2</ele>
        <time>2021-10-17T16:25:14Z</time>
      </trkpt>
      <trkpt lat="46.57782" lon="5.78914">
        <ele>594</ele>
        <time>2021-10-17T16:25:15Z</time>
      </trkpt>
      <trkpt lat="46.57783" lon="5.78896">
        <ele>593</ele>
        <time>2021-10-17T16:25:16Z</time>
      </trkpt>
      <trkpt lat="46.57783" lon="5.78877">
        <ele>592</ele>
        <time>2021-10-17T16:25:17Z</time>
      </trkpt>
      <trkpt lat="46.57784" lon="5.78857">
        <ele>591</ele>
        <time>2021-10-17T16:25:18Z</time>
      </trkpt>
      <trkpt lat="46.57784" lon="5.78837">
        <ele>589.8</ele>
        <time>2021-10-17T16:25:19Z</time>
      </trkpt>
      <trkpt lat="46.57784" lon="5.78818">
        <ele>588.8</ele>
        <time>2021-10-17T16:25:20Z</time>
      </trkpt>
      <trkpt lat="46.57783" lon="5.78798">
        <ele>588</ele>
        <time>2021-10-17T16:25:21Z</time>
      </trkpt>
      <trkpt lat="46.57782" lon="5.7878">
        <ele>587</ele>
        <time>2021-10-17T16:25:22Z</time>
      </trkpt>
      <trkpt lat="46.57781" lon="5.78763">
        <ele>586</ele>
        <time>2021-10-17T16:25:23Z</time>
      </trkpt>
      <trkpt lat="46.5778" lon="5.78745">
        <ele>585.2</ele>
        <time>2021-10-17T16:25:24Z</time>
      </trkpt>
      <trkpt lat="46.57779" lon="5.78729">
        <ele>584.2</ele>
        <time>2021-10-17T16:25:25Z</time>
      </trkpt>
      <trkpt lat="46.57778" lon="5.78715">
        <ele>583.4</ele>
        <time>2021-10-17T16:25:26Z</time>
      </trkpt>
      <trkpt lat="46.57779" lon="5.78699">
        <ele>582.6</ele>
        <time>2021-10-17T16:25:27Z</time>
      </trkpt>
      <trkpt lat="46.57779" lon="5.78682">
        <ele>581.8</ele>
        <time>2021-10-17T16:25:28Z</time>
      </trkpt>
      <trkpt lat="46.57779" lon="5.78665">
        <ele>581</ele>
        <time>2021-10-17T16:25:29Z</time>
      </trkpt>
      <trkpt lat="46.57781" lon="5.78648">
        <ele>580.4</ele>
        <time>2021-10-17T16:25:30Z</time>
      </trkpt>
      <trkpt lat="46.57782" lon="5.78632">
        <ele>580</ele>
        <time>2021-10-17T16:25:31Z</time>
      </trkpt>
      <trkpt lat="46.57784" lon="5.78616">
        <ele>579.4</ele>
        <time>2021-10-17T16:25:32Z</time>
      </trkpt>
      <trkpt lat="46.57785" lon="5.78601">
        <ele>579</ele>
        <time>2021-10-17T16:25:33Z</time>
      </trkpt>
      <trkpt lat="46.57784" lon="5.78586">
        <ele>578.4</ele>
        <time>2021-10-17T16:25:34Z</time>
      </trkpt>
      <trkpt lat="46.57784" lon="5.7857">
        <ele>578</ele>
        <time>2021-10-17T16:25:35Z</time>
      </trkpt>
      <trkpt lat="46.57783" lon="5.78554">
        <ele>577.4</ele>
        <time>2021-10-17T16:25:36Z</time>
      </trkpt>
      <trkpt lat="46.57784" lon="5.78538">
        <ele>576.8</ele>
        <time>2021-10-17T16:25:37Z</time>
      </trkpt>
      <trkpt lat="46.57787" lon="5.7852">
        <ele>576.2</ele>
        <time>2021-10-17T16:25:38Z</time>
      </trkpt>
      <trkpt lat="46.5779" lon="5.78503">
        <ele>575.6</ele>
        <time>2021-10-17T16:25:39Z</time>
      </trkpt>
      <trkpt lat="46.57794" lon="5.78487">
        <ele>574.8</ele>
        <time>2021-10-17T16:25:40Z</time>
      </trkpt>
      <trkpt lat="46.57798" lon="5.7847">
        <ele>574</ele>
        <time>2021-10-17T16:25:41Z</time>
      </trkpt>
      <trkpt lat="46.57802" lon="5.78454">
        <ele>573.2</ele>
        <time>2021-10-17T16:25:42Z</time>
      </trkpt>
      <trkpt lat="46.57806" lon="5.78437">
        <ele>572.4</ele>
        <time>2021-10-17T16:25:43Z</time>
      </trkpt>
      <trkpt lat="46.5781" lon="5.7842">
        <ele>571.6</ele>
        <time>2021-10-17T16:25:44Z</time>
      </trkpt>
      <trkpt lat="46.57814" lon="5.78403">
        <ele>570.8</ele>
        <time>2021-10-17T16:25:45Z</time>
      </trkpt>
      <trkpt lat="46.57819" lon="5.78385">
        <ele>569.8</ele>
        <time>2021-10-17T16:25:46Z</time>
      </trkpt>
      <trkpt lat="46.57824" lon="5.78368">
        <ele>568.8</ele>
        <time>2021-10-17T16:25:47Z</time>
      </trkpt>
      <trkpt lat="46.57828" lon="5.78351">
        <ele>568</ele>
        <time>2021-10-17T16:25:48Z</time>
      </trkpt>
      <trkpt lat="46.57832" lon="5.78333">
        <ele>567</ele>
        <time>2021-10-17T16:25:49Z</time>
      </trkpt>
      <trkpt lat="46.57835" lon="5.78315">
        <ele>566.2</ele>
        <time>2021-10-17T16:25:50Z</time>
      </trkpt>
      <trkpt lat="46.57838" lon="5.78297">
        <ele>565.4</ele>
        <time>2021-10-17T16:25:51Z</time>
      </trkpt>
      <trkpt lat="46.57841" lon="5.78279">
        <ele>564.4</ele>
        <time>2021-10-17T16:25:52Z</time>
      </trkpt>
      <trkpt lat="46.57843" lon="5.78262">
        <ele>563.4</ele>
        <time>2021-10-17T16:25:53Z</time>
      </trkpt>
      <trkpt lat="46.57846" lon="5.78245">
        <ele>562.6</ele>
        <time>2021-10-17T16:25:54Z</time>
      </trkpt>
      <trkpt lat="46.57849" lon="5.78229">
        <ele>561.8</ele>
        <time>2021-10-17T16:25:55Z</time>
      </trkpt>
      <trkpt lat="46.57851" lon="5.78215">
        <ele>561</ele>
        <time>2021-10-17T16:25:56Z</time>
      </trkpt>
      <trkpt lat="46.57853" lon="5.782">
        <ele>560</ele>
        <time>2021-10-17T16:25:57Z</time>
      </trkpt>
      <trkpt lat="46.57854" lon="5.78185">
        <ele>559.2</ele>
        <time>2021-10-17T16:25:58Z</time>
      </trkpt>
      <trkpt lat="46.57856" lon="5.78171">
        <ele>558.4</ele>
        <time>2021-10-17T16:25:59Z</time>
      </trkpt>
      <trkpt lat="46.57856" lon="5.78158">
        <ele>557.8</ele>
        <time>2021-10-17T16:26:00Z</time>
      </trkpt>
      <trkpt lat="46.57856" lon="5.78144">
        <ele>557</ele>
        <time>2021-10-17T16:26:01Z</time>
      </trkpt>
      <trkpt lat="46.57854" lon="5.78131">
        <ele>556.4</ele>
        <time>2021-10-17T16:26:02Z</time>
      </trkpt>
      <trkpt lat="46.5785" lon="5.78117">
        <ele>556</ele>
        <time>2021-10-17T16:26:03Z</time>
      </trkpt>
      <trkpt lat="46.57845" lon="5.78103">
        <ele>555.4</ele>
        <time>2021-10-17T16:26:04Z</time>
      </trkpt>
      <trkpt lat="46.57841" lon="5.78089">
        <ele>555</ele>
        <time>2021-10-17T16:26:05Z</time>
      </trkpt>
      <trkpt lat="46.57837" lon="5.78076">
        <ele>554.6</ele>
        <time>2021-10-17T16:26:06Z</time>
      </trkpt>
      <trkpt lat="46.57832" lon="5.78062">
        <ele>554.2</ele>
        <time>2021-10-17T16:26:07Z</time>
      </trkpt>
      <trkpt lat="46.57828" lon="5.78049">
        <ele>553.6</ele>
        <time>2021-10-17T16:26:08Z</time>
      </trkpt>
      <trkpt lat="46.57825" lon="5.78034">
        <ele>553.2</ele>
        <time>2021-10-17T16:26:09Z</time>
      </trkpt>
      <trkpt lat="46.57821" lon="5.7802">
        <ele>552.8</ele>
        <time>2021-10-17T16:26:10Z</time>
      </trkpt>
      <trkpt lat="46.57817" lon="5.78007">
        <ele>552.2</ele>
        <time>2021-10-17T16:26:11Z</time>
      </trkpt>
      <trkpt lat="46.57813" lon="5.77993">
        <ele>551.8</ele>
        <time>2021-10-17T16:26:12Z</time>
      </trkpt>
      <trkpt lat="46.5781" lon="5.77979">
        <ele>551.4</ele>
        <time>2021-10-17T16:26:13Z</time>
      </trkpt>
      <trkpt lat="46.57806" lon="5.77965">
        <ele>551</ele>
        <time>2021-10-17T16:26:14Z</time>
      </trkpt>
      <trkpt lat="46.57802" lon="5.77951">
        <ele>550.6</ele>
        <time>2021-10-17T16:26:15Z</time>
      </trkpt>
      <trkpt lat="46.57798" lon="5.77938">
        <ele>550.2</ele>
        <time>2021-10-17T16:26:16Z</time>
      </trkpt>
      <trkpt lat="46.57794" lon="5.77924">
        <ele>549.8</ele>
        <time>2021-10-17T16:26:17Z</time>
      </trkpt>
      <trkpt lat="46.57789" lon="5.77911">
        <ele>549.6</ele>
        <time>2021-10-17T16:26:18Z</time>
      </trkpt>
      <trkpt lat="46.57786" lon="5.77898">
        <ele>549.2</ele>
        <time>2021-10-17T16:26:19Z</time>
      </trkpt>
      <trkpt lat="46.57782" lon="5.77884">
        <ele>549</ele>
        <time>2021-10-17T16:26:20Z</time>
      </trkpt>
      <trkpt lat="46.57778" lon="5.77871">
        <ele>548.6</ele>
        <time>2021-10-17T16:26:21Z</time>
      </trkpt>
      <trkpt lat="46.57775" lon="5.77857">
        <ele>548.2</ele>
        <time>2021-10-17T16:26:22Z</time>
      </trkpt>
      <trkpt lat="46.57771" lon="5.77843">
        <ele>547.8</ele>
        <time>2021-10-17T16:26:23Z</time>
      </trkpt>
      <trkpt lat="46.57762" lon="5.77819">
        <ele>547</ele>
        <time>2021-10-17T16:26:24Z</time>
      </trkpt>
      <trkpt lat="46.57756" lon="5.77806">
        <ele>546.4</ele>
        <time>2021-10-17T16:26:25Z</time>
      </trkpt>
      <trkpt lat="46.5775" lon="5.77792">
        <ele>546</ele>
        <time>2021-10-17T16:26:26Z</time>
      </trkpt>
      <trkpt lat="46.57744" lon="5.77781">
        <ele>545.4</ele>
        <time>2021-10-17T16:26:27Z</time>
      </trkpt>
      <trkpt lat="46.57736" lon="5.7777">
        <ele>545</ele>
        <time>2021-10-17T16:26:28Z</time>
      </trkpt>
      <trkpt lat="46.57728" lon="5.77762">
        <ele>544.6</ele>
        <time>2021-10-17T16:26:29Z</time>
      </trkpt>
      <trkpt lat="46.57719" lon="5.77755">
        <ele>544</ele>
        <time>2021-10-17T16:26:30Z</time>
      </trkpt>
      <trkpt lat="46.5771" lon="5.77748">
        <ele>543.6</ele>
        <time>2021-10-17T16:26:31Z</time>
      </trkpt>
      <trkpt lat="46.577" lon="5.77741">
        <ele>543.2</ele>
        <time>2021-10-17T16:26:32Z</time>
      </trkpt>
      <trkpt lat="46.57691" lon="5.77735">
        <ele>543</ele>
        <time>2021-10-17T16:26:33Z</time>
      </trkpt>
      <trkpt lat="46.57682" lon="5.77728">
        <ele>542.6</ele>
        <time>2021-10-17T16:26:34Z</time>
      </trkpt>
      <trkpt lat="46.57673" lon="5.77722">
        <ele>542.6</ele>
        <time>2021-10-17T16:26:35Z</time>
      </trkpt>
      <trkpt lat="46.57665" lon="5.77716">
        <ele>542.4</ele>
        <time>2021-10-17T16:26:36Z</time>
      </trkpt>
      <trkpt lat="46.57657" lon="5.7771">
        <ele>542.4</ele>
        <time>2021-10-17T16:26:37Z</time>
      </trkpt>
      <trkpt lat="46.57651" lon="5.77705">
        <ele>542.4</ele>
        <time>2021-10-17T16:26:38Z</time>
      </trkpt>
      <trkpt lat="46.57645" lon="5.777">
        <ele>542.4</ele>
        <time>2021-10-17T16:26:39Z</time>
      </trkpt>
      <trkpt lat="46.5764" lon="5.77694">
        <ele>542.4</ele>
        <time>2021-10-17T16:26:40Z</time>
      </trkpt>
      <trkpt lat="46.57634" lon="5.77687">
        <ele>542.4</ele>
        <time>2021-10-17T16:26:41Z</time>
      </trkpt>
      <trkpt lat="46.5763" lon="5.7768">
        <ele>542.4</ele>
        <time>2021-10-17T16:26:42Z</time>
      </trkpt>
      <trkpt lat="46.57627" lon="5.77673">
        <ele>542.4</ele>
        <time>2021-10-17T16:26:43Z</time>
      </trkpt>
      <trkpt lat="46.57625" lon="5.77666">
        <ele>542.8</ele>
        <time>2021-10-17T16:26:44Z</time>
      </trkpt>
      <trkpt lat="46.57624" lon="5.77658">
        <ele>543</ele>
        <time>2021-10-17T16:26:45Z</time>
      </trkpt>
      <trkpt lat="46.57623" lon="5.77651">
        <ele>543.2</ele>
        <time>2021-10-17T16:26:46Z</time>
      </trkpt>
      <trkpt lat="46.57623" lon="5.77644">
        <ele>543.2</ele>
        <time>2021-10-17T16:26:47Z</time>
      </trkpt>
      <trkpt lat="46.57623" lon="5.77638">
        <ele>543.6</ele>
        <time>2021-10-17T16:26:48Z</time>
      </trkpt>
      <trkpt lat="46.57623" lon="5.77631">
        <ele>543.6</ele>
        <time>2021-10-17T16:26:49Z</time>
      </trkpt>
      <trkpt lat="46.57623" lon="5.77625">
        <ele>544</ele>
        <time>2021-10-17T16:26:50Z</time>
      </trkpt>
      <trkpt lat="46.57623" lon="5.77619">
        <ele>544</ele>
        <time>2021-10-17T16:26:51Z</time>
      </trkpt>
      <trkpt lat="46.57623" lon="5.77613">
        <ele>544.2</ele>
        <time>2021-10-17T16:26:52Z</time>
      </trkpt>
      <trkpt lat="46.57623" lon="5.77607">
        <ele>544.2</ele>
        <time>2021-10-17T16:26:53Z</time>
      </trkpt>
      <trkpt lat="46.57623" lon="5.776">
        <ele>544.4</ele>
        <time>2021-10-17T16:26:54Z</time>
      </trkpt>
      <trkpt lat="46.57622" lon="5.77593">
        <ele>544.6</ele>
        <time>2021-10-17T16:26:55Z</time>
      </trkpt>
      <trkpt lat="46.57621" lon="5.77586">
        <ele>544.6</ele>
        <time>2021-10-17T16:26:56Z</time>
      </trkpt>
      <trkpt lat="46.57621" lon="5.77579">
        <ele>544.6</ele>
        <time>2021-10-17T16:26:57Z</time>
      </trkpt>
      <trkpt lat="46.5762" lon="5.77571">
        <ele>544.8</ele>
        <time>2021-10-17T16:26:58Z</time>
      </trkpt>
      <trkpt lat="46.5762" lon="5.77564">
        <ele>544.8</ele>
        <time>2021-10-17T16:26:59Z</time>
      </trkpt>
      <trkpt lat="46.57619" lon="5.77556">
        <ele>544.8</ele>
        <time>2021-10-17T16:27:00Z</time>
      </trkpt>
      <trkpt lat="46.57619" lon="5.77548">
        <ele>544.8</ele>
        <time>2021-10-17T16:27:01Z</time>
      </trkpt>
      <trkpt lat="46.57618" lon="5.77539">
        <ele>544.8</ele>
        <time>2021-10-17T16:27:02Z</time>
      </trkpt>
      <trkpt lat="46.57618" lon="5.77531">
        <ele>544.8</ele>
        <time>2021-10-17T16:27:03Z</time>
      </trkpt>
      <trkpt lat="46.57617" lon="5.77521">
        <ele>544.8</ele>
        <time>2021-10-17T16:27:04Z</time>
      </trkpt>
      <trkpt lat="46.57616" lon="5.77511">
        <ele>544.8</ele>
        <time>2021-10-17T16:27:05Z</time>
      </trkpt>
      <trkpt lat="46.57615" lon="5.77501">
        <ele>544.8</ele>
        <time>2021-10-17T16:27:06Z</time>
      </trkpt>
      <trkpt lat="46.57614" lon="5.77491">
        <ele>544.8</ele>
        <time>2021-10-17T16:27:07Z</time>
      </trkpt>
      <trkpt lat="46.57612" lon="5.7748">
        <ele>544.8</ele>
        <time>2021-10-17T16:27:08Z</time>
      </trkpt>
      <trkpt lat="46.5761" lon="5.7747">
        <ele>544.8</ele>
        <time>2021-10-17T16:27:09Z</time>
      </trkpt>
      <trkpt lat="46.57608" lon="5.7746">
        <ele>544.8</ele>
        <time>2021-10-17T16:27:10Z</time>
      </trkpt>
      <trkpt lat="46.57607" lon="5.77449">
        <ele>544.8</ele>
        <time>2021-10-17T16:27:11Z</time>
      </trkpt>
      <trkpt lat="46.57605" lon="5.77439">
        <ele>544.6</ele>
        <time>2021-10-17T16:27:12Z</time>
      </trkpt>
      <trkpt lat="46.57603" lon="5.77429">
        <ele>544.6</ele>
        <time>2021-10-17T16:27:13Z</time>
      </trkpt>
      <trkpt lat="46.57601" lon="5.77418">
        <ele>544.6</ele>
        <time>2021-10-17T16:27:14Z</time>
      </trkpt>
      <trkpt lat="46.576" lon="5.77407">
        <ele>544.6</ele>
        <time>2021-10-17T16:27:15Z</time>
      </trkpt>
      <trkpt lat="46.57599" lon="5.77396">
        <ele>544.6</ele>
        <time>2021-10-17T16:27:16Z</time>
      </trkpt>
      <trkpt lat="46.57598" lon="5.77385">
        <ele>544.6</ele>
        <time>2021-10-17T16:27:17Z</time>
      </trkpt>
      <trkpt lat="46.57596" lon="5.77374">
        <ele>544.6</ele>
        <time>2021-10-17T16:27:18Z</time>
      </trkpt>
      <trkpt lat="46.57595" lon="5.77363">
        <ele>544.6</ele>
        <time>2021-10-17T16:27:19Z</time>
      </trkpt>
      <trkpt lat="46.57593" lon="5.77353">
        <ele>544.6</ele>
        <time>2021-10-17T16:27:20Z</time>
      </trkpt>
      <trkpt lat="46.57591" lon="5.77342">
        <ele>544.4</ele>
        <time>2021-10-17T16:27:21Z</time>
      </trkpt>
      <trkpt lat="46.5759" lon="5.77331">
        <ele>544.4</ele>
        <time>2021-10-17T16:27:22Z</time>
      </trkpt>
      <trkpt lat="46.57588" lon="5.7732">
        <ele>544</ele>
        <time>2021-10-17T16:27:23Z</time>
      </trkpt>
      <trkpt lat="46.57586" lon="5.7731">
        <ele>544</ele>
        <time>2021-10-17T16:27:24Z</time>
      </trkpt>
      <trkpt lat="46.57585" lon="5.77299">
        <ele>544</ele>
        <time>2021-10-17T16:27:25Z</time>
      </trkpt>
      <trkpt lat="46.57583" lon="5.77288">
        <ele>544</ele>
        <time>2021-10-17T16:27:26Z</time>
      </trkpt>
      <trkpt lat="46.57582" lon="5.77277">
        <ele>544</ele>
        <time>2021-10-17T16:27:27Z</time>
      </trkpt>
      <trkpt lat="46.5758" lon="5.77266">
        <ele>543.8</ele>
        <time>2021-10-17T16:27:28Z</time>
      </trkpt>
      <trkpt lat="46.57578" lon="5.77254">
        <ele>543.8</ele>
        <time>2021-10-17T16:27:29Z</time>
      </trkpt>
      <trkpt lat="46.57577" lon="5.77243">
        <ele>543.6</ele>
        <time>2021-10-17T16:27:30Z</time>
      </trkpt>
      <trkpt lat="46.57575" lon="5.77232">
        <ele>543.6</ele>
        <time>2021-10-17T16:27:31Z</time>
      </trkpt>
      <trkpt lat="46.57573" lon="5.77221">
        <ele>543.6</ele>
        <time>2021-10-17T16:27:32Z</time>
      </trkpt>
      <trkpt lat="46.57571" lon="5.7721">
        <ele>543.4</ele>
        <time>2021-10-17T16:27:33Z</time>
      </trkpt>
      <trkpt lat="46.5757" lon="5.77199">
        <ele>543.4</ele>
        <time>2021-10-17T16:27:34Z</time>
      </trkpt>
      <trkpt lat="46.57569" lon="5.77188">
        <ele>543.4</ele>
        <time>2021-10-17T16:27:35Z</time>
      </trkpt>
      <trkpt lat="46.57567" lon="5.77177">
        <ele>543.4</ele>
        <time>2021-10-17T16:27:36Z</time>
      </trkpt>
      <trkpt lat="46.57566" lon="5.77166">
        <ele>543.4</ele>
        <time>2021-10-17T16:27:37Z</time>
      </trkpt>
      <trkpt lat="46.57564" lon="5.77155">
        <ele>543.4</ele>
        <time>2021-10-17T16:27:38Z</time>
      </trkpt>
      <trkpt lat="46.57563" lon="5.77144">
        <ele>543.4</ele>
        <time>2021-10-17T16:27:39Z</time>
      </trkpt>
      <trkpt lat="46.57561" lon="5.77134">
        <ele>543.2</ele>
        <time>2021-10-17T16:27:40Z</time>
      </trkpt>
      <trkpt lat="46.57559" lon="5.77123">
        <ele>543.2</ele>
        <time>2021-10-17T16:27:41Z</time>
      </trkpt>
      <trkpt lat="46.57558" lon="5.77113">
        <ele>543.2</ele>
        <time>2021-10-17T16:27:42Z</time>
      </trkpt>
      <trkpt lat="46.57556" lon="5.77103">
        <ele>543.2</ele>
        <time>2021-10-17T16:27:43Z</time>
      </trkpt>
      <trkpt lat="46.57554" lon="5.77094">
        <ele>543.2</ele>
        <time>2021-10-17T16:27:44Z</time>
      </trkpt>
      <trkpt lat="46.57553" lon="5.77084">
        <ele>543.2</ele>
        <time>2021-10-17T16:27:45Z</time>
      </trkpt>
      <trkpt lat="46.57551" lon="5.77074">
        <ele>543.2</ele>
        <time>2021-10-17T16:27:46Z</time>
      </trkpt>
      <trkpt lat="46.57549" lon="5.77064">
        <ele>543.2</ele>
        <time>2021-10-17T16:27:47Z</time>
      </trkpt>
      <trkpt lat="46.57548" lon="5.77055">
        <ele>543.4</ele>
        <time>2021-10-17T16:27:48Z</time>
      </trkpt>
      <trkpt lat="46.57547" lon="5.77045">
        <ele>543.4</ele>
        <time>2021-10-17T16:27:49Z</time>
      </trkpt>
      <trkpt lat="46.57546" lon="5.77036">
        <ele>543.4</ele>
        <time>2021-10-17T16:27:50Z</time>
      </trkpt>
      <trkpt lat="46.57545" lon="5.77027">
        <ele>543.6</ele>
        <time>2021-10-17T16:27:51Z</time>
      </trkpt>
      <trkpt lat="46.57544" lon="5.77018">
        <ele>543.6</ele>
        <time>2021-10-17T16:27:52Z</time>
      </trkpt>
      <trkpt lat="46.57543" lon="5.7701">
        <ele>543.6</ele>
        <time>2021-10-17T16:27:53Z</time>
      </trkpt>
      <trkpt lat="46.57541" lon="5.77001">
        <ele>544</ele>
        <time>2021-10-17T16:27:54Z</time>
      </trkpt>
      <trkpt lat="46.5754" lon="5.76993">
        <ele>544</ele>
        <time>2021-10-17T16:27:55Z</time>
      </trkpt>
      <trkpt lat="46.57539" lon="5.76985">
        <ele>544.2</ele>
        <time>2021-10-17T16:27:56Z</time>
      </trkpt>
      <trkpt lat="46.57538" lon="5.76976">
        <ele>544.2</ele>
        <time>2021-10-17T16:27:57Z</time>
      </trkpt>
      <trkpt lat="46.57537" lon="5.76968">
        <ele>544.2</ele>
        <time>2021-10-17T16:27:58Z</time>
      </trkpt>
      <trkpt lat="46.57536" lon="5.7696">
        <ele>544.4</ele>
        <time>2021-10-17T16:27:59Z</time>
      </trkpt>
      <trkpt lat="46.57535" lon="5.76952">
        <ele>544.4</ele>
        <time>2021-10-17T16:28:00Z</time>
      </trkpt>
      <trkpt lat="46.57534" lon="5.76944">
        <ele>544.6</ele>
        <time>2021-10-17T16:28:01Z</time>
      </trkpt>
      <trkpt lat="46.57533" lon="5.76937">
        <ele>544.6</ele>
        <time>2021-10-17T16:28:02Z</time>
      </trkpt>
      <trkpt lat="46.57532" lon="5.76929">
        <ele>544.6</ele>
        <time>2021-10-17T16:28:03Z</time>
      </trkpt>
      <trkpt lat="46.5753" lon="5.76922">
        <ele>545</ele>
        <time>2021-10-17T16:28:04Z</time>
      </trkpt>
      <trkpt lat="46.57529" lon="5.76914">
        <ele>545</ele>
        <time>2021-10-17T16:28:05Z</time>
      </trkpt>
      <trkpt lat="46.57528" lon="5.76907">
        <ele>545.2</ele>
        <time>2021-10-17T16:28:06Z</time>
      </trkpt>
      <trkpt lat="46.57527" lon="5.769">
        <ele>545.2</ele>
        <time>2021-10-17T16:28:07Z</time>
      </trkpt>
      <trkpt lat="46.57525" lon="5.76894">
        <ele>545.6</ele>
        <time>2021-10-17T16:28:08Z</time>
      </trkpt>
      <trkpt lat="46.57524" lon="5.76887">
        <ele>545.6</ele>
        <time>2021-10-17T16:28:09Z</time>
      </trkpt>
      <trkpt lat="46.57523" lon="5.7688">
        <ele>545.8</ele>
        <time>2021-10-17T16:28:10Z</time>
      </trkpt>
      <trkpt lat="46.57522" lon="5.76873">
        <ele>545.8</ele>
        <time>2021-10-17T16:28:11Z</time>
      </trkpt>
      <trkpt lat="46.57521" lon="5.76867">
        <ele>546</ele>
        <time>2021-10-17T16:28:12Z</time>
      </trkpt>
      <trkpt lat="46.5752" lon="5.7686">
        <ele>546</ele>
        <time>2021-10-17T16:28:13Z</time>
      </trkpt>
      <trkpt lat="46.57519" lon="5.76854">
        <ele>546.4</ele>
        <time>2021-10-17T16:28:14Z</time>
      </trkpt>
      <trkpt lat="46.57517" lon="5.76847">
        <ele>546.4</ele>
        <time>2021-10-17T16:28:15Z</time>
      </trkpt>
      <trkpt lat="46.57516" lon="5.76841">
        <ele>546.6</ele>
        <time>2021-10-17T16:28:16Z</time>
      </trkpt>
      <trkpt lat="46.57515" lon="5.76835">
        <ele>546.6</ele>
        <time>2021-10-17T16:28:17Z</time>
      </trkpt>
      <trkpt lat="46.57514" lon="5.76829">
        <ele>546.6</ele>
        <time>2021-10-17T16:28:18Z</time>
      </trkpt>
      <trkpt lat="46.57512" lon="5.76823">
        <ele>546.6</ele>
        <time>2021-10-17T16:28:19Z</time>
      </trkpt>
      <trkpt lat="46.5751" lon="5.76817">
        <ele>546.8</ele>
        <time>2021-10-17T16:28:20Z</time>
      </trkpt>
      <trkpt lat="46.57509" lon="5.76811">
        <ele>546.8</ele>
        <time>2021-10-17T16:28:21Z</time>
      </trkpt>
      <trkpt lat="46.57507" lon="5.76806">
        <ele>546.8</ele>
        <time>2021-10-17T16:28:22Z</time>
      </trkpt>
      <trkpt lat="46.57506" lon="5.768">
        <ele>547</ele>
        <time>2021-10-17T16:28:23Z</time>
      </trkpt>
      <trkpt lat="46.57505" lon="5.76794">
        <ele>547</ele>
        <time>2021-10-17T16:28:24Z</time>
      </trkpt>
      <trkpt lat="46.57503" lon="5.76787">
        <ele>547</ele>
        <time>2021-10-17T16:28:25Z</time>
      </trkpt>
      <trkpt lat="46.57502" lon="5.76781">
        <ele>547.4</ele>
        <time>2021-10-17T16:28:26Z</time>
      </trkpt>
      <trkpt lat="46.575" lon="5.76775">
        <ele>547.4</ele>
        <time>2021-10-17T16:28:27Z</time>
      </trkpt>
      <trkpt lat="46.57499" lon="5.76769">
        <ele>547.8</ele>
        <time>2021-10-17T16:28:28Z</time>
      </trkpt>
      <trkpt lat="46.57497" lon="5.76764">
        <ele>547.8</ele>
        <time>2021-10-17T16:28:29Z</time>
      </trkpt>
      <trkpt lat="46.57496" lon="5.76758">
        <ele>548</ele>
        <time>2021-10-17T16:28:30Z</time>
      </trkpt>
      <trkpt lat="46.57495" lon="5.76753">
        <ele>548</ele>
        <time>2021-10-17T16:28:31Z</time>
      </trkpt>
      <trkpt lat="46.57494" lon="5.76747">
        <ele>548</ele>
        <time>2021-10-17T16:28:32Z</time>
      </trkpt>
      <trkpt lat="46.57493" lon="5.76741">
        <ele>548.2</ele>
        <time>2021-10-17T16:28:33Z</time>
      </trkpt>
      <trkpt lat="46.57492" lon="5.76735">
        <ele>548.2</ele>
        <time>2021-10-17T16:28:34Z</time>
      </trkpt>
      <trkpt lat="46.57491" lon="5.76729">
        <ele>548.6</ele>
        <time>2021-10-17T16:28:35Z</time>
      </trkpt>
      <trkpt lat="46.57491" lon="5.76723">
        <ele>548.6</ele>
        <time>2021-10-17T16:28:36Z</time>
      </trkpt>
      <trkpt lat="46.5749" lon="5.76717">
        <ele>548.6</ele>
        <time>2021-10-17T16:28:37Z</time>
      </trkpt>
      <trkpt lat="46.57489" lon="5.7671">
        <ele>548.8</ele>
        <time>2021-10-17T16:28:38Z</time>
      </trkpt>
      <trkpt lat="46.57489" lon="5.76704">
        <ele>548.8</ele>
        <time>2021-10-17T16:28:39Z</time>
      </trkpt>
      <trkpt lat="46.57488" lon="5.76698">
        <ele>548.8</ele>
        <time>2021-10-17T16:28:40Z</time>
      </trkpt>
      <trkpt lat="46.57488" lon="5.76691">
        <ele>549</ele>
        <time>2021-10-17T16:28:41Z</time>
      </trkpt>
      <trkpt lat="46.57488" lon="5.76684">
        <ele>549</ele>
        <time>2021-10-17T16:28:42Z</time>
      </trkpt>
      <trkpt lat="46.57487" lon="5.76677">
        <ele>549</ele>
        <time>2021-10-17T16:28:43Z</time>
      </trkpt>
      <trkpt lat="46.57487" lon="5.7667">
        <ele>549.4</ele>
        <time>2021-10-17T16:28:44Z</time>
      </trkpt>
      <trkpt lat="46.57486" lon="5.76662">
        <ele>549.4</ele>
        <time>2021-10-17T16:28:45Z</time>
      </trkpt>
      <trkpt lat="46.57486" lon="5.76654">
        <ele>549.4</ele>
        <time>2021-10-17T16:28:46Z</time>
      </trkpt>
      <trkpt lat="46.57486" lon="5.76646">
        <ele>549.4</ele>
        <time>2021-10-17T16:28:47Z</time>
      </trkpt>
      <trkpt lat="46.57486" lon="5.76637">
        <ele>549.4</ele>
        <time>2021-10-17T16:28:48Z</time>
      </trkpt>
      <trkpt lat="46.57486" lon="5.76629">
        <ele>549.4</ele>
        <time>2021-10-17T16:28:49Z</time>
      </trkpt>
      <trkpt lat="46.57486" lon="5.76621">
        <ele>549.4</ele>
        <time>2021-10-17T16:28:50Z</time>
      </trkpt>
      <trkpt lat="46.57485" lon="5.76613">
        <ele>549.4</ele>
        <time>2021-10-17T16:28:51Z</time>
      </trkpt>
      <trkpt lat="46.57485" lon="5.76604">
        <ele>549.4</ele>
        <time>2021-10-17T16:28:52Z</time>
      </trkpt>
      <trkpt lat="46.57484" lon="5.76596">
        <ele>549.4</ele>
        <time>2021-10-17T16:28:53Z</time>
      </trkpt>
      <trkpt lat="46.57484" lon="5.76588">
        <ele>549.4</ele>
        <time>2021-10-17T16:28:54Z</time>
      </trkpt>
      <trkpt lat="46.57484" lon="5.76579">
        <ele>549.4</ele>
        <time>2021-10-17T16:28:55Z</time>
      </trkpt>
      <trkpt lat="46.57483" lon="5.76569">
        <ele>549.4</ele>
        <time>2021-10-17T16:28:56Z</time>
      </trkpt>
      <trkpt lat="46.57483" lon="5.7656">
        <ele>549</ele>
        <time>2021-10-17T16:28:57Z</time>
      </trkpt>
      <trkpt lat="46.57483" lon="5.76551">
        <ele>549</ele>
        <time>2021-10-17T16:28:58Z</time>
      </trkpt>
      <trkpt lat="46.57484" lon="5.7654">
        <ele>548.8</ele>
        <time>2021-10-17T16:28:59Z</time>
      </trkpt>
      <trkpt lat="46.57483" lon="5.7653">
        <ele>548.8</ele>
        <time>2021-10-17T16:29:00Z</time>
      </trkpt>
      <trkpt lat="46.57482" lon="5.76519">
        <ele>548.8</ele>
        <time>2021-10-17T16:29:01Z</time>
      </trkpt>
      <trkpt lat="46.5748" lon="5.76509">
        <ele>548.4</ele>
        <time>2021-10-17T16:29:02Z</time>
      </trkpt>
      <trkpt lat="46.57478" lon="5.76499">
        <ele>548.4</ele>
        <time>2021-10-17T16:29:03Z</time>
      </trkpt>
      <trkpt lat="46.57476" lon="5.76489">
        <ele>548.4</ele>
        <time>2021-10-17T16:29:04Z</time>
      </trkpt>
      <trkpt lat="46.57472" lon="5.76479">
        <ele>548</ele>
        <time>2021-10-17T16:29:05Z</time>
      </trkpt>
      <trkpt lat="46.57469" lon="5.76469">
        <ele>548</ele>
        <time>2021-10-17T16:29:06Z</time>
      </trkpt>
      <trkpt lat="46.57465" lon="5.7646">
        <ele>548</ele>
        <time>2021-10-17T16:29:07Z</time>
      </trkpt>
      <trkpt lat="46.57465" lon="5.7646">
        <ele>548</ele>
        <time>2021-10-17T16:29:08Z</time>
      </trkpt>
      <trkpt lat="46.57458" lon="5.76441">
        <ele>547.8</ele>
        <time>2021-10-17T16:29:09Z</time>
      </trkpt>
      <trkpt lat="46.57455" lon="5.76432">
        <ele>547.8</ele>
        <time>2021-10-17T16:29:10Z</time>
      </trkpt>
      <trkpt lat="46.57451" lon="5.76422">
        <ele>547.8</ele>
        <time>2021-10-17T16:29:11Z</time>
      </trkpt>
      <trkpt lat="46.57447" lon="5.76412">
        <ele>547.8</ele>
        <time>2021-10-17T16:29:12Z</time>
      </trkpt>
      <trkpt lat="46.57444" lon="5.76402">
        <ele>547.6</ele>
        <time>2021-10-17T16:29:13Z</time>
      </trkpt>
      <trkpt lat="46.57444" lon="5.76402">
        <ele>547.6</ele>
        <time>2021-10-17T16:29:14Z</time>
      </trkpt>
      <trkpt lat="46.57439" lon="5.76383">
        <ele>547.6</ele>
        <time>2021-10-17T16:29:15Z</time>
      </trkpt>
      <trkpt lat="46.57439" lon="5.76383">
        <ele>547.6</ele>
        <time>2021-10-17T16:29:16Z</time>
      </trkpt>
      <trkpt lat="46.57437" lon="5.76374">
        <ele>547.6</ele>
        <time>2021-10-17T16:29:17Z</time>
      </trkpt>
      <trkpt lat="46.57435" lon="5.76364">
        <ele>547.6</ele>
        <time>2021-10-17T16:29:18Z</time>
      </trkpt>
      <trkpt lat="46.57433" lon="5.76354">
        <ele>547.6</ele>
        <time>2021-10-17T16:29:19Z</time>
      </trkpt>
      <trkpt lat="46.57431" lon="5.76345">
        <ele>547.6</ele>
        <time>2021-10-17T16:29:20Z</time>
      </trkpt>
      <trkpt lat="46.57429" lon="5.76335">
        <ele>547.8</ele>
        <time>2021-10-17T16:29:21Z</time>
      </trkpt>
      <trkpt lat="46.57427" lon="5.76326">
        <ele>547.8</ele>
        <time>2021-10-17T16:29:22Z</time>
      </trkpt>
      <trkpt lat="46.57425" lon="5.76317">
        <ele>547.8</ele>
        <time>2021-10-17T16:29:23Z</time>
      </trkpt>
      <trkpt lat="46.57423" lon="5.76308">
        <ele>548.2</ele>
        <time>2021-10-17T16:29:24Z</time>
      </trkpt>
      <trkpt lat="46.5742" lon="5.763">
        <ele>548.2</ele>
        <time>2021-10-17T16:29:25Z</time>
      </trkpt>
      <trkpt lat="46.57418" lon="5.76291">
        <ele>548.2</ele>
        <time>2021-10-17T16:29:26Z</time>
      </trkpt>
      <trkpt lat="46.57415" lon="5.76283">
        <ele>548.2</ele>
        <time>2021-10-17T16:29:27Z</time>
      </trkpt>
      <trkpt lat="46.57412" lon="5.76275">
        <ele>548.2</ele>
        <time>2021-10-17T16:29:28Z</time>
      </trkpt>
      <trkpt lat="46.57409" lon="5.76267">
        <ele>548.2</ele>
        <time>2021-10-17T16:29:29Z</time>
      </trkpt>
      <trkpt lat="46.57406" lon="5.76259">
        <ele>548.2</ele>
        <time>2021-10-17T16:29:30Z</time>
      </trkpt>
      <trkpt lat="46.57403" lon="5.76251">
        <ele>548.2</ele>
        <time>2021-10-17T16:29:31Z</time>
      </trkpt>
      <trkpt lat="46.574" lon="5.76244">
        <ele>548.2</ele>
        <time>2021-10-17T16:29:32Z</time>
      </trkpt>
      <trkpt lat="46.57397" lon="5.76237">
        <ele>548.2</ele>
        <time>2021-10-17T16:29:33Z</time>
      </trkpt>
      <trkpt lat="46.57393" lon="5.76229">
        <ele>548.2</ele>
        <time>2021-10-17T16:29:34Z</time>
      </trkpt>
      <trkpt lat="46.57389" lon="5.7622">
        <ele>548.2</ele>
        <time>2021-10-17T16:29:35Z</time>
      </trkpt>
      <trkpt lat="46.57386" lon="5.76212">
        <ele>548.2</ele>
        <time>2021-10-17T16:29:36Z</time>
      </trkpt>
      <trkpt lat="46.57383" lon="5.76203">
        <ele>548.2</ele>
        <time>2021-10-17T16:29:37Z</time>
      </trkpt>
      <trkpt lat="46.57381" lon="5.76194">
        <ele>548.2</ele>
        <time>2021-10-17T16:29:38Z</time>
      </trkpt>
      <trkpt lat="46.57379" lon="5.76186">
        <ele>548.2</ele>
        <time>2021-10-17T16:29:39Z</time>
      </trkpt>
      <trkpt lat="46.57377" lon="5.76177">
        <ele>548.2</ele>
        <time>2021-10-17T16:29:40Z</time>
      </trkpt>
      <trkpt lat="46.57375" lon="5.76169">
        <ele>548.2</ele>
        <time>2021-10-17T16:29:41Z</time>
      </trkpt>
      <trkpt lat="46.57374" lon="5.7616">
        <ele>548.2</ele>
        <time>2021-10-17T16:29:42Z</time>
      </trkpt>
      <trkpt lat="46.57372" lon="5.76152">
        <ele>548.2</ele>
        <time>2021-10-17T16:29:43Z</time>
      </trkpt>
      <trkpt lat="46.57371" lon="5.76144">
        <ele>548.2</ele>
        <time>2021-10-17T16:29:44Z</time>
      </trkpt>
      <trkpt lat="46.57371" lon="5.76136">
        <ele>548.4</ele>
        <time>2021-10-17T16:29:45Z</time>
      </trkpt>
      <trkpt lat="46.5737" lon="5.76129">
        <ele>548.4</ele>
        <time>2021-10-17T16:29:46Z</time>
      </trkpt>
      <trkpt lat="46.5737" lon="5.76122">
        <ele>548.4</ele>
        <time>2021-10-17T16:29:47Z</time>
      </trkpt>
      <trkpt lat="46.5737" lon="5.76114">
        <ele>548.6</ele>
        <time>2021-10-17T16:29:48Z</time>
      </trkpt>
      <trkpt lat="46.5737" lon="5.76105">
        <ele>548.6</ele>
        <time>2021-10-17T16:29:49Z</time>
      </trkpt>
      <trkpt lat="46.5737" lon="5.76096">
        <ele>548.6</ele>
        <time>2021-10-17T16:29:50Z</time>
      </trkpt>
      <trkpt lat="46.5737" lon="5.76087">
        <ele>548.8</ele>
        <time>2021-10-17T16:29:51Z</time>
      </trkpt>
      <trkpt lat="46.57369" lon="5.76077">
        <ele>548.8</ele>
        <time>2021-10-17T16:29:52Z</time>
      </trkpt>
      <trkpt lat="46.57368" lon="5.76068">
        <ele>548.8</ele>
        <time>2021-10-17T16:29:53Z</time>
      </trkpt>
      <trkpt lat="46.57366" lon="5.76058">
        <ele>548.8</ele>
        <time>2021-10-17T16:29:54Z</time>
      </trkpt>
      <trkpt lat="46.57364" lon="5.76049">
        <ele>548.8</ele>
        <time>2021-10-17T16:29:55Z</time>
      </trkpt>
      <trkpt lat="46.57361" lon="5.7604">
        <ele>548.8</ele>
        <time>2021-10-17T16:29:56Z</time>
      </trkpt>
      <trkpt lat="46.57359" lon="5.76031">
        <ele>548.6</ele>
        <time>2021-10-17T16:29:57Z</time>
      </trkpt>
      <trkpt lat="46.57356" lon="5.76022">
        <ele>548.6</ele>
        <time>2021-10-17T16:29:58Z</time>
      </trkpt>
      <trkpt lat="46.57354" lon="5.76012">
        <ele>548.6</ele>
        <time>2021-10-17T16:29:59Z</time>
      </trkpt>
      <trkpt lat="46.57351" lon="5.76002">
        <ele>548.4</ele>
        <time>2021-10-17T16:30:00Z</time>
      </trkpt>
      <trkpt lat="46.57349" lon="5.75992">
        <ele>548.4</ele>
        <time>2021-10-17T16:30:01Z</time>
      </trkpt>
      <trkpt lat="46.57348" lon="5.75982">
        <ele>548.4</ele>
        <time>2021-10-17T16:30:02Z</time>
      </trkpt>
      <trkpt lat="46.57347" lon="5.75971">
        <ele>548.4</ele>
        <time>2021-10-17T16:30:03Z</time>
      </trkpt>
      <trkpt lat="46.57347" lon="5.75961">
        <ele>548.4</ele>
        <time>2021-10-17T16:30:04Z</time>
      </trkpt>
      <trkpt lat="46.57346" lon="5.7595">
        <ele>548.4</ele>
        <time>2021-10-17T16:30:05Z</time>
      </trkpt>
      <trkpt lat="46.57347" lon="5.75939">
        <ele>548.2</ele>
        <time>2021-10-17T16:30:06Z</time>
      </trkpt>
      <trkpt lat="46.57348" lon="5.75928">
        <ele>548.2</ele>
        <time>2021-10-17T16:30:07Z</time>
      </trkpt>
      <trkpt lat="46.57349" lon="5.75918">
        <ele>548.2</ele>
        <time>2021-10-17T16:30:08Z</time>
      </trkpt>
      <trkpt lat="46.5735" lon="5.75907">
        <ele>548.2</ele>
        <time>2021-10-17T16:30:09Z</time>
      </trkpt>
      <trkpt lat="46.57352" lon="5.75897">
        <ele>548</ele>
        <time>2021-10-17T16:30:10Z</time>
      </trkpt>
      <trkpt lat="46.57353" lon="5.75887">
        <ele>548</ele>
        <time>2021-10-17T16:30:11Z</time>
      </trkpt>
      <trkpt lat="46.57355" lon="5.75877">
        <ele>548</ele>
        <time>2021-10-17T16:30:12Z</time>
      </trkpt>
      <trkpt lat="46.57356" lon="5.75866">
        <ele>548</ele>
        <time>2021-10-17T16:30:13Z</time>
      </trkpt>
      <trkpt lat="46.57356" lon="5.75856">
        <ele>548</ele>
        <time>2021-10-17T16:30:14Z</time>
      </trkpt>
      <trkpt lat="46.57356" lon="5.75846">
        <ele>548</ele>
        <time>2021-10-17T16:30:15Z</time>
      </trkpt>
      <trkpt lat="46.57356" lon="5.75835">
        <ele>548</ele>
        <time>2021-10-17T16:30:16Z</time>
      </trkpt>
      <trkpt lat="46.57355" lon="5.75825">
        <ele>548</ele>
        <time>2021-10-17T16:30:17Z</time>
      </trkpt>
      <trkpt lat="46.57353" lon="5.75815">
        <ele>548</ele>
        <time>2021-10-17T16:30:18Z</time>
      </trkpt>
      <trkpt lat="46.57351" lon="5.75805">
        <ele>548</ele>
        <time>2021-10-17T16:30:19Z</time>
      </trkpt>
      <trkpt lat="46.57349" lon="5.75795">
        <ele>548</ele>
        <time>2021-10-17T16:30:20Z</time>
      </trkpt>
      <trkpt lat="46.57347" lon="5.75787">
        <ele>548.2</ele>
        <time>2021-10-17T16:30:21Z</time>
      </trkpt>
      <trkpt lat="46.57343" lon="5.75778">
        <ele>548.2</ele>
        <time>2021-10-17T16:30:22Z</time>
      </trkpt>
      <trkpt lat="46.5734" lon="5.7577">
        <ele>548.2</ele>
        <time>2021-10-17T16:30:23Z</time>
      </trkpt>
      <trkpt lat="46.57337" lon="5.75762">
        <ele>548.4</ele>
        <time>2021-10-17T16:30:24Z</time>
      </trkpt>
      <trkpt lat="46.57334" lon="5.75753">
        <ele>548.4</ele>
        <time>2021-10-17T16:30:25Z</time>
      </trkpt>
      <trkpt lat="46.57332" lon="5.75745">
        <ele>548.4</ele>
        <time>2021-10-17T16:30:26Z</time>
      </trkpt>
      <trkpt lat="46.57329" lon="5.75736">
        <ele>548.4</ele>
        <time>2021-10-17T16:30:27Z</time>
      </trkpt>
      <trkpt lat="46.57327" lon="5.75728">
        <ele>548.4</ele>
        <time>2021-10-17T16:30:28Z</time>
      </trkpt>
      <trkpt lat="46.57326" lon="5.75719">
        <ele>548.8</ele>
        <time>2021-10-17T16:30:29Z</time>
      </trkpt>
      <trkpt lat="46.57325" lon="5.75711">
        <ele>548.8</ele>
        <time>2021-10-17T16:30:30Z</time>
      </trkpt>
      <trkpt lat="46.57324" lon="5.75702">
        <ele>548.8</ele>
        <time>2021-10-17T16:30:31Z</time>
      </trkpt>
      <trkpt lat="46.57324" lon="5.75693">
        <ele>548.8</ele>
        <time>2021-10-17T16:30:32Z</time>
      </trkpt>
      <trkpt lat="46.57324" lon="5.75684">
        <ele>549</ele>
        <time>2021-10-17T16:30:33Z</time>
      </trkpt>
      <trkpt lat="46.57325" lon="5.75675">
        <ele>549</ele>
        <time>2021-10-17T16:30:34Z</time>
      </trkpt>
      <trkpt lat="46.57325" lon="5.75665">
        <ele>549</ele>
        <time>2021-10-17T16:30:35Z</time>
      </trkpt>
      <trkpt lat="46.57327" lon="5.75656">
        <ele>549</ele>
        <time>2021-10-17T16:30:36Z</time>
      </trkpt>
      <trkpt lat="46.57328" lon="5.75647">
        <ele>549</ele>
        <time>2021-10-17T16:30:37Z</time>
      </trkpt>
      <trkpt lat="46.57329" lon="5.75638">
        <ele>549.2</ele>
        <time>2021-10-17T16:30:38Z</time>
      </trkpt>
      <trkpt lat="46.5733" lon="5.75629">
        <ele>549.2</ele>
        <time>2021-10-17T16:30:39Z</time>
      </trkpt>
      <trkpt lat="46.57332" lon="5.7562">
        <ele>549.2</ele>
        <time>2021-10-17T16:30:40Z</time>
      </trkpt>
      <trkpt lat="46.57332" lon="5.75611">
        <ele>549.2</ele>
        <time>2021-10-17T16:30:41Z</time>
      </trkpt>
      <trkpt lat="46.57333" lon="5.75602">
        <ele>549.4</ele>
        <time>2021-10-17T16:30:42Z</time>
      </trkpt>
      <trkpt lat="46.57333" lon="5.75593">
        <ele>549.4</ele>
        <time>2021-10-17T16:30:43Z</time>
      </trkpt>
      <trkpt lat="46.57332" lon="5.75584">
        <ele>549.4</ele>
        <time>2021-10-17T16:30:44Z</time>
      </trkpt>
      <trkpt lat="46.57332" lon="5.75576">
        <ele>549.6</ele>
        <time>2021-10-17T16:30:45Z</time>
      </trkpt>
      <trkpt lat="46.5733" lon="5.75567">
        <ele>549.6</ele>
        <time>2021-10-17T16:30:46Z</time>
      </trkpt>
      <trkpt lat="46.57329" lon="5.75558">
        <ele>549.6</ele>
        <time>2021-10-17T16:30:47Z</time>
      </trkpt>
      <trkpt lat="46.57328" lon="5.7555">
        <ele>549.6</ele>
        <time>2021-10-17T16:30:48Z</time>
      </trkpt>
      <trkpt lat="46.57326" lon="5.75542">
        <ele>549.8</ele>
        <time>2021-10-17T16:30:49Z</time>
      </trkpt>
      <trkpt lat="46.57324" lon="5.75533">
        <ele>549.8</ele>
        <time>2021-10-17T16:30:50Z</time>
      </trkpt>
      <trkpt lat="46.57323" lon="5.75525">
        <ele>549.8</ele>
        <time>2021-10-17T16:30:51Z</time>
      </trkpt>
      <trkpt lat="46.57321" lon="5.75517">
        <ele>549.8</ele>
        <time>2021-10-17T16:30:52Z</time>
      </trkpt>
      <trkpt lat="46.57319" lon="5.75508">
        <ele>549.8</ele>
        <time>2021-10-17T16:30:53Z</time>
      </trkpt>
      <trkpt lat="46.57317" lon="5.755">
        <ele>550</ele>
        <time>2021-10-17T16:30:54Z</time>
      </trkpt>
      <trkpt lat="46.57316" lon="5.75492">
        <ele>550</ele>
        <time>2021-10-17T16:30:55Z</time>
      </trkpt>
      <trkpt lat="46.57314" lon="5.75484">
        <ele>550.2</ele>
        <time>2021-10-17T16:30:56Z</time>
      </trkpt>
      <trkpt lat="46.57313" lon="5.75475">
        <ele>550.2</ele>
        <time>2021-10-17T16:30:57Z</time>
      </trkpt>
      <trkpt lat="46.57312" lon="5.75467">
        <ele>550.6</ele>
        <time>2021-10-17T16:30:58Z</time>
      </trkpt>
      <trkpt lat="46.57312" lon="5.75459">
        <ele>550.6</ele>
        <time>2021-10-17T16:30:59Z</time>
      </trkpt>
      <trkpt lat="46.57313" lon="5.7545">
        <ele>550.8</ele>
        <time>2021-10-17T16:31:00Z</time>
      </trkpt>
      <trkpt lat="46.57314" lon="5.75442">
        <ele>550.8</ele>
        <time>2021-10-17T16:31:01Z</time>
      </trkpt>
      <trkpt lat="46.57316" lon="5.75434">
        <ele>550.8</ele>
        <time>2021-10-17T16:31:02Z</time>
      </trkpt>
      <trkpt lat="46.57318" lon="5.75425">
        <ele>550.8</ele>
        <time>2021-10-17T16:31:03Z</time>
      </trkpt>
      <trkpt lat="46.57319" lon="5.75417">
        <ele>550.8</ele>
        <time>2021-10-17T16:31:04Z</time>
      </trkpt>
      <trkpt lat="46.57321" lon="5.7541">
        <ele>551</ele>
        <time>2021-10-17T16:31:05Z</time>
      </trkpt>
      <trkpt lat="46.57323" lon="5.75402">
        <ele>551</ele>
        <time>2021-10-17T16:31:06Z</time>
      </trkpt>
      <trkpt lat="46.57325" lon="5.75394">
        <ele>551</ele>
        <time>2021-10-17T16:31:07Z</time>
      </trkpt>
      <trkpt lat="46.57327" lon="5.75387">
        <ele>551</ele>
        <time>2021-10-17T16:31:08Z</time>
      </trkpt>
      <trkpt lat="46.57327" lon="5.75379">
        <ele>551</ele>
        <time>2021-10-17T16:31:09Z</time>
      </trkpt>
      <trkpt lat="46.57327" lon="5.75372">
        <ele>551</ele>
        <time>2021-10-17T16:31:10Z</time>
      </trkpt>
      <trkpt lat="46.57326" lon="5.75364">
        <ele>551</ele>
        <time>2021-10-17T16:31:11Z</time>
      </trkpt>
      <trkpt lat="46.57325" lon="5.75356">
        <ele>551</ele>
        <time>2021-10-17T16:31:12Z</time>
      </trkpt>
      <trkpt lat="46.57324" lon="5.75349">
        <ele>550.8</ele>
        <time>2021-10-17T16:31:13Z</time>
      </trkpt>
      <trkpt lat="46.57322" lon="5.75342">
        <ele>550.8</ele>
        <time>2021-10-17T16:31:14Z</time>
      </trkpt>
      <trkpt lat="46.57322" lon="5.75335">
        <ele>550.6</ele>
        <time>2021-10-17T16:31:15Z</time>
      </trkpt>
      <trkpt lat="46.57322" lon="5.75329">
        <ele>550.6</ele>
        <time>2021-10-17T16:31:16Z</time>
      </trkpt>
      <trkpt lat="46.57323" lon="5.75322">
        <ele>550.2</ele>
        <time>2021-10-17T16:31:17Z</time>
      </trkpt>
      <trkpt lat="46.57326" lon="5.75315">
        <ele>550.2</ele>
        <time>2021-10-17T16:31:18Z</time>
      </trkpt>
      <trkpt lat="46.5733" lon="5.75309">
        <ele>550.2</ele>
        <time>2021-10-17T16:31:19Z</time>
      </trkpt>
      <trkpt lat="46.57334" lon="5.75303">
        <ele>550</ele>
        <time>2021-10-17T16:31:20Z</time>
      </trkpt>
      <trkpt lat="46.57339" lon="5.75297">
        <ele>550</ele>
        <time>2021-10-17T16:31:21Z</time>
      </trkpt>
      <trkpt lat="46.57343" lon="5.75291">
        <ele>549.8</ele>
        <time>2021-10-17T16:31:22Z</time>
      </trkpt>
      <trkpt lat="46.57349" lon="5.75286">
        <ele>549.8</ele>
        <time>2021-10-17T16:31:23Z</time>
      </trkpt>
      <trkpt lat="46.57354" lon="5.7528">
        <ele>549.4</ele>
        <time>2021-10-17T16:31:24Z</time>
      </trkpt>
      <trkpt lat="46.57359" lon="5.75274">
        <ele>549.4</ele>
        <time>2021-10-17T16:31:25Z</time>
      </trkpt>
      <trkpt lat="46.57365" lon="5.75268">
        <ele>549.2</ele>
        <time>2021-10-17T16:31:26Z</time>
      </trkpt>
      <trkpt lat="46.5737" lon="5.75261">
        <ele>549.2</ele>
        <time>2021-10-17T16:31:27Z</time>
      </trkpt>
      <trkpt lat="46.57376" lon="5.75255">
        <ele>549</ele>
        <time>2021-10-17T16:31:28Z</time>
      </trkpt>
      <trkpt lat="46.57381" lon="5.75248">
        <ele>549</ele>
        <time>2021-10-17T16:31:29Z</time>
      </trkpt>
      <trkpt lat="46.57387" lon="5.75241">
        <ele>548.6</ele>
        <time>2021-10-17T16:31:30Z</time>
      </trkpt>
      <trkpt lat="46.57393" lon="5.75235">
        <ele>548.6</ele>
        <time>2021-10-17T16:31:31Z</time>
      </trkpt>
      <trkpt lat="46.57398" lon="5.75228">
        <ele>548.2</ele>
        <time>2021-10-17T16:31:32Z</time>
      </trkpt>
      <trkpt lat="46.57404" lon="5.75221">
        <ele>548.2</ele>
        <time>2021-10-17T16:31:33Z</time>
      </trkpt>
      <trkpt lat="46.5741" lon="5.75214">
        <ele>547.8</ele>
        <time>2021-10-17T16:31:34Z</time>
      </trkpt>
      <trkpt lat="46.57416" lon="5.75208">
        <ele>547.8</ele>
        <time>2021-10-17T16:31:35Z</time>
      </trkpt>
      <trkpt lat="46.57421" lon="5.75201">
        <ele>547.6</ele>
        <time>2021-10-17T16:31:36Z</time>
      </trkpt>
      <trkpt lat="46.57427" lon="5.75194">
        <ele>547.4</ele>
        <time>2021-10-17T16:31:37Z</time>
      </trkpt>
      <trkpt lat="46.57433" lon="5.75187">
        <ele>547.2</ele>
        <time>2021-10-17T16:31:38Z</time>
      </trkpt>
      <trkpt lat="46.57438" lon="5.75181">
        <ele>547.2</ele>
        <time>2021-10-17T16:31:39Z</time>
      </trkpt>
      <trkpt lat="46.57444" lon="5.75174">
        <ele>546.8</ele>
        <time>2021-10-17T16:31:40Z</time>
      </trkpt>
      <trkpt lat="46.5745" lon="5.75167">
        <ele>546.8</ele>
        <time>2021-10-17T16:31:41Z</time>
      </trkpt>
      <trkpt lat="46.57455" lon="5.7516">
        <ele>546.4</ele>
        <time>2021-10-17T16:31:42Z</time>
      </trkpt>
      <trkpt lat="46.57461" lon="5.75153">
        <ele>546.4</ele>
        <time>2021-10-17T16:31:43Z</time>
      </trkpt>
      <trkpt lat="46.57466" lon="5.75146">
        <ele>546.2</ele>
        <time>2021-10-17T16:31:44Z</time>
      </trkpt>
      <trkpt lat="46.57472" lon="5.75139">
        <ele>546.2</ele>
        <time>2021-10-17T16:31:45Z</time>
      </trkpt>
      <trkpt lat="46.57477" lon="5.75131">
        <ele>545.8</ele>
        <time>2021-10-17T16:31:46Z</time>
      </trkpt>
      <trkpt lat="46.57482" lon="5.75124">
        <ele>545.8</ele>
        <time>2021-10-17T16:31:47Z</time>
      </trkpt>
      <trkpt lat="46.57487" lon="5.75118">
        <ele>545.6</ele>
        <time>2021-10-17T16:31:48Z</time>
      </trkpt>
      <trkpt lat="46.57493" lon="5.75111">
        <ele>545.6</ele>
        <time>2021-10-17T16:31:49Z</time>
      </trkpt>
      <trkpt lat="46.57498" lon="5.75104">
        <ele>545.4</ele>
        <time>2021-10-17T16:31:50Z</time>
      </trkpt>
      <trkpt lat="46.57503" lon="5.75097">
        <ele>545.4</ele>
        <time>2021-10-17T16:31:51Z</time>
      </trkpt>
      <trkpt lat="46.57508" lon="5.75091">
        <ele>545</ele>
        <time>2021-10-17T16:31:52Z</time>
      </trkpt>
      <trkpt lat="46.57513" lon="5.75084">
        <ele>545</ele>
        <time>2021-10-17T16:31:53Z</time>
      </trkpt>
      <trkpt lat="46.57518" lon="5.75078">
        <ele>544.6</ele>
        <time>2021-10-17T16:31:54Z</time>
      </trkpt>
      <trkpt lat="46.57522" lon="5.75073">
        <ele>544.6</ele>
        <time>2021-10-17T16:31:55Z</time>
      </trkpt>
      <trkpt lat="46.57526" lon="5.75069">
        <ele>544.6</ele>
        <time>2021-10-17T16:31:56Z</time>
      </trkpt>
      <trkpt lat="46.57529" lon="5.75067">
        <ele>544.6</ele>
        <time>2021-10-17T16:31:57Z</time>
      </trkpt>
      <trkpt lat="46.57531" lon="5.75067">
        <ele>544.4</ele>
        <time>2021-10-17T16:31:58Z</time>
      </trkpt>
      <trkpt lat="46.57534" lon="5.75068">
        <ele>544.4</ele>
        <time>2021-10-17T16:31:59Z</time>
      </trkpt>
      <trkpt lat="46.57538" lon="5.75069">
        <ele>544</ele>
        <time>2021-10-17T16:32:00Z</time>
      </trkpt>
      <trkpt lat="46.57542" lon="5.7507">
        <ele>544</ele>
        <time>2021-10-17T16:32:01Z</time>
      </trkpt>
      <trkpt lat="46.57547" lon="5.75071">
        <ele>544</ele>
        <time>2021-10-17T16:32:02Z</time>
      </trkpt>
      <trkpt lat="46.57552" lon="5.75073">
        <ele>543.6</ele>
        <time>2021-10-17T16:32:03Z</time>
      </trkpt>
      <trkpt lat="46.57557" lon="5.75076">
        <ele>543.4</ele>
        <time>2021-10-17T16:32:04Z</time>
      </trkpt>
      <trkpt lat="46.57562" lon="5.75079">
        <ele>543.4</ele>
        <time>2021-10-17T16:32:05Z</time>
      </trkpt>
      <trkpt lat="46.57568" lon="5.75082">
        <ele>543</ele>
        <time>2021-10-17T16:32:06Z</time>
      </trkpt>
      <trkpt lat="46.57574" lon="5.75085">
        <ele>543</ele>
        <time>2021-10-17T16:32:07Z</time>
      </trkpt>
      <trkpt lat="46.57579" lon="5.75088">
        <ele>542.8</ele>
        <time>2021-10-17T16:32:08Z</time>
      </trkpt>
      <trkpt lat="46.57585" lon="5.7509">
        <ele>542.6</ele>
        <time>2021-10-17T16:32:09Z</time>
      </trkpt>
      <trkpt lat="46.57591" lon="5.75093">
        <ele>542.2</ele>
        <time>2021-10-17T16:32:10Z</time>
      </trkpt>
      <trkpt lat="46.57597" lon="5.75096">
        <ele>542</ele>
        <time>2021-10-17T16:32:11Z</time>
      </trkpt>
      <trkpt lat="46.57603" lon="5.751">
        <ele>541.6</ele>
        <time>2021-10-17T16:32:12Z</time>
      </trkpt>
      <trkpt lat="46.57609" lon="5.75103">
        <ele>541.6</ele>
        <time>2021-10-17T16:32:13Z</time>
      </trkpt>
      <trkpt lat="46.57614" lon="5.75106">
        <ele>541.4</ele>
        <time>2021-10-17T16:32:14Z</time>
      </trkpt>
      <trkpt lat="46.57618" lon="5.75109">
        <ele>541.4</ele>
        <time>2021-10-17T16:32:15Z</time>
      </trkpt>
      <trkpt lat="46.57622" lon="5.75111">
        <ele>541</ele>
        <time>2021-10-17T16:32:16Z</time>
      </trkpt>
      <trkpt lat="46.57625" lon="5.75113">
        <ele>541</ele>
        <time>2021-10-17T16:32:17Z</time>
      </trkpt>
      <trkpt lat="46.57628" lon="5.75115">
        <ele>541</ele>
        <time>2021-10-17T16:32:18Z</time>
      </trkpt>
      <trkpt lat="46.57631" lon="5.75117">
        <ele>541</ele>
        <time>2021-10-17T16:32:19Z</time>
      </trkpt>
      <trkpt lat="46.57633" lon="5.75118">
        <ele>540.6</ele>
        <time>2021-10-17T16:32:20Z</time>
      </trkpt>
      <trkpt lat="46.57635" lon="5.75119">
        <ele>540.6</ele>
        <time>2021-10-17T16:32:21Z</time>
      </trkpt>
      <trkpt lat="46.57637" lon="5.75119">
        <ele>540.6</ele>
        <time>2021-10-17T16:32:22Z</time>
      </trkpt>
      <trkpt lat="46.57638" lon="5.75117">
        <ele>540.4</ele>
        <time>2021-10-17T16:32:23Z</time>
      </trkpt>
      <trkpt lat="46.57639" lon="5.75116">
        <ele>540.4</ele>
        <time>2021-10-17T16:32:24Z</time>
      </trkpt>
      <trkpt lat="46.5764" lon="5.75114">
        <ele>540.4</ele>
        <time>2021-10-17T16:32:25Z</time>
      </trkpt>
      <trkpt lat="46.57641" lon="5.75112">
        <ele>540.4</ele>
        <time>2021-10-17T16:32:26Z</time>
      </trkpt>
      <trkpt lat="46.57643" lon="5.7511">
        <ele>540.2</ele>
        <time>2021-10-17T16:32:27Z</time>
      </trkpt>
      <trkpt lat="46.57644" lon="5.75107">
        <ele>540.2</ele>
        <time>2021-10-17T16:32:28Z</time>
      </trkpt>
      <trkpt lat="46.57645" lon="5.75104">
        <ele>540.2</ele>
        <time>2021-10-17T16:32:29Z</time>
      </trkpt>
      <trkpt lat="46.57646" lon="5.75099">
        <ele>540</ele>
        <time>2021-10-17T16:32:30Z</time>
      </trkpt>
      <trkpt lat="46.57647" lon="5.75095">
        <ele>540</ele>
        <time>2021-10-17T16:32:31Z</time>
      </trkpt>
      <trkpt lat="46.57648" lon="5.75091">
        <ele>540</ele>
        <time>2021-10-17T16:32:32Z</time>
      </trkpt>
      <trkpt lat="46.57649" lon="5.75086">
        <ele>540</ele>
        <time>2021-10-17T16:32:33Z</time>
      </trkpt>
      <trkpt lat="46.5765" lon="5.75082">
        <ele>540</ele>
        <time>2021-10-17T16:32:34Z</time>
      </trkpt>
      <trkpt lat="46.57651" lon="5.75079">
        <ele>540</ele>
        <time>2021-10-17T16:32:35Z</time>
      </trkpt>
      <trkpt lat="46.57652" lon="5.75076">
        <ele>540</ele>
        <time>2021-10-17T16:32:36Z</time>
      </trkpt>
      <trkpt lat="46.57652" lon="5.75073">
        <ele>540</ele>
        <time>2021-10-17T16:32:37Z</time>
      </trkpt>
      <trkpt lat="46.57653" lon="5.7507">
        <ele>540</ele>
        <time>2021-10-17T16:32:38Z</time>
      </trkpt>
      <trkpt lat="46.57655" lon="5.75066">
        <ele>540</ele>
        <time>2021-10-17T16:32:39Z</time>
      </trkpt>
      <trkpt lat="46.57655" lon="5.75062">
        <ele>540</ele>
        <time>2021-10-17T16:32:40Z</time>
      </trkpt>
      <trkpt lat="46.57656" lon="5.75058">
        <ele>540</ele>
        <time>2021-10-17T16:32:41Z</time>
      </trkpt>
      <trkpt lat="46.57657" lon="5.75055">
        <ele>540</ele>
        <time>2021-10-17T16:32:42Z</time>
      </trkpt>
      <trkpt lat="46.57659" lon="5.75051">
        <ele>540</ele>
        <time>2021-10-17T16:32:43Z</time>
      </trkpt>
      <trkpt lat="46.5766" lon="5.75047">
        <ele>540</ele>
        <time>2021-10-17T16:32:44Z</time>
      </trkpt>
      <trkpt lat="46.57661" lon="5.75045">
        <ele>540</ele>
        <time>2021-10-17T16:32:45Z</time>
      </trkpt>
      <trkpt lat="46.57662" lon="5.75043">
        <ele>540</ele>
        <time>2021-10-17T16:32:46Z</time>
      </trkpt>
      <trkpt lat="46.57662" lon="5.75041">
        <ele>540</ele>
        <time>2021-10-17T16:32:47Z</time>
      </trkpt>
      <trkpt lat="46.57662" lon="5.75039">
        <ele>540.2</ele>
        <time>2021-10-17T16:32:48Z</time>
      </trkpt>
      <trkpt lat="46.57664" lon="5.75033">
        <ele>540.2</ele>
        <time>2021-10-17T16:32:51Z</time>
      </trkpt>
      <trkpt lat="46.57664" lon="5.75029">
        <ele>540.2</ele>
        <time>2021-10-17T16:32:52Z</time>
      </trkpt>
      <trkpt lat="46.57665" lon="5.75024">
        <ele>540.2</ele>
        <time>2021-10-17T16:32:53Z</time>
      </trkpt>
      <trkpt lat="46.57666" lon="5.75019">
        <ele>540.2</ele>
        <time>2021-10-17T16:32:54Z</time>
      </trkpt>
      <trkpt lat="46.57668" lon="5.75013">
        <ele>540.2</ele>
        <time>2021-10-17T16:32:55Z</time>
      </trkpt>
      <trkpt lat="46.5767" lon="5.75007">
        <ele>540.2</ele>
        <time>2021-10-17T16:32:56Z</time>
      </trkpt>
      <trkpt lat="46.57671" lon="5.75">
        <ele>539.8</ele>
        <time>2021-10-17T16:32:57Z</time>
      </trkpt>
      <trkpt lat="46.57672" lon="5.74994">
        <ele>539.8</ele>
        <time>2021-10-17T16:32:58Z</time>
      </trkpt>
      <trkpt lat="46.57672" lon="5.74987">
        <ele>539.6</ele>
        <time>2021-10-17T16:32:59Z</time>
      </trkpt>
      <trkpt lat="46.5767" lon="5.74981">
        <ele>539.6</ele>
        <time>2021-10-17T16:33:00Z</time>
      </trkpt>
      <trkpt lat="46.57668" lon="5.74975">
        <ele>539.4</ele>
        <time>2021-10-17T16:33:01Z</time>
      </trkpt>
      <trkpt lat="46.57664" lon="5.7497">
        <ele>539.4</ele>
        <time>2021-10-17T16:33:02Z</time>
      </trkpt>
      <trkpt lat="46.5766" lon="5.74965">
        <ele>539.4</ele>
        <time>2021-10-17T16:33:03Z</time>
      </trkpt>
      <trkpt lat="46.57656" lon="5.74961">
        <ele>539.4</ele>
        <time>2021-10-17T16:33:04Z</time>
      </trkpt>
      <trkpt lat="46.57651" lon="5.74958">
        <ele>539.4</ele>
        <time>2021-10-17T16:33:05Z</time>
      </trkpt>
      <trkpt lat="46.57647" lon="5.74955">
        <ele>539.4</ele>
        <time>2021-10-17T16:33:06Z</time>
      </trkpt>
      <trkpt lat="46.57643" lon="5.74952">
        <ele>539.4</ele>
        <time>2021-10-17T16:33:07Z</time>
      </trkpt>
      <trkpt lat="46.57639" lon="5.74949">
        <ele>539.8</ele>
        <time>2021-10-17T16:33:08Z</time>
      </trkpt>
      <trkpt lat="46.57635" lon="5.74946">
        <ele>539.8</ele>
        <time>2021-10-17T16:33:09Z</time>
      </trkpt>
      <trkpt lat="46.57631" lon="5.74943">
        <ele>539.8</ele>
        <time>2021-10-17T16:33:10Z</time>
      </trkpt>
      <trkpt lat="46.57627" lon="5.7494">
        <ele>540</ele>
        <time>2021-10-17T16:33:11Z</time>
      </trkpt>
      <trkpt lat="46.57623" lon="5.74937">
        <ele>540</ele>
        <time>2021-10-17T16:33:12Z</time>
      </trkpt>
      <trkpt lat="46.57619" lon="5.74934">
        <ele>540.2</ele>
        <time>2021-10-17T16:33:13Z</time>
      </trkpt>
      <trkpt lat="46.57615" lon="5.74931">
        <ele>540.2</ele>
        <time>2021-10-17T16:33:14Z</time>
      </trkpt>
      <trkpt lat="46.57611" lon="5.74927">
        <ele>540.6</ele>
        <time>2021-10-17T16:33:15Z</time>
      </trkpt>
      <trkpt lat="46.57606" lon="5.74924">
        <ele>540.6</ele>
        <time>2021-10-17T16:33:16Z</time>
      </trkpt>
      <trkpt lat="46.57602" lon="5.74921">
        <ele>540.8</ele>
        <time>2021-10-17T16:33:17Z</time>
      </trkpt>
      <trkpt lat="46.57597" lon="5.74919">
        <ele>540.8</ele>
        <time>2021-10-17T16:33:18Z</time>
      </trkpt>
      <trkpt lat="46.57593" lon="5.74917">
        <ele>541.2</ele>
        <time>2021-10-17T16:33:19Z</time>
      </trkpt>
      <trkpt lat="46.57589" lon="5.74915">
        <ele>541.2</ele>
        <time>2021-10-17T16:33:20Z</time>
      </trkpt>
      <trkpt lat="46.57585" lon="5.74913">
        <ele>541.6</ele>
        <time>2021-10-17T16:33:21Z</time>
      </trkpt>
      <trkpt lat="46.57581" lon="5.74911">
        <ele>541.6</ele>
        <time>2021-10-17T16:33:22Z</time>
      </trkpt>
      <trkpt lat="46.57577" lon="5.74909">
        <ele>541.6</ele>
        <time>2021-10-17T16:33:23Z</time>
      </trkpt>
      <trkpt lat="46.57573" lon="5.74907">
        <ele>541.6</ele>
        <time>2021-10-17T16:33:24Z</time>
      </trkpt>
      <trkpt lat="46.57568" lon="5.74905">
        <ele>541.6</ele>
        <time>2021-10-17T16:33:25Z</time>
      </trkpt>
      <trkpt lat="46.57564" lon="5.74902">
        <ele>541.2</ele>
        <time>2021-10-17T16:33:26Z</time>
      </trkpt>
      <trkpt lat="46.57559" lon="5.749">
        <ele>541</ele>
        <time>2021-10-17T16:33:27Z</time>
      </trkpt>
      <trkpt lat="46.57554" lon="5.74898">
        <ele>540.8</ele>
        <time>2021-10-17T16:33:28Z</time>
      </trkpt>
      <trkpt lat="46.5755" lon="5.74896">
        <ele>540.4</ele>
        <time>2021-10-17T16:33:29Z</time>
      </trkpt>
      <trkpt lat="46.57546" lon="5.74895">
        <ele>540.2</ele>
        <time>2021-10-17T16:33:30Z</time>
      </trkpt>
      <trkpt lat="46.57543" lon="5.74893">
        <ele>540.2</ele>
        <time>2021-10-17T16:33:31Z</time>
      </trkpt>
      <trkpt lat="46.57541" lon="5.74892">
        <ele>539.8</ele>
        <time>2021-10-17T16:33:32Z</time>
      </trkpt>
      <trkpt lat="46.57538" lon="5.74891">
        <ele>539.8</ele>
        <time>2021-10-17T16:33:33Z</time>
      </trkpt>
      <trkpt lat="46.57536" lon="5.74889">
        <ele>539.4</ele>
        <time>2021-10-17T16:33:34Z</time>
      </trkpt>
      <trkpt lat="46.57532" lon="5.74889">
        <ele>539.4</ele>
        <time>2021-10-17T16:33:35Z</time>
      </trkpt>
      <trkpt lat="46.57528" lon="5.74889">
        <ele>539</ele>
        <time>2021-10-17T16:33:36Z</time>
      </trkpt>
      <trkpt lat="46.57524" lon="5.74889">
        <ele>538.8</ele>
        <time>2021-10-17T16:33:37Z</time>
      </trkpt>
      <trkpt lat="46.57518" lon="5.74888">
        <ele>538.4</ele>
        <time>2021-10-17T16:33:38Z</time>
      </trkpt>
      <trkpt lat="46.57513" lon="5.74886">
        <ele>538</ele>
        <time>2021-10-17T16:33:39Z</time>
      </trkpt>
      <trkpt lat="46.57507" lon="5.74884">
        <ele>537.6</ele>
        <time>2021-10-17T16:33:40Z</time>
      </trkpt>
      <trkpt lat="46.57501" lon="5.74882">
        <ele>537.2</ele>
        <time>2021-10-17T16:33:41Z</time>
      </trkpt>
      <trkpt lat="46.57494" lon="5.7488">
        <ele>536.8</ele>
        <time>2021-10-17T16:33:42Z</time>
      </trkpt>
      <trkpt lat="46.57487" lon="5.74879">
        <ele>536.4</ele>
        <time>2021-10-17T16:33:43Z</time>
      </trkpt>
      <trkpt lat="46.57481" lon="5.74878">
        <ele>536</ele>
        <time>2021-10-17T16:33:44Z</time>
      </trkpt>
      <trkpt lat="46.57475" lon="5.74876">
        <ele>535.6</ele>
        <time>2021-10-17T16:33:45Z</time>
      </trkpt>
      <trkpt lat="46.57469" lon="5.74875">
        <ele>535.2</ele>
        <time>2021-10-17T16:33:46Z</time>
      </trkpt>
      <trkpt lat="46.57463" lon="5.74874">
        <ele>534.8</ele>
        <time>2021-10-17T16:33:47Z</time>
      </trkpt>
      <trkpt lat="46.57459" lon="5.74872">
        <ele>534.6</ele>
        <time>2021-10-17T16:33:48Z</time>
      </trkpt>
      <trkpt lat="46.57454" lon="5.74871">
        <ele>534.2</ele>
        <time>2021-10-17T16:33:49Z</time>
      </trkpt>
      <trkpt lat="46.57451" lon="5.7487">
        <ele>533.8</ele>
        <time>2021-10-17T16:33:50Z</time>
      </trkpt>
      <trkpt lat="46.57448" lon="5.7487">
        <ele>533.6</ele>
        <time>2021-10-17T16:33:51Z</time>
      </trkpt>
      <trkpt lat="46.57446" lon="5.74869">
        <ele>533.4</ele>
        <time>2021-10-17T16:33:52Z</time>
      </trkpt>
      <trkpt lat="46.57444" lon="5.74869">
        <ele>533.2</ele>
        <time>2021-10-17T16:33:53Z</time>
      </trkpt>
      <trkpt lat="46.57443" lon="5.74868">
        <ele>533.2</ele>
        <time>2021-10-17T16:33:54Z</time>
      </trkpt>
      <trkpt lat="46.57443" lon="5.74868">
        <ele>533</ele>
        <time>2021-10-17T16:33:55Z</time>
      </trkpt>
      <trkpt lat="46.57442" lon="5.74864">
        <ele>532.6</ele>
        <time>2021-10-17T16:34:09Z</time>
      </trkpt>
      <trkpt lat="46.5744" lon="5.74859">
        <ele>532.6</ele>
        <time>2021-10-17T16:34:10Z</time>
      </trkpt>
      <trkpt lat="46.57439" lon="5.74853">
        <ele>532.2</ele>
        <time>2021-10-17T16:34:11Z</time>
      </trkpt>
      <trkpt lat="46.57437" lon="5.74848">
        <ele>532</ele>
        <time>2021-10-17T16:34:12Z</time>
      </trkpt>
      <trkpt lat="46.57434" lon="5.74841">
        <ele>532</ele>
        <time>2021-10-17T16:34:13Z</time>
      </trkpt>
      <trkpt lat="46.57432" lon="5.74835">
        <ele>531.8</ele>
        <time>2021-10-17T16:34:14Z</time>
      </trkpt>
      <trkpt lat="46.57429" lon="5.74828">
        <ele>531.8</ele>
        <time>2021-10-17T16:34:15Z</time>
      </trkpt>
      <trkpt lat="46.57427" lon="5.74821">
        <ele>531.8</ele>
        <time>2021-10-17T16:34:16Z</time>
      </trkpt>
      <trkpt lat="46.57424" lon="5.74815">
        <ele>531.8</ele>
        <time>2021-10-17T16:34:17Z</time>
      </trkpt>
      <trkpt lat="46.57422" lon="5.74808">
        <ele>531.8</ele>
        <time>2021-10-17T16:34:18Z</time>
      </trkpt>
      <trkpt lat="46.57421" lon="5.74801">
        <ele>531.8</ele>
        <time>2021-10-17T16:34:19Z</time>
      </trkpt>
      <trkpt lat="46.57421" lon="5.74795">
        <ele>531.8</ele>
        <time>2021-10-17T16:34:20Z</time>
      </trkpt>
      <trkpt lat="46.57421" lon="5.74789">
        <ele>531.8</ele>
        <time>2021-10-17T16:34:21Z</time>
      </trkpt>
      <trkpt lat="46.57422" lon="5.74783">
        <ele>531.6</ele>
        <time>2021-10-17T16:34:22Z</time>
      </trkpt>
      <trkpt lat="46.57423" lon="5.74777">
        <ele>531.6</ele>
        <time>2021-10-17T16:34:23Z</time>
      </trkpt>
      <trkpt lat="46.57425" lon="5.74771">
        <ele>531.6</ele>
        <time>2021-10-17T16:34:24Z</time>
      </trkpt>
      <trkpt lat="46.57428" lon="5.74765">
        <ele>531.6</ele>
        <time>2021-10-17T16:34:25Z</time>
      </trkpt>
      <trkpt lat="46.5743" lon="5.74761">
        <ele>532</ele>
        <time>2021-10-17T16:34:26Z</time>
      </trkpt>
      <trkpt lat="46.57434" lon="5.74757">
        <ele>532</ele>
        <time>2021-10-17T16:34:27Z</time>
      </trkpt>
      <trkpt lat="46.57438" lon="5.74755">
        <ele>532.4</ele>
        <time>2021-10-17T16:34:28Z</time>
      </trkpt>
      <trkpt lat="46.57442" lon="5.74753">
        <ele>532.4</ele>
        <time>2021-10-17T16:34:29Z</time>
      </trkpt>
      <trkpt lat="46.57445" lon="5.74752">
        <ele>532.8</ele>
        <time>2021-10-17T16:34:30Z</time>
      </trkpt>
      <trkpt lat="46.57449" lon="5.74752">
        <ele>532.8</ele>
        <time>2021-10-17T16:34:31Z</time>
      </trkpt>
      <trkpt lat="46.57453" lon="5.74752">
        <ele>533</ele>
        <time>2021-10-17T16:34:32Z</time>
      </trkpt>
      <trkpt lat="46.57457" lon="5.74752">
        <ele>533</ele>
        <time>2021-10-17T16:34:33Z</time>
      </trkpt>
      <trkpt lat="46.57461" lon="5.74752">
        <ele>533.4</ele>
        <time>2021-10-17T16:34:34Z</time>
      </trkpt>
      <trkpt lat="46.57466" lon="5.74752">
        <ele>533.4</ele>
        <time>2021-10-17T16:34:35Z</time>
      </trkpt>
      <trkpt lat="46.5747" lon="5.74752">
        <ele>533.6</ele>
        <time>2021-10-17T16:34:36Z</time>
      </trkpt>
      <trkpt lat="46.57476" lon="5.74751">
        <ele>533.6</ele>
        <time>2021-10-17T16:34:37Z</time>
      </trkpt>
      <trkpt lat="46.57481" lon="5.7475">
        <ele>533.8</ele>
        <time>2021-10-17T16:34:38Z</time>
      </trkpt>
      <trkpt lat="46.57486" lon="5.74749">
        <ele>533.8</ele>
        <time>2021-10-17T16:34:39Z</time>
      </trkpt>
      <trkpt lat="46.5749" lon="5.74747">
        <ele>534.2</ele>
        <time>2021-10-17T16:34:40Z</time>
      </trkpt>
      <trkpt lat="46.57495" lon="5.74746">
        <ele>534.2</ele>
        <time>2021-10-17T16:34:41Z</time>
      </trkpt>
      <trkpt lat="46.575" lon="5.74745">
        <ele>534.4</ele>
        <time>2021-10-17T16:34:42Z</time>
      </trkpt>
      <trkpt lat="46.57504" lon="5.74743">
        <ele>534.6</ele>
        <time>2021-10-17T16:34:43Z</time>
      </trkpt>
      <trkpt lat="46.57509" lon="5.74742">
        <ele>535</ele>
        <time>2021-10-17T16:34:44Z</time>
      </trkpt>
      <trkpt lat="46.57514" lon="5.7474">
        <ele>535.2</ele>
        <time>2021-10-17T16:34:45Z</time>
      </trkpt>
      <trkpt lat="46.57519" lon="5.74738">
        <ele>535.2</ele>
        <time>2021-10-17T16:34:46Z</time>
      </trkpt>
      <trkpt lat="46.57524" lon="5.74737">
        <ele>535.6</ele>
        <time>2021-10-17T16:34:47Z</time>
      </trkpt>
      <trkpt lat="46.5753" lon="5.74736">
        <ele>535.8</ele>
        <time>2021-10-17T16:34:48Z</time>
      </trkpt>
      <trkpt lat="46.57536" lon="5.74734">
        <ele>536</ele>
        <time>2021-10-17T16:34:49Z</time>
      </trkpt>
      <trkpt lat="46.57541" lon="5.74733">
        <ele>536.2</ele>
        <time>2021-10-17T16:34:50Z</time>
      </trkpt>
      <trkpt lat="46.57547" lon="5.74731">
        <ele>536.4</ele>
        <time>2021-10-17T16:34:51Z</time>
      </trkpt>
      <trkpt lat="46.57552" lon="5.7473">
        <ele>536.8</ele>
        <time>2021-10-17T16:34:52Z</time>
      </trkpt>
      <trkpt lat="46.57558" lon="5.74728">
        <ele>536.8</ele>
        <time>2021-10-17T16:34:53Z</time>
      </trkpt>
      <trkpt lat="46.57563" lon="5.74727">
        <ele>537</ele>
        <time>2021-10-17T16:34:54Z</time>
      </trkpt>
      <trkpt lat="46.57567" lon="5.74726">
        <ele>537</ele>
        <time>2021-10-17T16:34:55Z</time>
      </trkpt>
      <trkpt lat="46.57572" lon="5.74724">
        <ele>537.4</ele>
        <time>2021-10-17T16:34:56Z</time>
      </trkpt>
      <trkpt lat="46.57577" lon="5.74723">
        <ele>537.6</ele>
        <time>2021-10-17T16:34:57Z</time>
      </trkpt>
      <trkpt lat="46.57582" lon="5.74722">
        <ele>537.6</ele>
        <time>2021-10-17T16:34:58Z</time>
      </trkpt>
      <trkpt lat="46.57586" lon="5.7472">
        <ele>537.6</ele>
        <time>2021-10-17T16:34:59Z</time>
      </trkpt>
      <trkpt lat="46.57591" lon="5.74719">
        <ele>538</ele>
        <time>2021-10-17T16:35:00Z</time>
      </trkpt>
      <trkpt lat="46.57596" lon="5.74718">
        <ele>538</ele>
        <time>2021-10-17T16:35:01Z</time>
      </trkpt>
      <trkpt lat="46.57601" lon="5.74716">
        <ele>538</ele>
        <time>2021-10-17T16:35:02Z</time>
      </trkpt>
      <trkpt lat="46.57605" lon="5.74715">
        <ele>538.2</ele>
        <time>2021-10-17T16:35:03Z</time>
      </trkpt>
      <trkpt lat="46.57611" lon="5.74714">
        <ele>538.2</ele>
        <time>2021-10-17T16:35:04Z</time>
      </trkpt>
      <trkpt lat="46.57616" lon="5.74713">
        <ele>538.2</ele>
        <time>2021-10-17T16:35:05Z</time>
      </trkpt>
      <trkpt lat="46.57621" lon="5.74712">
        <ele>538.2</ele>
        <time>2021-10-17T16:35:06Z</time>
      </trkpt>
      <trkpt lat="46.57626" lon="5.74712">
        <ele>538.2</ele>
        <time>2021-10-17T16:35:07Z</time>
      </trkpt>
      <trkpt lat="46.57632" lon="5.74712">
        <ele>538.4</ele>
        <time>2021-10-17T16:35:08Z</time>
      </trkpt>
      <trkpt lat="46.57638" lon="5.74711">
        <ele>538.4</ele>
        <time>2021-10-17T16:35:09Z</time>
      </trkpt>
      <trkpt lat="46.57644" lon="5.74712">
        <ele>538.4</ele>
        <time>2021-10-17T16:35:10Z</time>
      </trkpt>
      <trkpt lat="46.5765" lon="5.74712">
        <ele>538.4</ele>
        <time>2021-10-17T16:35:11Z</time>
      </trkpt>
      <trkpt lat="46.57657" lon="5.74712">
        <ele>538.2</ele>
        <time>2021-10-17T16:35:12Z</time>
      </trkpt>
      <trkpt lat="46.57663" lon="5.74713">
        <ele>538.2</ele>
        <time>2021-10-17T16:35:13Z</time>
      </trkpt>
      <trkpt lat="46.57669" lon="5.74714">
        <ele>538</ele>
        <time>2021-10-17T16:35:14Z</time>
      </trkpt>
      <trkpt lat="46.57676" lon="5.74715">
        <ele>538</ele>
        <time>2021-10-17T16:35:15Z</time>
      </trkpt>
      <trkpt lat="46.57682" lon="5.74715">
        <ele>538</ele>
        <time>2021-10-17T16:35:16Z</time>
      </trkpt>
      <trkpt lat="46.57689" lon="5.74716">
        <ele>538</ele>
        <time>2021-10-17T16:35:17Z</time>
      </trkpt>
      <trkpt lat="46.57695" lon="5.74717">
        <ele>538</ele>
        <time>2021-10-17T16:35:18Z</time>
      </trkpt>
      <trkpt lat="46.57702" lon="5.74718">
        <ele>538</ele>
        <time>2021-10-17T16:35:19Z</time>
      </trkpt>
      <trkpt lat="46.57708" lon="5.74719">
        <ele>538</ele>
        <time>2021-10-17T16:35:20Z</time>
      </trkpt>
      <trkpt lat="46.57715" lon="5.7472">
        <ele>538</ele>
        <time>2021-10-17T16:35:21Z</time>
      </trkpt>
      <trkpt lat="46.57721" lon="5.74721">
        <ele>538</ele>
        <time>2021-10-17T16:35:22Z</time>
      </trkpt>
    </trkseg>
  </trk>
</gpx>